<?xml version='1.0' encoding='UTF-8'?><gpx version="1.1" creator="JPX - https://github.com/jenetics/jpx" xmlns="http://www.topografix.com/GPX/1/1"><trk><trkseg><trkpt lat="44.74045748126681" lon="0.16112461449591128"><ele>109.00000000000001</ele><time>2026-04-19T08:16:33.005Z</time></trkpt><trkpt lat="44.74041558279896" lon="0.1612364916338627"><ele>109.0</ele><time>2026-04-19T08:16:35.005Z</time></trkpt><trkpt lat="44.740390149249144" lon="0.16133132310572054"><ele>109.0</ele><time>2026-04-19T08:16:36.005Z</time></trkpt><trkpt lat="44.74035385644454" lon="0.16144974375163054"><ele>109.0</ele><time>2026-04-19T08:16:37.005Z</time></trkpt><trkpt lat="44.74032616109812" lon="0.1615739595058196"><ele>109.00000000000001</ele><time>2026-04-19T08:16:38.005Z</time></trkpt><trkpt lat="44.74030604671146" lon="0.1616961812378204"><ele>109.0</ele><time>2026-04-19T08:16:39.005Z</time></trkpt><trkpt lat="44.7402670570213" lon="0.16181961936215775"><ele>109.2</ele><time>2026-04-19T08:16:40.005Z</time></trkpt><trkpt lat="44.740236080336786" lon="0.16195283763254953"><ele>109.4</ele><time>2026-04-19T08:16:41.005Z</time></trkpt><trkpt lat="44.74018321483113" lon="0.1620877019813565"><ele>109.6</ele><time>2026-04-19T08:16:42.005Z</time></trkpt><trkpt lat="44.74015690077399" lon="0.16224326086781166"><ele>109.8</ele><time>2026-04-19T08:16:43.005Z</time></trkpt><trkpt lat="44.74011926598457" lon="0.1623981499778889"><ele>110.0</ele><time>2026-04-19T08:16:44.005Z</time></trkpt><trkpt lat="44.74007133011806" lon="0.16256249024114067"><ele>110.25</ele><time>2026-04-19T08:16:45.005Z</time></trkpt><trkpt lat="44.740027398552826" lon="0.1627417303445248"><ele>110.5</ele><time>2026-04-19T08:16:46.005Z</time></trkpt><trkpt lat="44.73997315474645" lon="0.16293988389495703"><ele>110.75</ele><time>2026-04-19T08:16:47.005Z</time></trkpt><trkpt lat="44.739917259530436" lon="0.16314542488414666"><ele>111.0</ele><time>2026-04-19T08:16:48.005Z</time></trkpt><trkpt lat="44.73985264903538" lon="0.16337024771330627"><ele>111.66666666666666</ele><time>2026-04-19T08:16:49.005Z</time></trkpt><trkpt lat="44.73977006228402" lon="0.1635897734488082"><ele>112.33333333333333</ele><time>2026-04-19T08:16:50.005Z</time></trkpt><trkpt lat="44.73971017690806" lon="0.16382707959331685"><ele>113.0</ele><time>2026-04-19T08:16:51.005Z</time></trkpt><trkpt lat="44.73966993345681" lon="0.16406990868495636"><ele>113.33333333333333</ele><time>2026-04-19T08:16:52.005Z</time></trkpt><trkpt lat="44.73962307849497" lon="0.1643280161349186"><ele>113.66666666666666</ele><time>2026-04-19T08:16:53.005Z</time></trkpt><trkpt lat="44.739587844766" lon="0.16460155894723555"><ele>114.0</ele><time>2026-04-19T08:16:54.005Z</time></trkpt><trkpt lat="44.7395682484885" lon="0.16490235943500228"><ele>115.0</ele><time>2026-04-19T08:16:55.005Z</time></trkpt><trkpt lat="44.739563363654675" lon="0.16522780424447564"><ele>116.0</ele><time>2026-04-19T08:16:56.005Z</time></trkpt><trkpt lat="44.73957169744722" lon="0.16556259099527343"><ele>116.0</ele><time>2026-04-19T08:16:57.005Z</time></trkpt><trkpt lat="44.739560985739836" lon="0.16589322024754602"><ele>116.0</ele><time>2026-04-19T08:16:58.005Z</time></trkpt><trkpt lat="44.73956851160112" lon="0.16622257573422466"><ele>115.5</ele><time>2026-04-19T08:16:59.005Z</time></trkpt><trkpt lat="44.73957659276543" lon="0.16654818018489195"><ele>115.0</ele><time>2026-04-19T08:17:00.005Z</time></trkpt><trkpt lat="44.73958486654437" lon="0.16687113005854454"><ele>115.0</ele><time>2026-04-19T08:17:01.005Z</time></trkpt><trkpt lat="44.73959299559582" lon="0.16718843084836785"><ele>115.0</ele><time>2026-04-19T08:17:02.005Z</time></trkpt><trkpt lat="44.7396011851795" lon="0.16750809429865168"><ele>115.66666666666667</ele><time>2026-04-19T08:17:03.005Z</time></trkpt><trkpt lat="44.739609545863885" lon="0.16781768211096224"><ele>116.33333333333334</ele><time>2026-04-19T08:17:04.005Z</time></trkpt><trkpt lat="44.739619546454534" lon="0.1681340012078189"><ele>117.0</ele><time>2026-04-19T08:17:05.005Z</time></trkpt><trkpt lat="44.73962326827776" lon="0.16844792530936722"><ele>117.66666666666666</ele><time>2026-04-19T08:17:06.005Z</time></trkpt><trkpt lat="44.73962944471562" lon="0.16874007004497948"><ele>118.33333333333333</ele><time>2026-04-19T08:17:07.005Z</time></trkpt><trkpt lat="44.739627793866205" lon="0.16903009920767278"><ele>119.0</ele><time>2026-04-19T08:17:08.005Z</time></trkpt><trkpt lat="44.73963226735558" lon="0.16930922802881995"><ele>120.33333333333333</ele><time>2026-04-19T08:17:09.005Z</time></trkpt><trkpt lat="44.739637669009014" lon="0.16958842030029195"><ele>121.66666666666666</ele><time>2026-04-19T08:17:10.005Z</time></trkpt><trkpt lat="44.73965524031057" lon="0.16986405734972898"><ele>123.0</ele><time>2026-04-19T08:17:11.005Z</time></trkpt><trkpt lat="44.739671537433196" lon="0.1701236617755208"><ele>123.33333333333334</ele><time>2026-04-19T08:17:12.005Z</time></trkpt><trkpt lat="44.739686501724975" lon="0.17041830107199887"><ele>123.66666666666667</ele><time>2026-04-19T08:17:13.005Z</time></trkpt><trkpt lat="44.7396563572124" lon="0.17070044187473202"><ele>124.0</ele><time>2026-04-19T08:17:14.005Z</time></trkpt><trkpt lat="44.73961014096269" lon="0.17094932546613908"><ele>123.66666666666667</ele><time>2026-04-19T08:17:15.005Z</time></trkpt><trkpt lat="44.73955374344333" lon="0.17121250194159468"><ele>123.33333333333334</ele><time>2026-04-19T08:17:16.005Z</time></trkpt><trkpt lat="44.73948942463568" lon="0.17147855559702793"><ele>123.0</ele><time>2026-04-19T08:17:17.005Z</time></trkpt><trkpt lat="44.73941252321139" lon="0.17175243653979125"><ele>122.33333333333334</ele><time>2026-04-19T08:17:18.005Z</time></trkpt><trkpt lat="44.73931127452322" lon="0.17203221061597432"><ele>121.66666666666667</ele><time>2026-04-19T08:17:19.005Z</time></trkpt><trkpt lat="44.73919050679063" lon="0.17228931605484177"><ele>121.0</ele><time>2026-04-19T08:17:20.005Z</time></trkpt><trkpt lat="44.7390745519035" lon="0.17255662204224673"><ele>120.5</ele><time>2026-04-19T08:17:21.005Z</time></trkpt><trkpt lat="44.73897161330081" lon="0.17284144459442546"><ele>120.0</ele><time>2026-04-19T08:17:22.005Z</time></trkpt><trkpt lat="44.73885090818904" lon="0.17311735553928254"><ele>120.5</ele><time>2026-04-19T08:17:23.005Z</time></trkpt><trkpt lat="44.738732679701805" lon="0.17339951956371055"><ele>121.0</ele><time>2026-04-19T08:17:24.005Z</time></trkpt><trkpt lat="44.73862472159747" lon="0.1736769482327234"><ele>120.66666666666667</ele><time>2026-04-19T08:17:25.005Z</time></trkpt><trkpt lat="44.738509426179405" lon="0.17394973964735877"><ele>120.33333333333334</ele><time>2026-04-19T08:17:26.005Z</time></trkpt><trkpt lat="44.73839740997722" lon="0.17421720904997554"><ele>120.0</ele><time>2026-04-19T08:17:27.005Z</time></trkpt><trkpt lat="44.738277447520524" lon="0.17445884085208127"><ele>120.0</ele><time>2026-04-19T08:17:28.005Z</time></trkpt><trkpt lat="44.73817344760424" lon="0.17471204689841432"><ele>120.0</ele><time>2026-04-19T08:17:29.005Z</time></trkpt><trkpt lat="44.73801964400652" lon="0.17491283235947788"><ele>120.0</ele><time>2026-04-19T08:17:30.005Z</time></trkpt><trkpt lat="44.737851421880656" lon="0.17511200297897384"><ele>121.66666666666666</ele><time>2026-04-19T08:17:31.005Z</time></trkpt><trkpt lat="44.737681171012234" lon="0.17529304696974476"><ele>123.33333333333333</ele><time>2026-04-19T08:17:32.005Z</time></trkpt><trkpt lat="44.73750111420844" lon="0.175472206769897"><ele>125.0</ele><time>2026-04-19T08:17:33.005Z</time></trkpt><trkpt lat="44.73731273200971" lon="0.17564840049969335"><ele>124.5</ele><time>2026-04-19T08:17:34.005Z</time></trkpt><trkpt lat="44.73712041272119" lon="0.17582440224761314"><ele>124.0</ele><time>2026-04-19T08:17:35.005Z</time></trkpt><trkpt lat="44.73692502806292" lon="0.1760013847144807"><ele>124.5</ele><time>2026-04-19T08:17:36.005Z</time></trkpt><trkpt lat="44.73673177265173" lon="0.17617107884520697"><ele>125.0</ele><time>2026-04-19T08:17:37.005Z</time></trkpt><trkpt lat="44.736531628259485" lon="0.1763481721144803"><ele>125.0</ele><time>2026-04-19T08:17:38.005Z</time></trkpt><trkpt lat="44.73633820062697" lon="0.17651488805900734"><ele>125.0</ele><time>2026-04-19T08:17:39.005Z</time></trkpt><trkpt lat="44.73614018210772" lon="0.17667437382805057"><ele>124.0</ele><time>2026-04-19T08:17:40.005Z</time></trkpt><trkpt lat="44.73594951919272" lon="0.1768176304677139"><ele>123.0</ele><time>2026-04-19T08:17:41.005Z</time></trkpt><trkpt lat="44.73575344410384" lon="0.17696438166604828"><ele>122.0</ele><time>2026-04-19T08:17:42.005Z</time></trkpt><trkpt lat="44.735551368966796" lon="0.17711537615480855"><ele>122.0</ele><time>2026-04-19T08:17:43.005Z</time></trkpt><trkpt lat="44.73535471485219" lon="0.1772567379266566"><ele>122.0</ele><time>2026-04-19T08:17:44.005Z</time></trkpt><trkpt lat="44.7351582167687" lon="0.17739347104696745"><ele>122.0</ele><time>2026-04-19T08:17:45.005Z</time></trkpt><trkpt lat="44.73496118473222" lon="0.17752871173452925"><ele>122.0</ele><time>2026-04-19T08:17:46.005Z</time></trkpt><trkpt lat="44.73476251754059" lon="0.17766504448658083"><ele>122.0</ele><time>2026-04-19T08:17:47.005Z</time></trkpt><trkpt lat="44.73457040578617" lon="0.1778013902088042"><ele>122.0</ele><time>2026-04-19T08:17:48.005Z</time></trkpt><trkpt lat="44.73438608615758" lon="0.1779584981918727"><ele>122.33333333333333</ele><time>2026-04-19T08:17:49.005Z</time></trkpt><trkpt lat="44.73419399082468" lon="0.17809400177008664"><ele>122.66666666666666</ele><time>2026-04-19T08:17:50.005Z</time></trkpt><trkpt lat="44.73400446487805" lon="0.17823329015711606"><ele>123.0</ele><time>2026-04-19T08:17:51.005Z</time></trkpt><trkpt lat="44.73381179272539" lon="0.1783703084944251"><ele>123.0</ele><time>2026-04-19T08:17:52.005Z</time></trkpt><trkpt lat="44.733616768652055" lon="0.17850819476294424"><ele>123.0</ele><time>2026-04-19T08:17:53.005Z</time></trkpt><trkpt lat="44.73342181325437" lon="0.17864629630598575"><ele>123.0</ele><time>2026-04-19T08:17:54.005Z</time></trkpt><trkpt lat="44.73322849052404" lon="0.17879211361753117"><ele>123.0</ele><time>2026-04-19T08:17:55.005Z</time></trkpt><trkpt lat="44.73303015732889" lon="0.1789345490372229"><ele>123.0</ele><time>2026-04-19T08:17:56.005Z</time></trkpt><trkpt lat="44.732830931277164" lon="0.17905284206766553"><ele>123.0</ele><time>2026-04-19T08:17:57.005Z</time></trkpt><trkpt lat="44.73263576172833" lon="0.17919429820784338"><ele>123.0</ele><time>2026-04-19T08:17:58.005Z</time></trkpt><trkpt lat="44.73243830667911" lon="0.17934400499016379"><ele>123.0</ele><time>2026-04-19T08:17:59.005Z</time></trkpt><trkpt lat="44.732247198311" lon="0.1794895389446133"><ele>123.0</ele><time>2026-04-19T08:18:00.005Z</time></trkpt><trkpt lat="44.73205025713838" lon="0.1796317568480431"><ele>123.0</ele><time>2026-04-19T08:18:01.005Z</time></trkpt><trkpt lat="44.73184922977063" lon="0.17977326769158852"><ele>123.0</ele><time>2026-04-19T08:18:02.005Z</time></trkpt><trkpt lat="44.731650907501866" lon="0.17991651372788345"><ele>123.0</ele><time>2026-04-19T08:18:03.005Z</time></trkpt><trkpt lat="44.73145799468286" lon="0.18006511638313788"><ele>123.0</ele><time>2026-04-19T08:18:04.005Z</time></trkpt><trkpt lat="44.731265362372945" lon="0.180232357481705"><ele>123.0</ele><time>2026-04-19T08:18:05.005Z</time></trkpt><trkpt lat="44.731089366958734" lon="0.18042192043666908"><ele>123.0</ele><time>2026-04-19T08:18:06.005Z</time></trkpt><trkpt lat="44.73093160849692" lon="0.18060999214772522"><ele>122.0</ele><time>2026-04-19T08:18:07.004Z</time></trkpt><trkpt lat="44.73078895996046" lon="0.18079442502392556"><ele>121.0</ele><time>2026-04-19T08:18:08.004Z</time></trkpt><trkpt lat="44.73064650537963" lon="0.18096912017435843"><ele>120.0</ele><time>2026-04-19T08:18:09.004Z</time></trkpt><trkpt lat="44.73051866780779" lon="0.18112638081667737"><ele>120.0</ele><time>2026-04-19T08:18:10.004Z</time></trkpt><trkpt lat="44.73039891888125" lon="0.18127516252548512"><ele>120.0</ele><time>2026-04-19T08:18:11.004Z</time></trkpt><trkpt lat="44.73027577611516" lon="0.1814338347258219"><ele>120.0</ele><time>2026-04-19T08:18:12.004Z</time></trkpt><trkpt lat="44.73015494022433" lon="0.18158323003898943"><ele>121.33333333333334</ele><time>2026-04-19T08:18:13.003Z</time></trkpt><trkpt lat="44.7300120048113" lon="0.18172178170176065"><ele>122.66666666666667</ele><time>2026-04-19T08:18:14.003Z</time></trkpt><trkpt lat="44.7298534175927" lon="0.18184788560491852"><ele>124.0</ele><time>2026-04-19T08:18:15.003Z</time></trkpt><trkpt lat="44.72968608917601" lon="0.18199492308748788"><ele>124.0</ele><time>2026-04-19T08:18:16.004Z</time></trkpt><trkpt lat="44.72949430218079" lon="0.18214235147669217"><ele>124.0</ele><time>2026-04-19T08:18:17.004Z</time></trkpt><trkpt lat="44.72929248640664" lon="0.18229231384120625"><ele>124.0</ele><time>2026-04-19T08:18:18.004Z</time></trkpt><trkpt lat="44.72909279332664" lon="0.18244629536136286"><ele>123.0</ele><time>2026-04-19T08:18:19.003Z</time></trkpt><trkpt lat="44.72888774354458" lon="0.18261030782822746"><ele>122.0</ele><time>2026-04-19T08:18:20.003Z</time></trkpt><trkpt lat="44.72868188870286" lon="0.1827758072846303"><ele>121.5</ele><time>2026-04-19T08:18:21.003Z</time></trkpt><trkpt lat="44.72848415396004" lon="0.18293662419459086"><ele>121.0</ele><time>2026-04-19T08:18:22.003Z</time></trkpt><trkpt lat="44.728280965845876" lon="0.18308976285734227"><ele>121.0</ele><time>2026-04-19T08:18:23.003Z</time></trkpt><trkpt lat="44.72809123391126" lon="0.18325139556344475"><ele>121.0</ele><time>2026-04-19T08:18:24.003Z</time></trkpt><trkpt lat="44.727882121609895" lon="0.18340476967664726"><ele>120.5</ele><time>2026-04-19T08:18:25.003Z</time></trkpt><trkpt lat="44.72767122401338" lon="0.18353572742989485"><ele>120.0</ele><time>2026-04-19T08:18:26.003Z</time></trkpt><trkpt lat="44.727449070758404" lon="0.18363627928402865"><ele>120.0</ele><time>2026-04-19T08:18:27.003Z</time></trkpt><trkpt lat="44.72721296318479" lon="0.18370190098148736"><ele>120.0</ele><time>2026-04-19T08:18:28.003Z</time></trkpt><trkpt lat="44.72696999199864" lon="0.18375364793086132"><ele>120.0</ele><time>2026-04-19T08:18:29.003Z</time></trkpt><trkpt lat="44.726727793623404" lon="0.18381433629901134"><ele>120.0</ele><time>2026-04-19T08:18:30.003Z</time></trkpt><trkpt lat="44.7264936865775" lon="0.18386978171600762"><ele>120.0</ele><time>2026-04-19T08:18:31.003Z</time></trkpt><trkpt lat="44.726265054053826" lon="0.18392542111973836"><ele>120.0</ele><time>2026-04-19T08:18:32.003Z</time></trkpt><trkpt lat="44.726043220967405" lon="0.18398525146873765"><ele>119.0</ele><time>2026-04-19T08:18:33.003Z</time></trkpt><trkpt lat="44.72582701937926" lon="0.1840416461767613"><ele>118.0</ele><time>2026-04-19T08:18:34.003Z</time></trkpt><trkpt lat="44.72561895505847" lon="0.18409720868441068"><ele>117.0</ele><time>2026-04-19T08:18:35.003Z</time></trkpt><trkpt lat="44.72541974548348" lon="0.18414612981593062"><ele>116.33333333333334</ele><time>2026-04-19T08:18:36.003Z</time></trkpt><trkpt lat="44.72522298149887" lon="0.18415702045346738"><ele>115.66666666666667</ele><time>2026-04-19T08:18:37.003Z</time></trkpt><trkpt lat="44.72502470499397" lon="0.18412403229215363"><ele>115.0</ele><time>2026-04-19T08:18:38.003Z</time></trkpt><trkpt lat="44.72483114226246" lon="0.184039118988556"><ele>115.33333333333334</ele><time>2026-04-19T08:18:39.003Z</time></trkpt><trkpt lat="44.724636665424725" lon="0.18390930114606546"><ele>115.66666666666666</ele><time>2026-04-19T08:18:40.003Z</time></trkpt><trkpt lat="44.72443938282042" lon="0.18377843929716015"><ele>116.0</ele><time>2026-04-19T08:18:41.003Z</time></trkpt><trkpt lat="44.724236576666" lon="0.18366240965393976"><ele>116.0</ele><time>2026-04-19T08:18:42.003Z</time></trkpt><trkpt lat="44.72403154911169" lon="0.18353581494731916"><ele>116.0</ele><time>2026-04-19T08:18:43.003Z</time></trkpt><trkpt lat="44.72382729439968" lon="0.18341760806103616"><ele>116.0</ele><time>2026-04-19T08:18:44.003Z</time></trkpt><trkpt lat="44.72362349360831" lon="0.18329764118489178"><ele>116.0</ele><time>2026-04-19T08:18:45.003Z</time></trkpt><trkpt lat="44.72341912039598" lon="0.18319196986484632"><ele>116.0</ele><time>2026-04-19T08:18:46.003Z</time></trkpt><trkpt lat="44.72321082342548" lon="0.18310144866381378"><ele>116.0</ele><time>2026-04-19T08:18:47.003Z</time></trkpt><trkpt lat="44.722996316914994" lon="0.18302606643456254"><ele>116.0</ele><time>2026-04-19T08:18:48.003Z</time></trkpt><trkpt lat="44.72277354140343" lon="0.18297903287814204"><ele>116.0</ele><time>2026-04-19T08:18:49.003Z</time></trkpt><trkpt lat="44.722545495204905" lon="0.1829612002991538"><ele>114.5</ele><time>2026-04-19T08:18:50.003Z</time></trkpt><trkpt lat="44.722313021153305" lon="0.18296293373473374"><ele>113.0</ele><time>2026-04-19T08:18:51.003Z</time></trkpt><trkpt lat="44.722074382514734" lon="0.18297389407248735"><ele>112.5</ele><time>2026-04-19T08:18:52.003Z</time></trkpt><trkpt lat="44.721832606343014" lon="0.1829840090336054"><ele>112.0</ele><time>2026-04-19T08:18:53.003Z</time></trkpt><trkpt lat="44.72159052406538" lon="0.1829919078250551"><ele>112.0</ele><time>2026-04-19T08:18:54.003Z</time></trkpt><trkpt lat="44.72134524920249" lon="0.1830029476464444"><ele>112.0</ele><time>2026-04-19T08:18:55.003Z</time></trkpt><trkpt lat="44.721105036192824" lon="0.18300627993398566"><ele>111.5</ele><time>2026-04-19T08:18:56.003Z</time></trkpt><trkpt lat="44.7208654580727" lon="0.1830051833867594"><ele>111.0</ele><time>2026-04-19T08:18:57.003Z</time></trkpt><trkpt lat="44.72062704038251" lon="0.18300680270952163"><ele>111.0</ele><time>2026-04-19T08:18:58.003Z</time></trkpt><trkpt lat="44.72039365642575" lon="0.18301709468672114"><ele>111.0</ele><time>2026-04-19T08:18:59.003Z</time></trkpt><trkpt lat="44.72016444188637" lon="0.18304554924437966"><ele>111.0</ele><time>2026-04-19T08:19:00.003Z</time></trkpt><trkpt lat="44.71993526963694" lon="0.1830964944182564"><ele>111.0</ele><time>2026-04-19T08:19:01.003Z</time></trkpt><trkpt lat="44.7197091684517" lon="0.18314088279425603"><ele>112.5</ele><time>2026-04-19T08:19:02.003Z</time></trkpt><trkpt lat="44.71948687489186" lon="0.18318809107353293"><ele>114.0</ele><time>2026-04-19T08:19:03.003Z</time></trkpt><trkpt lat="44.71926244036204" lon="0.18324278336736533"><ele>114.0</ele><time>2026-04-19T08:19:04.003Z</time></trkpt><trkpt lat="44.719038350859286" lon="0.1832973062286001"><ele>114.0</ele><time>2026-04-19T08:19:05.003Z</time></trkpt><trkpt lat="44.71881287267204" lon="0.18332564439889118"><ele>114.0</ele><time>2026-04-19T08:19:06.003Z</time></trkpt><trkpt lat="44.71859091026816" lon="0.1833749851096797"><ele>114.0</ele><time>2026-04-19T08:19:07.003Z</time></trkpt><trkpt lat="44.71837018310286" lon="0.18342882631991034"><ele>114.0</ele><time>2026-04-19T08:19:08.003Z</time></trkpt><trkpt lat="44.71814980097682" lon="0.18348784725183157"><ele>113.33333333333334</ele><time>2026-04-19T08:19:09.003Z</time></trkpt><trkpt lat="44.71793230639318" lon="0.18355505984183737"><ele>112.66666666666667</ele><time>2026-04-19T08:19:10.003Z</time></trkpt><trkpt lat="44.71772185368103" lon="0.18364789487229055"><ele>112.0</ele><time>2026-04-19T08:19:11.003Z</time></trkpt><trkpt lat="44.717496796393945" lon="0.1837037719058371"><ele>111.5</ele><time>2026-04-19T08:19:12.003Z</time></trkpt><trkpt lat="44.717281072297546" lon="0.18380244146730282"><ele>111.0</ele><time>2026-04-19T08:19:13.003Z</time></trkpt><trkpt lat="44.71706239779796" lon="0.1838841872127242"><ele>111.0</ele><time>2026-04-19T08:19:14.003Z</time></trkpt><trkpt lat="44.71684070117053" lon="0.18393906022693282"><ele>111.0</ele><time>2026-04-19T08:19:15.003Z</time></trkpt><trkpt lat="44.71662484180095" lon="0.1840166048161963"><ele>111.0</ele><time>2026-04-19T08:19:16.003Z</time></trkpt><trkpt lat="44.71641048022394" lon="0.18411711897001828"><ele>111.0</ele><time>2026-04-19T08:19:17.003Z</time></trkpt><trkpt lat="44.71619669715038" lon="0.18419181643838634"><ele>111.0</ele><time>2026-04-19T08:19:18.003Z</time></trkpt><trkpt lat="44.71598588720578" lon="0.1842658942379618"><ele>111.0</ele><time>2026-04-19T08:19:19.003Z</time></trkpt><trkpt lat="44.71577655872987" lon="0.1843444923113323"><ele>111.0</ele><time>2026-04-19T08:19:20.003Z</time></trkpt><trkpt lat="44.71556077622283" lon="0.18439815171635882"><ele>111.0</ele><time>2026-04-19T08:19:21.003Z</time></trkpt><trkpt lat="44.715347104013766" lon="0.18447784955710206"><ele>111.0</ele><time>2026-04-19T08:19:22.003Z</time></trkpt><trkpt lat="44.715139305381776" lon="0.18455946171799717"><ele>111.0</ele><time>2026-04-19T08:19:23.003Z</time></trkpt><trkpt lat="44.71493192665609" lon="0.18463972376959975"><ele>111.0</ele><time>2026-04-19T08:19:24.003Z</time></trkpt><trkpt lat="44.714718158395236" lon="0.1847128410265056"><ele>111.0</ele><time>2026-04-19T08:19:25.003Z</time></trkpt><trkpt lat="44.71451187853128" lon="0.18479158395331188"><ele>110.66666666666666</ele><time>2026-04-19T08:19:26.003Z</time></trkpt><trkpt lat="44.714307761859985" lon="0.18486732065158196"><ele>110.33333333333333</ele><time>2026-04-19T08:19:27.003Z</time></trkpt><trkpt lat="44.7141049479466" lon="0.18494582676846075"><ele>110.0</ele><time>2026-04-19T08:19:28.003Z</time></trkpt><trkpt lat="44.71390308740275" lon="0.18502498905543813"><ele>110.0</ele><time>2026-04-19T08:19:29.003Z</time></trkpt><trkpt lat="44.713698153707625" lon="0.18510376427764458"><ele>110.0</ele><time>2026-04-19T08:19:30.003Z</time></trkpt><trkpt lat="44.71350141399217" lon="0.1851846247561736"><ele>110.0</ele><time>2026-04-19T08:19:31.003Z</time></trkpt><trkpt lat="44.713301638677756" lon="0.1852662245679755"><ele>111.33333333333333</ele><time>2026-04-19T08:19:32.003Z</time></trkpt><trkpt lat="44.71310930808761" lon="0.18534876786044455"><ele>112.66666666666666</ele><time>2026-04-19T08:19:33.003Z</time></trkpt><trkpt lat="44.71291798921508" lon="0.1854399232190141"><ele>114.0</ele><time>2026-04-19T08:19:34.003Z</time></trkpt><trkpt lat="44.712725697964764" lon="0.18552005938307684"><ele>114.0</ele><time>2026-04-19T08:19:35.003Z</time></trkpt><trkpt lat="44.712535104198764" lon="0.18561110939985195"><ele>114.0</ele><time>2026-04-19T08:19:36.003Z</time></trkpt><trkpt lat="44.712343609453306" lon="0.18570965633657247"><ele>114.0</ele><time>2026-04-19T08:19:37.003Z</time></trkpt><trkpt lat="44.71214431191211" lon="0.1858104155148057"><ele>113.66666666666666</ele><time>2026-04-19T08:19:38.003Z</time></trkpt><trkpt lat="44.711948835001216" lon="0.18591991117437037"><ele>113.33333333333333</ele><time>2026-04-19T08:19:39.003Z</time></trkpt><trkpt lat="44.71175430766005" lon="0.18602904967015113"><ele>113.0</ele><time>2026-04-19T08:19:40.003Z</time></trkpt><trkpt lat="44.71155681243329" lon="0.18613399033301795"><ele>112.66666666666666</ele><time>2026-04-19T08:19:41.003Z</time></trkpt><trkpt lat="44.71134757263903" lon="0.18621905886061982"><ele>112.33333333333334</ele><time>2026-04-19T08:19:42.003Z</time></trkpt><trkpt lat="44.711150562825694" lon="0.18632236276796124"><ele>112.0</ele><time>2026-04-19T08:19:43.003Z</time></trkpt><trkpt lat="44.71095331357739" lon="0.18644538460984875"><ele>112.66666666666667</ele><time>2026-04-19T08:19:44.003Z</time></trkpt><trkpt lat="44.71075185475758" lon="0.18654331843675173"><ele>113.33333333333334</ele><time>2026-04-19T08:19:45.003Z</time></trkpt><trkpt lat="44.710555192462365" lon="0.18664897144021025"><ele>114.0</ele><time>2026-04-19T08:19:46.003Z</time></trkpt><trkpt lat="44.71035420032086" lon="0.1867511956126772"><ele>114.0</ele><time>2026-04-19T08:19:47.003Z</time></trkpt><trkpt lat="44.710166303507876" lon="0.18683458428210684"><ele>114.0</ele><time>2026-04-19T08:19:48.003Z</time></trkpt><trkpt lat="44.709979115724714" lon="0.18692995516580582"><ele>114.0</ele><time>2026-04-19T08:19:49.003Z</time></trkpt><trkpt lat="44.70980305124237" lon="0.18699707720111824"><ele>114.0</ele><time>2026-04-19T08:19:50.003Z</time></trkpt><trkpt lat="44.70962183528409" lon="0.18701377221784016"><ele>114.0</ele><time>2026-04-19T08:19:51.003Z</time></trkpt><trkpt lat="44.709452271009724" lon="0.18702715888550792"><ele>114.0</ele><time>2026-04-19T08:19:52.003Z</time></trkpt><trkpt lat="44.70928440555514" lon="0.18701835820734836"><ele>115.33333333333334</ele><time>2026-04-19T08:19:53.003Z</time></trkpt><trkpt lat="44.7091157023668" lon="0.18698751112985332"><ele>116.66666666666667</ele><time>2026-04-19T08:19:54.003Z</time></trkpt><trkpt lat="44.70893597784867" lon="0.18695159300572223"><ele>118.0</ele><time>2026-04-19T08:19:55.003Z</time></trkpt><trkpt lat="44.708754655528935" lon="0.18691190284546305"><ele>118.0</ele><time>2026-04-19T08:19:56.003Z</time></trkpt><trkpt lat="44.70857322929078" lon="0.18686915544860913"><ele>118.0</ele><time>2026-04-19T08:19:57.003Z</time></trkpt><trkpt lat="44.708393343029016" lon="0.18682657537518188"><ele>118.0</ele><time>2026-04-19T08:19:58.003Z</time></trkpt><trkpt lat="44.70821563329517" lon="0.18678502293786975"><ele>118.0</ele><time>2026-04-19T08:19:59.003Z</time></trkpt><trkpt lat="44.7080271624213" lon="0.18674095451372907"><ele>118.0</ele><time>2026-04-19T08:20:00.003Z</time></trkpt><trkpt lat="44.70784659592474" lon="0.18669873655184688"><ele>118.0</ele><time>2026-04-19T08:20:01.003Z</time></trkpt><trkpt lat="44.707669405416496" lon="0.18665730792408156"><ele>117.33333333333334</ele><time>2026-04-19T08:20:02.003Z</time></trkpt><trkpt lat="44.70749302405202" lon="0.1866395060990118"><ele>116.66666666666666</ele><time>2026-04-19T08:20:03.003Z</time></trkpt><trkpt lat="44.70731994900957" lon="0.18658442544368914"><ele>116.0</ele><time>2026-04-19T08:20:04.003Z</time></trkpt><trkpt lat="44.70715478900839" lon="0.1865537998542006"><ele>114.66666666666666</ele><time>2026-04-19T08:20:05.003Z</time></trkpt><trkpt lat="44.70699403499642" lon="0.1865047045299639"><ele>113.33333333333334</ele><time>2026-04-19T08:20:06.003Z</time></trkpt><trkpt lat="44.70684121039462" lon="0.18647475530300842"><ele>112.0</ele><time>2026-04-19T08:20:07.003Z</time></trkpt><trkpt lat="44.70668782800871" lon="0.18644466677478502"><ele>111.0</ele><time>2026-04-19T08:20:08.003Z</time></trkpt><trkpt lat="44.70653813674951" lon="0.1864114143262909"><ele>110.0</ele><time>2026-04-19T08:20:09.003Z</time></trkpt><trkpt lat="44.706390307804526" lon="0.186377325633149"><ele>109.0</ele><time>2026-04-19T08:20:10.003Z</time></trkpt><trkpt lat="44.70624841296728" lon="0.1863423771532879"><ele>108.0</ele><time>2026-04-19T08:20:11.003Z</time></trkpt><trkpt lat="44.70610677295175" lon="0.18631570223854782"><ele>107.25</ele><time>2026-04-19T08:20:12.003Z</time></trkpt><trkpt lat="44.70596412328413" lon="0.18628456674735108"><ele>106.5</ele><time>2026-04-19T08:20:13.002Z</time></trkpt><trkpt lat="44.705822890153634" lon="0.18624670611530866"><ele>105.75</ele><time>2026-04-19T08:20:14.002Z</time></trkpt><trkpt lat="44.705678777524575" lon="0.18620905445771277"><ele>105.0</ele><time>2026-04-19T08:20:15.002Z</time></trkpt><trkpt lat="44.70553236907602" lon="0.18617742749345256"><ele>105.0</ele><time>2026-04-19T08:20:16.002Z</time></trkpt><trkpt lat="44.705392559533216" lon="0.18614555335920527"><ele>105.0</ele><time>2026-04-19T08:20:17.003Z</time></trkpt><trkpt lat="44.70525432481165" lon="0.1861115609962204"><ele>105.0</ele><time>2026-04-19T08:20:18.003Z</time></trkpt><trkpt lat="44.705114460847945" lon="0.18607744870920104"><ele>105.0</ele><time>2026-04-19T08:20:19.002Z</time></trkpt><trkpt lat="44.704990088442266" lon="0.1860472031267336"><ele>104.25</ele><time>2026-04-19T08:20:20.003Z</time></trkpt><trkpt lat="44.70486349187194" lon="0.18601644700152806"><ele>103.5</ele><time>2026-04-19T08:20:21.003Z</time></trkpt><trkpt lat="44.704739420884366" lon="0.1859857084740908"><ele>102.75</ele><time>2026-04-19T08:20:22.003Z</time></trkpt><trkpt lat="44.70461820529794" lon="0.1859638737576591"><ele>102.0</ele><time>2026-04-19T08:20:23.002Z</time></trkpt><trkpt lat="44.70449914192254" lon="0.18593774521561396"><ele>101.0</ele><time>2026-04-19T08:20:24.002Z</time></trkpt><trkpt lat="44.704382267095276" lon="0.18591071170477522"><ele>100.0</ele><time>2026-04-19T08:20:25.003Z</time></trkpt><trkpt lat="44.704271039933346" lon="0.18588375644182142"><ele>99.0</ele><time>2026-04-19T08:20:26.002Z</time></trkpt><trkpt lat="44.704160484079175" lon="0.18585542590089207"><ele>98.0</ele><time>2026-04-19T08:20:27.002Z</time></trkpt><trkpt lat="44.70404601848107" lon="0.1858340371226371"><ele>98.0</ele><time>2026-04-19T08:20:28.002Z</time></trkpt><trkpt lat="44.703937094202104" lon="0.18580774802615943"><ele>98.0</ele><time>2026-04-19T08:20:29.002Z</time></trkpt><trkpt lat="44.7038372962978" lon="0.18578271715619477"><ele>98.0</ele><time>2026-04-19T08:20:30.002Z</time></trkpt><trkpt lat="44.70373194162385" lon="0.18575459103719746"><ele>98.0</ele><time>2026-04-19T08:20:31.002Z</time></trkpt><trkpt lat="44.7036184821555" lon="0.18573311772547835"><ele>98.0</ele><time>2026-04-19T08:20:32.002Z</time></trkpt><trkpt lat="44.70351017089803" lon="0.1857248693396085"><ele>97.60000000000001</ele><time>2026-04-19T08:20:33.002Z</time></trkpt><trkpt lat="44.7034056799041" lon="0.18571752160004135"><ele>97.2</ele><time>2026-04-19T08:20:34.002Z</time></trkpt><trkpt lat="44.703297250154705" lon="0.18570835686095225"><ele>96.8</ele><time>2026-04-19T08:20:35.002Z</time></trkpt><trkpt lat="44.70319188500557" lon="0.18570848714638508"><ele>96.4</ele><time>2026-04-19T08:20:36.002Z</time></trkpt><trkpt lat="44.703080405908636" lon="0.18570256230111098"><ele>96.0</ele><time>2026-04-19T08:20:37.002Z</time></trkpt><trkpt lat="44.70296687903921" lon="0.18570313678691694"><ele>96.0</ele><time>2026-04-19T08:20:38.002Z</time></trkpt><trkpt lat="44.70285281073523" lon="0.18571632946928077"><ele>96.0</ele><time>2026-04-19T08:20:39.002Z</time></trkpt><trkpt lat="44.7027415297549" lon="0.18572612042144004"><ele>96.0</ele><time>2026-04-19T08:20:40.002Z</time></trkpt><trkpt lat="44.7026345428076" lon="0.18574955069652554"><ele>96.0</ele><time>2026-04-19T08:20:41.002Z</time></trkpt><trkpt lat="44.702531654979104" lon="0.18577270194623155"><ele>96.0</ele><time>2026-04-19T08:20:42.002Z</time></trkpt><trkpt lat="44.70243360001767" lon="0.1858037124354704"><ele>95.19999999999999</ele><time>2026-04-19T08:20:43.002Z</time></trkpt><trkpt lat="44.702336527810516" lon="0.18584333297559488"><ele>94.39999999999999</ele><time>2026-04-19T08:20:44.002Z</time></trkpt><trkpt lat="44.70223256550431" lon="0.18588990737060188"><ele>93.6</ele><time>2026-04-19T08:20:45.002Z</time></trkpt><trkpt lat="44.70213771201619" lon="0.18595517746345855"><ele>92.8</ele><time>2026-04-19T08:20:46.002Z</time></trkpt><trkpt lat="44.70204909048782" lon="0.18602557933825817"><ele>92.0</ele><time>2026-04-19T08:20:47.002Z</time></trkpt><trkpt lat="44.70195868427635" lon="0.18610780640705263"><ele>90.6</ele><time>2026-04-19T08:20:48.002Z</time></trkpt><trkpt lat="44.70188059846008" lon="0.186197326074119"><ele>89.19999999999999</ele><time>2026-04-19T08:20:49.002Z</time></trkpt><trkpt lat="44.70181528614115" lon="0.1862854229833715"><ele>87.8</ele><time>2026-04-19T08:20:50.002Z</time></trkpt><trkpt lat="44.70174236467512" lon="0.18639132303925096"><ele>86.4</ele><time>2026-04-19T08:20:51.002Z</time></trkpt><trkpt lat="44.701676072088645" lon="0.18649106852528213"><ele>85.0</ele><time>2026-04-19T08:20:52.002Z</time></trkpt><trkpt lat="44.70160747615558" lon="0.18661123612587527"><ele>84.6</ele><time>2026-04-19T08:20:53.002Z</time></trkpt><trkpt lat="44.70154833289564" lon="0.18673526406551857"><ele>84.2</ele><time>2026-04-19T08:20:54.002Z</time></trkpt><trkpt lat="44.701489270821256" lon="0.18685247922287934"><ele>83.80000000000001</ele><time>2026-04-19T08:20:55.002Z</time></trkpt><trkpt lat="44.70143605711969" lon="0.18696483913340672"><ele>83.4</ele><time>2026-04-19T08:20:56.002Z</time></trkpt><trkpt lat="44.70137123064033" lon="0.1870874584142247"><ele>83.0</ele><time>2026-04-19T08:20:57.002Z</time></trkpt><trkpt lat="44.70131140598834" lon="0.1872006012853348"><ele>83.0</ele><time>2026-04-19T08:20:58.002Z</time></trkpt><trkpt lat="44.70124364147039" lon="0.1873106805152729"><ele>83.0</ele><time>2026-04-19T08:20:59.002Z</time></trkpt><trkpt lat="44.70117427062253" lon="0.18741015947857503"><ele>83.0</ele><time>2026-04-19T08:21:00.002Z</time></trkpt><trkpt lat="44.701078453359315" lon="0.18748197423229154"><ele>83.0</ele><time>2026-04-19T08:21:01.002Z</time></trkpt><trkpt lat="44.70100294099372" lon="0.18757031234962296"><ele>83.0</ele><time>2026-04-19T08:21:02.002Z</time></trkpt><trkpt lat="44.700918643666235" lon="0.18765940848632917"><ele>81.60000000000001</ele><time>2026-04-19T08:21:03.002Z</time></trkpt><trkpt lat="44.70083719445537" lon="0.18773610117375514"><ele>80.2</ele><time>2026-04-19T08:21:04.002Z</time></trkpt><trkpt lat="44.70074186308704" lon="0.18781231878724908"><ele>78.8</ele><time>2026-04-19T08:21:05.002Z</time></trkpt><trkpt lat="44.70064794017526" lon="0.18787956113933618"><ele>77.4</ele><time>2026-04-19T08:21:06.002Z</time></trkpt><trkpt lat="44.70053836929291" lon="0.187948054055086"><ele>76.0</ele><time>2026-04-19T08:21:07.002Z</time></trkpt><trkpt lat="44.7004297890298" lon="0.18800821078824992"><ele>76.0</ele><time>2026-04-19T08:21:08.002Z</time></trkpt><trkpt lat="44.7003206057792" lon="0.18806615691145748"><ele>76.0</ele><time>2026-04-19T08:21:09.002Z</time></trkpt><trkpt lat="44.700201890518514" lon="0.18813379642130298"><ele>76.0</ele><time>2026-04-19T08:21:10.002Z</time></trkpt><trkpt lat="44.70007564761562" lon="0.18820969095645446"><ele>76.0</ele><time>2026-04-19T08:21:11.002Z</time></trkpt><trkpt lat="44.69992372673401" lon="0.18825370454164525"><ele>74.66666666666666</ele><time>2026-04-19T08:21:12.002Z</time></trkpt><trkpt lat="44.69978242120105" lon="0.18833475064160998"><ele>73.33333333333333</ele><time>2026-04-19T08:21:13.002Z</time></trkpt><trkpt lat="44.69962917200138" lon="0.18840683961885998"><ele>72.0</ele><time>2026-04-19T08:21:14.002Z</time></trkpt><trkpt lat="44.69947012155624" lon="0.1884867399077176"><ele>69.0</ele><time>2026-04-19T08:21:15.002Z</time></trkpt><trkpt lat="44.699308108965376" lon="0.18857493751208093"><ele>66.0</ele><time>2026-04-19T08:21:16.002Z</time></trkpt><trkpt lat="44.699149091988254" lon="0.18865250790943078"><ele>63.0</ele><time>2026-04-19T08:21:17.002Z</time></trkpt><trkpt lat="44.69900293510841" lon="0.18874920925485883"><ele>63.0</ele><time>2026-04-19T08:21:18.002Z</time></trkpt><trkpt lat="44.69886166256001" lon="0.18885606218381165"><ele>63.0</ele><time>2026-04-19T08:21:19.002Z</time></trkpt><trkpt lat="44.69872172953667" lon="0.18894590078828227"><ele>63.0</ele><time>2026-04-19T08:21:20.002Z</time></trkpt><trkpt lat="44.698596165271994" lon="0.18907423964793796"><ele>61.75</ele><time>2026-04-19T08:21:21.002Z</time></trkpt><trkpt lat="44.69846659593049" lon="0.18919615582076393"><ele>60.5</ele><time>2026-04-19T08:21:22.002Z</time></trkpt><trkpt lat="44.698348244423265" lon="0.18930640736309726"><ele>59.25</ele><time>2026-04-19T08:21:23.002Z</time></trkpt><trkpt lat="44.69821830148358" lon="0.18939188742917903"><ele>58.0</ele><time>2026-04-19T08:21:24.002Z</time></trkpt><trkpt lat="44.69807778648449" lon="0.18943954198657148"><ele>58.0</ele><time>2026-04-19T08:21:25.002Z</time></trkpt><trkpt lat="44.69793344774122" lon="0.18945095794712696"><ele>58.0</ele><time>2026-04-19T08:21:26.002Z</time></trkpt><trkpt lat="44.697774783287734" lon="0.18941017400997567"><ele>58.0</ele><time>2026-04-19T08:21:27.002Z</time></trkpt><trkpt lat="44.697622680056085" lon="0.18931591305038745"><ele>55.666666666666664</ele><time>2026-04-19T08:21:28.002Z</time></trkpt><trkpt lat="44.69747316741397" lon="0.18920872140781098"><ele>53.33333333333333</ele><time>2026-04-19T08:21:29.002Z</time></trkpt><trkpt lat="44.69731958915852" lon="0.18910412921989847"><ele>51.0</ele><time>2026-04-19T08:21:30.002Z</time></trkpt><trkpt lat="44.69715275372394" lon="0.1890219106144226"><ele>51.33333333333333</ele><time>2026-04-19T08:21:31.002Z</time></trkpt><trkpt lat="44.696987608214314" lon="0.18893977379196866"><ele>51.666666666666664</ele><time>2026-04-19T08:21:32.002Z</time></trkpt><trkpt lat="44.696815506254836" lon="0.18890248666130882"><ele>52.0</ele><time>2026-04-19T08:21:33.002Z</time></trkpt><trkpt lat="44.69664931015681" lon="0.18890378039991568"><ele>50.0</ele><time>2026-04-19T08:21:34.002Z</time></trkpt><trkpt lat="44.69648112144008" lon="0.1889316166319647"><ele>48.0</ele><time>2026-04-19T08:21:35.002Z</time></trkpt><trkpt lat="44.69631411155705" lon="0.18895748275451277"><ele>46.0</ele><time>2026-04-19T08:21:36.002Z</time></trkpt><trkpt lat="44.69614656113675" lon="0.1889791580610058"><ele>45.0</ele><time>2026-04-19T08:21:37.002Z</time></trkpt><trkpt lat="44.69598198218298" lon="0.18897412261896138"><ele>44.0</ele><time>2026-04-19T08:21:38.002Z</time></trkpt><trkpt lat="44.69582523275827" lon="0.18898795345833566"><ele>43.0</ele><time>2026-04-19T08:21:39.002Z</time></trkpt><trkpt lat="44.69567850733375" lon="0.18899557975478848"><ele>43.0</ele><time>2026-04-19T08:21:40.002Z</time></trkpt><trkpt lat="44.69553542801865" lon="0.1889750248776338"><ele>43.0</ele><time>2026-04-19T08:21:41.002Z</time></trkpt><trkpt lat="44.695414771163165" lon="0.18891777013163408"><ele>43.0</ele><time>2026-04-19T08:21:42.002Z</time></trkpt><trkpt lat="44.69527892488209" lon="0.1888029986122123"><ele>43.0</ele><time>2026-04-19T08:21:43.002Z</time></trkpt><trkpt lat="44.69515247923335" lon="0.1886614813540301"><ele>42.66666666666667</ele><time>2026-04-19T08:21:44.002Z</time></trkpt><trkpt lat="44.69501041428878" lon="0.18852378394748157"><ele>42.333333333333336</ele><time>2026-04-19T08:21:45.002Z</time></trkpt><trkpt lat="44.69487108469199" lon="0.1883408874447873"><ele>42.0</ele><time>2026-04-19T08:21:46.002Z</time></trkpt><trkpt lat="44.69471249318803" lon="0.1881595573820676"><ele>42.0</ele><time>2026-04-19T08:21:47.002Z</time></trkpt><trkpt lat="44.69455535738179" lon="0.18797350603680207"><ele>42.0</ele><time>2026-04-19T08:21:48.002Z</time></trkpt><trkpt lat="44.69439519064009" lon="0.18778125495491782"><ele>42.0</ele><time>2026-04-19T08:21:49.002Z</time></trkpt><trkpt lat="44.69423391674855" lon="0.18758862276417027"><ele>41.333333333333336</ele><time>2026-04-19T08:21:50.002Z</time></trkpt><trkpt lat="44.69407221399853" lon="0.18740326912653296"><ele>40.66666666666667</ele><time>2026-04-19T08:21:51.002Z</time></trkpt><trkpt lat="44.693910115998385" lon="0.18720639289052732"><ele>40.0</ele><time>2026-04-19T08:21:52.002Z</time></trkpt><trkpt lat="44.69375068296924" lon="0.18702787825093942"><ele>39.333333333333336</ele><time>2026-04-19T08:21:53.002Z</time></trkpt><trkpt lat="44.69358055685543" lon="0.1868346985397757"><ele>38.666666666666664</ele><time>2026-04-19T08:21:54.002Z</time></trkpt><trkpt lat="44.693432441263944" lon="0.18664274935126812"><ele>38.0</ele><time>2026-04-19T08:21:55.002Z</time></trkpt><trkpt lat="44.69326547370218" lon="0.18645853695255613"><ele>38.0</ele><time>2026-04-19T08:21:56.002Z</time></trkpt><trkpt lat="44.69309955980569" lon="0.18627548702909547"><ele>38.0</ele><time>2026-04-19T08:21:57.002Z</time></trkpt><trkpt lat="44.692942375792505" lon="0.18610221263559942"><ele>38.0</ele><time>2026-04-19T08:21:58.002Z</time></trkpt><trkpt lat="44.69277755134755" lon="0.18592472580139713"><ele>37.666666666666664</ele><time>2026-04-19T08:21:59.002Z</time></trkpt><trkpt lat="44.69261476229922" lon="0.18574943072774786"><ele>37.333333333333336</ele><time>2026-04-19T08:22:00.002Z</time></trkpt><trkpt lat="44.692455121712044" lon="0.18557703855069474"><ele>37.0</ele><time>2026-04-19T08:22:01.002Z</time></trkpt><trkpt lat="44.692286559008444" lon="0.1854205047404787"><ele>37.0</ele><time>2026-04-19T08:22:02.002Z</time></trkpt><trkpt lat="44.69213489233871" lon="0.18524774081552886"><ele>37.0</ele><time>2026-04-19T08:22:03.002Z</time></trkpt><trkpt lat="44.69199394036451" lon="0.1850786383248703"><ele>37.0</ele><time>2026-04-19T08:22:04.002Z</time></trkpt><trkpt lat="44.69185007940791" lon="0.1849233040623441"><ele>36.66666666666667</ele><time>2026-04-19T08:22:05.002Z</time></trkpt><trkpt lat="44.691714508691724" lon="0.18478784494678022"><ele>36.333333333333336</ele><time>2026-04-19T08:22:06.002Z</time></trkpt><trkpt lat="44.69158306021415" lon="0.18466494030289424"><ele>36.0</ele><time>2026-04-19T08:22:07.002Z</time></trkpt><trkpt lat="44.69142191629353" lon="0.18457039080525078"><ele>36.0</ele><time>2026-04-19T08:22:08.002Z</time></trkpt><trkpt lat="44.69125727848718" lon="0.18452767531222697"><ele>36.0</ele><time>2026-04-19T08:22:09.002Z</time></trkpt><trkpt lat="44.6910741578821" lon="0.1845068029018481"><ele>36.0</ele><time>2026-04-19T08:22:10.002Z</time></trkpt><trkpt lat="44.69090371549976" lon="0.184542669452477"><ele>36.0</ele><time>2026-04-19T08:22:11.002Z</time></trkpt><trkpt lat="44.69072378439552" lon="0.18461874219936159"><ele>36.0</ele><time>2026-04-19T08:22:12.002Z</time></trkpt><trkpt lat="44.690551649418815" lon="0.18472669392869245"><ele>36.0</ele><time>2026-04-19T08:22:13.002Z</time></trkpt><trkpt lat="44.69037692097063" lon="0.18483868887501323"><ele>36.666666666666664</ele><time>2026-04-19T08:22:14.002Z</time></trkpt><trkpt lat="44.690204186343756" lon="0.1849436264068269"><ele>37.33333333333333</ele><time>2026-04-19T08:22:15.002Z</time></trkpt><trkpt lat="44.69003707169044" lon="0.18500327524427967"><ele>38.0</ele><time>2026-04-19T08:22:16.002Z</time></trkpt><trkpt lat="44.68987614606369" lon="0.18509150296295185"><ele>38.0</ele><time>2026-04-19T08:22:17.002Z</time></trkpt><trkpt lat="44.68972248208743" lon="0.18516424726072253"><ele>38.0</ele><time>2026-04-19T08:22:18.002Z</time></trkpt><trkpt lat="44.689562043982455" lon="0.1852307619431956"><ele>38.0</ele><time>2026-04-19T08:22:19.001Z</time></trkpt><trkpt lat="44.689414600645996" lon="0.18529645551272267"><ele>38.75</ele><time>2026-04-19T08:22:20.002Z</time></trkpt><trkpt lat="44.689272316303665" lon="0.1853558351219254"><ele>39.5</ele><time>2026-04-19T08:22:21.002Z</time></trkpt><trkpt lat="44.68913310229893" lon="0.18539160886151912"><ele>40.25</ele><time>2026-04-19T08:22:22.002Z</time></trkpt><trkpt lat="44.68901359989354" lon="0.18542328347433945"><ele>41.0</ele><time>2026-04-19T08:22:23.002Z</time></trkpt><trkpt lat="44.688909327775406" lon="0.18542408227733173"><ele>41.0</ele><time>2026-04-19T08:22:24.002Z</time></trkpt><trkpt lat="44.68881039169011" lon="0.18539095225536578"><ele>41.0</ele><time>2026-04-19T08:22:25.002Z</time></trkpt><trkpt lat="44.68858176441003" lon="0.18551930280857729"><ele>41.0</ele><time>2026-04-19T08:22:27.002Z</time></trkpt><trkpt lat="44.68843642183442" lon="0.1855482891954238"><ele>40.33333333333333</ele><time>2026-04-19T08:22:28.002Z</time></trkpt><trkpt lat="44.6882631524132" lon="0.1855546364335118"><ele>39.666666666666664</ele><time>2026-04-19T08:22:29.001Z</time></trkpt><trkpt lat="44.68807768612196" lon="0.18557673337797517"><ele>39.0</ele><time>2026-04-19T08:22:30.001Z</time></trkpt><trkpt lat="44.68787345957263" lon="0.1855590265688841"><ele>39.0</ele><time>2026-04-19T08:22:31.001Z</time></trkpt><trkpt lat="44.68767162554875" lon="0.18557752468110758"><ele>39.0</ele><time>2026-04-19T08:22:32.002Z</time></trkpt><trkpt lat="44.68746139328227" lon="0.18558208586093727"><ele>39.0</ele><time>2026-04-19T08:22:33.002Z</time></trkpt><trkpt lat="44.68725494117328" lon="0.1856066731442539"><ele>39.0</ele><time>2026-04-19T08:22:34.002Z</time></trkpt><trkpt lat="44.68705037574459" lon="0.18562713588040983"><ele>39.0</ele><time>2026-04-19T08:22:35.002Z</time></trkpt><trkpt lat="44.68684601190279" lon="0.18564596619581855"><ele>39.0</ele><time>2026-04-19T08:22:36.002Z</time></trkpt><trkpt lat="44.68663986942193" lon="0.18565981874641702"><ele>40.0</ele><time>2026-04-19T08:22:37.002Z</time></trkpt><trkpt lat="44.68643769726697" lon="0.18568138830386696"><ele>41.0</ele><time>2026-04-19T08:22:38.002Z</time></trkpt><trkpt lat="44.686240650172024" lon="0.18569999432756082"><ele>42.0</ele><time>2026-04-19T08:22:39.002Z</time></trkpt><trkpt lat="44.686049531980885" lon="0.1857154542763848"><ele>43.0</ele><time>2026-04-19T08:22:40.002Z</time></trkpt><trkpt lat="44.685857206536284" lon="0.185732607810631"><ele>44.0</ele><time>2026-04-19T08:22:41.002Z</time></trkpt><trkpt lat="44.68567351431351" lon="0.18574952729944905"><ele>45.0</ele><time>2026-04-19T08:22:42.002Z</time></trkpt><trkpt lat="44.68548074532825" lon="0.18575867786693923"><ele>45.0</ele><time>2026-04-19T08:22:43.002Z</time></trkpt><trkpt lat="44.685292398121966" lon="0.18576207851736598"><ele>45.0</ele><time>2026-04-19T08:22:44.002Z</time></trkpt><trkpt lat="44.68509887238361" lon="0.18577533933238158"><ele>45.0</ele><time>2026-04-19T08:22:45.002Z</time></trkpt><trkpt lat="44.684909732779786" lon="0.18579405176804925"><ele>46.33333333333333</ele><time>2026-04-19T08:22:46.002Z</time></trkpt><trkpt lat="44.684732441353525" lon="0.18581635369367214"><ele>47.666666666666664</ele><time>2026-04-19T08:22:47.002Z</time></trkpt><trkpt lat="44.6845477821571" lon="0.18583472952286054"><ele>49.0</ele><time>2026-04-19T08:22:48.002Z</time></trkpt><trkpt lat="44.68437114749213" lon="0.18585286775566154"><ele>51.0</ele><time>2026-04-19T08:22:49.002Z</time></trkpt><trkpt lat="44.68419170970728" lon="0.18585954193291299"><ele>53.0</ele><time>2026-04-19T08:22:50.002Z</time></trkpt><trkpt lat="44.684019124760226" lon="0.1858681171206052"><ele>55.0</ele><time>2026-04-19T08:22:51.002Z</time></trkpt><trkpt lat="44.68384192324962" lon="0.18587971986957555"><ele>55.0</ele><time>2026-04-19T08:22:52.002Z</time></trkpt><trkpt lat="44.683661885825494" lon="0.1859126144159056"><ele>55.0</ele><time>2026-04-19T08:22:53.002Z</time></trkpt><trkpt lat="44.68349379164612" lon="0.18593054521017233"><ele>55.0</ele><time>2026-04-19T08:22:54.002Z</time></trkpt><trkpt lat="44.68331086688696" lon="0.18593043382407587"><ele>57.0</ele><time>2026-04-19T08:22:55.002Z</time></trkpt><trkpt lat="44.68314345701292" lon="0.1859498848936765"><ele>59.0</ele><time>2026-04-19T08:22:56.002Z</time></trkpt><trkpt lat="44.68298709573517" lon="0.185963806329871"><ele>61.0</ele><time>2026-04-19T08:22:57.002Z</time></trkpt><trkpt lat="44.68283363930716" lon="0.18597952556776226"><ele>62.0</ele><time>2026-04-19T08:22:58.002Z</time></trkpt><trkpt lat="44.682697185229706" lon="0.18598887383704357"><ele>63.0</ele><time>2026-04-19T08:22:59.002Z</time></trkpt><trkpt lat="44.68257718127475" lon="0.1859929604004184"><ele>64.0</ele><time>2026-04-19T08:23:00.002Z</time></trkpt><trkpt lat="44.68246874118703" lon="0.18595575629806477"><ele>65.0</ele><time>2026-04-19T08:23:01.002Z</time></trkpt><trkpt lat="44.68236818072915" lon="0.18591557167847464"><ele>65.0</ele><time>2026-04-19T08:23:02.002Z</time></trkpt><trkpt lat="44.68227129359624" lon="0.18584708919722387"><ele>65.0</ele><time>2026-04-19T08:23:03.002Z</time></trkpt><trkpt lat="44.682184951081084" lon="0.1857459961642358"><ele>65.0</ele><time>2026-04-19T08:23:04.002Z</time></trkpt><trkpt lat="44.68212867854285" lon="0.1856058498644073"><ele>65.0</ele><time>2026-04-19T08:23:05.002Z</time></trkpt><trkpt lat="44.68209161348951" lon="0.18544181080973182"><ele>65.0</ele><time>2026-04-19T08:23:06.002Z</time></trkpt><trkpt lat="44.68208268532293" lon="0.18526593604807107"><ele>65.0</ele><time>2026-04-19T08:23:07.002Z</time></trkpt><trkpt lat="44.68208583458264" lon="0.1850787277771478"><ele>65.0</ele><time>2026-04-19T08:23:08.002Z</time></trkpt><trkpt lat="44.68209324348956" lon="0.1848920003970857"><ele>65.0</ele><time>2026-04-19T08:23:09.002Z</time></trkpt><trkpt lat="44.68210160830074" lon="0.184707884037995"><ele>64.4</ele><time>2026-04-19T08:23:10.002Z</time></trkpt><trkpt lat="44.68211133068331" lon="0.18453726157987108"><ele>63.8</ele><time>2026-04-19T08:23:11.002Z</time></trkpt><trkpt lat="44.682113047644656" lon="0.1843778820072671"><ele>63.2</ele><time>2026-04-19T08:23:12.002Z</time></trkpt><trkpt lat="44.68209201037218" lon="0.18423526173558108"><ele>62.6</ele><time>2026-04-19T08:23:13.002Z</time></trkpt><trkpt lat="44.68207081147824" lon="0.1840978586563744"><ele>62.0</ele><time>2026-04-19T08:23:14.002Z</time></trkpt><trkpt lat="44.682013635392316" lon="0.18398343521751842"><ele>64.75</ele><time>2026-04-19T08:23:15.002Z</time></trkpt><trkpt lat="44.68192997090799" lon="0.18391891902649887"><ele>67.5</ele><time>2026-04-19T08:23:16.002Z</time></trkpt><trkpt lat="44.681809714330946" lon="0.18392119580462168"><ele>70.25</ele><time>2026-04-19T08:23:17.002Z</time></trkpt><trkpt lat="44.681694007689565" lon="0.18395490438642167"><ele>73.0</ele><time>2026-04-19T08:23:18.002Z</time></trkpt><trkpt lat="44.681583442826344" lon="0.1840190704338961"><ele>74.75</ele><time>2026-04-19T08:23:19.002Z</time></trkpt><trkpt lat="44.68148164951024" lon="0.18411406613760647"><ele>76.5</ele><time>2026-04-19T08:23:20.002Z</time></trkpt><trkpt lat="44.68137012292684" lon="0.18422357763141117"><ele>78.25</ele><time>2026-04-19T08:23:21.002Z</time></trkpt><trkpt lat="44.681260609605296" lon="0.18431913737624228"><ele>80.0</ele><time>2026-04-19T08:23:22.002Z</time></trkpt><trkpt lat="44.68114002085846" lon="0.184377489103013"><ele>81.5</ele><time>2026-04-19T08:23:23.002Z</time></trkpt><trkpt lat="44.681022544239234" lon="0.18445228494416202"><ele>83.0</ele><time>2026-04-19T08:23:24.002Z</time></trkpt><trkpt lat="44.68089359228155" lon="0.18451783545187"><ele>84.5</ele><time>2026-04-19T08:23:25.002Z</time></trkpt><trkpt lat="44.680756048300665" lon="0.1845544413143142"><ele>86.0</ele><time>2026-04-19T08:23:26.002Z</time></trkpt><trkpt lat="44.68060302940419" lon="0.18458303622857722"><ele>86.0</ele><time>2026-04-19T08:23:27.002Z</time></trkpt><trkpt lat="44.68043641259168" lon="0.18461898084914996"><ele>86.0</ele><time>2026-04-19T08:23:28.002Z</time></trkpt><trkpt lat="44.680259525918444" lon="0.18469179384795933"><ele>86.0</ele><time>2026-04-19T08:23:29.002Z</time></trkpt><trkpt lat="44.680081531813485" lon="0.18477736041226434"><ele>87.66666666666667</ele><time>2026-04-19T08:23:30.002Z</time></trkpt><trkpt lat="44.679899822646036" lon="0.18486780613156736"><ele>89.33333333333333</ele><time>2026-04-19T08:23:31.002Z</time></trkpt><trkpt lat="44.67973034211196" lon="0.18497645365517978"><ele>91.0</ele><time>2026-04-19T08:23:32.002Z</time></trkpt><trkpt lat="44.67956306059247" lon="0.1850422792289674"><ele>93.0</ele><time>2026-04-19T08:23:33.002Z</time></trkpt><trkpt lat="44.679293504142336" lon="0.18518120094090254"><ele>95.0</ele><time>2026-04-19T08:23:35.002Z</time></trkpt><trkpt lat="44.67918154776839" lon="0.18525183782024152"><ele>97.0</ele><time>2026-04-19T08:23:36.002Z</time></trkpt><trkpt lat="44.6790731966267" lon="0.18530286096154075"><ele>97.0</ele><time>2026-04-19T08:23:37.002Z</time></trkpt><trkpt lat="44.678967724836816" lon="0.18534379895057568"><ele>97.0</ele><time>2026-04-19T08:23:38.002Z</time></trkpt><trkpt lat="44.678857700788114" lon="0.1853680857484037"><ele>97.0</ele><time>2026-04-19T08:23:39.002Z</time></trkpt><trkpt lat="44.67873368698856" lon="0.18536369847046388"><ele>97.0</ele><time>2026-04-19T08:23:40.002Z</time></trkpt><trkpt lat="44.678609903100806" lon="0.18534137653698854"><ele>97.75</ele><time>2026-04-19T08:23:41.002Z</time></trkpt><trkpt lat="44.678496981028374" lon="0.18530517474039965"><ele>98.5</ele><time>2026-04-19T08:23:42.002Z</time></trkpt><trkpt lat="44.67838237223297" lon="0.18525060458565104"><ele>99.25</ele><time>2026-04-19T08:23:43.002Z</time></trkpt><trkpt lat="44.6782566664108" lon="0.1851834536153548"><ele>100.0</ele><time>2026-04-19T08:23:44.002Z</time></trkpt><trkpt lat="44.67813717727272" lon="0.18511334583873726"><ele>100.0</ele><time>2026-04-19T08:23:45.002Z</time></trkpt><trkpt lat="44.67802214168007" lon="0.1850491865537439"><ele>100.0</ele><time>2026-04-19T08:23:46.002Z</time></trkpt><trkpt lat="44.677920014324954" lon="0.18499999351701746"><ele>100.0</ele><time>2026-04-19T08:23:47.002Z</time></trkpt><trkpt lat="44.67781829582088" lon="0.18495213278359177"><ele>100.0</ele><time>2026-04-19T08:23:48.002Z</time></trkpt><trkpt lat="44.677728330068476" lon="0.18490669433841608"><ele>100.0</ele><time>2026-04-19T08:23:49.002Z</time></trkpt><trkpt lat="44.67764526394264" lon="0.1848588314701384"><ele>100.66666666666667</ele><time>2026-04-19T08:23:50.002Z</time></trkpt><trkpt lat="44.67756504911384" lon="0.18481410557725958"><ele>101.33333333333334</ele><time>2026-04-19T08:23:51.002Z</time></trkpt><trkpt lat="44.6774894816755" lon="0.18477664719462888"><ele>102.0</ele><time>2026-04-19T08:23:52.002Z</time></trkpt><trkpt lat="44.67741615757506" lon="0.18473854020327368"><ele>102.66666666666666</ele><time>2026-04-19T08:23:53.002Z</time></trkpt><trkpt lat="44.67734093644329" lon="0.18470511559239722"><ele>103.33333333333333</ele><time>2026-04-19T08:23:54.002Z</time></trkpt><trkpt lat="44.677275552513315" lon="0.1846414735819681"><ele>104.0</ele><time>2026-04-19T08:23:55.002Z</time></trkpt><trkpt lat="44.67716870707869" lon="0.18459163023495634"><ele>104.0</ele><time>2026-04-19T08:23:57.002Z</time></trkpt><trkpt lat="44.67708934090484" lon="0.18455697461853357"><ele>104.0</ele><time>2026-04-19T08:23:59.002Z</time></trkpt><trkpt lat="44.6770313138008" lon="0.18451489167454688"><ele>104.0</ele><time>2026-04-19T08:24:03.002Z</time></trkpt><trkpt lat="44.67695825273467" lon="0.18448469776928783"><ele>104.0</ele><time>2026-04-19T08:24:06.002Z</time></trkpt><trkpt lat="44.67689547126798" lon="0.1844508175166442"><ele>104.0</ele><time>2026-04-19T08:24:08.002Z</time></trkpt><trkpt lat="44.676833578818304" lon="0.18441634158312786"><ele>104.0</ele><time>2026-04-19T08:24:10.002Z</time></trkpt><trkpt lat="44.67674737876237" lon="0.1843879917414349"><ele>104.0</ele><time>2026-04-19T08:24:12.002Z</time></trkpt><trkpt lat="44.67667068641098" lon="0.18434570521335347"><ele>104.33333333333333</ele><time>2026-04-19T08:24:14.002Z</time></trkpt><trkpt lat="44.676594780437576" lon="0.18427919854875374"><ele>104.66666666666666</ele><time>2026-04-19T08:24:17.002Z</time></trkpt><trkpt lat="44.67652076061861" lon="0.18423727598940923"><ele>105.0</ele><time>2026-04-19T08:24:20.002Z</time></trkpt><trkpt lat="44.676454114994" lon="0.18419997690486198"><ele>105.33333333333334</ele><time>2026-04-19T08:24:24.002Z</time></trkpt><trkpt lat="44.676387062752354" lon="0.18416370318125935"><ele>105.66666666666667</ele><time>2026-04-19T08:24:30.001Z</time></trkpt><trkpt lat="44.676317469807735" lon="0.18412605502358267"><ele>106.0</ele><time>2026-04-19T08:24:36.001Z</time></trkpt><trkpt lat="44.6762404785885" lon="0.18408493226495445"><ele>106.0</ele><time>2026-04-19T08:24:39.001Z</time></trkpt><trkpt lat="44.676180120034736" lon="0.18404321053848546"><ele>106.0</ele><time>2026-04-19T08:24:43.001Z</time></trkpt><trkpt lat="44.6761309361756" lon="0.18395995404544774"><ele>106.0</ele><time>2026-04-19T08:24:46.001Z</time></trkpt><trkpt lat="44.67606111355384" lon="0.18393334134468448"><ele>106.0</ele><time>2026-04-19T08:24:48.001Z</time></trkpt><trkpt lat="44.67603826564945" lon="0.18382045568195576"><ele>106.0</ele><time>2026-04-19T08:24:49.001Z</time></trkpt><trkpt lat="44.67599048649012" lon="0.18375929620008322"><ele>106.0</ele><time>2026-04-19T08:24:50.001Z</time></trkpt><trkpt lat="44.67593906353628" lon="0.18370771434943836"><ele>106.0</ele><time>2026-04-19T08:24:51.001Z</time></trkpt><trkpt lat="44.67588396406893" lon="0.183652971385004"><ele>106.16666666666667</ele><time>2026-04-19T08:24:52.001Z</time></trkpt><trkpt lat="44.675829935468975" lon="0.18358416792786783"><ele>106.33333333333334</ele><time>2026-04-19T08:24:53.001Z</time></trkpt><trkpt lat="44.67574305990809" lon="0.183495687646542"><ele>106.5</ele><time>2026-04-19T08:24:55.001Z</time></trkpt><trkpt lat="44.67566684546626" lon="0.18340572938769933"><ele>106.66666666666666</ele><time>2026-04-19T08:24:57.001Z</time></trkpt><trkpt lat="44.67560891762328" lon="0.18335170377285837"><ele>106.83333333333333</ele><time>2026-04-19T08:24:59.001Z</time></trkpt><trkpt lat="44.67554078066641" lon="0.18329860360096237"><ele>107.0</ele><time>2026-04-19T08:25:02.001Z</time></trkpt><trkpt lat="44.67547890398316" lon="0.1832303276659194"><ele>106.99999999999999</ele><time>2026-04-19T08:25:05.001Z</time></trkpt><trkpt lat="44.67543237458845" lon="0.18315629399754632"><ele>107.0</ele><time>2026-04-19T08:25:10.001Z</time></trkpt><trkpt lat="44.67551134221096" lon="0.18306635830775617"><ele>107.0</ele><time>2026-04-19T08:25:11.001Z</time></trkpt><trkpt lat="44.675464821156524" lon="0.18299899046807896"><ele>107.0</ele><time>2026-04-19T08:25:12.001Z</time></trkpt><trkpt lat="44.67537819053997" lon="0.1829252505837031"><ele>106.99999999999999</ele><time>2026-04-19T08:25:14.001Z</time></trkpt><trkpt lat="44.67531802398485" lon="0.1828831285826075"><ele>107.0</ele><time>2026-04-19T08:25:15.001Z</time></trkpt><trkpt lat="44.67524863847715" lon="0.18274898359968203"><ele>103.8</ele><time>2026-04-19T08:25:17.001Z</time></trkpt><trkpt lat="44.67521183763055" lon="0.1825721653813182"><ele>100.6</ele><time>2026-04-19T08:25:19.001Z</time></trkpt><trkpt lat="44.67519544272343" lon="0.18245495667731657"><ele>97.39999999999999</ele><time>2026-04-19T08:25:20.001Z</time></trkpt><trkpt lat="44.67516700799928" lon="0.18234726004763213"><ele>94.19999999999999</ele><time>2026-04-19T08:25:21.001Z</time></trkpt><trkpt lat="44.67516878476772" lon="0.18222293595431763"><ele>91.0</ele><time>2026-04-19T08:25:22.001Z</time></trkpt><trkpt lat="44.67516381196479" lon="0.1821110351279043"><ele>90.4</ele><time>2026-04-19T08:25:23.001Z</time></trkpt><trkpt lat="44.67516478552985" lon="0.18202224881127554"><ele>89.8</ele><time>2026-04-19T08:25:24.001Z</time></trkpt><trkpt lat="44.67515663360239" lon="0.18193316901017817"><ele>89.2</ele><time>2026-04-19T08:25:25.001Z</time></trkpt><trkpt lat="44.675187762512984" lon="0.1817818420388878"><ele>88.60000000000001</ele><time>2026-04-19T08:25:27.001Z</time></trkpt><trkpt lat="44.675173497058786" lon="0.18164239100499652"><ele>88.0</ele><time>2026-04-19T08:25:30.001Z</time></trkpt><trkpt lat="44.67506488850471" lon="0.18169176213972782"><ele>88.0</ele><time>2026-04-19T08:25:50.001Z</time></trkpt><trkpt lat="44.67504043613021" lon="0.18185517622167263"><ele>88.0</ele><time>2026-04-19T08:25:52.001Z</time></trkpt><trkpt lat="44.67502608976353" lon="0.1819620885328476"><ele>88.0</ele><time>2026-04-19T08:25:53.001Z</time></trkpt><trkpt lat="44.675028752758514" lon="0.18207382919095413"><ele>88.0</ele><time>2026-04-19T08:25:54.001Z</time></trkpt><trkpt lat="44.674996177371945" lon="0.18218761642214767"><ele>88.0</ele><time>2026-04-19T08:25:55.001Z</time></trkpt><trkpt lat="44.67498297099771" lon="0.182295255391142"><ele>88.0</ele><time>2026-04-19T08:25:56.001Z</time></trkpt><trkpt lat="44.67497287296852" lon="0.18240655920904245"><ele>88.60000000000001</ele><time>2026-04-19T08:25:57.001Z</time></trkpt><trkpt lat="44.67495657501011" lon="0.18253082785734817"><ele>89.2</ele><time>2026-04-19T08:25:58.001Z</time></trkpt><trkpt lat="44.67493399734058" lon="0.18265152242244717"><ele>89.8</ele><time>2026-04-19T08:25:59.001Z</time></trkpt><trkpt lat="44.67489542623424" lon="0.18276850276777926"><ele>90.4</ele><time>2026-04-19T08:26:00.001Z</time></trkpt><trkpt lat="44.67483955490557" lon="0.18287615749089897"><ele>91.0</ele><time>2026-04-19T08:26:01.001Z</time></trkpt><trkpt lat="44.67476892915607" lon="0.18295473348316946"><ele>91.0</ele><time>2026-04-19T08:26:02.001Z</time></trkpt><trkpt lat="44.674694897825354" lon="0.18301938782581326"><ele>91.0</ele><time>2026-04-19T08:26:03.001Z</time></trkpt><trkpt lat="44.674602177839624" lon="0.18306596807914222"><ele>91.0</ele><time>2026-04-19T08:26:04.001Z</time></trkpt><trkpt lat="44.67450217491374" lon="0.18308495293758212"><ele>91.0</ele><time>2026-04-19T08:26:05.001Z</time></trkpt><trkpt lat="44.67441182837049" lon="0.18309033910150072"><ele>91.0</ele><time>2026-04-19T08:26:06.001Z</time></trkpt><trkpt lat="44.67431239450267" lon="0.18306842700051154"><ele>87.6</ele><time>2026-04-19T08:26:07.001Z</time></trkpt><trkpt lat="44.67421779727377" lon="0.18304042858827055"><ele>84.19999999999999</ele><time>2026-04-19T08:26:08.001Z</time></trkpt><trkpt lat="44.67411688239425" lon="0.18302380658086698"><ele>80.80000000000001</ele><time>2026-04-19T08:26:09.001Z</time></trkpt><trkpt lat="44.67401906036359" lon="0.1830034415111878"><ele>77.4</ele><time>2026-04-19T08:26:10.001Z</time></trkpt><trkpt lat="44.673919340156054" lon="0.18297786994935514"><ele>74.0</ele><time>2026-04-19T08:26:11.001Z</time></trkpt><trkpt lat="44.673824417704" lon="0.18297991264179084"><ele>74.0</ele><time>2026-04-19T08:26:12.001Z</time></trkpt><trkpt lat="44.673735907069165" lon="0.18301658203311"><ele>74.0</ele><time>2026-04-19T08:26:13.001Z</time></trkpt><trkpt lat="44.673647371994335" lon="0.18305482336943335"><ele>74.0</ele><time>2026-04-19T08:26:14.001Z</time></trkpt><trkpt lat="44.67356144122773" lon="0.1830980498334484"><ele>74.0</ele><time>2026-04-19T08:26:15.001Z</time></trkpt><trkpt lat="44.67348023930976" lon="0.18318850337698747"><ele>74.0</ele><time>2026-04-19T08:26:16.001Z</time></trkpt><trkpt lat="44.6734119633055" lon="0.1832856998559741"><ele>74.5</ele><time>2026-04-19T08:26:17.001Z</time></trkpt><trkpt lat="44.67334190598866" lon="0.1834051738238205"><ele>75.0</ele><time>2026-04-19T08:26:18.001Z</time></trkpt><trkpt lat="44.67326764047624" lon="0.18352772244750296"><ele>75.5</ele><time>2026-04-19T08:26:19.001Z</time></trkpt><trkpt lat="44.67318597630666" lon="0.18364578861254358"><ele>76.0</ele><time>2026-04-19T08:26:20.001Z</time></trkpt><trkpt lat="44.67309308684377" lon="0.18375920955822872"><ele>76.0</ele><time>2026-04-19T08:26:21.001Z</time></trkpt><trkpt lat="44.672990899322876" lon="0.18385830966151478"><ele>76.0</ele><time>2026-04-19T08:26:22.001Z</time></trkpt><trkpt lat="44.6729009460294" lon="0.18392247793740202"><ele>76.0</ele><time>2026-04-19T08:26:23.001Z</time></trkpt><trkpt lat="44.672798807239914" lon="0.18398359972535483"><ele>76.0</ele><time>2026-04-19T08:26:24.001Z</time></trkpt><trkpt lat="44.67269205637746" lon="0.18403673937232756"><ele>76.0</ele><time>2026-04-19T08:26:25.001Z</time></trkpt><trkpt lat="44.67257570634786" lon="0.1840811459941565"><ele>75.25</ele><time>2026-04-19T08:26:26.001Z</time></trkpt><trkpt lat="44.672447342663716" lon="0.18413216761900408"><ele>74.5</ele><time>2026-04-19T08:26:27.001Z</time></trkpt><trkpt lat="44.67230618683759" lon="0.1841873957684263"><ele>73.75</ele><time>2026-04-19T08:26:28.002Z</time></trkpt><trkpt lat="44.672155369178164" lon="0.1842421316695774"><ele>73.0</ele><time>2026-04-19T08:26:29.002Z</time></trkpt><trkpt lat="44.672009271264166" lon="0.1843173589919533"><ele>70.0</ele><time>2026-04-19T08:26:30.002Z</time></trkpt><trkpt lat="44.67185953042174" lon="0.1843669663916748"><ele>67.0</ele><time>2026-04-19T08:26:31.002Z</time></trkpt><trkpt lat="44.67171808959644" lon="0.18441582940410217"><ele>64.0</ele><time>2026-04-19T08:26:32.001Z</time></trkpt><trkpt lat="44.67158029521301" lon="0.1844508418717201"><ele>61.0</ele><time>2026-04-19T08:26:33.001Z</time></trkpt><trkpt lat="44.67145038553444" lon="0.1845176075338247"><ele>61.0</ele><time>2026-04-19T08:26:34.001Z</time></trkpt><trkpt lat="44.671323148943245" lon="0.18454416732299647"><ele>61.0</ele><time>2026-04-19T08:26:35.001Z</time></trkpt><trkpt lat="44.671212132482765" lon="0.18461127999684043"><ele>61.0</ele><time>2026-04-19T08:26:36.001Z</time></trkpt><trkpt lat="44.67110915868488" lon="0.18465186594225225"><ele>61.0</ele><time>2026-04-19T08:26:37.002Z</time></trkpt><trkpt lat="44.67101781864245" lon="0.18470084585289473"><ele>60.0</ele><time>2026-04-19T08:26:38.002Z</time></trkpt><trkpt lat="44.67093043672228" lon="0.18476280257675384"><ele>59.0</ele><time>2026-04-19T08:26:39.002Z</time></trkpt><trkpt lat="44.67079204786945" lon="0.18498086105124703"><ele>58.0</ele><time>2026-04-19T08:26:41.001Z</time></trkpt><trkpt lat="44.67073614052529" lon="0.18510942725269444"><ele>57.0</ele><time>2026-04-19T08:26:42.002Z</time></trkpt><trkpt lat="44.67068806265161" lon="0.1852545163610444"><ele>57.0</ele><time>2026-04-19T08:26:43.001Z</time></trkpt><trkpt lat="44.6706392988239" lon="0.18541806010159284"><ele>57.0</ele><time>2026-04-19T08:26:44.002Z</time></trkpt><trkpt lat="44.670573765473996" lon="0.1855762673521173"><ele>57.0</ele><time>2026-04-19T08:26:45.002Z</time></trkpt><trkpt lat="44.67052609056623" lon="0.18574543825275397"><ele>57.0</ele><time>2026-04-19T08:26:46.002Z</time></trkpt><trkpt lat="44.67047677644833" lon="0.18591261563297432"><ele>58.0</ele><time>2026-04-19T08:26:47.002Z</time></trkpt><trkpt lat="44.6704174473662" lon="0.18607857371625577"><ele>59.0</ele><time>2026-04-19T08:26:48.002Z</time></trkpt><trkpt lat="44.67034878893258" lon="0.18623146765746057"><ele>60.0</ele><time>2026-04-19T08:26:49.002Z</time></trkpt><trkpt lat="44.67027578585211" lon="0.18636988479178504"><ele>61.0</ele><time>2026-04-19T08:26:50.002Z</time></trkpt><trkpt lat="44.670187835287436" lon="0.18650016630054536"><ele>58.0</ele><time>2026-04-19T08:26:51.002Z</time></trkpt><trkpt lat="44.67009230213603" lon="0.18661504665110842"><ele>55.0</ele><time>2026-04-19T08:26:52.002Z</time></trkpt><trkpt lat="44.669977883759955" lon="0.18671516111389683"><ele>52.0</ele><time>2026-04-19T08:26:53.002Z</time></trkpt><trkpt lat="44.669859584051245" lon="0.18679718842871598"><ele>49.0</ele><time>2026-04-19T08:26:54.002Z</time></trkpt><trkpt lat="44.66973346779382" lon="0.18686083361067304"><ele>49.0</ele><time>2026-04-19T08:26:55.002Z</time></trkpt><trkpt lat="44.66961094234627" lon="0.18689846253406184"><ele>49.0</ele><time>2026-04-19T08:26:56.002Z</time></trkpt><trkpt lat="44.66948944953783" lon="0.1869367308510856"><ele>49.0</ele><time>2026-04-19T08:26:57.002Z</time></trkpt><trkpt lat="44.66937428884481" lon="0.18697077551840655"><ele>49.0</ele><time>2026-04-19T08:26:58.002Z</time></trkpt><trkpt lat="44.66927313027702" lon="0.1869981720695927"><ele>47.6</ele><time>2026-04-19T08:26:59.002Z</time></trkpt><trkpt lat="44.669168789312685" lon="0.1870102508282084"><ele>46.2</ele><time>2026-04-19T08:27:00.002Z</time></trkpt><trkpt lat="44.66909328986409" lon="0.18702997347767436"><ele>44.800000000000004</ele><time>2026-04-19T08:27:01.002Z</time></trkpt><trkpt lat="44.6689933987908" lon="0.18704550271543816"><ele>43.400000000000006</ele><time>2026-04-19T08:27:03.002Z</time></trkpt><trkpt lat="44.66889987347819" lon="0.18700147458228358"><ele>42.0</ele><time>2026-04-19T08:27:06.002Z</time></trkpt><trkpt lat="44.66879893175794" lon="0.18700102466799318"><ele>42.0</ele><time>2026-04-19T08:27:08.002Z</time></trkpt><trkpt lat="44.668731313188616" lon="0.18711983798113427"><ele>42.0</ele><time>2026-04-19T08:27:10.002Z</time></trkpt><trkpt lat="44.66873355270301" lon="0.18720925907280966"><ele>42.0</ele><time>2026-04-19T08:27:11.002Z</time></trkpt><trkpt lat="44.66876383459641" lon="0.187312793699532"><ele>42.0</ele><time>2026-04-19T08:27:12.002Z</time></trkpt><trkpt lat="44.66878878912345" lon="0.18741812774233296"><ele>42.0</ele><time>2026-04-19T08:27:13.002Z</time></trkpt><trkpt lat="44.668749199149914" lon="0.18758150741424856"><ele>42.5</ele><time>2026-04-19T08:27:14.002Z</time></trkpt><trkpt lat="44.6686848147485" lon="0.18773849634088516"><ele>43.0</ele><time>2026-04-19T08:27:15.002Z</time></trkpt><trkpt lat="44.66863414399282" lon="0.18790912556599104"><ele>43.5</ele><time>2026-04-19T08:27:16.002Z</time></trkpt><trkpt lat="44.66858340079693" lon="0.18808586414059528"><ele>44.0</ele><time>2026-04-19T08:27:17.002Z</time></trkpt><trkpt lat="44.66851880169902" lon="0.18831209078588332"><ele>42.33333333333333</ele><time>2026-04-19T08:27:18.002Z</time></trkpt><trkpt lat="44.66845566858914" lon="0.18853656269042124"><ele>40.666666666666664</ele><time>2026-04-19T08:27:19.002Z</time></trkpt><trkpt lat="44.66839270778261" lon="0.18875710724762113"><ele>39.0</ele><time>2026-04-19T08:27:20.002Z</time></trkpt><trkpt lat="44.66832789413787" lon="0.1889926132500377"><ele>38.666666666666664</ele><time>2026-04-19T08:27:21.002Z</time></trkpt><trkpt lat="44.668254250258066" lon="0.18925596743101608"><ele>38.33333333333333</ele><time>2026-04-19T08:27:22.002Z</time></trkpt><trkpt lat="44.66817313823306" lon="0.18953482644495592"><ele>38.0</ele><time>2026-04-19T08:27:23.002Z</time></trkpt><trkpt lat="44.6680938978223" lon="0.1898137654824907"><ele>38.666666666666664</ele><time>2026-04-19T08:27:24.002Z</time></trkpt><trkpt lat="44.66801244994034" lon="0.1901031428083905"><ele>39.333333333333336</ele><time>2026-04-19T08:27:25.002Z</time></trkpt><trkpt lat="44.667931301131894" lon="0.19038800758049537"><ele>40.0</ele><time>2026-04-19T08:27:26.002Z</time></trkpt><trkpt lat="44.667842984526054" lon="0.19067103320737622"><ele>38.66666666666667</ele><time>2026-04-19T08:27:27.002Z</time></trkpt><trkpt lat="44.66776066895366" lon="0.19094462957203476"><ele>37.333333333333336</ele><time>2026-04-19T08:27:28.002Z</time></trkpt><trkpt lat="44.6676775522272" lon="0.19121553925324003"><ele>36.0</ele><time>2026-04-19T08:27:29.002Z</time></trkpt><trkpt lat="44.66760736761763" lon="0.1914824473217173"><ele>36.0</ele><time>2026-04-19T08:27:30.002Z</time></trkpt><trkpt lat="44.667543228026275" lon="0.1917412744554714"><ele>36.0</ele><time>2026-04-19T08:27:31.002Z</time></trkpt><trkpt lat="44.66747115360147" lon="0.19199461607968268"><ele>36.0</ele><time>2026-04-19T08:27:32.002Z</time></trkpt><trkpt lat="44.66739767600098" lon="0.192247194603899"><ele>36.0</ele><time>2026-04-19T08:27:33.002Z</time></trkpt><trkpt lat="44.66732656022469" lon="0.1924968924345826"><ele>36.0</ele><time>2026-04-19T08:27:34.002Z</time></trkpt><trkpt lat="44.66725682072225" lon="0.19274402826911322"><ele>36.0</ele><time>2026-04-19T08:27:35.002Z</time></trkpt><trkpt lat="44.66718814920727" lon="0.1929805993170115"><ele>36.0</ele><time>2026-04-19T08:27:36.002Z</time></trkpt><trkpt lat="44.66711995526136" lon="0.19322196323639707"><ele>36.0</ele><time>2026-04-19T08:27:37.002Z</time></trkpt><trkpt lat="44.66705819081144" lon="0.1934612578100241"><ele>36.0</ele><time>2026-04-19T08:27:38.002Z</time></trkpt><trkpt lat="44.66698777992486" lon="0.1937044588351433"><ele>35.666666666666664</ele><time>2026-04-19T08:27:39.002Z</time></trkpt><trkpt lat="44.666921276463" lon="0.19395266796724683"><ele>35.33333333333333</ele><time>2026-04-19T08:27:40.002Z</time></trkpt><trkpt lat="44.66685480985335" lon="0.19420778486475"><ele>35.0</ele><time>2026-04-19T08:27:41.002Z</time></trkpt><trkpt lat="44.66678273593537" lon="0.1944755992417956"><ele>35.0</ele><time>2026-04-19T08:27:42.002Z</time></trkpt><trkpt lat="44.66670892363522" lon="0.19473449415159108"><ele>35.0</ele><time>2026-04-19T08:27:43.002Z</time></trkpt><trkpt lat="44.6666282334367" lon="0.1950103575366706"><ele>35.0</ele><time>2026-04-19T08:27:44.002Z</time></trkpt><trkpt lat="44.66654570123584" lon="0.19528228550620705"><ele>35.33333333333333</ele><time>2026-04-19T08:27:45.002Z</time></trkpt><trkpt lat="44.666463905244555" lon="0.1955702166877473"><ele>35.666666666666664</ele><time>2026-04-19T08:27:46.002Z</time></trkpt><trkpt lat="44.666388731361906" lon="0.19585237524111443"><ele>36.0</ele><time>2026-04-19T08:27:47.002Z</time></trkpt><trkpt lat="44.666310655964004" lon="0.19613250259928383"><ele>36.0</ele><time>2026-04-19T08:27:48.002Z</time></trkpt><trkpt lat="44.66622824197307" lon="0.19642129045933507"><ele>36.0</ele><time>2026-04-19T08:27:49.002Z</time></trkpt><trkpt lat="44.66615791602648" lon="0.1967056367147255"><ele>36.0</ele><time>2026-04-19T08:27:50.002Z</time></trkpt><trkpt lat="44.666075566559414" lon="0.19698930982879467"><ele>36.0</ele><time>2026-04-19T08:27:51.002Z</time></trkpt><trkpt lat="44.66599136973594" lon="0.19727389516523416"><ele>36.0</ele><time>2026-04-19T08:27:52.002Z</time></trkpt><trkpt lat="44.66590168258452" lon="0.19755060366355556"><ele>36.0</ele><time>2026-04-19T08:27:53.002Z</time></trkpt><trkpt lat="44.66582430661332" lon="0.19783248981442872"><ele>36.0</ele><time>2026-04-19T08:27:54.002Z</time></trkpt><trkpt lat="44.66574803232569" lon="0.19810724845140457"><ele>36.0</ele><time>2026-04-19T08:27:55.002Z</time></trkpt><trkpt lat="44.665679497270865" lon="0.19838339843516506"><ele>36.0</ele><time>2026-04-19T08:27:56.002Z</time></trkpt><trkpt lat="44.66560081238679" lon="0.1986498653408751"><ele>36.333333333333336</ele><time>2026-04-19T08:27:57.002Z</time></trkpt><trkpt lat="44.66552502568558" lon="0.19891415409570043"><ele>36.66666666666667</ele><time>2026-04-19T08:27:58.002Z</time></trkpt><trkpt lat="44.66544133864263" lon="0.1991908347381192"><ele>37.0</ele><time>2026-04-19T08:27:59.002Z</time></trkpt><trkpt lat="44.66536182652352" lon="0.1994647518029731"><ele>37.0</ele><time>2026-04-19T08:28:00.002Z</time></trkpt><trkpt lat="44.665291019590995" lon="0.19972818109367213"><ele>37.0</ele><time>2026-04-19T08:28:01.002Z</time></trkpt><trkpt lat="44.66521985087608" lon="0.19998028812242438"><ele>37.0</ele><time>2026-04-19T08:28:02.002Z</time></trkpt><trkpt lat="44.6651466029254" lon="0.20024086320151271"><ele>37.66666666666667</ele><time>2026-04-19T08:28:03.002Z</time></trkpt><trkpt lat="44.66507538691778" lon="0.2004943972172787"><ele>38.333333333333336</ele><time>2026-04-19T08:28:04.002Z</time></trkpt><trkpt lat="44.665004365868334" lon="0.2007390135965519"><ele>39.0</ele><time>2026-04-19T08:28:05.002Z</time></trkpt><trkpt lat="44.66493318229216" lon="0.20099641785414674"><ele>39.333333333333336</ele><time>2026-04-19T08:28:06.002Z</time></trkpt><trkpt lat="44.66485848883276" lon="0.20124829781030534"><ele>39.66666666666667</ele><time>2026-04-19T08:28:07.002Z</time></trkpt><trkpt lat="44.664780318617815" lon="0.2015076952475377"><ele>40.0</ele><time>2026-04-19T08:28:08.002Z</time></trkpt><trkpt lat="44.664713613088225" lon="0.2017646098592453"><ele>40.66666666666667</ele><time>2026-04-19T08:28:09.002Z</time></trkpt><trkpt lat="44.66461348960824" lon="0.20203827637267316"><ele>41.333333333333336</ele><time>2026-04-19T08:28:10.002Z</time></trkpt><trkpt lat="44.66454209842124" lon="0.2023037799802399"><ele>42.0</ele><time>2026-04-19T08:28:11.002Z</time></trkpt><trkpt lat="44.66447061214117" lon="0.20255573393674317"><ele>42.333333333333336</ele><time>2026-04-19T08:28:12.002Z</time></trkpt><trkpt lat="44.664398068071755" lon="0.20280173171179472"><ele>42.66666666666667</ele><time>2026-04-19T08:28:13.002Z</time></trkpt><trkpt lat="44.6643424844439" lon="0.20303307343595708"><ele>43.0</ele><time>2026-04-19T08:28:14.002Z</time></trkpt><trkpt lat="44.664293949464636" lon="0.20328497106303342"><ele>43.333333333333336</ele><time>2026-04-19T08:28:15.002Z</time></trkpt><trkpt lat="44.66425384046177" lon="0.20352723606115794"><ele>43.666666666666664</ele><time>2026-04-19T08:28:16.002Z</time></trkpt><trkpt lat="44.66419975590638" lon="0.20377262499245938"><ele>44.0</ele><time>2026-04-19T08:28:17.002Z</time></trkpt><trkpt lat="44.66414708524137" lon="0.20401804994772862"><ele>44.33333333333333</ele><time>2026-04-19T08:28:18.002Z</time></trkpt><trkpt lat="44.66409966580991" lon="0.20427100962064698"><ele>44.666666666666664</ele><time>2026-04-19T08:28:19.002Z</time></trkpt><trkpt lat="44.66406198744885" lon="0.20453043529678605"><ele>45.0</ele><time>2026-04-19T08:28:20.002Z</time></trkpt><trkpt lat="44.66401681794871" lon="0.20479999255616194"><ele>45.666666666666664</ele><time>2026-04-19T08:28:21.002Z</time></trkpt><trkpt lat="44.66397125293212" lon="0.20507710094856269"><ele>46.33333333333333</ele><time>2026-04-19T08:28:22.002Z</time></trkpt><trkpt lat="44.6639227822894" lon="0.20536175300585835"><ele>47.0</ele><time>2026-04-19T08:28:23.002Z</time></trkpt><trkpt lat="44.66387299404222" lon="0.2056464570431814"><ele>47.33333333333333</ele><time>2026-04-19T08:28:24.002Z</time></trkpt><trkpt lat="44.66382838641764" lon="0.20593903833188418"><ele>47.666666666666664</ele><time>2026-04-19T08:28:25.002Z</time></trkpt><trkpt lat="44.66377982193964" lon="0.206227507234533"><ele>48.0</ele><time>2026-04-19T08:28:26.002Z</time></trkpt><trkpt lat="44.66373007848402" lon="0.2065240040309859"><ele>48.0</ele><time>2026-04-19T08:28:27.002Z</time></trkpt><trkpt lat="44.66367932380641" lon="0.2068228636251192"><ele>48.0</ele><time>2026-04-19T08:28:28.002Z</time></trkpt><trkpt lat="44.66362307119218" lon="0.20712149349998327"><ele>48.0</ele><time>2026-04-19T08:28:29.002Z</time></trkpt><trkpt lat="44.663576111418195" lon="0.20740901251620839"><ele>47.666666666666664</ele><time>2026-04-19T08:28:30.002Z</time></trkpt><trkpt lat="44.66352468153853" lon="0.20770128780181224"><ele>47.33333333333333</ele><time>2026-04-19T08:28:31.002Z</time></trkpt><trkpt lat="44.66346812180366" lon="0.20799190276906362"><ele>47.0</ele><time>2026-04-19T08:28:32.002Z</time></trkpt><trkpt lat="44.66341312626891" lon="0.2082890755066674"><ele>47.0</ele><time>2026-04-19T08:28:33.002Z</time></trkpt><trkpt lat="44.66336124119402" lon="0.2085834458886592"><ele>47.0</ele><time>2026-04-19T08:28:34.002Z</time></trkpt><trkpt lat="44.663313182038074" lon="0.20887823246842505"><ele>47.0</ele><time>2026-04-19T08:28:35.002Z</time></trkpt><trkpt lat="44.663262689268606" lon="0.20917634676370075"><ele>47.33333333333333</ele><time>2026-04-19T08:28:36.002Z</time></trkpt><trkpt lat="44.663209558551834" lon="0.20945918573084446"><ele>47.666666666666664</ele><time>2026-04-19T08:28:37.001Z</time></trkpt><trkpt lat="44.66316234448499" lon="0.20972448839962912"><ele>48.0</ele><time>2026-04-19T08:28:38.001Z</time></trkpt><trkpt lat="44.663120380510335" lon="0.20998807603799838"><ele>48.0</ele><time>2026-04-19T08:28:39.001Z</time></trkpt><trkpt lat="44.66307442773027" lon="0.21023565277868833"><ele>48.0</ele><time>2026-04-19T08:28:40.001Z</time></trkpt><trkpt lat="44.66303146021607" lon="0.21048316341228193"><ele>48.0</ele><time>2026-04-19T08:28:41Z</time></trkpt><trkpt lat="44.66298902037737" lon="0.210735616489552"><ele>48.0</ele><time>2026-04-19T08:28:42Z</time></trkpt><trkpt lat="44.66293430354417" lon="0.21099294833976925"><ele>48.0</ele><time>2026-04-19T08:28:43.001Z</time></trkpt><trkpt lat="44.662886059037994" lon="0.21124415669128838"><ele>48.0</ele><time>2026-04-19T08:28:44Z</time></trkpt><trkpt lat="44.662837107429596" lon="0.21148873673715624"><ele>48.0</ele><time>2026-04-19T08:28:45Z</time></trkpt><trkpt lat="44.662800574042926" lon="0.21173388477267044"><ele>48.0</ele><time>2026-04-19T08:28:46.001Z</time></trkpt><trkpt lat="44.66275313394137" lon="0.2119851531237379"><ele>48.0</ele><time>2026-04-19T08:28:47.001Z</time></trkpt><trkpt lat="44.66270604330606" lon="0.21222264151840448"><ele>47.0</ele><time>2026-04-19T08:28:48.001Z</time></trkpt><trkpt lat="44.66265660834216" lon="0.21246085731319145"><ele>46.0</ele><time>2026-04-19T08:28:49.001Z</time></trkpt><trkpt lat="44.66260527408902" lon="0.21267582218152575"><ele>45.0</ele><time>2026-04-19T08:28:50.001Z</time></trkpt><trkpt lat="44.6625571936664" lon="0.2128922209851214"><ele>45.0</ele><time>2026-04-19T08:28:51.001Z</time></trkpt><trkpt lat="44.66251718324638" lon="0.21311456550980293"><ele>45.0</ele><time>2026-04-19T08:28:52.001Z</time></trkpt><trkpt lat="44.662471446514964" lon="0.2133249209170375"><ele>45.0</ele><time>2026-04-19T08:28:53.001Z</time></trkpt><trkpt lat="44.66241111801283" lon="0.2135437609913626"><ele>44.333333333333336</ele><time>2026-04-19T08:28:54.001Z</time></trkpt><trkpt lat="44.6623630275483" lon="0.21375724100707738"><ele>43.66666666666667</ele><time>2026-04-19T08:28:55.001Z</time></trkpt><trkpt lat="44.66231368136881" lon="0.2139799101975312"><ele>43.0</ele><time>2026-04-19T08:28:56.001Z</time></trkpt><trkpt lat="44.66226959812754" lon="0.2141975548133161"><ele>43.0</ele><time>2026-04-19T08:28:57.001Z</time></trkpt><trkpt lat="44.662215574665424" lon="0.2144173984953978"><ele>43.0</ele><time>2026-04-19T08:28:58.001Z</time></trkpt><trkpt lat="44.6621611120706" lon="0.2146300347015433"><ele>43.0</ele><time>2026-04-19T08:28:59.001Z</time></trkpt><trkpt lat="44.662104214634255" lon="0.2148483633223949"><ele>43.0</ele><time>2026-04-19T08:29:00.001Z</time></trkpt><trkpt lat="44.66203736687319" lon="0.21506770295177255"><ele>43.0</ele><time>2026-04-19T08:29:01.001Z</time></trkpt><trkpt lat="44.661947371222354" lon="0.21530884189557117"><ele>43.0</ele><time>2026-04-19T08:29:02.001Z</time></trkpt><trkpt lat="44.661861016620875" lon="0.21554119937022753"><ele>40.66666666666667</ele><time>2026-04-19T08:29:03.001Z</time></trkpt><trkpt lat="44.66176203912518" lon="0.21577873476240447"><ele>38.333333333333336</ele><time>2026-04-19T08:29:04.001Z</time></trkpt><trkpt lat="44.66167242206707" lon="0.2160396477931356"><ele>36.0</ele><time>2026-04-19T08:29:05.001Z</time></trkpt><trkpt lat="44.66157519955914" lon="0.2163074678180961"><ele>36.666666666666664</ele><time>2026-04-19T08:29:06.001Z</time></trkpt><trkpt lat="44.661475462733215" lon="0.21657738926688794"><ele>37.33333333333333</ele><time>2026-04-19T08:29:07.001Z</time></trkpt><trkpt lat="44.661370019468976" lon="0.21685091686465283"><ele>38.0</ele><time>2026-04-19T08:29:08.001Z</time></trkpt><trkpt lat="44.66127114863769" lon="0.21711750403609162"><ele>38.0</ele><time>2026-04-19T08:29:09.001Z</time></trkpt><trkpt lat="44.66117089245147" lon="0.21738457744958056"><ele>38.0</ele><time>2026-04-19T08:29:10.001Z</time></trkpt><trkpt lat="44.661074642045676" lon="0.21765034253400348"><ele>38.0</ele><time>2026-04-19T08:29:11.001Z</time></trkpt><trkpt lat="44.66097373021658" lon="0.2179087616091096"><ele>38.0</ele><time>2026-04-19T08:29:12.001Z</time></trkpt><trkpt lat="44.6608776452448" lon="0.21817371053919501"><ele>38.0</ele><time>2026-04-19T08:29:13.001Z</time></trkpt><trkpt lat="44.66077853232563" lon="0.21844297390874867"><ele>38.0</ele><time>2026-04-19T08:29:14.001Z</time></trkpt><trkpt lat="44.66068453838518" lon="0.21871624240784537"><ele>38.0</ele><time>2026-04-19T08:29:15.001Z</time></trkpt><trkpt lat="44.66059030846626" lon="0.2189782224275772"><ele>38.0</ele><time>2026-04-19T08:29:16.001Z</time></trkpt><trkpt lat="44.66048977436979" lon="0.21924736085708263"><ele>38.0</ele><time>2026-04-19T08:29:17.001Z</time></trkpt><trkpt lat="44.66039164563236" lon="0.21951767655276253"><ele>38.33333333333333</ele><time>2026-04-19T08:29:18.001Z</time></trkpt><trkpt lat="44.660293330440545" lon="0.21978289134682663"><ele>38.666666666666664</ele><time>2026-04-19T08:29:19.001Z</time></trkpt><trkpt lat="44.660192661326946" lon="0.22005061508558238"><ele>39.0</ele><time>2026-04-19T08:29:20.001Z</time></trkpt><trkpt lat="44.66009398479991" lon="0.22031629578685777"><ele>38.333333333333336</ele><time>2026-04-19T08:29:21.001Z</time></trkpt><trkpt lat="44.6599922893473" lon="0.22058645152171524"><ele>37.66666666666667</ele><time>2026-04-19T08:29:22.001Z</time></trkpt><trkpt lat="44.65989491649912" lon="0.22085625736257308"><ele>37.0</ele><time>2026-04-19T08:29:23.001Z</time></trkpt><trkpt lat="44.65980287440136" lon="0.22112971015318436"><ele>37.0</ele><time>2026-04-19T08:29:24.001Z</time></trkpt><trkpt lat="44.65970822727874" lon="0.22138948486751767"><ele>37.0</ele><time>2026-04-19T08:29:25.001Z</time></trkpt><trkpt lat="44.659609125821305" lon="0.22165704271570663"><ele>37.0</ele><time>2026-04-19T08:29:26.001Z</time></trkpt><trkpt lat="44.65951034073506" lon="0.22192346890881604"><ele>37.0</ele><time>2026-04-19T08:29:27.001Z</time></trkpt><trkpt lat="44.659411571743576" lon="0.22219339355662723"><ele>37.0</ele><time>2026-04-19T08:29:28.001Z</time></trkpt><trkpt lat="44.65931307895093" lon="0.22245636707715327"><ele>37.0</ele><time>2026-04-19T08:29:29.001Z</time></trkpt><trkpt lat="44.659215193725515" lon="0.2227243176178858"><ele>37.0</ele><time>2026-04-19T08:29:30.001Z</time></trkpt><trkpt lat="44.659120056301894" lon="0.22298692795826447"><ele>37.0</ele><time>2026-04-19T08:29:31.001Z</time></trkpt><trkpt lat="44.65901825823731" lon="0.22325928668612502"><ele>37.0</ele><time>2026-04-19T08:29:32.001Z</time></trkpt><trkpt lat="44.65892243020437" lon="0.2235302671105495"><ele>37.0</ele><time>2026-04-19T08:29:33.001Z</time></trkpt><trkpt lat="44.65882727028038" lon="0.22379662848387288"><ele>37.0</ele><time>2026-04-19T08:29:34.001Z</time></trkpt><trkpt lat="44.6587299680984" lon="0.22406646438427863"><ele>37.0</ele><time>2026-04-19T08:29:35.001Z</time></trkpt><trkpt lat="44.658608742094216" lon="0.22434001599757986"><ele>37.0</ele><time>2026-04-19T08:29:36.001Z</time></trkpt><trkpt lat="44.65851190349688" lon="0.2246077002624237"><ele>37.0</ele><time>2026-04-19T08:29:37.001Z</time></trkpt><trkpt lat="44.65841513923934" lon="0.22486358593108313"><ele>37.0</ele><time>2026-04-19T08:29:38.001Z</time></trkpt><trkpt lat="44.658318427490876" lon="0.2251298364284063"><ele>37.0</ele><time>2026-04-19T08:29:39.001Z</time></trkpt><trkpt lat="44.65822250991698" lon="0.22539519591064483"><ele>37.0</ele><time>2026-04-19T08:29:40.001Z</time></trkpt><trkpt lat="44.65813040325645" lon="0.22566349073055872"><ele>37.0</ele><time>2026-04-19T08:29:41.001Z</time></trkpt><trkpt lat="44.65803331114698" lon="0.22593434328971088"><ele>37.0</ele><time>2026-04-19T08:29:42.001Z</time></trkpt><trkpt lat="44.65793247003524" lon="0.22620528318025288"><ele>37.0</ele><time>2026-04-19T08:29:43.001Z</time></trkpt><trkpt lat="44.65783343266189" lon="0.22647246883045333"><ele>37.0</ele><time>2026-04-19T08:29:44.001Z</time></trkpt><trkpt lat="44.65773412248027" lon="0.22674383332437933"><ele>37.0</ele><time>2026-04-19T08:29:45.001Z</time></trkpt><trkpt lat="44.65764241799076" lon="0.22700852601379848"><ele>37.0</ele><time>2026-04-19T08:29:46.001Z</time></trkpt><trkpt lat="44.657543921512016" lon="0.22727296639975386"><ele>37.0</ele><time>2026-04-19T08:29:47.001Z</time></trkpt><trkpt lat="44.65744637163478" lon="0.22754429217693353"><ele>38.0</ele><time>2026-04-19T08:29:48.001Z</time></trkpt><trkpt lat="44.65735472467254" lon="0.22779849819603873"><ele>39.0</ele><time>2026-04-19T08:29:49.001Z</time></trkpt><trkpt lat="44.657256276300664" lon="0.22806925893392319"><ele>40.0</ele><time>2026-04-19T08:29:50.001Z</time></trkpt><trkpt lat="44.65715788464442" lon="0.22834111368414112"><ele>40.333333333333336</ele><time>2026-04-19T08:29:51.001Z</time></trkpt><trkpt lat="44.657062163880816" lon="0.2286054088142281"><ele>40.666666666666664</ele><time>2026-04-19T08:29:52.001Z</time></trkpt><trkpt lat="44.65696571432209" lon="0.22887458308659"><ele>41.0</ele><time>2026-04-19T08:29:53.001Z</time></trkpt><trkpt lat="44.656870651536096" lon="0.22912877467327655"><ele>41.33333333333333</ele><time>2026-04-19T08:29:54.001Z</time></trkpt><trkpt lat="44.65677736412669" lon="0.229382486419973"><ele>41.666666666666664</ele><time>2026-04-19T08:29:55.001Z</time></trkpt><trkpt lat="44.65668362513695" lon="0.22964658033294652"><ele>42.0</ele><time>2026-04-19T08:29:56.001Z</time></trkpt><trkpt lat="44.65659059036784" lon="0.22990187542967436"><ele>42.0</ele><time>2026-04-19T08:29:57.001Z</time></trkpt><trkpt lat="44.656500093561625" lon="0.23016452126136533"><ele>42.0</ele><time>2026-04-19T08:29:58.001Z</time></trkpt><trkpt lat="44.656406044241166" lon="0.23042403059545594"><ele>42.0</ele><time>2026-04-19T08:29:59.001Z</time></trkpt><trkpt lat="44.656311439067245" lon="0.23068181092944237"><ele>42.0</ele><time>2026-04-19T08:30:00.001Z</time></trkpt><trkpt lat="44.65621751229007" lon="0.230954301967102"><ele>42.0</ele><time>2026-04-19T08:30:01.001Z</time></trkpt><trkpt lat="44.65611751410687" lon="0.231218134308789"><ele>42.0</ele><time>2026-04-19T08:30:02.001Z</time></trkpt><trkpt lat="44.656018862646846" lon="0.23148080476576352"><ele>42.0</ele><time>2026-04-19T08:30:03.001Z</time></trkpt><trkpt lat="44.65591151753576" lon="0.23174744945484005"><ele>42.0</ele><time>2026-04-19T08:30:04.001Z</time></trkpt><trkpt lat="44.65581264683868" lon="0.23202103143125338"><ele>42.0</ele><time>2026-04-19T08:30:05.001Z</time></trkpt><trkpt lat="44.655721102284645" lon="0.2322867284380982"><ele>43.0</ele><time>2026-04-19T08:30:06.001Z</time></trkpt><trkpt lat="44.65562754178872" lon="0.2325520159571352"><ele>44.0</ele><time>2026-04-19T08:30:07.001Z</time></trkpt><trkpt lat="44.65552590053688" lon="0.23282402887108072"><ele>45.0</ele><time>2026-04-19T08:30:08.001Z</time></trkpt><trkpt lat="44.65543137682686" lon="0.23309381479014538"><ele>45.666666666666664</ele><time>2026-04-19T08:30:09.001Z</time></trkpt><trkpt lat="44.65533204761833" lon="0.23335559377072906"><ele>46.33333333333333</ele><time>2026-04-19T08:30:10.001Z</time></trkpt><trkpt lat="44.65523408156098" lon="0.23361915304709868"><ele>47.0</ele><time>2026-04-19T08:30:11.001Z</time></trkpt><trkpt lat="44.65513357984386" lon="0.23388427744111556"><ele>48.0</ele><time>2026-04-19T08:30:12.001Z</time></trkpt><trkpt lat="44.655037633299855" lon="0.2341456009920669"><ele>49.0</ele><time>2026-04-19T08:30:13.001Z</time></trkpt><trkpt lat="44.65493857502337" lon="0.2344170821146404"><ele>50.0</ele><time>2026-04-19T08:30:14.001Z</time></trkpt><trkpt lat="44.65483665018277" lon="0.23468264185358595"><ele>51.0</ele><time>2026-04-19T08:30:15.001Z</time></trkpt><trkpt lat="44.654744302866504" lon="0.23495097165166579"><ele>52.0</ele><time>2026-04-19T08:30:16.001Z</time></trkpt><trkpt lat="44.65466416433525" lon="0.23522771733554923"><ele>53.0</ele><time>2026-04-19T08:30:17.001Z</time></trkpt><trkpt lat="44.65459644826372" lon="0.2355098809827525"><ele>53.66666666666667</ele><time>2026-04-19T08:30:18.001Z</time></trkpt><trkpt lat="44.654531446379764" lon="0.23579845143531067"><ele>54.33333333333333</ele><time>2026-04-19T08:30:19.001Z</time></trkpt><trkpt lat="44.654468758352586" lon="0.23609356066720216"><ele>55.0</ele><time>2026-04-19T08:30:20.001Z</time></trkpt><trkpt lat="44.654406680144746" lon="0.2363816510102705"><ele>54.33333333333333</ele><time>2026-04-19T08:30:21.001Z</time></trkpt><trkpt lat="44.65432808382685" lon="0.23666001308857665"><ele>53.66666666666667</ele><time>2026-04-19T08:30:22.001Z</time></trkpt><trkpt lat="44.654246163102925" lon="0.2369359876222865"><ele>53.0</ele><time>2026-04-19T08:30:23.001Z</time></trkpt><trkpt lat="44.65415505980261" lon="0.2372042378124996"><ele>53.66666666666667</ele><time>2026-04-19T08:30:24.001Z</time></trkpt><trkpt lat="44.65404734823791" lon="0.23746439652317797"><ele>54.33333333333333</ele><time>2026-04-19T08:30:25.001Z</time></trkpt><trkpt lat="44.653937341265966" lon="0.23772421353112028"><ele>55.0</ele><time>2026-04-19T08:30:26.001Z</time></trkpt><trkpt lat="44.65382744856372" lon="0.23798379076114706"><ele>55.33333333333333</ele><time>2026-04-19T08:30:27.001Z</time></trkpt><trkpt lat="44.65371235567818" lon="0.23824321031994125"><ele>55.66666666666667</ele><time>2026-04-19T08:30:28.001Z</time></trkpt><trkpt lat="44.65359907057944" lon="0.23849328876126805"><ele>56.0</ele><time>2026-04-19T08:30:29.001Z</time></trkpt><trkpt lat="44.653476188587106" lon="0.23873604248747501"><ele>54.66666666666667</ele><time>2026-04-19T08:30:30.001Z</time></trkpt><trkpt lat="44.65333923412692" lon="0.23897273449529974"><ele>53.33333333333333</ele><time>2026-04-19T08:30:31.001Z</time></trkpt><trkpt lat="44.65319627803511" lon="0.23919196281214633"><ele>52.0</ele><time>2026-04-19T08:30:32.001Z</time></trkpt><trkpt lat="44.653045239329124" lon="0.2394130435306944"><ele>52.0</ele><time>2026-04-19T08:30:33.001Z</time></trkpt><trkpt lat="44.652889926826255" lon="0.23962527028549443"><ele>52.0</ele><time>2026-04-19T08:30:34.001Z</time></trkpt><trkpt lat="44.65273366411498" lon="0.23983229563891845"><ele>52.0</ele><time>2026-04-19T08:30:35.001Z</time></trkpt><trkpt lat="44.652575867357115" lon="0.24003851056017356"><ele>51.0</ele><time>2026-04-19T08:30:36.001Z</time></trkpt><trkpt lat="44.652419555467766" lon="0.24024422511202623"><ele>50.0</ele><time>2026-04-19T08:30:37.001Z</time></trkpt><trkpt lat="44.65227269990848" lon="0.24045800485418978"><ele>49.0</ele><time>2026-04-19T08:30:38.001Z</time></trkpt><trkpt lat="44.652132811607615" lon="0.2406717857158529"><ele>49.0</ele><time>2026-04-19T08:30:39.001Z</time></trkpt><trkpt lat="44.651990813686346" lon="0.24088575937542728"><ele>49.0</ele><time>2026-04-19T08:30:40.001Z</time></trkpt><trkpt lat="44.65185458348305" lon="0.2410928516234811"><ele>49.0</ele><time>2026-04-19T08:30:41.001Z</time></trkpt><trkpt lat="44.651707956485104" lon="0.24130535887796714"><ele>50.33333333333333</ele><time>2026-04-19T08:30:42.001Z</time></trkpt><trkpt lat="44.65155836895918" lon="0.24151803628605792"><ele>51.66666666666667</ele><time>2026-04-19T08:30:43Z</time></trkpt><trkpt lat="44.65141000926294" lon="0.24173187399796872"><ele>53.0</ele><time>2026-04-19T08:30:44Z</time></trkpt><trkpt lat="44.651264769803774" lon="0.24195169977858397"><ele>53.0</ele><time>2026-04-19T08:30:45Z</time></trkpt><trkpt lat="44.65113297646601" lon="0.24215506004888426"><ele>53.0</ele><time>2026-04-19T08:30:46Z</time></trkpt><trkpt lat="44.651004167903054" lon="0.24234535901403467"><ele>53.0</ele><time>2026-04-19T08:30:47Z</time></trkpt><trkpt lat="44.65088582806605" lon="0.24252732840826938"><ele>52.333333333333336</ele><time>2026-04-19T08:30:48Z</time></trkpt><trkpt lat="44.650766886687784" lon="0.24270584319479735"><ele>51.66666666666667</ele><time>2026-04-19T08:30:49.001Z</time></trkpt><trkpt lat="44.65065452734773" lon="0.24287217429647803"><ele>51.0</ele><time>2026-04-19T08:30:50Z</time></trkpt><trkpt lat="44.65054783424352" lon="0.24303035524049588"><ele>51.25</ele><time>2026-04-19T08:30:51Z</time></trkpt><trkpt lat="44.6504456612478" lon="0.24318486653097424"><ele>51.5</ele><time>2026-04-19T08:30:52Z</time></trkpt><trkpt lat="44.65035278019996" lon="0.24333214765013586"><ele>51.75</ele><time>2026-04-19T08:30:53Z</time></trkpt><trkpt lat="44.6502577958303" lon="0.24346337554828254"><ele>52.0</ele><time>2026-04-19T08:30:54Z</time></trkpt><trkpt lat="44.650170456437436" lon="0.24359023195164858"><ele>52.25</ele><time>2026-04-19T08:30:55Z</time></trkpt><trkpt lat="44.65008802689319" lon="0.2436995009915684"><ele>52.5</ele><time>2026-04-19T08:30:56Z</time></trkpt><trkpt lat="44.65001183536642" lon="0.24381803160475513"><ele>52.75</ele><time>2026-04-19T08:30:57Z</time></trkpt><trkpt lat="44.64994159170521" lon="0.24393945980517417"><ele>53.0</ele><time>2026-04-19T08:30:58Z</time></trkpt><trkpt lat="44.64986542486138" lon="0.24406271473533694"><ele>53.0</ele><time>2026-04-19T08:30:59Z</time></trkpt><trkpt lat="44.64977780558759" lon="0.2441872483563552"><ele>53.0</ele><time>2026-04-19T08:31:00Z</time></trkpt><trkpt lat="44.64969337042058" lon="0.24431859631228703"><ele>53.0</ele><time>2026-04-19T08:31:01Z</time></trkpt><trkpt lat="44.64961038676585" lon="0.24444020067188602"><ele>53.0</ele><time>2026-04-19T08:31:02Z</time></trkpt><trkpt lat="44.64953914054621" lon="0.2445568261417879"><ele>53.0</ele><time>2026-04-19T08:31:03Z</time></trkpt><trkpt lat="44.64946312533714" lon="0.24467331959832178"><ele>53.0</ele><time>2026-04-19T08:31:04Z</time></trkpt><trkpt lat="44.64938727266144" lon="0.2447792291287794"><ele>53.0</ele><time>2026-04-19T08:31:05Z</time></trkpt><trkpt lat="44.64931069404167" lon="0.24488752866781324"><ele>53.0</ele><time>2026-04-19T08:31:06Z</time></trkpt><trkpt lat="44.64923427855952" lon="0.24499485254099038"><ele>53.0</ele><time>2026-04-19T08:31:07Z</time></trkpt><trkpt lat="44.64915654808193" lon="0.2451017186352195"><ele>53.0</ele><time>2026-04-19T08:31:08Z</time></trkpt><trkpt lat="44.649077872577436" lon="0.2452200728863561"><ele>53.0</ele><time>2026-04-19T08:31:09Z</time></trkpt><trkpt lat="44.648999818705185" lon="0.2453357889544579"><ele>53.0</ele><time>2026-04-19T08:31:10Z</time></trkpt><trkpt lat="44.64891470242138" lon="0.24544553542059647"><ele>53.0</ele><time>2026-04-19T08:31:11Z</time></trkpt><trkpt lat="44.64882688937107" lon="0.24556274835765582"><ele>53.0</ele><time>2026-04-19T08:31:12Z</time></trkpt><trkpt lat="44.648748514809355" lon="0.24567660497098734"><ele>53.0</ele><time>2026-04-19T08:31:13Z</time></trkpt><trkpt lat="44.64866261169468" lon="0.2457903080681362"><ele>53.0</ele><time>2026-04-19T08:31:14Z</time></trkpt><trkpt lat="44.64858018290424" lon="0.24590767103794814"><ele>53.0</ele><time>2026-04-19T08:31:15Z</time></trkpt><trkpt lat="44.64850479176097" lon="0.24602807591915754"><ele>53.0</ele><time>2026-04-19T08:31:16Z</time></trkpt><trkpt lat="44.648432569799674" lon="0.2461489862656992"><ele>53.0</ele><time>2026-04-19T08:31:17Z</time></trkpt><trkpt lat="44.64836680719267" lon="0.24627837717509943"><ele>53.0</ele><time>2026-04-19T08:31:18Z</time></trkpt><trkpt lat="44.6483013142372" lon="0.24640349048561327"><ele>53.0</ele><time>2026-04-19T08:31:19Z</time></trkpt><trkpt lat="44.64823647816233" lon="0.246544459946996"><ele>52.75</ele><time>2026-04-19T08:31:20Z</time></trkpt><trkpt lat="44.64816739442824" lon="0.2466786278613235"><ele>52.5</ele><time>2026-04-19T08:31:21Z</time></trkpt><trkpt lat="44.648090422529016" lon="0.2468180599392485"><ele>52.25</ele><time>2026-04-19T08:31:22Z</time></trkpt><trkpt lat="44.648022079603464" lon="0.24695267973143556"><ele>52.0</ele><time>2026-04-19T08:31:23Z</time></trkpt><trkpt lat="44.64793037330184" lon="0.24708219396174316"><ele>52.0</ele><time>2026-04-19T08:31:24Z</time></trkpt><trkpt lat="44.64784721411648" lon="0.24723222090596253"><ele>52.0</ele><time>2026-04-19T08:31:25Z</time></trkpt><trkpt lat="44.6477535141177" lon="0.24739534154385553"><ele>52.0</ele><time>2026-04-19T08:31:26Z</time></trkpt><trkpt lat="44.64766718095215" lon="0.24755910038044762"><ele>52.0</ele><time>2026-04-19T08:31:27Z</time></trkpt><trkpt lat="44.647599647271264" lon="0.2477439473265092"><ele>52.0</ele><time>2026-04-19T08:31:28Z</time></trkpt><trkpt lat="44.64753060846254" lon="0.24791855319176592"><ele>52.0</ele><time>2026-04-19T08:31:29Z</time></trkpt><trkpt lat="44.64745542445206" lon="0.24810081534291056"><ele>52.0</ele><time>2026-04-19T08:31:30Z</time></trkpt><trkpt lat="44.64739008199448" lon="0.24827816863297625"><ele>52.0</ele><time>2026-04-19T08:31:31Z</time></trkpt><trkpt lat="44.647328357669736" lon="0.24845678378980796"><ele>51.25</ele><time>2026-04-19T08:31:32Z</time></trkpt><trkpt lat="44.64726705803276" lon="0.24863948224790727"><ele>50.5</ele><time>2026-04-19T08:31:33Z</time></trkpt><trkpt lat="44.64720106160005" lon="0.2488171948100145"><ele>49.75</ele><time>2026-04-19T08:31:34Z</time></trkpt><trkpt lat="44.647137336675975" lon="0.24900104998576908"><ele>49.0</ele><time>2026-04-19T08:31:35Z</time></trkpt><trkpt lat="44.647073908458296" lon="0.2491819533051356"><ele>49.0</ele><time>2026-04-19T08:31:36Z</time></trkpt><trkpt lat="44.6470082593632" lon="0.2493699593594651"><ele>49.0</ele><time>2026-04-19T08:31:37Z</time></trkpt><trkpt lat="44.646931970878676" lon="0.24958385797499782"><ele>49.0</ele><time>2026-04-19T08:31:38Z</time></trkpt><trkpt lat="44.64682238358079" lon="0.2498137846241288"><ele>47.0</ele><time>2026-04-19T08:31:39Z</time></trkpt><trkpt lat="44.64674673448889" lon="0.2500519920659873"><ele>45.0</ele><time>2026-04-19T08:31:40Z</time></trkpt><trkpt lat="44.646657571458306" lon="0.25029342491876"><ele>43.0</ele><time>2026-04-19T08:31:41Z</time></trkpt><trkpt lat="44.64657142152172" lon="0.2505482501752341"><ele>43.333333333333336</ele><time>2026-04-19T08:31:42Z</time></trkpt><trkpt lat="44.64647836070267" lon="0.25080299322702476"><ele>43.666666666666664</ele><time>2026-04-19T08:31:43Z</time></trkpt><trkpt lat="44.646387031427" lon="0.2510524203983804"><ele>44.0</ele><time>2026-04-19T08:31:44Z</time></trkpt><trkpt lat="44.646297390462856" lon="0.2513063138364638"><ele>43.33333333333333</ele><time>2026-04-19T08:31:45Z</time></trkpt><trkpt lat="44.64621855515889" lon="0.25155509959526573"><ele>42.666666666666664</ele><time>2026-04-19T08:31:46Z</time></trkpt><trkpt lat="44.64612488126539" lon="0.25179184433471863"><ele>42.0</ele><time>2026-04-19T08:31:47Z</time></trkpt><trkpt lat="44.646033493358054" lon="0.25204271695716335"><ele>41.666666666666664</ele><time>2026-04-19T08:31:48Z</time></trkpt><trkpt lat="44.64595619766972" lon="0.25227718048253966"><ele>41.33333333333333</ele><time>2026-04-19T08:31:49Z</time></trkpt><trkpt lat="44.64587766032774" lon="0.2525093183654095"><ele>41.0</ele><time>2026-04-19T08:31:50Z</time></trkpt><trkpt lat="44.64579135740753" lon="0.2527441815626509"><ele>40.33333333333333</ele><time>2026-04-19T08:31:51Z</time></trkpt><trkpt lat="44.64570879041315" lon="0.25297872838824353"><ele>39.666666666666664</ele><time>2026-04-19T08:31:52Z</time></trkpt><trkpt lat="44.645629052446864" lon="0.2532085551593261"><ele>39.0</ele><time>2026-04-19T08:31:53Z</time></trkpt><trkpt lat="44.64554690603475" lon="0.25343135838979536"><ele>39.0</ele><time>2026-04-19T08:31:54Z</time></trkpt><trkpt lat="44.645467693852716" lon="0.2536547884641062"><ele>39.0</ele><time>2026-04-19T08:31:55Z</time></trkpt><trkpt lat="44.64538819440863" lon="0.253872359678833"><ele>39.0</ele><time>2026-04-19T08:31:56Z</time></trkpt><trkpt lat="44.64530912214934" lon="0.2541017530597375"><ele>39.666666666666664</ele><time>2026-04-19T08:31:57Z</time></trkpt><trkpt lat="44.64522346581849" lon="0.25433482478179226"><ele>40.33333333333333</ele><time>2026-04-19T08:31:58Z</time></trkpt><trkpt lat="44.64513932012305" lon="0.2545635009120082"><ele>41.0</ele><time>2026-04-19T08:31:59Z</time></trkpt><trkpt lat="44.64504963192272" lon="0.25479413142734003"><ele>41.0</ele><time>2026-04-19T08:32:00Z</time></trkpt><trkpt lat="44.644953468489426" lon="0.2550422815116253"><ele>41.0</ele><time>2026-04-19T08:32:01Z</time></trkpt><trkpt lat="44.64485426238437" lon="0.25530223444582606"><ele>41.0</ele><time>2026-04-19T08:32:02Z</time></trkpt><trkpt lat="44.644776006222294" lon="0.2555564856336137"><ele>41.666666666666664</ele><time>2026-04-19T08:32:03Z</time></trkpt><trkpt lat="44.64468479002492" lon="0.2558121651783385"><ele>42.333333333333336</ele><time>2026-04-19T08:32:04Z</time></trkpt><trkpt lat="44.64459110094545" lon="0.2560641404937839"><ele>43.0</ele><time>2026-04-19T08:32:05Z</time></trkpt><trkpt lat="44.644501552434704" lon="0.25632017449873856"><ele>43.0</ele><time>2026-04-19T08:32:06Z</time></trkpt><trkpt lat="44.64441033029169" lon="0.25657420195078706"><ele>43.0</ele><time>2026-04-19T08:32:07Z</time></trkpt><trkpt lat="44.644319474405414" lon="0.25683019609382945"><ele>43.0</ele><time>2026-04-19T08:32:08Z</time></trkpt><trkpt lat="44.64422829058154" lon="0.257092820926033"><ele>44.0</ele><time>2026-04-19T08:32:09Z</time></trkpt><trkpt lat="44.64413672238525" lon="0.2573533858331823"><ele>45.0</ele><time>2026-04-19T08:32:10Z</time></trkpt><trkpt lat="44.64404383714227" lon="0.2576059086192619"><ele>46.0</ele><time>2026-04-19T08:32:11Z</time></trkpt><trkpt lat="44.643950206365226" lon="0.25786386359124047"><ele>46.66666666666667</ele><time>2026-04-19T08:32:12Z</time></trkpt><trkpt lat="44.64385794659758" lon="0.2581189092373575"><ele>47.333333333333336</ele><time>2026-04-19T08:32:13Z</time></trkpt><trkpt lat="44.64375951880847" lon="0.2583862737265084"><ele>48.0</ele><time>2026-04-19T08:32:14Z</time></trkpt><trkpt lat="44.643660826062366" lon="0.2586468720984293"><ele>47.333333333333336</ele><time>2026-04-19T08:32:15Z</time></trkpt><trkpt lat="44.64357858656346" lon="0.2588978705788191"><ele>46.66666666666667</ele><time>2026-04-19T08:32:16Z</time></trkpt><trkpt lat="44.64347625060867" lon="0.2591305264390451"><ele>46.0</ele><time>2026-04-19T08:32:17Z</time></trkpt><trkpt lat="44.64339791232654" lon="0.2593948555341643"><ele>46.0</ele><time>2026-04-19T08:32:18Z</time></trkpt><trkpt lat="44.64330509591106" lon="0.25963781402513003"><ele>46.0</ele><time>2026-04-19T08:32:19Z</time></trkpt><trkpt lat="44.643212771459" lon="0.2598786999005511"><ele>46.0</ele><time>2026-04-19T08:32:20Z</time></trkpt><trkpt lat="44.643123346853244" lon="0.26011973533744037"><ele>46.0</ele><time>2026-04-19T08:32:21Z</time></trkpt><trkpt lat="44.643041134085564" lon="0.2603599521946123"><ele>46.0</ele><time>2026-04-19T08:32:22Z</time></trkpt><trkpt lat="44.642959082908746" lon="0.2605927809063132"><ele>46.0</ele><time>2026-04-19T08:32:23Z</time></trkpt><trkpt lat="44.64288473726955" lon="0.2608306861291614"><ele>46.0</ele><time>2026-04-19T08:32:24Z</time></trkpt><trkpt lat="44.6428078189802" lon="0.2610719442457143"><ele>46.0</ele><time>2026-04-19T08:32:25Z</time></trkpt><trkpt lat="44.64272889752312" lon="0.2613126759458377"><ele>46.0</ele><time>2026-04-19T08:32:26Z</time></trkpt><trkpt lat="44.642663213099404" lon="0.261556001962055"><ele>46.0</ele><time>2026-04-19T08:32:27Z</time></trkpt><trkpt lat="44.64259748184611" lon="0.26179685290153926"><ele>46.0</ele><time>2026-04-19T08:32:28Z</time></trkpt><trkpt lat="44.6425238984023" lon="0.26204242900628083"><ele>46.0</ele><time>2026-04-19T08:32:29Z</time></trkpt><trkpt lat="44.64244990724144" lon="0.26229421770809264"><ele>46.0</ele><time>2026-04-19T08:32:30Z</time></trkpt><trkpt lat="44.64237186963978" lon="0.2625520534716916"><ele>46.0</ele><time>2026-04-19T08:32:31Z</time></trkpt><trkpt lat="44.64229631857937" lon="0.2628129762485647"><ele>46.0</ele><time>2026-04-19T08:32:32Z</time></trkpt><trkpt lat="44.642222610788245" lon="0.2630813114480378"><ele>46.0</ele><time>2026-04-19T08:32:33Z</time></trkpt><trkpt lat="44.64215071748813" lon="0.263347285208442"><ele>46.0</ele><time>2026-04-19T08:32:34Z</time></trkpt><trkpt lat="44.6420706581548" lon="0.2636122830249239"><ele>46.0</ele><time>2026-04-19T08:32:35Z</time></trkpt><trkpt lat="44.641993427497944" lon="0.2638780185186462"><ele>44.66666666666667</ele><time>2026-04-19T08:32:36Z</time></trkpt><trkpt lat="44.64191486028697" lon="0.2641587510663118"><ele>43.333333333333336</ele><time>2026-04-19T08:32:37Z</time></trkpt><trkpt lat="44.64183466828704" lon="0.26443659173049455"><ele>42.0</ele><time>2026-04-19T08:32:38Z</time></trkpt><trkpt lat="44.6417529248227" lon="0.2647213337533003"><ele>42.333333333333336</ele><time>2026-04-19T08:32:39Z</time></trkpt><trkpt lat="44.64167585666431" lon="0.26499942589673464"><ele>42.66666666666667</ele><time>2026-04-19T08:32:40Z</time></trkpt><trkpt lat="44.64159810451974" lon="0.2652760325378987"><ele>43.0</ele><time>2026-04-19T08:32:41Z</time></trkpt><trkpt lat="44.641521765762164" lon="0.2655552668894804"><ele>42.66666666666667</ele><time>2026-04-19T08:32:42Z</time></trkpt><trkpt lat="44.64144162131795" lon="0.26583526471376273"><ele>42.333333333333336</ele><time>2026-04-19T08:32:43Z</time></trkpt><trkpt lat="44.64136471356328" lon="0.26611327956238795"><ele>42.0</ele><time>2026-04-19T08:32:44Z</time></trkpt><trkpt lat="44.64127985033216" lon="0.2663921883015048"><ele>42.333333333333336</ele><time>2026-04-19T08:32:45Z</time></trkpt><trkpt lat="44.64119958545038" lon="0.2666823903716533"><ele>42.66666666666667</ele><time>2026-04-19T08:32:46Z</time></trkpt><trkpt lat="44.6411213750099" lon="0.26695743313266457"><ele>43.0</ele><time>2026-04-19T08:32:47Z</time></trkpt><trkpt lat="44.64104270554439" lon="0.2672270740095621"><ele>42.0</ele><time>2026-04-19T08:32:48Z</time></trkpt><trkpt lat="44.64095397672729" lon="0.2675020555457688"><ele>41.0</ele><time>2026-04-19T08:32:49Z</time></trkpt><trkpt lat="44.64087783230751" lon="0.26777367670601726"><ele>40.0</ele><time>2026-04-19T08:32:50Z</time></trkpt><trkpt lat="44.6407998883565" lon="0.2680443393106919"><ele>41.0</ele><time>2026-04-19T08:32:51Z</time></trkpt><trkpt lat="44.640726002198654" lon="0.2683170218088069"><ele>42.0</ele><time>2026-04-19T08:32:52Z</time></trkpt><trkpt lat="44.640647887401194" lon="0.26859193032841444"><ele>43.0</ele><time>2026-04-19T08:32:53Z</time></trkpt><trkpt lat="44.64056713640248" lon="0.26886895518463005"><ele>43.66666666666667</ele><time>2026-04-19T08:32:54Z</time></trkpt><trkpt lat="44.64048696263256" lon="0.26914406832409427"><ele>44.333333333333336</ele><time>2026-04-19T08:32:55Z</time></trkpt><trkpt lat="44.64039291994625" lon="0.26940862192452053"><ele>45.0</ele><time>2026-04-19T08:32:55.999Z</time></trkpt><trkpt lat="44.6403284518127" lon="0.26968764996337885"><ele>44.333333333333336</ele><time>2026-04-19T08:32:56.999Z</time></trkpt><trkpt lat="44.640248401548575" lon="0.2699578579267367"><ele>43.66666666666667</ele><time>2026-04-19T08:32:58Z</time></trkpt><trkpt lat="44.640167505581545" lon="0.27022530750765594"><ele>43.0</ele><time>2026-04-19T08:32:59Z</time></trkpt><trkpt lat="44.64007945607246" lon="0.2704918769191582"><ele>42.66666666666667</ele><time>2026-04-19T08:33:00Z</time></trkpt><trkpt lat="44.64000463328615" lon="0.27075053921005227"><ele>42.333333333333336</ele><time>2026-04-19T08:33:01Z</time></trkpt><trkpt lat="44.639922780511235" lon="0.2710335080893194"><ele>42.0</ele><time>2026-04-19T08:33:02Z</time></trkpt><trkpt lat="44.639843417336714" lon="0.2713157775019529"><ele>43.0</ele><time>2026-04-19T08:33:03Z</time></trkpt><trkpt lat="44.6397634755062" lon="0.27158903015145125"><ele>44.0</ele><time>2026-04-19T08:33:04Z</time></trkpt><trkpt lat="44.63969277248566" lon="0.271857608488421"><ele>45.0</ele><time>2026-04-19T08:33:05Z</time></trkpt><trkpt lat="44.63961561916737" lon="0.27212205724682453"><ele>44.666666666666664</ele><time>2026-04-19T08:33:06Z</time></trkpt><trkpt lat="44.63954193792428" lon="0.272379906968337"><ele>44.33333333333333</ele><time>2026-04-19T08:33:07Z</time></trkpt><trkpt lat="44.63946759631773" lon="0.27263184761176257"><ele>44.0</ele><time>2026-04-19T08:33:08Z</time></trkpt><trkpt lat="44.639389689640545" lon="0.2728939367227515"><ele>45.0</ele><time>2026-04-19T08:33:09Z</time></trkpt><trkpt lat="44.639317147855444" lon="0.2731442467842218"><ele>46.0</ele><time>2026-04-19T08:33:10Z</time></trkpt><trkpt lat="44.63924996546492" lon="0.2734073556806544"><ele>47.0</ele><time>2026-04-19T08:33:11Z</time></trkpt><trkpt lat="44.63917591773529" lon="0.2736690052065029"><ele>47.0</ele><time>2026-04-19T08:33:12Z</time></trkpt><trkpt lat="44.639119567393244" lon="0.27393245912625264"><ele>47.0</ele><time>2026-04-19T08:33:13Z</time></trkpt><trkpt lat="44.63908078732793" lon="0.27420411213612406"><ele>47.0</ele><time>2026-04-19T08:33:14Z</time></trkpt><trkpt lat="44.63904611013714" lon="0.27447458837823535"><ele>47.666666666666664</ele><time>2026-04-19T08:33:15Z</time></trkpt><trkpt lat="44.6390098336162" lon="0.27474121767877185"><ele>48.33333333333333</ele><time>2026-04-19T08:33:16Z</time></trkpt><trkpt lat="44.63897890653995" lon="0.27501817880576357"><ele>49.0</ele><time>2026-04-19T08:33:17Z</time></trkpt><trkpt lat="44.63894641123334" lon="0.2752964120597787"><ele>49.33333333333333</ele><time>2026-04-19T08:33:18Z</time></trkpt><trkpt lat="44.63889253386006" lon="0.27557294036792157"><ele>49.66666666666667</ele><time>2026-04-19T08:33:19Z</time></trkpt><trkpt lat="44.6388295164826" lon="0.2758437692001032"><ele>50.0</ele><time>2026-04-19T08:33:20Z</time></trkpt><trkpt lat="44.63874655094519" lon="0.27610639013462424"><ele>51.333333333333336</ele><time>2026-04-19T08:33:21Z</time></trkpt><trkpt lat="44.63865285466025" lon="0.27636193858449487"><ele>52.66666666666667</ele><time>2026-04-19T08:33:22Z</time></trkpt><trkpt lat="44.63854944832664" lon="0.2766148313860931"><ele>54.0</ele><time>2026-04-19T08:33:23Z</time></trkpt><trkpt lat="44.638434909133494" lon="0.2768690591788742"><ele>51.0</ele><time>2026-04-19T08:33:24Z</time></trkpt><trkpt lat="44.63834278905294" lon="0.27712823558842326"><ele>48.0</ele><time>2026-04-19T08:33:25Z</time></trkpt><trkpt lat="44.6382526928143" lon="0.277384525033349"><ele>45.0</ele><time>2026-04-19T08:33:26Z</time></trkpt><trkpt lat="44.6381768668864" lon="0.27765431848619443"><ele>45.0</ele><time>2026-04-19T08:33:27Z</time></trkpt><trkpt lat="44.63808889836757" lon="0.27793444462672817"><ele>45.0</ele><time>2026-04-19T08:33:28Z</time></trkpt><trkpt lat="44.63800768000473" lon="0.27821397949577803"><ele>45.0</ele><time>2026-04-19T08:33:29Z</time></trkpt><trkpt lat="44.63793223738077" lon="0.2784896679249189"><ele>44.666666666666664</ele><time>2026-04-19T08:33:30Z</time></trkpt><trkpt lat="44.63785431139088" lon="0.27877368343310094"><ele>44.33333333333333</ele><time>2026-04-19T08:33:31Z</time></trkpt><trkpt lat="44.637778538798344" lon="0.2790342053712545"><ele>44.0</ele><time>2026-04-19T08:33:32Z</time></trkpt><trkpt lat="44.63769511509301" lon="0.2792854306752096"><ele>44.0</ele><time>2026-04-19T08:33:33Z</time></trkpt><trkpt lat="44.63760820180725" lon="0.2795478603566517"><ele>44.0</ele><time>2026-04-19T08:33:34Z</time></trkpt><trkpt lat="44.63752627830416" lon="0.27981122427823246"><ele>44.0</ele><time>2026-04-19T08:33:35Z</time></trkpt><trkpt lat="44.63745711531959" lon="0.28007162678372993"><ele>44.0</ele><time>2026-04-19T08:33:36Z</time></trkpt><trkpt lat="44.63738956096753" lon="0.2803399020802164"><ele>44.0</ele><time>2026-04-19T08:33:37Z</time></trkpt><trkpt lat="44.63730821163152" lon="0.2805928528120108"><ele>44.0</ele><time>2026-04-19T08:33:38Z</time></trkpt><trkpt lat="44.63722595643766" lon="0.28084731183200407"><ele>45.33333333333333</ele><time>2026-04-19T08:33:39Z</time></trkpt><trkpt lat="44.637150199527184" lon="0.2811048079335095"><ele>46.666666666666664</ele><time>2026-04-19T08:33:40Z</time></trkpt><trkpt lat="44.63706757774507" lon="0.28136186682599257"><ele>48.0</ele><time>2026-04-19T08:33:41Z</time></trkpt><trkpt lat="44.63699300008607" lon="0.2816217950538426"><ele>47.333333333333336</ele><time>2026-04-19T08:33:42Z</time></trkpt><trkpt lat="44.636911509942514" lon="0.28188774634742353"><ele>46.66666666666667</ele><time>2026-04-19T08:33:43Z</time></trkpt><trkpt lat="44.636823951309154" lon="0.2821642440356517"><ele>46.0</ele><time>2026-04-19T08:33:44Z</time></trkpt><trkpt lat="44.63674575808176" lon="0.28244587186670334"><ele>46.0</ele><time>2026-04-19T08:33:45Z</time></trkpt><trkpt lat="44.636658823923256" lon="0.28272247170049686"><ele>46.0</ele><time>2026-04-19T08:33:46Z</time></trkpt><trkpt lat="44.636579753021664" lon="0.2830009035773677"><ele>46.0</ele><time>2026-04-19T08:33:47Z</time></trkpt><trkpt lat="44.63649158903128" lon="0.28327253967534677"><ele>47.333333333333336</ele><time>2026-04-19T08:33:48Z</time></trkpt><trkpt lat="44.63640672901717" lon="0.2835444748513086"><ele>48.66666666666667</ele><time>2026-04-19T08:33:49Z</time></trkpt><trkpt lat="44.636318315621736" lon="0.2838220204538381"><ele>50.0</ele><time>2026-04-19T08:33:50Z</time></trkpt><trkpt lat="44.63623153824395" lon="0.28408541165639867"><ele>49.66666666666667</ele><time>2026-04-19T08:33:50.999Z</time></trkpt><trkpt lat="44.636154216809366" lon="0.2843584231692955"><ele>49.33333333333333</ele><time>2026-04-19T08:33:51.999Z</time></trkpt><trkpt lat="44.63607925376893" lon="0.284621622319458"><ele>49.0</ele><time>2026-04-19T08:33:52.999Z</time></trkpt><trkpt lat="44.636000331153504" lon="0.28487680087543454"><ele>49.666666666666664</ele><time>2026-04-19T08:33:53.999Z</time></trkpt><trkpt lat="44.635920334033415" lon="0.2851370089705917"><ele>50.33333333333333</ele><time>2026-04-19T08:33:54.999Z</time></trkpt><trkpt lat="44.63584764082824" lon="0.2853974070505516"><ele>51.0</ele><time>2026-04-19T08:33:55.999Z</time></trkpt><trkpt lat="44.635781297460085" lon="0.2856466868702745"><ele>52.66666666666667</ele><time>2026-04-19T08:33:56.999Z</time></trkpt><trkpt lat="44.635709058621025" lon="0.28589866229569166"><ele>54.333333333333336</ele><time>2026-04-19T08:33:57.999Z</time></trkpt><trkpt lat="44.63563960578739" lon="0.286130430839625"><ele>56.0</ele><time>2026-04-19T08:33:58.999Z</time></trkpt><trkpt lat="44.63556024854386" lon="0.2863687968653955"><ele>56.66666666666667</ele><time>2026-04-19T08:33:59.999Z</time></trkpt><trkpt lat="44.635495904413304" lon="0.28659521167562396"><ele>57.33333333333333</ele><time>2026-04-19T08:34:00.999Z</time></trkpt><trkpt lat="44.63542547239052" lon="0.28680961181786024"><ele>58.0</ele><time>2026-04-19T08:34:01.999Z</time></trkpt><trkpt lat="44.63537279572324" lon="0.28701039595814376"><ele>58.0</ele><time>2026-04-19T08:34:02.999Z</time></trkpt><trkpt lat="44.63531271891188" lon="0.2872126852183003"><ele>58.0</ele><time>2026-04-19T08:34:03.999Z</time></trkpt><trkpt lat="44.635257194013285" lon="0.28740883493263863"><ele>58.0</ele><time>2026-04-19T08:34:04.999Z</time></trkpt><trkpt lat="44.63519698645967" lon="0.28760271030698803"><ele>57.5</ele><time>2026-04-19T08:34:05.999Z</time></trkpt><trkpt lat="44.63513898727632" lon="0.28780326012934576"><ele>57.0</ele><time>2026-04-19T08:34:06.999Z</time></trkpt><trkpt lat="44.63510161413844" lon="0.28799887519518536"><ele>56.5</ele><time>2026-04-19T08:34:07.999Z</time></trkpt><trkpt lat="44.6350697686459" lon="0.2881990886016206"><ele>56.0</ele><time>2026-04-19T08:34:08.999Z</time></trkpt><trkpt lat="44.635046539165145" lon="0.28840671640978277"><ele>56.0</ele><time>2026-04-19T08:34:09.999Z</time></trkpt><trkpt lat="44.63502461981606" lon="0.28861554815445334"><ele>56.0</ele><time>2026-04-19T08:34:10.999Z</time></trkpt><trkpt lat="44.63501302139531" lon="0.2888248697612429"><ele>56.0</ele><time>2026-04-19T08:34:11.999Z</time></trkpt><trkpt lat="44.634989938488935" lon="0.28904656572338583"><ele>56.0</ele><time>2026-04-19T08:34:12.999Z</time></trkpt><trkpt lat="44.634969861279025" lon="0.2892712063524737"><ele>56.0</ele><time>2026-04-19T08:34:13.999Z</time></trkpt><trkpt lat="44.6349519712898" lon="0.2894839339676904"><ele>56.0</ele><time>2026-04-19T08:34:14.999Z</time></trkpt><trkpt lat="44.63493150991184" lon="0.28969063358224156"><ele>55.75</ele><time>2026-04-19T08:34:15.999Z</time></trkpt><trkpt lat="44.63491269044959" lon="0.2898870011052087"><ele>55.5</ele><time>2026-04-19T08:34:16.999Z</time></trkpt><trkpt lat="44.6349013107022" lon="0.290067366500351"><ele>55.25</ele><time>2026-04-19T08:34:17.999Z</time></trkpt><trkpt lat="44.63488880034563" lon="0.29023349687701816"><ele>55.0</ele><time>2026-04-19T08:34:18.999Z</time></trkpt><trkpt lat="44.63488065194624" lon="0.29039347519739206"><ele>55.0</ele><time>2026-04-19T08:34:19.999Z</time></trkpt><trkpt lat="44.63485342781331" lon="0.290539052354428"><ele>55.0</ele><time>2026-04-19T08:34:20.999Z</time></trkpt><trkpt lat="44.634841448096985" lon="0.2906750250847645"><ele>55.0</ele><time>2026-04-19T08:34:21.999Z</time></trkpt><trkpt lat="44.63482996746252" lon="0.29080418221403354"><ele>55.0</ele><time>2026-04-19T08:34:22.999Z</time></trkpt><trkpt lat="44.63481816119629" lon="0.29093700272407796"><ele>55.0</ele><time>2026-04-19T08:34:23.999Z</time></trkpt><trkpt lat="44.63480482240283" lon="0.2910823307151069"><ele>54.8</ele><time>2026-04-19T08:34:24.999Z</time></trkpt><trkpt lat="44.63479194214375" lon="0.29121884164998646"><ele>54.6</ele><time>2026-04-19T08:34:25.999Z</time></trkpt><trkpt lat="44.63477790919595" lon="0.2913675693712546"><ele>54.400000000000006</ele><time>2026-04-19T08:34:26.999Z</time></trkpt><trkpt lat="44.634775874495794" lon="0.2915153683042426"><ele>54.2</ele><time>2026-04-19T08:34:27.999Z</time></trkpt><trkpt lat="44.6347512811822" lon="0.29165748167417005"><ele>54.0</ele><time>2026-04-19T08:34:28.999Z</time></trkpt><trkpt lat="44.63474078423926" lon="0.2918182406661551"><ele>53.5</ele><time>2026-04-19T08:34:29.999Z</time></trkpt><trkpt lat="44.6347321120902" lon="0.29199222231321553"><ele>53.0</ele><time>2026-04-19T08:34:30.999Z</time></trkpt><trkpt lat="44.63468723597663" lon="0.2921878580303224"><ele>52.5</ele><time>2026-04-19T08:34:31.999Z</time></trkpt><trkpt lat="44.63467965536036" lon="0.29237085412422736"><ele>52.0</ele><time>2026-04-19T08:34:32.999Z</time></trkpt><trkpt lat="44.63466807973236" lon="0.2925355284011493"><ele>51.75</ele><time>2026-04-19T08:34:33.999Z</time></trkpt><trkpt lat="44.63465378206526" lon="0.2926947238919755"><ele>51.5</ele><time>2026-04-19T08:34:34.999Z</time></trkpt><trkpt lat="44.63464627907995" lon="0.2928575372574751"><ele>51.25</ele><time>2026-04-19T08:34:35.999Z</time></trkpt><trkpt lat="44.63464057175725" lon="0.2930225852299031"><ele>51.0</ele><time>2026-04-19T08:34:36.999Z</time></trkpt><trkpt lat="44.63464951176656" lon="0.2931919578557998"><ele>50.5</ele><time>2026-04-19T08:34:37.999Z</time></trkpt><trkpt lat="44.63466429587588" lon="0.2933658909081888"><ele>50.0</ele><time>2026-04-19T08:34:38.999Z</time></trkpt><trkpt lat="44.63468341249472" lon="0.29353056539671835"><ele>49.5</ele><time>2026-04-19T08:34:39.999Z</time></trkpt><trkpt lat="44.634693448184485" lon="0.2937138118513259"><ele>49.0</ele><time>2026-04-19T08:34:40.999Z</time></trkpt><trkpt lat="44.634703137692085" lon="0.2939137431932341"><ele>49.0</ele><time>2026-04-19T08:34:41.999Z</time></trkpt><trkpt lat="44.63470900005411" lon="0.2941210703198973"><ele>49.0</ele><time>2026-04-19T08:34:42.999Z</time></trkpt><trkpt lat="44.63472646432481" lon="0.29432341382911553"><ele>49.0</ele><time>2026-04-19T08:34:43.999Z</time></trkpt><trkpt lat="44.634758308316144" lon="0.29452524836478655"><ele>49.0</ele><time>2026-04-19T08:34:44.999Z</time></trkpt><trkpt lat="44.63479532714298" lon="0.2947440901732996"><ele>49.0</ele><time>2026-04-19T08:34:45.999Z</time></trkpt><trkpt lat="44.634840680692314" lon="0.29498233312730343"><ele>49.0</ele><time>2026-04-19T08:34:46.999Z</time></trkpt><trkpt lat="44.634885920746584" lon="0.295224221299477"><ele>49.0</ele><time>2026-04-19T08:34:47.999Z</time></trkpt><trkpt lat="44.634935067243454" lon="0.2954560789733741"><ele>49.33333333333333</ele><time>2026-04-19T08:34:48.999Z</time></trkpt><trkpt lat="44.635002209057895" lon="0.29569040813566405"><ele>49.66666666666667</ele><time>2026-04-19T08:34:49.999Z</time></trkpt><trkpt lat="44.63507616858946" lon="0.29592114788427026"><ele>50.0</ele><time>2026-04-19T08:34:50.999Z</time></trkpt><trkpt lat="44.63516458403647" lon="0.2961636594174085"><ele>50.0</ele><time>2026-04-19T08:34:51.999Z</time></trkpt><trkpt lat="44.635245735048265" lon="0.29639241194436083"><ele>50.0</ele><time>2026-04-19T08:34:52.999Z</time></trkpt><trkpt lat="44.6353461152744" lon="0.2966183434036459"><ele>50.0</ele><time>2026-04-19T08:34:53.999Z</time></trkpt><trkpt lat="44.635437051421086" lon="0.296844851248229"><ele>50.66666666666667</ele><time>2026-04-19T08:34:54.999Z</time></trkpt><trkpt lat="44.63552571476642" lon="0.2970763370533248"><ele>51.33333333333333</ele><time>2026-04-19T08:34:55.999Z</time></trkpt><trkpt lat="44.63560961655302" lon="0.29729791602954414"><ele>52.0</ele><time>2026-04-19T08:34:56.999Z</time></trkpt><trkpt lat="44.635695831954514" lon="0.2975206165412678"><ele>52.0</ele><time>2026-04-19T08:34:58Z</time></trkpt><trkpt lat="44.63577432775998" lon="0.2977294108920004"><ele>52.0</ele><time>2026-04-19T08:34:59Z</time></trkpt><trkpt lat="44.63585571647553" lon="0.29792337501395977"><ele>52.0</ele><time>2026-04-19T08:35:00Z</time></trkpt><trkpt lat="44.6359188426039" lon="0.29811957609884826"><ele>52.0</ele><time>2026-04-19T08:35:00.999Z</time></trkpt><trkpt lat="44.63597478666864" lon="0.2983196053099285"><ele>52.0</ele><time>2026-04-19T08:35:01.999Z</time></trkpt><trkpt lat="44.63598305881836" lon="0.2985380838123975"><ele>52.0</ele><time>2026-04-19T08:35:02.999Z</time></trkpt><trkpt lat="44.63599118039227" lon="0.29874792198587213"><ele>51.666666666666664</ele><time>2026-04-19T08:35:03.999Z</time></trkpt><trkpt lat="44.63596194082044" lon="0.2989694687916746"><ele>51.33333333333333</ele><time>2026-04-19T08:35:04.999Z</time></trkpt><trkpt lat="44.63593083884421" lon="0.2991854423776415"><ele>51.0</ele><time>2026-04-19T08:35:05.999Z</time></trkpt><trkpt lat="44.63590073424338" lon="0.2993970348564549"><ele>51.0</ele><time>2026-04-19T08:35:06.999Z</time></trkpt><trkpt lat="44.6358715772479" lon="0.29959522439988745"><ele>51.0</ele><time>2026-04-19T08:35:08Z</time></trkpt><trkpt lat="44.635847830329645" lon="0.2997857347218362"><ele>51.0</ele><time>2026-04-19T08:35:09Z</time></trkpt><trkpt lat="44.63583647548462" lon="0.299968476968978"><ele>51.0</ele><time>2026-04-19T08:35:10Z</time></trkpt><trkpt lat="44.6358359920033" lon="0.3001362185778374"><ele>50.75</ele><time>2026-04-19T08:35:11Z</time></trkpt><trkpt lat="44.63582642243252" lon="0.3003086343129686"><ele>50.5</ele><time>2026-04-19T08:35:12Z</time></trkpt><trkpt lat="44.63583486140084" lon="0.3004620336143403"><ele>50.25</ele><time>2026-04-19T08:35:13Z</time></trkpt><trkpt lat="44.63582202634543" lon="0.300617805253663"><ele>50.0</ele><time>2026-04-19T08:35:14Z</time></trkpt><trkpt lat="44.63581725662558" lon="0.30076626480451657"><ele>49.8</ele><time>2026-04-19T08:35:15Z</time></trkpt><trkpt lat="44.63581281625679" lon="0.30090447324748887"><ele>49.6</ele><time>2026-04-19T08:35:16Z</time></trkpt><trkpt lat="44.635802590258066" lon="0.3010541531714333"><ele>49.400000000000006</ele><time>2026-04-19T08:35:17Z</time></trkpt><trkpt lat="44.63579454246055" lon="0.3012100696357205"><ele>49.2</ele><time>2026-04-19T08:35:18Z</time></trkpt><trkpt lat="44.635789547133534" lon="0.3013838355751202"><ele>49.0</ele><time>2026-04-19T08:35:19Z</time></trkpt><trkpt lat="44.6357827543426" lon="0.30154055224721066"><ele>48.75</ele><time>2026-04-19T08:35:20Z</time></trkpt><trkpt lat="44.63577874785833" lon="0.3017135749541231"><ele>48.5</ele><time>2026-04-19T08:35:21Z</time></trkpt><trkpt lat="44.63577554966167" lon="0.3019032057016782"><ele>48.25</ele><time>2026-04-19T08:35:22Z</time></trkpt><trkpt lat="44.63576439299236" lon="0.30211755939405116"><ele>48.0</ele><time>2026-04-19T08:35:23Z</time></trkpt><trkpt lat="44.63576113644511" lon="0.3023298003099133"><ele>47.333333333333336</ele><time>2026-04-19T08:35:24Z</time></trkpt><trkpt lat="44.63575668507002" lon="0.3025361597036092"><ele>46.66666666666667</ele><time>2026-04-19T08:35:25Z</time></trkpt><trkpt lat="44.63575621088178" lon="0.30274998357934374"><ele>46.0</ele><time>2026-04-19T08:35:26Z</time></trkpt><trkpt lat="44.635752498484294" lon="0.302963130888724"><ele>45.0</ele><time>2026-04-19T08:35:27Z</time></trkpt><trkpt lat="44.635747435129076" lon="0.3031789974796092"><ele>44.0</ele><time>2026-04-19T08:35:28Z</time></trkpt><trkpt lat="44.635748035442596" lon="0.30341355945031767"><ele>43.0</ele><time>2026-04-19T08:35:29Z</time></trkpt><trkpt lat="44.6357449339433" lon="0.3036754509553891"><ele>43.333333333333336</ele><time>2026-04-19T08:35:30Z</time></trkpt><trkpt lat="44.63573601039695" lon="0.303946102635559"><ele>43.666666666666664</ele><time>2026-04-19T08:35:31Z</time></trkpt><trkpt lat="44.63572779145118" lon="0.3042264349844439"><ele>44.0</ele><time>2026-04-19T08:35:32Z</time></trkpt><trkpt lat="44.63571091949304" lon="0.3045224902758809"><ele>43.666666666666664</ele><time>2026-04-19T08:35:33Z</time></trkpt><trkpt lat="44.63570227810706" lon="0.3048065741265675"><ele>43.333333333333336</ele><time>2026-04-19T08:35:34Z</time></trkpt><trkpt lat="44.6356922462443" lon="0.30509112642046443"><ele>43.0</ele><time>2026-04-19T08:35:35Z</time></trkpt><trkpt lat="44.6356860802282" lon="0.30536871833626195"><ele>42.66666666666667</ele><time>2026-04-19T08:35:36Z</time></trkpt><trkpt lat="44.63568141678111" lon="0.30564793564090453"><ele>42.333333333333336</ele><time>2026-04-19T08:35:37Z</time></trkpt><trkpt lat="44.63565184520669" lon="0.30594219096129305"><ele>42.0</ele><time>2026-04-19T08:35:38Z</time></trkpt><trkpt lat="44.63564263632379" lon="0.30622721595801733"><ele>42.0</ele><time>2026-04-19T08:35:39Z</time></trkpt><trkpt lat="44.635642742976806" lon="0.3065157003939779"><ele>42.0</ele><time>2026-04-19T08:35:40Z</time></trkpt><trkpt lat="44.6356482533501" lon="0.30680961253619476"><ele>42.0</ele><time>2026-04-19T08:35:41Z</time></trkpt><trkpt lat="44.63566756153352" lon="0.3070883074614858"><ele>41.666666666666664</ele><time>2026-04-19T08:35:42Z</time></trkpt><trkpt lat="44.63568691600323" lon="0.3073761260518546"><ele>41.33333333333333</ele><time>2026-04-19T08:35:43Z</time></trkpt><trkpt lat="44.63570118316213" lon="0.30766266016765054"><ele>41.0</ele><time>2026-04-19T08:35:44Z</time></trkpt><trkpt lat="44.63572018322881" lon="0.3079424486502341"><ele>41.0</ele><time>2026-04-19T08:35:45Z</time></trkpt><trkpt lat="44.635739151189924" lon="0.30822166345965024"><ele>41.0</ele><time>2026-04-19T08:35:46Z</time></trkpt><trkpt lat="44.635754867248906" lon="0.3085058647227192"><ele>41.0</ele><time>2026-04-19T08:35:47Z</time></trkpt><trkpt lat="44.63576917448836" lon="0.3087859127097868"><ele>41.666666666666664</ele><time>2026-04-19T08:35:48Z</time></trkpt><trkpt lat="44.63578875684693" lon="0.3090659712946852"><ele>42.333333333333336</ele><time>2026-04-19T08:35:49Z</time></trkpt><trkpt lat="44.635816941240165" lon="0.30933960725384124"><ele>43.0</ele><time>2026-04-19T08:35:50Z</time></trkpt><trkpt lat="44.63584543876511" lon="0.30961396869141344"><ele>43.333333333333336</ele><time>2026-04-19T08:35:51Z</time></trkpt><trkpt lat="44.63587258182045" lon="0.3098851726681711"><ele>43.666666666666664</ele><time>2026-04-19T08:35:52Z</time></trkpt><trkpt lat="44.63590742522703" lon="0.31016010302545793"><ele>44.0</ele><time>2026-04-19T08:35:53Z</time></trkpt><trkpt lat="44.6359407950467" lon="0.31042478901751946"><ele>43.666666666666664</ele><time>2026-04-19T08:35:54Z</time></trkpt><trkpt lat="44.635972570516934" lon="0.31070301552035945"><ele>43.333333333333336</ele><time>2026-04-19T08:35:55Z</time></trkpt><trkpt lat="44.6360153101985" lon="0.31096528533572726"><ele>43.0</ele><time>2026-04-19T08:35:56Z</time></trkpt><trkpt lat="44.6360531892302" lon="0.3112311278921472"><ele>43.0</ele><time>2026-04-19T08:35:57Z</time></trkpt><trkpt lat="44.63609247859942" lon="0.31150458762902994"><ele>43.0</ele><time>2026-04-19T08:35:58Z</time></trkpt><trkpt lat="44.6361291015404" lon="0.31177398062102185"><ele>43.0</ele><time>2026-04-19T08:35:59Z</time></trkpt><trkpt lat="44.63617062912389" lon="0.3120406210413957"><ele>43.0</ele><time>2026-04-19T08:36:00Z</time></trkpt><trkpt lat="44.63620975748953" lon="0.31230695286791854"><ele>43.0</ele><time>2026-04-19T08:36:01Z</time></trkpt><trkpt lat="44.63624490808998" lon="0.31257031370349486"><ele>43.0</ele><time>2026-04-19T08:36:02Z</time></trkpt><trkpt lat="44.63628529735452" lon="0.3128355217128837"><ele>43.66666666666667</ele><time>2026-04-19T08:36:03Z</time></trkpt><trkpt lat="44.63632757440585" lon="0.3131012131566795"><ele>44.333333333333336</ele><time>2026-04-19T08:36:04Z</time></trkpt><trkpt lat="44.636361458934125" lon="0.3133567651932515"><ele>45.0</ele><time>2026-04-19T08:36:05Z</time></trkpt><trkpt lat="44.63640245477702" lon="0.31362105872887225"><ele>45.0</ele><time>2026-04-19T08:36:06Z</time></trkpt><trkpt lat="44.63643559071112" lon="0.31388673231313485"><ele>45.0</ele><time>2026-04-19T08:36:07Z</time></trkpt><trkpt lat="44.63647127537365" lon="0.3141526495376897"><ele>45.0</ele><time>2026-04-19T08:36:08Z</time></trkpt><trkpt lat="44.63651311343119" lon="0.31441196324838366"><ele>45.0</ele><time>2026-04-19T08:36:09Z</time></trkpt><trkpt lat="44.6365495665151" lon="0.31467657688598283"><ele>45.0</ele><time>2026-04-19T08:36:10Z</time></trkpt><trkpt lat="44.63658658712592" lon="0.31492985531510903"><ele>45.0</ele><time>2026-04-19T08:36:11Z</time></trkpt><trkpt lat="44.636629813833174" lon="0.3151746463033346"><ele>45.0</ele><time>2026-04-19T08:36:12Z</time></trkpt><trkpt lat="44.63666190244651" lon="0.31542824065287745"><ele>45.0</ele><time>2026-04-19T08:36:13Z</time></trkpt><trkpt lat="44.63670482745298" lon="0.3156901080112579"><ele>45.0</ele><time>2026-04-19T08:36:14Z</time></trkpt><trkpt lat="44.63673381744211" lon="0.31593159876963894"><ele>45.666666666666664</ele><time>2026-04-19T08:36:15Z</time></trkpt><trkpt lat="44.636772010098014" lon="0.3161814964488779"><ele>46.33333333333333</ele><time>2026-04-19T08:36:16Z</time></trkpt><trkpt lat="44.63680943418925" lon="0.3164289787063982"><ele>47.0</ele><time>2026-04-19T08:36:17Z</time></trkpt><trkpt lat="44.63684803196919" lon="0.3166743920127751"><ele>46.666666666666664</ele><time>2026-04-19T08:36:18Z</time></trkpt><trkpt lat="44.636881625279095" lon="0.3169178385385786"><ele>46.333333333333336</ele><time>2026-04-19T08:36:19Z</time></trkpt><trkpt lat="44.63691686417589" lon="0.31717762867010685"><ele>46.0</ele><time>2026-04-19T08:36:20Z</time></trkpt><trkpt lat="44.636954568642615" lon="0.3174241839397835"><ele>47.0</ele><time>2026-04-19T08:36:21Z</time></trkpt><trkpt lat="44.63699182628534" lon="0.3176773977716443"><ele>48.0</ele><time>2026-04-19T08:36:22Z</time></trkpt><trkpt lat="44.637014452258555" lon="0.31793740656464153"><ele>49.0</ele><time>2026-04-19T08:36:23Z</time></trkpt><trkpt lat="44.63705215763294" lon="0.3182008700193227"><ele>49.0</ele><time>2026-04-19T08:36:24Z</time></trkpt><trkpt lat="44.63710884407051" lon="0.3184636568685393"><ele>49.0</ele><time>2026-04-19T08:36:25Z</time></trkpt><trkpt lat="44.63715636649546" lon="0.31874226135263206"><ele>49.0</ele><time>2026-04-19T08:36:26Z</time></trkpt><trkpt lat="44.63721570391908" lon="0.3190259308481131"><ele>49.33333333333333</ele><time>2026-04-19T08:36:27Z</time></trkpt><trkpt lat="44.63729007653656" lon="0.3193107893871377"><ele>49.66666666666667</ele><time>2026-04-19T08:36:28Z</time></trkpt><trkpt lat="44.63737590233587" lon="0.31958289301567594"><ele>50.0</ele><time>2026-04-19T08:36:29Z</time></trkpt><trkpt lat="44.637467402760855" lon="0.319854188791055"><ele>50.0</ele><time>2026-04-19T08:36:30Z</time></trkpt><trkpt lat="44.637576835961866" lon="0.32011747688915093"><ele>50.0</ele><time>2026-04-19T08:36:31Z</time></trkpt><trkpt lat="44.63769275148787" lon="0.32036385544142276"><ele>50.0</ele><time>2026-04-19T08:36:32Z</time></trkpt><trkpt lat="44.63782803169742" lon="0.32060494454239064"><ele>50.0</ele><time>2026-04-19T08:36:33Z</time></trkpt><trkpt lat="44.63796724299858" lon="0.32084243576987814"><ele>50.0</ele><time>2026-04-19T08:36:34Z</time></trkpt><trkpt lat="44.63810956485668" lon="0.32106679429648116"><ele>50.0</ele><time>2026-04-19T08:36:35Z</time></trkpt><trkpt lat="44.63826579931887" lon="0.3212812063872785"><ele>49.0</ele><time>2026-04-19T08:36:36Z</time></trkpt><trkpt lat="44.63843695418653" lon="0.3214780200982822"><ele>48.0</ele><time>2026-04-19T08:36:37Z</time></trkpt><trkpt lat="44.63861763076064" lon="0.32167495604969915"><ele>48.0</ele><time>2026-04-19T08:36:38Z</time></trkpt><trkpt lat="44.63880723497116" lon="0.3218546881840336"><ele>48.0</ele><time>2026-04-19T08:36:39Z</time></trkpt><trkpt lat="44.63901373822627" lon="0.3220252646909931"><ele>48.0</ele><time>2026-04-19T08:36:40Z</time></trkpt><trkpt lat="44.63922376894131" lon="0.3222079507255983"><ele>48.0</ele><time>2026-04-19T08:36:41Z</time></trkpt><trkpt lat="44.63943837464829" lon="0.3223688028009995"><ele>48.0</ele><time>2026-04-19T08:36:42Z</time></trkpt><trkpt lat="44.63964317083765" lon="0.32256425735177613"><ele>48.0</ele><time>2026-04-19T08:36:43Z</time></trkpt><trkpt lat="44.63984783847871" lon="0.3227225371582596"><ele>48.0</ele><time>2026-04-19T08:36:44Z</time></trkpt><trkpt lat="44.64004687349088" lon="0.3228923638503274"><ele>48.0</ele><time>2026-04-19T08:36:45Z</time></trkpt><trkpt lat="44.640246617265824" lon="0.32305576307474865"><ele>48.0</ele><time>2026-04-19T08:36:46Z</time></trkpt><trkpt lat="44.64044746595182" lon="0.3232263006367204"><ele>48.0</ele><time>2026-04-19T08:36:47Z</time></trkpt><trkpt lat="44.64064082133706" lon="0.32339416962515244"><ele>48.0</ele><time>2026-04-19T08:36:48Z</time></trkpt><trkpt lat="44.64083141585922" lon="0.3235530431992703"><ele>48.0</ele><time>2026-04-19T08:36:49Z</time></trkpt><trkpt lat="44.641009320951675" lon="0.32370847653350926"><ele>48.0</ele><time>2026-04-19T08:36:50Z</time></trkpt><trkpt lat="44.64119438997376" lon="0.32387162337097497"><ele>47.666666666666664</ele><time>2026-04-19T08:36:51Z</time></trkpt><trkpt lat="44.6413767480361" lon="0.32402237531083905"><ele>47.33333333333333</ele><time>2026-04-19T08:36:52Z</time></trkpt><trkpt lat="44.64154514884844" lon="0.3241778377796465"><ele>47.0</ele><time>2026-04-19T08:36:53Z</time></trkpt><trkpt lat="44.64171528129424" lon="0.3243390058511066"><ele>47.0</ele><time>2026-04-19T08:36:54Z</time></trkpt><trkpt lat="44.64189079345589" lon="0.32448812278394845"><ele>47.0</ele><time>2026-04-19T08:36:55Z</time></trkpt><trkpt lat="44.64205031969566" lon="0.3246539752481183"><ele>47.0</ele><time>2026-04-19T08:36:56Z</time></trkpt><trkpt lat="44.64221895340516" lon="0.32483415592861453"><ele>46.666666666666664</ele><time>2026-04-19T08:36:57Z</time></trkpt><trkpt lat="44.64236961578061" lon="0.32502727249045216"><ele>46.333333333333336</ele><time>2026-04-19T08:36:58Z</time></trkpt><trkpt lat="44.64250866651702" lon="0.3252605367486119"><ele>46.0</ele><time>2026-04-19T08:36:59Z</time></trkpt><trkpt lat="44.64264009160838" lon="0.3254898188433474"><ele>45.66666666666667</ele><time>2026-04-19T08:37:00Z</time></trkpt><trkpt lat="44.64276320437897" lon="0.32573676644367167"><ele>45.333333333333336</ele><time>2026-04-19T08:37:00.999Z</time></trkpt><trkpt lat="44.64288153338747" lon="0.3259998741965626"><ele>45.0</ele><time>2026-04-19T08:37:01.998Z</time></trkpt><trkpt lat="44.642989491830775" lon="0.32626521945566583"><ele>45.0</ele><time>2026-04-19T08:37:02.998Z</time></trkpt><trkpt lat="44.64309819342748" lon="0.32655346496328014"><ele>45.0</ele><time>2026-04-19T08:37:03.999Z</time></trkpt><trkpt lat="44.64321129393583" lon="0.32684527114432427"><ele>45.0</ele><time>2026-04-19T08:37:04.999Z</time></trkpt><trkpt lat="44.64332365520789" lon="0.3271541808474012"><ele>45.0</ele><time>2026-04-19T08:37:05.999Z</time></trkpt><trkpt lat="44.6434311952021" lon="0.32743757095853426"><ele>45.0</ele><time>2026-04-19T08:37:06.999Z</time></trkpt><trkpt lat="44.64353092330885" lon="0.32770731372026374"><ele>45.0</ele><time>2026-04-19T08:37:07.998Z</time></trkpt><trkpt lat="44.64362481339319" lon="0.3279608136676118"><ele>45.0</ele><time>2026-04-19T08:37:08.998Z</time></trkpt><trkpt lat="44.64371554292234" lon="0.32820638389063617"><ele>45.0</ele><time>2026-04-19T08:37:09.999Z</time></trkpt><trkpt lat="44.64380627210684" lon="0.3284492628282128"><ele>45.0</ele><time>2026-04-19T08:37:10.999Z</time></trkpt><trkpt lat="44.64389339081906" lon="0.32869125751016554"><ele>45.0</ele><time>2026-04-19T08:37:11.999Z</time></trkpt><trkpt lat="44.64397325235898" lon="0.3289052431260519"><ele>45.0</ele><time>2026-04-19T08:37:12.998Z</time></trkpt><trkpt lat="44.6440525197718" lon="0.3291299161281326"><ele>45.0</ele><time>2026-04-19T08:37:13.999Z</time></trkpt><trkpt lat="44.6441308717533" lon="0.3293464305393957"><ele>45.0</ele><time>2026-04-19T08:37:14.999Z</time></trkpt><trkpt lat="44.6442123752419" lon="0.3295593914818082"><ele>45.333333333333336</ele><time>2026-04-19T08:37:15.999Z</time></trkpt><trkpt lat="44.64428939508531" lon="0.3297737174856576"><ele>45.66666666666667</ele><time>2026-04-19T08:37:16.999Z</time></trkpt><trkpt lat="44.6443689254671" lon="0.3299771567134469"><ele>46.0</ele><time>2026-04-19T08:37:17.999Z</time></trkpt><trkpt lat="44.64444339628521" lon="0.33017102398634746"><ele>46.0</ele><time>2026-04-19T08:37:18.999Z</time></trkpt><trkpt lat="44.64451841272296" lon="0.3303626788627156"><ele>46.0</ele><time>2026-04-19T08:37:19.999Z</time></trkpt><trkpt lat="44.64458297606342" lon="0.3305455511257345"><ele>46.0</ele><time>2026-04-19T08:37:20.999Z</time></trkpt><trkpt lat="44.64464909264377" lon="0.33071907081927515"><ele>46.0</ele><time>2026-04-19T08:37:21.999Z</time></trkpt><trkpt lat="44.64471264602534" lon="0.3308914535409439"><ele>46.0</ele><time>2026-04-19T08:37:22.999Z</time></trkpt><trkpt lat="44.64477304794851" lon="0.33105574066479543"><ele>46.0</ele><time>2026-04-19T08:37:23.999Z</time></trkpt><trkpt lat="44.64482901871586" lon="0.3312261236338117"><ele>46.0</ele><time>2026-04-19T08:37:24.999Z</time></trkpt><trkpt lat="44.64488724022141" lon="0.3313912467778187"><ele>46.0</ele><time>2026-04-19T08:37:25.999Z</time></trkpt><trkpt lat="44.644945898130494" lon="0.33155486128553274"><ele>46.0</ele><time>2026-04-19T08:37:26.999Z</time></trkpt><trkpt lat="44.64500859221039" lon="0.3317104922755702"><ele>46.0</ele><time>2026-04-19T08:37:27.999Z</time></trkpt><trkpt lat="44.645069001821675" lon="0.33187103098121323"><ele>46.0</ele><time>2026-04-19T08:37:28.999Z</time></trkpt><trkpt lat="44.64512110959685" lon="0.33203545945534646"><ele>46.0</ele><time>2026-04-19T08:37:29.999Z</time></trkpt><trkpt lat="44.64518135750876" lon="0.3321926961214701"><ele>45.75</ele><time>2026-04-19T08:37:30.999Z</time></trkpt><trkpt lat="44.64524085225727" lon="0.33235869278106994"><ele>45.5</ele><time>2026-04-19T08:37:31.999Z</time></trkpt><trkpt lat="44.64530636048366" lon="0.3325156915849464"><ele>45.25</ele><time>2026-04-19T08:37:32.999Z</time></trkpt><trkpt lat="44.64536912515135" lon="0.33267778377568874"><ele>45.0</ele><time>2026-04-19T08:37:33.999Z</time></trkpt><trkpt lat="44.64543367219059" lon="0.3328391226554759"><ele>45.0</ele><time>2026-04-19T08:37:34.999Z</time></trkpt><trkpt lat="44.64549352851588" lon="0.33300376634564427"><ele>45.0</ele><time>2026-04-19T08:37:35.999Z</time></trkpt><trkpt lat="44.64555469821884" lon="0.3331682836077389"><ele>45.0</ele><time>2026-04-19T08:37:36.999Z</time></trkpt><trkpt lat="44.64561522431847" lon="0.3333335732975199"><ele>45.0</ele><time>2026-04-19T08:37:37.999Z</time></trkpt><trkpt lat="44.64567921228965" lon="0.333500860780367"><ele>44.75</ele><time>2026-04-19T08:37:38.999Z</time></trkpt><trkpt lat="44.64574153421431" lon="0.33366485617379293"><ele>44.5</ele><time>2026-04-19T08:37:39.999Z</time></trkpt><trkpt lat="44.64580518084316" lon="0.33382632197079143"><ele>44.25</ele><time>2026-04-19T08:37:40.999Z</time></trkpt><trkpt lat="44.6458736547278" lon="0.33399207669484976"><ele>44.0</ele><time>2026-04-19T08:37:41.999Z</time></trkpt><trkpt lat="44.6459335692894" lon="0.33415382589538717"><ele>43.5</ele><time>2026-04-19T08:37:42.999Z</time></trkpt><trkpt lat="44.645992952873165" lon="0.33431922404680164"><ele>43.0</ele><time>2026-04-19T08:37:43.999Z</time></trkpt><trkpt lat="44.646049405089734" lon="0.3344747795005771"><ele>42.5</ele><time>2026-04-19T08:37:44.999Z</time></trkpt><trkpt lat="44.64610013142742" lon="0.33461060029278733"><ele>42.0</ele><time>2026-04-19T08:37:45.999Z</time></trkpt><trkpt lat="44.64614840518709" lon="0.33475042288338336"><ele>42.8</ele><time>2026-04-19T08:37:46.999Z</time></trkpt><trkpt lat="44.646196482046044" lon="0.3348857236021432"><ele>43.6</ele><time>2026-04-19T08:37:47.999Z</time></trkpt><trkpt lat="44.646248388863604" lon="0.33502031384670744"><ele>44.4</ele><time>2026-04-19T08:37:48.999Z</time></trkpt><trkpt lat="44.646296580325796" lon="0.33514988107718535"><ele>45.199999999999996</ele><time>2026-04-19T08:37:49.999Z</time></trkpt><trkpt lat="44.64634095030747" lon="0.3352675154027606"><ele>46.0</ele><time>2026-04-19T08:37:50.999Z</time></trkpt><trkpt lat="44.646381368381114" lon="0.3353846395584477"><ele>46.0</ele><time>2026-04-19T08:37:51.999Z</time></trkpt><trkpt lat="44.64642760898765" lon="0.3354954137842832"><ele>46.0</ele><time>2026-04-19T08:37:52.999Z</time></trkpt><trkpt lat="44.6464742161827" lon="0.3356032103578881"><ele>46.0</ele><time>2026-04-19T08:37:53.999Z</time></trkpt><trkpt lat="44.64650915327913" lon="0.33571749882154833"><ele>46.0</ele><time>2026-04-19T08:37:54.999Z</time></trkpt><trkpt lat="44.64654161322393" lon="0.3358196963776061"><ele>46.0</ele><time>2026-04-19T08:37:55.999Z</time></trkpt><trkpt lat="44.64657632586173" lon="0.33591665251904795"><ele>46.0</ele><time>2026-04-19T08:37:56.999Z</time></trkpt><trkpt lat="44.646608247701394" lon="0.3360079441472811"><ele>46.0</ele><time>2026-04-19T08:37:57.999Z</time></trkpt><trkpt lat="44.64664195126499" lon="0.3360987659967857"><ele>46.0</ele><time>2026-04-19T08:37:58.999Z</time></trkpt><trkpt lat="44.64667671495602" lon="0.33619211832391976"><ele>46.0</ele><time>2026-04-19T08:37:59.999Z</time></trkpt><trkpt lat="44.646721939286365" lon="0.33629964087825837"><ele>46.0</ele><time>2026-04-19T08:38:00.999Z</time></trkpt><trkpt lat="44.646764758131134" lon="0.33641349729646536"><ele>46.0</ele><time>2026-04-19T08:38:01.999Z</time></trkpt><trkpt lat="44.64679923657994" lon="0.3365224297291062"><ele>46.0</ele><time>2026-04-19T08:38:02.999Z</time></trkpt><trkpt lat="44.64684362702871" lon="0.33662738662175784"><ele>46.0</ele><time>2026-04-19T08:38:03.999Z</time></trkpt><trkpt lat="44.64688342813431" lon="0.33673994960025516"><ele>46.0</ele><time>2026-04-19T08:38:04.999Z</time></trkpt><trkpt lat="44.64693639000431" lon="0.33684775941818573"><ele>46.0</ele><time>2026-04-19T08:38:05.999Z</time></trkpt><trkpt lat="44.64697612342085" lon="0.33695708824462717"><ele>46.0</ele><time>2026-04-19T08:38:06.999Z</time></trkpt><trkpt lat="44.64701775478002" lon="0.33707094207307275"><ele>46.0</ele><time>2026-04-19T08:38:07.999Z</time></trkpt><trkpt lat="44.64705911059013" lon="0.3371858714667422"><ele>46.333333333333336</ele><time>2026-04-19T08:38:08.999Z</time></trkpt><trkpt lat="44.647094772789394" lon="0.33728971540271085"><ele>46.66666666666667</ele><time>2026-04-19T08:38:09.999Z</time></trkpt><trkpt lat="44.64711572317822" lon="0.3374073639878085"><ele>47.0</ele><time>2026-04-19T08:38:10.999Z</time></trkpt><trkpt lat="44.6471403229663" lon="0.3375240804051715"><ele>47.333333333333336</ele><time>2026-04-19T08:38:11.999Z</time></trkpt><trkpt lat="44.647165436550225" lon="0.3376413024363497"><ele>47.666666666666664</ele><time>2026-04-19T08:38:12.999Z</time></trkpt><trkpt lat="44.6471894359258" lon="0.33775511424638455"><ele>48.0</ele><time>2026-04-19T08:38:13.999Z</time></trkpt><trkpt lat="44.64720965467206" lon="0.3378814311044114"><ele>48.0</ele><time>2026-04-19T08:38:14.999Z</time></trkpt><trkpt lat="44.64723353074404" lon="0.3379942225317256"><ele>48.0</ele><time>2026-04-19T08:38:15.999Z</time></trkpt><trkpt lat="44.64725485755517" lon="0.33811430500900463"><ele>48.0</ele><time>2026-04-19T08:38:16.999Z</time></trkpt><trkpt lat="44.64728602929079" lon="0.33822810733422803"><ele>48.0</ele><time>2026-04-19T08:38:17.999Z</time></trkpt><trkpt lat="44.647321947587784" lon="0.338338458932637"><ele>48.0</ele><time>2026-04-19T08:38:18.999Z</time></trkpt><trkpt lat="44.64735244098933" lon="0.3384477167112328"><ele>48.0</ele><time>2026-04-19T08:38:19.999Z</time></trkpt><trkpt lat="44.64737712785074" lon="0.338562926651511"><ele>48.0</ele><time>2026-04-19T08:38:20.999Z</time></trkpt><trkpt lat="44.647406735643266" lon="0.33868107700590927"><ele>48.0</ele><time>2026-04-19T08:38:21.999Z</time></trkpt><trkpt lat="44.64742255404565" lon="0.3387977743095456"><ele>48.0</ele><time>2026-04-19T08:38:22.999Z</time></trkpt><trkpt lat="44.64743946154559" lon="0.3389218433682222"><ele>48.0</ele><time>2026-04-19T08:38:23.999Z</time></trkpt><trkpt lat="44.6474543650882" lon="0.33904587187548324"><ele>48.0</ele><time>2026-04-19T08:38:24.999Z</time></trkpt><trkpt lat="44.64747424010609" lon="0.33917663606713044"><ele>48.0</ele><time>2026-04-19T08:38:25.999Z</time></trkpt><trkpt lat="44.64749618200646" lon="0.33931391415771484"><ele>48.0</ele><time>2026-04-19T08:38:26.999Z</time></trkpt><trkpt lat="44.64751270980159" lon="0.339443739565215"><ele>48.0</ele><time>2026-04-19T08:38:27.999Z</time></trkpt><trkpt lat="44.64753136247023" lon="0.3395797352269819"><ele>48.0</ele><time>2026-04-19T08:38:28.999Z</time></trkpt><trkpt lat="44.64755160054982" lon="0.3397153855030768"><ele>48.0</ele><time>2026-04-19T08:38:29.999Z</time></trkpt><trkpt lat="44.64756903778643" lon="0.33984909715702233"><ele>48.0</ele><time>2026-04-19T08:38:30.999Z</time></trkpt><trkpt lat="44.64758620435266" lon="0.3399818953993232"><ele>47.599999999999994</ele><time>2026-04-19T08:38:31.999Z</time></trkpt><trkpt lat="44.64760561562834" lon="0.3401172720145002"><ele>47.199999999999996</ele><time>2026-04-19T08:38:32.999Z</time></trkpt><trkpt lat="44.64762067499933" lon="0.3402431338036249"><ele>46.8</ele><time>2026-04-19T08:38:33.999Z</time></trkpt><trkpt lat="44.647652250902645" lon="0.340365796282012"><ele>46.4</ele><time>2026-04-19T08:38:34.999Z</time></trkpt><trkpt lat="44.64767896142868" lon="0.3404982369128997"><ele>46.0</ele><time>2026-04-19T08:38:35.999Z</time></trkpt><trkpt lat="44.647684838798895" lon="0.34062910383147293"><ele>45.599999999999994</ele><time>2026-04-19T08:38:36.999Z</time></trkpt><trkpt lat="44.64764382627944" lon="0.3407617103020808"><ele>45.2</ele><time>2026-04-19T08:38:37.999Z</time></trkpt><trkpt lat="44.64759940540654" lon="0.3408780397384102"><ele>44.8</ele><time>2026-04-19T08:38:38.999Z</time></trkpt><trkpt lat="44.64760605550209" lon="0.34104673414877734"><ele>44.400000000000006</ele><time>2026-04-19T08:38:39.999Z</time></trkpt><trkpt lat="44.647596539080354" lon="0.3411836919872129"><ele>44.0</ele><time>2026-04-19T08:38:40.999Z</time></trkpt><trkpt lat="44.647576922458974" lon="0.34129155365647856"><ele>44.2</ele><time>2026-04-19T08:38:41.999Z</time></trkpt><trkpt lat="44.64754693711724" lon="0.3414138087951409"><ele>44.400000000000006</ele><time>2026-04-19T08:38:42.999Z</time></trkpt><trkpt lat="44.64753128642427" lon="0.34155667233161235"><ele>44.6</ele><time>2026-04-19T08:38:44.999Z</time></trkpt><trkpt lat="44.647518733595874" lon="0.3417089578706944"><ele>44.8</ele><time>2026-04-19T08:38:46.999Z</time></trkpt><trkpt lat="44.647505895631056" lon="0.34180581819081085"><ele>45.0</ele><time>2026-04-19T08:38:47.999Z</time></trkpt><trkpt lat="44.64747669180487" lon="0.34193768549119014"><ele>45.0</ele><time>2026-04-19T08:38:48.999Z</time></trkpt><trkpt lat="44.64745473024064" lon="0.3421158242213696"><ele>45.0</ele><time>2026-04-19T08:38:49.999Z</time></trkpt><trkpt lat="44.64741349140354" lon="0.3422905366786215"><ele>45.0</ele><time>2026-04-19T08:38:50.999Z</time></trkpt><trkpt lat="44.64736962227174" lon="0.34246164354000475"><ele>45.0</ele><time>2026-04-19T08:38:51.999Z</time></trkpt><trkpt lat="44.64732819362028" lon="0.3426225680121879"><ele>45.5</ele><time>2026-04-19T08:38:52.999Z</time></trkpt><trkpt lat="44.647249124752335" lon="0.34273610537653015"><ele>46.0</ele><time>2026-04-19T08:38:53.999Z</time></trkpt><trkpt lat="44.64715566889663" lon="0.34285281206554435"><ele>46.5</ele><time>2026-04-19T08:38:54.999Z</time></trkpt><trkpt lat="44.64704612933984" lon="0.34291411670596716"><ele>47.0</ele><time>2026-04-19T08:38:55.999Z</time></trkpt><trkpt lat="44.646931263187035" lon="0.34293744839895085"><ele>46.0</ele><time>2026-04-19T08:38:56.999Z</time></trkpt><trkpt lat="44.646807184562356" lon="0.34291298517118074"><ele>45.0</ele><time>2026-04-19T08:38:57.999Z</time></trkpt><trkpt lat="44.64668745332352" lon="0.34285855097440954"><ele>44.0</ele><time>2026-04-19T08:38:58.999Z</time></trkpt><trkpt lat="44.64656146540364" lon="0.3428001832203304"><ele>43.0</ele><time>2026-04-19T08:38:59.999Z</time></trkpt><trkpt lat="44.646447985030875" lon="0.34274385241835126"><ele>43.0</ele><time>2026-04-19T08:39:00.999Z</time></trkpt><trkpt lat="44.64633900775184" lon="0.34268750499348943"><ele>43.0</ele><time>2026-04-19T08:39:01.999Z</time></trkpt><trkpt lat="44.646234571882694" lon="0.34265910038224207"><ele>43.0</ele><time>2026-04-19T08:39:02.999Z</time></trkpt><trkpt lat="44.646127264095185" lon="0.34263869146052406"><ele>43.0</ele><time>2026-04-19T08:39:03.999Z</time></trkpt><trkpt lat="44.64601397267497" lon="0.34264485636878206"><ele>43.0</ele><time>2026-04-19T08:39:04.999Z</time></trkpt><trkpt lat="44.64589644040507" lon="0.3426778485592724"><ele>43.0</ele><time>2026-04-19T08:39:05.999Z</time></trkpt><trkpt lat="44.64579069234131" lon="0.34275433592464416"><ele>43.0</ele><time>2026-04-19T08:39:06.998Z</time></trkpt><trkpt lat="44.64568054936313" lon="0.34285092044759596"><ele>43.0</ele><time>2026-04-19T08:39:07.999Z</time></trkpt><trkpt lat="44.64558535549531" lon="0.3429886302567281"><ele>43.0</ele><time>2026-04-19T08:39:08.999Z</time></trkpt><trkpt lat="44.645498451472925" lon="0.3431628981104025"><ele>43.0</ele><time>2026-04-19T08:39:09.998Z</time></trkpt><trkpt lat="44.64542158474811" lon="0.3433750355445248"><ele>43.0</ele><time>2026-04-19T08:39:10.998Z</time></trkpt><trkpt lat="44.64530226499878" lon="0.3436251040126017"><ele>43.0</ele><time>2026-04-19T08:39:11.998Z</time></trkpt><trkpt lat="44.645184620410554" lon="0.3439146895743899"><ele>42.0</ele><time>2026-04-19T08:39:12.998Z</time></trkpt><trkpt lat="44.64506502850752" lon="0.3442077280717642"><ele>41.0</ele><time>2026-04-19T08:39:13.998Z</time></trkpt><trkpt lat="44.644943532397846" lon="0.3445054324753593"><ele>41.33333333333333</ele><time>2026-04-19T08:39:14.998Z</time></trkpt><trkpt lat="44.644843906430744" lon="0.3447865889718243"><ele>41.666666666666664</ele><time>2026-04-19T08:39:15.999Z</time></trkpt><trkpt lat="44.64474110312887" lon="0.3450337871701777"><ele>42.0</ele><time>2026-04-19T08:39:16.998Z</time></trkpt><trkpt lat="44.64464561961581" lon="0.3452690291720684"><ele>42.0</ele><time>2026-04-19T08:39:17.998Z</time></trkpt><trkpt lat="44.644548146613495" lon="0.3454954914022328"><ele>42.0</ele><time>2026-04-19T08:39:18.998Z</time></trkpt><trkpt lat="44.64446649167478" lon="0.34570525130439067"><ele>42.0</ele><time>2026-04-19T08:39:19.998Z</time></trkpt><trkpt lat="44.64437912629221" lon="0.3459086776258055"><ele>42.5</ele><time>2026-04-19T08:39:20.998Z</time></trkpt><trkpt lat="44.644304158362175" lon="0.3460780884903082"><ele>43.0</ele><time>2026-04-19T08:39:21.998Z</time></trkpt><trkpt lat="44.64423183025983" lon="0.34625238167462713"><ele>43.5</ele><time>2026-04-19T08:39:22.998Z</time></trkpt><trkpt lat="44.644159430308434" lon="0.34642373012262423"><ele>44.0</ele><time>2026-04-19T08:39:23.998Z</time></trkpt><trkpt lat="44.64408158153141" lon="0.3465899731896814"><ele>44.5</ele><time>2026-04-19T08:39:24.998Z</time></trkpt><trkpt lat="44.64399821624538" lon="0.3467405531423225"><ele>45.0</ele><time>2026-04-19T08:39:25.998Z</time></trkpt><trkpt lat="44.643912373244525" lon="0.34686382104265534"><ele>45.5</ele><time>2026-04-19T08:39:26.998Z</time></trkpt><trkpt lat="44.64382713438677" lon="0.3469637257058968"><ele>46.0</ele><time>2026-04-19T08:39:27.998Z</time></trkpt><trkpt lat="44.643748925394554" lon="0.3470531173735521"><ele>46.0</ele><time>2026-04-19T08:39:28.998Z</time></trkpt><trkpt lat="44.6436710401419" lon="0.34713106094492213"><ele>46.0</ele><time>2026-04-19T08:39:29.998Z</time></trkpt><trkpt lat="44.64359890717992" lon="0.34719502242873185"><ele>46.0</ele><time>2026-04-19T08:39:30.998Z</time></trkpt><trkpt lat="44.64352969034478" lon="0.3472549529087616"><ele>46.0</ele><time>2026-04-19T08:39:31.998Z</time></trkpt><trkpt lat="44.643473444077394" lon="0.3473038140548149"><ele>46.0</ele><time>2026-04-19T08:39:32.998Z</time></trkpt><trkpt lat="44.64338697204085" lon="0.3473949943791478"><ele>46.0</ele><time>2026-04-19T08:39:34.998Z</time></trkpt><trkpt lat="44.64334421216243" lon="0.34747067897565825"><ele>45.8</ele><time>2026-04-19T08:39:36.998Z</time></trkpt><trkpt lat="44.64331630165338" lon="0.34756471694883206"><ele>45.599999999999994</ele><time>2026-04-19T08:39:39.998Z</time></trkpt><trkpt lat="44.6433358049556" lon="0.3476491472124758"><ele>45.4</ele><time>2026-04-19T08:39:42.998Z</time></trkpt><trkpt lat="44.64342944184839" lon="0.3477945649526611"><ele>45.2</ele><time>2026-04-19T08:39:44.998Z</time></trkpt><trkpt lat="44.64355746349772" lon="0.3478535145712652"><ele>45.0</ele><time>2026-04-19T08:39:45.998Z</time></trkpt><trkpt lat="44.64368865969435" lon="0.3479421625966453"><ele>44.333333333333336</ele><time>2026-04-19T08:39:46.998Z</time></trkpt><trkpt lat="44.643823832032695" lon="0.34804428281282346"><ele>43.66666666666667</ele><time>2026-04-19T08:39:47.998Z</time></trkpt><trkpt lat="44.64397308145601" lon="0.34817712704768533"><ele>43.0</ele><time>2026-04-19T08:39:48.998Z</time></trkpt><trkpt lat="44.644120620997036" lon="0.3483112864580848"><ele>43.0</ele><time>2026-04-19T08:39:49.998Z</time></trkpt><trkpt lat="44.64427867898409" lon="0.34848372948022405"><ele>43.0</ele><time>2026-04-19T08:39:50.998Z</time></trkpt><trkpt lat="44.64442264142908" lon="0.34867262036733326"><ele>43.0</ele><time>2026-04-19T08:39:51.998Z</time></trkpt><trkpt lat="44.644555750667095" lon="0.34888277727549566"><ele>43.0</ele><time>2026-04-19T08:39:52.998Z</time></trkpt><trkpt lat="44.64468514766133" lon="0.3490905099662517"><ele>43.0</ele><time>2026-04-19T08:39:53.998Z</time></trkpt><trkpt lat="44.64481200582779" lon="0.34931009181853995"><ele>43.0</ele><time>2026-04-19T08:39:54.998Z</time></trkpt><trkpt lat="44.64496193078986" lon="0.3495438905258901"><ele>43.5</ele><time>2026-04-19T08:39:55.998Z</time></trkpt><trkpt lat="44.64510448456357" lon="0.34981974579763636"><ele>44.0</ele><time>2026-04-19T08:39:56.998Z</time></trkpt><trkpt lat="44.64526809069432" lon="0.3501064145805941"><ele>44.0</ele><time>2026-04-19T08:39:57.998Z</time></trkpt><trkpt lat="44.64543509836255" lon="0.3503842015964915"><ele>44.0</ele><time>2026-04-19T08:39:58.998Z</time></trkpt><trkpt lat="44.64559393867956" lon="0.3506901575669696"><ele>43.0</ele><time>2026-04-19T08:39:59.998Z</time></trkpt><trkpt lat="44.645752720950526" lon="0.3509778346956625"><ele>42.0</ele><time>2026-04-19T08:40:00.998Z</time></trkpt><trkpt lat="44.64591005138432" lon="0.3512560920363007"><ele>42.0</ele><time>2026-04-19T08:40:01.998Z</time></trkpt><trkpt lat="44.64607331171014" lon="0.35153847400732563"><ele>42.0</ele><time>2026-04-19T08:40:02.998Z</time></trkpt><trkpt lat="44.64623289250726" lon="0.35182637961427116"><ele>42.0</ele><time>2026-04-19T08:40:03.998Z</time></trkpt><trkpt lat="44.646390585044195" lon="0.3521088155996299"><ele>42.0</ele><time>2026-04-19T08:40:04.998Z</time></trkpt><trkpt lat="44.6465465911027" lon="0.35238268195325284"><ele>42.5</ele><time>2026-04-19T08:40:05.998Z</time></trkpt><trkpt lat="44.64669883774983" lon="0.35264709712627795"><ele>43.0</ele><time>2026-04-19T08:40:06.998Z</time></trkpt><trkpt lat="44.646849347573465" lon="0.35291396997646934"><ele>42.66666666666667</ele><time>2026-04-19T08:40:07.998Z</time></trkpt><trkpt lat="44.646988934004305" lon="0.3531659530151251"><ele>42.333333333333336</ele><time>2026-04-19T08:40:08.998Z</time></trkpt><trkpt lat="44.64712444847989" lon="0.35340763496318733"><ele>42.0</ele><time>2026-04-19T08:40:09.998Z</time></trkpt><trkpt lat="44.64725800540114" lon="0.3536524672894352"><ele>42.0</ele><time>2026-04-19T08:40:10.998Z</time></trkpt><trkpt lat="44.647391779218275" lon="0.3538756372336579"><ele>42.0</ele><time>2026-04-19T08:40:11.998Z</time></trkpt><trkpt lat="44.6475169290875" lon="0.35411273219493317"><ele>42.0</ele><time>2026-04-19T08:40:12.998Z</time></trkpt><trkpt lat="44.64765566664209" lon="0.35434069704936016"><ele>42.0</ele><time>2026-04-19T08:40:13.998Z</time></trkpt><trkpt lat="44.647781181381234" lon="0.3545685923714796"><ele>42.0</ele><time>2026-04-19T08:40:14.998Z</time></trkpt><trkpt lat="44.64791466606359" lon="0.35479951532552034"><ele>42.0</ele><time>2026-04-19T08:40:15.998Z</time></trkpt><trkpt lat="44.64804744307865" lon="0.3550381827682158"><ele>42.333333333333336</ele><time>2026-04-19T08:40:16.998Z</time></trkpt><trkpt lat="44.64818350811608" lon="0.35527850357329194"><ele>42.66666666666667</ele><time>2026-04-19T08:40:17.998Z</time></trkpt><trkpt lat="44.648313877585686" lon="0.355520751347776"><ele>43.0</ele><time>2026-04-19T08:40:18.998Z</time></trkpt><trkpt lat="44.6484493587683" lon="0.355757121921638"><ele>43.0</ele><time>2026-04-19T08:40:19.998Z</time></trkpt><trkpt lat="44.64858622568287" lon="0.35598713524769393"><ele>43.0</ele><time>2026-04-19T08:40:20.998Z</time></trkpt><trkpt lat="44.648719521759304" lon="0.3562219107371067"><ele>43.0</ele><time>2026-04-19T08:40:21.998Z</time></trkpt><trkpt lat="44.64885800266008" lon="0.35645863234844694"><ele>43.0</ele><time>2026-04-19T08:40:22.998Z</time></trkpt><trkpt lat="44.648990592439745" lon="0.3566989489611564"><ele>43.0</ele><time>2026-04-19T08:40:23.998Z</time></trkpt><trkpt lat="44.64912210393554" lon="0.35693037743910405"><ele>43.0</ele><time>2026-04-19T08:40:24.998Z</time></trkpt><trkpt lat="44.649252343537334" lon="0.35716015321450556"><ele>43.66666666666667</ele><time>2026-04-19T08:40:25.998Z</time></trkpt><trkpt lat="44.64938500547954" lon="0.3573936827803567"><ele>44.333333333333336</ele><time>2026-04-19T08:40:26.998Z</time></trkpt><trkpt lat="44.64951701007481" lon="0.3576300831101066"><ele>45.0</ele><time>2026-04-19T08:40:27.998Z</time></trkpt><trkpt lat="44.649649663925025" lon="0.35786089488243156"><ele>45.0</ele><time>2026-04-19T08:40:28.998Z</time></trkpt><trkpt lat="44.64977570662553" lon="0.35809378862284325"><ele>45.0</ele><time>2026-04-19T08:40:29.998Z</time></trkpt><trkpt lat="44.64991463698969" lon="0.3583307813673905"><ele>45.0</ele><time>2026-04-19T08:40:30.998Z</time></trkpt><trkpt lat="44.65004942577927" lon="0.3585656041652392"><ele>45.0</ele><time>2026-04-19T08:40:31.998Z</time></trkpt><trkpt lat="44.650185107908136" lon="0.35880553622299227"><ele>45.0</ele><time>2026-04-19T08:40:32.998Z</time></trkpt><trkpt lat="44.65031901636665" lon="0.3590372972602462"><ele>45.0</ele><time>2026-04-19T08:40:33.998Z</time></trkpt><trkpt lat="44.650450368333814" lon="0.3592753549378452"><ele>44.666666666666664</ele><time>2026-04-19T08:40:34.998Z</time></trkpt><trkpt lat="44.65057878744589" lon="0.35951429877386437"><ele>44.33333333333333</ele><time>2026-04-19T08:40:35.998Z</time></trkpt><trkpt lat="44.65070907518793" lon="0.3597522477929156"><ele>44.0</ele><time>2026-04-19T08:40:36.998Z</time></trkpt><trkpt lat="44.650846361324064" lon="0.3599830633390359"><ele>44.666666666666664</ele><time>2026-04-19T08:40:37.998Z</time></trkpt><trkpt lat="44.650978135263415" lon="0.3602163500176856"><ele>45.333333333333336</ele><time>2026-04-19T08:40:38.998Z</time></trkpt><trkpt lat="44.651113473795995" lon="0.3604422458925243"><ele>46.0</ele><time>2026-04-19T08:40:39.998Z</time></trkpt><trkpt lat="44.65124982099102" lon="0.3606807903904871"><ele>46.0</ele><time>2026-04-19T08:40:40.998Z</time></trkpt><trkpt lat="44.651381240704126" lon="0.36091744557387573"><ele>46.0</ele><time>2026-04-19T08:40:41.998Z</time></trkpt><trkpt lat="44.6515169700057" lon="0.3611602267867943"><ele>46.0</ele><time>2026-04-19T08:40:42.998Z</time></trkpt><trkpt lat="44.65164481433612" lon="0.3614007298216432"><ele>46.0</ele><time>2026-04-19T08:40:43.998Z</time></trkpt><trkpt lat="44.651757347726914" lon="0.3616615482059995"><ele>46.0</ele><time>2026-04-19T08:40:44.998Z</time></trkpt><trkpt lat="44.65185835024488" lon="0.36192431166913464"><ele>46.0</ele><time>2026-04-19T08:40:45.998Z</time></trkpt><trkpt lat="44.65194406757283" lon="0.3622011782172709"><ele>46.0</ele><time>2026-04-19T08:40:46.998Z</time></trkpt><trkpt lat="44.6520213745619" lon="0.36247677150757196"><ele>46.0</ele><time>2026-04-19T08:40:47.998Z</time></trkpt><trkpt lat="44.65208740707617" lon="0.3627606194179072"><ele>46.0</ele><time>2026-04-19T08:40:48.998Z</time></trkpt><trkpt lat="44.65214128561937" lon="0.3630526772457868"><ele>46.333333333333336</ele><time>2026-04-19T08:40:49.998Z</time></trkpt><trkpt lat="44.652182815907516" lon="0.3633505585741508"><ele>46.666666666666664</ele><time>2026-04-19T08:40:50.998Z</time></trkpt><trkpt lat="44.6522162559845" lon="0.3636432476754109"><ele>47.0</ele><time>2026-04-19T08:40:51.998Z</time></trkpt><trkpt lat="44.65223403160334" lon="0.36394197238461673"><ele>47.33333333333333</ele><time>2026-04-19T08:40:52.998Z</time></trkpt><trkpt lat="44.65224208602083" lon="0.3642399134937409"><ele>47.666666666666664</ele><time>2026-04-19T08:40:53.998Z</time></trkpt><trkpt lat="44.652240687028595" lon="0.3645438906094506"><ele>48.0</ele><time>2026-04-19T08:40:54.998Z</time></trkpt><trkpt lat="44.65223206904413" lon="0.36484592470071814"><ele>48.0</ele><time>2026-04-19T08:40:55.998Z</time></trkpt><trkpt lat="44.652222287415725" lon="0.3651425048983423"><ele>48.0</ele><time>2026-04-19T08:40:56.998Z</time></trkpt><trkpt lat="44.652213850947355" lon="0.3654496434255609"><ele>48.0</ele><time>2026-04-19T08:40:57.998Z</time></trkpt><trkpt lat="44.65220932984297" lon="0.36575436784451437"><ele>48.66666666666667</ele><time>2026-04-19T08:40:58.998Z</time></trkpt><trkpt lat="44.65220734208548" lon="0.3660548045466189"><ele>49.333333333333336</ele><time>2026-04-19T08:40:59.998Z</time></trkpt><trkpt lat="44.65220798940695" lon="0.36635553332534804"><ele>50.0</ele><time>2026-04-19T08:41:00.998Z</time></trkpt><trkpt lat="44.65220309272293" lon="0.3666493100355906"><ele>50.0</ele><time>2026-04-19T08:41:01.998Z</time></trkpt><trkpt lat="44.65220149170681" lon="0.36695168235496495"><ele>50.0</ele><time>2026-04-19T08:41:02.998Z</time></trkpt><trkpt lat="44.65219620678345" lon="0.3672542794901669"><ele>50.0</ele><time>2026-04-19T08:41:03.998Z</time></trkpt><trkpt lat="44.652194055184346" lon="0.36754857846249395"><ele>50.333333333333336</ele><time>2026-04-19T08:41:04.998Z</time></trkpt><trkpt lat="44.65218807186655" lon="0.3678519403076424"><ele>50.66666666666667</ele><time>2026-04-19T08:41:05.998Z</time></trkpt><trkpt lat="44.65218690774622" lon="0.3681503472656554"><ele>51.0</ele><time>2026-04-19T08:41:06.998Z</time></trkpt><trkpt lat="44.65218832115324" lon="0.3684488348365708"><ele>51.66666666666667</ele><time>2026-04-19T08:41:07.998Z</time></trkpt><trkpt lat="44.652183552037584" lon="0.3687460397117518"><ele>52.333333333333336</ele><time>2026-04-19T08:41:08.998Z</time></trkpt><trkpt lat="44.652182006878995" lon="0.36904968644723835"><ele>53.0</ele><time>2026-04-19T08:41:09.998Z</time></trkpt><trkpt lat="44.65218057764103" lon="0.3693487417979867"><ele>53.0</ele><time>2026-04-19T08:41:10.998Z</time></trkpt><trkpt lat="44.65217749347354" lon="0.3696507459575283"><ele>53.0</ele><time>2026-04-19T08:41:11.998Z</time></trkpt><trkpt lat="44.65217538791454" lon="0.3699539618393388"><ele>53.0</ele><time>2026-04-19T08:41:12.998Z</time></trkpt><trkpt lat="44.65217720888342" lon="0.3702555186325161"><ele>53.333333333333336</ele><time>2026-04-19T08:41:13.997Z</time></trkpt><trkpt lat="44.652177101612025" lon="0.37055393581030993"><ele>53.66666666666667</ele><time>2026-04-19T08:41:14.997Z</time></trkpt><trkpt lat="44.65217396197778" lon="0.3708479012131432"><ele>54.0</ele><time>2026-04-19T08:41:15.998Z</time></trkpt><trkpt lat="44.65216810422593" lon="0.37114026329459937"><ele>54.0</ele><time>2026-04-19T08:41:16.997Z</time></trkpt><trkpt lat="44.65216179039111" lon="0.37142737309134405"><ele>54.0</ele><time>2026-04-19T08:41:17.997Z</time></trkpt><trkpt lat="44.652159324422996" lon="0.3717067983823193"><ele>54.0</ele><time>2026-04-19T08:41:18.998Z</time></trkpt><trkpt lat="44.65215312318955" lon="0.37198119771614274"><ele>54.33333333333333</ele><time>2026-04-19T08:41:19.997Z</time></trkpt><trkpt lat="44.652154168323" lon="0.3722526559061612"><ele>54.666666666666664</ele><time>2026-04-19T08:41:20.997Z</time></trkpt><trkpt lat="44.652154355188046" lon="0.37252237292261736"><ele>55.0</ele><time>2026-04-19T08:41:21.998Z</time></trkpt><trkpt lat="44.652151180486065" lon="0.3727983356908845"><ele>55.33333333333333</ele><time>2026-04-19T08:41:22.997Z</time></trkpt><trkpt lat="44.65215063059866" lon="0.37306664065657025"><ele>55.66666666666667</ele><time>2026-04-19T08:41:23.997Z</time></trkpt><trkpt lat="44.65215094599225" lon="0.37333318022967826"><ele>56.0</ele><time>2026-04-19T08:41:24.997Z</time></trkpt><trkpt lat="44.65214115473713" lon="0.3735942984226295"><ele>56.0</ele><time>2026-04-19T08:41:25.998Z</time></trkpt><trkpt lat="44.65213895298123" lon="0.3738494599918651"><ele>56.0</ele><time>2026-04-19T08:41:26.998Z</time></trkpt><trkpt lat="44.65213809220559" lon="0.37411024890653705"><ele>56.0</ele><time>2026-04-19T08:41:27.998Z</time></trkpt><trkpt lat="44.65213361242308" lon="0.37436782775360467"><ele>55.333333333333336</ele><time>2026-04-19T08:41:28.998Z</time></trkpt><trkpt lat="44.65213259794595" lon="0.37462041438356397"><ele>54.66666666666667</ele><time>2026-04-19T08:41:29.998Z</time></trkpt><trkpt lat="44.65212931640887" lon="0.3748829800177453"><ele>54.0</ele><time>2026-04-19T08:41:30.998Z</time></trkpt><trkpt lat="44.652127163314155" lon="0.37514944088131214"><ele>54.0</ele><time>2026-04-19T08:41:31.998Z</time></trkpt><trkpt lat="44.65212169903939" lon="0.3754171013123125"><ele>54.0</ele><time>2026-04-19T08:41:32.998Z</time></trkpt><trkpt lat="44.65212134339256" lon="0.3756949372272154"><ele>54.0</ele><time>2026-04-19T08:41:33.998Z</time></trkpt><trkpt lat="44.65211184787201" lon="0.37597666787605566"><ele>53.33333333333333</ele><time>2026-04-19T08:41:34.998Z</time></trkpt><trkpt lat="44.65209997149574" lon="0.3762552567931049"><ele>52.666666666666664</ele><time>2026-04-19T08:41:35.998Z</time></trkpt><trkpt lat="44.652087493361634" lon="0.37654470957645353"><ele>52.0</ele><time>2026-04-19T08:41:36.998Z</time></trkpt><trkpt lat="44.6520563714676" lon="0.37682776644672156"><ele>50.0</ele><time>2026-04-19T08:41:37.998Z</time></trkpt><trkpt lat="44.652030321993145" lon="0.37711447651068325"><ele>48.0</ele><time>2026-04-19T08:41:38.998Z</time></trkpt><trkpt lat="44.652004386760844" lon="0.37741070610488187"><ele>46.0</ele><time>2026-04-19T08:41:39.998Z</time></trkpt><trkpt lat="44.65197726124695" lon="0.3777054102660979"><ele>47.66666666666667</ele><time>2026-04-19T08:41:40.998Z</time></trkpt><trkpt lat="44.651946523245755" lon="0.3779964201159303"><ele>49.333333333333336</ele><time>2026-04-19T08:41:41.998Z</time></trkpt><trkpt lat="44.65192599396161" lon="0.378287994631146"><ele>51.0</ele><time>2026-04-19T08:41:42.998Z</time></trkpt><trkpt lat="44.651907219612085" lon="0.3785947097071067"><ele>51.0</ele><time>2026-04-19T08:41:43.998Z</time></trkpt><trkpt lat="44.65188137509765" lon="0.3789115402473508"><ele>51.0</ele><time>2026-04-19T08:41:44.998Z</time></trkpt><trkpt lat="44.651856376702" lon="0.37922862700011867"><ele>51.0</ele><time>2026-04-19T08:41:45.998Z</time></trkpt><trkpt lat="44.65182977476967" lon="0.37954649958194897"><ele>51.0</ele><time>2026-04-19T08:41:46.998Z</time></trkpt><trkpt lat="44.651803840109324" lon="0.3798610381066629"><ele>50.33333333333333</ele><time>2026-04-19T08:41:47.998Z</time></trkpt><trkpt lat="44.65178175291584" lon="0.38017132679595605"><ele>49.666666666666664</ele><time>2026-04-19T08:41:48.998Z</time></trkpt><trkpt lat="44.6517572812743" lon="0.3804763590834061"><ele>49.0</ele><time>2026-04-19T08:41:49.998Z</time></trkpt><trkpt lat="44.65174348575694" lon="0.3807758929789432"><ele>49.0</ele><time>2026-04-19T08:41:50.998Z</time></trkpt><trkpt lat="44.651739238517955" lon="0.381070386094384"><ele>49.0</ele><time>2026-04-19T08:41:51.998Z</time></trkpt><trkpt lat="44.651755250717926" lon="0.38135638500600233"><ele>49.0</ele><time>2026-04-19T08:41:52.998Z</time></trkpt><trkpt lat="44.65177881683543" lon="0.38164528944913306"><ele>49.0</ele><time>2026-04-19T08:41:53.998Z</time></trkpt><trkpt lat="44.65181957757546" lon="0.3819317351590516"><ele>49.0</ele><time>2026-04-19T08:41:54.998Z</time></trkpt><trkpt lat="44.65187532676266" lon="0.38222005715213186"><ele>49.0</ele><time>2026-04-19T08:41:55.998Z</time></trkpt><trkpt lat="44.65194250370085" lon="0.3825058038924169"><ele>48.666666666666664</ele><time>2026-04-19T08:41:56.998Z</time></trkpt><trkpt lat="44.65202009957385" lon="0.38279226856382814"><ele>48.33333333333333</ele><time>2026-04-19T08:41:57.998Z</time></trkpt><trkpt lat="44.652101618610665" lon="0.38308038409861067"><ele>48.0</ele><time>2026-04-19T08:41:58.998Z</time></trkpt><trkpt lat="44.65218227787868" lon="0.38335993251567074"><ele>47.666666666666664</ele><time>2026-04-19T08:41:59.998Z</time></trkpt><trkpt lat="44.65226595901196" lon="0.38364456121471985"><ele>47.33333333333333</ele><time>2026-04-19T08:42:00.998Z</time></trkpt><trkpt lat="44.65234266060477" lon="0.3839282521716476"><ele>47.0</ele><time>2026-04-19T08:42:01.998Z</time></trkpt><trkpt lat="44.65242270252975" lon="0.3842149972782337"><ele>47.666666666666664</ele><time>2026-04-19T08:42:02.998Z</time></trkpt><trkpt lat="44.652496650486654" lon="0.3844974953997473"><ele>48.33333333333333</ele><time>2026-04-19T08:42:03.998Z</time></trkpt><trkpt lat="44.65257993241049" lon="0.38478584979438496"><ele>49.0</ele><time>2026-04-19T08:42:04.998Z</time></trkpt><trkpt lat="44.65266662656273" lon="0.38506631055669077"><ele>49.0</ele><time>2026-04-19T08:42:05.998Z</time></trkpt><trkpt lat="44.65275902804973" lon="0.3853441013305213"><ele>49.0</ele><time>2026-04-19T08:42:06.998Z</time></trkpt><trkpt lat="44.652867381358824" lon="0.3856150939075178"><ele>49.0</ele><time>2026-04-19T08:42:07.998Z</time></trkpt><trkpt lat="44.652996256674705" lon="0.38586701399406803"><ele>49.0</ele><time>2026-04-19T08:42:08.998Z</time></trkpt><trkpt lat="44.653129317619616" lon="0.3860976925089863"><ele>49.0</ele><time>2026-04-19T08:42:09.998Z</time></trkpt><trkpt lat="44.6532704949873" lon="0.386326612408894"><ele>49.0</ele><time>2026-04-19T08:42:10.998Z</time></trkpt><trkpt lat="44.65341824263594" lon="0.38654539382856484"><ele>48.666666666666664</ele><time>2026-04-19T08:42:11.998Z</time></trkpt><trkpt lat="44.653570381516815" lon="0.38675642513208836"><ele>48.33333333333333</ele><time>2026-04-19T08:42:12.998Z</time></trkpt><trkpt lat="44.65373408350906" lon="0.38696147212244375"><ele>48.0</ele><time>2026-04-19T08:42:13.998Z</time></trkpt><trkpt lat="44.653899722667795" lon="0.3871611479833823"><ele>48.33333333333333</ele><time>2026-04-19T08:42:14.998Z</time></trkpt><trkpt lat="44.65406011911749" lon="0.3873607110379022"><ele>48.666666666666664</ele><time>2026-04-19T08:42:15.998Z</time></trkpt><trkpt lat="44.65421945072849" lon="0.3875677827874376"><ele>49.0</ele><time>2026-04-19T08:42:16.998Z</time></trkpt><trkpt lat="44.65437848135234" lon="0.3877728201361609"><ele>49.0</ele><time>2026-04-19T08:42:17.998Z</time></trkpt><trkpt lat="44.654535608868" lon="0.38797459848376176"><ele>49.0</ele><time>2026-04-19T08:42:18.998Z</time></trkpt><trkpt lat="44.65469991478733" lon="0.38817028539552023"><ele>49.0</ele><time>2026-04-19T08:42:19.998Z</time></trkpt><trkpt lat="44.65485559513832" lon="0.3883669239641069"><ele>49.0</ele><time>2026-04-19T08:42:20.998Z</time></trkpt><trkpt lat="44.655005090873544" lon="0.3885690757301845"><ele>49.0</ele><time>2026-04-19T08:42:21.998Z</time></trkpt><trkpt lat="44.65515200021595" lon="0.3887676241205991"><ele>49.0</ele><time>2026-04-19T08:42:22.998Z</time></trkpt><trkpt lat="44.65530136185334" lon="0.38895726183437584"><ele>48.666666666666664</ele><time>2026-04-19T08:42:23.998Z</time></trkpt><trkpt lat="44.655461258540235" lon="0.38913153164511394"><ele>48.33333333333333</ele><time>2026-04-19T08:42:24.998Z</time></trkpt><trkpt lat="44.65563049522373" lon="0.38928312138014876"><ele>48.0</ele><time>2026-04-19T08:42:25.998Z</time></trkpt><trkpt lat="44.65580821217709" lon="0.38939820703622563"><ele>48.0</ele><time>2026-04-19T08:42:26.998Z</time></trkpt><trkpt lat="44.65600094810237" lon="0.3895028744303351"><ele>48.0</ele><time>2026-04-19T08:42:27.998Z</time></trkpt><trkpt lat="44.656179932493025" lon="0.38961042890861863"><ele>48.0</ele><time>2026-04-19T08:42:28.998Z</time></trkpt><trkpt lat="44.65635653541382" lon="0.3897339350107132"><ele>48.66666666666667</ele><time>2026-04-19T08:42:29.998Z</time></trkpt><trkpt lat="44.65652129271376" lon="0.38989498473391654"><ele>49.333333333333336</ele><time>2026-04-19T08:42:30.998Z</time></trkpt><trkpt lat="44.656657423563836" lon="0.3900929258384279"><ele>50.0</ele><time>2026-04-19T08:42:31.998Z</time></trkpt><trkpt lat="44.6568013797069" lon="0.39027775498110506"><ele>50.0</ele><time>2026-04-19T08:42:32.998Z</time></trkpt><trkpt lat="44.65693964797471" lon="0.3904912181841685"><ele>50.0</ele><time>2026-04-19T08:42:33.998Z</time></trkpt><trkpt lat="44.65707517598381" lon="0.39070259411177116"><ele>50.0</ele><time>2026-04-19T08:42:34.998Z</time></trkpt><trkpt lat="44.65720623927966" lon="0.3909057780756386"><ele>49.333333333333336</ele><time>2026-04-19T08:42:35.998Z</time></trkpt><trkpt lat="44.65733689166798" lon="0.39109851800755424"><ele>48.66666666666667</ele><time>2026-04-19T08:42:36.998Z</time></trkpt><trkpt lat="44.65747774152871" lon="0.3912872739075426"><ele>48.0</ele><time>2026-04-19T08:42:37.998Z</time></trkpt><trkpt lat="44.657608004266535" lon="0.3914889852317861"><ele>48.0</ele><time>2026-04-19T08:42:38.998Z</time></trkpt><trkpt lat="44.65773536279417" lon="0.3916769206213832"><ele>48.0</ele><time>2026-04-19T08:42:39.998Z</time></trkpt><trkpt lat="44.657855399271305" lon="0.39187684872631817"><ele>48.0</ele><time>2026-04-19T08:42:40.998Z</time></trkpt><trkpt lat="44.65798002632116" lon="0.392070137594629"><ele>49.66666666666667</ele><time>2026-04-19T08:42:41.998Z</time></trkpt><trkpt lat="44.658111772672086" lon="0.3922566587305265"><ele>51.333333333333336</ele><time>2026-04-19T08:42:42.998Z</time></trkpt><trkpt lat="44.6582587622285" lon="0.39243817696057953"><ele>53.0</ele><time>2026-04-19T08:42:43.998Z</time></trkpt><trkpt lat="44.65840542728134" lon="0.3926205907626933"><ele>53.0</ele><time>2026-04-19T08:42:44.998Z</time></trkpt><trkpt lat="44.65856230066369" lon="0.39279361256318557"><ele>53.0</ele><time>2026-04-19T08:42:45.998Z</time></trkpt><trkpt lat="44.65871898388046" lon="0.39295986412762696"><ele>53.0</ele><time>2026-04-19T08:42:46.998Z</time></trkpt><trkpt lat="44.65885961715846" lon="0.3931499508928688"><ele>52.333333333333336</ele><time>2026-04-19T08:42:47.998Z</time></trkpt><trkpt lat="44.65901043744277" lon="0.3933255978637168"><ele>51.66666666666667</ele><time>2026-04-19T08:42:48.998Z</time></trkpt><trkpt lat="44.65918887463757" lon="0.39346277075357816"><ele>51.0</ele><time>2026-04-19T08:42:49.998Z</time></trkpt><trkpt lat="44.65933465725914" lon="0.39361767591615626"><ele>50.66666666666667</ele><time>2026-04-19T08:42:50.998Z</time></trkpt><trkpt lat="44.659493463787065" lon="0.3937577596721635"><ele>50.333333333333336</ele><time>2026-04-19T08:42:51.998Z</time></trkpt><trkpt lat="44.65964614819638" lon="0.3939047858337778"><ele>50.0</ele><time>2026-04-19T08:42:52.998Z</time></trkpt><trkpt lat="44.65980355886897" lon="0.3940481529796129"><ele>50.0</ele><time>2026-04-19T08:42:53.998Z</time></trkpt><trkpt lat="44.65995453227258" lon="0.3941909616931934"><ele>50.0</ele><time>2026-04-19T08:42:54.998Z</time></trkpt><trkpt lat="44.66010695578946" lon="0.39432193131263565"><ele>50.0</ele><time>2026-04-19T08:42:55.998Z</time></trkpt><trkpt lat="44.66025088009881" lon="0.39445098262734807"><ele>50.0</ele><time>2026-04-19T08:42:56.998Z</time></trkpt><trkpt lat="44.66038793698281" lon="0.39458084523078746"><ele>50.0</ele><time>2026-04-19T08:42:57.998Z</time></trkpt><trkpt lat="44.66050918543998" lon="0.3946995503508138"><ele>50.0</ele><time>2026-04-19T08:42:58.998Z</time></trkpt><trkpt lat="44.66062131880864" lon="0.394811475406616"><ele>50.0</ele><time>2026-04-19T08:42:59.998Z</time></trkpt><trkpt lat="44.66072991115401" lon="0.39492529957224554"><ele>50.0</ele><time>2026-04-19T08:43:00.998Z</time></trkpt><trkpt lat="44.660835033651686" lon="0.39502911156351844"><ele>50.0</ele><time>2026-04-19T08:43:01.998Z</time></trkpt><trkpt lat="44.66093415751898" lon="0.3951293690441731"><ele>50.0</ele><time>2026-04-19T08:43:02.998Z</time></trkpt><trkpt lat="44.66104536892687" lon="0.39523069352653395"><ele>49.5</ele><time>2026-04-19T08:43:03.998Z</time></trkpt><trkpt lat="44.6611506905512" lon="0.3953345284328257"><ele>49.0</ele><time>2026-04-19T08:43:04.998Z</time></trkpt><trkpt lat="44.66124278742039" lon="0.39544569124463275"><ele>48.5</ele><time>2026-04-19T08:43:05.998Z</time></trkpt><trkpt lat="44.66134456327991" lon="0.39554429350829856"><ele>48.0</ele><time>2026-04-19T08:43:06.998Z</time></trkpt><trkpt lat="44.661446408282785" lon="0.3956428868606724"><ele>49.0</ele><time>2026-04-19T08:43:07.998Z</time></trkpt><trkpt lat="44.66155291526051" lon="0.39573948856436"><ele>50.0</ele><time>2026-04-19T08:43:08.998Z</time></trkpt><trkpt lat="44.66165200968888" lon="0.39584002034008453"><ele>51.0</ele><time>2026-04-19T08:43:09.998Z</time></trkpt><trkpt lat="44.661758952382264" lon="0.39593210547970953"><ele>52.0</ele><time>2026-04-19T08:43:10.998Z</time></trkpt><trkpt lat="44.66185728979285" lon="0.39602703409561346"><ele>51.5</ele><time>2026-04-19T08:43:11.998Z</time></trkpt><trkpt lat="44.66196608703961" lon="0.39612458736813966"><ele>51.0</ele><time>2026-04-19T08:43:12.998Z</time></trkpt><trkpt lat="44.66207249542741" lon="0.3962167454823313"><ele>50.5</ele><time>2026-04-19T08:43:13.998Z</time></trkpt><trkpt lat="44.662180856682795" lon="0.39630380573151"><ele>50.0</ele><time>2026-04-19T08:43:14.998Z</time></trkpt><trkpt lat="44.662288018844976" lon="0.3963975693505508"><ele>51.5</ele><time>2026-04-19T08:43:15.998Z</time></trkpt><trkpt lat="44.66239930987573" lon="0.3964902519530684"><ele>53.0</ele><time>2026-04-19T08:43:16.998Z</time></trkpt><trkpt lat="44.66251300073248" lon="0.3965936012860049"><ele>54.5</ele><time>2026-04-19T08:43:17.998Z</time></trkpt><trkpt lat="44.66262394641546" lon="0.39670347490405333"><ele>56.0</ele><time>2026-04-19T08:43:18.998Z</time></trkpt><trkpt lat="44.6627347345451" lon="0.39681502185844486"><ele>55.5</ele><time>2026-04-19T08:43:19.997Z</time></trkpt><trkpt lat="44.662847297759754" lon="0.3969183200998316"><ele>55.0</ele><time>2026-04-19T08:43:20.997Z</time></trkpt><trkpt lat="44.66296545488102" lon="0.3970156644658255"><ele>54.5</ele><time>2026-04-19T08:43:21.997Z</time></trkpt><trkpt lat="44.66307754291306" lon="0.3971199584041122"><ele>54.0</ele><time>2026-04-19T08:43:22.997Z</time></trkpt><trkpt lat="44.66318461236059" lon="0.3972237633562794"><ele>54.0</ele><time>2026-04-19T08:43:23.997Z</time></trkpt><trkpt lat="44.66328722493317" lon="0.39731366173158184"><ele>54.0</ele><time>2026-04-19T08:43:24.997Z</time></trkpt><trkpt lat="44.66338634869376" lon="0.3974026415502879"><ele>54.0</ele><time>2026-04-19T08:43:25.997Z</time></trkpt><trkpt lat="44.66347855831739" lon="0.3974853647427136"><ele>54.0</ele><time>2026-04-19T08:43:26.997Z</time></trkpt><trkpt lat="44.66357207325718" lon="0.39756378880921106"><ele>53.400000000000006</ele><time>2026-04-19T08:43:27.997Z</time></trkpt><trkpt lat="44.663667447553976" lon="0.3976739462079808"><ele>52.800000000000004</ele><time>2026-04-19T08:43:28.997Z</time></trkpt><trkpt lat="44.66376738461666" lon="0.3977595032495931"><ele>52.2</ele><time>2026-04-19T08:43:29.997Z</time></trkpt><trkpt lat="44.66385541959149" lon="0.3978470949220128"><ele>51.599999999999994</ele><time>2026-04-19T08:43:30.997Z</time></trkpt><trkpt lat="44.663926158229096" lon="0.39791896495908247"><ele>51.0</ele><time>2026-04-19T08:43:31.997Z</time></trkpt><trkpt lat="44.663989580878045" lon="0.39798042163416486"><ele>52.0</ele><time>2026-04-19T08:43:32.997Z</time></trkpt><trkpt lat="44.66405568538555" lon="0.3980360302376911"><ele>53.0</ele><time>2026-04-19T08:43:33.997Z</time></trkpt><trkpt lat="44.66411399162319" lon="0.3980892267325121"><ele>54.0</ele><time>2026-04-19T08:43:34.997Z</time></trkpt><trkpt lat="44.664176657233426" lon="0.39815155043306427"><ele>55.0</ele><time>2026-04-19T08:43:35.997Z</time></trkpt><trkpt lat="44.6642440706977" lon="0.39821613291714975"><ele>56.0</ele><time>2026-04-19T08:43:36.997Z</time></trkpt><trkpt lat="44.66432206231408" lon="0.3982836548117548"><ele>57.0</ele><time>2026-04-19T08:43:37.997Z</time></trkpt><trkpt lat="44.664397263879444" lon="0.3983581774145784"><ele>56.400000000000006</ele><time>2026-04-19T08:43:38.997Z</time></trkpt><trkpt lat="44.664476300763106" lon="0.3984352178318631"><ele>55.800000000000004</ele><time>2026-04-19T08:43:39.997Z</time></trkpt><trkpt lat="44.664548360307286" lon="0.3985120625157145"><ele>55.2</ele><time>2026-04-19T08:43:40.997Z</time></trkpt><trkpt lat="44.66463544750837" lon="0.3985806433672444"><ele>54.6</ele><time>2026-04-19T08:43:41.997Z</time></trkpt><trkpt lat="44.66471639421956" lon="0.3986457891390584"><ele>54.0</ele><time>2026-04-19T08:43:42.997Z</time></trkpt><trkpt lat="44.66479481831243" lon="0.3987041255430825"><ele>54.0</ele><time>2026-04-19T08:43:43.997Z</time></trkpt><trkpt lat="44.664873119122575" lon="0.3987618330969298"><ele>54.0</ele><time>2026-04-19T08:43:44.997Z</time></trkpt><trkpt lat="44.664951346699574" lon="0.39878355571727153"><ele>54.0</ele><time>2026-04-19T08:43:45.997Z</time></trkpt><trkpt lat="44.665034679689235" lon="0.39881290621238535"><ele>54.0</ele><time>2026-04-19T08:43:46.997Z</time></trkpt><trkpt lat="44.66511845269582" lon="0.39881870673130576"><ele>54.0</ele><time>2026-04-19T08:43:47.997Z</time></trkpt><trkpt lat="44.66520222113511" lon="0.39883141596749494"><ele>54.0</ele><time>2026-04-19T08:43:48.997Z</time></trkpt><trkpt lat="44.665280942135624" lon="0.3988326573847135"><ele>54.0</ele><time>2026-04-19T08:43:49.997Z</time></trkpt><trkpt lat="44.665353362847554" lon="0.3988316974244845"><ele>54.0</ele><time>2026-04-19T08:43:50.997Z</time></trkpt><trkpt lat="44.665416356672054" lon="0.3988401225014602"><ele>54.0</ele><time>2026-04-19T08:43:51.997Z</time></trkpt><trkpt lat="44.665487504687526" lon="0.3988462809919209"><ele>54.0</ele><time>2026-04-19T08:43:52.997Z</time></trkpt><trkpt lat="44.66555799159164" lon="0.39886074195341586"><ele>54.0</ele><time>2026-04-19T08:43:53.997Z</time></trkpt><trkpt lat="44.66562397572211" lon="0.3988685017331119"><ele>54.0</ele><time>2026-04-19T08:43:54.997Z</time></trkpt><trkpt lat="44.66569886257279" lon="0.39888148207326835"><ele>54.0</ele><time>2026-04-19T08:43:55.997Z</time></trkpt><trkpt lat="44.66577059427408" lon="0.3988914260863589"><ele>54.0</ele><time>2026-04-19T08:43:56.997Z</time></trkpt><trkpt lat="44.66584610285997" lon="0.3988971797869912"><ele>54.0</ele><time>2026-04-19T08:43:57.997Z</time></trkpt><trkpt lat="44.66591790642652" lon="0.39891427103583443"><ele>54.0</ele><time>2026-04-19T08:43:58.997Z</time></trkpt><trkpt lat="44.66599693422176" lon="0.3989209021874065"><ele>54.0</ele><time>2026-04-19T08:43:59.997Z</time></trkpt><trkpt lat="44.666066702069706" lon="0.3989420394770026"><ele>54.0</ele><time>2026-04-19T08:44:00.997Z</time></trkpt><trkpt lat="44.66614519307872" lon="0.39893952320286247"><ele>54.0</ele><time>2026-04-19T08:44:01.997Z</time></trkpt><trkpt lat="44.666211308539225" lon="0.39894854451822526"><ele>54.0</ele><time>2026-04-19T08:44:02.997Z</time></trkpt><trkpt lat="44.666279055307484" lon="0.3989650767160222"><ele>54.2</ele><time>2026-04-19T08:44:03.997Z</time></trkpt><trkpt lat="44.666348243956946" lon="0.3989783694908363"><ele>54.400000000000006</ele><time>2026-04-19T08:44:04.997Z</time></trkpt><trkpt lat="44.666472331476626" lon="0.39898062431091996"><ele>54.6</ele><time>2026-04-19T08:44:06.997Z</time></trkpt><trkpt lat="44.66659921935042" lon="0.3989784844580545"><ele>54.8</ele><time>2026-04-19T08:44:08.997Z</time></trkpt><trkpt lat="44.66666941458393" lon="0.3990023233781594"><ele>55.0</ele><time>2026-04-19T08:44:09.997Z</time></trkpt><trkpt lat="44.66674300310757" lon="0.3990214385938567"><ele>54.99999999999999</ele><time>2026-04-19T08:44:10.997Z</time></trkpt><trkpt lat="44.66682527971922" lon="0.39904019958867915"><ele>55.0</ele><time>2026-04-19T08:44:11.997Z</time></trkpt><trkpt lat="44.666901838997916" lon="0.39905606492119583"><ele>55.0</ele><time>2026-04-19T08:44:12.997Z</time></trkpt><trkpt lat="44.6669803375766" lon="0.39905625505607284"><ele>55.0</ele><time>2026-04-19T08:44:13.997Z</time></trkpt><trkpt lat="44.667055688876665" lon="0.39906139269524354"><ele>55.0</ele><time>2026-04-19T08:44:14.997Z</time></trkpt><trkpt lat="44.66712220497595" lon="0.39907515470061256"><ele>54.99999999999999</ele><time>2026-04-19T08:44:15.997Z</time></trkpt><trkpt lat="44.66718508769583" lon="0.3990816668679396"><ele>55.0</ele><time>2026-04-19T08:44:16.997Z</time></trkpt><trkpt lat="44.667252965236166" lon="0.39909608852778466"><ele>54.99999999999999</ele><time>2026-04-19T08:44:17.997Z</time></trkpt><trkpt lat="44.66732391152095" lon="0.3991086491177701"><ele>55.0</ele><time>2026-04-19T08:44:18.997Z</time></trkpt><trkpt lat="44.66739452620171" lon="0.39912348839992867"><ele>55.0</ele><time>2026-04-19T08:44:19.997Z</time></trkpt><trkpt lat="44.667464250933115" lon="0.3991271860994715"><ele>55.0</ele><time>2026-04-19T08:44:20.997Z</time></trkpt><trkpt lat="44.66752882643255" lon="0.39913388245789666"><ele>54.99999999999999</ele><time>2026-04-19T08:44:21.997Z</time></trkpt><trkpt lat="44.667650256962716" lon="0.3991493227349031"><ele>55.0</ele><time>2026-04-19T08:44:23.997Z</time></trkpt><trkpt lat="44.667754325144884" lon="0.3991485474978658"><ele>54.6</ele><time>2026-04-19T08:44:25.997Z</time></trkpt><trkpt lat="44.66786982422033" lon="0.3991602670688187"><ele>54.2</ele><time>2026-04-19T08:44:27.997Z</time></trkpt><trkpt lat="44.66799767404544" lon="0.39916719142063867"><ele>53.8</ele><time>2026-04-19T08:44:29.997Z</time></trkpt><trkpt lat="44.66811845400643" lon="0.39916204993602117"><ele>53.4</ele><time>2026-04-19T08:44:31.997Z</time></trkpt><trkpt lat="44.66818942685343" lon="0.3991625814227547"><ele>53.0</ele><time>2026-04-19T08:44:32.997Z</time></trkpt><trkpt lat="44.66825584873814" lon="0.39917119708678545"><ele>53.0</ele><time>2026-04-19T08:44:33.997Z</time></trkpt><trkpt lat="44.668323712910414" lon="0.39917052734843617"><ele>53.0</ele><time>2026-04-19T08:44:34.997Z</time></trkpt><trkpt lat="44.668393176951334" lon="0.3991860961502792"><ele>53.0</ele><time>2026-04-19T08:44:35.997Z</time></trkpt><trkpt lat="44.66846689347492" lon="0.3991894933866191"><ele>53.0</ele><time>2026-04-19T08:44:36.997Z</time></trkpt><trkpt lat="44.66853737299652" lon="0.399188968373592"><ele>53.0</ele><time>2026-04-19T08:44:37.997Z</time></trkpt><trkpt lat="44.668607896079685" lon="0.3991919091713409"><ele>53.0</ele><time>2026-04-19T08:44:38.997Z</time></trkpt><trkpt lat="44.668679484379965" lon="0.39919589853435805"><ele>53.0</ele><time>2026-04-19T08:44:39.997Z</time></trkpt><trkpt lat="44.66875237641062" lon="0.3992121260857373"><ele>53.142857142857146</ele><time>2026-04-19T08:44:40.997Z</time></trkpt><trkpt lat="44.66882371596618" lon="0.3992162155492101"><ele>53.285714285714285</ele><time>2026-04-19T08:44:41.997Z</time></trkpt><trkpt lat="44.66888750234825" lon="0.3992307606846143"><ele>53.42857142857143</ele><time>2026-04-19T08:44:42.997Z</time></trkpt><trkpt lat="44.6689623104428" lon="0.39924534784598015"><ele>53.57142857142857</ele><time>2026-04-19T08:44:43.997Z</time></trkpt><trkpt lat="44.669030235455466" lon="0.3992544238536753"><ele>53.71428571428571</ele><time>2026-04-19T08:44:44.997Z</time></trkpt><trkpt lat="44.66910016246576" lon="0.39925619691633113"><ele>53.857142857142854</ele><time>2026-04-19T08:44:45.997Z</time></trkpt><trkpt lat="44.669176201609254" lon="0.39925907407454686"><ele>54.0</ele><time>2026-04-19T08:44:46.997Z</time></trkpt><trkpt lat="44.66924757127852" lon="0.3992517505202259"><ele>54.0</ele><time>2026-04-19T08:44:47.997Z</time></trkpt><trkpt lat="44.66931543054169" lon="0.399258754236229"><ele>54.0</ele><time>2026-04-19T08:44:48.997Z</time></trkpt><trkpt lat="44.669381539584606" lon="0.39926646126177684"><ele>54.0</ele><time>2026-04-19T08:44:49.997Z</time></trkpt><trkpt lat="44.66945260418236" lon="0.3992596662077289"><ele>54.0</ele><time>2026-04-19T08:44:50.997Z</time></trkpt><trkpt lat="44.66952896162061" lon="0.3992702248326019"><ele>54.0</ele><time>2026-04-19T08:44:51.997Z</time></trkpt><trkpt lat="44.669622871150494" lon="0.39928638607119316"><ele>54.0</ele><time>2026-04-19T08:44:52.997Z</time></trkpt><trkpt lat="44.66971659757581" lon="0.39930698322949176"><ele>54.166666666666664</ele><time>2026-04-19T08:44:53.997Z</time></trkpt><trkpt lat="44.66980092344021" lon="0.3993143037742859"><ele>54.33333333333333</ele><time>2026-04-19T08:44:54.997Z</time></trkpt><trkpt lat="44.66989336239189" lon="0.39931820116016753"><ele>54.5</ele><time>2026-04-19T08:44:55.997Z</time></trkpt><trkpt lat="44.66998497614261" lon="0.39932099033922436"><ele>54.666666666666664</ele><time>2026-04-19T08:44:56.997Z</time></trkpt><trkpt lat="44.670071002392945" lon="0.3993186124859568"><ele>54.83333333333333</ele><time>2026-04-19T08:44:57.997Z</time></trkpt><trkpt lat="44.67015479455922" lon="0.39932843588137545"><ele>55.0</ele><time>2026-04-19T08:44:58.997Z</time></trkpt><trkpt lat="44.67023573504743" lon="0.3993246578484395"><ele>54.83333333333333</ele><time>2026-04-19T08:44:59.997Z</time></trkpt><trkpt lat="44.67032486366368" lon="0.3993284740750668"><ele>54.666666666666664</ele><time>2026-04-19T08:45:00.997Z</time></trkpt><trkpt lat="44.67040010477336" lon="0.39934829818779743"><ele>54.5</ele><time>2026-04-19T08:45:01.997Z</time></trkpt><trkpt lat="44.67048249608728" lon="0.3993491679709367"><ele>54.33333333333333</ele><time>2026-04-19T08:45:02.997Z</time></trkpt><trkpt lat="44.67056931395468" lon="0.39935960304680673"><ele>54.166666666666664</ele><time>2026-04-19T08:45:03.997Z</time></trkpt><trkpt lat="44.67064979513627" lon="0.39937025339952803"><ele>54.0</ele><time>2026-04-19T08:45:04.997Z</time></trkpt><trkpt lat="44.67074545713191" lon="0.3993821392782525"><ele>54.0</ele><time>2026-04-19T08:45:05.997Z</time></trkpt><trkpt lat="44.67083826373022" lon="0.3993915679748977"><ele>54.00000000000001</ele><time>2026-04-19T08:45:06.997Z</time></trkpt><trkpt lat="44.67092732730387" lon="0.39940023215231124"><ele>54.00000000000001</ele><time>2026-04-19T08:45:07.997Z</time></trkpt><trkpt lat="44.6710131699619" lon="0.39940653403302767"><ele>54.0</ele><time>2026-04-19T08:45:08.997Z</time></trkpt><trkpt lat="44.671106891200246" lon="0.39941850472332086"><ele>54.0</ele><time>2026-04-19T08:45:09.997Z</time></trkpt><trkpt lat="44.67120328778831" lon="0.3994318745282707"><ele>54.0</ele><time>2026-04-19T08:45:10.997Z</time></trkpt><trkpt lat="44.67128547664243" lon="0.3994374063518446"><ele>54.0</ele><time>2026-04-19T08:45:11.997Z</time></trkpt><trkpt lat="44.671367011326744" lon="0.3994464304856104"><ele>54.0</ele><time>2026-04-19T08:45:12.997Z</time></trkpt><trkpt lat="44.671445246034104" lon="0.3994662507788687"><ele>54.0</ele><time>2026-04-19T08:45:13.997Z</time></trkpt><trkpt lat="44.671524685450194" lon="0.3994753388582906"><ele>54.0</ele><time>2026-04-19T08:45:14.997Z</time></trkpt><trkpt lat="44.67159918295122" lon="0.39949121593374776"><ele>54.0</ele><time>2026-04-19T08:45:15.997Z</time></trkpt><trkpt lat="44.6716728868993" lon="0.3995218202200003"><ele>54.0</ele><time>2026-04-19T08:45:16.997Z</time></trkpt><trkpt lat="44.671745684167966" lon="0.39957267396409124"><ele>54.0</ele><time>2026-04-19T08:45:17.997Z</time></trkpt><trkpt lat="44.67182035072401" lon="0.3996012944010878"><ele>54.0</ele><time>2026-04-19T08:45:18.997Z</time></trkpt><trkpt lat="44.67189656800008" lon="0.39965702761500854"><ele>54.0</ele><time>2026-04-19T08:45:19.997Z</time></trkpt><trkpt lat="44.67197152271526" lon="0.3997253999903733"><ele>54.0</ele><time>2026-04-19T08:45:20.997Z</time></trkpt><trkpt lat="44.67204538750231" lon="0.39979893148770296"><ele>54.0</ele><time>2026-04-19T08:45:21.997Z</time></trkpt><trkpt lat="44.67211821085769" lon="0.3998724911123909"><ele>53.833333333333336</ele><time>2026-04-19T08:45:22.997Z</time></trkpt><trkpt lat="44.6721690149836" lon="0.3999504223716367"><ele>53.66666666666667</ele><time>2026-04-19T08:45:23.997Z</time></trkpt><trkpt lat="44.67222029171799" lon="0.4000326614454083"><ele>53.5</ele><time>2026-04-19T08:45:24.997Z</time></trkpt><trkpt lat="44.672280112675345" lon="0.4001095742857807"><ele>53.333333333333336</ele><time>2026-04-19T08:45:25.997Z</time></trkpt><trkpt lat="44.67234018538898" lon="0.40018513948204304"><ele>53.16666666666667</ele><time>2026-04-19T08:45:26.997Z</time></trkpt><trkpt lat="44.67238792168371" lon="0.4002743365416041"><ele>53.0</ele><time>2026-04-19T08:45:27.997Z</time></trkpt><trkpt lat="44.672450921894416" lon="0.40034539586884793"><ele>53.00000000000001</ele><time>2026-04-19T08:45:28.997Z</time></trkpt><trkpt lat="44.67251420658908" lon="0.4004233011993852"><ele>53.0</ele><time>2026-04-19T08:45:29.997Z</time></trkpt><trkpt lat="44.67257640297417" lon="0.40049571635731096"><ele>53.0</ele><time>2026-04-19T08:45:30.997Z</time></trkpt><trkpt lat="44.67263363132587" lon="0.4005780933752508"><ele>53.0</ele><time>2026-04-19T08:45:31.997Z</time></trkpt><trkpt lat="44.67269230208469" lon="0.40065457583645003"><ele>53.00000000000001</ele><time>2026-04-19T08:45:32.997Z</time></trkpt><trkpt lat="44.67275667847932" lon="0.40072582440264626"><ele>53.0</ele><time>2026-04-19T08:45:33.996Z</time></trkpt><trkpt lat="44.672812815691245" lon="0.40081081491125786"><ele>52.50000000000001</ele><time>2026-04-19T08:45:34.997Z</time></trkpt><trkpt lat="44.672870985488075" lon="0.40089078443596365"><ele>52.0</ele><time>2026-04-19T08:45:35.997Z</time></trkpt><trkpt lat="44.67293600915155" lon="0.40096103398016875"><ele>51.5</ele><time>2026-04-19T08:45:36.997Z</time></trkpt><trkpt lat="44.6729946188679" lon="0.40105015525429843"><ele>51.0</ele><time>2026-04-19T08:45:37.997Z</time></trkpt><trkpt lat="44.6730470207833" lon="0.4011368870679371"><ele>50.50000000000001</ele><time>2026-04-19T08:45:38.997Z</time></trkpt><trkpt lat="44.67310754910981" lon="0.4012028373107784"><ele>50.0</ele><time>2026-04-19T08:45:39.997Z</time></trkpt><trkpt lat="44.67316619092053" lon="0.40126468633010853"><ele>50.333333333333336</ele><time>2026-04-19T08:45:40.997Z</time></trkpt><trkpt lat="44.67327153228206" lon="0.4013962164676852"><ele>50.66666666666667</ele><time>2026-04-19T08:45:43.997Z</time></trkpt><trkpt lat="44.67332361994273" lon="0.4014631804336415"><ele>51.0</ele><time>2026-04-19T08:45:45.997Z</time></trkpt><trkpt lat="44.67337480993206" lon="0.40153004637769624"><ele>51.33333333333333</ele><time>2026-04-19T08:45:47.997Z</time></trkpt><trkpt lat="44.67341802417682" lon="0.40159756372483124"><ele>51.666666666666664</ele><time>2026-04-19T08:45:49.997Z</time></trkpt><trkpt lat="44.67348276968428" lon="0.4016689643544435"><ele>52.0</ele><time>2026-04-19T08:45:51.997Z</time></trkpt><trkpt lat="44.673546162092045" lon="0.40176153376275775"><ele>51.6</ele><time>2026-04-19T08:45:53.997Z</time></trkpt><trkpt lat="44.67361606865679" lon="0.4018382904496066"><ele>51.2</ele><time>2026-04-19T08:45:55.997Z</time></trkpt><trkpt lat="44.673688052243335" lon="0.40191233451670766"><ele>50.8</ele><time>2026-04-19T08:45:57.997Z</time></trkpt><trkpt lat="44.673767329124786" lon="0.40203785374013135"><ele>50.4</ele><time>2026-04-19T08:45:59.997Z</time></trkpt><trkpt lat="44.67383098282921" lon="0.40211927874149367"><ele>50.0</ele><time>2026-04-19T08:46:00.997Z</time></trkpt><trkpt lat="44.673890075078994" lon="0.4021995139663865"><ele>50.00000000000001</ele><time>2026-04-19T08:46:01.997Z</time></trkpt><trkpt lat="44.6739459757048" lon="0.4022898896620815"><ele>50.0</ele><time>2026-04-19T08:46:02.997Z</time></trkpt><trkpt lat="44.67401342382395" lon="0.4023626455118456"><ele>50.0</ele><time>2026-04-19T08:46:03.997Z</time></trkpt><trkpt lat="44.67407533267522" lon="0.40244764562079965"><ele>50.0</ele><time>2026-04-19T08:46:04.997Z</time></trkpt><trkpt lat="44.67414554932015" lon="0.40253571731179183"><ele>50.00000000000001</ele><time>2026-04-19T08:46:05.997Z</time></trkpt><trkpt lat="44.67421460686591" lon="0.4026230763473773"><ele>50.0</ele><time>2026-04-19T08:46:06.997Z</time></trkpt><trkpt lat="44.67427501575496" lon="0.4027070021118198"><ele>50.0</ele><time>2026-04-19T08:46:07.997Z</time></trkpt><trkpt lat="44.67433371482498" lon="0.4027961279529802"><ele>50.0</ele><time>2026-04-19T08:46:08.997Z</time></trkpt><trkpt lat="44.674387608300755" lon="0.40289306902155625"><ele>50.0</ele><time>2026-04-19T08:46:09.997Z</time></trkpt><trkpt lat="44.67445706463849" lon="0.4029821778985743"><ele>50.0</ele><time>2026-04-19T08:46:10.997Z</time></trkpt><trkpt lat="44.6745320204605" lon="0.40306171026471754"><ele>50.0</ele><time>2026-04-19T08:46:11.997Z</time></trkpt><trkpt lat="44.67461053306071" lon="0.40315974223285067"><ele>50.0</ele><time>2026-04-19T08:46:12.997Z</time></trkpt><trkpt lat="44.67468552298013" lon="0.40324894878055645"><ele>50.0</ele><time>2026-04-19T08:46:13.997Z</time></trkpt><trkpt lat="44.674769816568336" lon="0.4033486620663735"><ele>50.0</ele><time>2026-04-19T08:46:14.997Z</time></trkpt><trkpt lat="44.674858800022136" lon="0.4034572721912698"><ele>50.0</ele><time>2026-04-19T08:46:15.997Z</time></trkpt><trkpt lat="44.67493746490126" lon="0.4035723380884748"><ele>50.0</ele><time>2026-04-19T08:46:16.997Z</time></trkpt><trkpt lat="44.67501172217822" lon="0.40368024964224164"><ele>50.0</ele><time>2026-04-19T08:46:17.997Z</time></trkpt><trkpt lat="44.67508070661013" lon="0.40378623050945284"><ele>50.0</ele><time>2026-04-19T08:46:18.997Z</time></trkpt><trkpt lat="44.67515253995192" lon="0.403887744195246"><ele>50.0</ele><time>2026-04-19T08:46:19.997Z</time></trkpt><trkpt lat="44.675212568705916" lon="0.40397965431584854"><ele>50.0</ele><time>2026-04-19T08:46:20.997Z</time></trkpt><trkpt lat="44.675264724565245" lon="0.40405163196552385"><ele>50.0</ele><time>2026-04-19T08:46:21.997Z</time></trkpt><trkpt lat="44.67534952446737" lon="0.40417818050654175"><ele>50.4</ele><time>2026-04-19T08:46:23.997Z</time></trkpt><trkpt lat="44.67541380927073" lon="0.4042957506352191"><ele>50.8</ele><time>2026-04-19T08:46:25.997Z</time></trkpt><trkpt lat="44.67547220936817" lon="0.40441742043521806"><ele>51.2</ele><time>2026-04-19T08:46:27.997Z</time></trkpt><trkpt lat="44.67549515154793" lon="0.40453878946477223"><ele>51.6</ele><time>2026-04-19T08:46:29.997Z</time></trkpt><trkpt lat="44.675544782628805" lon="0.40462915713524905"><ele>52.0</ele><time>2026-04-19T08:46:32.997Z</time></trkpt><trkpt lat="44.67567186953387" lon="0.40469370645064673"><ele>52.2</ele><time>2026-04-19T08:46:35.997Z</time></trkpt><trkpt lat="44.67576484772924" lon="0.40478247474155465"><ele>52.400000000000006</ele><time>2026-04-19T08:46:37.997Z</time></trkpt><trkpt lat="44.675816205825186" lon="0.40483499091507774"><ele>52.599999999999994</ele><time>2026-04-19T08:46:38.997Z</time></trkpt><trkpt lat="44.67589834077742" lon="0.4049449972105291"><ele>52.8</ele><time>2026-04-19T08:46:40.997Z</time></trkpt><trkpt lat="44.67596259833674" lon="0.4050216356033939"><ele>53.0</ele><time>2026-04-19T08:46:41.997Z</time></trkpt><trkpt lat="44.67605124099715" lon="0.4051327186145729"><ele>53.0</ele><time>2026-04-19T08:46:42.997Z</time></trkpt><trkpt lat="44.676154143217644" lon="0.4052604430664661"><ele>53.0</ele><time>2026-04-19T08:46:43.997Z</time></trkpt><trkpt lat="44.676270622623136" lon="0.40544383604187134"><ele>53.0</ele><time>2026-04-19T08:46:44.997Z</time></trkpt><trkpt lat="44.67640785999604" lon="0.40566787310714925"><ele>53.333333333333336</ele><time>2026-04-19T08:46:45.997Z</time></trkpt><trkpt lat="44.67654640115759" lon="0.4058948270844067"><ele>53.66666666666667</ele><time>2026-04-19T08:46:46.997Z</time></trkpt><trkpt lat="44.676696812740765" lon="0.406118985501688"><ele>54.0</ele><time>2026-04-19T08:46:47.997Z</time></trkpt><trkpt lat="44.67685405347221" lon="0.4063462131756099"><ele>54.33333333333333</ele><time>2026-04-19T08:46:48.997Z</time></trkpt><trkpt lat="44.677004709162084" lon="0.40657079636251664"><ele>54.666666666666664</ele><time>2026-04-19T08:46:49.997Z</time></trkpt><trkpt lat="44.67714753822283" lon="0.40678789897401224"><ele>55.0</ele><time>2026-04-19T08:46:50.997Z</time></trkpt><trkpt lat="44.6772875051551" lon="0.4069851193946456"><ele>55.0</ele><time>2026-04-19T08:46:51.997Z</time></trkpt><trkpt lat="44.67741282985366" lon="0.4071836346393296"><ele>55.0</ele><time>2026-04-19T08:46:52.997Z</time></trkpt><trkpt lat="44.67753504885658" lon="0.4073810358234423"><ele>55.0</ele><time>2026-04-19T08:46:53.997Z</time></trkpt><trkpt lat="44.67764580380616" lon="0.4075805161959241"><ele>55.0</ele><time>2026-04-19T08:46:54.997Z</time></trkpt><trkpt lat="44.67774154070808" lon="0.4077967140684296"><ele>55.0</ele><time>2026-04-19T08:46:55.997Z</time></trkpt><trkpt lat="44.67784013933391" lon="0.408018730669519"><ele>55.0</ele><time>2026-04-19T08:46:56.997Z</time></trkpt><trkpt lat="44.67794127544207" lon="0.40823459738505286"><ele>55.33333333333333</ele><time>2026-04-19T08:46:57.997Z</time></trkpt><trkpt lat="44.678044271802726" lon="0.40845226996525785"><ele>55.66666666666667</ele><time>2026-04-19T08:46:58.997Z</time></trkpt><trkpt lat="44.67814009634233" lon="0.4086650628284934"><ele>56.0</ele><time>2026-04-19T08:46:59.997Z</time></trkpt><trkpt lat="44.678234073323424" lon="0.4088590324214255"><ele>55.333333333333336</ele><time>2026-04-19T08:47:00.997Z</time></trkpt><trkpt lat="44.67832463306169" lon="0.4090663389925513"><ele>54.66666666666667</ele><time>2026-04-19T08:47:01.997Z</time></trkpt><trkpt lat="44.678417401331" lon="0.4092774072150599"><ele>54.0</ele><time>2026-04-19T08:47:02.997Z</time></trkpt><trkpt lat="44.678519207399106" lon="0.40949091798821613"><ele>54.66666666666667</ele><time>2026-04-19T08:47:03.997Z</time></trkpt><trkpt lat="44.67861654878742" lon="0.4097039099896119"><ele>55.333333333333336</ele><time>2026-04-19T08:47:04.997Z</time></trkpt><trkpt lat="44.678718573533004" lon="0.4099237128890205"><ele>56.0</ele><time>2026-04-19T08:47:05.997Z</time></trkpt><trkpt lat="44.67881592344751" lon="0.4101426377899919"><ele>56.0</ele><time>2026-04-19T08:47:06.997Z</time></trkpt><trkpt lat="44.678923217915965" lon="0.41036089938039005"><ele>56.0</ele><time>2026-04-19T08:47:07.997Z</time></trkpt><trkpt lat="44.6790098893225" lon="0.41057042431601176"><ele>56.0</ele><time>2026-04-19T08:47:08.997Z</time></trkpt><trkpt lat="44.67908669455387" lon="0.4107997141554844"><ele>56.0</ele><time>2026-04-19T08:47:09.996Z</time></trkpt><trkpt lat="44.67913628506172" lon="0.4110557713388472"><ele>56.0</ele><time>2026-04-19T08:47:10.996Z</time></trkpt><trkpt lat="44.679189471323426" lon="0.4116023519478103"><ele>57.66666666666667</ele><time>2026-04-19T08:47:12.996Z</time></trkpt><trkpt lat="44.67919702383202" lon="0.41187743075949573"><ele>59.33333333333333</ele><time>2026-04-19T08:47:13.996Z</time></trkpt><trkpt lat="44.67920207288379" lon="0.4121440418180595"><ele>61.0</ele><time>2026-04-19T08:47:14.996Z</time></trkpt><trkpt lat="44.679201290785805" lon="0.4123987433201817"><ele>61.5</ele><time>2026-04-19T08:47:15.996Z</time></trkpt><trkpt lat="44.679209397559696" lon="0.4126426098286602"><ele>62.0</ele><time>2026-04-19T08:47:16.996Z</time></trkpt><trkpt lat="44.679240798896835" lon="0.41312361719962787"><ele>62.66666666666667</ele><time>2026-04-19T08:47:18.996Z</time></trkpt><trkpt lat="44.679278310890034" lon="0.41334307814068477"><ele>63.33333333333333</ele><time>2026-04-19T08:47:19.996Z</time></trkpt><trkpt lat="44.67933893697632" lon="0.4135545173754973"><ele>64.0</ele><time>2026-04-19T08:47:20.996Z</time></trkpt><trkpt lat="44.67941701498819" lon="0.41375716679583396"><ele>67.66666666666666</ele><time>2026-04-19T08:47:21.996Z</time></trkpt><trkpt lat="44.67952565775533" lon="0.4139310751926064"><ele>71.33333333333333</ele><time>2026-04-19T08:47:22.996Z</time></trkpt><trkpt lat="44.67965637204272" lon="0.4140814850615935"><ele>75.0</ele><time>2026-04-19T08:47:23.996Z</time></trkpt><trkpt lat="44.67980837071195" lon="0.41422490476449725"><ele>75.0</ele><time>2026-04-19T08:47:24.996Z</time></trkpt><trkpt lat="44.67997287153655" lon="0.4143405187513107"><ele>75.0</ele><time>2026-04-19T08:47:25.996Z</time></trkpt><trkpt lat="44.68015201323868" lon="0.41442206817615834"><ele>75.0</ele><time>2026-04-19T08:47:26.996Z</time></trkpt><trkpt lat="44.680331803378785" lon="0.41449521019688373"><ele>73.33333333333333</ele><time>2026-04-19T08:47:27.996Z</time></trkpt><trkpt lat="44.68051224593786" lon="0.4145575301041898"><ele>71.66666666666666</ele><time>2026-04-19T08:47:28.996Z</time></trkpt><trkpt lat="44.680701361081745" lon="0.4146262892294189"><ele>70.0</ele><time>2026-04-19T08:47:29.996Z</time></trkpt><trkpt lat="44.68089495224623" lon="0.4146548274895795"><ele>70.0</ele><time>2026-04-19T08:47:30.996Z</time></trkpt><trkpt lat="44.68108623413783" lon="0.41470635226061403"><ele>70.0</ele><time>2026-04-19T08:47:31.997Z</time></trkpt><trkpt lat="44.68128592446501" lon="0.41475181514414866"><ele>70.0</ele><time>2026-04-19T08:47:32.997Z</time></trkpt><trkpt lat="44.68148575612919" lon="0.41479272120319877"><ele>73.0</ele><time>2026-04-19T08:47:33.996Z</time></trkpt><trkpt lat="44.681685010822015" lon="0.4148189270412667"><ele>76.0</ele><time>2026-04-19T08:47:34.996Z</time></trkpt><trkpt lat="44.6818841579954" lon="0.4148517724281206"><ele>79.0</ele><time>2026-04-19T08:47:35.996Z</time></trkpt><trkpt lat="44.68208743234332" lon="0.4148811938873283"><ele>80.66666666666666</ele><time>2026-04-19T08:47:36.996Z</time></trkpt><trkpt lat="44.682294714861634" lon="0.4148829807701424"><ele>82.33333333333333</ele><time>2026-04-19T08:47:37.996Z</time></trkpt><trkpt lat="44.68249413946514" lon="0.4148958606385596"><ele>84.0</ele><time>2026-04-19T08:47:38.996Z</time></trkpt><trkpt lat="44.68270554326157" lon="0.41490395244379924"><ele>86.66666666666667</ele><time>2026-04-19T08:47:39.996Z</time></trkpt><trkpt lat="44.682903323575694" lon="0.414909632414162"><ele>89.33333333333334</ele><time>2026-04-19T08:47:40.996Z</time></trkpt><trkpt lat="44.68311004754891" lon="0.4149124738852323"><ele>92.0</ele><time>2026-04-19T08:47:41.996Z</time></trkpt><trkpt lat="44.68330583658649" lon="0.41492831314846546"><ele>92.0</ele><time>2026-04-19T08:47:42.996Z</time></trkpt><trkpt lat="44.683486770039046" lon="0.41496692716309624"><ele>92.0</ele><time>2026-04-19T08:47:43.996Z</time></trkpt><trkpt lat="44.683675160637684" lon="0.41502238500259536"><ele>92.0</ele><time>2026-04-19T08:47:44.996Z</time></trkpt><trkpt lat="44.683868153185166" lon="0.4151070091961986"><ele>93.66666666666667</ele><time>2026-04-19T08:47:45.996Z</time></trkpt><trkpt lat="44.684061090022325" lon="0.415203254254686"><ele>95.33333333333334</ele><time>2026-04-19T08:47:46.996Z</time></trkpt><trkpt lat="44.684256252958804" lon="0.4152835831187232"><ele>97.0</ele><time>2026-04-19T08:47:47.996Z</time></trkpt><trkpt lat="44.68445056210254" lon="0.4153338814671321"><ele>98.33333333333334</ele><time>2026-04-19T08:47:48.996Z</time></trkpt><trkpt lat="44.68464527249797" lon="0.4153777795274434"><ele>99.66666666666666</ele><time>2026-04-19T08:47:49.996Z</time></trkpt><trkpt lat="44.68485114476166" lon="0.4153991946816135"><ele>101.0</ele><time>2026-04-19T08:47:50.996Z</time></trkpt><trkpt lat="44.68504482934913" lon="0.41540607595961"><ele>101.0</ele><time>2026-04-19T08:47:51.996Z</time></trkpt><trkpt lat="44.68524500778914" lon="0.4153898647163586"><ele>101.0</ele><time>2026-04-19T08:47:52.996Z</time></trkpt><trkpt lat="44.68544629154867" lon="0.4153878541511314"><ele>101.0</ele><time>2026-04-19T08:47:53.996Z</time></trkpt><trkpt lat="44.68564573623497" lon="0.4153853253907355"><ele>101.0</ele><time>2026-04-19T08:47:54.996Z</time></trkpt><trkpt lat="44.68584500579971" lon="0.4153840320301991"><ele>101.0</ele><time>2026-04-19T08:47:55.996Z</time></trkpt><trkpt lat="44.68603579887276" lon="0.4153796144548124"><ele>101.0</ele><time>2026-04-19T08:47:56.996Z</time></trkpt><trkpt lat="44.68623625570688" lon="0.4153623722183777"><ele>101.66666666666666</ele><time>2026-04-19T08:47:57.996Z</time></trkpt><trkpt lat="44.686436278216156" lon="0.41533614653780965"><ele>102.33333333333334</ele><time>2026-04-19T08:47:58.996Z</time></trkpt><trkpt lat="44.686635812313824" lon="0.41529376895370385"><ele>103.0</ele><time>2026-04-19T08:47:59.996Z</time></trkpt><trkpt lat="44.686836946825984" lon="0.4152373982464981"><ele>102.66666666666667</ele><time>2026-04-19T08:48:00.996Z</time></trkpt><trkpt lat="44.68704404744174" lon="0.4151660747823345"><ele>102.33333333333334</ele><time>2026-04-19T08:48:01.996Z</time></trkpt><trkpt lat="44.687257437161826" lon="0.41509866061092265"><ele>102.0</ele><time>2026-04-19T08:48:02.996Z</time></trkpt><trkpt lat="44.68746781835991" lon="0.415019696022665"><ele>102.0</ele><time>2026-04-19T08:48:03.996Z</time></trkpt><trkpt lat="44.68766777510413" lon="0.4149114469746237"><ele>102.0</ele><time>2026-04-19T08:48:04.996Z</time></trkpt><trkpt lat="44.68786313103032" lon="0.41479477434015083"><ele>102.0</ele><time>2026-04-19T08:48:05.996Z</time></trkpt><trkpt lat="44.688057062036336" lon="0.4146637383135156"><ele>99.33333333333333</ele><time>2026-04-19T08:48:06.996Z</time></trkpt><trkpt lat="44.688250580488926" lon="0.4145292067890862"><ele>96.66666666666666</ele><time>2026-04-19T08:48:07.996Z</time></trkpt><trkpt lat="44.68844979009027" lon="0.41438790161401484"><ele>94.0</ele><time>2026-04-19T08:48:08.996Z</time></trkpt><trkpt lat="44.68864537726676" lon="0.4142324443447075"><ele>93.33333333333333</ele><time>2026-04-19T08:48:09.996Z</time></trkpt><trkpt lat="44.68883702390773" lon="0.41407045669083725"><ele>92.66666666666667</ele><time>2026-04-19T08:48:10.996Z</time></trkpt><trkpt lat="44.68902854534783" lon="0.41390802977236374"><ele>92.0</ele><time>2026-04-19T08:48:11.996Z</time></trkpt><trkpt lat="44.689221139389836" lon="0.4137377378699767"><ele>92.0</ele><time>2026-04-19T08:48:12.996Z</time></trkpt><trkpt lat="44.68941879328631" lon="0.4135653000262749"><ele>92.0</ele><time>2026-04-19T08:48:13.996Z</time></trkpt><trkpt lat="44.68960899159704" lon="0.41340023572419365"><ele>91.33333333333334</ele><time>2026-04-19T08:48:14.996Z</time></trkpt><trkpt lat="44.68979207239947" lon="0.41323945890282265"><ele>90.66666666666667</ele><time>2026-04-19T08:48:15.996Z</time></trkpt><trkpt lat="44.68996573928354" lon="0.413079776730864"><ele>90.0</ele><time>2026-04-19T08:48:16.996Z</time></trkpt><trkpt lat="44.69013621342675" lon="0.41295115761470486"><ele>92.0</ele><time>2026-04-19T08:48:17.996Z</time></trkpt><trkpt lat="44.69029121878297" lon="0.41280743655163665"><ele>94.0</ele><time>2026-04-19T08:48:18.996Z</time></trkpt><trkpt lat="44.69044213945081" lon="0.4126741997243597"><ele>96.0</ele><time>2026-04-19T08:48:19.996Z</time></trkpt><trkpt lat="44.69059821058436" lon="0.41254273633739"><ele>96.0</ele><time>2026-04-19T08:48:20.996Z</time></trkpt><trkpt lat="44.69076755823783" lon="0.4123953680476363"><ele>96.0</ele><time>2026-04-19T08:48:21.996Z</time></trkpt><trkpt lat="44.69092881056555" lon="0.4122652186085395"><ele>96.0</ele><time>2026-04-19T08:48:22.996Z</time></trkpt><trkpt lat="44.69108631772655" lon="0.4121351015034182"><ele>96.66666666666666</ele><time>2026-04-19T08:48:23.996Z</time></trkpt><trkpt lat="44.69123007722942" lon="0.41199378283807797"><ele>97.33333333333333</ele><time>2026-04-19T08:48:24.996Z</time></trkpt><trkpt lat="44.691387960770385" lon="0.4118924289427203"><ele>98.0</ele><time>2026-04-19T08:48:25.996Z</time></trkpt><trkpt lat="44.69155821857977" lon="0.4118137081483294"><ele>98.0</ele><time>2026-04-19T08:48:26.996Z</time></trkpt><trkpt lat="44.69173371636512" lon="0.4117648802355086"><ele>98.0</ele><time>2026-04-19T08:48:27.996Z</time></trkpt><trkpt lat="44.691910796868214" lon="0.4117598046628273"><ele>98.0</ele><time>2026-04-19T08:48:28.996Z</time></trkpt><trkpt lat="44.692095583832206" lon="0.4117755492508089"><ele>100.66666666666666</ele><time>2026-04-19T08:48:29.996Z</time></trkpt><trkpt lat="44.69226607587427" lon="0.4118082482747431"><ele>103.33333333333334</ele><time>2026-04-19T08:48:30.996Z</time></trkpt><trkpt lat="44.69242509791679" lon="0.4118807996249552"><ele>106.0</ele><time>2026-04-19T08:48:31.996Z</time></trkpt><trkpt lat="44.69258866476642" lon="0.41198850673937565"><ele>106.0</ele><time>2026-04-19T08:48:32.996Z</time></trkpt><trkpt lat="44.69274001069917" lon="0.4121021647906813"><ele>106.0</ele><time>2026-04-19T08:48:33.996Z</time></trkpt><trkpt lat="44.6929060727987" lon="0.41221359762234133"><ele>106.0</ele><time>2026-04-19T08:48:34.996Z</time></trkpt><trkpt lat="44.69307417136919" lon="0.4123292115365862"><ele>106.33333333333334</ele><time>2026-04-19T08:48:35.996Z</time></trkpt><trkpt lat="44.693244898606395" lon="0.41242541056448334"><ele>106.66666666666666</ele><time>2026-04-19T08:48:36.996Z</time></trkpt><trkpt lat="44.693403011976656" lon="0.4125206168983641"><ele>107.0</ele><time>2026-04-19T08:48:37.996Z</time></trkpt><trkpt lat="44.693551239246716" lon="0.41262492738991013"><ele>109.0</ele><time>2026-04-19T08:48:38.996Z</time></trkpt><trkpt lat="44.69371250646567" lon="0.4127229613386622"><ele>111.0</ele><time>2026-04-19T08:48:39.996Z</time></trkpt><trkpt lat="44.69387856341984" lon="0.41283574718276905"><ele>113.0</ele><time>2026-04-19T08:48:40.996Z</time></trkpt><trkpt lat="44.694048295522876" lon="0.4129378998622675"><ele>113.0</ele><time>2026-04-19T08:48:41.996Z</time></trkpt><trkpt lat="44.69421837974335" lon="0.4130503213127801"><ele>113.0</ele><time>2026-04-19T08:48:42.996Z</time></trkpt><trkpt lat="44.694392131674284" lon="0.41316628986544035"><ele>113.0</ele><time>2026-04-19T08:48:43.996Z</time></trkpt><trkpt lat="44.6945693612847" lon="0.41328127241896534"><ele>114.33333333333333</ele><time>2026-04-19T08:48:44.996Z</time></trkpt><trkpt lat="44.69474710146305" lon="0.4133985313168616"><ele>115.66666666666666</ele><time>2026-04-19T08:48:45.996Z</time></trkpt><trkpt lat="44.69492960026691" lon="0.4135093776613428"><ele>117.0</ele><time>2026-04-19T08:48:46.996Z</time></trkpt><trkpt lat="44.69511250326378" lon="0.4136226803255164"><ele>116.66666666666666</ele><time>2026-04-19T08:48:47.996Z</time></trkpt><trkpt lat="44.695305171506284" lon="0.41374500421556043"><ele>116.33333333333333</ele><time>2026-04-19T08:48:48.996Z</time></trkpt><trkpt lat="44.6955070300674" lon="0.41387511805654376"><ele>116.0</ele><time>2026-04-19T08:48:49.996Z</time></trkpt><trkpt lat="44.695712149253694" lon="0.4140116899642239"><ele>115.33333333333333</ele><time>2026-04-19T08:48:50.996Z</time></trkpt><trkpt lat="44.6959138672225" lon="0.41415374099860786"><ele>114.66666666666666</ele><time>2026-04-19T08:48:51.996Z</time></trkpt><trkpt lat="44.69611817877585" lon="0.414281951024578"><ele>114.0</ele><time>2026-04-19T08:48:52.996Z</time></trkpt><trkpt lat="44.696318362544275" lon="0.41441907280663104"><ele>112.5</ele><time>2026-04-19T08:48:53.996Z</time></trkpt><trkpt lat="44.696525857677244" lon="0.4145628712575657"><ele>111.0</ele><time>2026-04-19T08:48:54.996Z</time></trkpt><trkpt lat="44.69672807516025" lon="0.41470612114221855"><ele>110.0</ele><time>2026-04-19T08:48:55.996Z</time></trkpt><trkpt lat="44.696930859423006" lon="0.41485601361839586"><ele>109.0</ele><time>2026-04-19T08:48:56.996Z</time></trkpt><trkpt lat="44.69713511831833" lon="0.4150044348714026"><ele>109.0</ele><time>2026-04-19T08:48:57.996Z</time></trkpt><trkpt lat="44.6973409716852" lon="0.4151470515301737"><ele>109.0</ele><time>2026-04-19T08:48:58.996Z</time></trkpt><trkpt lat="44.69754913785287" lon="0.41528836551327175"><ele>108.0</ele><time>2026-04-19T08:48:59.996Z</time></trkpt><trkpt lat="44.69775851474156" lon="0.4154209278687878"><ele>107.0</ele><time>2026-04-19T08:49:00.996Z</time></trkpt><trkpt lat="44.697959098953696" lon="0.4155609059889972"><ele>106.66666666666666</ele><time>2026-04-19T08:49:01.996Z</time></trkpt><trkpt lat="44.69815742808062" lon="0.4156956896577581"><ele>106.33333333333334</ele><time>2026-04-19T08:49:02.996Z</time></trkpt><trkpt lat="44.69835034483023" lon="0.4158325750008895"><ele>106.0</ele><time>2026-04-19T08:49:03.996Z</time></trkpt><trkpt lat="44.69853355670154" lon="0.41595889428981664"><ele>106.66666666666667</ele><time>2026-04-19T08:49:04.996Z</time></trkpt><trkpt lat="44.69870632968517" lon="0.4160803039907274"><ele>107.33333333333334</ele><time>2026-04-19T08:49:05.996Z</time></trkpt><trkpt lat="44.698878568237205" lon="0.41619518734165456"><ele>108.0</ele><time>2026-04-19T08:49:06.996Z</time></trkpt><trkpt lat="44.69903878910766" lon="0.41631443858499784"><ele>108.0</ele><time>2026-04-19T08:49:07.996Z</time></trkpt><trkpt lat="44.6991922224586" lon="0.41641985522621905"><ele>108.0</ele><time>2026-04-19T08:49:08.996Z</time></trkpt><trkpt lat="44.69933870662024" lon="0.41652224310774943"><ele>108.0</ele><time>2026-04-19T08:49:09.996Z</time></trkpt><trkpt lat="44.69948180439892" lon="0.41662429177284777"><ele>109.0</ele><time>2026-04-19T08:49:10.996Z</time></trkpt><trkpt lat="44.699627011335586" lon="0.4167181182910513"><ele>110.0</ele><time>2026-04-19T08:49:11.996Z</time></trkpt><trkpt lat="44.69976131779928" lon="0.41680554107167384"><ele>111.0</ele><time>2026-04-19T08:49:12.996Z</time></trkpt><trkpt lat="44.699900977107404" lon="0.41688892451782117"><ele>111.0</ele><time>2026-04-19T08:49:13.996Z</time></trkpt><trkpt lat="44.70003264830269" lon="0.4169569434809411"><ele>111.0</ele><time>2026-04-19T08:49:14.996Z</time></trkpt><trkpt lat="44.700145895257414" lon="0.4170100197172143"><ele>111.0</ele><time>2026-04-19T08:49:15.996Z</time></trkpt><trkpt lat="44.70024138121046" lon="0.4170367330615499"><ele>111.0</ele><time>2026-04-19T08:49:16.996Z</time></trkpt><trkpt lat="44.700308682407105" lon="0.4170392335359006"><ele>111.0</ele><time>2026-04-19T08:49:17.996Z</time></trkpt><trkpt lat="44.7003495203183" lon="0.4171082477682589"><ele>111.25</ele><time>2026-04-19T08:49:22.996Z</time></trkpt><trkpt lat="44.70019866707282" lon="0.4172084651789092"><ele>111.5</ele><time>2026-04-19T08:49:24.996Z</time></trkpt><trkpt lat="44.70010022052818" lon="0.41724380906059994"><ele>111.75</ele><time>2026-04-19T08:49:25.996Z</time></trkpt><trkpt lat="44.69998316947066" lon="0.4172620941154093"><ele>112.0</ele><time>2026-04-19T08:49:26.996Z</time></trkpt><trkpt lat="44.69987659641269" lon="0.41731996877013433"><ele>112.0</ele><time>2026-04-19T08:49:27.996Z</time></trkpt><trkpt lat="44.6997509909" lon="0.4173660847755346"><ele>112.0</ele><time>2026-04-19T08:49:28.996Z</time></trkpt><trkpt lat="44.69960286093274" lon="0.41739837360882376"><ele>112.0</ele><time>2026-04-19T08:49:29.996Z</time></trkpt><trkpt lat="44.69947117022422" lon="0.41747031617327884"><ele>112.0</ele><time>2026-04-19T08:49:30.996Z</time></trkpt><trkpt lat="44.69933444504029" lon="0.4175216276116626"><ele>111.0</ele><time>2026-04-19T08:49:31.996Z</time></trkpt><trkpt lat="44.699216643722814" lon="0.41755864975090307"><ele>109.99999999999999</ele><time>2026-04-19T08:49:32.996Z</time></trkpt><trkpt lat="44.699111379745624" lon="0.417565149163565"><ele>108.99999999999999</ele><time>2026-04-19T08:49:33.996Z</time></trkpt><trkpt lat="44.69902001885307" lon="0.4175635013799504"><ele>108.0</ele><time>2026-04-19T08:49:34.996Z</time></trkpt><trkpt lat="44.69893203936417" lon="0.41753921012583606"><ele>107.0</ele><time>2026-04-19T08:49:35.996Z</time></trkpt><trkpt lat="44.69884986363504" lon="0.4174866607627478"><ele>107.0</ele><time>2026-04-19T08:49:36.995Z</time></trkpt><trkpt lat="44.698774998912384" lon="0.4174154708779236"><ele>106.99999999999999</ele><time>2026-04-19T08:49:37.995Z</time></trkpt><trkpt lat="44.69868996372925" lon="0.417333679079239"><ele>106.99999999999999</ele><time>2026-04-19T08:49:38.995Z</time></trkpt><trkpt lat="44.69859804877739" lon="0.4172446071315218"><ele>107.0</ele><time>2026-04-19T08:49:39.995Z</time></trkpt><trkpt lat="44.69850180070525" lon="0.41715902436127367"><ele>107.0</ele><time>2026-04-19T08:49:40.994Z</time></trkpt><trkpt lat="44.6984160848063" lon="0.41710008631443085"><ele>106.6</ele><time>2026-04-19T08:49:41.994Z</time></trkpt><trkpt lat="44.69832682638439" lon="0.4170781708575137"><ele>106.19999999999999</ele><time>2026-04-19T08:49:42.994Z</time></trkpt><trkpt lat="44.69824246520641" lon="0.41707171095454393"><ele>105.8</ele><time>2026-04-19T08:49:43.994Z</time></trkpt><trkpt lat="44.69815612380137" lon="0.41708896085798003"><ele>105.4</ele><time>2026-04-19T08:49:44.994Z</time></trkpt><trkpt lat="44.69807020228241" lon="0.417130350910711"><ele>105.0</ele><time>2026-04-19T08:49:45.995Z</time></trkpt><trkpt lat="44.69797637749614" lon="0.4171936409340684"><ele>104.75</ele><time>2026-04-19T08:49:46.994Z</time></trkpt><trkpt lat="44.69787353700805" lon="0.4172455406875463"><ele>104.5</ele><time>2026-04-19T08:49:47.994Z</time></trkpt><trkpt lat="44.69777637182336" lon="0.4173490593594972"><ele>104.25</ele><time>2026-04-19T08:49:48.995Z</time></trkpt><trkpt lat="44.69766996595901" lon="0.417439719589565"><ele>104.0</ele><time>2026-04-19T08:49:49.995Z</time></trkpt><trkpt lat="44.697552208214915" lon="0.41753664507304306"><ele>104.0</ele><time>2026-04-19T08:49:50.995Z</time></trkpt><trkpt lat="44.6974438930016" lon="0.41765534141278066"><ele>104.0</ele><time>2026-04-19T08:49:51.995Z</time></trkpt><trkpt lat="44.697333002033936" lon="0.41777347080659283"><ele>104.0</ele><time>2026-04-19T08:49:52.995Z</time></trkpt><trkpt lat="44.697213729637895" lon="0.41788902796804134"><ele>104.0</ele><time>2026-04-19T08:49:53.995Z</time></trkpt><trkpt lat="44.697087482139914" lon="0.41800527486222894"><ele>104.0</ele><time>2026-04-19T08:49:54.995Z</time></trkpt><trkpt lat="44.696958167744896" lon="0.4181230884192873"><ele>104.0</ele><time>2026-04-19T08:49:55.995Z</time></trkpt><trkpt lat="44.69683043690941" lon="0.4182402702417338"><ele>104.0</ele><time>2026-04-19T08:49:56.995Z</time></trkpt><trkpt lat="44.69670305823585" lon="0.41835805558905587"><ele>104.25</ele><time>2026-04-19T08:49:57.995Z</time></trkpt><trkpt lat="44.696577744713366" lon="0.41846567999626466"><ele>104.5</ele><time>2026-04-19T08:49:58.995Z</time></trkpt><trkpt lat="44.69645619186827" lon="0.4185770846995842"><ele>104.75</ele><time>2026-04-19T08:49:59.995Z</time></trkpt><trkpt lat="44.696325879577756" lon="0.41868183433220313"><ele>105.0</ele><time>2026-04-19T08:50:00.995Z</time></trkpt><trkpt lat="44.69618559765638" lon="0.4187393682548081"><ele>105.0</ele><time>2026-04-19T08:50:01.995Z</time></trkpt><trkpt lat="44.69604900601651" lon="0.4188075340833979"><ele>105.0</ele><time>2026-04-19T08:50:02.995Z</time></trkpt><trkpt lat="44.695907560423905" lon="0.41889551266372704"><ele>105.0</ele><time>2026-04-19T08:50:03.995Z</time></trkpt><trkpt lat="44.69576706070453" lon="0.4189600042545598"><ele>105.0</ele><time>2026-04-19T08:50:04.995Z</time></trkpt><trkpt lat="44.69562196270843" lon="0.4190316526363678"><ele>105.0</ele><time>2026-04-19T08:50:05.995Z</time></trkpt><trkpt lat="44.69548405550477" lon="0.4190957282092664"><ele>105.0</ele><time>2026-04-19T08:50:06.995Z</time></trkpt><trkpt lat="44.695349893554884" lon="0.41916086945507763"><ele>105.0</ele><time>2026-04-19T08:50:07.995Z</time></trkpt><trkpt lat="44.69521892138699" lon="0.4192236584823416"><ele>105.0</ele><time>2026-04-19T08:50:08.995Z</time></trkpt><trkpt lat="44.69508719778558" lon="0.4192841452439026"><ele>105.75</ele><time>2026-04-19T08:50:09.995Z</time></trkpt><trkpt lat="44.69495661154493" lon="0.4193487122100464"><ele>106.5</ele><time>2026-04-19T08:50:10.995Z</time></trkpt><trkpt lat="44.694832573442255" lon="0.41941176905226485"><ele>107.25</ele><time>2026-04-19T08:50:11.995Z</time></trkpt><trkpt lat="44.69470085195709" lon="0.41948830114050634"><ele>108.0</ele><time>2026-04-19T08:50:12.995Z</time></trkpt><trkpt lat="44.69456374676896" lon="0.419557399514139"><ele>108.0</ele><time>2026-04-19T08:50:13.995Z</time></trkpt><trkpt lat="44.69442447111736" lon="0.4196292023399007"><ele>108.0</ele><time>2026-04-19T08:50:14.995Z</time></trkpt><trkpt lat="44.69430209585641" lon="0.4197078691366061"><ele>108.0</ele><time>2026-04-19T08:50:15.995Z</time></trkpt><trkpt lat="44.694156933337325" lon="0.4197824366732049"><ele>108.0</ele><time>2026-04-19T08:50:16.995Z</time></trkpt><trkpt lat="44.69402168150365" lon="0.41985594791586534"><ele>107.25</ele><time>2026-04-19T08:50:17.995Z</time></trkpt><trkpt lat="44.69389165321167" lon="0.41992852264940705"><ele>106.5</ele><time>2026-04-19T08:50:18.995Z</time></trkpt><trkpt lat="44.69376424796284" lon="0.4200025958051577"><ele>105.75</ele><time>2026-04-19T08:50:19.995Z</time></trkpt><trkpt lat="44.69363692270802" lon="0.42007082398700807"><ele>105.0</ele><time>2026-04-19T08:50:20.995Z</time></trkpt><trkpt lat="44.69352154036287" lon="0.4201350018138034"><ele>104.75</ele><time>2026-04-19T08:50:21.995Z</time></trkpt><trkpt lat="44.69340580842785" lon="0.42018965106154427"><ele>104.5</ele><time>2026-04-19T08:50:22.995Z</time></trkpt><trkpt lat="44.69329241587637" lon="0.42019993837415287"><ele>104.25</ele><time>2026-04-19T08:50:23.995Z</time></trkpt><trkpt lat="44.69318172496291" lon="0.42019612039406334"><ele>104.0</ele><time>2026-04-19T08:50:24.995Z</time></trkpt><trkpt lat="44.69306390668747" lon="0.4201734379147953"><ele>104.0</ele><time>2026-04-19T08:50:25.995Z</time></trkpt><trkpt lat="44.69293378517152" lon="0.42012395700119154"><ele>104.0</ele><time>2026-04-19T08:50:26.995Z</time></trkpt><trkpt lat="44.692799110647414" lon="0.4200716642643787"><ele>104.0</ele><time>2026-04-19T08:50:27.995Z</time></trkpt><trkpt lat="44.69266656828751" lon="0.42002207808352093"><ele>104.0</ele><time>2026-04-19T08:50:28.995Z</time></trkpt><trkpt lat="44.69252454871582" lon="0.41999347477285154"><ele>104.75</ele><time>2026-04-19T08:50:29.995Z</time></trkpt><trkpt lat="44.69238423119661" lon="0.41994049262343813"><ele>105.5</ele><time>2026-04-19T08:50:30.995Z</time></trkpt><trkpt lat="44.692244389282834" lon="0.41989215822105397"><ele>106.25</ele><time>2026-04-19T08:50:31.995Z</time></trkpt><trkpt lat="44.692090690095476" lon="0.4198334998119151"><ele>107.0</ele><time>2026-04-19T08:50:32.995Z</time></trkpt><trkpt lat="44.69192905130323" lon="0.41977855465819036"><ele>106.33333333333333</ele><time>2026-04-19T08:50:33.995Z</time></trkpt><trkpt lat="44.69177484719696" lon="0.41972344056576516"><ele>105.66666666666666</ele><time>2026-04-19T08:50:34.995Z</time></trkpt><trkpt lat="44.69162919376326" lon="0.41964956628351646"><ele>105.0</ele><time>2026-04-19T08:50:35.995Z</time></trkpt><trkpt lat="44.691478407781204" lon="0.4196168109651194"><ele>105.0</ele><time>2026-04-19T08:50:36.995Z</time></trkpt><trkpt lat="44.69133296017474" lon="0.41955584537518403"><ele>105.0</ele><time>2026-04-19T08:50:37.995Z</time></trkpt><trkpt lat="44.69119479193806" lon="0.419512396593981"><ele>105.0</ele><time>2026-04-19T08:50:38.995Z</time></trkpt><trkpt lat="44.691058378197944" lon="0.41946594829346673"><ele>105.0</ele><time>2026-04-19T08:50:39.995Z</time></trkpt><trkpt lat="44.69092187656082" lon="0.41942687900483533"><ele>105.5</ele><time>2026-04-19T08:50:40.995Z</time></trkpt><trkpt lat="44.69078241667888" lon="0.41942518010654684"><ele>106.0</ele><time>2026-04-19T08:50:41.995Z</time></trkpt><trkpt lat="44.690643683225915" lon="0.41943800485581884"><ele>106.5</ele><time>2026-04-19T08:50:42.995Z</time></trkpt><trkpt lat="44.69051064233108" lon="0.4194824285410647"><ele>107.0</ele><time>2026-04-19T08:50:43.995Z</time></trkpt><trkpt lat="44.690380624708794" lon="0.41954270578741165"><ele>107.0</ele><time>2026-04-19T08:50:44.995Z</time></trkpt><trkpt lat="44.69024784804475" lon="0.41962034190616476"><ele>107.0</ele><time>2026-04-19T08:50:45.995Z</time></trkpt><trkpt lat="44.69011291119316" lon="0.41969924152408794"><ele>107.0</ele><time>2026-04-19T08:50:46.995Z</time></trkpt><trkpt lat="44.68996751366772" lon="0.41975985855574705"><ele>107.0</ele><time>2026-04-19T08:50:47.995Z</time></trkpt><trkpt lat="44.68982488422489" lon="0.41983604346728276"><ele>106.66666666666666</ele><time>2026-04-19T08:50:48.995Z</time></trkpt><trkpt lat="44.68968213397509" lon="0.41991231880593627"><ele>106.33333333333334</ele><time>2026-04-19T08:50:49.995Z</time></trkpt><trkpt lat="44.68954345044819" lon="0.4199909807792534"><ele>106.0</ele><time>2026-04-19T08:50:50.995Z</time></trkpt><trkpt lat="44.68940628395897" lon="0.4200695084740131"><ele>106.0</ele><time>2026-04-19T08:50:51.995Z</time></trkpt><trkpt lat="44.689280722498665" lon="0.420136829981841"><ele>106.0</ele><time>2026-04-19T08:50:52.995Z</time></trkpt><trkpt lat="44.68915545530587" lon="0.420208454738474"><ele>106.0</ele><time>2026-04-19T08:50:53.995Z</time></trkpt><trkpt lat="44.68902637600126" lon="0.42027813406608094"><ele>106.0</ele><time>2026-04-19T08:50:54.995Z</time></trkpt><trkpt lat="44.68890141453969" lon="0.4203369025591963"><ele>106.0</ele><time>2026-04-19T08:50:55.995Z</time></trkpt><trkpt lat="44.68878572704297" lon="0.42040556667603174"><ele>106.0</ele><time>2026-04-19T08:50:56.995Z</time></trkpt><trkpt lat="44.688677249826625" lon="0.4204676355339433"><ele>106.0</ele><time>2026-04-19T08:50:57.995Z</time></trkpt><trkpt lat="44.68857669564625" lon="0.42052055820567513"><ele>106.0</ele><time>2026-04-19T08:50:58.995Z</time></trkpt><trkpt lat="44.68847745826248" lon="0.42056554453573597"><ele>104.33333333333334</ele><time>2026-04-19T08:50:59.995Z</time></trkpt><trkpt lat="44.688396406287836" lon="0.42060348411738574"><ele>102.66666666666667</ele><time>2026-04-19T08:51:00.995Z</time></trkpt><trkpt lat="44.68832374989831" lon="0.42065162007837614"><ele>101.0</ele><time>2026-04-19T08:51:01.995Z</time></trkpt><trkpt lat="44.68826472709055" lon="0.4207013270275905"><ele>99.33333333333334</ele><time>2026-04-19T08:51:02.995Z</time></trkpt><trkpt lat="44.688216571350935" lon="0.42078651893588415"><ele>97.66666666666667</ele><time>2026-04-19T08:51:03.995Z</time></trkpt><trkpt lat="44.68817514154569" lon="0.4208928441798116"><ele>96.0</ele><time>2026-04-19T08:51:04.995Z</time></trkpt><trkpt lat="44.688162016660925" lon="0.42102100402737563"><ele>96.0</ele><time>2026-04-19T08:51:05.995Z</time></trkpt><trkpt lat="44.688150412019624" lon="0.4211553814578776"><ele>96.0</ele><time>2026-04-19T08:51:06.995Z</time></trkpt><trkpt lat="44.68814374390885" lon="0.42128609060870853"><ele>96.0</ele><time>2026-04-19T08:51:07.995Z</time></trkpt><trkpt lat="44.68812660247904" lon="0.42140625021377714"><ele>96.0</ele><time>2026-04-19T08:51:08.995Z</time></trkpt><trkpt lat="44.68809265115042" lon="0.42150039610065904"><ele>96.0</ele><time>2026-04-19T08:51:09.995Z</time></trkpt><trkpt lat="44.68803206638549" lon="0.4215859259345114"><ele>96.0</ele><time>2026-04-19T08:51:10.995Z</time></trkpt><trkpt lat="44.68794667440953" lon="0.4216416521103786"><ele>94.19999999999999</ele><time>2026-04-19T08:51:11.995Z</time></trkpt><trkpt lat="44.687845206013684" lon="0.4216726419811319"><ele>92.39999999999999</ele><time>2026-04-19T08:51:12.995Z</time></trkpt><trkpt lat="44.68774658645471" lon="0.42168574570411815"><ele>90.6</ele><time>2026-04-19T08:51:13.995Z</time></trkpt><trkpt lat="44.68763563554162" lon="0.4216985068843906"><ele>88.8</ele><time>2026-04-19T08:51:14.995Z</time></trkpt><trkpt lat="44.687516652344044" lon="0.4217121918982115"><ele>87.0</ele><time>2026-04-19T08:51:15.995Z</time></trkpt><trkpt lat="44.68739044977225" lon="0.421726707275665"><ele>85.75</ele><time>2026-04-19T08:51:16.995Z</time></trkpt><trkpt lat="44.68725471509683" lon="0.4217423189784951"><ele>84.5</ele><time>2026-04-19T08:51:17.995Z</time></trkpt><trkpt lat="44.687121815269386" lon="0.4217799689606276"><ele>83.25</ele><time>2026-04-19T08:51:18.995Z</time></trkpt><trkpt lat="44.68698962453056" lon="0.4217726373833344"><ele>82.0</ele><time>2026-04-19T08:51:19.995Z</time></trkpt><trkpt lat="44.68686709595799" lon="0.421795545533818"><ele>80.0</ele><time>2026-04-19T08:51:20.995Z</time></trkpt><trkpt lat="44.68676891765145" lon="0.42181464067362684"><ele>78.0</ele><time>2026-04-19T08:51:21.995Z</time></trkpt><trkpt lat="44.686691109276055" lon="0.42182626914633536"><ele>76.0</ele><time>2026-04-19T08:51:22.995Z</time></trkpt><trkpt lat="44.68656694959992" lon="0.4218960599430455"><ele>74.0</ele><time>2026-04-19T08:51:24.995Z</time></trkpt><trkpt lat="44.68649641808018" lon="0.4220284622002003"><ele>72.0</ele><time>2026-04-19T08:51:25.995Z</time></trkpt><trkpt lat="44.68645301818523" lon="0.4221754092339515"><ele>70.25</ele><time>2026-04-19T08:51:26.995Z</time></trkpt><trkpt lat="44.68641861722006" lon="0.42231762968721787"><ele>68.5</ele><time>2026-04-19T08:51:27.995Z</time></trkpt><trkpt lat="44.68638374936136" lon="0.42247152647742653"><ele>66.75</ele><time>2026-04-19T08:51:28.995Z</time></trkpt><trkpt lat="44.68634994254482" lon="0.42263187548710757"><ele>65.0</ele><time>2026-04-19T08:51:29.995Z</time></trkpt><trkpt lat="44.686311211729695" lon="0.42278797050188804"><ele>65.0</ele><time>2026-04-19T08:51:30.995Z</time></trkpt><trkpt lat="44.68627329178036" lon="0.4229266494212988"><ele>65.0</ele><time>2026-04-19T08:51:31.995Z</time></trkpt><trkpt lat="44.6862223519401" lon="0.42305443720514985"><ele>65.0</ele><time>2026-04-19T08:51:32.995Z</time></trkpt><trkpt lat="44.6861509518735" lon="0.42316441068728006"><ele>65.0</ele><time>2026-04-19T08:51:33.995Z</time></trkpt><trkpt lat="44.68607212162192" lon="0.4232383897458443"><ele>65.0</ele><time>2026-04-19T08:51:34.995Z</time></trkpt><trkpt lat="44.685980318955785" lon="0.4233009412943934"><ele>63.5</ele><time>2026-04-19T08:51:35.995Z</time></trkpt><trkpt lat="44.685863388290855" lon="0.4233594319338898"><ele>62.0</ele><time>2026-04-19T08:51:36.995Z</time></trkpt><trkpt lat="44.68574572510249" lon="0.4234055701335974"><ele>60.5</ele><time>2026-04-19T08:51:37.995Z</time></trkpt><trkpt lat="44.685634358269155" lon="0.4234499720375943"><ele>59.0</ele><time>2026-04-19T08:51:38.995Z</time></trkpt><trkpt lat="44.68550758612266" lon="0.4235045793551034"><ele>59.0</ele><time>2026-04-19T08:51:39.995Z</time></trkpt><trkpt lat="44.685382793515636" lon="0.4235653434196653"><ele>59.0</ele><time>2026-04-19T08:51:40.995Z</time></trkpt><trkpt lat="44.685252461819694" lon="0.42365360278827996"><ele>59.0</ele><time>2026-04-19T08:51:41.995Z</time></trkpt><trkpt lat="44.68510185291813" lon="0.4237122091824454"><ele>59.0</ele><time>2026-04-19T08:51:42.994Z</time></trkpt><trkpt lat="44.684968359098406" lon="0.4237914443139557"><ele>58.75</ele><time>2026-04-19T08:51:43.994Z</time></trkpt><trkpt lat="44.684832095525486" lon="0.4238520938044004"><ele>58.5</ele><time>2026-04-19T08:51:44.994Z</time></trkpt><trkpt lat="44.68469854759811" lon="0.4239067206592942"><ele>58.25</ele><time>2026-04-19T08:51:45.994Z</time></trkpt><trkpt lat="44.68455360618902" lon="0.4239099405480173"><ele>58.0</ele><time>2026-04-19T08:51:46.994Z</time></trkpt><trkpt lat="44.684410567704276" lon="0.4239186831645917"><ele>57.5</ele><time>2026-04-19T08:51:47.994Z</time></trkpt><trkpt lat="44.6842714435364" lon="0.42391936404712993"><ele>57.0</ele><time>2026-04-19T08:51:48.994Z</time></trkpt><trkpt lat="44.68413877050381" lon="0.4239056010610896"><ele>56.5</ele><time>2026-04-19T08:51:49.993Z</time></trkpt><trkpt lat="44.68401967520616" lon="0.4239019485545414"><ele>56.0</ele><time>2026-04-19T08:51:50.993Z</time></trkpt><trkpt lat="44.683904019558085" lon="0.42388069444887505"><ele>56.0</ele><time>2026-04-19T08:51:51.994Z</time></trkpt><trkpt lat="44.683788971495225" lon="0.4238724227983458"><ele>56.0</ele><time>2026-04-19T08:51:52.993Z</time></trkpt><trkpt lat="44.68367808509911" lon="0.42382765745679735"><ele>56.0</ele><time>2026-04-19T08:51:53.993Z</time></trkpt><trkpt lat="44.68356215081847" lon="0.42374407505391376"><ele>56.0</ele><time>2026-04-19T08:51:54.994Z</time></trkpt><trkpt lat="44.68344489641553" lon="0.42366309336140034"><ele>56.25</ele><time>2026-04-19T08:51:55.993Z</time></trkpt><trkpt lat="44.68332191418368" lon="0.42356728841101227"><ele>56.5</ele><time>2026-04-19T08:51:56.993Z</time></trkpt><trkpt lat="44.68320210591678" lon="0.4234679952898216"><ele>56.75</ele><time>2026-04-19T08:51:57.993Z</time></trkpt><trkpt lat="44.68309599260124" lon="0.4233857472295585"><ele>57.0</ele><time>2026-04-19T08:51:58.993Z</time></trkpt><trkpt lat="44.683012451157836" lon="0.42329744326290186"><ele>57.0</ele><time>2026-04-19T08:51:59.993Z</time></trkpt><trkpt lat="44.68291329469367" lon="0.42325532119004916"><ele>57.0</ele><time>2026-04-19T08:52:00.993Z</time></trkpt><trkpt lat="44.68281978379393" lon="0.42325723179092045"><ele>57.0</ele><time>2026-04-19T08:52:01.993Z</time></trkpt><trkpt lat="44.682716946684415" lon="0.42326791597158464"><ele>57.0</ele><time>2026-04-19T08:52:02.993Z</time></trkpt><trkpt lat="44.68259926433605" lon="0.4233225715822183"><ele>57.0</ele><time>2026-04-19T08:52:03.993Z</time></trkpt><trkpt lat="44.682482169341974" lon="0.4233674120398874"><ele>56.5</ele><time>2026-04-19T08:52:04.993Z</time></trkpt><trkpt lat="44.682358003156146" lon="0.423414241018762"><ele>56.0</ele><time>2026-04-19T08:52:05.993Z</time></trkpt><trkpt lat="44.68223165430561" lon="0.4234608377112567"><ele>55.5</ele><time>2026-04-19T08:52:06.993Z</time></trkpt><trkpt lat="44.68210496938292" lon="0.4234948123241975"><ele>55.0</ele><time>2026-04-19T08:52:07.993Z</time></trkpt><trkpt lat="44.681979639046126" lon="0.4235181817534452"><ele>54.5</ele><time>2026-04-19T08:52:08.993Z</time></trkpt><trkpt lat="44.681851840222606" lon="0.4235205873317277"><ele>54.0</ele><time>2026-04-19T08:52:09.993Z</time></trkpt><trkpt lat="44.68172751211582" lon="0.4235161770444603"><ele>53.5</ele><time>2026-04-19T08:52:10.993Z</time></trkpt><trkpt lat="44.68161777679282" lon="0.4235093580886893"><ele>53.0</ele><time>2026-04-19T08:52:11.993Z</time></trkpt><trkpt lat="44.681513977186846" lon="0.4234688259186168"><ele>53.0</ele><time>2026-04-19T08:52:12.993Z</time></trkpt><trkpt lat="44.68140436152552" lon="0.4234428355158383"><ele>53.0</ele><time>2026-04-19T08:52:13.993Z</time></trkpt><trkpt lat="44.6813058328341" lon="0.42340596761174665"><ele>53.0</ele><time>2026-04-19T08:52:14.993Z</time></trkpt><trkpt lat="44.68119429266804" lon="0.42337921923290217"><ele>53.0</ele><time>2026-04-19T08:52:15.993Z</time></trkpt><trkpt lat="44.681089838061695" lon="0.42335196943656916"><ele>53.0</ele><time>2026-04-19T08:52:16.993Z</time></trkpt><trkpt lat="44.680984571904986" lon="0.42331099723096555"><ele>52.833333333333336</ele><time>2026-04-19T08:52:17.993Z</time></trkpt><trkpt lat="44.680884621591076" lon="0.4232864975116912"><ele>52.66666666666667</ele><time>2026-04-19T08:52:18.993Z</time></trkpt><trkpt lat="44.680790507092496" lon="0.42326881466203575"><ele>52.5</ele><time>2026-04-19T08:52:19.993Z</time></trkpt><trkpt lat="44.680716537067106" lon="0.42324024748389755"><ele>52.33333333333333</ele><time>2026-04-19T08:52:20.993Z</time></trkpt><trkpt lat="44.6806496888345" lon="0.4231895008921338"><ele>52.166666666666664</ele><time>2026-04-19T08:52:21.993Z</time></trkpt><trkpt lat="44.68056990324223" lon="0.423150824251968"><ele>52.0</ele><time>2026-04-19T08:52:23.993Z</time></trkpt><trkpt lat="44.680508330267685" lon="0.42317390840755437"><ele>52.0</ele><time>2026-04-19T08:52:30.993Z</time></trkpt><trkpt lat="44.68051438680972" lon="0.42339495665418025"><ele>52.0</ele><time>2026-04-19T08:52:33.993Z</time></trkpt><trkpt lat="44.680523302845444" lon="0.42356181022487704"><ele>52.0</ele><time>2026-04-19T08:52:34.993Z</time></trkpt><trkpt lat="44.680526169246434" lon="0.4237389627933737"><ele>52.0</ele><time>2026-04-19T08:52:35.993Z</time></trkpt><trkpt lat="44.680509284574335" lon="0.4239192994605658"><ele>52.0</ele><time>2026-04-19T08:52:36.993Z</time></trkpt><trkpt lat="44.68052863530697" lon="0.4241091389480288"><ele>52.0</ele><time>2026-04-19T08:52:37.993Z</time></trkpt><trkpt lat="44.68054741757795" lon="0.4243181449604646"><ele>52.0</ele><time>2026-04-19T08:52:38.993Z</time></trkpt><trkpt lat="44.680562578814154" lon="0.4245875624801441"><ele>52.0</ele><time>2026-04-19T08:52:39.993Z</time></trkpt><trkpt lat="44.68057182165198" lon="0.4248748353888576"><ele>52.0</ele><time>2026-04-19T08:52:40.993Z</time></trkpt><trkpt lat="44.680583413605476" lon="0.4251804889963662"><ele>52.0</ele><time>2026-04-19T08:52:41.993Z</time></trkpt><trkpt lat="44.68060559510223" lon="0.4254878255772154"><ele>53.0</ele><time>2026-04-19T08:52:42.993Z</time></trkpt><trkpt lat="44.680621982177875" lon="0.42583198113985005"><ele>54.0</ele><time>2026-04-19T08:52:43.993Z</time></trkpt><trkpt lat="44.68063423136331" lon="0.42616582026526967"><ele>55.0</ele><time>2026-04-19T08:52:44.993Z</time></trkpt><trkpt lat="44.68064945254088" lon="0.4264887856262791"><ele>56.0</ele><time>2026-04-19T08:52:45.993Z</time></trkpt><trkpt lat="44.6806610351332" lon="0.42679869083897165"><ele>56.0</ele><time>2026-04-19T08:52:46.993Z</time></trkpt><trkpt lat="44.68067798604883" lon="0.4271009075450712"><ele>56.0</ele><time>2026-04-19T08:52:47.993Z</time></trkpt><trkpt lat="44.68070330060073" lon="0.4273884295863437"><ele>56.0</ele><time>2026-04-19T08:52:48.993Z</time></trkpt><trkpt lat="44.68073547722454" lon="0.42767999506162285"><ele>56.0</ele><time>2026-04-19T08:52:49.993Z</time></trkpt><trkpt lat="44.680780575165016" lon="0.42797392475495466"><ele>56.0</ele><time>2026-04-19T08:52:50.993Z</time></trkpt><trkpt lat="44.680810049615694" lon="0.42826479423435265"><ele>56.0</ele><time>2026-04-19T08:52:51.993Z</time></trkpt><trkpt lat="44.68083186385092" lon="0.4285741597254113"><ele>57.0</ele><time>2026-04-19T08:52:52.993Z</time></trkpt><trkpt lat="44.68084078307879" lon="0.4288953695667592"><ele>58.0</ele><time>2026-04-19T08:52:53.993Z</time></trkpt><trkpt lat="44.68084185296276" lon="0.42922143024055576"><ele>58.0</ele><time>2026-04-19T08:52:54.993Z</time></trkpt><trkpt lat="44.68082349892549" lon="0.4295577311105126"><ele>58.0</ele><time>2026-04-19T08:52:55.993Z</time></trkpt><trkpt lat="44.68078310253123" lon="0.42988300137543567"><ele>61.0</ele><time>2026-04-19T08:52:56.993Z</time></trkpt><trkpt lat="44.68074655271759" lon="0.43020954870988565"><ele>64.0</ele><time>2026-04-19T08:52:57.993Z</time></trkpt><trkpt lat="44.680698871779626" lon="0.4305315175107914"><ele>65.0</ele><time>2026-04-19T08:52:58.993Z</time></trkpt><trkpt lat="44.68064585514591" lon="0.43085122082178284"><ele>66.0</ele><time>2026-04-19T08:52:59.993Z</time></trkpt><trkpt lat="44.680585755783255" lon="0.43117044333276894"><ele>69.5</ele><time>2026-04-19T08:53:00.993Z</time></trkpt><trkpt lat="44.680523663983166" lon="0.43148573429423404"><ele>73.0</ele><time>2026-04-19T08:53:01.993Z</time></trkpt><trkpt lat="44.6804842493771" lon="0.4318017769670558"><ele>73.0</ele><time>2026-04-19T08:53:02.993Z</time></trkpt><trkpt lat="44.68044187240653" lon="0.43210499142840375"><ele>73.0</ele><time>2026-04-19T08:53:03.993Z</time></trkpt><trkpt lat="44.68042311912" lon="0.43242376799363336"><ele>73.0</ele><time>2026-04-19T08:53:04.993Z</time></trkpt><trkpt lat="44.680436641852594" lon="0.43273691052426294"><ele>70.0</ele><time>2026-04-19T08:53:05.993Z</time></trkpt><trkpt lat="44.68046916411224" lon="0.4330408220447439"><ele>67.0</ele><time>2026-04-19T08:53:06.993Z</time></trkpt><trkpt lat="44.68048689872941" lon="0.4333099902791637"><ele>64.0</ele><time>2026-04-19T08:53:07.993Z</time></trkpt><trkpt lat="44.68049327343977" lon="0.4335740233972064"><ele>62.33333333333333</ele><time>2026-04-19T08:53:08.993Z</time></trkpt><trkpt lat="44.6804573653847" lon="0.43383516438090775"><ele>60.66666666666667</ele><time>2026-04-19T08:53:09.993Z</time></trkpt><trkpt lat="44.68043646842756" lon="0.43411514459388884"><ele>59.0</ele><time>2026-04-19T08:53:10.993Z</time></trkpt><trkpt lat="44.6803734017739" lon="0.43439319789910213"><ele>58.333333333333336</ele><time>2026-04-19T08:53:11.993Z</time></trkpt><trkpt lat="44.680331567039715" lon="0.4346876439584632"><ele>57.66666666666667</ele><time>2026-04-19T08:53:12.993Z</time></trkpt><trkpt lat="44.68026801235724" lon="0.4349773236263484"><ele>57.0</ele><time>2026-04-19T08:53:13.993Z</time></trkpt><trkpt lat="44.68020851324568" lon="0.4352790615295069"><ele>56.33333333333333</ele><time>2026-04-19T08:53:14.993Z</time></trkpt><trkpt lat="44.680154947915895" lon="0.43557590640102156"><ele>55.666666666666664</ele><time>2026-04-19T08:53:15.993Z</time></trkpt><trkpt lat="44.680093902718525" lon="0.4358839538883049"><ele>55.0</ele><time>2026-04-19T08:53:16.993Z</time></trkpt><trkpt lat="44.68003288925867" lon="0.4361871898530551"><ele>55.0</ele><time>2026-04-19T08:53:17.993Z</time></trkpt><trkpt lat="44.67997153226124" lon="0.4364958029191285"><ele>55.0</ele><time>2026-04-19T08:53:18.993Z</time></trkpt><trkpt lat="44.67991245745296" lon="0.43681136632187934"><ele>55.0</ele><time>2026-04-19T08:53:19.993Z</time></trkpt><trkpt lat="44.67985529054175" lon="0.43712058823561"><ele>55.0</ele><time>2026-04-19T08:53:20.993Z</time></trkpt><trkpt lat="44.67979617443467" lon="0.43743227071248425"><ele>55.0</ele><time>2026-04-19T08:53:21.993Z</time></trkpt><trkpt lat="44.67973861264975" lon="0.4377394533064077"><ele>55.0</ele><time>2026-04-19T08:53:22.993Z</time></trkpt><trkpt lat="44.67966102303133" lon="0.4380487695593087"><ele>56.0</ele><time>2026-04-19T08:53:23.993Z</time></trkpt><trkpt lat="44.67959769789411" lon="0.43837263528251647"><ele>57.0</ele><time>2026-04-19T08:53:24.993Z</time></trkpt><trkpt lat="44.67953318668009" lon="0.4387017878188485"><ele>57.0</ele><time>2026-04-19T08:53:25.993Z</time></trkpt><trkpt lat="44.67946819040592" lon="0.4390334152068767"><ele>57.0</ele><time>2026-04-19T08:53:26.993Z</time></trkpt><trkpt lat="44.6793906199332" lon="0.4393845009698587"><ele>58.5</ele><time>2026-04-19T08:53:27.993Z</time></trkpt><trkpt lat="44.6793261009151" lon="0.4397199163899035"><ele>60.0</ele><time>2026-04-19T08:53:28.993Z</time></trkpt><trkpt lat="44.67926534625738" lon="0.44004178922926457"><ele>60.0</ele><time>2026-04-19T08:53:29.993Z</time></trkpt><trkpt lat="44.67921294051937" lon="0.4403610545261864"><ele>60.0</ele><time>2026-04-19T08:53:30.993Z</time></trkpt><trkpt lat="44.67916058526051" lon="0.44065329598970465"><ele>60.0</ele><time>2026-04-19T08:53:31.993Z</time></trkpt><trkpt lat="44.679111527831225" lon="0.4409325879067327"><ele>60.66666666666667</ele><time>2026-04-19T08:53:32.993Z</time></trkpt><trkpt lat="44.67906080449085" lon="0.44119991441163836"><ele>61.333333333333336</ele><time>2026-04-19T08:53:33.993Z</time></trkpt><trkpt lat="44.679007871871946" lon="0.4414552467238438"><ele>62.0</ele><time>2026-04-19T08:53:34.993Z</time></trkpt><trkpt lat="44.678966885334596" lon="0.4416931712971542"><ele>62.0</ele><time>2026-04-19T08:53:35.993Z</time></trkpt><trkpt lat="44.67892589742621" lon="0.4419387421356217"><ele>62.0</ele><time>2026-04-19T08:53:36.993Z</time></trkpt><trkpt lat="44.678890572434774" lon="0.44218239801885095"><ele>62.0</ele><time>2026-04-19T08:53:37.993Z</time></trkpt><trkpt lat="44.67887309928279" lon="0.4424365225489184"><ele>62.333333333333336</ele><time>2026-04-19T08:53:38.993Z</time></trkpt><trkpt lat="44.67887303783143" lon="0.44271259123851314"><ele>62.66666666666667</ele><time>2026-04-19T08:53:39.993Z</time></trkpt><trkpt lat="44.67889129151768" lon="0.44297786571526687"><ele>63.0</ele><time>2026-04-19T08:53:40.993Z</time></trkpt><trkpt lat="44.67892574961233" lon="0.4432602727048738"><ele>64.33333333333333</ele><time>2026-04-19T08:53:41.993Z</time></trkpt><trkpt lat="44.67896107876098" lon="0.44353715294389"><ele>65.66666666666666</ele><time>2026-04-19T08:53:42.993Z</time></trkpt><trkpt lat="44.678995018499975" lon="0.44382879134676123"><ele>67.0</ele><time>2026-04-19T08:53:43.993Z</time></trkpt><trkpt lat="44.67900841433375" lon="0.4441085435955567"><ele>67.0</ele><time>2026-04-19T08:53:44.993Z</time></trkpt><trkpt lat="44.67899287135068" lon="0.44438414286256905"><ele>67.0</ele><time>2026-04-19T08:53:45.993Z</time></trkpt><trkpt lat="44.67897215817645" lon="0.44463623535594193"><ele>67.0</ele><time>2026-04-19T08:53:46.993Z</time></trkpt><trkpt lat="44.67895372605222" lon="0.4448703840188766"><ele>66.66666666666666</ele><time>2026-04-19T08:53:47.993Z</time></trkpt><trkpt lat="44.678956150733505" lon="0.4450932191266651"><ele>66.33333333333333</ele><time>2026-04-19T08:53:48.994Z</time></trkpt><trkpt lat="44.678972743242674" lon="0.4453066238480575"><ele>66.0</ele><time>2026-04-19T08:53:49.993Z</time></trkpt><trkpt lat="44.679040619478776" lon="0.4455104709089416"><ele>66.0</ele><time>2026-04-19T08:53:50.993Z</time></trkpt><trkpt lat="44.67912355975081" lon="0.44573993961506964"><ele>66.0</ele><time>2026-04-19T08:53:51.993Z</time></trkpt><trkpt lat="44.67921473670764" lon="0.44595939123660566"><ele>66.0</ele><time>2026-04-19T08:53:52.994Z</time></trkpt><trkpt lat="44.67934635536427" lon="0.44615896205335365"><ele>68.33333333333333</ele><time>2026-04-19T08:53:53.994Z</time></trkpt><trkpt lat="44.679478753603405" lon="0.4463714651098851"><ele>70.66666666666666</ele><time>2026-04-19T08:53:54.993Z</time></trkpt><trkpt lat="44.67962204474326" lon="0.44658323640410846"><ele>73.0</ele><time>2026-04-19T08:53:55.993Z</time></trkpt><trkpt lat="44.679770956739105" lon="0.4467955495752542"><ele>73.0</ele><time>2026-04-19T08:53:56.993Z</time></trkpt><trkpt lat="44.67992302752672" lon="0.4470148298605602"><ele>73.0</ele><time>2026-04-19T08:53:57.994Z</time></trkpt><trkpt lat="44.68007846836265" lon="0.4472283384447591"><ele>73.0</ele><time>2026-04-19T08:53:58.993Z</time></trkpt><trkpt lat="44.68021188539714" lon="0.447466419461394"><ele>75.5</ele><time>2026-04-19T08:53:59.993Z</time></trkpt><trkpt lat="44.680324149338276" lon="0.4477399812445695"><ele>78.0</ele><time>2026-04-19T08:54:00.993Z</time></trkpt><trkpt lat="44.680429038262936" lon="0.4480251472929164"><ele>78.0</ele><time>2026-04-19T08:54:01.992Z</time></trkpt><trkpt lat="44.680525754351514" lon="0.4483106724496128"><ele>78.0</ele><time>2026-04-19T08:54:02.992Z</time></trkpt><trkpt lat="44.68060699359249" lon="0.44859565535163753"><ele>78.0</ele><time>2026-04-19T08:54:03.992Z</time></trkpt><trkpt lat="44.68068174356297" lon="0.4488834527651268"><ele>74.0</ele><time>2026-04-19T08:54:04.992Z</time></trkpt><trkpt lat="44.680739981223816" lon="0.44918987088885837"><ele>70.0</ele><time>2026-04-19T08:54:05.992Z</time></trkpt><trkpt lat="44.68078471468214" lon="0.4495100472625841"><ele>68.0</ele><time>2026-04-19T08:54:06.992Z</time></trkpt><trkpt lat="44.68081109430418" lon="0.44985845229324034"><ele>66.0</ele><time>2026-04-19T08:54:07.992Z</time></trkpt><trkpt lat="44.68082696796621" lon="0.45020958192914673"><ele>66.0</ele><time>2026-04-19T08:54:08.992Z</time></trkpt><trkpt lat="44.680831947869684" lon="0.4505610901289855"><ele>66.0</ele><time>2026-04-19T08:54:09.992Z</time></trkpt><trkpt lat="44.68082097506835" lon="0.4508964015678915"><ele>66.0</ele><time>2026-04-19T08:54:10.992Z</time></trkpt><trkpt lat="44.68080690358959" lon="0.45122041206743274"><ele>66.0</ele><time>2026-04-19T08:54:11.992Z</time></trkpt><trkpt lat="44.68076600925533" lon="0.4515320802379708"><ele>66.0</ele><time>2026-04-19T08:54:12.992Z</time></trkpt><trkpt lat="44.68071680190113" lon="0.4518310279515563"><ele>66.0</ele><time>2026-04-19T08:54:13.992Z</time></trkpt><trkpt lat="44.680637724271364" lon="0.452128850385493"><ele>66.0</ele><time>2026-04-19T08:54:14.992Z</time></trkpt><trkpt lat="44.68051439031533" lon="0.45238851286062326"><ele>62.5</ele><time>2026-04-19T08:54:15.992Z</time></trkpt><trkpt lat="44.68038793293204" lon="0.45264603017996413"><ele>59.0</ele><time>2026-04-19T08:54:16.992Z</time></trkpt><trkpt lat="44.680264680044004" lon="0.4529144189995656"><ele>60.5</ele><time>2026-04-19T08:54:17.992Z</time></trkpt><trkpt lat="44.68015743748054" lon="0.45321380115022564"><ele>62.0</ele><time>2026-04-19T08:54:18.992Z</time></trkpt><trkpt lat="44.680066690542205" lon="0.45353816505167555"><ele>64.5</ele><time>2026-04-19T08:54:19.992Z</time></trkpt><trkpt lat="44.67997931179093" lon="0.4538656908232044"><ele>67.0</ele><time>2026-04-19T08:54:20.992Z</time></trkpt><trkpt lat="44.679899422708445" lon="0.4541878723364159"><ele>67.0</ele><time>2026-04-19T08:54:21.992Z</time></trkpt><trkpt lat="44.679832422518295" lon="0.454502295248029"><ele>67.0</ele><time>2026-04-19T08:54:22.992Z</time></trkpt><trkpt lat="44.679745985182805" lon="0.4548039178786907"><ele>69.0</ele><time>2026-04-19T08:54:23.992Z</time></trkpt><trkpt lat="44.67963859012988" lon="0.45509445600684284"><ele>71.0</ele><time>2026-04-19T08:54:24.992Z</time></trkpt><trkpt lat="44.67950276162708" lon="0.4553790000840801"><ele>67.5</ele><time>2026-04-19T08:54:25.992Z</time></trkpt><trkpt lat="44.67936773233414" lon="0.45564811250801773"><ele>64.0</ele><time>2026-04-19T08:54:26.992Z</time></trkpt><trkpt lat="44.67920821156432" lon="0.4558955306441391"><ele>64.0</ele><time>2026-04-19T08:54:27.992Z</time></trkpt><trkpt lat="44.67903834900341" lon="0.45612314144196364"><ele>64.0</ele><time>2026-04-19T08:54:28.992Z</time></trkpt><trkpt lat="44.678863215777994" lon="0.45634677200165263"><ele>64.66666666666666</ele><time>2026-04-19T08:54:29.992Z</time></trkpt><trkpt lat="44.678684114673274" lon="0.45654360624226187"><ele>65.33333333333333</ele><time>2026-04-19T08:54:30.992Z</time></trkpt><trkpt lat="44.6785109080666" lon="0.45671974677880817"><ele>66.0</ele><time>2026-04-19T08:54:31.992Z</time></trkpt><trkpt lat="44.678338283271316" lon="0.45687338474571926"><ele>66.0</ele><time>2026-04-19T08:54:32.992Z</time></trkpt><trkpt lat="44.67818145326208" lon="0.45700570617412317"><ele>66.0</ele><time>2026-04-19T08:54:33.992Z</time></trkpt><trkpt lat="44.67802978396733" lon="0.4571520911227687"><ele>66.0</ele><time>2026-04-19T08:54:34.992Z</time></trkpt><trkpt lat="44.67789367974191" lon="0.45732808193095187"><ele>65.33333333333333</ele><time>2026-04-19T08:54:35.992Z</time></trkpt><trkpt lat="44.677772235287485" lon="0.45753989125573435"><ele>64.66666666666666</ele><time>2026-04-19T08:54:36.992Z</time></trkpt><trkpt lat="44.67766711355437" lon="0.45778609545146526"><ele>64.0</ele><time>2026-04-19T08:54:37.992Z</time></trkpt><trkpt lat="44.67756951381826" lon="0.45806841455311675"><ele>64.0</ele><time>2026-04-19T08:54:38.992Z</time></trkpt><trkpt lat="44.67747857724222" lon="0.4583749342070016"><ele>64.0</ele><time>2026-04-19T08:54:39.992Z</time></trkpt><trkpt lat="44.6773804613241" lon="0.45868633101343553"><ele>68.0</ele><time>2026-04-19T08:54:40.992Z</time></trkpt><trkpt lat="44.67727910795678" lon="0.4590086614443061"><ele>72.0</ele><time>2026-04-19T08:54:41.992Z</time></trkpt><trkpt lat="44.67715519977259" lon="0.4593286945762973"><ele>72.5</ele><time>2026-04-19T08:54:42.992Z</time></trkpt><trkpt lat="44.6770613220749" lon="0.4596612040331243"><ele>73.0</ele><time>2026-04-19T08:54:43.992Z</time></trkpt><trkpt lat="44.67695482017777" lon="0.4599733107289687"><ele>67.0</ele><time>2026-04-19T08:54:44.992Z</time></trkpt><trkpt lat="44.676845406498735" lon="0.46029815171579613"><ele>61.0</ele><time>2026-04-19T08:54:45.992Z</time></trkpt><trkpt lat="44.676740358631065" lon="0.4606220767260963"><ele>61.0</ele><time>2026-04-19T08:54:46.992Z</time></trkpt><trkpt lat="44.676639608243796" lon="0.4609352373563975"><ele>61.0</ele><time>2026-04-19T08:54:47.992Z</time></trkpt><trkpt lat="44.676540545805686" lon="0.46123374244567283"><ele>61.0</ele><time>2026-04-19T08:54:48.992Z</time></trkpt><trkpt lat="44.676443248392054" lon="0.4615244114047479"><ele>61.0</ele><time>2026-04-19T08:54:49.992Z</time></trkpt><trkpt lat="44.676353765627695" lon="0.4618073352461352"><ele>61.0</ele><time>2026-04-19T08:54:50.992Z</time></trkpt><trkpt lat="44.67626932954338" lon="0.46209591242428477"><ele>61.0</ele><time>2026-04-19T08:54:51.992Z</time></trkpt><trkpt lat="44.6762020925014" lon="0.4623956552462485"><ele>61.0</ele><time>2026-04-19T08:54:52.992Z</time></trkpt><trkpt lat="44.67614998985927" lon="0.4627083925778718"><ele>62.0</ele><time>2026-04-19T08:54:53.992Z</time></trkpt><trkpt lat="44.676111694426936" lon="0.4630234282014061"><ele>63.0</ele><time>2026-04-19T08:54:54.992Z</time></trkpt><trkpt lat="44.67607586213832" lon="0.46333887388162054"><ele>62.0</ele><time>2026-04-19T08:54:55.992Z</time></trkpt><trkpt lat="44.676017090256536" lon="0.4636516562273895"><ele>61.0</ele><time>2026-04-19T08:54:56.992Z</time></trkpt><trkpt lat="44.67596864457661" lon="0.463970734360398"><ele>61.0</ele><time>2026-04-19T08:54:57.992Z</time></trkpt><trkpt lat="44.67593121945962" lon="0.46427759055992907"><ele>61.0</ele><time>2026-04-19T08:54:58.992Z</time></trkpt><trkpt lat="44.67589114032343" lon="0.4645875154969317"><ele>61.0</ele><time>2026-04-19T08:54:59.992Z</time></trkpt><trkpt lat="44.67584931685643" lon="0.46489627901886105"><ele>61.33333333333333</ele><time>2026-04-19T08:55:00.992Z</time></trkpt><trkpt lat="44.675805175008804" lon="0.46520237315129415"><ele>61.66666666666667</ele><time>2026-04-19T08:55:01.992Z</time></trkpt><trkpt lat="44.675756568498784" lon="0.4655100361232092"><ele>62.0</ele><time>2026-04-19T08:55:02.992Z</time></trkpt><trkpt lat="44.67570241227383" lon="0.4658189737133825"><ele>62.5</ele><time>2026-04-19T08:55:03.992Z</time></trkpt><trkpt lat="44.675636673527336" lon="0.46612450373454256"><ele>63.0</ele><time>2026-04-19T08:55:04.992Z</time></trkpt><trkpt lat="44.67556880293989" lon="0.4664367299062627"><ele>63.5</ele><time>2026-04-19T08:55:05.992Z</time></trkpt><trkpt lat="44.67550057157285" lon="0.4667483430623521"><ele>64.0</ele><time>2026-04-19T08:55:06.992Z</time></trkpt><trkpt lat="44.67543521317153" lon="0.4670443882916631"><ele>63.0</ele><time>2026-04-19T08:55:07.992Z</time></trkpt><trkpt lat="44.67536376128623" lon="0.4673339377662482"><ele>62.0</ele><time>2026-04-19T08:55:08.992Z</time></trkpt><trkpt lat="44.6753022279159" lon="0.4675997022637164"><ele>61.0</ele><time>2026-04-19T08:55:09.992Z</time></trkpt><trkpt lat="44.67524802989296" lon="0.4678550361462288"><ele>60.33333333333333</ele><time>2026-04-19T08:55:10.992Z</time></trkpt><trkpt lat="44.675190220730165" lon="0.46810757275382936"><ele>59.66666666666667</ele><time>2026-04-19T08:55:11.992Z</time></trkpt><trkpt lat="44.67512944364945" lon="0.4683572868379911"><ele>59.0</ele><time>2026-04-19T08:55:12.992Z</time></trkpt><trkpt lat="44.67507285927283" lon="0.4685883157307531"><ele>58.66666666666667</ele><time>2026-04-19T08:55:13.992Z</time></trkpt><trkpt lat="44.67502455009665" lon="0.4688092503302969"><ele>58.33333333333333</ele><time>2026-04-19T08:55:14.992Z</time></trkpt><trkpt lat="44.674978048902915" lon="0.469026902892817"><ele>58.0</ele><time>2026-04-19T08:55:15.992Z</time></trkpt><trkpt lat="44.67492523092801" lon="0.4692533218634201"><ele>58.0</ele><time>2026-04-19T08:55:16.992Z</time></trkpt><trkpt lat="44.67489015515451" lon="0.46947729226150314"><ele>58.0</ele><time>2026-04-19T08:55:17.992Z</time></trkpt><trkpt lat="44.67483982550057" lon="0.4696930918938736"><ele>58.0</ele><time>2026-04-19T08:55:18.992Z</time></trkpt><trkpt lat="44.67478929161669" lon="0.4699159805240632"><ele>58.33333333333333</ele><time>2026-04-19T08:55:19.992Z</time></trkpt><trkpt lat="44.67473249724464" lon="0.4701359653781049"><ele>58.66666666666667</ele><time>2026-04-19T08:55:20.992Z</time></trkpt><trkpt lat="44.67468092585301" lon="0.47034730688915444"><ele>59.0</ele><time>2026-04-19T08:55:21.992Z</time></trkpt><trkpt lat="44.674633028169644" lon="0.4705634217602101"><ele>59.0</ele><time>2026-04-19T08:55:22.992Z</time></trkpt><trkpt lat="44.67458837991838" lon="0.47077085707833966"><ele>59.0</ele><time>2026-04-19T08:55:23.992Z</time></trkpt><trkpt lat="44.67454132737071" lon="0.47097891752062604"><ele>59.0</ele><time>2026-04-19T08:55:24.992Z</time></trkpt><trkpt lat="44.67449618381252" lon="0.47118967941877327"><ele>59.0</ele><time>2026-04-19T08:55:25.992Z</time></trkpt><trkpt lat="44.67445030980521" lon="0.47140082720113596"><ele>59.0</ele><time>2026-04-19T08:55:26.992Z</time></trkpt><trkpt lat="44.674404884237546" lon="0.47161044057334217"><ele>59.0</ele><time>2026-04-19T08:55:27.992Z</time></trkpt><trkpt lat="44.674351427021755" lon="0.4718231244348259"><ele>59.0</ele><time>2026-04-19T08:55:28.992Z</time></trkpt><trkpt lat="44.67429764701654" lon="0.47203840428231947"><ele>59.0</ele><time>2026-04-19T08:55:29.992Z</time></trkpt><trkpt lat="44.674248318582016" lon="0.47225518396578914"><ele>59.0</ele><time>2026-04-19T08:55:30.992Z</time></trkpt><trkpt lat="44.67420018601305" lon="0.4724752751747544"><ele>58.66666666666667</ele><time>2026-04-19T08:55:31.992Z</time></trkpt><trkpt lat="44.674156234834314" lon="0.4726932416092179"><ele>58.33333333333333</ele><time>2026-04-19T08:55:32.992Z</time></trkpt><trkpt lat="44.67410618590787" lon="0.4729102196504221"><ele>58.0</ele><time>2026-04-19T08:55:33.992Z</time></trkpt><trkpt lat="44.67405348620041" lon="0.473140919824535"><ele>58.666666666666664</ele><time>2026-04-19T08:55:34.992Z</time></trkpt><trkpt lat="44.67400276389123" lon="0.4733740621689016"><ele>59.33333333333333</ele><time>2026-04-19T08:55:35.992Z</time></trkpt><trkpt lat="44.67394843532808" lon="0.4736099603921049"><ele>60.0</ele><time>2026-04-19T08:55:36.992Z</time></trkpt><trkpt lat="44.67389551995935" lon="0.4738370356198557"><ele>61.66666666666667</ele><time>2026-04-19T08:55:37.992Z</time></trkpt><trkpt lat="44.67384055802542" lon="0.47407353581172257"><ele>63.333333333333336</ele><time>2026-04-19T08:55:38.992Z</time></trkpt><trkpt lat="44.67378524443721" lon="0.474311394053052"><ele>65.0</ele><time>2026-04-19T08:55:39.992Z</time></trkpt><trkpt lat="44.67372686642751" lon="0.47454220804057534"><ele>65.66666666666667</ele><time>2026-04-19T08:55:40.992Z</time></trkpt><trkpt lat="44.673673645912075" lon="0.4747956445242354"><ele>66.33333333333333</ele><time>2026-04-19T08:55:41.992Z</time></trkpt><trkpt lat="44.67361761348325" lon="0.4750309395761971"><ele>67.0</ele><time>2026-04-19T08:55:42.992Z</time></trkpt><trkpt lat="44.67356532800209" lon="0.475268923518665"><ele>65.0</ele><time>2026-04-19T08:55:43.992Z</time></trkpt><trkpt lat="44.67352598777095" lon="0.47551157276827355"><ele>63.0</ele><time>2026-04-19T08:55:44.992Z</time></trkpt><trkpt lat="44.67349995832166" lon="0.4757658370145511"><ele>61.0</ele><time>2026-04-19T08:55:45.992Z</time></trkpt><trkpt lat="44.67349444900027" lon="0.4760314078388898"><ele>61.0</ele><time>2026-04-19T08:55:46.992Z</time></trkpt><trkpt lat="44.67349632594338" lon="0.47630729109302644"><ele>61.0</ele><time>2026-04-19T08:55:47.992Z</time></trkpt><trkpt lat="44.67350539350694" lon="0.476586070397386"><ele>61.0</ele><time>2026-04-19T08:55:48.992Z</time></trkpt><trkpt lat="44.673505919777575" lon="0.47687600625917986"><ele>61.0</ele><time>2026-04-19T08:55:49.992Z</time></trkpt><trkpt lat="44.67350140307547" lon="0.4771664569903412"><ele>61.0</ele><time>2026-04-19T08:55:50.992Z</time></trkpt><trkpt lat="44.67349759933774" lon="0.4774503476902309"><ele>61.0</ele><time>2026-04-19T08:55:51.992Z</time></trkpt><trkpt lat="44.67349641226635" lon="0.47773066657243923"><ele>60.666666666666664</ele><time>2026-04-19T08:55:52.992Z</time></trkpt><trkpt lat="44.67349967629575" lon="0.47800568603365806"><ele>60.33333333333333</ele><time>2026-04-19T08:55:53.992Z</time></trkpt><trkpt lat="44.67350095143245" lon="0.47827825074195407"><ele>60.0</ele><time>2026-04-19T08:55:54.993Z</time></trkpt><trkpt lat="44.673505460058614" lon="0.47854069444344244"><ele>59.66666666666667</ele><time>2026-04-19T08:55:55.992Z</time></trkpt><trkpt lat="44.67351778517424" lon="0.4788055462269453"><ele>59.333333333333336</ele><time>2026-04-19T08:55:56.992Z</time></trkpt><trkpt lat="44.67353831443724" lon="0.4790754787625763"><ele>59.0</ele><time>2026-04-19T08:55:57.993Z</time></trkpt><trkpt lat="44.67357469656362" lon="0.47934714578844045"><ele>60.66666666666667</ele><time>2026-04-19T08:55:58.993Z</time></trkpt><trkpt lat="44.67362566380226" lon="0.4796283323271045"><ele>62.33333333333333</ele><time>2026-04-19T08:55:59.993Z</time></trkpt><trkpt lat="44.67367976286362" lon="0.4799092499465526"><ele>64.0</ele><time>2026-04-19T08:56:00.993Z</time></trkpt><trkpt lat="44.673732413358636" lon="0.48019396085513233"><ele>63.666666666666664</ele><time>2026-04-19T08:56:01.992Z</time></trkpt><trkpt lat="44.67378096415307" lon="0.4804779644147825"><ele>63.33333333333333</ele><time>2026-04-19T08:56:02.992Z</time></trkpt><trkpt lat="44.67383292823769" lon="0.48076344810562366"><ele>63.0</ele><time>2026-04-19T08:56:03.992Z</time></trkpt><trkpt lat="44.67388120974561" lon="0.48104818912084985"><ele>63.0</ele><time>2026-04-19T08:56:04.992Z</time></trkpt><trkpt lat="44.67392991143537" lon="0.48133460377223214"><ele>63.0</ele><time>2026-04-19T08:56:05.992Z</time></trkpt><trkpt lat="44.67397991019747" lon="0.481627711902778"><ele>63.0</ele><time>2026-04-19T08:56:06.992Z</time></trkpt><trkpt lat="44.67402982054026" lon="0.4819230005673624"><ele>62.66666666666667</ele><time>2026-04-19T08:56:07.992Z</time></trkpt><trkpt lat="44.67407856133928" lon="0.48222112995540783"><ele>62.333333333333336</ele><time>2026-04-19T08:56:08.992Z</time></trkpt><trkpt lat="44.6741286724578" lon="0.4825206313589416"><ele>62.0</ele><time>2026-04-19T08:56:09.992Z</time></trkpt><trkpt lat="44.67418024451507" lon="0.48282082214999744"><ele>62.0</ele><time>2026-04-19T08:56:10.992Z</time></trkpt><trkpt lat="44.67423066841283" lon="0.4831244157240374"><ele>62.0</ele><time>2026-04-19T08:56:11.992Z</time></trkpt><trkpt lat="44.674281500252924" lon="0.48342831244548995"><ele>62.0</ele><time>2026-04-19T08:56:12.992Z</time></trkpt><trkpt lat="44.67433487591791" lon="0.4837327473192674"><ele>62.66666666666667</ele><time>2026-04-19T08:56:13.992Z</time></trkpt><trkpt lat="44.67438694227508" lon="0.48403767439929885"><ele>63.33333333333333</ele><time>2026-04-19T08:56:14.992Z</time></trkpt><trkpt lat="44.674438887352835" lon="0.4843303840519975"><ele>64.0</ele><time>2026-04-19T08:56:15.992Z</time></trkpt><trkpt lat="44.67448996091066" lon="0.48462674444065035"><ele>66.0</ele><time>2026-04-19T08:56:16.992Z</time></trkpt><trkpt lat="44.67454063660334" lon="0.4849261269489171"><ele>68.0</ele><time>2026-04-19T08:56:17.992Z</time></trkpt><trkpt lat="44.674591449352434" lon="0.48522338233015316"><ele>70.0</ele><time>2026-04-19T08:56:18.992Z</time></trkpt><trkpt lat="44.67464221486367" lon="0.48551912163743344"><ele>70.33333333333333</ele><time>2026-04-19T08:56:19.992Z</time></trkpt><trkpt lat="44.67469315079504" lon="0.48581475404315966"><ele>70.66666666666667</ele><time>2026-04-19T08:56:20.992Z</time></trkpt><trkpt lat="44.67474234875806" lon="0.4861072512497183"><ele>71.0</ele><time>2026-04-19T08:56:21.992Z</time></trkpt><trkpt lat="44.67479054135953" lon="0.48639965289470527"><ele>71.0</ele><time>2026-04-19T08:56:22.992Z</time></trkpt><trkpt lat="44.674839053568675" lon="0.486688701784698"><ele>71.0</ele><time>2026-04-19T08:56:23.992Z</time></trkpt><trkpt lat="44.674885864197655" lon="0.486982448777986"><ele>71.0</ele><time>2026-04-19T08:56:24.992Z</time></trkpt><trkpt lat="44.67493569004969" lon="0.4872735905176377"><ele>71.66666666666667</ele><time>2026-04-19T08:56:25.992Z</time></trkpt><trkpt lat="44.6749862559013" lon="0.487575150027257"><ele>72.33333333333333</ele><time>2026-04-19T08:56:26.992Z</time></trkpt><trkpt lat="44.675036031206346" lon="0.48786759144322156"><ele>73.0</ele><time>2026-04-19T08:56:27.992Z</time></trkpt><trkpt lat="44.67508789834395" lon="0.4881725813083514"><ele>73.0</ele><time>2026-04-19T08:56:28.992Z</time></trkpt><trkpt lat="44.675138950035716" lon="0.4884747906442613"><ele>73.0</ele><time>2026-04-19T08:56:29.992Z</time></trkpt><trkpt lat="44.67518908054004" lon="0.48878021481156486"><ele>73.0</ele><time>2026-04-19T08:56:30.992Z</time></trkpt><trkpt lat="44.67523960024761" lon="0.48908587395118075"><ele>74.5</ele><time>2026-04-19T08:56:31.992Z</time></trkpt><trkpt lat="44.67529272987147" lon="0.48939399511869036"><ele>76.0</ele><time>2026-04-19T08:56:32.992Z</time></trkpt><trkpt lat="44.6753468097326" lon="0.48970505888762383"><ele>76.0</ele><time>2026-04-19T08:56:33.992Z</time></trkpt><trkpt lat="44.67539957258523" lon="0.49000777487625913"><ele>76.0</ele><time>2026-04-19T08:56:34.992Z</time></trkpt><trkpt lat="44.675455365308586" lon="0.4903250958395756"><ele>76.0</ele><time>2026-04-19T08:56:35.992Z</time></trkpt><trkpt lat="44.675506995608814" lon="0.49063608023219907"><ele>76.0</ele><time>2026-04-19T08:56:36.992Z</time></trkpt><trkpt lat="44.67555853907591" lon="0.49095209146573826"><ele>76.5</ele><time>2026-04-19T08:56:37.992Z</time></trkpt><trkpt lat="44.675611306987186" lon="0.49126706936712977"><ele>77.0</ele><time>2026-04-19T08:56:38.992Z</time></trkpt><trkpt lat="44.675663142133125" lon="0.49157913975778694"><ele>77.0</ele><time>2026-04-19T08:56:39.992Z</time></trkpt><trkpt lat="44.67571637201047" lon="0.491892689775398"><ele>77.0</ele><time>2026-04-19T08:56:40.992Z</time></trkpt><trkpt lat="44.67577039530493" lon="0.49219879286936496"><ele>77.0</ele><time>2026-04-19T08:56:41.992Z</time></trkpt><trkpt lat="44.67581935258281" lon="0.4925078109436461"><ele>77.0</ele><time>2026-04-19T08:56:42.992Z</time></trkpt><trkpt lat="44.6758731932555" lon="0.49281482726816894"><ele>76.66666666666667</ele><time>2026-04-19T08:56:43.992Z</time></trkpt><trkpt lat="44.675925627077845" lon="0.49311983988875935"><ele>76.33333333333333</ele><time>2026-04-19T08:56:44.992Z</time></trkpt><trkpt lat="44.67597791334788" lon="0.49342235494456116"><ele>76.0</ele><time>2026-04-19T08:56:45.992Z</time></trkpt><trkpt lat="44.676028639687374" lon="0.49372466948338184"><ele>76.33333333333333</ele><time>2026-04-19T08:56:46.992Z</time></trkpt><trkpt lat="44.67608312870196" lon="0.49401809189704154"><ele>76.66666666666667</ele><time>2026-04-19T08:56:47.992Z</time></trkpt><trkpt lat="44.67613028480171" lon="0.4943235927972776"><ele>77.0</ele><time>2026-04-19T08:56:48.992Z</time></trkpt><trkpt lat="44.676176041802556" lon="0.4946199904307097"><ele>77.0</ele><time>2026-04-19T08:56:49.992Z</time></trkpt><trkpt lat="44.676225141187004" lon="0.49491485243999683"><ele>77.0</ele><time>2026-04-19T08:56:50.992Z</time></trkpt><trkpt lat="44.67626875431473" lon="0.4951928418342075"><ele>77.0</ele><time>2026-04-19T08:56:51.992Z</time></trkpt><trkpt lat="44.67631077447095" lon="0.4954566033804719"><ele>77.33333333333334</ele><time>2026-04-19T08:56:52.992Z</time></trkpt><trkpt lat="44.67635360739553" lon="0.49571193841322686"><ele>77.66666666666667</ele><time>2026-04-19T08:56:53.992Z</time></trkpt><trkpt lat="44.6763997084281" lon="0.49595936533273544"><ele>78.0</ele><time>2026-04-19T08:56:54.992Z</time></trkpt><trkpt lat="44.67646575089335" lon="0.4962055530112182"><ele>78.33333333333333</ele><time>2026-04-19T08:56:55.992Z</time></trkpt><trkpt lat="44.67655212421657" lon="0.4964449204567774"><ele>78.66666666666666</ele><time>2026-04-19T08:56:56.992Z</time></trkpt><trkpt lat="44.67665224649275" lon="0.49667570434540675"><ele>79.0</ele><time>2026-04-19T08:56:57.992Z</time></trkpt><trkpt lat="44.676767677727184" lon="0.4968895109351689"><ele>77.66666666666666</ele><time>2026-04-19T08:56:58.992Z</time></trkpt><trkpt lat="44.67688946020827" lon="0.4971031340910891"><ele>76.33333333333333</ele><time>2026-04-19T08:56:59.992Z</time></trkpt><trkpt lat="44.6770437867607" lon="0.4972770567819136"><ele>75.0</ele><time>2026-04-19T08:57:00.992Z</time></trkpt><trkpt lat="44.677217319281574" lon="0.49744368598632366"><ele>75.0</ele><time>2026-04-19T08:57:01.992Z</time></trkpt><trkpt lat="44.67740420922498" lon="0.4976160852530787"><ele>75.0</ele><time>2026-04-19T08:57:02.992Z</time></trkpt><trkpt lat="44.6775997369713" lon="0.4977815000148054"><ele>77.0</ele><time>2026-04-19T08:57:03.992Z</time></trkpt><trkpt lat="44.677807081729945" lon="0.4979434488966625"><ele>79.0</ele><time>2026-04-19T08:57:04.992Z</time></trkpt><trkpt lat="44.678015190590294" lon="0.49811187627161857"><ele>79.0</ele><time>2026-04-19T08:57:05.992Z</time></trkpt><trkpt lat="44.67822153059876" lon="0.4982929462030638"><ele>79.0</ele><time>2026-04-19T08:57:06.992Z</time></trkpt><trkpt lat="44.678431640834944" lon="0.49846129925325916"><ele>78.5</ele><time>2026-04-19T08:57:07.992Z</time></trkpt><trkpt lat="44.67863869884602" lon="0.49863348378759265"><ele>78.0</ele><time>2026-04-19T08:57:08.992Z</time></trkpt><trkpt lat="44.67883685791689" lon="0.49880751096803205"><ele>75.5</ele><time>2026-04-19T08:57:09.992Z</time></trkpt><trkpt lat="44.67904139242286" lon="0.49897273526991265"><ele>73.0</ele><time>2026-04-19T08:57:10.992Z</time></trkpt><trkpt lat="44.67924165165317" lon="0.4991431745909081"><ele>74.0</ele><time>2026-04-19T08:57:11.992Z</time></trkpt><trkpt lat="44.6794371642035" lon="0.49930566477125354"><ele>75.0</ele><time>2026-04-19T08:57:12.992Z</time></trkpt><trkpt lat="44.679634643650964" lon="0.49946826489601126"><ele>71.5</ele><time>2026-04-19T08:57:13.992Z</time></trkpt><trkpt lat="44.67982743601698" lon="0.4996328931075198"><ele>68.0</ele><time>2026-04-19T08:57:14.992Z</time></trkpt><trkpt lat="44.68002098650615" lon="0.4997957129868608"><ele>68.0</ele><time>2026-04-19T08:57:15.992Z</time></trkpt><trkpt lat="44.680206070601116" lon="0.49995597847231066"><ele>68.0</ele><time>2026-04-19T08:57:16.992Z</time></trkpt><trkpt lat="44.680384640034305" lon="0.5001021051915536"><ele>68.0</ele><time>2026-04-19T08:57:17.992Z</time></trkpt><trkpt lat="44.680563051144915" lon="0.5002514315577714"><ele>68.66666666666667</ele><time>2026-04-19T08:57:18.992Z</time></trkpt><trkpt lat="44.68073695543614" lon="0.500393864056171"><ele>69.33333333333333</ele><time>2026-04-19T08:57:19.992Z</time></trkpt><trkpt lat="44.680902149100575" lon="0.5005293536244176"><ele>70.0</ele><time>2026-04-19T08:57:20.992Z</time></trkpt><trkpt lat="44.68106224231548" lon="0.5006585953228604"><ele>69.66666666666666</ele><time>2026-04-19T08:57:21.992Z</time></trkpt><trkpt lat="44.68121858559543" lon="0.5007819729067325"><ele>69.33333333333333</ele><time>2026-04-19T08:57:22.992Z</time></trkpt><trkpt lat="44.68135802867368" lon="0.5009393874658161"><ele>69.0</ele><time>2026-04-19T08:57:23.992Z</time></trkpt><trkpt lat="44.68148548827711" lon="0.5011133051614598"><ele>68.33333333333333</ele><time>2026-04-19T08:57:24.992Z</time></trkpt><trkpt lat="44.68159283962551" lon="0.5013182962624638"><ele>67.66666666666666</ele><time>2026-04-19T08:57:25.992Z</time></trkpt><trkpt lat="44.68167654530961" lon="0.5015461029007096"><ele>67.0</ele><time>2026-04-19T08:57:26.992Z</time></trkpt><trkpt lat="44.68173288743012" lon="0.501789202596908"><ele>67.0</ele><time>2026-04-19T08:57:27.992Z</time></trkpt><trkpt lat="44.681775594155766" lon="0.5020514557823257"><ele>67.0</ele><time>2026-04-19T08:57:28.992Z</time></trkpt><trkpt lat="44.68180220134997" lon="0.5023366301882181"><ele>67.0</ele><time>2026-04-19T08:57:29.992Z</time></trkpt><trkpt lat="44.68184536728724" lon="0.5026353728328627"><ele>66.0</ele><time>2026-04-19T08:57:30.992Z</time></trkpt><trkpt lat="44.68184106365912" lon="0.5029692951749338"><ele>65.0</ele><time>2026-04-19T08:57:31.992Z</time></trkpt><trkpt lat="44.68183184214754" lon="0.5033101783640294"><ele>65.0</ele><time>2026-04-19T08:57:32.992Z</time></trkpt><trkpt lat="44.68181611039129" lon="0.5036453121560575"><ele>65.0</ele><time>2026-04-19T08:57:33.992Z</time></trkpt><trkpt lat="44.68178945912576" lon="0.503972370082711"><ele>65.0</ele><time>2026-04-19T08:57:34.992Z</time></trkpt><trkpt lat="44.68179504333773" lon="0.5042976977356841"><ele>65.0</ele><time>2026-04-19T08:57:35.992Z</time></trkpt><trkpt lat="44.68178505586851" lon="0.5046220599477117"><ele>64.0</ele><time>2026-04-19T08:57:36.992Z</time></trkpt><trkpt lat="44.68177353796463" lon="0.5049400242227173"><ele>63.0</ele><time>2026-04-19T08:57:37.992Z</time></trkpt><trkpt lat="44.68174112406163" lon="0.5052711155986537"><ele>62.0</ele><time>2026-04-19T08:57:38.992Z</time></trkpt><trkpt lat="44.68173156891331" lon="0.5055934705403464"><ele>61.0</ele><time>2026-04-19T08:57:39.992Z</time></trkpt><trkpt lat="44.6817196994861" lon="0.5059109669381809"><ele>61.0</ele><time>2026-04-19T08:57:40.992Z</time></trkpt><trkpt lat="44.68171309678169" lon="0.5062292163868735"><ele>61.0</ele><time>2026-04-19T08:57:41.992Z</time></trkpt><trkpt lat="44.68170515186598" lon="0.5065476318516355"><ele>62.0</ele><time>2026-04-19T08:57:42.992Z</time></trkpt><trkpt lat="44.68170319166564" lon="0.5068721409597784"><ele>63.0</ele><time>2026-04-19T08:57:43.992Z</time></trkpt><trkpt lat="44.68169569606113" lon="0.5071889269497052"><ele>64.0</ele><time>2026-04-19T08:57:44.992Z</time></trkpt><trkpt lat="44.68169126002641" lon="0.5075034014185043"><ele>65.0</ele><time>2026-04-19T08:57:45.992Z</time></trkpt><trkpt lat="44.68168306648909" lon="0.50782511422084"><ele>65.5</ele><time>2026-04-19T08:57:46.992Z</time></trkpt><trkpt lat="44.6816743183112" lon="0.5081481079629873"><ele>66.0</ele><time>2026-04-19T08:57:47.992Z</time></trkpt><trkpt lat="44.6816704429859" lon="0.5084653147621606"><ele>66.5</ele><time>2026-04-19T08:57:48.992Z</time></trkpt><trkpt lat="44.68165916541608" lon="0.5087867692381146"><ele>67.0</ele><time>2026-04-19T08:57:49.992Z</time></trkpt><trkpt lat="44.681650945594996" lon="0.509106044115944"><ele>67.0</ele><time>2026-04-19T08:57:50.992Z</time></trkpt><trkpt lat="44.68164310796469" lon="0.5094261160793245"><ele>67.0</ele><time>2026-04-19T08:57:51.992Z</time></trkpt><trkpt lat="44.68163337035843" lon="0.5097432028801254"><ele>67.0</ele><time>2026-04-19T08:57:52.992Z</time></trkpt><trkpt lat="44.68162152047306" lon="0.5100537395215464"><ele>67.0</ele><time>2026-04-19T08:57:53.992Z</time></trkpt><trkpt lat="44.68161445970632" lon="0.5103659735541367"><ele>67.0</ele><time>2026-04-19T08:57:54.992Z</time></trkpt><trkpt lat="44.68161008323854" lon="0.5106778140447824"><ele>67.0</ele><time>2026-04-19T08:57:55.992Z</time></trkpt><trkpt lat="44.68159933371749" lon="0.5109869395048962"><ele>67.0</ele><time>2026-04-19T08:57:56.992Z</time></trkpt><trkpt lat="44.6815996726574" lon="0.5113036588113254"><ele>67.0</ele><time>2026-04-19T08:57:57.992Z</time></trkpt><trkpt lat="44.681594343902766" lon="0.5116355202974544"><ele>67.0</ele><time>2026-04-19T08:57:58.992Z</time></trkpt><trkpt lat="44.68159347463716" lon="0.5119732292147676"><ele>67.0</ele><time>2026-04-19T08:57:59.992Z</time></trkpt><trkpt lat="44.681591653075934" lon="0.5123067166109204"><ele>67.5</ele><time>2026-04-19T08:58:00.992Z</time></trkpt><trkpt lat="44.68158234194991" lon="0.5126392674448358"><ele>68.0</ele><time>2026-04-19T08:58:01.992Z</time></trkpt><trkpt lat="44.68156087645972" lon="0.5129769854394336"><ele>68.0</ele><time>2026-04-19T08:58:02.992Z</time></trkpt><trkpt lat="44.68155027377611" lon="0.5133141836216024"><ele>68.0</ele><time>2026-04-19T08:58:03.992Z</time></trkpt><trkpt lat="44.68152354627262" lon="0.5136524866496306"><ele>67.5</ele><time>2026-04-19T08:58:04.991Z</time></trkpt><trkpt lat="44.681510749710036" lon="0.51399199949958"><ele>67.0</ele><time>2026-04-19T08:58:05.991Z</time></trkpt><trkpt lat="44.68150549694966" lon="0.5143312785598729"><ele>66.5</ele><time>2026-04-19T08:58:06.992Z</time></trkpt><trkpt lat="44.681496579662415" lon="0.5146684142778254"><ele>66.0</ele><time>2026-04-19T08:58:07.992Z</time></trkpt><trkpt lat="44.681490487686496" lon="0.5150115710254726"><ele>66.0</ele><time>2026-04-19T08:58:08.992Z</time></trkpt><trkpt lat="44.68148025961125" lon="0.5153555106270848"><ele>66.0</ele><time>2026-04-19T08:58:09.992Z</time></trkpt><trkpt lat="44.68147303876446" lon="0.5157032690874034"><ele>66.5</ele><time>2026-04-19T08:58:10.991Z</time></trkpt><trkpt lat="44.68146286754941" lon="0.516046940374075"><ele>67.0</ele><time>2026-04-19T08:58:11.991Z</time></trkpt><trkpt lat="44.68145447323128" lon="0.5164013781527328"><ele>68.5</ele><time>2026-04-19T08:58:12.991Z</time></trkpt><trkpt lat="44.681451649083925" lon="0.5167517228971946"><ele>70.0</ele><time>2026-04-19T08:58:13.992Z</time></trkpt><trkpt lat="44.68143723287296" lon="0.5170920122646976"><ele>71.0</ele><time>2026-04-19T08:58:14.992Z</time></trkpt><trkpt lat="44.68142883900994" lon="0.5174514833057192"><ele>72.0</ele><time>2026-04-19T08:58:15.992Z</time></trkpt><trkpt lat="44.681420588868804" lon="0.5178046477921951"><ele>72.0</ele><time>2026-04-19T08:58:16.992Z</time></trkpt><trkpt lat="44.6814087139887" lon="0.5181593483971133"><ele>72.0</ele><time>2026-04-19T08:58:17.992Z</time></trkpt><trkpt lat="44.681396923489295" lon="0.51851239970765"><ele>71.5</ele><time>2026-04-19T08:58:18.992Z</time></trkpt><trkpt lat="44.68138583158674" lon="0.5188635265505974"><ele>71.0</ele><time>2026-04-19T08:58:19.992Z</time></trkpt><trkpt lat="44.681383079067515" lon="0.5192093511113453"><ele>71.0</ele><time>2026-04-19T08:58:20.992Z</time></trkpt><trkpt lat="44.68138389987389" lon="0.5195575913757048"><ele>71.0</ele><time>2026-04-19T08:58:21.992Z</time></trkpt><trkpt lat="44.68139153181993" lon="0.5198935143544947"><ele>71.5</ele><time>2026-04-19T08:58:22.992Z</time></trkpt><trkpt lat="44.68138628489908" lon="0.520229213597894"><ele>72.0</ele><time>2026-04-19T08:58:23.992Z</time></trkpt><trkpt lat="44.6813766350331" lon="0.5205635929626454"><ele>72.0</ele><time>2026-04-19T08:58:24.992Z</time></trkpt><trkpt lat="44.68136245821772" lon="0.5208981442554879"><ele>72.0</ele><time>2026-04-19T08:58:25.992Z</time></trkpt><trkpt lat="44.68133771384468" lon="0.5212359361843345"><ele>71.5</ele><time>2026-04-19T08:58:26.992Z</time></trkpt><trkpt lat="44.681316220943344" lon="0.5215612379846075"><ele>71.0</ele><time>2026-04-19T08:58:27.992Z</time></trkpt><trkpt lat="44.6813016634831" lon="0.5218872660120898"><ele>72.5</ele><time>2026-04-19T08:58:28.992Z</time></trkpt><trkpt lat="44.68130140501838" lon="0.5222148384241027"><ele>74.0</ele><time>2026-04-19T08:58:29.992Z</time></trkpt><trkpt lat="44.68130094109225" lon="0.522534727766177"><ele>74.0</ele><time>2026-04-19T08:58:30.992Z</time></trkpt><trkpt lat="44.68129266736264" lon="0.5228580341408617"><ele>74.0</ele><time>2026-04-19T08:58:31.992Z</time></trkpt><trkpt lat="44.68128730920957" lon="0.5231895359693135"><ele>76.0</ele><time>2026-04-19T08:58:32.992Z</time></trkpt><trkpt lat="44.68127886117382" lon="0.5235260844088053"><ele>78.0</ele><time>2026-04-19T08:58:33.992Z</time></trkpt><trkpt lat="44.681269694513404" lon="0.5238691173797513"><ele>78.5</ele><time>2026-04-19T08:58:34.992Z</time></trkpt><trkpt lat="44.68125862954253" lon="0.5242073119397366"><ele>79.0</ele><time>2026-04-19T08:58:35.992Z</time></trkpt><trkpt lat="44.68124565373542" lon="0.5245427735962274"><ele>78.5</ele><time>2026-04-19T08:58:36.992Z</time></trkpt><trkpt lat="44.681226703347775" lon="0.5248751294197731"><ele>78.0</ele><time>2026-04-19T08:58:37.992Z</time></trkpt><trkpt lat="44.68118645278614" lon="0.5252135390553001"><ele>77.5</ele><time>2026-04-19T08:58:38.992Z</time></trkpt><trkpt lat="44.68113922454375" lon="0.5255524114744272"><ele>77.0</ele><time>2026-04-19T08:58:39.992Z</time></trkpt><trkpt lat="44.681092511045456" lon="0.5258911181257033"><ele>72.5</ele><time>2026-04-19T08:58:40.992Z</time></trkpt><trkpt lat="44.681052618084415" lon="0.5262198273710971"><ele>68.0</ele><time>2026-04-19T08:58:41.992Z</time></trkpt><trkpt lat="44.681012118817385" lon="0.5265518483765963"><ele>68.0</ele><time>2026-04-19T08:58:42.992Z</time></trkpt><trkpt lat="44.680977760407565" lon="0.5268842527844341"><ele>68.0</ele><time>2026-04-19T08:58:43.992Z</time></trkpt><trkpt lat="44.68094779628045" lon="0.5272174706695754"><ele>67.5</ele><time>2026-04-19T08:58:44.992Z</time></trkpt><trkpt lat="44.68092405722657" lon="0.5275487868933407"><ele>67.0</ele><time>2026-04-19T08:58:45.992Z</time></trkpt><trkpt lat="44.68090871199755" lon="0.5278844466711392"><ele>68.0</ele><time>2026-04-19T08:58:46.992Z</time></trkpt><trkpt lat="44.68090142540506" lon="0.5282133759122283"><ele>69.0</ele><time>2026-04-19T08:58:47.992Z</time></trkpt><trkpt lat="44.68088566329676" lon="0.5285506030710064"><ele>69.5</ele><time>2026-04-19T08:58:48.992Z</time></trkpt><trkpt lat="44.680868590559854" lon="0.5288790096801047"><ele>70.0</ele><time>2026-04-19T08:58:49.992Z</time></trkpt><trkpt lat="44.68085730314127" lon="0.5292132944898775"><ele>70.0</ele><time>2026-04-19T08:58:50.992Z</time></trkpt><trkpt lat="44.680840657170876" lon="0.5295504330421962"><ele>70.0</ele><time>2026-04-19T08:58:51.992Z</time></trkpt><trkpt lat="44.680820038081826" lon="0.5298787184531761"><ele>70.5</ele><time>2026-04-19T08:58:52.992Z</time></trkpt><trkpt lat="44.68079523333897" lon="0.5302026931763627"><ele>71.0</ele><time>2026-04-19T08:58:53.992Z</time></trkpt><trkpt lat="44.6807423503902" lon="0.5305188864396809"><ele>72.5</ele><time>2026-04-19T08:58:54.992Z</time></trkpt><trkpt lat="44.68068688180476" lon="0.5308300173722355"><ele>74.0</ele><time>2026-04-19T08:58:55.992Z</time></trkpt><trkpt lat="44.680622389360735" lon="0.5311416663906349"><ele>77.0</ele><time>2026-04-19T08:58:56.992Z</time></trkpt><trkpt lat="44.68055492779427" lon="0.5314468142383558"><ele>80.0</ele><time>2026-04-19T08:58:57.992Z</time></trkpt><trkpt lat="44.68047954020434" lon="0.5317470156262827"><ele>80.0</ele><time>2026-04-19T08:58:58.992Z</time></trkpt><trkpt lat="44.68039635561374" lon="0.532030836379385"><ele>80.0</ele><time>2026-04-19T08:58:59.992Z</time></trkpt><trkpt lat="44.68030234052949" lon="0.5323010649546693"><ele>80.0</ele><time>2026-04-19T08:59:00.992Z</time></trkpt><trkpt lat="44.68019237467914" lon="0.5325671727214428"><ele>79.66666666666667</ele><time>2026-04-19T08:59:01.992Z</time></trkpt><trkpt lat="44.68007163795769" lon="0.5328200601740086"><ele>79.33333333333333</ele><time>2026-04-19T08:59:02.992Z</time></trkpt><trkpt lat="44.679937408652016" lon="0.5330556881442252"><ele>79.0</ele><time>2026-04-19T08:59:03.992Z</time></trkpt><trkpt lat="44.679788888879465" lon="0.5332695241778059"><ele>79.0</ele><time>2026-04-19T08:59:04.992Z</time></trkpt><trkpt lat="44.67961502289618" lon="0.5334701180677727"><ele>79.0</ele><time>2026-04-19T08:59:05.992Z</time></trkpt><trkpt lat="44.679440795456976" lon="0.5336410280974989"><ele>79.0</ele><time>2026-04-19T08:59:06.992Z</time></trkpt><trkpt lat="44.67926794480495" lon="0.5338030736592474"><ele>77.66666666666666</ele><time>2026-04-19T08:59:07.992Z</time></trkpt><trkpt lat="44.67910741634445" lon="0.5339531056916169"><ele>76.33333333333333</ele><time>2026-04-19T08:59:08.992Z</time></trkpt><trkpt lat="44.67896568519042" lon="0.5341238808924472"><ele>75.0</ele><time>2026-04-19T08:59:09.992Z</time></trkpt><trkpt lat="44.6788273206154" lon="0.5342807623131494"><ele>75.0</ele><time>2026-04-19T08:59:10.992Z</time></trkpt><trkpt lat="44.678705059989525" lon="0.5344513061216073"><ele>75.0</ele><time>2026-04-19T08:59:11.992Z</time></trkpt><trkpt lat="44.6785968322536" lon="0.5346246141847951"><ele>75.0</ele><time>2026-04-19T08:59:12.992Z</time></trkpt><trkpt lat="44.678502510992644" lon="0.5348108573920209"><ele>75.33333333333333</ele><time>2026-04-19T08:59:13.992Z</time></trkpt><trkpt lat="44.67841681417765" lon="0.5350039343984048"><ele>75.66666666666666</ele><time>2026-04-19T08:59:14.992Z</time></trkpt><trkpt lat="44.678347367042264" lon="0.5352037616795027"><ele>76.0</ele><time>2026-04-19T08:59:15.992Z</time></trkpt><trkpt lat="44.67828008200769" lon="0.5354121159719801"><ele>77.33333333333333</ele><time>2026-04-19T08:59:16.992Z</time></trkpt><trkpt lat="44.67822575243136" lon="0.5356083036612578"><ele>78.66666666666667</ele><time>2026-04-19T08:59:17.992Z</time></trkpt><trkpt lat="44.678173672787466" lon="0.5358062794469568"><ele>80.0</ele><time>2026-04-19T08:59:18.992Z</time></trkpt><trkpt lat="44.67812346926268" lon="0.5360062239487516"><ele>80.0</ele><time>2026-04-19T08:59:19.992Z</time></trkpt><trkpt lat="44.678080983153784" lon="0.5362031093271732"><ele>80.0</ele><time>2026-04-19T08:59:20.992Z</time></trkpt><trkpt lat="44.678044259733866" lon="0.5363855727418105"><ele>80.0</ele><time>2026-04-19T08:59:21.992Z</time></trkpt><trkpt lat="44.67800488135117" lon="0.5365622350473106"><ele>80.0</ele><time>2026-04-19T08:59:22.992Z</time></trkpt><trkpt lat="44.67797823790363" lon="0.5367303353005171"><ele>80.5</ele><time>2026-04-19T08:59:23.992Z</time></trkpt><trkpt lat="44.67794598179865" lon="0.5369076903391693"><ele>81.0</ele><time>2026-04-19T08:59:24.992Z</time></trkpt><trkpt lat="44.67793617731875" lon="0.5370721502222111"><ele>81.5</ele><time>2026-04-19T08:59:25.992Z</time></trkpt><trkpt lat="44.67792345185044" lon="0.5372507054487219"><ele>82.0</ele><time>2026-04-19T08:59:26.992Z</time></trkpt><trkpt lat="44.67792645693819" lon="0.5374259572618449"><ele>82.0</ele><time>2026-04-19T08:59:27.992Z</time></trkpt><trkpt lat="44.67793810361654" lon="0.5376012199337069"><ele>82.0</ele><time>2026-04-19T08:59:28.992Z</time></trkpt><trkpt lat="44.677946285394604" lon="0.5377718266610576"><ele>82.0</ele><time>2026-04-19T08:59:29.992Z</time></trkpt><trkpt lat="44.677990009542754" lon="0.5379471277478708"><ele>82.0</ele><time>2026-04-19T08:59:30.992Z</time></trkpt><trkpt lat="44.67802462604877" lon="0.5381229563711193"><ele>82.0</ele><time>2026-04-19T08:59:31.992Z</time></trkpt><trkpt lat="44.67806400276534" lon="0.5382988027786724"><ele>82.0</ele><time>2026-04-19T08:59:32.992Z</time></trkpt><trkpt lat="44.67810273831663" lon="0.5384844461782053"><ele>82.0</ele><time>2026-04-19T08:59:33.992Z</time></trkpt><trkpt lat="44.67814585282747" lon="0.538668931484645"><ele>82.0</ele><time>2026-04-19T08:59:34.992Z</time></trkpt><trkpt lat="44.67818509938072" lon="0.5388590788187322"><ele>82.0</ele><time>2026-04-19T08:59:35.992Z</time></trkpt><trkpt lat="44.678219853012365" lon="0.5390499376219536"><ele>82.0</ele><time>2026-04-19T08:59:36.992Z</time></trkpt><trkpt lat="44.678257532015465" lon="0.5392504891682943"><ele>82.0</ele><time>2026-04-19T08:59:37.992Z</time></trkpt><trkpt lat="44.67830178098923" lon="0.5394592232385246"><ele>82.0</ele><time>2026-04-19T08:59:38.992Z</time></trkpt><trkpt lat="44.678348933288476" lon="0.5396897895087704"><ele>82.66666666666666</ele><time>2026-04-19T08:59:39.992Z</time></trkpt><trkpt lat="44.6783984980893" lon="0.5399408752679238"><ele>83.33333333333333</ele><time>2026-04-19T08:59:40.992Z</time></trkpt><trkpt lat="44.67844375889615" lon="0.5401949094502292"><ele>84.0</ele><time>2026-04-19T08:59:41.992Z</time></trkpt><trkpt lat="44.67849036607581" lon="0.5404408685494062"><ele>84.0</ele><time>2026-04-19T08:59:42.992Z</time></trkpt><trkpt lat="44.678537422085824" lon="0.5406966566287095"><ele>84.0</ele><time>2026-04-19T08:59:43.992Z</time></trkpt><trkpt lat="44.67858686326446" lon="0.5409446719788749"><ele>84.0</ele><time>2026-04-19T08:59:44.992Z</time></trkpt><trkpt lat="44.67862233653503" lon="0.5411859565654084"><ele>82.75</ele><time>2026-04-19T08:59:45.992Z</time></trkpt><trkpt lat="44.678666632080535" lon="0.5413998210915935"><ele>81.5</ele><time>2026-04-19T08:59:46.992Z</time></trkpt><trkpt lat="44.6787137942491" lon="0.5415899942627542"><ele>80.25</ele><time>2026-04-19T08:59:47.992Z</time></trkpt><trkpt lat="44.67876626793132" lon="0.5417762515500865"><ele>79.0</ele><time>2026-04-19T08:59:48.992Z</time></trkpt><trkpt lat="44.678835095140556" lon="0.5419512554304777"><ele>78.33333333333333</ele><time>2026-04-19T08:59:49.992Z</time></trkpt><trkpt lat="44.6789370316128" lon="0.5421111066848683"><ele>77.66666666666667</ele><time>2026-04-19T08:59:50.992Z</time></trkpt><trkpt lat="44.67906074826211" lon="0.5422391284240619"><ele>77.0</ele><time>2026-04-19T08:59:51.992Z</time></trkpt><trkpt lat="44.67920205649172" lon="0.5423418336746906"><ele>77.0</ele><time>2026-04-19T08:59:52.992Z</time></trkpt><trkpt lat="44.67935945651637" lon="0.5423943759234069"><ele>77.0</ele><time>2026-04-19T08:59:53.992Z</time></trkpt><trkpt lat="44.679531067683754" lon="0.5424036134947844"><ele>77.0</ele><time>2026-04-19T08:59:54.992Z</time></trkpt><trkpt lat="44.67970668015645" lon="0.5423713347058706"><ele>75.66666666666667</ele><time>2026-04-19T08:59:55.992Z</time></trkpt><trkpt lat="44.679892304566245" lon="0.5423107942340011"><ele>74.33333333333333</ele><time>2026-04-19T08:59:56.992Z</time></trkpt><trkpt lat="44.68007999758868" lon="0.5422364760428333"><ele>73.0</ele><time>2026-04-19T08:59:57.992Z</time></trkpt><trkpt lat="44.680254183067824" lon="0.5421618696874261"><ele>73.0</ele><time>2026-04-19T08:59:58.992Z</time></trkpt><trkpt lat="44.680420976001" lon="0.5420965959159404"><ele>73.0</ele><time>2026-04-19T08:59:59.992Z</time></trkpt><trkpt lat="44.68058680900577" lon="0.5420382465133236"><ele>73.0</ele><time>2026-04-19T09:00:00.992Z</time></trkpt><trkpt lat="44.68074767654972" lon="0.541996663863124"><ele>73.0</ele><time>2026-04-19T09:00:01.992Z</time></trkpt><trkpt lat="44.680894046121836" lon="0.5420300281353323"><ele>73.0</ele><time>2026-04-19T09:00:02.992Z</time></trkpt><trkpt lat="44.681040363860895" lon="0.5420958192375966"><ele>73.0</ele><time>2026-04-19T09:00:03.992Z</time></trkpt><trkpt lat="44.68115386482417" lon="0.5421959343010959"><ele>73.0</ele><time>2026-04-19T09:00:04.992Z</time></trkpt><trkpt lat="44.681268035872364" lon="0.5423366871494492"><ele>72.0</ele><time>2026-04-19T09:00:05.992Z</time></trkpt><trkpt lat="44.68139677544729" lon="0.5425127240077814"><ele>71.0</ele><time>2026-04-19T09:00:06.991Z</time></trkpt><trkpt lat="44.6815284793272" lon="0.5426968866963685"><ele>70.0</ele><time>2026-04-19T09:00:07.991Z</time></trkpt><trkpt lat="44.68166855963468" lon="0.5428695642269005"><ele>70.0</ele><time>2026-04-19T09:00:08.991Z</time></trkpt><trkpt lat="44.681775753832426" lon="0.5430753591030463"><ele>70.0</ele><time>2026-04-19T09:00:09.99Z</time></trkpt><trkpt lat="44.68187590531149" lon="0.5432655264418333"><ele>70.0</ele><time>2026-04-19T09:00:10.991Z</time></trkpt><trkpt lat="44.681970237112736" lon="0.5434715882050114"><ele>71.66666666666666</ele><time>2026-04-19T09:00:11.991Z</time></trkpt><trkpt lat="44.68206498553409" lon="0.5436828951142257"><ele>73.33333333333333</ele><time>2026-04-19T09:00:12.991Z</time></trkpt><trkpt lat="44.68211520759066" lon="0.5439172470740934"><ele>75.0</ele><time>2026-04-19T09:00:13.991Z</time></trkpt><trkpt lat="44.682162674524974" lon="0.544147123785212"><ele>75.0</ele><time>2026-04-19T09:00:14.991Z</time></trkpt><trkpt lat="44.68221722978817" lon="0.5443508491524738"><ele>75.0</ele><time>2026-04-19T09:00:15.991Z</time></trkpt><trkpt lat="44.68226621433011" lon="0.544555012503443"><ele>75.0</ele><time>2026-04-19T09:00:16.991Z</time></trkpt><trkpt lat="44.682332068221434" lon="0.5447373789027472"><ele>74.33333333333333</ele><time>2026-04-19T09:00:17.991Z</time></trkpt><trkpt lat="44.68243089468349" lon="0.5448994797799528"><ele>73.66666666666666</ele><time>2026-04-19T09:00:18.99Z</time></trkpt><trkpt lat="44.68254590901156" lon="0.5450391155786445"><ele>73.0</ele><time>2026-04-19T09:00:19.99Z</time></trkpt><trkpt lat="44.6826918722009" lon="0.5451524318750894"><ele>73.0</ele><time>2026-04-19T09:00:20.99Z</time></trkpt><trkpt lat="44.682851961255544" lon="0.5452499695406725"><ele>73.0</ele><time>2026-04-19T09:00:21.99Z</time></trkpt><trkpt lat="44.68301967800468" lon="0.5453284258924939"><ele>73.0</ele><time>2026-04-19T09:00:22.99Z</time></trkpt><trkpt lat="44.68319193980163" lon="0.5453838355999744"><ele>73.0</ele><time>2026-04-19T09:00:23.99Z</time></trkpt><trkpt lat="44.683364837908094" lon="0.5454331889264543"><ele>73.0</ele><time>2026-04-19T09:00:24.99Z</time></trkpt><trkpt lat="44.68352508825785" lon="0.545505723958716"><ele>73.0</ele><time>2026-04-19T09:00:25.99Z</time></trkpt><trkpt lat="44.68366187166804" lon="0.5456218171418947"><ele>74.66666666666666</ele><time>2026-04-19T09:00:26.99Z</time></trkpt><trkpt lat="44.6837842234792" lon="0.545753816974195"><ele>76.33333333333333</ele><time>2026-04-19T09:00:27.99Z</time></trkpt><trkpt lat="44.683905955951" lon="0.5459216287040374"><ele>78.0</ele><time>2026-04-19T09:00:28.99Z</time></trkpt><trkpt lat="44.68402971904571" lon="0.546107231888385"><ele>77.33333333333333</ele><time>2026-04-19T09:00:29.99Z</time></trkpt><trkpt lat="44.68413575415416" lon="0.5463000202393117"><ele>76.66666666666666</ele><time>2026-04-19T09:00:30.99Z</time></trkpt><trkpt lat="44.68425233794186" lon="0.5464629544786263"><ele>76.0</ele><time>2026-04-19T09:00:31.99Z</time></trkpt><trkpt lat="44.68438957601425" lon="0.5465982530591336"><ele>76.66666666666666</ele><time>2026-04-19T09:00:32.99Z</time></trkpt><trkpt lat="44.684545456584075" lon="0.5466955457928498"><ele>77.33333333333333</ele><time>2026-04-19T09:00:33.99Z</time></trkpt><trkpt lat="44.68471887442022" lon="0.5467776759612054"><ele>78.0</ele><time>2026-04-19T09:00:34.99Z</time></trkpt><trkpt lat="44.68491111341419" lon="0.5468210079532265"><ele>78.0</ele><time>2026-04-19T09:00:35.99Z</time></trkpt><trkpt lat="44.685119490017726" lon="0.5468616580895195"><ele>78.0</ele><time>2026-04-19T09:00:36.99Z</time></trkpt><trkpt lat="44.68533814625322" lon="0.546897478876781"><ele>78.0</ele><time>2026-04-19T09:00:37.99Z</time></trkpt><trkpt lat="44.685560394682376" lon="0.5469372961041883"><ele>78.33333333333333</ele><time>2026-04-19T09:00:38.99Z</time></trkpt><trkpt lat="44.68578228169227" lon="0.546987668253994"><ele>78.66666666666666</ele><time>2026-04-19T09:00:39.99Z</time></trkpt><trkpt lat="44.68600407344988" lon="0.5470352583434303"><ele>79.0</ele><time>2026-04-19T09:00:40.99Z</time></trkpt><trkpt lat="44.68621947444134" lon="0.5470853539307974"><ele>79.33333333333333</ele><time>2026-04-19T09:00:41.99Z</time></trkpt><trkpt lat="44.68642378561526" lon="0.547132040987179"><ele>79.66666666666667</ele><time>2026-04-19T09:00:42.99Z</time></trkpt><trkpt lat="44.68662424128739" lon="0.5471626109987946"><ele>80.0</ele><time>2026-04-19T09:00:43.99Z</time></trkpt><trkpt lat="44.686818898360904" lon="0.5471690793253007"><ele>80.0</ele><time>2026-04-19T09:00:44.99Z</time></trkpt><trkpt lat="44.68700696123651" lon="0.5471310884100378"><ele>80.0</ele><time>2026-04-19T09:00:45.99Z</time></trkpt><trkpt lat="44.68719703450744" lon="0.547057661013208"><ele>80.0</ele><time>2026-04-19T09:00:46.99Z</time></trkpt><trkpt lat="44.68739206278612" lon="0.5469511722976658"><ele>80.0</ele><time>2026-04-19T09:00:47.99Z</time></trkpt><trkpt lat="44.68757864916235" lon="0.5468276098647927"><ele>80.0</ele><time>2026-04-19T09:00:48.99Z</time></trkpt><trkpt lat="44.6877613714512" lon="0.5467213283929248"><ele>80.0</ele><time>2026-04-19T09:00:49.99Z</time></trkpt><trkpt lat="44.68793915267595" lon="0.5466189570447129"><ele>78.66666666666667</ele><time>2026-04-19T09:00:50.99Z</time></trkpt><trkpt lat="44.68810172757861" lon="0.5465409423881584"><ele>77.33333333333333</ele><time>2026-04-19T09:00:51.99Z</time></trkpt><trkpt lat="44.688268528928724" lon="0.5464958468283566"><ele>76.0</ele><time>2026-04-19T09:00:52.99Z</time></trkpt><trkpt lat="44.68844098107713" lon="0.5464772175868878"><ele>76.66666666666666</ele><time>2026-04-19T09:00:53.99Z</time></trkpt><trkpt lat="44.68861844744593" lon="0.5465084191182152"><ele>77.33333333333333</ele><time>2026-04-19T09:00:54.99Z</time></trkpt><trkpt lat="44.68880007424156" lon="0.5465749951394038"><ele>78.0</ele><time>2026-04-19T09:00:55.99Z</time></trkpt><trkpt lat="44.68898150551955" lon="0.5466940577927226"><ele>78.0</ele><time>2026-04-19T09:00:56.99Z</time></trkpt><trkpt lat="44.689166579391184" lon="0.5468453910157441"><ele>78.0</ele><time>2026-04-19T09:00:57.99Z</time></trkpt><trkpt lat="44.689360175641326" lon="0.5470306798073888"><ele>78.0</ele><time>2026-04-19T09:00:58.99Z</time></trkpt><trkpt lat="44.689570592319356" lon="0.5472171488029853"><ele>76.5</ele><time>2026-04-19T09:00:59.99Z</time></trkpt><trkpt lat="44.689781767123755" lon="0.547407924713237"><ele>75.0</ele><time>2026-04-19T09:01:00.99Z</time></trkpt><trkpt lat="44.69000321039081" lon="0.5476052111056043"><ele>75.0</ele><time>2026-04-19T09:01:01.99Z</time></trkpt><trkpt lat="44.69022838362701" lon="0.5477915117995823"><ele>75.0</ele><time>2026-04-19T09:01:02.99Z</time></trkpt><trkpt lat="44.69044454854111" lon="0.5479763533798901"><ele>75.5</ele><time>2026-04-19T09:01:03.99Z</time></trkpt><trkpt lat="44.69066564618295" lon="0.5481636211332515"><ele>76.0</ele><time>2026-04-19T09:01:04.99Z</time></trkpt><trkpt lat="44.690877238856174" lon="0.5483469041920882"><ele>76.0</ele><time>2026-04-19T09:01:05.99Z</time></trkpt><trkpt lat="44.691084103044716" lon="0.5485276588586704"><ele>76.0</ele><time>2026-04-19T09:01:06.99Z</time></trkpt><trkpt lat="44.69128414525072" lon="0.5486986210181163"><ele>76.33333333333333</ele><time>2026-04-19T09:01:07.99Z</time></trkpt><trkpt lat="44.69147694989886" lon="0.5488640789088816"><ele>76.66666666666667</ele><time>2026-04-19T09:01:08.99Z</time></trkpt><trkpt lat="44.69166295171103" lon="0.549026197296175"><ele>77.0</ele><time>2026-04-19T09:01:09.99Z</time></trkpt><trkpt lat="44.69185742816467" lon="0.5491847665781907"><ele>81.5</ele><time>2026-04-19T09:01:10.99Z</time></trkpt><trkpt lat="44.69206472559476" lon="0.5493332522878144"><ele>86.0</ele><time>2026-04-19T09:01:11.99Z</time></trkpt><trkpt lat="44.69227275746772" lon="0.5494694587521854"><ele>81.0</ele><time>2026-04-19T09:01:12.99Z</time></trkpt><trkpt lat="44.69249854179288" lon="0.54957967574469"><ele>76.0</ele><time>2026-04-19T09:01:13.99Z</time></trkpt><trkpt lat="44.69272339519627" lon="0.5496946319598554"><ele>79.0</ele><time>2026-04-19T09:01:14.99Z</time></trkpt><trkpt lat="44.69294987318858" lon="0.549817732278942"><ele>82.0</ele><time>2026-04-19T09:01:15.99Z</time></trkpt><trkpt lat="44.69317461007248" lon="0.5499366342014672"><ele>82.0</ele><time>2026-04-19T09:01:16.99Z</time></trkpt><trkpt lat="44.69339921313237" lon="0.5500460358402915"><ele>82.0</ele><time>2026-04-19T09:01:17.99Z</time></trkpt><trkpt lat="44.693615545580094" lon="0.5501603625325442"><ele>82.5</ele><time>2026-04-19T09:01:18.99Z</time></trkpt><trkpt lat="44.69383412451518" lon="0.5502742136676073"><ele>83.0</ele><time>2026-04-19T09:01:19.99Z</time></trkpt><trkpt lat="44.694037106287745" lon="0.5504077259344088"><ele>79.5</ele><time>2026-04-19T09:01:20.99Z</time></trkpt><trkpt lat="44.69422657087264" lon="0.5505824135770685"><ele>76.0</ele><time>2026-04-19T09:01:21.99Z</time></trkpt><trkpt lat="44.69441716573528" lon="0.550757923385936"><ele>81.5</ele><time>2026-04-19T09:01:22.99Z</time></trkpt><trkpt lat="44.694605309964984" lon="0.550939847505856"><ele>87.0</ele><time>2026-04-19T09:01:23.99Z</time></trkpt><trkpt lat="44.69479522472985" lon="0.5511032987929608"><ele>86.33333333333333</ele><time>2026-04-19T09:01:24.99Z</time></trkpt><trkpt lat="44.694964776159466" lon="0.5512869660747232"><ele>85.66666666666666</ele><time>2026-04-19T09:01:25.99Z</time></trkpt><trkpt lat="44.69512551151815" lon="0.5514482046296386"><ele>85.0</ele><time>2026-04-19T09:01:26.99Z</time></trkpt><trkpt lat="44.695289411268824" lon="0.5516007746332982"><ele>85.0</ele><time>2026-04-19T09:01:27.99Z</time></trkpt><trkpt lat="44.6954643775269" lon="0.5517332722581755"><ele>85.0</ele><time>2026-04-19T09:01:28.99Z</time></trkpt><trkpt lat="44.69565221657421" lon="0.5518496128883051"><ele>85.0</ele><time>2026-04-19T09:01:29.99Z</time></trkpt><trkpt lat="44.69585269796012" lon="0.5519408186744645"><ele>85.0</ele><time>2026-04-19T09:01:30.99Z</time></trkpt><trkpt lat="44.69606989313008" lon="0.5519999877082143"><ele>85.0</ele><time>2026-04-19T09:01:31.99Z</time></trkpt><trkpt lat="44.69629261924777" lon="0.5520409418265999"><ele>85.0</ele><time>2026-04-19T09:01:32.99Z</time></trkpt><trkpt lat="44.69650210528361" lon="0.5520744400448698"><ele>85.66666666666666</ele><time>2026-04-19T09:01:33.99Z</time></trkpt><trkpt lat="44.69669974565704" lon="0.5521754797673332"><ele>86.33333333333333</ele><time>2026-04-19T09:01:34.99Z</time></trkpt><trkpt lat="44.6968990497222" lon="0.5523026272628133"><ele>87.0</ele><time>2026-04-19T09:01:35.99Z</time></trkpt><trkpt lat="44.69709172324085" lon="0.5524437497050179"><ele>87.0</ele><time>2026-04-19T09:01:36.99Z</time></trkpt><trkpt lat="44.69728488296179" lon="0.5525883603680726"><ele>87.0</ele><time>2026-04-19T09:01:37.99Z</time></trkpt><trkpt lat="44.697468923319605" lon="0.552754549574829"><ele>87.0</ele><time>2026-04-19T09:01:38.99Z</time></trkpt><trkpt lat="44.69764384784071" lon="0.5529401227278874"><ele>85.33333333333333</ele><time>2026-04-19T09:01:39.99Z</time></trkpt><trkpt lat="44.697817325669924" lon="0.5531261397959641"><ele>83.66666666666666</ele><time>2026-04-19T09:01:40.99Z</time></trkpt><trkpt lat="44.69798599114508" lon="0.5533262362439252"><ele>82.0</ele><time>2026-04-19T09:01:41.99Z</time></trkpt><trkpt lat="44.69813358435921" lon="0.5535631252177298"><ele>80.66666666666666</ele><time>2026-04-19T09:01:42.99Z</time></trkpt><trkpt lat="44.698257159984216" lon="0.5538210568958618"><ele>79.33333333333333</ele><time>2026-04-19T09:01:43.99Z</time></trkpt><trkpt lat="44.698382028121834" lon="0.5540844873750128"><ele>78.0</ele><time>2026-04-19T09:01:44.99Z</time></trkpt><trkpt lat="44.698484263498905" lon="0.5543724075170122"><ele>78.0</ele><time>2026-04-19T09:01:45.99Z</time></trkpt><trkpt lat="44.698568530687126" lon="0.554661030759118"><ele>78.0</ele><time>2026-04-19T09:01:46.99Z</time></trkpt><trkpt lat="44.69863717653571" lon="0.554961460278294"><ele>78.0</ele><time>2026-04-19T09:01:47.99Z</time></trkpt><trkpt lat="44.69869855670333" lon="0.5552854868187277"><ele>78.5</ele><time>2026-04-19T09:01:48.99Z</time></trkpt><trkpt lat="44.69874174186817" lon="0.5556097940005635"><ele>79.0</ele><time>2026-04-19T09:01:49.99Z</time></trkpt><trkpt lat="44.698781824250375" lon="0.5559429219551184"><ele>79.66666666666666</ele><time>2026-04-19T09:01:50.99Z</time></trkpt><trkpt lat="44.698817731974636" lon="0.5562554483243662"><ele>80.33333333333333</ele><time>2026-04-19T09:01:51.99Z</time></trkpt><trkpt lat="44.69884173317211" lon="0.5565499383663007"><ele>81.0</ele><time>2026-04-19T09:01:52.99Z</time></trkpt><trkpt lat="44.69885213462932" lon="0.5568387111751829"><ele>82.33333333333333</ele><time>2026-04-19T09:01:53.99Z</time></trkpt><trkpt lat="44.698853243152335" lon="0.5571088662191557"><ele>83.66666666666666</ele><time>2026-04-19T09:01:54.99Z</time></trkpt><trkpt lat="44.69884150067763" lon="0.5573687903517545"><ele>85.0</ele><time>2026-04-19T09:01:55.99Z</time></trkpt><trkpt lat="44.698829000503466" lon="0.5576107024816649"><ele>85.0</ele><time>2026-04-19T09:01:56.99Z</time></trkpt><trkpt lat="44.69881577353266" lon="0.5578448716875588"><ele>85.0</ele><time>2026-04-19T09:01:57.99Z</time></trkpt><trkpt lat="44.698811005664446" lon="0.5580604458189335"><ele>85.0</ele><time>2026-04-19T09:01:58.99Z</time></trkpt><trkpt lat="44.69880512789141" lon="0.5582776660997125"><ele>84.66666666666666</ele><time>2026-04-19T09:01:59.99Z</time></trkpt><trkpt lat="44.69880538006039" lon="0.558493897756891"><ele>84.33333333333333</ele><time>2026-04-19T09:02:00.99Z</time></trkpt><trkpt lat="44.698831948403395" lon="0.5587006707333294"><ele>84.0</ele><time>2026-04-19T09:02:01.99Z</time></trkpt><trkpt lat="44.698896214814475" lon="0.558895302756467"><ele>84.0</ele><time>2026-04-19T09:02:02.99Z</time></trkpt><trkpt lat="44.698999738238186" lon="0.5590744345760059"><ele>84.0</ele><time>2026-04-19T09:02:03.99Z</time></trkpt><trkpt lat="44.69913282385034" lon="0.5592140546102983"><ele>84.0</ele><time>2026-04-19T09:02:04.99Z</time></trkpt><trkpt lat="44.69929351743222" lon="0.5593237848108672"><ele>85.66666666666667</ele><time>2026-04-19T09:02:05.99Z</time></trkpt><trkpt lat="44.699480230156965" lon="0.5594121776180837"><ele>87.33333333333334</ele><time>2026-04-19T09:02:06.99Z</time></trkpt><trkpt lat="44.69967452699724" lon="0.5594630518664185"><ele>89.0</ele><time>2026-04-19T09:02:07.99Z</time></trkpt><trkpt lat="44.69988251244885" lon="0.5595195431208931"><ele>86.0</ele><time>2026-04-19T09:02:08.99Z</time></trkpt><trkpt lat="44.700095569995185" lon="0.5595781533356503"><ele>83.0</ele><time>2026-04-19T09:02:09.99Z</time></trkpt><trkpt lat="44.700291045617845" lon="0.5596412288126469"><ele>80.0</ele><time>2026-04-19T09:02:10.99Z</time></trkpt><trkpt lat="44.700496600205476" lon="0.5597036068985446"><ele>80.0</ele><time>2026-04-19T09:02:11.99Z</time></trkpt><trkpt lat="44.70068190950768" lon="0.5597720965975647"><ele>80.0</ele><time>2026-04-19T09:02:12.99Z</time></trkpt><trkpt lat="44.700859699994865" lon="0.5598337608000694"><ele>80.0</ele><time>2026-04-19T09:02:13.99Z</time></trkpt><trkpt lat="44.70102686757678" lon="0.5598948022911685"><ele>80.33333333333334</ele><time>2026-04-19T09:02:14.99Z</time></trkpt><trkpt lat="44.7011784960895" lon="0.5599593174132194"><ele>80.66666666666667</ele><time>2026-04-19T09:02:15.99Z</time></trkpt><trkpt lat="44.70131771103153" lon="0.5600669552507227"><ele>81.0</ele><time>2026-04-19T09:02:16.99Z</time></trkpt><trkpt lat="44.701451049866954" lon="0.5602072210555709"><ele>81.5</ele><time>2026-04-19T09:02:17.99Z</time></trkpt><trkpt lat="44.70166338518868" lon="0.5605629890296455"><ele>82.0</ele><time>2026-04-19T09:02:19.99Z</time></trkpt><trkpt lat="44.70175490502358" lon="0.5607608337974112"><ele>82.0</ele><time>2026-04-19T09:02:20.99Z</time></trkpt><trkpt lat="44.70184271071023" lon="0.5609521262856482"><ele>82.0</ele><time>2026-04-19T09:02:21.99Z</time></trkpt><trkpt lat="44.70194680840535" lon="0.5611348055874453"><ele>82.0</ele><time>2026-04-19T09:02:22.99Z</time></trkpt><trkpt lat="44.70204647947103" lon="0.5613051273958889"><ele>82.33333333333333</ele><time>2026-04-19T09:02:23.99Z</time></trkpt><trkpt lat="44.70216897038261" lon="0.5614615403705459"><ele>82.66666666666667</ele><time>2026-04-19T09:02:24.99Z</time></trkpt><trkpt lat="44.70231313654232" lon="0.5615990090775607"><ele>83.0</ele><time>2026-04-19T09:02:25.99Z</time></trkpt><trkpt lat="44.70245743864407" lon="0.5617526353023008"><ele>83.0</ele><time>2026-04-19T09:02:26.99Z</time></trkpt><trkpt lat="44.70259862661885" lon="0.5618939252123605"><ele>83.0</ele><time>2026-04-19T09:02:27.99Z</time></trkpt><trkpt lat="44.70272796629757" lon="0.5620271706055302"><ele>83.0</ele><time>2026-04-19T09:02:28.99Z</time></trkpt><trkpt lat="44.70284755410146" lon="0.5621510585602111"><ele>83.25</ele><time>2026-04-19T09:02:29.99Z</time></trkpt><trkpt lat="44.70295593007565" lon="0.562272021005966"><ele>83.5</ele><time>2026-04-19T09:02:30.99Z</time></trkpt><trkpt lat="44.703072502269485" lon="0.562380723026021"><ele>83.75</ele><time>2026-04-19T09:02:31.99Z</time></trkpt><trkpt lat="44.703174931434624" lon="0.5624775339857788"><ele>84.0</ele><time>2026-04-19T09:02:32.99Z</time></trkpt><trkpt lat="44.70327387632889" lon="0.562575435275024"><ele>84.0</ele><time>2026-04-19T09:02:33.99Z</time></trkpt><trkpt lat="44.7033596401903" lon="0.5626812245041358"><ele>84.0</ele><time>2026-04-19T09:02:34.99Z</time></trkpt><trkpt lat="44.70344614236312" lon="0.5627718636930783"><ele>84.0</ele><time>2026-04-19T09:02:35.99Z</time></trkpt><trkpt lat="44.70352519616376" lon="0.5628559604965989"><ele>84.0</ele><time>2026-04-19T09:02:36.99Z</time></trkpt><trkpt lat="44.703594019461825" lon="0.562933105156012"><ele>84.0</ele><time>2026-04-19T09:02:37.99Z</time></trkpt><trkpt lat="44.703654590709334" lon="0.5630147910581248"><ele>83.5</ele><time>2026-04-19T09:02:38.99Z</time></trkpt><trkpt lat="44.70369317016612" lon="0.5630917278842074"><ele>83.0</ele><time>2026-04-19T09:02:39.99Z</time></trkpt><trkpt lat="44.70372382038193" lon="0.5632402709130792"><ele>82.5</ele><time>2026-04-19T09:02:41.99Z</time></trkpt><trkpt lat="44.70377688801754" lon="0.5633258065504629"><ele>82.0</ele><time>2026-04-19T09:03:06.99Z</time></trkpt><trkpt lat="44.703857778122305" lon="0.5633458137272608"><ele>81.5</ele><time>2026-04-19T09:03:08.99Z</time></trkpt><trkpt lat="44.70396425761866" lon="0.5633324234653737"><ele>81.0</ele><time>2026-04-19T09:03:10.99Z</time></trkpt><trkpt lat="44.704115838141604" lon="0.5634494623568918"><ele>81.0</ele><time>2026-04-19T09:03:12.99Z</time></trkpt><trkpt lat="44.70420057330876" lon="0.5635414152043444"><ele>81.0</ele><time>2026-04-19T09:03:13.99Z</time></trkpt><trkpt lat="44.7042945577384" lon="0.5636512707924748"><ele>81.0</ele><time>2026-04-19T09:03:14.99Z</time></trkpt><trkpt lat="44.70450471488248" lon="0.5638649136609014"><ele>81.0</ele><time>2026-04-19T09:03:16.99Z</time></trkpt><trkpt lat="44.704630763370304" lon="0.5639899291981574"><ele>81.0</ele><time>2026-04-19T09:03:17.99Z</time></trkpt><trkpt lat="44.70476491692955" lon="0.564131122873601"><ele>81.0</ele><time>2026-04-19T09:03:18.99Z</time></trkpt><trkpt lat="44.704892926554606" lon="0.5642674761915922"><ele>81.0</ele><time>2026-04-19T09:03:19.99Z</time></trkpt><trkpt lat="44.70503989245693" lon="0.5644243586105169"><ele>81.0</ele><time>2026-04-19T09:03:20.99Z</time></trkpt><trkpt lat="44.705207446837235" lon="0.5645931240667286"><ele>81.0</ele><time>2026-04-19T09:03:21.99Z</time></trkpt><trkpt lat="44.7053873245287" lon="0.564778579779016"><ele>81.5</ele><time>2026-04-19T09:03:22.99Z</time></trkpt><trkpt lat="44.705574687344736" lon="0.5649658737441472"><ele>82.0</ele><time>2026-04-19T09:03:23.99Z</time></trkpt><trkpt lat="44.7057591343992" lon="0.5651560800807242"><ele>82.0</ele><time>2026-04-19T09:03:24.99Z</time></trkpt><trkpt lat="44.70593669124903" lon="0.5653448312790518"><ele>82.0</ele><time>2026-04-19T09:03:25.99Z</time></trkpt><trkpt lat="44.706110970781346" lon="0.5655229226925085"><ele>82.0</ele><time>2026-04-19T09:03:26.99Z</time></trkpt><trkpt lat="44.70628078193945" lon="0.5656930839994013"><ele>82.33333333333333</ele><time>2026-04-19T09:03:27.99Z</time></trkpt><trkpt lat="44.706448192385814" lon="0.5658622809278168"><ele>82.66666666666667</ele><time>2026-04-19T09:03:28.99Z</time></trkpt><trkpt lat="44.706609411318986" lon="0.5660384580284967"><ele>83.0</ele><time>2026-04-19T09:03:29.99Z</time></trkpt><trkpt lat="44.7067667165823" lon="0.5662080844794682"><ele>84.66666666666667</ele><time>2026-04-19T09:03:30.99Z</time></trkpt><trkpt lat="44.70692904390584" lon="0.5663710483923081"><ele>86.33333333333333</ele><time>2026-04-19T09:03:31.99Z</time></trkpt><trkpt lat="44.7070821188991" lon="0.5665307960859812"><ele>88.0</ele><time>2026-04-19T09:03:32.99Z</time></trkpt><trkpt lat="44.70724035772648" lon="0.566694369516225"><ele>88.0</ele><time>2026-04-19T09:03:33.99Z</time></trkpt><trkpt lat="44.707406478202685" lon="0.5668494790926626"><ele>88.0</ele><time>2026-04-19T09:03:34.99Z</time></trkpt><trkpt lat="44.707579880003124" lon="0.5669967972537049"><ele>88.0</ele><time>2026-04-19T09:03:35.99Z</time></trkpt><trkpt lat="44.707759649693855" lon="0.5671299141041449"><ele>88.0</ele><time>2026-04-19T09:03:36.99Z</time></trkpt><trkpt lat="44.707946298997136" lon="0.567263202696094"><ele>88.0</ele><time>2026-04-19T09:03:37.99Z</time></trkpt><trkpt lat="44.708132881728226" lon="0.5673901531108237"><ele>88.0</ele><time>2026-04-19T09:03:38.99Z</time></trkpt><trkpt lat="44.708322084641104" lon="0.5675211762515406"><ele>88.0</ele><time>2026-04-19T09:03:39.99Z</time></trkpt><trkpt lat="44.70851551198463" lon="0.567661477359806"><ele>88.0</ele><time>2026-04-19T09:03:40.99Z</time></trkpt><trkpt lat="44.70870788141782" lon="0.5677908899794666"><ele>88.0</ele><time>2026-04-19T09:03:41.99Z</time></trkpt><trkpt lat="44.70890218625253" lon="0.5679309807456069"><ele>87.66666666666666</ele><time>2026-04-19T09:03:42.99Z</time></trkpt><trkpt lat="44.709099195637414" lon="0.5680749335162719"><ele>87.33333333333333</ele><time>2026-04-19T09:03:43.99Z</time></trkpt><trkpt lat="44.70929835938264" lon="0.5682125255798202"><ele>87.0</ele><time>2026-04-19T09:03:44.99Z</time></trkpt><trkpt lat="44.70949922539973" lon="0.5683420876760599"><ele>88.0</ele><time>2026-04-19T09:03:45.99Z</time></trkpt><trkpt lat="44.70970066294429" lon="0.5684835322010757"><ele>89.0</ele><time>2026-04-19T09:03:46.99Z</time></trkpt><trkpt lat="44.7099026488229" lon="0.5686290292137917"><ele>89.0</ele><time>2026-04-19T09:03:47.99Z</time></trkpt><trkpt lat="44.71010146540882" lon="0.5687788870297318"><ele>89.0</ele><time>2026-04-19T09:03:48.99Z</time></trkpt><trkpt lat="44.7103015443139" lon="0.5689205593710859"><ele>89.0</ele><time>2026-04-19T09:03:49.99Z</time></trkpt><trkpt lat="44.710506826895184" lon="0.5690505091219539"><ele>89.0</ele><time>2026-04-19T09:03:50.99Z</time></trkpt><trkpt lat="44.71070190616163" lon="0.5691959387746072"><ele>89.0</ele><time>2026-04-19T09:03:51.99Z</time></trkpt><trkpt lat="44.710898994724204" lon="0.5693371182866215"><ele>89.33333333333334</ele><time>2026-04-19T09:03:52.99Z</time></trkpt><trkpt lat="44.71109026844424" lon="0.5694707386309292"><ele>89.66666666666667</ele><time>2026-04-19T09:03:53.99Z</time></trkpt><trkpt lat="44.71127989384885" lon="0.5696080767531662"><ele>90.0</ele><time>2026-04-19T09:03:54.99Z</time></trkpt><trkpt lat="44.71147085910293" lon="0.5697379782573269"><ele>90.0</ele><time>2026-04-19T09:03:55.99Z</time></trkpt><trkpt lat="44.711662475951115" lon="0.5698675735986037"><ele>90.0</ele><time>2026-04-19T09:03:56.99Z</time></trkpt><trkpt lat="44.71185212822395" lon="0.5699981649536554"><ele>90.0</ele><time>2026-04-19T09:03:57.99Z</time></trkpt><trkpt lat="44.712043027820606" lon="0.5701294278210938"><ele>89.66666666666667</ele><time>2026-04-19T09:03:58.99Z</time></trkpt><trkpt lat="44.71223606800648" lon="0.570266178381701"><ele>89.33333333333334</ele><time>2026-04-19T09:03:59.99Z</time></trkpt><trkpt lat="44.71242986829903" lon="0.570404409598881"><ele>89.0</ele><time>2026-04-19T09:04:00.99Z</time></trkpt><trkpt lat="44.71262249326954" lon="0.5705396491299765"><ele>92.0</ele><time>2026-04-19T09:04:01.99Z</time></trkpt><trkpt lat="44.712809809531855" lon="0.5706791535801962"><ele>95.0</ele><time>2026-04-19T09:04:02.99Z</time></trkpt><trkpt lat="44.71300193430635" lon="0.5708456497472615"><ele>98.0</ele><time>2026-04-19T09:04:03.99Z</time></trkpt><trkpt lat="44.71318202213099" lon="0.5710173380206969"><ele>95.0</ele><time>2026-04-19T09:04:04.99Z</time></trkpt><trkpt lat="44.713369060549496" lon="0.5712174782317713"><ele>92.0</ele><time>2026-04-19T09:04:05.99Z</time></trkpt><trkpt lat="44.713542833709795" lon="0.5713950904803594"><ele>94.0</ele><time>2026-04-19T09:04:06.99Z</time></trkpt><trkpt lat="44.713721386247684" lon="0.5715483569314341"><ele>96.0</ele><time>2026-04-19T09:04:07.99Z</time></trkpt><trkpt lat="44.713913162936294" lon="0.5716786726615348"><ele>98.0</ele><time>2026-04-19T09:04:08.99Z</time></trkpt><trkpt lat="44.714120011083175" lon="0.5717919303813144"><ele>98.0</ele><time>2026-04-19T09:04:09.99Z</time></trkpt><trkpt lat="44.71432164523749" lon="0.5719212473884252"><ele>98.0</ele><time>2026-04-19T09:04:10.99Z</time></trkpt><trkpt lat="44.71451525342627" lon="0.5720399324598147"><ele>98.0</ele><time>2026-04-19T09:04:11.99Z</time></trkpt><trkpt lat="44.71472958700825" lon="0.5721319378193815"><ele>96.33333333333333</ele><time>2026-04-19T09:04:12.99Z</time></trkpt><trkpt lat="44.71492922937464" lon="0.5722439438503354"><ele>94.66666666666666</ele><time>2026-04-19T09:04:13.99Z</time></trkpt><trkpt lat="44.71513477942745" lon="0.5723405649658733"><ele>93.0</ele><time>2026-04-19T09:04:14.99Z</time></trkpt><trkpt lat="44.715338331846155" lon="0.5724391849951049"><ele>93.0</ele><time>2026-04-19T09:04:15.99Z</time></trkpt><trkpt lat="44.71554594456907" lon="0.5725309005094474"><ele>93.0</ele><time>2026-04-19T09:04:16.99Z</time></trkpt><trkpt lat="44.7157338745674" lon="0.5726333978885516"><ele>93.0</ele><time>2026-04-19T09:04:17.99Z</time></trkpt><trkpt lat="44.71591648915885" lon="0.5727238368360426"><ele>93.33333333333333</ele><time>2026-04-19T09:04:18.989Z</time></trkpt><trkpt lat="44.71611064767257" lon="0.5728388813349913"><ele>93.66666666666666</ele><time>2026-04-19T09:04:19.989Z</time></trkpt><trkpt lat="44.716298112284775" lon="0.572956693869467"><ele>94.0</ele><time>2026-04-19T09:04:20.989Z</time></trkpt><trkpt lat="44.716479796184835" lon="0.5730884737178015"><ele>94.0</ele><time>2026-04-19T09:04:21.99Z</time></trkpt><trkpt lat="44.71666524707283" lon="0.5732295165707008"><ele>94.0</ele><time>2026-04-19T09:04:22.989Z</time></trkpt><trkpt lat="44.71683864577881" lon="0.5733623856811338"><ele>94.0</ele><time>2026-04-19T09:04:23.989Z</time></trkpt><trkpt lat="44.71702254462884" lon="0.573511375553985"><ele>94.33333333333333</ele><time>2026-04-19T09:04:24.99Z</time></trkpt><trkpt lat="44.717186731504164" lon="0.5736823889008639"><ele>94.66666666666667</ele><time>2026-04-19T09:04:25.989Z</time></trkpt><trkpt lat="44.71735174663914" lon="0.5738684510858689"><ele>95.0</ele><time>2026-04-19T09:04:26.989Z</time></trkpt><trkpt lat="44.717517123408214" lon="0.5740612432622769"><ele>95.0</ele><time>2026-04-19T09:04:27.989Z</time></trkpt><trkpt lat="44.717673083852475" lon="0.5742580754687197"><ele>95.0</ele><time>2026-04-19T09:04:28.989Z</time></trkpt><trkpt lat="44.71781943467914" lon="0.5744833540864787"><ele>95.0</ele><time>2026-04-19T09:04:29.989Z</time></trkpt><trkpt lat="44.71795184666806" lon="0.5747082530889883"><ele>96.0</ele><time>2026-04-19T09:04:30.989Z</time></trkpt><trkpt lat="44.718079244275664" lon="0.5749371592606689"><ele>97.0</ele><time>2026-04-19T09:04:31.989Z</time></trkpt><trkpt lat="44.71820433752373" lon="0.5751794561768266"><ele>98.0</ele><time>2026-04-19T09:04:32.989Z</time></trkpt><trkpt lat="44.718322506545555" lon="0.5754224296143082"><ele>98.0</ele><time>2026-04-19T09:04:33.989Z</time></trkpt><trkpt lat="44.71843174170179" lon="0.5756760809842781"><ele>98.0</ele><time>2026-04-19T09:04:34.989Z</time></trkpt><trkpt lat="44.718528984688035" lon="0.5759469578151419"><ele>98.0</ele><time>2026-04-19T09:04:35.989Z</time></trkpt><trkpt lat="44.71861754816084" lon="0.5762320547020943"><ele>97.66666666666666</ele><time>2026-04-19T09:04:36.989Z</time></trkpt><trkpt lat="44.718706446366475" lon="0.5765102148311101"><ele>97.33333333333334</ele><time>2026-04-19T09:04:37.989Z</time></trkpt><trkpt lat="44.718784426739234" lon="0.576790626197718"><ele>97.0</ele><time>2026-04-19T09:04:38.989Z</time></trkpt><trkpt lat="44.71885554488728" lon="0.5770740882850122"><ele>97.33333333333334</ele><time>2026-04-19T09:04:39.989Z</time></trkpt><trkpt lat="44.71891968371867" lon="0.5773548935478817"><ele>97.66666666666666</ele><time>2026-04-19T09:04:40.989Z</time></trkpt><trkpt lat="44.71897350796927" lon="0.5776325250533499"><ele>98.0</ele><time>2026-04-19T09:04:41.989Z</time></trkpt><trkpt lat="44.71902288611577" lon="0.5779124812981742"><ele>98.0</ele><time>2026-04-19T09:04:42.989Z</time></trkpt><trkpt lat="44.719073129131885" lon="0.5781938064647019"><ele>98.0</ele><time>2026-04-19T09:04:43.989Z</time></trkpt><trkpt lat="44.71911455204245" lon="0.5784799423934739"><ele>98.0</ele><time>2026-04-19T09:04:44.989Z</time></trkpt><trkpt lat="44.719162280878166" lon="0.5787475170424292"><ele>98.0</ele><time>2026-04-19T09:04:45.989Z</time></trkpt><trkpt lat="44.71920708379746" lon="0.5790190286712902"><ele>98.0</ele><time>2026-04-19T09:04:46.989Z</time></trkpt><trkpt lat="44.719255517810375" lon="0.5792830564772765"><ele>98.0</ele><time>2026-04-19T09:04:47.989Z</time></trkpt><trkpt lat="44.7193064004256" lon="0.5795579525271239"><ele>98.66666666666666</ele><time>2026-04-19T09:04:48.989Z</time></trkpt><trkpt lat="44.71934716326893" lon="0.5798202757718155"><ele>99.33333333333334</ele><time>2026-04-19T09:04:49.989Z</time></trkpt><trkpt lat="44.71939764789427" lon="0.580083160022491"><ele>100.0</ele><time>2026-04-19T09:04:50.989Z</time></trkpt><trkpt lat="44.71944515388979" lon="0.580345801279138"><ele>100.33333333333334</ele><time>2026-04-19T09:04:51.989Z</time></trkpt><trkpt lat="44.71948349260835" lon="0.5805991666458252"><ele>100.66666666666666</ele><time>2026-04-19T09:04:52.989Z</time></trkpt><trkpt lat="44.719529394363285" lon="0.5808585055426835"><ele>101.0</ele><time>2026-04-19T09:04:53.989Z</time></trkpt><trkpt lat="44.719580219043245" lon="0.5811114515420978"><ele>100.66666666666666</ele><time>2026-04-19T09:04:54.989Z</time></trkpt><trkpt lat="44.71962709441563" lon="0.581361652332889"><ele>100.33333333333334</ele><time>2026-04-19T09:04:55.989Z</time></trkpt><trkpt lat="44.71966943479407" lon="0.5816206021023561"><ele>100.0</ele><time>2026-04-19T09:04:56.989Z</time></trkpt><trkpt lat="44.71971802785554" lon="0.5818688978473213"><ele>99.33333333333334</ele><time>2026-04-19T09:04:57.989Z</time></trkpt><trkpt lat="44.71976744161422" lon="0.5821158919218729"><ele>98.66666666666666</ele><time>2026-04-19T09:04:58.989Z</time></trkpt><trkpt lat="44.71981249278702" lon="0.5823498263414908"><ele>98.0</ele><time>2026-04-19T09:04:59.989Z</time></trkpt><trkpt lat="44.71985226451461" lon="0.5825971836021163"><ele>98.0</ele><time>2026-04-19T09:05:00.989Z</time></trkpt><trkpt lat="44.719888756995424" lon="0.5828459192441089"><ele>98.0</ele><time>2026-04-19T09:05:01.989Z</time></trkpt><trkpt lat="44.719937895689824" lon="0.5830955645270367"><ele>98.0</ele><time>2026-04-19T09:05:02.989Z</time></trkpt><trkpt lat="44.719981594418435" lon="0.5833556495078377"><ele>98.33333333333333</ele><time>2026-04-19T09:05:03.989Z</time></trkpt><trkpt lat="44.72003640925393" lon="0.5836135959095862"><ele>98.66666666666666</ele><time>2026-04-19T09:05:04.989Z</time></trkpt><trkpt lat="44.72009487762071" lon="0.5838662447708188"><ele>99.0</ele><time>2026-04-19T09:05:05.989Z</time></trkpt><trkpt lat="44.72015720184029" lon="0.5841260512832498"><ele>100.33333333333334</ele><time>2026-04-19T09:05:06.989Z</time></trkpt><trkpt lat="44.72022138383433" lon="0.5843855716697699"><ele>101.66666666666667</ele><time>2026-04-19T09:05:07.989Z</time></trkpt><trkpt lat="44.720285835120855" lon="0.5846375347351573"><ele>103.0</ele><time>2026-04-19T09:05:08.989Z</time></trkpt><trkpt lat="44.720358002323294" lon="0.5848904718619784"><ele>103.0</ele><time>2026-04-19T09:05:09.989Z</time></trkpt><trkpt lat="44.7204306038187" lon="0.585142882653057"><ele>103.0</ele><time>2026-04-19T09:05:10.989Z</time></trkpt><trkpt lat="44.72050343591603" lon="0.5853911454247401"><ele>103.0</ele><time>2026-04-19T09:05:11.989Z</time></trkpt><trkpt lat="44.72057624082624" lon="0.585656294323293"><ele>103.0</ele><time>2026-04-19T09:05:12.989Z</time></trkpt><trkpt lat="44.72064341886504" lon="0.585908613975759"><ele>103.0</ele><time>2026-04-19T09:05:13.989Z</time></trkpt><trkpt lat="44.720712661321116" lon="0.5861720099032075"><ele>103.0</ele><time>2026-04-19T09:05:14.989Z</time></trkpt><trkpt lat="44.72078328754095" lon="0.5864267463735643"><ele>102.66666666666667</ele><time>2026-04-19T09:05:15.989Z</time></trkpt><trkpt lat="44.72085659622864" lon="0.5866848268436994"><ele>102.33333333333334</ele><time>2026-04-19T09:05:16.989Z</time></trkpt><trkpt lat="44.720927528025534" lon="0.5869446557901093"><ele>102.0</ele><time>2026-04-19T09:05:17.989Z</time></trkpt><trkpt lat="44.72100213524846" lon="0.587207757426502"><ele>101.66666666666666</ele><time>2026-04-19T09:05:18.989Z</time></trkpt><trkpt lat="44.721080512358206" lon="0.5874714167761441"><ele>101.33333333333333</ele><time>2026-04-19T09:05:19.989Z</time></trkpt><trkpt lat="44.72116575234319" lon="0.5877226518777052"><ele>101.0</ele><time>2026-04-19T09:05:20.989Z</time></trkpt><trkpt lat="44.72126150789837" lon="0.5879666013031367"><ele>100.66666666666666</ele><time>2026-04-19T09:05:21.989Z</time></trkpt><trkpt lat="44.72136893649281" lon="0.5882031939574964"><ele>100.33333333333334</ele><time>2026-04-19T09:05:22.989Z</time></trkpt><trkpt lat="44.72148131260858" lon="0.5884368277714185"><ele>100.0</ele><time>2026-04-19T09:05:23.989Z</time></trkpt><trkpt lat="44.72159228075253" lon="0.5886680968303881"><ele>100.33333333333334</ele><time>2026-04-19T09:05:24.989Z</time></trkpt><trkpt lat="44.7217049314469" lon="0.5889048636866454"><ele>100.66666666666666</ele><time>2026-04-19T09:05:25.989Z</time></trkpt><trkpt lat="44.72180845467353" lon="0.5891537814647658"><ele>101.0</ele><time>2026-04-19T09:05:26.989Z</time></trkpt><trkpt lat="44.72192533757225" lon="0.5893980283264147"><ele>102.0</ele><time>2026-04-19T09:05:27.989Z</time></trkpt><trkpt lat="44.72203735565735" lon="0.5896321093180977"><ele>103.0</ele><time>2026-04-19T09:05:28.989Z</time></trkpt><trkpt lat="44.722163540024056" lon="0.5898612253039508"><ele>104.0</ele><time>2026-04-19T09:05:29.989Z</time></trkpt><trkpt lat="44.72227664581019" lon="0.590104090681015"><ele>104.0</ele><time>2026-04-19T09:05:30.989Z</time></trkpt><trkpt lat="44.72239109260966" lon="0.5903364250370976"><ele>104.0</ele><time>2026-04-19T09:05:31.989Z</time></trkpt><trkpt lat="44.722503347520856" lon="0.5905782151699372"><ele>104.0</ele><time>2026-04-19T09:05:32.989Z</time></trkpt><trkpt lat="44.72261835905441" lon="0.5908123886613544"><ele>104.33333333333333</ele><time>2026-04-19T09:05:33.989Z</time></trkpt><trkpt lat="44.722733861929626" lon="0.5910581048427922"><ele>104.66666666666666</ele><time>2026-04-19T09:05:34.989Z</time></trkpt><trkpt lat="44.722847389469095" lon="0.5912958571180558"><ele>105.0</ele><time>2026-04-19T09:05:35.989Z</time></trkpt><trkpt lat="44.72294465812389" lon="0.5915548507863816"><ele>104.33333333333334</ele><time>2026-04-19T09:05:36.989Z</time></trkpt><trkpt lat="44.723060028795345" lon="0.5917863272098964"><ele>103.66666666666667</ele><time>2026-04-19T09:05:37.989Z</time></trkpt><trkpt lat="44.7231703293041" lon="0.5920215172316532"><ele>103.0</ele><time>2026-04-19T09:05:38.989Z</time></trkpt><trkpt lat="44.72328182345286" lon="0.59224995482254"><ele>103.0</ele><time>2026-04-19T09:05:39.989Z</time></trkpt><trkpt lat="44.72339167091426" lon="0.5924793070307633"><ele>103.0</ele><time>2026-04-19T09:05:40.989Z</time></trkpt><trkpt lat="44.72350539186309" lon="0.5927114179011416"><ele>103.0</ele><time>2026-04-19T09:05:41.989Z</time></trkpt><trkpt lat="44.72361940045767" lon="0.5929297104476179"><ele>103.33333333333334</ele><time>2026-04-19T09:05:42.989Z</time></trkpt><trkpt lat="44.723731526258106" lon="0.5931316693523568"><ele>103.66666666666666</ele><time>2026-04-19T09:05:43.989Z</time></trkpt><trkpt lat="44.72384668731414" lon="0.5933192502312292"><ele>104.0</ele><time>2026-04-19T09:05:44.989Z</time></trkpt><trkpt lat="44.72396641141602" lon="0.593488741532253"><ele>104.0</ele><time>2026-04-19T09:05:45.989Z</time></trkpt><trkpt lat="44.72407995095643" lon="0.5936622808480835"><ele>104.0</ele><time>2026-04-19T09:05:46.989Z</time></trkpt><trkpt lat="44.72419448756369" lon="0.5938193551510184"><ele>104.0</ele><time>2026-04-19T09:05:47.989Z</time></trkpt><trkpt lat="44.724311160876084" lon="0.5939643993629801"><ele>103.66666666666666</ele><time>2026-04-19T09:05:48.989Z</time></trkpt><trkpt lat="44.7244133787532" lon="0.594118868735241"><ele>103.33333333333334</ele><time>2026-04-19T09:05:49.989Z</time></trkpt><trkpt lat="44.72451474792985" lon="0.5942682286608244"><ele>103.0</ele><time>2026-04-19T09:05:50.989Z</time></trkpt><trkpt lat="44.724617062136204" lon="0.5944288390223026"><ele>103.75</ele><time>2026-04-19T09:05:51.989Z</time></trkpt><trkpt lat="44.72471845189273" lon="0.5945777701340601"><ele>104.5</ele><time>2026-04-19T09:05:52.989Z</time></trkpt><trkpt lat="44.72482016181002" lon="0.5947311454979595"><ele>105.25</ele><time>2026-04-19T09:05:53.989Z</time></trkpt><trkpt lat="44.72492525917871" lon="0.5948760146503229"><ele>106.0</ele><time>2026-04-19T09:05:54.989Z</time></trkpt><trkpt lat="44.72503219806758" lon="0.5950268869914022"><ele>106.0</ele><time>2026-04-19T09:05:55.989Z</time></trkpt><trkpt lat="44.725131969146446" lon="0.5951711348534824"><ele>106.0</ele><time>2026-04-19T09:05:56.989Z</time></trkpt><trkpt lat="44.72523599750106" lon="0.5953192324402111"><ele>106.0</ele><time>2026-04-19T09:05:57.989Z</time></trkpt><trkpt lat="44.725338215986255" lon="0.595474322894472"><ele>106.0</ele><time>2026-04-19T09:05:58.989Z</time></trkpt><trkpt lat="44.72543199122181" lon="0.5956175873838379"><ele>105.75</ele><time>2026-04-19T09:05:59.989Z</time></trkpt><trkpt lat="44.725524579954126" lon="0.5957656241328876"><ele>105.5</ele><time>2026-04-19T09:06:00.989Z</time></trkpt><trkpt lat="44.725622728604" lon="0.5959152639686123"><ele>105.25</ele><time>2026-04-19T09:06:01.989Z</time></trkpt><trkpt lat="44.725697483792516" lon="0.5960731715844596"><ele>105.0</ele><time>2026-04-19T09:06:02.989Z</time></trkpt><trkpt lat="44.7257958739879" lon="0.5962090502735287"><ele>105.0</ele><time>2026-04-19T09:06:03.989Z</time></trkpt><trkpt lat="44.725874974426574" lon="0.5963652874061823"><ele>105.0</ele><time>2026-04-19T09:06:04.989Z</time></trkpt><trkpt lat="44.7259525923" lon="0.5965204151732967"><ele>105.0</ele><time>2026-04-19T09:06:05.989Z</time></trkpt><trkpt lat="44.726024274041094" lon="0.5966700360280053"><ele>105.0</ele><time>2026-04-19T09:06:06.989Z</time></trkpt><trkpt lat="44.72610059679873" lon="0.5968117343041361"><ele>105.0</ele><time>2026-04-19T09:06:07.989Z</time></trkpt><trkpt lat="44.72617042290232" lon="0.5969582255448528"><ele>105.0</ele><time>2026-04-19T09:06:08.989Z</time></trkpt><trkpt lat="44.72624565493372" lon="0.5971018392093032"><ele>105.0</ele><time>2026-04-19T09:06:09.989Z</time></trkpt><trkpt lat="44.7263209260303" lon="0.5972528962493283"><ele>105.0</ele><time>2026-04-19T09:06:10.989Z</time></trkpt><trkpt lat="44.72639560841352" lon="0.5973995912433101"><ele>104.75</ele><time>2026-04-19T09:06:11.989Z</time></trkpt><trkpt lat="44.72647271062719" lon="0.5975501374786837"><ele>104.5</ele><time>2026-04-19T09:06:12.989Z</time></trkpt><trkpt lat="44.72654849128802" lon="0.5976864829796475"><ele>104.25</ele><time>2026-04-19T09:06:13.989Z</time></trkpt><trkpt lat="44.726631204146905" lon="0.5978305604363496"><ele>104.0</ele><time>2026-04-19T09:06:14.989Z</time></trkpt><trkpt lat="44.726710472903314" lon="0.5979849539067748"><ele>104.5</ele><time>2026-04-19T09:06:15.989Z</time></trkpt><trkpt lat="44.72679142684974" lon="0.5981394109807447"><ele>105.0</ele><time>2026-04-19T09:06:16.989Z</time></trkpt><trkpt lat="44.726873986636015" lon="0.5982942058604452"><ele>105.5</ele><time>2026-04-19T09:06:17.989Z</time></trkpt><trkpt lat="44.726949612188534" lon="0.598450975798774"><ele>106.0</ele><time>2026-04-19T09:06:18.989Z</time></trkpt><trkpt lat="44.727033126892124" lon="0.5986056835717254"><ele>106.0</ele><time>2026-04-19T09:06:19.989Z</time></trkpt><trkpt lat="44.72711747976767" lon="0.5987574981142744"><ele>106.0</ele><time>2026-04-19T09:06:20.989Z</time></trkpt><trkpt lat="44.7271902969546" lon="0.5989070464402162"><ele>106.0</ele><time>2026-04-19T09:06:21.989Z</time></trkpt><trkpt lat="44.72726533248876" lon="0.5990449235659854"><ele>106.0</ele><time>2026-04-19T09:06:22.989Z</time></trkpt><trkpt lat="44.72733329107425" lon="0.5991818703280181"><ele>106.0</ele><time>2026-04-19T09:06:23.989Z</time></trkpt><trkpt lat="44.727396088704126" lon="0.5993056962187081"><ele>106.0</ele><time>2026-04-19T09:06:24.988Z</time></trkpt><trkpt lat="44.72745888227927" lon="0.5994253164319637"><ele>106.0</ele><time>2026-04-19T09:06:25.988Z</time></trkpt><trkpt lat="44.72752867070444" lon="0.5995610617723027"><ele>106.0</ele><time>2026-04-19T09:06:26.988Z</time></trkpt><trkpt lat="44.72760084354523" lon="0.5996896683024908"><ele>106.0</ele><time>2026-04-19T09:06:27.989Z</time></trkpt><trkpt lat="44.72766853702777" lon="0.5998204043458099"><ele>106.25</ele><time>2026-04-19T09:06:28.988Z</time></trkpt><trkpt lat="44.72774352822951" lon="0.5999593155352583"><ele>106.5</ele><time>2026-04-19T09:06:29.988Z</time></trkpt><trkpt lat="44.72780818423196" lon="0.6001000788796838"><ele>106.75</ele><time>2026-04-19T09:06:30.988Z</time></trkpt><trkpt lat="44.72787554283391" lon="0.6002311895297896"><ele>107.0</ele><time>2026-04-19T09:06:31.988Z</time></trkpt><trkpt lat="44.727940936137635" lon="0.6003566159856492"><ele>107.0</ele><time>2026-04-19T09:06:32.988Z</time></trkpt><trkpt lat="44.72800463798963" lon="0.6004718800150881"><ele>106.99999999999999</ele><time>2026-04-19T09:06:33.988Z</time></trkpt><trkpt lat="44.72806940939477" lon="0.6005949205941752"><ele>106.99999999999999</ele><time>2026-04-19T09:06:34.988Z</time></trkpt><trkpt lat="44.728129253683086" lon="0.6007116491608668"><ele>107.0</ele><time>2026-04-19T09:06:35.988Z</time></trkpt><trkpt lat="44.728193112626386" lon="0.6008284617319185"><ele>107.0</ele><time>2026-04-19T09:06:36.988Z</time></trkpt><trkpt lat="44.72824919432472" lon="0.6009486168147525"><ele>107.0</ele><time>2026-04-19T09:06:37.988Z</time></trkpt><trkpt lat="44.72830779044828" lon="0.601067676681771"><ele>106.99999999999999</ele><time>2026-04-19T09:06:38.988Z</time></trkpt><trkpt lat="44.72836805333691" lon="0.6011828866654719"><ele>106.99999999999999</ele><time>2026-04-19T09:06:39.988Z</time></trkpt><trkpt lat="44.72843434090934" lon="0.6013011345351975"><ele>107.0</ele><time>2026-04-19T09:06:40.988Z</time></trkpt><trkpt lat="44.72849224833017" lon="0.6013957222666704"><ele>107.0</ele><time>2026-04-19T09:06:41.988Z</time></trkpt><trkpt lat="44.72854942077394" lon="0.6015157644009301"><ele>107.19999999999999</ele><time>2026-04-19T09:06:42.988Z</time></trkpt><trkpt lat="44.72861156140909" lon="0.6016345467897277"><ele>107.39999999999999</ele><time>2026-04-19T09:06:43.988Z</time></trkpt><trkpt lat="44.728671164227876" lon="0.601763247901366"><ele>107.60000000000001</ele><time>2026-04-19T09:06:44.988Z</time></trkpt><trkpt lat="44.72872882993531" lon="0.6018911203652109"><ele>107.80000000000001</ele><time>2026-04-19T09:06:45.988Z</time></trkpt><trkpt lat="44.72877960510604" lon="0.602016054406262"><ele>108.0</ele><time>2026-04-19T09:06:46.988Z</time></trkpt><trkpt lat="44.728819088974916" lon="0.6021469213872689"><ele>108.0</ele><time>2026-04-19T09:06:47.988Z</time></trkpt><trkpt lat="44.72885908885315" lon="0.6022801532097365"><ele>108.00000000000001</ele><time>2026-04-19T09:06:48.988Z</time></trkpt><trkpt lat="44.72889102088278" lon="0.602400177494255"><ele>108.00000000000001</ele><time>2026-04-19T09:06:49.988Z</time></trkpt><trkpt lat="44.72891111050989" lon="0.6025360691962403"><ele>108.0</ele><time>2026-04-19T09:06:50.988Z</time></trkpt><trkpt lat="44.72892649275906" lon="0.602658306345745"><ele>108.0</ele><time>2026-04-19T09:06:51.988Z</time></trkpt><trkpt lat="44.72893691680535" lon="0.6027781287359566"><ele>108.14285714285714</ele><time>2026-04-19T09:06:52.988Z</time></trkpt><trkpt lat="44.72894915804485" lon="0.6028882292230162"><ele>108.28571428571428</ele><time>2026-04-19T09:06:53.988Z</time></trkpt><trkpt lat="44.72896562086659" lon="0.6029888087044583"><ele>108.42857142857143</ele><time>2026-04-19T09:06:54.988Z</time></trkpt><trkpt lat="44.72898278810436" lon="0.6030872769617964"><ele>108.57142857142857</ele><time>2026-04-19T09:06:55.988Z</time></trkpt><trkpt lat="44.728998083425836" lon="0.6031832771557734"><ele>108.71428571428572</ele><time>2026-04-19T09:06:56.988Z</time></trkpt><trkpt lat="44.72900917151642" lon="0.603273309087277"><ele>108.85714285714286</ele><time>2026-04-19T09:06:57.988Z</time></trkpt><trkpt lat="44.72899995273152" lon="0.6033766197686004"><ele>109.0</ele><time>2026-04-19T09:06:58.988Z</time></trkpt><trkpt lat="44.72903009608911" lon="0.603551376280886"><ele>109.0</ele><time>2026-04-19T09:07:00.988Z</time></trkpt><trkpt lat="44.72904816952377" lon="0.6036447452422743"><ele>109.0</ele><time>2026-04-19T09:07:01.988Z</time></trkpt><trkpt lat="44.72906368503861" lon="0.603738634044586"><ele>109.0</ele><time>2026-04-19T09:07:02.988Z</time></trkpt><trkpt lat="44.729079611463945" lon="0.6038404973446376"><ele>109.0</ele><time>2026-04-19T09:07:03.988Z</time></trkpt><trkpt lat="44.72908030199834" lon="0.6039510323000057"><ele>109.0</ele><time>2026-04-19T09:07:04.988Z</time></trkpt><trkpt lat="44.72910250626168" lon="0.604055402138743"><ele>109.0</ele><time>2026-04-19T09:07:05.988Z</time></trkpt><trkpt lat="44.729115486088496" lon="0.6041658354606496"><ele>109.0</ele><time>2026-04-19T09:07:06.988Z</time></trkpt><trkpt lat="44.729122630048956" lon="0.6042808530219655"><ele>109.6</ele><time>2026-04-19T09:07:07.988Z</time></trkpt><trkpt lat="44.72913382535843" lon="0.6043902859860052"><ele>110.2</ele><time>2026-04-19T09:07:08.988Z</time></trkpt><trkpt lat="44.729145695620346" lon="0.6044849319354842"><ele>110.79999999999998</ele><time>2026-04-19T09:07:09.988Z</time></trkpt><trkpt lat="44.72917151932481" lon="0.6046318452299225"><ele>111.39999999999999</ele><time>2026-04-19T09:07:11.988Z</time></trkpt><trkpt lat="44.729197812293435" lon="0.604776896738008"><ele>112.0</ele><time>2026-04-19T09:07:13.988Z</time></trkpt><trkpt lat="44.729220324701735" lon="0.6049100497665092"><ele>112.00000000000001</ele><time>2026-04-19T09:07:15.988Z</time></trkpt><trkpt lat="44.72924207323533" lon="0.6050340318515167"><ele>112.0</ele><time>2026-04-19T09:07:17.988Z</time></trkpt><trkpt lat="44.72924786263243" lon="0.6051424696630688"><ele>112.0</ele><time>2026-04-19T09:07:19.988Z</time></trkpt><trkpt lat="44.7292258469937" lon="0.6052650683244767"><ele>112.0</ele><time>2026-04-19T09:07:23.988Z</time></trkpt><trkpt lat="44.729170230150345" lon="0.6053079378515086"><ele>112.00000000000001</ele><time>2026-04-19T09:07:25.988Z</time></trkpt><trkpt lat="44.729094853825735" lon="0.6052628290028592"><ele>112.0</ele><time>2026-04-19T09:07:27.988Z</time></trkpt><trkpt lat="44.72900031201961" lon="0.60516196736101"><ele>112.0</ele><time>2026-04-19T09:07:30.988Z</time></trkpt><trkpt lat="44.728911092828895" lon="0.605185244836106"><ele>111.99999999999999</ele><time>2026-04-19T09:07:33.988Z</time></trkpt><trkpt lat="44.72884165408921" lon="0.6051744569273155"><ele>111.99999999999999</ele><time>2026-04-19T09:07:35.988Z</time></trkpt><trkpt lat="44.72876647284618" lon="0.6051992005065573"><ele>112.0</ele><time>2026-04-19T09:07:37.988Z</time></trkpt><trkpt lat="44.72868815025825" lon="0.6051842240273806"><ele>112.0</ele><time>2026-04-19T09:07:40.988Z</time></trkpt><trkpt lat="44.728656423711406" lon="0.605377539503404"><ele>112.16666666666667</ele><time>2026-04-19T09:07:46.988Z</time></trkpt><trkpt lat="44.72865642371159" lon="0.6054743956901953"><ele>112.33333333333334</ele><time>2026-04-19T09:07:52.988Z</time></trkpt><trkpt lat="44.7287981819341" lon="0.6055301860622695"><ele>112.5</ele><time>2026-04-19T09:07:54.988Z</time></trkpt><trkpt lat="44.72881313266838" lon="0.6056294025112408"><ele>112.66666666666666</ele><time>2026-04-19T09:07:57.988Z</time></trkpt><trkpt lat="44.72882607706938" lon="0.6057498160962596"><ele>112.83333333333333</ele><time>2026-04-19T09:08:29.988Z</time></trkpt><trkpt lat="44.72877331314844" lon="0.6058233502311349"><ele>113.0</ele><time>2026-04-19T09:08:31.988Z</time></trkpt><trkpt lat="44.72870305574812" lon="0.6059221912719313"><ele>112.99999999999999</ele><time>2026-04-19T09:08:33.987Z</time></trkpt><trkpt lat="44.72865531536065" lon="0.6060370055360654"><ele>113.0</ele><time>2026-04-19T09:08:35.987Z</time></trkpt><trkpt lat="44.728630179055976" lon="0.6061546788484254"><ele>113.0</ele><time>2026-04-19T09:08:37.987Z</time></trkpt><trkpt lat="44.72862074096195" lon="0.6062671662121224"><ele>113.0</ele><time>2026-04-19T09:08:39.987Z</time></trkpt><trkpt lat="44.728623783137294" lon="0.6063984826193894"><ele>112.99999999999999</ele><time>2026-04-19T09:08:42.987Z</time></trkpt><trkpt lat="44.72863205671912" lon="0.6064959896674798"><ele>113.0</ele><time>2026-04-19T09:08:44.987Z</time></trkpt><trkpt lat="44.72864748480688" lon="0.6065845280413122"><ele>113.4</ele><time>2026-04-19T09:08:46.987Z</time></trkpt><trkpt lat="44.7286761989866" lon="0.6066762222100065"><ele>113.80000000000001</ele><time>2026-04-19T09:08:49.987Z</time></trkpt><trkpt lat="44.72878480865658" lon="0.6066697843862452"><ele>114.2</ele><time>2026-04-19T09:13:43.986Z</time></trkpt><trkpt lat="44.728676347182116" lon="0.6067041857972518"><ele>114.6</ele><time>2026-04-19T09:13:52.986Z</time></trkpt><trkpt lat="44.72877947365666" lon="0.6066754993128298"><ele>115.0</ele><time>2026-04-19T09:14:13.986Z</time></trkpt><trkpt lat="44.72886542332024" lon="0.6067134034574787"><ele>114.99999999999999</ele><time>2026-04-19T09:15:55.986Z</time></trkpt><trkpt lat="44.72893113415203" lon="0.6067109648098787"><ele>115.0</ele><time>2026-04-19T09:16:07.986Z</time></trkpt><trkpt lat="44.7289896913612" lon="0.606677350045918"><ele>114.99999999999999</ele><time>2026-04-19T09:16:12.986Z</time></trkpt><trkpt lat="44.72905611783157" lon="0.6066864633842806"><ele>114.99999999999999</ele><time>2026-04-19T09:16:27.986Z</time></trkpt><trkpt lat="44.729120350794425" lon="0.6066758964080139"><ele>115.0</ele><time>2026-04-19T09:16:33.986Z</time></trkpt><trkpt lat="44.72918980291657" lon="0.6066601686022864"><ele>114.99999999999999</ele><time>2026-04-19T09:16:39.986Z</time></trkpt><trkpt lat="44.729249834412855" lon="0.6066028821474054"><ele>114.99999999999999</ele><time>2026-04-19T09:16:45.986Z</time></trkpt><trkpt lat="44.7292964780678" lon="0.606537546125403"><ele>115.00000000000001</ele><time>2026-04-19T09:16:51.986Z</time></trkpt><trkpt lat="44.7293582730016" lon="0.6065163648986479"><ele>115.0</ele><time>2026-04-19T09:17:00.986Z</time></trkpt><trkpt lat="44.72945877585069" lon="0.6064596854623696"><ele>115.0</ele><time>2026-04-19T09:17:29.986Z</time></trkpt><trkpt lat="44.729534966023905" lon="0.606473750215354"><ele>115.0</ele><time>2026-04-19T09:18:00.986Z</time></trkpt><trkpt lat="44.729489854269175" lon="0.606563705039563"><ele>115.00000000000001</ele><time>2026-04-19T09:20:46.985Z</time></trkpt><trkpt lat="44.729552891386135" lon="0.606583367113904"><ele>115.0</ele><time>2026-04-19T09:20:58.985Z</time></trkpt><trkpt lat="44.72962485349723" lon="0.6066021559545831"><ele>114.99999999999999</ele><time>2026-04-19T09:21:16.986Z</time></trkpt><trkpt lat="44.72965419567441" lon="0.6066854358157406"><ele>115.0</ele><time>2026-04-19T09:21:33.985Z</time></trkpt><trkpt lat="44.72967084099672" lon="0.6068070831587518"><ele>114.99999999999999</ele><time>2026-04-19T09:21:51.985Z</time></trkpt><trkpt lat="44.72971042402431" lon="0.6068812963007278"><ele>114.99999999999999</ele><time>2026-04-19T09:22:00.985Z</time></trkpt><trkpt lat="44.72973038151859" lon="0.6070019306822647"><ele>115.0</ele><time>2026-04-19T09:22:17.985Z</time></trkpt><trkpt lat="44.729748970258896" lon="0.6070866259795047"><ele>114.99999999999999</ele><time>2026-04-19T09:22:31.985Z</time></trkpt><trkpt lat="44.729749866766575" lon="0.6071920033565863"><ele>114.99999999999999</ele><time>2026-04-19T09:22:48.985Z</time></trkpt><trkpt lat="44.72978207506637" lon="0.6072734993687923"><ele>114.99999999999999</ele><time>2026-04-19T09:23:06.985Z</time></trkpt><trkpt lat="44.72980493478744" lon="0.6073713309363201"><ele>115.0</ele><time>2026-04-19T09:23:23.986Z</time></trkpt><trkpt lat="44.72981532459231" lon="0.6074618406766306"><ele>114.99999999999999</ele><time>2026-04-19T09:23:40.986Z</time></trkpt><trkpt lat="44.72981738528508" lon="0.6075515848993045"><ele>114.99999999999999</ele><time>2026-04-19T09:23:52.986Z</time></trkpt><trkpt lat="44.729862349526286" lon="0.6076177649263124"><ele>115.0</ele><time>2026-04-19T09:24:04.986Z</time></trkpt><trkpt lat="44.729880016514635" lon="0.6077031216559909"><ele>114.99999999999999</ele><time>2026-04-19T09:24:17.986Z</time></trkpt><trkpt lat="44.7298728291232" lon="0.607805485152454"><ele>114.99999999999999</ele><time>2026-04-19T09:24:35.986Z</time></trkpt><trkpt lat="44.72986067643748" lon="0.6078996378371558"><ele>114.57142857142856</ele><time>2026-04-19T09:24:49.986Z</time></trkpt><trkpt lat="44.729858489893786" lon="0.607993175105772"><ele>114.14285714285714</ele><time>2026-04-19T09:25:00.986Z</time></trkpt><trkpt lat="44.729859248966726" lon="0.6080872486721026"><ele>113.71428571428571</ele><time>2026-04-19T09:25:09.986Z</time></trkpt><trkpt lat="44.729854965520346" lon="0.6081766475341069"><ele>113.28571428571428</ele><time>2026-04-19T09:25:20.986Z</time></trkpt><trkpt lat="44.72985070995907" lon="0.6082711339016695"><ele>112.85714285714286</ele><time>2026-04-19T09:25:28.985Z</time></trkpt><trkpt lat="44.72989799009343" lon="0.6083340273672851"><ele>112.42857142857143</ele><time>2026-04-19T09:25:36.985Z</time></trkpt><trkpt lat="44.72995124270603" lon="0.6082847052169331"><ele>112.0</ele><time>2026-04-19T09:25:44.985Z</time></trkpt><trkpt lat="44.73001559404645" lon="0.6082651460332353"><ele>112.0</ele><time>2026-04-19T09:25:56.985Z</time></trkpt><trkpt lat="44.73011016132041" lon="0.6082676491251582"><ele>112.0</ele><time>2026-04-19T09:26:13.985Z</time></trkpt><trkpt lat="44.73018439033381" lon="0.6082742975973442"><ele>112.0</ele><time>2026-04-19T09:26:22.985Z</time></trkpt><trkpt lat="44.73023967211583" lon="0.6082210633844131"><ele>112.0</ele><time>2026-04-19T09:26:26.985Z</time></trkpt><trkpt lat="44.730271812668256" lon="0.6081397604520767"><ele>112.0</ele><time>2026-04-19T09:26:34.985Z</time></trkpt><trkpt lat="44.7303141001285" lon="0.608071459387364"><ele>112.0</ele><time>2026-04-19T09:26:43.985Z</time></trkpt><trkpt lat="44.73035294367836" lon="0.6079961223164514"><ele>112.0</ele><time>2026-04-19T09:26:56.985Z</time></trkpt><trkpt lat="44.730415643656244" lon="0.6079768582609534"><ele>111.71428571428571</ele><time>2026-04-19T09:27:06.985Z</time></trkpt><trkpt lat="44.730486495681404" lon="0.6079724720136332"><ele>111.42857142857143</ele><time>2026-04-19T09:27:17.985Z</time></trkpt><trkpt lat="44.73052138155351" lon="0.6078924568434951"><ele>111.14285714285714</ele><time>2026-04-19T09:27:25.985Z</time></trkpt><trkpt lat="44.730549068624114" lon="0.6078074346698171"><ele>110.85714285714286</ele><time>2026-04-19T09:27:34.985Z</time></trkpt><trkpt lat="44.73049094073615" lon="0.6077666633595503"><ele>110.57142857142857</ele><time>2026-04-19T09:27:51.985Z</time></trkpt><trkpt lat="44.730467186589316" lon="0.607680710463497"><ele>110.28571428571428</ele><time>2026-04-19T09:28:01.985Z</time></trkpt><trkpt lat="44.730464726897395" lon="0.6075830274646502"><ele>110.0</ele><time>2026-04-19T09:28:09.985Z</time></trkpt><trkpt lat="44.73045273837063" lon="0.6074637270554682"><ele>109.99999999999999</ele><time>2026-04-19T09:28:26.985Z</time></trkpt><trkpt lat="44.73047713384641" lon="0.6073764774956221"><ele>110.0</ele><time>2026-04-19T09:28:43.985Z</time></trkpt><trkpt lat="44.73046504936015" lon="0.6072791035147244"><ele>110.0</ele><time>2026-04-19T09:28:59.985Z</time></trkpt><trkpt lat="44.73044579699357" lon="0.6071905313919923"><ele>110.0</ele><time>2026-04-19T09:29:11.985Z</time></trkpt><trkpt lat="44.730404174645855" lon="0.6071195846957811"><ele>110.0</ele><time>2026-04-19T09:29:22.985Z</time></trkpt><trkpt lat="44.73038639265236" lon="0.6070281069221448"><ele>109.99999999999999</ele><time>2026-04-19T09:29:34.985Z</time></trkpt><trkpt lat="44.73040570681804" lon="0.6069375962611567"><ele>110.0</ele><time>2026-04-19T09:29:46.984Z</time></trkpt><trkpt lat="44.73046554278932" lon="0.606829120189685"><ele>110.14285714285714</ele><time>2026-04-19T09:30:07.984Z</time></trkpt><trkpt lat="44.730526060924475" lon="0.606798249269318"><ele>110.28571428571428</ele><time>2026-04-19T09:30:17.984Z</time></trkpt><trkpt lat="44.73054967445832" lon="0.60670161982845"><ele>110.42857142857142</ele><time>2026-04-19T09:30:36.984Z</time></trkpt><trkpt lat="44.73052677833099" lon="0.6066159971390451"><ele>110.57142857142857</ele><time>2026-04-19T09:30:46.984Z</time></trkpt><trkpt lat="44.73057774033685" lon="0.6065610812800216"><ele>110.71428571428572</ele><time>2026-04-19T09:31:00.984Z</time></trkpt><trkpt lat="44.73064329167139" lon="0.6065350567152357"><ele>110.85714285714285</ele><time>2026-04-19T09:31:12.984Z</time></trkpt><trkpt lat="44.730749837920804" lon="0.6065538410685907"><ele>111.0</ele><time>2026-04-19T09:31:33.984Z</time></trkpt><trkpt lat="44.73081380783898" lon="0.6064962891302649"><ele>111.0</ele><time>2026-04-19T09:32:01.985Z</time></trkpt><trkpt lat="44.730841014833686" lon="0.6064120197279945"><ele>111.0</ele><time>2026-04-19T09:32:16.985Z</time></trkpt><trkpt lat="44.73084255787925" lon="0.60631882417985"><ele>111.0</ele><time>2026-04-19T09:32:27.985Z</time></trkpt><trkpt lat="44.730837383586945" lon="0.6062260884446533"><ele>111.0</ele><time>2026-04-19T09:32:40.985Z</time></trkpt><trkpt lat="44.73082644163255" lon="0.6061322496468824"><ele>111.0</ele><time>2026-04-19T09:32:54.985Z</time></trkpt><trkpt lat="44.73081143739906" lon="0.606038410363168"><ele>111.0</ele><time>2026-04-19T09:33:03.985Z</time></trkpt><trkpt lat="44.73080835962815" lon="0.6058849759476519"><ele>111.0</ele><time>2026-04-19T09:33:36.985Z</time></trkpt><trkpt lat="44.73075342974503" lon="0.6058333972611322"><ele>110.71428571428571</ele><time>2026-04-19T09:33:47.984Z</time></trkpt><trkpt lat="44.73070428681588" lon="0.6057724182484379"><ele>110.42857142857143</ele><time>2026-04-19T09:33:58.984Z</time></trkpt><trkpt lat="44.73064224944864" lon="0.6057336937038854"><ele>110.14285714285714</ele><time>2026-04-19T09:34:12.984Z</time></trkpt><trkpt lat="44.730591645387996" lon="0.6056701979221767"><ele>109.85714285714286</ele><time>2026-04-19T09:34:29.984Z</time></trkpt><trkpt lat="44.73053866123481" lon="0.6056205124264983"><ele>109.57142857142858</ele><time>2026-04-19T09:34:38.984Z</time></trkpt><trkpt lat="44.730476096243045" lon="0.6055732636428667"><ele>109.28571428571429</ele><time>2026-04-19T09:34:51.984Z</time></trkpt><trkpt lat="44.73042082870532" lon="0.605513172994217"><ele>109.0</ele><time>2026-04-19T09:35:01.984Z</time></trkpt><trkpt lat="44.730362316939825" lon="0.6054757371872317"><ele>109.0</ele><time>2026-04-19T09:35:10.984Z</time></trkpt><trkpt lat="44.73030830868909" lon="0.6054296877795402"><ele>109.0</ele><time>2026-04-19T09:35:18.984Z</time></trkpt><trkpt lat="44.730245365629926" lon="0.6053860945382676"><ele>109.0</ele><time>2026-04-19T09:35:28.984Z</time></trkpt><trkpt lat="44.730186516723066" lon="0.6053284851146604"><ele>109.0</ele><time>2026-04-19T09:35:40.984Z</time></trkpt><trkpt lat="44.73013454368747" lon="0.605265906441852"><ele>109.0</ele><time>2026-04-19T09:35:48.985Z</time></trkpt><trkpt lat="44.73009059298302" lon="0.6053353979350655"><ele>109.0</ele><time>2026-04-19T09:36:00.984Z</time></trkpt><trkpt lat="44.7300509308759" lon="0.6054076170914457"><ele>109.0</ele><time>2026-04-19T09:36:14.984Z</time></trkpt><trkpt lat="44.729990579750684" lon="0.6054455094948865"><ele>109.28571428571429</ele><time>2026-04-19T09:36:25.984Z</time></trkpt><trkpt lat="44.729929250581584" lon="0.6054854865693355"><ele>109.57142857142858</ele><time>2026-04-19T09:36:37.984Z</time></trkpt><trkpt lat="44.72988346422623" lon="0.6055468654664118"><ele>109.85714285714286</ele><time>2026-04-19T09:36:48.984Z</time></trkpt><trkpt lat="44.729824539289844" lon="0.6055896229981321"><ele>110.14285714285714</ele><time>2026-04-19T09:36:57.984Z</time></trkpt><trkpt lat="44.7297538488441" lon="0.6055576363141311"><ele>110.42857142857143</ele><time>2026-04-19T09:37:13.984Z</time></trkpt><trkpt lat="44.72970464522233" lon="0.6054914050091619"><ele>110.71428571428571</ele><time>2026-04-19T09:37:21.984Z</time></trkpt><trkpt lat="44.72963979104492" lon="0.6054526557928505"><ele>111.0</ele><time>2026-04-19T09:37:31.982Z</time></trkpt><trkpt lat="44.72957605222801" lon="0.6054838199491875"><ele>111.0</ele><time>2026-04-19T09:37:41.981Z</time></trkpt><trkpt lat="44.72950101904788" lon="0.6055141760310973"><ele>111.0</ele><time>2026-04-19T09:37:49.981Z</time></trkpt><trkpt lat="44.72944518475522" lon="0.6055766386857266"><ele>111.0</ele><time>2026-04-19T09:37:58.98Z</time></trkpt><trkpt lat="44.72939657238726" lon="0.6056404302583929"><ele>111.0</ele><time>2026-04-19T09:38:07.981Z</time></trkpt><trkpt lat="44.729390156857754" lon="0.6057502550565338"><ele>111.0</ele><time>2026-04-19T09:38:30.981Z</time></trkpt><trkpt lat="44.72940918178395" lon="0.605839130997039"><ele>111.0</ele><time>2026-04-19T09:38:43.981Z</time></trkpt><trkpt lat="44.72943464785199" lon="0.6059268566721701"><ele>111.0</ele><time>2026-04-19T09:38:55.981Z</time></trkpt><trkpt lat="44.72943325336753" lon="0.6060173504151021"><ele>111.0</ele><time>2026-04-19T09:39:08.981Z</time></trkpt><trkpt lat="44.72945719972924" lon="0.6061056842857591"><ele>111.0</ele><time>2026-04-19T09:39:18.981Z</time></trkpt><trkpt lat="44.72946667161946" lon="0.6062115464506952"><ele>111.0</ele><time>2026-04-19T09:39:33.981Z</time></trkpt><trkpt lat="44.72946233588313" lon="0.6063039610735442"><ele>111.0</ele><time>2026-04-19T09:39:41.981Z</time></trkpt><trkpt lat="44.72950478662158" lon="0.6063769468933523"><ele>111.0</ele><time>2026-04-19T09:39:51.98Z</time></trkpt><trkpt lat="44.729537537102196" lon="0.6064682846957912"><ele>111.0</ele><time>2026-04-19T09:40:03.981Z</time></trkpt><trkpt lat="44.729596263397966" lon="0.6065551025416002"><ele>111.0</ele><time>2026-04-19T09:40:21.98Z</time></trkpt><trkpt lat="44.72965228252225" lon="0.6066011826099167"><ele>111.5</ele><time>2026-04-19T09:40:36.98Z</time></trkpt><trkpt lat="44.72971431957501" lon="0.6066179991724145"><ele>112.0</ele><time>2026-04-19T09:40:48.98Z</time></trkpt><trkpt lat="44.72977883286335" lon="0.6066312436225335"><ele>112.5</ele><time>2026-04-19T09:40:57.98Z</time></trkpt><trkpt lat="44.72987158663997" lon="0.6066789826246469"><ele>113.0</ele><time>2026-04-19T09:41:15.98Z</time></trkpt><trkpt lat="44.72994887987215" lon="0.6067254937591658"><ele>113.5</ele><time>2026-04-19T09:41:31.98Z</time></trkpt><trkpt lat="44.73001690848106" lon="0.6067162779799428"><ele>114.0</ele><time>2026-04-19T09:41:39.98Z</time></trkpt><trkpt lat="44.7301008742034" lon="0.6067314382809548"><ele>114.0</ele><time>2026-04-19T09:42:07.981Z</time></trkpt><trkpt lat="44.73013741342989" lon="0.6068161888349503"><ele>113.99999999999999</ele><time>2026-04-19T09:42:16.99Z</time></trkpt><trkpt lat="44.73016602138603" lon="0.6068957449090682"><ele>114.0</ele><time>2026-04-19T09:42:26.995Z</time></trkpt><trkpt lat="44.73027796684095" lon="0.6068992407790929"><ele>114.0</ele><time>2026-04-19T09:43:07Z</time></trkpt><trkpt lat="44.730332633474" lon="0.6068550089636419"><ele>113.99999999999999</ele><time>2026-04-19T09:43:14Z</time></trkpt><trkpt lat="44.73040140252241" lon="0.6068226615278471"><ele>114.0</ele><time>2026-04-19T09:43:21.001Z</time></trkpt><trkpt lat="44.730464001473166" lon="0.6068566277926568"><ele>114.0</ele><time>2026-04-19T09:43:27.001Z</time></trkpt><trkpt lat="44.7304907453541" lon="0.6069419879317632"><ele>113.42857142857142</ele><time>2026-04-19T09:43:37.001Z</time></trkpt><trkpt lat="44.73054960096704" lon="0.6069989819563902"><ele>112.85714285714285</ele><time>2026-04-19T09:43:45.001Z</time></trkpt><trkpt lat="44.73060274773726" lon="0.6070490181657698"><ele>112.28571428571428</ele><time>2026-04-19T09:43:53.001Z</time></trkpt><trkpt lat="44.73064039565569" lon="0.6071265676339191"><ele>111.71428571428571</ele><time>2026-04-19T09:44:07.001Z</time></trkpt><trkpt lat="44.73063501414559" lon="0.6072247966750445"><ele>111.14285714285714</ele><time>2026-04-19T09:44:19.001Z</time></trkpt><trkpt lat="44.730609290919936" lon="0.6073064332969476"><ele>110.57142857142856</ele><time>2026-04-19T09:44:28Z</time></trkpt><trkpt lat="44.73058309030783" lon="0.6073872301658488"><ele>110.0</ele><time>2026-04-19T09:44:36Z</time></trkpt><trkpt lat="44.73055996837943" lon="0.6074735203968331"><ele>109.99999999999999</ele><time>2026-04-19T09:44:46Z</time></trkpt><trkpt lat="44.73054513626285" lon="0.607560043679153"><ele>110.0</ele><time>2026-04-19T09:44:58Z</time></trkpt><trkpt lat="44.73047122417899" lon="0.6076203398609024"><ele>110.0</ele><time>2026-04-19T09:45:22Z</time></trkpt><trkpt lat="44.73051854881014" lon="0.6076795949976526"><ele>110.0</ele><time>2026-04-19T09:45:45Z</time></trkpt><trkpt lat="44.730533641429744" lon="0.6077723926592817"><ele>110.0</ele><time>2026-04-19T09:46:12Z</time></trkpt><trkpt lat="44.73059750325808" lon="0.6077616143631315"><ele>109.99999999999999</ele><time>2026-04-19T09:46:30Z</time></trkpt><trkpt lat="44.73067322964115" lon="0.6077468254226591"><ele>110.0</ele><time>2026-04-19T09:46:45Z</time></trkpt><trkpt lat="44.730781666626605" lon="0.6077725350141551"><ele>109.99999999999999</ele><time>2026-04-19T09:47:11Z</time></trkpt><trkpt lat="44.73072269298467" lon="0.6078160482596052"><ele>110.0</ele><time>2026-04-19T09:47:23Z</time></trkpt><trkpt lat="44.730657191418565" lon="0.6078095620360952"><ele>110.0</ele><time>2026-04-19T09:47:34Z</time></trkpt><trkpt lat="44.73059327144635" lon="0.6078047995265579"><ele>110.0</ele><time>2026-04-19T09:47:47Z</time></trkpt><trkpt lat="44.73053099990013" lon="0.6077895310091566"><ele>110.0</ele><time>2026-04-19T09:47:58Z</time></trkpt><trkpt lat="44.73046642956615" lon="0.6077634077090385"><ele>109.99999999999999</ele><time>2026-04-19T09:48:08Z</time></trkpt><trkpt lat="44.730400982263326" lon="0.6077500734594738"><ele>110.0</ele><time>2026-04-19T09:48:22Z</time></trkpt><trkpt lat="44.73041389172024" lon="0.6076590310327113"><ele>109.99999999999999</ele><time>2026-04-19T09:48:43Z</time></trkpt><trkpt lat="44.7304441320558" lon="0.6075783230456774"><ele>110.0</ele><time>2026-04-19T09:48:53Z</time></trkpt><trkpt lat="44.73047404007458" lon="0.6075001514998105"><ele>110.0</ele><time>2026-04-19T09:49:14Z</time></trkpt><trkpt lat="44.73046225119678" lon="0.6073917139994952"><ele>110.0</ele><time>2026-04-19T09:49:34Z</time></trkpt><trkpt lat="44.73052373196797" lon="0.6073563538067389"><ele>110.0</ele><time>2026-04-19T09:49:51Z</time></trkpt><trkpt lat="44.73053639257438" lon="0.6072681136641274"><ele>109.99999999999999</ele><time>2026-04-19T09:50:11Z</time></trkpt><trkpt lat="44.730543978490395" lon="0.6071632111833961"><ele>110.0</ele><time>2026-04-19T09:50:22Z</time></trkpt><trkpt lat="44.73053772042548" lon="0.6070741526863516"><ele>109.99999999999999</ele><time>2026-04-19T09:50:29Z</time></trkpt><trkpt lat="44.730533699636915" lon="0.6069798979440325"><ele>110.0</ele><time>2026-04-19T09:50:40Z</time></trkpt><trkpt lat="44.730490798294866" lon="0.6069127281038702"><ele>110.0</ele><time>2026-04-19T09:50:53Z</time></trkpt><trkpt lat="44.73056359944376" lon="0.6068953185434613"><ele>110.0</ele><time>2026-04-19T09:51:30Z</time></trkpt><trkpt lat="44.730582891054276" lon="0.6069848148442732"><ele>110.0</ele><time>2026-04-19T09:51:42Z</time></trkpt><trkpt lat="44.730607843028736" lon="0.6070687139483664"><ele>109.99999999999999</ele><time>2026-04-19T09:51:51Z</time></trkpt><trkpt lat="44.730610722055886" lon="0.6071633354962072"><ele>110.0</ele><time>2026-04-19T09:52:02Z</time></trkpt><trkpt lat="44.73058848995402" lon="0.6072540785659616"><ele>109.99999999999999</ele><time>2026-04-19T09:52:14Z</time></trkpt><trkpt lat="44.7305539824267" lon="0.6073335806320129"><ele>110.0</ele><time>2026-04-19T09:52:23Z</time></trkpt><trkpt lat="44.730515408205825" lon="0.6074113425250653"><ele>110.0</ele><time>2026-04-19T09:52:32Z</time></trkpt><trkpt lat="44.73048952503909" lon="0.6075006254828267"><ele>110.0</ele><time>2026-04-19T09:52:41Z</time></trkpt><trkpt lat="44.73044913982749" lon="0.607577412192978"><ele>110.0</ele><time>2026-04-19T09:52:51Z</time></trkpt><trkpt lat="44.73051663114686" lon="0.6075660763669812"><ele>109.99999999999999</ele><time>2026-04-19T09:53:41Z</time></trkpt><trkpt lat="44.73053256951506" lon="0.6074733625828622"><ele>110.0</ele><time>2026-04-19T09:53:47Z</time></trkpt><trkpt lat="44.7305377123342" lon="0.6073781610983846"><ele>109.99999999999999</ele><time>2026-04-19T09:53:57Z</time></trkpt><trkpt lat="44.73054833285555" lon="0.6072772319603793"><ele>110.0</ele><time>2026-04-19T09:54:07Z</time></trkpt><trkpt lat="44.730511900868656" lon="0.6071973876106213"><ele>110.0</ele><time>2026-04-19T09:54:16Z</time></trkpt><trkpt lat="44.73052257074971" lon="0.6071094613224564"><ele>110.0</ele><time>2026-04-19T09:54:23Z</time></trkpt><trkpt lat="44.730466546864974" lon="0.6070561783095643"><ele>110.0</ele><time>2026-04-19T09:54:32Z</time></trkpt><trkpt lat="44.7304347676167" lon="0.6069648203589052"><ele>109.99999999999999</ele><time>2026-04-19T09:54:40Z</time></trkpt><trkpt lat="44.73043302561172" lon="0.6068729126558795"><ele>110.0</ele><time>2026-04-19T09:54:50Z</time></trkpt><trkpt lat="44.73054868547632" lon="0.6068154067356977"><ele>110.14285714285714</ele><time>2026-04-19T09:55:13Z</time></trkpt><trkpt lat="44.73059902895359" lon="0.6067091898104321"><ele>110.28571428571428</ele><time>2026-04-19T09:55:35Z</time></trkpt><trkpt lat="44.730563700115276" lon="0.6066356463539382"><ele>110.42857142857142</ele><time>2026-04-19T09:55:44Z</time></trkpt><trkpt lat="44.730544050495844" lon="0.606532127221041"><ele>110.57142857142857</ele><time>2026-04-19T09:56:04Z</time></trkpt><trkpt lat="44.73052186346816" lon="0.6064422884240455"><ele>110.71428571428572</ele><time>2026-04-19T09:56:13Z</time></trkpt><trkpt lat="44.73051793602077" lon="0.6063475016683261"><ele>110.85714285714285</ele><time>2026-04-19T09:56:22Z</time></trkpt><trkpt lat="44.730489756190714" lon="0.6062605097762414"><ele>111.0</ele><time>2026-04-19T09:56:29Z</time></trkpt><trkpt lat="44.73046513717512" lon="0.6061758981444461"><ele>111.0</ele><time>2026-04-19T09:56:35Z</time></trkpt><trkpt lat="44.7304104837043" lon="0.6061296888136284"><ele>111.0</ele><time>2026-04-19T09:56:43Z</time></trkpt><trkpt lat="44.730361089116926" lon="0.606059422070567"><ele>111.0</ele><time>2026-04-19T09:56:51Z</time></trkpt><trkpt lat="44.730307219401915" lon="0.6060119069219159"><ele>111.0</ele><time>2026-04-19T09:56:58Z</time></trkpt><trkpt lat="44.73026126025011" lon="0.6059488519910451"><ele>111.0</ele><time>2026-04-19T09:57:05Z</time></trkpt><trkpt lat="44.730206249700146" lon="0.6059010872562072"><ele>111.0</ele><time>2026-04-19T09:57:13Z</time></trkpt><trkpt lat="44.73014374589819" lon="0.6058635506211827"><ele>111.0</ele><time>2026-04-19T09:57:21Z</time></trkpt><trkpt lat="44.73009188019037" lon="0.6058045086908673"><ele>111.0</ele><time>2026-04-19T09:57:29Z</time></trkpt><trkpt lat="44.73004442798662" lon="0.6057440381484386"><ele>111.0</ele><time>2026-04-19T09:57:37Z</time></trkpt><trkpt lat="44.729982532665716" lon="0.6057669765983635"><ele>111.0</ele><time>2026-04-19T09:57:45Z</time></trkpt><trkpt lat="44.72991712371997" lon="0.605796925109017"><ele>111.0</ele><time>2026-04-19T09:57:57Z</time></trkpt><trkpt lat="44.72986265588392" lon="0.6057407195107862"><ele>111.0</ele><time>2026-04-19T09:58:05Z</time></trkpt><trkpt lat="44.72982583978812" lon="0.6056685262352203"><ele>111.0</ele><time>2026-04-19T09:58:11Z</time></trkpt><trkpt lat="44.72986323849502" lon="0.6055849164721926"><ele>111.0</ele><time>2026-04-19T09:58:24Z</time></trkpt><trkpt lat="44.72993096838658" lon="0.6054910437576334"><ele>111.0</ele><time>2026-04-19T09:58:40Z</time></trkpt><trkpt lat="44.72999063008088" lon="0.6054626421607691"><ele>111.0</ele><time>2026-04-19T09:59:13Z</time></trkpt><trkpt lat="44.73004225572664" lon="0.6053846863056623"><ele>111.0</ele><time>2026-04-19T09:59:20Z</time></trkpt><trkpt lat="44.73007226077542" lon="0.6053028128881631"><ele>111.0</ele><time>2026-04-19T09:59:28Z</time></trkpt><trkpt lat="44.73012155267988" lon="0.6052363339405846"><ele>111.0</ele><time>2026-04-19T09:59:36Z</time></trkpt><trkpt lat="44.73018322362158" lon="0.6051330698464334"><ele>111.0</ele><time>2026-04-19T09:59:49Z</time></trkpt><trkpt lat="44.73024310384298" lon="0.6051834261973482"><ele>111.0</ele><time>2026-04-19T09:59:58Z</time></trkpt><trkpt lat="44.73029252715598" lon="0.6052395503331929"><ele>107.0</ele><time>2026-04-19T10:00:05Z</time></trkpt><trkpt lat="44.730354037114544" lon="0.6052849833466026"><ele>107.0</ele><time>2026-04-19T10:00:13Z</time></trkpt><trkpt lat="44.73045005132249" lon="0.6052373525924907"><ele>107.0</ele><time>2026-04-19T10:00:33Z</time></trkpt></trkseg><trkseg><trkpt lat="44.73070560756282" lon="0.6049219834552029"><ele>107.00000000000001</ele><time>2026-04-19T10:22:40.002Z</time></trkpt><trkpt lat="44.73065219627544" lon="0.6049863213404973"><ele>107.0</ele><time>2026-04-19T10:22:47.002Z</time></trkpt><trkpt lat="44.730591741584085" lon="0.6050532698628488"><ele>107.0</ele><time>2026-04-19T10:22:56.002Z</time></trkpt><trkpt lat="44.730527539617015" lon="0.6050604143532967"><ele>107.0</ele><time>2026-04-19T10:23:06.002Z</time></trkpt><trkpt lat="44.730472888953706" lon="0.6050069517280808"><ele>107.0</ele><time>2026-04-19T10:23:13.002Z</time></trkpt><trkpt lat="44.73041544360808" lon="0.6049642675765209"><ele>107.00000000000001</ele><time>2026-04-19T10:23:18.002Z</time></trkpt><trkpt lat="44.73036212779549" lon="0.6049034550822583"><ele>107.0</ele><time>2026-04-19T10:23:24.002Z</time></trkpt><trkpt lat="44.73032569382014" lon="0.6048205608852889"><ele>107.00000000000001</ele><time>2026-04-19T10:23:31.002Z</time></trkpt><trkpt lat="44.73028985595259" lon="0.6047262895351896"><ele>107.0</ele><time>2026-04-19T10:23:39.002Z</time></trkpt><trkpt lat="44.73023341318261" lon="0.6046838415217665"><ele>107.0</ele><time>2026-04-19T10:23:46.002Z</time></trkpt><trkpt lat="44.73017776491718" lon="0.6046298373821354"><ele>107.0</ele><time>2026-04-19T10:23:52.002Z</time></trkpt><trkpt lat="44.73011841598819" lon="0.6045730778566827"><ele>107.0</ele><time>2026-04-19T10:23:59.002Z</time></trkpt><trkpt lat="44.73004609718324" lon="0.6045315978967559"><ele>107.00000000000001</ele><time>2026-04-19T10:24:11.003Z</time></trkpt><trkpt lat="44.729976422604715" lon="0.60451497607235"><ele>107.0</ele><time>2026-04-19T10:24:18.003Z</time></trkpt><trkpt lat="44.729907093402005" lon="0.6045172636253904"><ele>107.14285714285715</ele><time>2026-04-19T10:24:26.003Z</time></trkpt><trkpt lat="44.729843349464105" lon="0.6045288397618366"><ele>107.28571428571429</ele><time>2026-04-19T10:24:33.003Z</time></trkpt><trkpt lat="44.729782223513055" lon="0.6045533528542774"><ele>107.42857142857143</ele><time>2026-04-19T10:24:41.003Z</time></trkpt><trkpt lat="44.72976176518088" lon="0.6046400288004491"><ele>107.57142857142858</ele><time>2026-04-19T10:24:49.003Z</time></trkpt><trkpt lat="44.72976545404026" lon="0.6047293956719341"><ele>107.71428571428571</ele><time>2026-04-19T10:24:57.003Z</time></trkpt><trkpt lat="44.72979920149583" lon="0.6048153240550551"><ele>107.85714285714286</ele><time>2026-04-19T10:25:05.003Z</time></trkpt><trkpt lat="44.72982412938876" lon="0.6049069935418293"><ele>108.0</ele><time>2026-04-19T10:25:11.003Z</time></trkpt><trkpt lat="44.729808311364025" lon="0.6049956215120117"><ele>108.0</ele><time>2026-04-19T10:25:22.003Z</time></trkpt><trkpt lat="44.729743436152106" lon="0.6050042100333549"><ele>108.0</ele><time>2026-04-19T10:25:31.003Z</time></trkpt><trkpt lat="44.72967347664913" lon="0.605021503167832"><ele>108.0</ele><time>2026-04-19T10:25:39.003Z</time></trkpt><trkpt lat="44.72961434651749" lon="0.6050570584629663"><ele>108.0</ele><time>2026-04-19T10:25:46.003Z</time></trkpt><trkpt lat="44.7295773914231" lon="0.6051352971116374"><ele>108.0</ele><time>2026-04-19T10:25:55.003Z</time></trkpt><trkpt lat="44.72951725934321" lon="0.6051846705438074"><ele>108.0</ele><time>2026-04-19T10:26:02.003Z</time></trkpt><trkpt lat="44.72945763297909" lon="0.6052389447446809"><ele>108.0</ele><time>2026-04-19T10:26:12.003Z</time></trkpt><trkpt lat="44.72939567908305" lon="0.6052677083017497"><ele>108.42857142857143</ele><time>2026-04-19T10:26:20.003Z</time></trkpt><trkpt lat="44.7293382481898" lon="0.6053199843862132"><ele>108.85714285714286</ele><time>2026-04-19T10:26:28.003Z</time></trkpt><trkpt lat="44.72929364188057" lon="0.6053863160539512"><ele>109.28571428571428</ele><time>2026-04-19T10:26:37.003Z</time></trkpt><trkpt lat="44.72930145547959" lon="0.6054747964699555"><ele>109.71428571428572</ele><time>2026-04-19T10:26:46.004Z</time></trkpt><trkpt lat="44.72932990439783" lon="0.6055585064111535"><ele>110.14285714285715</ele><time>2026-04-19T10:26:53.004Z</time></trkpt><trkpt lat="44.72937233751303" lon="0.6056412547299895"><ele>110.57142857142857</ele><time>2026-04-19T10:27:02.004Z</time></trkpt><trkpt lat="44.72939359847057" lon="0.6057309491471535"><ele>111.0</ele><time>2026-04-19T10:27:12.004Z</time></trkpt><trkpt lat="44.72939725754886" lon="0.6058244162525865"><ele>111.0</ele><time>2026-04-19T10:27:21.004Z</time></trkpt><trkpt lat="44.72941809567033" lon="0.6059139146000652"><ele>111.0</ele><time>2026-04-19T10:27:30.004Z</time></trkpt><trkpt lat="44.729426411672016" lon="0.6060078472236621"><ele>111.0</ele><time>2026-04-19T10:27:37.004Z</time></trkpt><trkpt lat="44.72945777916533" lon="0.6060987521592179"><ele>111.0</ele><time>2026-04-19T10:27:48.004Z</time></trkpt><trkpt lat="44.72947097180764" lon="0.6061944232096633"><ele>111.0</ele><time>2026-04-19T10:27:58.004Z</time></trkpt><trkpt lat="44.72950560961737" lon="0.6062751424417141"><ele>111.0</ele><time>2026-04-19T10:28:12.004Z</time></trkpt><trkpt lat="44.729477327892916" lon="0.6064118136526809"><ele>111.0</ele><time>2026-04-19T10:28:30.004Z</time></trkpt><trkpt lat="44.72938322846432" lon="0.6064886825311165"><ele>111.57142857142857</ele><time>2026-04-19T10:28:43.004Z</time></trkpt><trkpt lat="44.729321131596876" lon="0.6065142722054548"><ele>112.14285714285714</ele><time>2026-04-19T10:28:48.004Z</time></trkpt><trkpt lat="44.729262674486286" lon="0.6065752122858211"><ele>112.71428571428571</ele><time>2026-04-19T10:28:55.004Z</time></trkpt><trkpt lat="44.72921066650713" lon="0.6066259773248732"><ele>113.28571428571428</ele><time>2026-04-19T10:29:03.004Z</time></trkpt><trkpt lat="44.72916450938087" lon="0.6066872893543325"><ele>113.85714285714286</ele><time>2026-04-19T10:29:45.005Z</time></trkpt><trkpt lat="44.72909689576733" lon="0.6066902906882642"><ele>114.42857142857142</ele><time>2026-04-19T10:30:12.005Z</time></trkpt><trkpt lat="44.72902699596855" lon="0.6067099044844553"><ele>114.99999999999999</ele><time>2026-04-19T10:30:20.005Z</time></trkpt><trkpt lat="44.72894811152129" lon="0.6067078010950983"><ele>114.99999999999999</ele><time>2026-04-19T10:31:17.005Z</time></trkpt><trkpt lat="44.728880531802744" lon="0.6067185041576982"><ele>115.0</ele><time>2026-04-19T10:31:23.005Z</time></trkpt><trkpt lat="44.728814488127476" lon="0.6067149163991686"><ele>114.99999999999999</ele><time>2026-04-19T10:31:28.005Z</time></trkpt><trkpt lat="44.72874649884347" lon="0.606679189463613"><ele>114.99999999999999</ele><time>2026-04-19T10:31:39.005Z</time></trkpt><trkpt lat="44.72867897981556" lon="0.6066975174457729"><ele>115.0</ele><time>2026-04-19T10:39:43.977Z</time></trkpt><trkpt lat="44.72868416589976" lon="0.6068334385368657"><ele>114.99999999999999</ele><time>2026-04-19T10:40:21.973Z</time></trkpt><trkpt lat="44.72870088028553" lon="0.6069343377071108"><ele>114.99999999999999</ele><time>2026-04-19T10:40:24.973Z</time></trkpt><trkpt lat="44.72871569421377" lon="0.6070555478804"><ele>114.83333333333334</ele><time>2026-04-19T10:40:27.973Z</time></trkpt><trkpt lat="44.728722197862936" lon="0.6071590731170126"><ele>114.66666666666667</ele><time>2026-04-19T10:40:30.973Z</time></trkpt><trkpt lat="44.728736449638106" lon="0.6072762694713372"><ele>114.5</ele><time>2026-04-19T10:40:33.973Z</time></trkpt><trkpt lat="44.72875740080073" lon="0.6074078780870908"><ele>114.33333333333334</ele><time>2026-04-19T10:40:36.973Z</time></trkpt><trkpt lat="44.728792435495635" lon="0.6074885670122792"><ele>114.16666666666667</ele><time>2026-04-19T10:40:39.973Z</time></trkpt><trkpt lat="44.72881997588401" lon="0.6075826902064948"><ele>114.0</ele><time>2026-04-19T10:40:42.973Z</time></trkpt><trkpt lat="44.728859106181545" lon="0.6076867331319411"><ele>114.0</ele><time>2026-04-19T10:40:45.973Z</time></trkpt><trkpt lat="44.7288989702597" lon="0.6077904513960043"><ele>114.0</ele><time>2026-04-19T10:40:48.973Z</time></trkpt><trkpt lat="44.7289465024145" lon="0.6078822011472348"><ele>114.0</ele><time>2026-04-19T10:40:51.973Z</time></trkpt><trkpt lat="44.72899047735995" lon="0.6079878316315505"><ele>114.0</ele><time>2026-04-19T10:40:53.973Z</time></trkpt><trkpt lat="44.7290368543354" lon="0.608089523207541"><ele>114.0</ele><time>2026-04-19T10:40:55.973Z</time></trkpt><trkpt lat="44.72909366019744" lon="0.6081853295747072"><ele>114.0</ele><time>2026-04-19T10:40:57.973Z</time></trkpt><trkpt lat="44.72916913391763" lon="0.6082790221482254"><ele>113.6</ele><time>2026-04-19T10:40:59.973Z</time></trkpt><trkpt lat="44.729248802319425" lon="0.6083945086613121"><ele>113.2</ele><time>2026-04-19T10:41:01.973Z</time></trkpt><trkpt lat="44.72932476685527" lon="0.6085114371148157"><ele>112.79999999999998</ele><time>2026-04-19T10:41:03.973Z</time></trkpt><trkpt lat="44.729395735112384" lon="0.6086212998326385"><ele>112.39999999999999</ele><time>2026-04-19T10:41:05.973Z</time></trkpt><trkpt lat="44.72947734084754" lon="0.608701445867581"><ele>112.0</ele><time>2026-04-19T10:41:07.973Z</time></trkpt><trkpt lat="44.729570037215424" lon="0.6087439173719783"><ele>111.83333333333334</ele><time>2026-04-19T10:41:09.974Z</time></trkpt><trkpt lat="44.729647679614935" lon="0.608761479089341"><ele>111.66666666666667</ele><time>2026-04-19T10:41:11.974Z</time></trkpt><trkpt lat="44.72972886753652" lon="0.6088443461381715"><ele>111.5</ele><time>2026-04-19T10:41:13.974Z</time></trkpt><trkpt lat="44.72978882517555" lon="0.6089130237354823"><ele>111.33333333333334</ele><time>2026-04-19T10:41:15.974Z</time></trkpt><trkpt lat="44.72984683654505" lon="0.6089508727602022"><ele>111.16666666666667</ele><time>2026-04-19T10:41:17.974Z</time></trkpt><trkpt lat="44.729887272639" lon="0.6090325663367072"><ele>111.0</ele><time>2026-04-19T10:41:19.974Z</time></trkpt><trkpt lat="44.72991541160343" lon="0.6091437823457504"><ele>111.0</ele><time>2026-04-19T10:41:21.974Z</time></trkpt><trkpt lat="44.72994051347779" lon="0.6092298367775518"><ele>111.0</ele><time>2026-04-19T10:41:22.974Z</time></trkpt><trkpt lat="44.72996101139599" lon="0.6093307310563838"><ele>111.0</ele><time>2026-04-19T10:41:23.974Z</time></trkpt><trkpt lat="44.72999087465426" lon="0.6094272071785313"><ele>111.0</ele><time>2026-04-19T10:41:24.974Z</time></trkpt><trkpt lat="44.73002031969592" lon="0.6095254484396416"><ele>111.0</ele><time>2026-04-19T10:41:25.974Z</time></trkpt><trkpt lat="44.73005702651937" lon="0.6096401738432445"><ele>111.0</ele><time>2026-04-19T10:41:26.974Z</time></trkpt><trkpt lat="44.73009619699031" lon="0.6097582848970023"><ele>111.19999999999999</ele><time>2026-04-19T10:41:27.974Z</time></trkpt><trkpt lat="44.73013900549648" lon="0.609876069040233"><ele>111.39999999999999</ele><time>2026-04-19T10:41:28.974Z</time></trkpt><trkpt lat="44.73017535097588" lon="0.6100098297382253"><ele>111.6</ele><time>2026-04-19T10:41:29.974Z</time></trkpt><trkpt lat="44.730219580599034" lon="0.610144440910665"><ele>111.8</ele><time>2026-04-19T10:41:30.974Z</time></trkpt><trkpt lat="44.730268890699335" lon="0.610265561625038"><ele>112.0</ele><time>2026-04-19T10:41:31.974Z</time></trkpt><trkpt lat="44.730306055972505" lon="0.6103882657548025"><ele>112.0</ele><time>2026-04-19T10:41:32.974Z</time></trkpt><trkpt lat="44.730346635826145" lon="0.6105315884821605"><ele>111.99999999999999</ele><time>2026-04-19T10:41:33.974Z</time></trkpt><trkpt lat="44.730387691240935" lon="0.610672717141956"><ele>111.99999999999999</ele><time>2026-04-19T10:41:34.974Z</time></trkpt><trkpt lat="44.730427467451904" lon="0.6108109997798951"><ele>112.0</ele><time>2026-04-19T10:41:35.974Z</time></trkpt><trkpt lat="44.73047095514059" lon="0.6109522018538459"><ele>112.0</ele><time>2026-04-19T10:41:36.974Z</time></trkpt><trkpt lat="44.73050610864859" lon="0.6110829578883166"><ele>112.0</ele><time>2026-04-19T10:41:37.974Z</time></trkpt><trkpt lat="44.73054247475263" lon="0.6112278857206362"><ele>111.99999999999999</ele><time>2026-04-19T10:41:38.974Z</time></trkpt><trkpt lat="44.73058264474938" lon="0.6113703750879577"><ele>111.99999999999999</ele><time>2026-04-19T10:41:39.974Z</time></trkpt><trkpt lat="44.73062308572556" lon="0.6115040265728927"><ele>112.0</ele><time>2026-04-19T10:41:40.974Z</time></trkpt><trkpt lat="44.73067711737209" lon="0.6116320997514332"><ele>112.0</ele><time>2026-04-19T10:41:41.974Z</time></trkpt><trkpt lat="44.73071419569063" lon="0.6117823851013674"><ele>112.0</ele><time>2026-04-19T10:41:42.974Z</time></trkpt><trkpt lat="44.73075490668386" lon="0.61192322235589"><ele>111.99999999999999</ele><time>2026-04-19T10:41:43.974Z</time></trkpt><trkpt lat="44.730792330929155" lon="0.6120817784099468"><ele>111.99999999999999</ele><time>2026-04-19T10:41:44.974Z</time></trkpt><trkpt lat="44.73083587218739" lon="0.6122204191854678"><ele>112.0</ele><time>2026-04-19T10:41:45.974Z</time></trkpt><trkpt lat="44.730876156001955" lon="0.6123620851236302"><ele>112.0</ele><time>2026-04-19T10:41:46.974Z</time></trkpt><trkpt lat="44.730919657430334" lon="0.6125055339655946"><ele>112.0</ele><time>2026-04-19T10:41:47.974Z</time></trkpt><trkpt lat="44.73095855424381" lon="0.6126558118337077"><ele>111.99999999999999</ele><time>2026-04-19T10:41:48.974Z</time></trkpt><trkpt lat="44.7310007134058" lon="0.6127925453908412"><ele>111.99999999999999</ele><time>2026-04-19T10:41:49.974Z</time></trkpt><trkpt lat="44.73104179581493" lon="0.6129416718481869"><ele>112.0</ele><time>2026-04-19T10:41:50.974Z</time></trkpt><trkpt lat="44.73108457753863" lon="0.6130912208174254"><ele>112.0</ele><time>2026-04-19T10:41:51.974Z</time></trkpt><trkpt lat="44.731111453781686" lon="0.6132424106289293"><ele>111.0</ele><time>2026-04-19T10:41:52.974Z</time></trkpt><trkpt lat="44.73115451841187" lon="0.6133914877471617"><ele>110.0</ele><time>2026-04-19T10:41:53.974Z</time></trkpt><trkpt lat="44.73119098287608" lon="0.6135492247426062"><ele>109.0</ele><time>2026-04-19T10:41:54.974Z</time></trkpt><trkpt lat="44.73123817228889" lon="0.6136847151117683"><ele>108.0</ele><time>2026-04-19T10:41:55.974Z</time></trkpt><trkpt lat="44.73128241257593" lon="0.6138302944951752"><ele>108.0</ele><time>2026-04-19T10:41:56.97Z</time></trkpt><trkpt lat="44.73132346969203" lon="0.6139698098940398"><ele>108.00000000000001</ele><time>2026-04-19T10:41:57.969Z</time></trkpt><trkpt lat="44.73136679925053" lon="0.6141148706479101"><ele>108.00000000000001</ele><time>2026-04-19T10:41:58.969Z</time></trkpt><trkpt lat="44.73140618829441" lon="0.6142542764842637"><ele>108.0</ele><time>2026-04-19T10:41:59.97Z</time></trkpt><trkpt lat="44.73144868686828" lon="0.6143895033648489"><ele>108.0</ele><time>2026-04-19T10:42:00.969Z</time></trkpt><trkpt lat="44.73148355524442" lon="0.6145337911847056"><ele>107.80000000000001</ele><time>2026-04-19T10:42:01.969Z</time></trkpt><trkpt lat="44.731525991836186" lon="0.6146801078398986"><ele>107.60000000000001</ele><time>2026-04-19T10:42:02.969Z</time></trkpt><trkpt lat="44.73156671100296" lon="0.6148199991544906"><ele>107.39999999999999</ele><time>2026-04-19T10:42:03.97Z</time></trkpt><trkpt lat="44.73160697957763" lon="0.6149448437901078"><ele>107.19999999999999</ele><time>2026-04-19T10:42:04.97Z</time></trkpt><trkpt lat="44.731638439086524" lon="0.6150695928846815"><ele>107.0</ele><time>2026-04-19T10:42:05.969Z</time></trkpt><trkpt lat="44.73166991779325" lon="0.615179439199602"><ele>107.0</ele><time>2026-04-19T10:42:06.969Z</time></trkpt><trkpt lat="44.73169242306507" lon="0.6152650190109247"><ele>106.99999999999999</ele><time>2026-04-19T10:42:07.969Z</time></trkpt><trkpt lat="44.73171718688384" lon="0.6153579342624539"><ele>106.99999999999999</ele><time>2026-04-19T10:42:09.969Z</time></trkpt><trkpt lat="44.73176372620666" lon="0.6154628692395301"><ele>107.0</ele><time>2026-04-19T10:42:21.969Z</time></trkpt><trkpt lat="44.73182594866654" lon="0.6156425653935229"><ele>107.0</ele><time>2026-04-19T10:42:23.969Z</time></trkpt><trkpt lat="44.731864435269465" lon="0.6157750017246745"><ele>107.5</ele><time>2026-04-19T10:42:24.969Z</time></trkpt><trkpt lat="44.73190288680193" lon="0.6159145956988434"><ele>108.0</ele><time>2026-04-19T10:42:25.969Z</time></trkpt><trkpt lat="44.731951249821826" lon="0.6160631830100766"><ele>108.5</ele><time>2026-04-19T10:42:26.969Z</time></trkpt><trkpt lat="44.73199862053046" lon="0.6162203062520389"><ele>109.0</ele><time>2026-04-19T10:42:27.969Z</time></trkpt><trkpt lat="44.73205732387891" lon="0.6164085730918055"><ele>109.0</ele><time>2026-04-19T10:42:28.969Z</time></trkpt><trkpt lat="44.73211677155671" lon="0.616622367298281"><ele>109.0</ele><time>2026-04-19T10:42:29.969Z</time></trkpt><trkpt lat="44.732171182913625" lon="0.6168258573437345"><ele>109.0</ele><time>2026-04-19T10:42:30.969Z</time></trkpt><trkpt lat="44.732232494412486" lon="0.6170274055544807"><ele>109.33333333333334</ele><time>2026-04-19T10:42:31.969Z</time></trkpt><trkpt lat="44.73230065480688" lon="0.6172363558892677"><ele>109.66666666666666</ele><time>2026-04-19T10:42:32.969Z</time></trkpt><trkpt lat="44.732366597738455" lon="0.6174664407185597"><ele>110.0</ele><time>2026-04-19T10:42:33.969Z</time></trkpt><trkpt lat="44.73243805979102" lon="0.6177037902331424"><ele>111.0</ele><time>2026-04-19T10:42:34.969Z</time></trkpt><trkpt lat="44.73250697279251" lon="0.6179450345749747"><ele>112.0</ele><time>2026-04-19T10:42:35.969Z</time></trkpt><trkpt lat="44.732575055206155" lon="0.6181966297029423"><ele>113.0</ele><time>2026-04-19T10:42:36.969Z</time></trkpt><trkpt lat="44.73264589001056" lon="0.6184462460899036"><ele>112.0</ele><time>2026-04-19T10:42:37.969Z</time></trkpt><trkpt lat="44.732718797201734" lon="0.6187003984188265"><ele>111.0</ele><time>2026-04-19T10:42:38.969Z</time></trkpt><trkpt lat="44.73279548583299" lon="0.61895751141707"><ele>110.0</ele><time>2026-04-19T10:42:39.969Z</time></trkpt><trkpt lat="44.732878748735786" lon="0.6192189487815319"><ele>110.0</ele><time>2026-04-19T10:42:40.969Z</time></trkpt><trkpt lat="44.73295562665246" lon="0.6194632024038105"><ele>110.0</ele><time>2026-04-19T10:42:41.969Z</time></trkpt><trkpt lat="44.73302154891476" lon="0.6197182756110683"><ele>110.0</ele><time>2026-04-19T10:42:42.969Z</time></trkpt><trkpt lat="44.73308696517648" lon="0.6199754754396432"><ele>110.0</ele><time>2026-04-19T10:42:43.969Z</time></trkpt><trkpt lat="44.73315586508561" lon="0.6202093166293218"><ele>110.0</ele><time>2026-04-19T10:42:44.969Z</time></trkpt><trkpt lat="44.73322520330263" lon="0.6204364473591021"><ele>110.0</ele><time>2026-04-19T10:42:45.969Z</time></trkpt><trkpt lat="44.73329455546982" lon="0.6206547965295685"><ele>110.0</ele><time>2026-04-19T10:42:46.969Z</time></trkpt><trkpt lat="44.73336038132028" lon="0.620875447537915"><ele>110.0</ele><time>2026-04-19T10:42:47.969Z</time></trkpt><trkpt lat="44.73342748965762" lon="0.6210958862529448"><ele>110.0</ele><time>2026-04-19T10:42:48.969Z</time></trkpt><trkpt lat="44.733495004600215" lon="0.6213175667259223"><ele>110.0</ele><time>2026-04-19T10:42:49.969Z</time></trkpt><trkpt lat="44.7335562428755" lon="0.6215309161061979"><ele>110.0</ele><time>2026-04-19T10:42:50.969Z</time></trkpt><trkpt lat="44.73362029785954" lon="0.6217413702623492"><ele>110.0</ele><time>2026-04-19T10:42:51.969Z</time></trkpt><trkpt lat="44.733679037078744" lon="0.621957679735684"><ele>110.33333333333333</ele><time>2026-04-19T10:42:52.969Z</time></trkpt><trkpt lat="44.73374449926098" lon="0.622171371063464"><ele>110.66666666666666</ele><time>2026-04-19T10:42:53.969Z</time></trkpt><trkpt lat="44.733810398135944" lon="0.6223829124800004"><ele>111.0</ele><time>2026-04-19T10:42:54.969Z</time></trkpt><trkpt lat="44.73388031049302" lon="0.6226056668113182"><ele>111.66666666666666</ele><time>2026-04-19T10:42:55.969Z</time></trkpt><trkpt lat="44.7339507594109" lon="0.6228339084363169"><ele>112.33333333333333</ele><time>2026-04-19T10:42:56.969Z</time></trkpt><trkpt lat="44.73402048484846" lon="0.6230697135077427"><ele>113.0</ele><time>2026-04-19T10:42:57.969Z</time></trkpt><trkpt lat="44.73408798231197" lon="0.6233098484216344"><ele>113.0</ele><time>2026-04-19T10:42:58.969Z</time></trkpt><trkpt lat="44.73415427074606" lon="0.6235567678331502"><ele>113.0</ele><time>2026-04-19T10:42:59.969Z</time></trkpt><trkpt lat="44.73422382467743" lon="0.6237996186600521"><ele>113.0</ele><time>2026-04-19T10:43:00.969Z</time></trkpt><trkpt lat="44.7342937081191" lon="0.6240395621157093"><ele>113.33333333333333</ele><time>2026-04-19T10:43:01.969Z</time></trkpt><trkpt lat="44.73436843540215" lon="0.6242773737072309"><ele>113.66666666666666</ele><time>2026-04-19T10:43:02.969Z</time></trkpt><trkpt lat="44.734447419999036" lon="0.624509909662404"><ele>114.0</ele><time>2026-04-19T10:43:03.969Z</time></trkpt><trkpt lat="44.73452776220084" lon="0.6247356718639606"><ele>114.0</ele><time>2026-04-19T10:43:04.969Z</time></trkpt><trkpt lat="44.73461188773931" lon="0.6249582623524582"><ele>114.0</ele><time>2026-04-19T10:43:05.969Z</time></trkpt><trkpt lat="44.734706989809744" lon="0.6251838590443253"><ele>114.0</ele><time>2026-04-19T10:43:06.969Z</time></trkpt><trkpt lat="44.73480249550312" lon="0.6254219731845091"><ele>113.66666666666666</ele><time>2026-04-19T10:43:07.969Z</time></trkpt><trkpt lat="44.73490877579413" lon="0.6256624766729513"><ele>113.33333333333333</ele><time>2026-04-19T10:43:08.969Z</time></trkpt><trkpt lat="44.735011568452826" lon="0.6258998631305999"><ele>113.0</ele><time>2026-04-19T10:43:09.969Z</time></trkpt><trkpt lat="44.73511899995305" lon="0.626135233561568"><ele>113.33333333333333</ele><time>2026-04-19T10:43:10.969Z</time></trkpt><trkpt lat="44.735232469824645" lon="0.6263664461206824"><ele>113.66666666666666</ele><time>2026-04-19T10:43:11.969Z</time></trkpt><trkpt lat="44.73534129061761" lon="0.6265983338561943"><ele>114.0</ele><time>2026-04-19T10:43:12.969Z</time></trkpt><trkpt lat="44.73545608162732" lon="0.6268282168365428"><ele>114.33333333333334</ele><time>2026-04-19T10:43:13.969Z</time></trkpt><trkpt lat="44.7355618210777" lon="0.6270540841761182"><ele>114.66666666666667</ele><time>2026-04-19T10:43:14.969Z</time></trkpt><trkpt lat="44.73567040056191" lon="0.6272756298071005"><ele>115.0</ele><time>2026-04-19T10:43:15.969Z</time></trkpt><trkpt lat="44.735776226796105" lon="0.6275008608103092"><ele>115.0</ele><time>2026-04-19T10:43:16.969Z</time></trkpt><trkpt lat="44.735882361707105" lon="0.6277233396032664"><ele>115.0</ele><time>2026-04-19T10:43:17.969Z</time></trkpt><trkpt lat="44.73598768183934" lon="0.6279376660710309"><ele>115.0</ele><time>2026-04-19T10:43:18.969Z</time></trkpt><trkpt lat="44.736094371804434" lon="0.6281470093015579"><ele>114.66666666666667</ele><time>2026-04-19T10:43:19.969Z</time></trkpt><trkpt lat="44.736199282359244" lon="0.6283630716738658"><ele>114.33333333333334</ele><time>2026-04-19T10:43:20.969Z</time></trkpt><trkpt lat="44.73630365328381" lon="0.6285848225849935"><ele>114.0</ele><time>2026-04-19T10:43:21.969Z</time></trkpt><trkpt lat="44.73640907449593" lon="0.6288067951880251"><ele>114.0</ele><time>2026-04-19T10:43:22.969Z</time></trkpt><trkpt lat="44.73651566647656" lon="0.6290309409946357"><ele>114.0</ele><time>2026-04-19T10:43:23.969Z</time></trkpt><trkpt lat="44.73662356199224" lon="0.629252018343428"><ele>114.0</ele><time>2026-04-19T10:43:24.969Z</time></trkpt><trkpt lat="44.736730326746276" lon="0.6294777964249145"><ele>114.33333333333334</ele><time>2026-04-19T10:43:25.969Z</time></trkpt><trkpt lat="44.736834403416545" lon="0.6297029312664781"><ele>114.66666666666667</ele><time>2026-04-19T10:43:26.97Z</time></trkpt><trkpt lat="44.73693868450218" lon="0.6299282777951043"><ele>115.0</ele><time>2026-04-19T10:43:27.97Z</time></trkpt><trkpt lat="44.73704694514626" lon="0.6301493440389024"><ele>114.66666666666667</ele><time>2026-04-19T10:43:28.97Z</time></trkpt><trkpt lat="44.73715370204003" lon="0.6303716712222409"><ele>114.33333333333334</ele><time>2026-04-19T10:43:29.97Z</time></trkpt><trkpt lat="44.73726408862274" lon="0.6305889706558111"><ele>114.0</ele><time>2026-04-19T10:43:30.97Z</time></trkpt><trkpt lat="44.737374694628016" lon="0.6308039537519894"><ele>114.0</ele><time>2026-04-19T10:43:31.97Z</time></trkpt><trkpt lat="44.737481296610824" lon="0.6310268911869922"><ele>114.0</ele><time>2026-04-19T10:43:32.97Z</time></trkpt><trkpt lat="44.737592760740625" lon="0.6312414822927895"><ele>114.0</ele><time>2026-04-19T10:43:33.97Z</time></trkpt><trkpt lat="44.73769750245436" lon="0.6314652569253071"><ele>114.0</ele><time>2026-04-19T10:43:34.97Z</time></trkpt><trkpt lat="44.73780603119044" lon="0.6316954068392638"><ele>114.0</ele><time>2026-04-19T10:43:35.97Z</time></trkpt><trkpt lat="44.73790812693656" lon="0.6319222497975004"><ele>114.0</ele><time>2026-04-19T10:43:36.97Z</time></trkpt><trkpt lat="44.738016754573565" lon="0.6321443963395605"><ele>114.0</ele><time>2026-04-19T10:43:37.97Z</time></trkpt><trkpt lat="44.73812505764691" lon="0.6323682672136761"><ele>114.0</ele><time>2026-04-19T10:43:38.97Z</time></trkpt><trkpt lat="44.73822972951501" lon="0.632596295365344"><ele>114.0</ele><time>2026-04-19T10:43:39.97Z</time></trkpt><trkpt lat="44.73833584451639" lon="0.6328279243488747"><ele>114.66666666666666</ele><time>2026-04-19T10:43:40.97Z</time></trkpt><trkpt lat="44.738438129846365" lon="0.6330737476527373"><ele>115.33333333333333</ele><time>2026-04-19T10:43:41.97Z</time></trkpt><trkpt lat="44.73853453956083" lon="0.6333339098975964"><ele>116.0</ele><time>2026-04-19T10:43:42.97Z</time></trkpt><trkpt lat="44.73861641782128" lon="0.633623723696497"><ele>116.0</ele><time>2026-04-19T10:43:43.97Z</time></trkpt><trkpt lat="44.73869239459125" lon="0.6339250919354127"><ele>116.0</ele><time>2026-04-19T10:43:44.97Z</time></trkpt><trkpt lat="44.73875660370223" lon="0.6342371669764311"><ele>118.5</ele><time>2026-04-19T10:43:45.97Z</time></trkpt><trkpt lat="44.738811830764114" lon="0.6345569686247899"><ele>121.0</ele><time>2026-04-19T10:43:46.97Z</time></trkpt><trkpt lat="44.73885685548555" lon="0.6348889965419884"><ele>121.0</ele><time>2026-04-19T10:43:47.97Z</time></trkpt><trkpt lat="44.73889399701041" lon="0.6352196061436822"><ele>121.0</ele><time>2026-04-19T10:43:48.97Z</time></trkpt><trkpt lat="44.738932667029594" lon="0.6355419146418205"><ele>121.0</ele><time>2026-04-19T10:43:49.97Z</time></trkpt><trkpt lat="44.738966721888524" lon="0.6358604594352647"><ele>121.0</ele><time>2026-04-19T10:43:50.97Z</time></trkpt><trkpt lat="44.73900009311752" lon="0.6361797904382647"><ele>121.0</ele><time>2026-04-19T10:43:51.97Z</time></trkpt><trkpt lat="44.739040744483326" lon="0.6364898636393028"><ele>121.0</ele><time>2026-04-19T10:43:52.97Z</time></trkpt><trkpt lat="44.73907701830737" lon="0.636800445803834"><ele>121.0</ele><time>2026-04-19T10:43:53.97Z</time></trkpt><trkpt lat="44.73911099141962" lon="0.6371192321676709"><ele>120.5</ele><time>2026-04-19T10:43:54.97Z</time></trkpt><trkpt lat="44.739145207133205" lon="0.637437088517857"><ele>120.0</ele><time>2026-04-19T10:43:55.97Z</time></trkpt><trkpt lat="44.739180712612786" lon="0.6377615691570715"><ele>121.0</ele><time>2026-04-19T10:43:56.97Z</time></trkpt><trkpt lat="44.739217093331895" lon="0.6380836973671049"><ele>122.0</ele><time>2026-04-19T10:43:57.97Z</time></trkpt><trkpt lat="44.73925422026181" lon="0.638400544948077"><ele>123.0</ele><time>2026-04-19T10:43:58.97Z</time></trkpt><trkpt lat="44.73929094413235" lon="0.6387129434390183"><ele>124.0</ele><time>2026-04-19T10:43:59.97Z</time></trkpt><trkpt lat="44.73932503537776" lon="0.6390166367043364"><ele>125.0</ele><time>2026-04-19T10:44:00.97Z</time></trkpt><trkpt lat="44.73935846214077" lon="0.6393253064881035"><ele>124.33333333333333</ele><time>2026-04-19T10:44:01.97Z</time></trkpt><trkpt lat="44.73939409698934" lon="0.6396362376918715"><ele>123.66666666666666</ele><time>2026-04-19T10:44:02.966Z</time></trkpt><trkpt lat="44.73943039819538" lon="0.6399494949162369"><ele>123.0</ele><time>2026-04-19T10:44:03.966Z</time></trkpt><trkpt lat="44.739468404633165" lon="0.6402599101788027"><ele>123.33333333333334</ele><time>2026-04-19T10:44:04.966Z</time></trkpt><trkpt lat="44.739501265512516" lon="0.6405726221460301"><ele>123.66666666666667</ele><time>2026-04-19T10:44:05.966Z</time></trkpt><trkpt lat="44.73954178937042" lon="0.640880368213659"><ele>124.0</ele><time>2026-04-19T10:44:06.967Z</time></trkpt><trkpt lat="44.73957608328772" lon="0.6411943677983466"><ele>124.0</ele><time>2026-04-19T10:44:07.967Z</time></trkpt><trkpt lat="44.73961243591952" lon="0.6415019720679334"><ele>124.0</ele><time>2026-04-19T10:44:08.966Z</time></trkpt><trkpt lat="44.73964815401729" lon="0.6418110311930523"><ele>124.0</ele><time>2026-04-19T10:44:09.966Z</time></trkpt><trkpt lat="44.739682287049725" lon="0.6421189578102039"><ele>123.66666666666667</ele><time>2026-04-19T10:44:10.966Z</time></trkpt><trkpt lat="44.739722282432986" lon="0.6424228619792309"><ele>123.33333333333334</ele><time>2026-04-19T10:44:11.966Z</time></trkpt><trkpt lat="44.73975417081645" lon="0.6427361016827294"><ele>123.0</ele><time>2026-04-19T10:44:12.966Z</time></trkpt><trkpt lat="44.73979189224448" lon="0.643039461051505"><ele>124.0</ele><time>2026-04-19T10:44:13.966Z</time></trkpt><trkpt lat="44.73981881261091" lon="0.6433533250410254"><ele>125.0</ele><time>2026-04-19T10:44:14.967Z</time></trkpt><trkpt lat="44.739846792817296" lon="0.6436684597340012"><ele>125.5</ele><time>2026-04-19T10:44:15.966Z</time></trkpt><trkpt lat="44.73987653834613" lon="0.6439865186467629"><ele>126.0</ele><time>2026-04-19T10:44:16.966Z</time></trkpt><trkpt lat="44.739902765851774" lon="0.6443100659921154"><ele>126.5</ele><time>2026-04-19T10:44:17.966Z</time></trkpt><trkpt lat="44.73992664719318" lon="0.6446371322238946"><ele>127.0</ele><time>2026-04-19T10:44:18.966Z</time></trkpt><trkpt lat="44.739938149541395" lon="0.6449755253841967"><ele>127.5</ele><time>2026-04-19T10:44:19.966Z</time></trkpt><trkpt lat="44.739947619944346" lon="0.6453144394979043"><ele>128.0</ele><time>2026-04-19T10:44:20.966Z</time></trkpt><trkpt lat="44.73994533342192" lon="0.6456586744087758"><ele>128.0</ele><time>2026-04-19T10:44:21.966Z</time></trkpt><trkpt lat="44.73994178364762" lon="0.6460086312468712"><ele>128.0</ele><time>2026-04-19T10:44:22.966Z</time></trkpt><trkpt lat="44.7399426670077" lon="0.6463613862839316"><ele>127.0</ele><time>2026-04-19T10:44:23.966Z</time></trkpt><trkpt lat="44.73994830864143" lon="0.6467125736360645"><ele>126.0</ele><time>2026-04-19T10:44:24.966Z</time></trkpt><trkpt lat="44.73995248131718" lon="0.6470710427501977"><ele>125.5</ele><time>2026-04-19T10:44:25.966Z</time></trkpt><trkpt lat="44.73995237574008" lon="0.6474338012135089"><ele>125.0</ele><time>2026-04-19T10:44:26.967Z</time></trkpt><trkpt lat="44.73995473800169" lon="0.6477893382794313"><ele>125.0</ele><time>2026-04-19T10:44:27.967Z</time></trkpt><trkpt lat="44.73995657963393" lon="0.6481493023677406"><ele>125.0</ele><time>2026-04-19T10:44:28.967Z</time></trkpt><trkpt lat="44.73995796492949" lon="0.6485144440734391"><ele>126.0</ele><time>2026-04-19T10:44:29.967Z</time></trkpt><trkpt lat="44.73995447925357" lon="0.648885978981736"><ele>127.0</ele><time>2026-04-19T10:44:30.967Z</time></trkpt><trkpt lat="44.73995222249099" lon="0.6492546465079806"><ele>127.0</ele><time>2026-04-19T10:44:31.967Z</time></trkpt><trkpt lat="44.7399484469701" lon="0.6496227305075163"><ele>127.0</ele><time>2026-04-19T10:44:32.967Z</time></trkpt><trkpt lat="44.73995325887083" lon="0.6499877954953165"><ele>127.5</ele><time>2026-04-19T10:44:33.967Z</time></trkpt><trkpt lat="44.73995622584653" lon="0.65035255885612"><ele>128.0</ele><time>2026-04-19T10:44:34.967Z</time></trkpt><trkpt lat="44.73995856519282" lon="0.6507118967248685"><ele>128.0</ele><time>2026-04-19T10:44:35.967Z</time></trkpt><trkpt lat="44.73995923507865" lon="0.6510698899916464"><ele>128.0</ele><time>2026-04-19T10:44:36.967Z</time></trkpt><trkpt lat="44.739959510927285" lon="0.6514223263936393"><ele>128.0</ele><time>2026-04-19T10:44:37.967Z</time></trkpt><trkpt lat="44.73996293329918" lon="0.6517667614248315"><ele>128.0</ele><time>2026-04-19T10:44:38.967Z</time></trkpt><trkpt lat="44.739970988923076" lon="0.6521179604866841"><ele>128.0</ele><time>2026-04-19T10:44:39.967Z</time></trkpt><trkpt lat="44.739971268271326" lon="0.6524757837018625"><ele>128.0</ele><time>2026-04-19T10:44:40.967Z</time></trkpt><trkpt lat="44.739971692701964" lon="0.6528266727776627"><ele>129.0</ele><time>2026-04-19T10:44:41.967Z</time></trkpt><trkpt lat="44.7399697618591" lon="0.6531761239178606"><ele>130.0</ele><time>2026-04-19T10:44:42.967Z</time></trkpt><trkpt lat="44.739972458619945" lon="0.6535321890783502"><ele>130.5</ele><time>2026-04-19T10:44:43.967Z</time></trkpt><trkpt lat="44.739976885380116" lon="0.6538822652507881"><ele>131.0</ele><time>2026-04-19T10:44:44.967Z</time></trkpt><trkpt lat="44.739987023564055" lon="0.6542321085820763"><ele>130.0</ele><time>2026-04-19T10:44:45.967Z</time></trkpt><trkpt lat="44.73999125446726" lon="0.6545811811777815"><ele>129.0</ele><time>2026-04-19T10:44:46.967Z</time></trkpt><trkpt lat="44.740008956292016" lon="0.6549236000841466"><ele>129.0</ele><time>2026-04-19T10:44:47.967Z</time></trkpt><trkpt lat="44.74004499745968" lon="0.6552631499396456"><ele>129.0</ele><time>2026-04-19T10:44:48.967Z</time></trkpt><trkpt lat="44.74010159440838" lon="0.6556038683689983"><ele>130.0</ele><time>2026-04-19T10:44:49.967Z</time></trkpt><trkpt lat="44.740159745477214" lon="0.6559369408585641"><ele>131.0</ele><time>2026-04-19T10:44:50.967Z</time></trkpt><trkpt lat="44.74021765245612" lon="0.6562645116734569"><ele>131.0</ele><time>2026-04-19T10:44:51.967Z</time></trkpt><trkpt lat="44.740282278247484" lon="0.6565943153932532"><ele>131.0</ele><time>2026-04-19T10:44:52.967Z</time></trkpt><trkpt lat="44.74033569104158" lon="0.6569265716439436"><ele>130.5</ele><time>2026-04-19T10:44:53.967Z</time></trkpt><trkpt lat="44.74039574639165" lon="0.6572559538209379"><ele>130.0</ele><time>2026-04-19T10:44:54.967Z</time></trkpt><trkpt lat="44.74045539949477" lon="0.6575844010706514"><ele>130.0</ele><time>2026-04-19T10:44:55.967Z</time></trkpt><trkpt lat="44.74051378454097" lon="0.6579185291754911"><ele>130.0</ele><time>2026-04-19T10:44:56.967Z</time></trkpt><trkpt lat="44.74056866437228" lon="0.6582493840199297"><ele>130.0</ele><time>2026-04-19T10:44:57.967Z</time></trkpt><trkpt lat="44.7406167299264" lon="0.6585908093386696"><ele>130.0</ele><time>2026-04-19T10:44:58.967Z</time></trkpt><trkpt lat="44.74067614308009" lon="0.6589236402970833"><ele>130.5</ele><time>2026-04-19T10:44:59.967Z</time></trkpt><trkpt lat="44.740730132534374" lon="0.6592564948218208"><ele>131.0</ele><time>2026-04-19T10:45:00.967Z</time></trkpt><trkpt lat="44.74078719160642" lon="0.6595904298805412"><ele>131.0</ele><time>2026-04-19T10:45:01.967Z</time></trkpt><trkpt lat="44.74085006316602" lon="0.6599186372016544"><ele>131.0</ele><time>2026-04-19T10:45:02.967Z</time></trkpt><trkpt lat="44.74091476975853" lon="0.6602495673006226"><ele>130.5</ele><time>2026-04-19T10:45:03.967Z</time></trkpt><trkpt lat="44.74097817651206" lon="0.6605828969813075"><ele>130.0</ele><time>2026-04-19T10:45:04.967Z</time></trkpt><trkpt lat="44.7410382227699" lon="0.660915866689498"><ele>131.0</ele><time>2026-04-19T10:45:05.967Z</time></trkpt><trkpt lat="44.74110115599063" lon="0.661250955175407"><ele>132.0</ele><time>2026-04-19T10:45:06.967Z</time></trkpt><trkpt lat="44.74116443149176" lon="0.6615838565639149"><ele>132.0</ele><time>2026-04-19T10:45:07.967Z</time></trkpt><trkpt lat="44.74122689977275" lon="0.6619196679068778"><ele>132.0</ele><time>2026-04-19T10:45:08.967Z</time></trkpt><trkpt lat="44.741289068660315" lon="0.6622553610295292"><ele>132.0</ele><time>2026-04-19T10:45:09.967Z</time></trkpt><trkpt lat="44.74135024394268" lon="0.66259356707977"><ele>132.0</ele><time>2026-04-19T10:45:10.967Z</time></trkpt><trkpt lat="44.74141752092074" lon="0.6629270512092933"><ele>131.5</ele><time>2026-04-19T10:45:11.967Z</time></trkpt><trkpt lat="44.7414795910612" lon="0.6632598378873674"><ele>131.0</ele><time>2026-04-19T10:45:12.967Z</time></trkpt><trkpt lat="44.741543432071644" lon="0.6636000563161095"><ele>131.5</ele><time>2026-04-19T10:45:13.967Z</time></trkpt><trkpt lat="44.741605473670056" lon="0.6639291729523773"><ele>132.0</ele><time>2026-04-19T10:45:14.967Z</time></trkpt><trkpt lat="44.741667911052396" lon="0.664255141599732"><ele>133.0</ele><time>2026-04-19T10:45:15.967Z</time></trkpt><trkpt lat="44.74172862046677" lon="0.6645772950943585"><ele>134.0</ele><time>2026-04-19T10:45:16.967Z</time></trkpt><trkpt lat="44.741789719284526" lon="0.6648922425351762"><ele>134.0</ele><time>2026-04-19T10:45:17.967Z</time></trkpt><trkpt lat="44.741851255392696" lon="0.6652027350229599"><ele>134.0</ele><time>2026-04-19T10:45:18.967Z</time></trkpt><trkpt lat="44.74191032559556" lon="0.6655073689269132"><ele>134.33333333333331</ele><time>2026-04-19T10:45:19.967Z</time></trkpt><trkpt lat="44.741968944279066" lon="0.6658128469549284"><ele>134.66666666666666</ele><time>2026-04-19T10:45:20.967Z</time></trkpt><trkpt lat="44.742027966716094" lon="0.6661118363942469"><ele>135.0</ele><time>2026-04-19T10:45:21.967Z</time></trkpt><trkpt lat="44.74208567088111" lon="0.6664116413309609"><ele>135.66666666666666</ele><time>2026-04-19T10:45:22.967Z</time></trkpt><trkpt lat="44.74214395272274" lon="0.6667071123293499"><ele>136.33333333333331</ele><time>2026-04-19T10:45:23.967Z</time></trkpt><trkpt lat="44.74220247598625" lon="0.6670032707697396"><ele>137.0</ele><time>2026-04-19T10:45:24.967Z</time></trkpt><trkpt lat="44.74225909633955" lon="0.6672982905119387"><ele>137.0</ele><time>2026-04-19T10:45:25.967Z</time></trkpt><trkpt lat="44.74231676631308" lon="0.6675949637969529"><ele>137.0</ele><time>2026-04-19T10:45:26.967Z</time></trkpt><trkpt lat="44.74237527647155" lon="0.6678889041087874"><ele>137.0</ele><time>2026-04-19T10:45:27.967Z</time></trkpt><trkpt lat="44.74243282515444" lon="0.6681847097271175"><ele>137.0</ele><time>2026-04-19T10:45:28.967Z</time></trkpt><trkpt lat="44.74249122424281" lon="0.6684738072787073"><ele>137.0</ele><time>2026-04-19T10:45:29.967Z</time></trkpt><trkpt lat="44.742546973092104" lon="0.6687730650730398"><ele>137.0</ele><time>2026-04-19T10:45:30.967Z</time></trkpt><trkpt lat="44.74260742263734" lon="0.6690798170404783"><ele>137.5</ele><time>2026-04-19T10:45:31.967Z</time></trkpt><trkpt lat="44.7426680040372" lon="0.6693867787016076"><ele>138.0</ele><time>2026-04-19T10:45:32.967Z</time></trkpt><trkpt lat="44.74272614855874" lon="0.6696972794096917"><ele>139.0</ele><time>2026-04-19T10:45:33.967Z</time></trkpt><trkpt lat="44.74278748942437" lon="0.6700100702661138"><ele>140.0</ele><time>2026-04-19T10:45:34.967Z</time></trkpt><trkpt lat="44.742843665435196" lon="0.670317569619309"><ele>140.33333333333331</ele><time>2026-04-19T10:45:35.967Z</time></trkpt><trkpt lat="44.742906694249164" lon="0.6706261618134439"><ele>140.66666666666666</ele><time>2026-04-19T10:45:36.967Z</time></trkpt><trkpt lat="44.74295816938731" lon="0.6709293479925785"><ele>141.0</ele><time>2026-04-19T10:45:37.967Z</time></trkpt><trkpt lat="44.74301908564477" lon="0.6712372100762228"><ele>140.33333333333334</ele><time>2026-04-19T10:45:38.967Z</time></trkpt><trkpt lat="44.743070628937026" lon="0.6715308319809877"><ele>139.66666666666669</ele><time>2026-04-19T10:45:39.967Z</time></trkpt><trkpt lat="44.74313072888605" lon="0.6718250793780882"><ele>139.0</ele><time>2026-04-19T10:45:40.967Z</time></trkpt><trkpt lat="44.743183932605554" lon="0.6721059578393234"><ele>139.0</ele><time>2026-04-19T10:45:41.967Z</time></trkpt><trkpt lat="44.74323769458097" lon="0.6723935330956265"><ele>139.0</ele><time>2026-04-19T10:45:42.967Z</time></trkpt><trkpt lat="44.74329693288307" lon="0.6726737993406515"><ele>139.0</ele><time>2026-04-19T10:45:43.967Z</time></trkpt><trkpt lat="44.74335433096539" lon="0.6729624439134244"><ele>140.0</ele><time>2026-04-19T10:45:44.967Z</time></trkpt><trkpt lat="44.74341011735202" lon="0.6732500500385887"><ele>141.0</ele><time>2026-04-19T10:45:45.967Z</time></trkpt><trkpt lat="44.74346532866706" lon="0.6735406527689038"><ele>142.0</ele><time>2026-04-19T10:45:46.967Z</time></trkpt><trkpt lat="44.743522790240554" lon="0.6738309336511725"><ele>143.0</ele><time>2026-04-19T10:45:47.967Z</time></trkpt><trkpt lat="44.74357852505516" lon="0.6741229488738422"><ele>144.0</ele><time>2026-04-19T10:45:48.967Z</time></trkpt><trkpt lat="44.743636353083794" lon="0.6744124948823806"><ele>145.0</ele><time>2026-04-19T10:45:49.967Z</time></trkpt><trkpt lat="44.743693458963286" lon="0.674703812663966"><ele>145.66666666666669</ele><time>2026-04-19T10:45:50.967Z</time></trkpt><trkpt lat="44.74374596548467" lon="0.6749953348035768"><ele>146.33333333333334</ele><time>2026-04-19T10:45:51.967Z</time></trkpt><trkpt lat="44.74380066998646" lon="0.675283221413159"><ele>147.0</ele><time>2026-04-19T10:45:52.967Z</time></trkpt><trkpt lat="44.74385181682787" lon="0.6755751500324305"><ele>147.33333333333334</ele><time>2026-04-19T10:45:53.967Z</time></trkpt><trkpt lat="44.74390849190615" lon="0.6758647989759152"><ele>147.66666666666669</ele><time>2026-04-19T10:45:54.967Z</time></trkpt><trkpt lat="44.74396923816249" lon="0.6761540513414829"><ele>148.0</ele><time>2026-04-19T10:45:55.967Z</time></trkpt><trkpt lat="44.7440229146222" lon="0.6764378004991607"><ele>148.33333333333334</ele><time>2026-04-19T10:45:56.967Z</time></trkpt><trkpt lat="44.744071525074155" lon="0.6767198208427138"><ele>148.66666666666666</ele><time>2026-04-19T10:45:57.967Z</time></trkpt><trkpt lat="44.74412349402221" lon="0.676995720416488"><ele>149.0</ele><time>2026-04-19T10:45:58.967Z</time></trkpt><trkpt lat="44.744175663040885" lon="0.6772758458705752"><ele>149.0</ele><time>2026-04-19T10:45:59.967Z</time></trkpt><trkpt lat="44.74422836342316" lon="0.67755261250946"><ele>149.0</ele><time>2026-04-19T10:46:00.967Z</time></trkpt><trkpt lat="44.74427936615568" lon="0.6778233206067663"><ele>149.0</ele><time>2026-04-19T10:46:01.967Z</time></trkpt><trkpt lat="44.744331853386875" lon="0.6780754763305258"><ele>148.66666666666666</ele><time>2026-04-19T10:46:02.967Z</time></trkpt><trkpt lat="44.74437558955771" lon="0.6783189722381632"><ele>148.33333333333334</ele><time>2026-04-19T10:46:03.967Z</time></trkpt><trkpt lat="44.74441661195847" lon="0.6785484504030337"><ele>148.0</ele><time>2026-04-19T10:46:04.967Z</time></trkpt><trkpt lat="44.74445556314869" lon="0.6787741894012471"><ele>148.0</ele><time>2026-04-19T10:46:05.967Z</time></trkpt><trkpt lat="44.74450914424285" lon="0.6789903471561125"><ele>148.0</ele><time>2026-04-19T10:46:06.967Z</time></trkpt><trkpt lat="44.74458680000118" lon="0.6791843422534588"><ele>148.0</ele><time>2026-04-19T10:46:07.967Z</time></trkpt><trkpt lat="44.744700828239736" lon="0.6793531743351944"><ele>148.0</ele><time>2026-04-19T10:46:08.965Z</time></trkpt><trkpt lat="44.74484027712358" lon="0.6794927700513245"><ele>148.0</ele><time>2026-04-19T10:46:09.965Z</time></trkpt><trkpt lat="44.74499774184783" lon="0.679620349342142"><ele>148.0</ele><time>2026-04-19T10:46:10.965Z</time></trkpt><trkpt lat="44.745160437805595" lon="0.6797333224175958"><ele>147.0</ele><time>2026-04-19T10:46:11.965Z</time></trkpt><trkpt lat="44.745303891106104" lon="0.6798821300829405"><ele>146.0</ele><time>2026-04-19T10:46:12.964Z</time></trkpt><trkpt lat="44.74542596923977" lon="0.6800594304198292"><ele>145.0</ele><time>2026-04-19T10:46:13.964Z</time></trkpt><trkpt lat="44.74552746484115" lon="0.6802758594101499"><ele>145.0</ele><time>2026-04-19T10:46:14.964Z</time></trkpt><trkpt lat="44.74561394523676" lon="0.6805065720226443"><ele>145.0</ele><time>2026-04-19T10:46:15.963Z</time></trkpt><trkpt lat="44.74568918147876" lon="0.6807561831004546"><ele>145.0</ele><time>2026-04-19T10:46:16.963Z</time></trkpt><trkpt lat="44.745769227901306" lon="0.6810184072853639"><ele>145.33333333333334</ele><time>2026-04-19T10:46:17.964Z</time></trkpt><trkpt lat="44.745852103453196" lon="0.6812911981960568"><ele>145.66666666666666</ele><time>2026-04-19T10:46:18.964Z</time></trkpt><trkpt lat="44.74594851875945" lon="0.6815675307240092"><ele>146.0</ele><time>2026-04-19T10:46:19.964Z</time></trkpt><trkpt lat="44.746045431325214" lon="0.6818526393281834"><ele>144.5</ele><time>2026-04-19T10:46:20.964Z</time></trkpt><trkpt lat="44.74613337399689" lon="0.6821520167329301"><ele>143.0</ele><time>2026-04-19T10:46:21.964Z</time></trkpt><trkpt lat="44.74622350152654" lon="0.6824435985584686"><ele>143.0</ele><time>2026-04-19T10:46:22.964Z</time></trkpt><trkpt lat="44.746326458907774" lon="0.6827448920053001"><ele>143.0</ele><time>2026-04-19T10:46:23.964Z</time></trkpt><trkpt lat="44.74642451002928" lon="0.6830406162187348"><ele>142.5</ele><time>2026-04-19T10:46:24.964Z</time></trkpt><trkpt lat="44.746520539703795" lon="0.6833347990322842"><ele>142.0</ele><time>2026-04-19T10:46:25.964Z</time></trkpt><trkpt lat="44.74661886292763" lon="0.6836236997156121"><ele>142.0</ele><time>2026-04-19T10:46:26.964Z</time></trkpt><trkpt lat="44.7467149085644" lon="0.6839137993059627"><ele>142.0</ele><time>2026-04-19T10:46:27.964Z</time></trkpt><trkpt lat="44.74680641043696" lon="0.6842071553562544"><ele>140.5</ele><time>2026-04-19T10:46:28.964Z</time></trkpt><trkpt lat="44.74690107965781" lon="0.6844919367408344"><ele>139.0</ele><time>2026-04-19T10:46:29.964Z</time></trkpt><trkpt lat="44.7469985520033" lon="0.6847798942498204"><ele>139.0</ele><time>2026-04-19T10:46:30.964Z</time></trkpt><trkpt lat="44.74709608823675" lon="0.6850650022668381"><ele>139.0</ele><time>2026-04-19T10:46:31.964Z</time></trkpt><trkpt lat="44.747192983257726" lon="0.6853488111641683"><ele>139.0</ele><time>2026-04-19T10:46:32.964Z</time></trkpt><trkpt lat="44.747282756701445" lon="0.6856202428769655"><ele>139.33333333333334</ele><time>2026-04-19T10:46:33.964Z</time></trkpt><trkpt lat="44.74736786833008" lon="0.6858931415785539"><ele>139.66666666666666</ele><time>2026-04-19T10:46:34.964Z</time></trkpt><trkpt lat="44.74745183155437" lon="0.6861596341007747"><ele>140.0</ele><time>2026-04-19T10:46:35.964Z</time></trkpt><trkpt lat="44.74752969736286" lon="0.6864169331562018"><ele>139.33333333333331</ele><time>2026-04-19T10:46:36.964Z</time></trkpt><trkpt lat="44.74761062547198" lon="0.6866508952458855"><ele>138.66666666666666</ele><time>2026-04-19T10:46:37.964Z</time></trkpt><trkpt lat="44.747702705536355" lon="0.6868727273439535"><ele>138.0</ele><time>2026-04-19T10:46:38.964Z</time></trkpt><trkpt lat="44.74780363566636" lon="0.6870910210519863"><ele>137.33333333333334</ele><time>2026-04-19T10:46:39.964Z</time></trkpt><trkpt lat="44.74794025708637" lon="0.6872946372015895"><ele>136.66666666666669</ele><time>2026-04-19T10:46:40.964Z</time></trkpt><trkpt lat="44.74808537155218" lon="0.6874630219591052"><ele>136.0</ele><time>2026-04-19T10:46:41.964Z</time></trkpt><trkpt lat="44.74825391221911" lon="0.6876212579410799"><ele>136.33333333333334</ele><time>2026-04-19T10:46:42.964Z</time></trkpt><trkpt lat="44.748429078620795" lon="0.6877808539164469"><ele>136.66666666666666</ele><time>2026-04-19T10:46:43.964Z</time></trkpt><trkpt lat="44.74860439562605" lon="0.6879325601868621"><ele>137.0</ele><time>2026-04-19T10:46:44.964Z</time></trkpt><trkpt lat="44.74877317292068" lon="0.6880669590947627"><ele>136.0</ele><time>2026-04-19T10:46:45.964Z</time></trkpt><trkpt lat="44.74895049883168" lon="0.6882130688609899"><ele>135.0</ele><time>2026-04-19T10:46:46.964Z</time></trkpt><trkpt lat="44.74911779834718" lon="0.6883354429933143"><ele>134.0</ele><time>2026-04-19T10:46:47.964Z</time></trkpt><trkpt lat="44.74929107950787" lon="0.6884780025927376"><ele>134.0</ele><time>2026-04-19T10:46:48.964Z</time></trkpt><trkpt lat="44.74946526754953" lon="0.6886103775420592"><ele>134.0</ele><time>2026-04-19T10:46:49.964Z</time></trkpt><trkpt lat="44.749631137500394" lon="0.6887431368963768"><ele>134.0</ele><time>2026-04-19T10:46:50.964Z</time></trkpt><trkpt lat="44.74979443053228" lon="0.688882352903867"><ele>134.0</ele><time>2026-04-19T10:46:51.964Z</time></trkpt><trkpt lat="44.749946373590085" lon="0.6890247437977645"><ele>134.0</ele><time>2026-04-19T10:46:52.964Z</time></trkpt><trkpt lat="44.750111595703366" lon="0.6891682412444308"><ele>134.0</ele><time>2026-04-19T10:46:53.964Z</time></trkpt><trkpt lat="44.75027247445831" lon="0.6893150223862604"><ele>133.0</ele><time>2026-04-19T10:46:54.964Z</time></trkpt><trkpt lat="44.750424097966295" lon="0.6894725256739129"><ele>132.0</ele><time>2026-04-19T10:46:55.964Z</time></trkpt><trkpt lat="44.750575755214285" lon="0.6896522716373824"><ele>131.0</ele><time>2026-04-19T10:46:56.964Z</time></trkpt><trkpt lat="44.75071601653307" lon="0.689844075862011"><ele>131.0</ele><time>2026-04-19T10:46:57.964Z</time></trkpt><trkpt lat="44.75084987068434" lon="0.690029255512505"><ele>131.0</ele><time>2026-04-19T10:46:58.964Z</time></trkpt><trkpt lat="44.75097585224321" lon="0.6902166868450051"><ele>131.0</ele><time>2026-04-19T10:46:59.964Z</time></trkpt><trkpt lat="44.75109229247075" lon="0.6904079601880502"><ele>130.33333333333331</ele><time>2026-04-19T10:47:00.964Z</time></trkpt><trkpt lat="44.75117797587722" lon="0.6906484730902867"><ele>129.66666666666666</ele><time>2026-04-19T10:47:01.964Z</time></trkpt><trkpt lat="44.75125641915653" lon="0.6909031506732539"><ele>129.0</ele><time>2026-04-19T10:47:02.964Z</time></trkpt><trkpt lat="44.75132057387327" lon="0.6911742005790753"><ele>128.66666666666666</ele><time>2026-04-19T10:47:03.964Z</time></trkpt><trkpt lat="44.75135975490018" lon="0.6914564658678516"><ele>128.33333333333331</ele><time>2026-04-19T10:47:04.964Z</time></trkpt><trkpt lat="44.75138967000413" lon="0.691744431193203"><ele>128.0</ele><time>2026-04-19T10:47:05.964Z</time></trkpt><trkpt lat="44.75139958663216" lon="0.6920411138415958"><ele>128.0</ele><time>2026-04-19T10:47:06.964Z</time></trkpt><trkpt lat="44.75140213923021" lon="0.6923344197088313"><ele>128.0</ele><time>2026-04-19T10:47:07.964Z</time></trkpt><trkpt lat="44.75140429633995" lon="0.6926186751445993"><ele>128.0</ele><time>2026-04-19T10:47:08.964Z</time></trkpt><trkpt lat="44.75142327716394" lon="0.6929047944743709"><ele>128.0</ele><time>2026-04-19T10:47:09.964Z</time></trkpt><trkpt lat="44.75146719752226" lon="0.6931771565168248"><ele>128.0</ele><time>2026-04-19T10:47:10.964Z</time></trkpt><trkpt lat="44.75152791032499" lon="0.693447586989417"><ele>128.0</ele><time>2026-04-19T10:47:11.964Z</time></trkpt><trkpt lat="44.75161776565134" lon="0.6937061727113214"><ele>127.66666666666666</ele><time>2026-04-19T10:47:12.964Z</time></trkpt><trkpt lat="44.75172996543562" lon="0.6939544850959561"><ele>127.33333333333334</ele><time>2026-04-19T10:47:13.964Z</time></trkpt><trkpt lat="44.75187929733917" lon="0.6941787683255929"><ele>127.0</ele><time>2026-04-19T10:47:14.964Z</time></trkpt><trkpt lat="44.7520399250833" lon="0.6943823138988341"><ele>127.0</ele><time>2026-04-19T10:47:15.964Z</time></trkpt><trkpt lat="44.75218915826427" lon="0.6945984662642855"><ele>127.0</ele><time>2026-04-19T10:47:16.964Z</time></trkpt><trkpt lat="44.752341420526406" lon="0.694807041996769"><ele>127.0</ele><time>2026-04-19T10:47:17.964Z</time></trkpt><trkpt lat="44.752482939233836" lon="0.69502338219672"><ele>127.0</ele><time>2026-04-19T10:47:18.964Z</time></trkpt><trkpt lat="44.75262042172574" lon="0.6952350534130066"><ele>127.0</ele><time>2026-04-19T10:47:19.964Z</time></trkpt><trkpt lat="44.75274672360361" lon="0.6954322301035325"><ele>127.0</ele><time>2026-04-19T10:47:20.964Z</time></trkpt><trkpt lat="44.752861640948694" lon="0.6956439096349119"><ele>127.0</ele><time>2026-04-19T10:47:21.964Z</time></trkpt><trkpt lat="44.752942467454595" lon="0.695866953281725"><ele>127.0</ele><time>2026-04-19T10:47:22.964Z</time></trkpt><trkpt lat="44.75301367098189" lon="0.696088820813831"><ele>127.0</ele><time>2026-04-19T10:47:23.964Z</time></trkpt><trkpt lat="44.75306956278803" lon="0.696320253685647"><ele>126.33333333333334</ele><time>2026-04-19T10:47:24.964Z</time></trkpt><trkpt lat="44.75309518170441" lon="0.6965593984424239"><ele>125.66666666666666</ele><time>2026-04-19T10:47:25.964Z</time></trkpt><trkpt lat="44.75307860497138" lon="0.696801992478465"><ele>125.0</ele><time>2026-04-19T10:47:26.964Z</time></trkpt><trkpt lat="44.753049780607405" lon="0.6970585074773185"><ele>124.66666666666666</ele><time>2026-04-19T10:47:27.964Z</time></trkpt><trkpt lat="44.753011904060614" lon="0.6973089656276061"><ele>124.33333333333334</ele><time>2026-04-19T10:47:28.964Z</time></trkpt><trkpt lat="44.75298771386472" lon="0.6975771852793569"><ele>124.0</ele><time>2026-04-19T10:47:29.964Z</time></trkpt><trkpt lat="44.75294428206123" lon="0.6978535455270464"><ele>123.66666666666667</ele><time>2026-04-19T10:47:30.964Z</time></trkpt><trkpt lat="44.75288613877521" lon="0.6981430689589124"><ele>123.33333333333334</ele><time>2026-04-19T10:47:31.964Z</time></trkpt><trkpt lat="44.752852859734844" lon="0.6984406412845438"><ele>123.0</ele><time>2026-04-19T10:47:32.964Z</time></trkpt><trkpt lat="44.75281213683033" lon="0.6987100098084144"><ele>123.33333333333334</ele><time>2026-04-19T10:47:33.964Z</time></trkpt><trkpt lat="44.75277616795258" lon="0.6989618008942069"><ele>123.66666666666667</ele><time>2026-04-19T10:47:34.964Z</time></trkpt><trkpt lat="44.75275460085172" lon="0.6992104358488125"><ele>124.0</ele><time>2026-04-19T10:47:35.964Z</time></trkpt><trkpt lat="44.75275985762692" lon="0.6994447112530723"><ele>124.0</ele><time>2026-04-19T10:47:36.964Z</time></trkpt><trkpt lat="44.75278493194855" lon="0.6996766503828487"><ele>124.0</ele><time>2026-04-19T10:47:37.964Z</time></trkpt><trkpt lat="44.75283784377482" lon="0.6999159272594258"><ele>124.0</ele><time>2026-04-19T10:47:38.964Z</time></trkpt><trkpt lat="44.75291213494098" lon="0.700163060608013"><ele>123.33333333333334</ele><time>2026-04-19T10:47:39.964Z</time></trkpt><trkpt lat="44.752971457901154" lon="0.7004128885631102"><ele>122.66666666666666</ele><time>2026-04-19T10:47:40.964Z</time></trkpt><trkpt lat="44.75302829288354" lon="0.7006601671648907"><ele>122.0</ele><time>2026-04-19T10:47:41.964Z</time></trkpt><trkpt lat="44.753085231713655" lon="0.700923121937545"><ele>122.33333333333333</ele><time>2026-04-19T10:47:42.964Z</time></trkpt><trkpt lat="44.75314120202111" lon="0.7011696844878376"><ele>122.66666666666666</ele><time>2026-04-19T10:47:43.964Z</time></trkpt><trkpt lat="44.7531999994996" lon="0.7014231765970342"><ele>123.0</ele><time>2026-04-19T10:47:44.964Z</time></trkpt><trkpt lat="44.75325725262037" lon="0.7016740616602665"><ele>124.66666666666666</ele><time>2026-04-19T10:47:45.964Z</time></trkpt><trkpt lat="44.753314771079765" lon="0.7019244628336363"><ele>126.33333333333333</ele><time>2026-04-19T10:47:46.964Z</time></trkpt><trkpt lat="44.753370772961134" lon="0.7021760083000061"><ele>128.0</ele><time>2026-04-19T10:47:47.964Z</time></trkpt><trkpt lat="44.75342578745062" lon="0.7024233064679126"><ele>128.0</ele><time>2026-04-19T10:47:48.964Z</time></trkpt><trkpt lat="44.753483642558734" lon="0.7026696124174441"><ele>128.0</ele><time>2026-04-19T10:47:49.964Z</time></trkpt><trkpt lat="44.75353970298219" lon="0.7029136368899072"><ele>128.0</ele><time>2026-04-19T10:47:50.964Z</time></trkpt><trkpt lat="44.753606028774506" lon="0.7031535896942489"><ele>127.33333333333333</ele><time>2026-04-19T10:47:51.964Z</time></trkpt><trkpt lat="44.75366240514809" lon="0.7034097390595703"><ele>126.66666666666666</ele><time>2026-04-19T10:47:52.964Z</time></trkpt><trkpt lat="44.75371470411736" lon="0.7036812933176101"><ele>126.0</ele><time>2026-04-19T10:47:53.964Z</time></trkpt><trkpt lat="44.75377470350036" lon="0.7039309298561227"><ele>126.0</ele><time>2026-04-19T10:47:54.964Z</time></trkpt><trkpt lat="44.753835733403605" lon="0.7041718711712475"><ele>126.0</ele><time>2026-04-19T10:47:55.964Z</time></trkpt><trkpt lat="44.75389722963541" lon="0.704423826260213"><ele>126.0</ele><time>2026-04-19T10:47:56.964Z</time></trkpt><trkpt lat="44.75395809480568" lon="0.7046828674817556"><ele>126.0</ele><time>2026-04-19T10:47:57.964Z</time></trkpt><trkpt lat="44.754018455758036" lon="0.7049495291259047"><ele>126.0</ele><time>2026-04-19T10:47:58.964Z</time></trkpt><trkpt lat="44.75407568773924" lon="0.7052083851299285"><ele>126.0</ele><time>2026-04-19T10:47:59.964Z</time></trkpt><trkpt lat="44.75413707185734" lon="0.70546761011334"><ele>126.33333333333334</ele><time>2026-04-19T10:48:00.964Z</time></trkpt><trkpt lat="44.754195934813076" lon="0.705725543404994"><ele>126.66666666666667</ele><time>2026-04-19T10:48:01.964Z</time></trkpt><trkpt lat="44.754257127346584" lon="0.7059801815471998"><ele>127.0</ele><time>2026-04-19T10:48:02.964Z</time></trkpt><trkpt lat="44.75431504359535" lon="0.7062306383858653"><ele>128.0</ele><time>2026-04-19T10:48:03.964Z</time></trkpt><trkpt lat="44.7543743760766" lon="0.7064837576309867"><ele>129.0</ele><time>2026-04-19T10:48:04.964Z</time></trkpt><trkpt lat="44.754432456150205" lon="0.7067328258876396"><ele>130.0</ele><time>2026-04-19T10:48:05.964Z</time></trkpt><trkpt lat="44.754493474585416" lon="0.7069814098072266"><ele>130.66666666666669</ele><time>2026-04-19T10:48:06.964Z</time></trkpt><trkpt lat="44.754556040671105" lon="0.7072372009812992"><ele>131.33333333333334</ele><time>2026-04-19T10:48:07.964Z</time></trkpt><trkpt lat="44.754618060867394" lon="0.7075085036403824"><ele>132.0</ele><time>2026-04-19T10:48:08.964Z</time></trkpt><trkpt lat="44.754678293201295" lon="0.7077804300339545"><ele>133.0</ele><time>2026-04-19T10:48:09.964Z</time></trkpt><trkpt lat="44.75474280052727" lon="0.7080506200006427"><ele>134.0</ele><time>2026-04-19T10:48:10.964Z</time></trkpt><trkpt lat="44.75480762449719" lon="0.7083234326603142"><ele>135.0</ele><time>2026-04-19T10:48:11.964Z</time></trkpt><trkpt lat="44.75487618398244" lon="0.7086303405830953"><ele>135.33333333333334</ele><time>2026-04-19T10:48:12.964Z</time></trkpt><trkpt lat="44.75493877314123" lon="0.7089361572367213"><ele>135.66666666666669</ele><time>2026-04-19T10:48:13.964Z</time></trkpt><trkpt lat="44.75500323844657" lon="0.7092283354415164"><ele>136.0</ele><time>2026-04-19T10:48:14.963Z</time></trkpt><trkpt lat="44.755067265964364" lon="0.7095183258121465"><ele>136.0</ele><time>2026-04-19T10:48:15.963Z</time></trkpt><trkpt lat="44.7551334393301" lon="0.7097987773630223"><ele>136.0</ele><time>2026-04-19T10:48:16.963Z</time></trkpt><trkpt lat="44.75519821567165" lon="0.7100752756047619"><ele>136.0</ele><time>2026-04-19T10:48:17.963Z</time></trkpt><trkpt lat="44.755260183412766" lon="0.7103607312200246"><ele>136.0</ele><time>2026-04-19T10:48:18.963Z</time></trkpt><trkpt lat="44.75532472199662" lon="0.7106388386162052"><ele>136.0</ele><time>2026-04-19T10:48:19.963Z</time></trkpt><trkpt lat="44.755387750701026" lon="0.7109294793747779"><ele>136.0</ele><time>2026-04-19T10:48:20.963Z</time></trkpt><trkpt lat="44.75545125220113" lon="0.7112095762492213"><ele>136.33333333333334</ele><time>2026-04-19T10:48:21.963Z</time></trkpt><trkpt lat="44.75552084725293" lon="0.7114844822597185"><ele>136.66666666666666</ele><time>2026-04-19T10:48:22.963Z</time></trkpt><trkpt lat="44.7555871303892" lon="0.7117639249116664"><ele>137.0</ele><time>2026-04-19T10:48:23.963Z</time></trkpt><trkpt lat="44.75565297265903" lon="0.7120398849866832"><ele>137.0</ele><time>2026-04-19T10:48:24.963Z</time></trkpt><trkpt lat="44.75572119390684" lon="0.7123214161675153"><ele>137.0</ele><time>2026-04-19T10:48:25.963Z</time></trkpt><trkpt lat="44.755789764749515" lon="0.7125975048182283"><ele>137.0</ele><time>2026-04-19T10:48:26.963Z</time></trkpt><trkpt lat="44.75585065564681" lon="0.7128864121847356"><ele>137.33333333333331</ele><time>2026-04-19T10:48:27.963Z</time></trkpt><trkpt lat="44.75591792169334" lon="0.7131805344635322"><ele>137.66666666666666</ele><time>2026-04-19T10:48:28.963Z</time></trkpt><trkpt lat="44.75598522747987" lon="0.7134754629815835"><ele>138.0</ele><time>2026-04-19T10:48:29.963Z</time></trkpt><trkpt lat="44.756050480388986" lon="0.7137756964935744"><ele>138.33333333333334</ele><time>2026-04-19T10:48:30.963Z</time></trkpt><trkpt lat="44.756119047698455" lon="0.7140640785520952"><ele>138.66666666666669</ele><time>2026-04-19T10:48:31.963Z</time></trkpt><trkpt lat="44.75618671226067" lon="0.714349190263186"><ele>139.0</ele><time>2026-04-19T10:48:32.963Z</time></trkpt><trkpt lat="44.75625286222898" lon="0.7146353404863726"><ele>139.0</ele><time>2026-04-19T10:48:33.963Z</time></trkpt><trkpt lat="44.756316753843166" lon="0.7149240480385778"><ele>139.0</ele><time>2026-04-19T10:48:34.963Z</time></trkpt><trkpt lat="44.75638541096917" lon="0.7152112796756416"><ele>139.0</ele><time>2026-04-19T10:48:35.963Z</time></trkpt><trkpt lat="44.75644822782" lon="0.7154944556748055"><ele>138.66666666666669</ele><time>2026-04-19T10:48:36.963Z</time></trkpt><trkpt lat="44.75651180471334" lon="0.7157813069605911"><ele>138.33333333333334</ele><time>2026-04-19T10:48:37.963Z</time></trkpt><trkpt lat="44.75657529837789" lon="0.7160594331151708"><ele>138.0</ele><time>2026-04-19T10:48:38.963Z</time></trkpt><trkpt lat="44.75664341508299" lon="0.7163416261224443"><ele>139.33333333333334</ele><time>2026-04-19T10:48:39.963Z</time></trkpt><trkpt lat="44.756710547679766" lon="0.7166251045689642"><ele>140.66666666666669</ele><time>2026-04-19T10:48:40.963Z</time></trkpt><trkpt lat="44.75678208903993" lon="0.7168983300631826"><ele>142.0</ele><time>2026-04-19T10:48:41.963Z</time></trkpt><trkpt lat="44.756846232551126" lon="0.7171854297148151"><ele>142.66666666666669</ele><time>2026-04-19T10:48:42.963Z</time></trkpt><trkpt lat="44.756912999631425" lon="0.717476699194543"><ele>143.33333333333334</ele><time>2026-04-19T10:48:43.963Z</time></trkpt><trkpt lat="44.756979285359044" lon="0.7177761072743576"><ele>144.0</ele><time>2026-04-19T10:48:44.963Z</time></trkpt><trkpt lat="44.75704203113099" lon="0.7180656311230816"><ele>144.66666666666666</ele><time>2026-04-19T10:48:45.963Z</time></trkpt><trkpt lat="44.75710985898735" lon="0.7183539865822424"><ele>145.33333333333331</ele><time>2026-04-19T10:48:46.963Z</time></trkpt><trkpt lat="44.75717912371146" lon="0.718644053272225"><ele>146.0</ele><time>2026-04-19T10:48:47.963Z</time></trkpt><trkpt lat="44.75724220340555" lon="0.7189378297259036"><ele>146.0</ele><time>2026-04-19T10:48:48.963Z</time></trkpt><trkpt lat="44.757310342926516" lon="0.7192265905209596"><ele>146.0</ele><time>2026-04-19T10:48:49.963Z</time></trkpt><trkpt lat="44.75737642425866" lon="0.7195231510906079"><ele>146.0</ele><time>2026-04-19T10:48:50.963Z</time></trkpt><trkpt lat="44.75743961703228" lon="0.719808243460197"><ele>146.0</ele><time>2026-04-19T10:48:51.963Z</time></trkpt><trkpt lat="44.757507195358784" lon="0.7201001119709972"><ele>146.0</ele><time>2026-04-19T10:48:52.963Z</time></trkpt><trkpt lat="44.75757140004223" lon="0.7203688400389834"><ele>146.0</ele><time>2026-04-19T10:48:53.963Z</time></trkpt><trkpt lat="44.75763280663507" lon="0.7206363045191485"><ele>146.66666666666666</ele><time>2026-04-19T10:48:54.963Z</time></trkpt><trkpt lat="44.75769074103606" lon="0.7208895228003934"><ele>147.33333333333334</ele><time>2026-04-19T10:48:55.963Z</time></trkpt><trkpt lat="44.75774731480546" lon="0.7211314184352058"><ele>148.0</ele><time>2026-04-19T10:48:56.963Z</time></trkpt><trkpt lat="44.757793541627485" lon="0.721357485560199"><ele>148.0</ele><time>2026-04-19T10:48:57.963Z</time></trkpt><trkpt lat="44.757844777108076" lon="0.7215734296264006"><ele>148.0</ele><time>2026-04-19T10:48:58.963Z</time></trkpt><trkpt lat="44.757891228274275" lon="0.7217772623683939"><ele>148.0</ele><time>2026-04-19T10:48:59.964Z</time></trkpt><trkpt lat="44.75793651903272" lon="0.7219781922623147"><ele>148.25</ele><time>2026-04-19T10:49:00.964Z</time></trkpt><trkpt lat="44.75797820011333" lon="0.7221663644337785"><ele>148.5</ele><time>2026-04-19T10:49:01.964Z</time></trkpt><trkpt lat="44.758022494151014" lon="0.7223390535416926"><ele>148.75</ele><time>2026-04-19T10:49:02.964Z</time></trkpt><trkpt lat="44.75806526431444" lon="0.722515281845513"><ele>149.0</ele><time>2026-04-19T10:49:03.964Z</time></trkpt><trkpt lat="44.75811008228368" lon="0.7226917592838532"><ele>149.25</ele><time>2026-04-19T10:49:04.964Z</time></trkpt><trkpt lat="44.75815332446018" lon="0.7228674504529073"><ele>149.5</ele><time>2026-04-19T10:49:05.964Z</time></trkpt><trkpt lat="44.758198204897575" lon="0.7230479609087339"><ele>149.75</ele><time>2026-04-19T10:49:06.964Z</time></trkpt><trkpt lat="44.758240921098576" lon="0.7232194818167995"><ele>150.0</ele><time>2026-04-19T10:49:07.964Z</time></trkpt><trkpt lat="44.758278710448714" lon="0.7233830454815166"><ele>150.0</ele><time>2026-04-19T10:49:08.964Z</time></trkpt><trkpt lat="44.758317368309015" lon="0.7235442134381982"><ele>150.0</ele><time>2026-04-19T10:49:09.964Z</time></trkpt><trkpt lat="44.75835481499336" lon="0.7236942857132852"><ele>150.0</ele><time>2026-04-19T10:49:10.964Z</time></trkpt><trkpt lat="44.75838599788104" lon="0.7238198365904837"><ele>150.0</ele><time>2026-04-19T10:49:11.964Z</time></trkpt><trkpt lat="44.758415245057634" lon="0.723955512245931"><ele>150.0</ele><time>2026-04-19T10:49:12.964Z</time></trkpt><trkpt lat="44.75843939362869" lon="0.7240776632692232"><ele>150.2</ele><time>2026-04-19T10:49:13.964Z</time></trkpt><trkpt lat="44.75846819100659" lon="0.7241930014394826"><ele>150.4</ele><time>2026-04-19T10:49:14.964Z</time></trkpt><trkpt lat="44.758494046287844" lon="0.7243148417561303"><ele>150.6</ele><time>2026-04-19T10:49:15.964Z</time></trkpt><trkpt lat="44.75852527932486" lon="0.7244529510118866"><ele>150.8</ele><time>2026-04-19T10:49:16.964Z</time></trkpt><trkpt lat="44.75855610981637" lon="0.7245923619813706"><ele>151.0</ele><time>2026-04-19T10:49:17.964Z</time></trkpt><trkpt lat="44.758589100739485" lon="0.7247406008834101"><ele>150.0</ele><time>2026-04-19T10:49:18.964Z</time></trkpt><trkpt lat="44.75861950030699" lon="0.7248928621520205"><ele>149.0</ele><time>2026-04-19T10:49:19.964Z</time></trkpt><trkpt lat="44.758648101810444" lon="0.7250657874692834"><ele>148.0</ele><time>2026-04-19T10:49:20.964Z</time></trkpt><trkpt lat="44.7586701058729" lon="0.7252656764135361"><ele>147.0</ele><time>2026-04-19T10:49:21.964Z</time></trkpt><trkpt lat="44.75867572887261" lon="0.7254929412887383"><ele>146.66666666666666</ele><time>2026-04-19T10:49:22.964Z</time></trkpt><trkpt lat="44.75866956414886" lon="0.7257360891609947"><ele>146.33333333333331</ele><time>2026-04-19T10:49:23.964Z</time></trkpt><trkpt lat="44.758641713572096" lon="0.7259999554270906"><ele>146.0</ele><time>2026-04-19T10:49:24.964Z</time></trkpt><trkpt lat="44.75860086268234" lon="0.7262624325710791"><ele>146.0</ele><time>2026-04-19T10:49:25.964Z</time></trkpt><trkpt lat="44.75855163121333" lon="0.7265020733483387"><ele>146.0</ele><time>2026-04-19T10:49:26.964Z</time></trkpt><trkpt lat="44.758480438667085" lon="0.7267498666005481"><ele>146.0</ele><time>2026-04-19T10:49:27.964Z</time></trkpt><trkpt lat="44.75840605250595" lon="0.7270041128790689"><ele>146.0</ele><time>2026-04-19T10:49:28.964Z</time></trkpt><trkpt lat="44.75834246544796" lon="0.727246805082177"><ele>146.0</ele><time>2026-04-19T10:49:29.964Z</time></trkpt><trkpt lat="44.75828559830001" lon="0.7274871172681568"><ele>146.0</ele><time>2026-04-19T10:49:30.964Z</time></trkpt><trkpt lat="44.75821979159861" lon="0.7277152908797339"><ele>145.33333333333331</ele><time>2026-04-19T10:49:31.964Z</time></trkpt><trkpt lat="44.75816524346588" lon="0.7279487316642795"><ele>144.66666666666666</ele><time>2026-04-19T10:49:32.964Z</time></trkpt><trkpt lat="44.75810662399163" lon="0.7281652348418284"><ele>144.0</ele><time>2026-04-19T10:49:33.964Z</time></trkpt><trkpt lat="44.75807293898835" lon="0.7283847167284465"><ele>143.5</ele><time>2026-04-19T10:49:34.964Z</time></trkpt><trkpt lat="44.758059615669254" lon="0.7286073983074439"><ele>143.0</ele><time>2026-04-19T10:49:35.965Z</time></trkpt><trkpt lat="44.75805055463784" lon="0.7288088268377674"><ele>142.5</ele><time>2026-04-19T10:49:36.965Z</time></trkpt><trkpt lat="44.758035659980614" lon="0.7289902177522319"><ele>142.0</ele><time>2026-04-19T10:49:37.965Z</time></trkpt><trkpt lat="44.757996432225205" lon="0.7291753040623287"><ele>142.0</ele><time>2026-04-19T10:49:38.965Z</time></trkpt><trkpt lat="44.75792881138507" lon="0.7293522416975671"><ele>142.0</ele><time>2026-04-19T10:49:39.965Z</time></trkpt><trkpt lat="44.7578310446243" lon="0.7295009918146509"><ele>142.0</ele><time>2026-04-19T10:49:40.965Z</time></trkpt><trkpt lat="44.75773175954752" lon="0.7296310923867251"><ele>142.0</ele><time>2026-04-19T10:49:41.965Z</time></trkpt><trkpt lat="44.75760606836552" lon="0.7297209379213583"><ele>139.6</ele><time>2026-04-19T10:49:42.965Z</time></trkpt><trkpt lat="44.75750960465407" lon="0.7298105094919278"><ele>137.2</ele><time>2026-04-19T10:49:43.965Z</time></trkpt><trkpt lat="44.75743136130702" lon="0.7299238973287524"><ele>134.8</ele><time>2026-04-19T10:49:44.965Z</time></trkpt><trkpt lat="44.75739784327815" lon="0.730060456691301"><ele>132.4</ele><time>2026-04-19T10:49:45.965Z</time></trkpt><trkpt lat="44.757396152038524" lon="0.7302098435611248"><ele>130.0</ele><time>2026-04-19T10:49:46.965Z</time></trkpt><trkpt lat="44.75743856632303" lon="0.7303536838183323"><ele>131.25</ele><time>2026-04-19T10:49:47.965Z</time></trkpt><trkpt lat="44.757516419784075" lon="0.7304699516997664"><ele>132.5</ele><time>2026-04-19T10:49:48.965Z</time></trkpt><trkpt lat="44.75760847887836" lon="0.7305810991721853"><ele>133.75</ele><time>2026-04-19T10:49:49.965Z</time></trkpt><trkpt lat="44.7577206071134" lon="0.7306809806298569"><ele>135.0</ele><time>2026-04-19T10:49:50.965Z</time></trkpt><trkpt lat="44.75784998898653" lon="0.730763161765621"><ele>135.0</ele><time>2026-04-19T10:49:51.965Z</time></trkpt><trkpt lat="44.75798945207974" lon="0.7308511757876381"><ele>135.0</ele><time>2026-04-19T10:49:52.965Z</time></trkpt><trkpt lat="44.758118634990815" lon="0.7309720279595122"><ele>135.0</ele><time>2026-04-19T10:49:53.965Z</time></trkpt><trkpt lat="44.75824946605851" lon="0.7311105166120704"><ele>131.66666666666666</ele><time>2026-04-19T10:49:54.965Z</time></trkpt><trkpt lat="44.75837962317348" lon="0.7312399634724925"><ele>128.33333333333331</ele><time>2026-04-19T10:49:55.965Z</time></trkpt><trkpt lat="44.758525223960596" lon="0.7313498961128755"><ele>125.0</ele><time>2026-04-19T10:49:56.965Z</time></trkpt><trkpt lat="44.758688914270486" lon="0.7314384748781881"><ele>125.0</ele><time>2026-04-19T10:49:57.965Z</time></trkpt><trkpt lat="44.75885192696635" lon="0.7315289680160763"><ele>125.0</ele><time>2026-04-19T10:49:58.965Z</time></trkpt><trkpt lat="44.758996735029946" lon="0.7316106832651706"><ele>125.0</ele><time>2026-04-19T10:49:59.965Z</time></trkpt><trkpt lat="44.759127510163125" lon="0.7316857544942662"><ele>125.0</ele><time>2026-04-19T10:50:00.965Z</time></trkpt><trkpt lat="44.759252296119485" lon="0.7317557865454666"><ele>125.0</ele><time>2026-04-19T10:50:01.965Z</time></trkpt><trkpt lat="44.75935352807068" lon="0.731849424311472"><ele>125.0</ele><time>2026-04-19T10:50:02.965Z</time></trkpt><trkpt lat="44.75944431375423" lon="0.7319745126021786"><ele>125.0</ele><time>2026-04-19T10:50:03.965Z</time></trkpt><trkpt lat="44.75951970504583" lon="0.7321208942301064"><ele>122.75</ele><time>2026-04-19T10:50:04.965Z</time></trkpt><trkpt lat="44.75957798703022" lon="0.7322935880669909"><ele>120.5</ele><time>2026-04-19T10:50:05.965Z</time></trkpt><trkpt lat="44.759622664561" lon="0.7324859140327484"><ele>118.25</ele><time>2026-04-19T10:50:06.965Z</time></trkpt><trkpt lat="44.759657819798164" lon="0.7326986378153976"><ele>116.0</ele><time>2026-04-19T10:50:07.965Z</time></trkpt><trkpt lat="44.75971704770194" lon="0.7329036063736635"><ele>114.66666666666666</ele><time>2026-04-19T10:50:08.965Z</time></trkpt><trkpt lat="44.75976174740591" lon="0.7331254683514227"><ele>113.33333333333334</ele><time>2026-04-19T10:50:09.965Z</time></trkpt><trkpt lat="44.759807171185265" lon="0.7333348586779417"><ele>112.0</ele><time>2026-04-19T10:50:10.965Z</time></trkpt><trkpt lat="44.759849477242575" lon="0.7335357889774232"><ele>113.75</ele><time>2026-04-19T10:50:11.965Z</time></trkpt><trkpt lat="44.75989281314284" lon="0.7337116522327205"><ele>115.5</ele><time>2026-04-19T10:50:12.965Z</time></trkpt><trkpt lat="44.759950772780435" lon="0.7338703998835601"><ele>117.25</ele><time>2026-04-19T10:50:13.965Z</time></trkpt><trkpt lat="44.76004036068363" lon="0.73401072100238"><ele>119.0</ele><time>2026-04-19T10:50:14.965Z</time></trkpt><trkpt lat="44.760154321070196" lon="0.7341481245606408"><ele>117.0</ele><time>2026-04-19T10:50:15.965Z</time></trkpt><trkpt lat="44.76028273893827" lon="0.7342800876717887"><ele>115.0</ele><time>2026-04-19T10:50:16.965Z</time></trkpt><trkpt lat="44.76041589644846" lon="0.7344272275695848"><ele>113.0</ele><time>2026-04-19T10:50:17.965Z</time></trkpt><trkpt lat="44.76053187517072" lon="0.7345761014417971"><ele>113.0</ele><time>2026-04-19T10:50:18.965Z</time></trkpt><trkpt lat="44.76064694330195" lon="0.7347305273477892"><ele>113.0</ele><time>2026-04-19T10:50:19.965Z</time></trkpt><trkpt lat="44.76075759302168" lon="0.7348882417436364"><ele>113.0</ele><time>2026-04-19T10:50:20.963Z</time></trkpt><trkpt lat="44.76086072403534" lon="0.7350497864671423"><ele>113.0</ele><time>2026-04-19T10:50:21.963Z</time></trkpt><trkpt lat="44.76095806997134" lon="0.7352101674249367"><ele>113.0</ele><time>2026-04-19T10:50:22.963Z</time></trkpt><trkpt lat="44.76105058823049" lon="0.735371970746516"><ele>113.0</ele><time>2026-04-19T10:50:23.963Z</time></trkpt><trkpt lat="44.761126667149966" lon="0.735534269281404"><ele>113.0</ele><time>2026-04-19T10:50:24.963Z</time></trkpt><trkpt lat="44.76117582500683" lon="0.7356962361195679"><ele>111.5</ele><time>2026-04-19T10:50:25.963Z</time></trkpt><trkpt lat="44.761213770108924" lon="0.7358681934141411"><ele>110.0</ele><time>2026-04-19T10:50:26.963Z</time></trkpt><trkpt lat="44.761239306025615" lon="0.7360423914040694"><ele>108.5</ele><time>2026-04-19T10:50:27.963Z</time></trkpt><trkpt lat="44.76127199253712" lon="0.7362154219747696"><ele>107.0</ele><time>2026-04-19T10:50:28.963Z</time></trkpt><trkpt lat="44.76132834104967" lon="0.7363795655900669"><ele>107.0</ele><time>2026-04-19T10:50:29.963Z</time></trkpt><trkpt lat="44.76140414494343" lon="0.7365437343749905"><ele>107.0</ele><time>2026-04-19T10:50:30.963Z</time></trkpt><trkpt lat="44.76149735339566" lon="0.7367095336953937"><ele>107.0</ele><time>2026-04-19T10:50:31.963Z</time></trkpt><trkpt lat="44.76159242343576" lon="0.736879737303398"><ele>107.0</ele><time>2026-04-19T10:50:32.963Z</time></trkpt><trkpt lat="44.76168109033749" lon="0.7370485060707861"><ele>106.33333333333333</ele><time>2026-04-19T10:50:33.963Z</time></trkpt><trkpt lat="44.76176693877046" lon="0.7372255092157558"><ele>105.66666666666666</ele><time>2026-04-19T10:50:34.963Z</time></trkpt><trkpt lat="44.76185891050127" lon="0.737403485053947"><ele>105.0</ele><time>2026-04-19T10:50:35.963Z</time></trkpt><trkpt lat="44.76194214385218" lon="0.7375781552173358"><ele>106.33333333333334</ele><time>2026-04-19T10:50:36.963Z</time></trkpt><trkpt lat="44.762028776447835" lon="0.7377502979798206"><ele>107.66666666666667</ele><time>2026-04-19T10:50:37.963Z</time></trkpt><trkpt lat="44.762122385891296" lon="0.7379156316035542"><ele>109.0</ele><time>2026-04-19T10:50:38.963Z</time></trkpt><trkpt lat="44.76222818111087" lon="0.7380694553272127"><ele>109.0</ele><time>2026-04-19T10:50:39.963Z</time></trkpt><trkpt lat="44.76235532853737" lon="0.7382133361326529"><ele>109.0</ele><time>2026-04-19T10:50:40.963Z</time></trkpt><trkpt lat="44.76249059031058" lon="0.7383593123963994"><ele>109.0</ele><time>2026-04-19T10:50:41.963Z</time></trkpt><trkpt lat="44.76262636197033" lon="0.7385225251571691"><ele>108.33333333333334</ele><time>2026-04-19T10:50:42.963Z</time></trkpt><trkpt lat="44.762752558176196" lon="0.7387179534903963"><ele>107.66666666666666</ele><time>2026-04-19T10:50:43.963Z</time></trkpt><trkpt lat="44.76287071828091" lon="0.7389461869688657"><ele>107.0</ele><time>2026-04-19T10:50:44.963Z</time></trkpt><trkpt lat="44.7629823466554" lon="0.7391681531555611"><ele>107.0</ele><time>2026-04-19T10:50:45.963Z</time></trkpt><trkpt lat="44.76308932510165" lon="0.7393824593879459"><ele>107.0</ele><time>2026-04-19T10:50:46.963Z</time></trkpt><trkpt lat="44.763187878278025" lon="0.739585460342847"><ele>107.0</ele><time>2026-04-19T10:50:47.963Z</time></trkpt><trkpt lat="44.76328417289329" lon="0.7397753672857821"><ele>105.75</ele><time>2026-04-19T10:50:48.963Z</time></trkpt><trkpt lat="44.76338321312647" lon="0.7399436136967099"><ele>104.5</ele><time>2026-04-19T10:50:49.963Z</time></trkpt><trkpt lat="44.76349268198492" lon="0.7400632478765469"><ele>103.25</ele><time>2026-04-19T10:50:50.963Z</time></trkpt><trkpt lat="44.76363071320084" lon="0.7401599628694763"><ele>102.0</ele><time>2026-04-19T10:50:51.963Z</time></trkpt><trkpt lat="44.76378257469197" lon="0.7402346034755494"><ele>106.33333333333334</ele><time>2026-04-19T10:50:52.963Z</time></trkpt><trkpt lat="44.763943523822974" lon="0.7402996502378548"><ele>110.66666666666667</ele><time>2026-04-19T10:50:53.963Z</time></trkpt><trkpt lat="44.76409089096134" lon="0.7403923739422023"><ele>115.0</ele><time>2026-04-19T10:50:54.963Z</time></trkpt><trkpt lat="44.76422248284353" lon="0.7405191397239986"><ele>115.0</ele><time>2026-04-19T10:50:55.963Z</time></trkpt><trkpt lat="44.76433978166183" lon="0.7406873157106931"><ele>115.0</ele><time>2026-04-19T10:50:56.963Z</time></trkpt><trkpt lat="44.76443889030873" lon="0.7408878589948527"><ele>115.0</ele><time>2026-04-19T10:50:57.963Z</time></trkpt><trkpt lat="44.764537032641" lon="0.7410865653544673"><ele>114.5</ele><time>2026-04-19T10:50:58.963Z</time></trkpt><trkpt lat="44.76464982904953" lon="0.7412373701364993"><ele>114.0</ele><time>2026-04-19T10:50:59.963Z</time></trkpt><trkpt lat="44.76477899254706" lon="0.7413353659253066"><ele>113.5</ele><time>2026-04-19T10:51:00.963Z</time></trkpt><trkpt lat="44.7649027156829" lon="0.7414021343683151"><ele>113.0</ele><time>2026-04-19T10:51:01.963Z</time></trkpt><trkpt lat="44.765002513444536" lon="0.7414941135626408"><ele>113.0</ele><time>2026-04-19T10:51:02.963Z</time></trkpt><trkpt lat="44.76508171274175" lon="0.7416310893021542"><ele>113.0</ele><time>2026-04-19T10:51:03.963Z</time></trkpt><trkpt lat="44.7651317059899" lon="0.7418189199810924"><ele>113.0</ele><time>2026-04-19T10:51:04.963Z</time></trkpt><trkpt lat="44.765144409082616" lon="0.7420378734207379"><ele>113.0</ele><time>2026-04-19T10:51:05.963Z</time></trkpt><trkpt lat="44.76520932083955" lon="0.7422266227470287"><ele>113.25</ele><time>2026-04-19T10:51:06.963Z</time></trkpt><trkpt lat="44.765281930038704" lon="0.7424053737649938"><ele>113.5</ele><time>2026-04-19T10:51:07.963Z</time></trkpt><trkpt lat="44.76538747904264" lon="0.7425390936067432"><ele>113.75</ele><time>2026-04-19T10:51:08.963Z</time></trkpt><trkpt lat="44.76551996640857" lon="0.7426611893875651"><ele>114.0</ele><time>2026-04-19T10:51:09.963Z</time></trkpt><trkpt lat="44.76563484346369" lon="0.7427927835227782"><ele>114.0</ele><time>2026-04-19T10:51:10.963Z</time></trkpt><trkpt lat="44.765744783642994" lon="0.7429498160122368"><ele>114.0</ele><time>2026-04-19T10:51:11.963Z</time></trkpt><trkpt lat="44.765824046804944" lon="0.7431541719586946"><ele>114.0</ele><time>2026-04-19T10:51:12.963Z</time></trkpt><trkpt lat="44.76589974145547" lon="0.7433699313556182"><ele>114.66666666666666</ele><time>2026-04-19T10:51:13.963Z</time></trkpt><trkpt lat="44.76597104739247" lon="0.7435939636596891"><ele>115.33333333333333</ele><time>2026-04-19T10:51:14.963Z</time></trkpt><trkpt lat="44.76602827114133" lon="0.7438177732530833"><ele>116.0</ele><time>2026-04-19T10:51:15.963Z</time></trkpt><trkpt lat="44.76608313543691" lon="0.7440373963486359"><ele>115.5</ele><time>2026-04-19T10:51:16.963Z</time></trkpt><trkpt lat="44.766117379283266" lon="0.7442530940327515"><ele>115.0</ele><time>2026-04-19T10:51:17.963Z</time></trkpt><trkpt lat="44.76615832013204" lon="0.7444548704490905"><ele>114.5</ele><time>2026-04-19T10:51:18.963Z</time></trkpt><trkpt lat="44.76618470369826" lon="0.7446520217910143"><ele>114.0</ele><time>2026-04-19T10:51:19.963Z</time></trkpt><trkpt lat="44.766190707081705" lon="0.7448457549368915"><ele>114.0</ele><time>2026-04-19T10:51:20.963Z</time></trkpt><trkpt lat="44.7661802747461" lon="0.7450364888919878"><ele>114.0</ele><time>2026-04-19T10:51:21.963Z</time></trkpt><trkpt lat="44.76614262614892" lon="0.7452334614151199"><ele>114.0</ele><time>2026-04-19T10:51:22.963Z</time></trkpt><trkpt lat="44.76607168838451" lon="0.745409673577578"><ele>114.0</ele><time>2026-04-19T10:51:23.963Z</time></trkpt><trkpt lat="44.765996478872985" lon="0.7455687652590093"><ele>114.25</ele><time>2026-04-19T10:51:24.963Z</time></trkpt><trkpt lat="44.765930048250866" lon="0.7457219634203932"><ele>114.5</ele><time>2026-04-19T10:51:25.963Z</time></trkpt><trkpt lat="44.76588459369608" lon="0.7458796840722621"><ele>114.75</ele><time>2026-04-19T10:51:26.963Z</time></trkpt><trkpt lat="44.76586548577172" lon="0.746028367451204"><ele>115.0</ele><time>2026-04-19T10:51:27.963Z</time></trkpt><trkpt lat="44.76588888877268" lon="0.7461828749059044"><ele>115.75</ele><time>2026-04-19T10:51:28.963Z</time></trkpt><trkpt lat="44.765939300650544" lon="0.7463395354551932"><ele>116.5</ele><time>2026-04-19T10:51:29.963Z</time></trkpt><trkpt lat="44.76602722914099" lon="0.7464745872353955"><ele>117.25</ele><time>2026-04-19T10:51:30.963Z</time></trkpt><trkpt lat="44.76612865123422" lon="0.7465867318640687"><ele>118.0</ele><time>2026-04-19T10:51:31.963Z</time></trkpt><trkpt lat="44.76626081168904" lon="0.7466875780876224"><ele>118.5</ele><time>2026-04-19T10:51:32.963Z</time></trkpt><trkpt lat="44.766402038711504" lon="0.7467690263924247"><ele>119.0</ele><time>2026-04-19T10:51:33.963Z</time></trkpt><trkpt lat="44.76652977037486" lon="0.7468476356538792"><ele>119.5</ele><time>2026-04-19T10:51:34.964Z</time></trkpt><trkpt lat="44.76665306201799" lon="0.7469204261395814"><ele>120.0</ele><time>2026-04-19T10:51:35.964Z</time></trkpt><trkpt lat="44.76677013699025" lon="0.7470022992798796"><ele>117.5</ele><time>2026-04-19T10:51:36.964Z</time></trkpt><trkpt lat="44.76688139189644" lon="0.7471117240983103"><ele>115.0</ele><time>2026-04-19T10:51:37.964Z</time></trkpt><trkpt lat="44.76697321095541" lon="0.7472604744004733"><ele>112.5</ele><time>2026-04-19T10:51:38.964Z</time></trkpt><trkpt lat="44.767058558753504" lon="0.7474319344082543"><ele>110.0</ele><time>2026-04-19T10:51:39.964Z</time></trkpt><trkpt lat="44.767140016609716" lon="0.7476264542568299"><ele>111.0</ele><time>2026-04-19T10:51:40.964Z</time></trkpt><trkpt lat="44.76720357106539" lon="0.7478103626369936"><ele>112.0</ele><time>2026-04-19T10:51:41.964Z</time></trkpt><trkpt lat="44.767260882597675" lon="0.7479993853119825"><ele>113.0</ele><time>2026-04-19T10:51:42.964Z</time></trkpt><trkpt lat="44.76730575365086" lon="0.7481840873630089"><ele>114.0</ele><time>2026-04-19T10:51:43.964Z</time></trkpt><trkpt lat="44.76732372855986" lon="0.7483876436594779"><ele>113.0</ele><time>2026-04-19T10:51:44.964Z</time></trkpt><trkpt lat="44.76735779813832" lon="0.7485908777814273"><ele>112.0</ele><time>2026-04-19T10:51:45.964Z</time></trkpt><trkpt lat="44.76736551783392" lon="0.7488215176659847"><ele>111.0</ele><time>2026-04-19T10:51:46.964Z</time></trkpt><trkpt lat="44.76737110424192" lon="0.7490554442589457"><ele>111.0</ele><time>2026-04-19T10:51:47.964Z</time></trkpt><trkpt lat="44.76738064813047" lon="0.7492892721405672"><ele>111.0</ele><time>2026-04-19T10:51:48.964Z</time></trkpt><trkpt lat="44.767389946703084" lon="0.7495116525629907"><ele>111.0</ele><time>2026-04-19T10:51:49.964Z</time></trkpt><trkpt lat="44.76740528928676" lon="0.7497351418258966"><ele>110.75</ele><time>2026-04-19T10:51:50.964Z</time></trkpt><trkpt lat="44.76743372513277" lon="0.749940937404446"><ele>110.5</ele><time>2026-04-19T10:51:51.964Z</time></trkpt><trkpt lat="44.76746883981956" lon="0.7501347434379807"><ele>110.25</ele><time>2026-04-19T10:51:52.964Z</time></trkpt><trkpt lat="44.767513095353664" lon="0.7503161398758976"><ele>110.0</ele><time>2026-04-19T10:51:53.964Z</time></trkpt><trkpt lat="44.7675552981719" lon="0.7504941024543497"><ele>110.0</ele><time>2026-04-19T10:51:54.964Z</time></trkpt><trkpt lat="44.76759267163496" lon="0.750670198035694"><ele>110.0</ele><time>2026-04-19T10:51:55.964Z</time></trkpt><trkpt lat="44.767620115516365" lon="0.7508569232701074"><ele>110.0</ele><time>2026-04-19T10:51:56.964Z</time></trkpt><trkpt lat="44.767629582929175" lon="0.751039769898624"><ele>110.0</ele><time>2026-04-19T10:51:57.964Z</time></trkpt><trkpt lat="44.76763975649167" lon="0.7512291024857709"><ele>109.25</ele><time>2026-04-19T10:51:58.964Z</time></trkpt><trkpt lat="44.767637787259105" lon="0.7514097569051819"><ele>108.5</ele><time>2026-04-19T10:51:59.964Z</time></trkpt><trkpt lat="44.767624156927056" lon="0.7515793174883167"><ele>107.75</ele><time>2026-04-19T10:52:00.964Z</time></trkpt><trkpt lat="44.76761229400293" lon="0.751748461830774"><ele>107.0</ele><time>2026-04-19T10:52:01.964Z</time></trkpt><trkpt lat="44.76762669399137" lon="0.7519033508532393"><ele>105.5</ele><time>2026-04-19T10:52:02.964Z</time></trkpt><trkpt lat="44.76763717366797" lon="0.7520535859287844"><ele>104.0</ele><time>2026-04-19T10:52:03.964Z</time></trkpt><trkpt lat="44.767687381960016" lon="0.7521901668858504"><ele>102.5</ele><time>2026-04-19T10:52:04.964Z</time></trkpt><trkpt lat="44.767759520597814" lon="0.7523452662559722"><ele>101.0</ele><time>2026-04-19T10:52:05.964Z</time></trkpt><trkpt lat="44.76782659471447" lon="0.7524964889045327"><ele>101.8</ele><time>2026-04-19T10:52:06.964Z</time></trkpt><trkpt lat="44.767908698985025" lon="0.7526358970404673"><ele>102.6</ele><time>2026-04-19T10:52:07.964Z</time></trkpt><trkpt lat="44.767979761108855" lon="0.7527457870054559"><ele>103.4</ele><time>2026-04-19T10:52:08.964Z</time></trkpt><trkpt lat="44.76806123139152" lon="0.7528501752097029"><ele>104.2</ele><time>2026-04-19T10:52:09.964Z</time></trkpt><trkpt lat="44.76814248000034" lon="0.7529403579660808"><ele>105.0</ele><time>2026-04-19T10:52:10.964Z</time></trkpt><trkpt lat="44.76823265196027" lon="0.753018527077844"><ele>105.0</ele><time>2026-04-19T10:52:11.964Z</time></trkpt><trkpt lat="44.76833958356313" lon="0.7530791347542916"><ele>105.0</ele><time>2026-04-19T10:52:12.964Z</time></trkpt><trkpt lat="44.76845790722427" lon="0.753101741048168"><ele>105.0</ele><time>2026-04-19T10:52:13.964Z</time></trkpt><trkpt lat="44.76857078562677" lon="0.7531676703359323"><ele>105.0</ele><time>2026-04-19T10:52:14.964Z</time></trkpt><trkpt lat="44.768671787323754" lon="0.7532362842407136"><ele>106.2</ele><time>2026-04-19T10:52:15.964Z</time></trkpt><trkpt lat="44.768759251008916" lon="0.7533533012480547"><ele>107.4</ele><time>2026-04-19T10:52:16.964Z</time></trkpt><trkpt lat="44.76880724617473" lon="0.7534980869087815"><ele>108.6</ele><time>2026-04-19T10:52:17.964Z</time></trkpt><trkpt lat="44.76888794991442" lon="0.7535830131860308"><ele>109.8</ele><time>2026-04-19T10:52:18.964Z</time></trkpt><trkpt lat="44.768971007876594" lon="0.7536693389197882"><ele>111.0</ele><time>2026-04-19T10:52:19.964Z</time></trkpt><trkpt lat="44.7690829551964" lon="0.7537290017974364"><ele>108.5</ele><time>2026-04-19T10:52:20.964Z</time></trkpt><trkpt lat="44.76920569029512" lon="0.7537747879665139"><ele>106.0</ele><time>2026-04-19T10:52:21.964Z</time></trkpt><trkpt lat="44.76934220001289" lon="0.7538034949362751"><ele>103.5</ele><time>2026-04-19T10:52:22.964Z</time></trkpt><trkpt lat="44.76947728914045" lon="0.7538300414553681"><ele>101.0</ele><time>2026-04-19T10:52:23.964Z</time></trkpt><trkpt lat="44.769617518840384" lon="0.7538654516853909"><ele>101.0</ele><time>2026-04-19T10:52:24.964Z</time></trkpt><trkpt lat="44.7697419847589" lon="0.7539269498199326"><ele>101.0</ele><time>2026-04-19T10:52:25.964Z</time></trkpt><trkpt lat="44.76985593740454" lon="0.7540198495159278"><ele>101.0</ele><time>2026-04-19T10:52:26.961Z</time></trkpt><trkpt lat="44.76997318005742" lon="0.7541323028729646"><ele>101.0</ele><time>2026-04-19T10:52:27.961Z</time></trkpt><trkpt lat="44.77008876116295" lon="0.7542639247768095"><ele>101.33333333333333</ele><time>2026-04-19T10:52:28.961Z</time></trkpt><trkpt lat="44.770203555014845" lon="0.7543984684416561"><ele>101.66666666666666</ele><time>2026-04-19T10:52:29.961Z</time></trkpt><trkpt lat="44.77032169633255" lon="0.75453530546697"><ele>102.0</ele><time>2026-04-19T10:52:30.961Z</time></trkpt><trkpt lat="44.77043772594306" lon="0.7546711754211188"><ele>102.0</ele><time>2026-04-19T10:52:31.961Z</time></trkpt><trkpt lat="44.77054934297489" lon="0.7547941180291976"><ele>102.0</ele><time>2026-04-19T10:52:32.961Z</time></trkpt><trkpt lat="44.770655161070096" lon="0.7549106954368507"><ele>102.0</ele><time>2026-04-19T10:52:33.961Z</time></trkpt><trkpt lat="44.7707479729612" lon="0.7550292663412297"><ele>102.0</ele><time>2026-04-19T10:52:34.961Z</time></trkpt><trkpt lat="44.770828992390896" lon="0.7551745087004404"><ele>102.25</ele><time>2026-04-19T10:52:35.961Z</time></trkpt><trkpt lat="44.77090185943381" lon="0.7553510518781738"><ele>102.5</ele><time>2026-04-19T10:52:36.961Z</time></trkpt><trkpt lat="44.77097115621215" lon="0.7555352606407589"><ele>102.75</ele><time>2026-04-19T10:52:37.961Z</time></trkpt><trkpt lat="44.77103708317355" lon="0.755723850400992"><ele>103.0</ele><time>2026-04-19T10:52:38.961Z</time></trkpt><trkpt lat="44.77110110947475" lon="0.7559191632294732"><ele>99.0</ele><time>2026-04-19T10:52:39.961Z</time></trkpt><trkpt lat="44.771169898996824" lon="0.7561113673112819"><ele>95.0</ele><time>2026-04-19T10:52:40.961Z</time></trkpt><trkpt lat="44.771239976968694" lon="0.7562988453822969"><ele>91.0</ele><time>2026-04-19T10:52:41.961Z</time></trkpt><trkpt lat="44.77130717006279" lon="0.7564855216222495"><ele>91.0</ele><time>2026-04-19T10:52:42.961Z</time></trkpt><trkpt lat="44.77137454183224" lon="0.7566714744278802"><ele>91.0</ele><time>2026-04-19T10:52:43.961Z</time></trkpt><trkpt lat="44.7714385989647" lon="0.7568616891073333"><ele>91.0</ele><time>2026-04-19T10:52:44.961Z</time></trkpt><trkpt lat="44.77147921781031" lon="0.7570512003981836"><ele>91.0</ele><time>2026-04-19T10:52:45.961Z</time></trkpt><trkpt lat="44.77153283124999" lon="0.7572290555032896"><ele>88.75</ele><time>2026-04-19T10:52:46.961Z</time></trkpt><trkpt lat="44.77159757584568" lon="0.7573927557370945"><ele>86.5</ele><time>2026-04-19T10:52:47.961Z</time></trkpt><trkpt lat="44.77164491798478" lon="0.7575618025972646"><ele>84.25</ele><time>2026-04-19T10:52:48.961Z</time></trkpt><trkpt lat="44.77168962794514" lon="0.7577287095214298"><ele>82.0</ele><time>2026-04-19T10:52:49.961Z</time></trkpt><trkpt lat="44.77173739142797" lon="0.7578930952849848"><ele>82.0</ele><time>2026-04-19T10:52:50.961Z</time></trkpt><trkpt lat="44.77178089261797" lon="0.7580610014077899"><ele>82.0</ele><time>2026-04-19T10:52:51.961Z</time></trkpt><trkpt lat="44.77182766130852" lon="0.7582228497028225"><ele>82.0</ele><time>2026-04-19T10:52:52.961Z</time></trkpt><trkpt lat="44.771868576301685" lon="0.7583775795763065"><ele>82.0</ele><time>2026-04-19T10:52:53.961Z</time></trkpt><trkpt lat="44.77191008032488" lon="0.7585194136035659"><ele>81.8</ele><time>2026-04-19T10:52:54.961Z</time></trkpt><trkpt lat="44.771942390735695" lon="0.7586624615719876"><ele>81.6</ele><time>2026-04-19T10:52:55.961Z</time></trkpt><trkpt lat="44.7719517927359" lon="0.7588163785093813"><ele>81.39999999999999</ele><time>2026-04-19T10:52:56.961Z</time></trkpt><trkpt lat="44.771925336682436" lon="0.7589710185667308"><ele>81.19999999999999</ele><time>2026-04-19T10:52:57.961Z</time></trkpt><trkpt lat="44.771884915132816" lon="0.7591233668550978"><ele>81.0</ele><time>2026-04-19T10:52:58.961Z</time></trkpt><trkpt lat="44.771817029668675" lon="0.7592671624446776"><ele>82.75</ele><time>2026-04-19T10:52:59.961Z</time></trkpt><trkpt lat="44.77172244087867" lon="0.7593894908153934"><ele>84.5</ele><time>2026-04-19T10:53:00.961Z</time></trkpt><trkpt lat="44.77160547574167" lon="0.7595116204013488"><ele>86.25</ele><time>2026-04-19T10:53:01.961Z</time></trkpt><trkpt lat="44.771481902510274" lon="0.7596383240415012"><ele>88.0</ele><time>2026-04-19T10:53:02.961Z</time></trkpt><trkpt lat="44.77135087001844" lon="0.7597742816386556"><ele>88.0</ele><time>2026-04-19T10:53:03.961Z</time></trkpt><trkpt lat="44.771211577831416" lon="0.7599223726347443"><ele>88.0</ele><time>2026-04-19T10:53:04.961Z</time></trkpt><trkpt lat="44.77108198392969" lon="0.7600577333396116"><ele>88.0</ele><time>2026-04-19T10:53:05.961Z</time></trkpt><trkpt lat="44.770965879460334" lon="0.7601706443474208"><ele>89.25</ele><time>2026-04-19T10:53:06.961Z</time></trkpt><trkpt lat="44.77086777653883" lon="0.7602794007805005"><ele>90.5</ele><time>2026-04-19T10:53:07.961Z</time></trkpt><trkpt lat="44.77078589986897" lon="0.7603998198422969"><ele>91.75</ele><time>2026-04-19T10:53:08.961Z</time></trkpt><trkpt lat="44.770717481327814" lon="0.7605475631652535"><ele>93.0</ele><time>2026-04-19T10:53:09.961Z</time></trkpt><trkpt lat="44.770682155225344" lon="0.7607153286146325"><ele>93.0</ele><time>2026-04-19T10:53:10.961Z</time></trkpt><trkpt lat="44.77067249095434" lon="0.760896000320501"><ele>93.0</ele><time>2026-04-19T10:53:11.961Z</time></trkpt><trkpt lat="44.770691784362576" lon="0.7610731342987153"><ele>93.0</ele><time>2026-04-19T10:53:12.961Z</time></trkpt><trkpt lat="44.77074180166175" lon="0.7612508929695412"><ele>93.0</ele><time>2026-04-19T10:53:13.961Z</time></trkpt><trkpt lat="44.770813737277884" lon="0.7614157759682579"><ele>94.75</ele><time>2026-04-19T10:53:14.961Z</time></trkpt><trkpt lat="44.770894551749834" lon="0.7615436301639451"><ele>96.5</ele><time>2026-04-19T10:53:15.961Z</time></trkpt><trkpt lat="44.77102732124977" lon="0.7616081888755096"><ele>98.25</ele><time>2026-04-19T10:53:16.961Z</time></trkpt><trkpt lat="44.77115599604055" lon="0.7616413755246851"><ele>100.0</ele><time>2026-04-19T10:53:17.961Z</time></trkpt><trkpt lat="44.771286601902496" lon="0.7616378496071073"><ele>100.25</ele><time>2026-04-19T10:53:18.961Z</time></trkpt><trkpt lat="44.77140681760954" lon="0.7615882743612643"><ele>100.5</ele><time>2026-04-19T10:53:19.961Z</time></trkpt><trkpt lat="44.771506095712695" lon="0.7614922165278225"><ele>100.75</ele><time>2026-04-19T10:53:20.961Z</time></trkpt><trkpt lat="44.77160431097028" lon="0.7613541430558953"><ele>101.0</ele><time>2026-04-19T10:53:21.961Z</time></trkpt><trkpt lat="44.77169777933852" lon="0.7611894078698818"><ele>100.0</ele><time>2026-04-19T10:53:22.961Z</time></trkpt><trkpt lat="44.77178320061007" lon="0.7610123033840989"><ele>99.0</ele><time>2026-04-19T10:53:23.961Z</time></trkpt><trkpt lat="44.771874098696095" lon="0.7608554285863774"><ele>98.0</ele><time>2026-04-19T10:53:24.961Z</time></trkpt><trkpt lat="44.7719800691119" lon="0.760756433371922"><ele>97.0</ele><time>2026-04-19T10:53:25.961Z</time></trkpt><trkpt lat="44.77208776390641" lon="0.7606681392770128"><ele>99.5</ele><time>2026-04-19T10:53:26.961Z</time></trkpt><trkpt lat="44.77220173479692" lon="0.7606184852699346"><ele>102.0</ele><time>2026-04-19T10:53:27.961Z</time></trkpt><trkpt lat="44.7723215288171" lon="0.7605784309627163"><ele>104.5</ele><time>2026-04-19T10:53:28.961Z</time></trkpt><trkpt lat="44.772434772185164" lon="0.7606215200952438"><ele>107.0</ele><time>2026-04-19T10:53:29.961Z</time></trkpt><trkpt lat="44.772541585714514" lon="0.7606671091899421"><ele>106.0</ele><time>2026-04-19T10:53:30.961Z</time></trkpt><trkpt lat="44.77273954438883" lon="0.7608036571712986"><ele>105.0</ele><time>2026-04-19T10:53:32.961Z</time></trkpt><trkpt lat="44.77284121733525" lon="0.7608611805682634"><ele>104.0</ele><time>2026-04-19T10:53:33.961Z</time></trkpt><trkpt lat="44.772972522491365" lon="0.7609149710508296"><ele>104.0</ele><time>2026-04-19T10:53:34.961Z</time></trkpt><trkpt lat="44.773121692083585" lon="0.7609412574772536"><ele>104.0</ele><time>2026-04-19T10:53:35.961Z</time></trkpt><trkpt lat="44.77325015185542" lon="0.7609805860662191"><ele>104.0</ele><time>2026-04-19T10:53:36.961Z</time></trkpt><trkpt lat="44.773354670169574" lon="0.7610478350206726"><ele>104.0</ele><time>2026-04-19T10:53:37.961Z</time></trkpt><trkpt lat="44.773454021332476" lon="0.7611550030226621"><ele>105.5</ele><time>2026-04-19T10:53:38.961Z</time></trkpt><trkpt lat="44.7735081285201" lon="0.7613196124366011"><ele>107.0</ele><time>2026-04-19T10:53:39.961Z</time></trkpt><trkpt lat="44.77350931277648" lon="0.7615000713404174"><ele>108.5</ele><time>2026-04-19T10:53:40.961Z</time></trkpt><trkpt lat="44.77349652494807" lon="0.761663177879904"><ele>110.0</ele><time>2026-04-19T10:53:41.961Z</time></trkpt><trkpt lat="44.773441247695324" lon="0.7618345278952261"><ele>111.0</ele><time>2026-04-19T10:53:42.961Z</time></trkpt><trkpt lat="44.77338044093357" lon="0.7619986643277311"><ele>112.0</ele><time>2026-04-19T10:53:43.961Z</time></trkpt><trkpt lat="44.77331773109004" lon="0.7621629561570967"><ele>113.0</ele><time>2026-04-19T10:53:44.961Z</time></trkpt><trkpt lat="44.773253526199305" lon="0.7623239820841088"><ele>114.0</ele><time>2026-04-19T10:53:45.961Z</time></trkpt><trkpt lat="44.773181748093265" lon="0.7624700524701421"><ele>114.0</ele><time>2026-04-19T10:53:46.961Z</time></trkpt><trkpt lat="44.77309731477" lon="0.762602009154105"><ele>114.0</ele><time>2026-04-19T10:53:47.961Z</time></trkpt><trkpt lat="44.773016518743404" lon="0.7627172869580143"><ele>114.0</ele><time>2026-04-19T10:53:48.961Z</time></trkpt><trkpt lat="44.772941639824936" lon="0.7628290723237356"><ele>114.0</ele><time>2026-04-19T10:53:49.961Z</time></trkpt><trkpt lat="44.772867050943574" lon="0.7629311951443626"><ele>114.4</ele><time>2026-04-19T10:53:50.961Z</time></trkpt><trkpt lat="44.7727951148174" lon="0.7630273795189787"><ele>114.80000000000001</ele><time>2026-04-19T10:53:51.961Z</time></trkpt><trkpt lat="44.77272384839112" lon="0.7631130326642673"><ele>115.19999999999999</ele><time>2026-04-19T10:53:52.961Z</time></trkpt><trkpt lat="44.77265589387" lon="0.7631960357180404"><ele>115.6</ele><time>2026-04-19T10:53:53.961Z</time></trkpt><trkpt lat="44.77259313250483" lon="0.763280900057107"><ele>116.0</ele><time>2026-04-19T10:53:54.961Z</time></trkpt><trkpt lat="44.77249993663892" lon="0.7634603579897554"><ele>117.6</ele><time>2026-04-19T10:53:56.961Z</time></trkpt><trkpt lat="44.772468514917655" lon="0.7635500222148501"><ele>119.19999999999999</ele><time>2026-04-19T10:53:57.961Z</time></trkpt><trkpt lat="44.7724316137339" lon="0.7636941310637344"><ele>120.80000000000001</ele><time>2026-04-19T10:53:59.961Z</time></trkpt><trkpt lat="44.77234783161984" lon="0.7637753879578953"><ele>122.4</ele><time>2026-04-19T10:54:02.961Z</time></trkpt><trkpt lat="44.77223127612196" lon="0.7638380868795656"><ele>124.0</ele><time>2026-04-19T10:54:04.961Z</time></trkpt><trkpt lat="44.77214806200814" lon="0.7638782383499167"><ele>124.0</ele><time>2026-04-19T10:54:05.961Z</time></trkpt><trkpt lat="44.77207475523604" lon="0.7639235259440826"><ele>124.00000000000001</ele><time>2026-04-19T10:54:06.961Z</time></trkpt><trkpt lat="44.77200439118608" lon="0.763974959290407"><ele>124.0</ele><time>2026-04-19T10:54:07.961Z</time></trkpt><trkpt lat="44.77194411954537" lon="0.7640377082863482"><ele>124.0</ele><time>2026-04-19T10:54:08.961Z</time></trkpt><trkpt lat="44.77189624030663" lon="0.7641066746089216"><ele>124.00000000000001</ele><time>2026-04-19T10:54:09.961Z</time></trkpt><trkpt lat="44.77185134308372" lon="0.7641833285575294"><ele>124.0</ele><time>2026-04-19T10:54:10.962Z</time></trkpt><trkpt lat="44.771787525617846" lon="0.7642404899372861"><ele>124.0</ele><time>2026-04-19T10:54:11.962Z</time></trkpt><trkpt lat="44.77176899610098" lon="0.7643597831061505"><ele>125.57142857142858</ele><time>2026-04-19T10:54:12.962Z</time></trkpt><trkpt lat="44.77174178071468" lon="0.7644486426018792"><ele>127.14285714285715</ele><time>2026-04-19T10:54:13.962Z</time></trkpt><trkpt lat="44.77171914034672" lon="0.7645386941184955"><ele>128.71428571428572</ele><time>2026-04-19T10:54:14.962Z</time></trkpt><trkpt lat="44.7716949096991" lon="0.7646274439790655"><ele>130.28571428571428</ele><time>2026-04-19T10:54:15.962Z</time></trkpt><trkpt lat="44.771652307106876" lon="0.7647060954833764"><ele>131.85714285714283</ele><time>2026-04-19T10:54:16.962Z</time></trkpt><trkpt lat="44.77163329343131" lon="0.7647940871419852"><ele>133.42857142857142</ele><time>2026-04-19T10:54:17.962Z</time></trkpt><trkpt lat="44.771587202058996" lon="0.7648775458974447"><ele>135.0</ele><time>2026-04-19T10:54:18.962Z</time></trkpt><trkpt lat="44.771537332452574" lon="0.7649701043470943"><ele>135.0</ele><time>2026-04-19T10:54:19.962Z</time></trkpt><trkpt lat="44.771480475970236" lon="0.7650570647969634"><ele>135.0</ele><time>2026-04-19T10:54:20.962Z</time></trkpt><trkpt lat="44.77142242948466" lon="0.7651353928388821"><ele>135.0</ele><time>2026-04-19T10:54:21.962Z</time></trkpt><trkpt lat="44.77135499187569" lon="0.7652034728851054"><ele>135.0</ele><time>2026-04-19T10:54:22.962Z</time></trkpt><trkpt lat="44.77127097890169" lon="0.7652588818571755"><ele>135.0</ele><time>2026-04-19T10:54:23.962Z</time></trkpt><trkpt lat="44.771184102861525" lon="0.765312891750281"><ele>135.0</ele><time>2026-04-19T10:54:24.962Z</time></trkpt><trkpt lat="44.77109513810785" lon="0.7653708574605664"><ele>135.4</ele><time>2026-04-19T10:54:25.962Z</time></trkpt><trkpt lat="44.77099600796919" lon="0.7654303537430134"><ele>135.8</ele><time>2026-04-19T10:54:26.962Z</time></trkpt><trkpt lat="44.770892661244474" lon="0.7654902327386754"><ele>136.2</ele><time>2026-04-19T10:54:27.962Z</time></trkpt><trkpt lat="44.77080110584185" lon="0.7655450828171101"><ele>136.6</ele><time>2026-04-19T10:54:28.962Z</time></trkpt><trkpt lat="44.77071963216749" lon="0.7655985052568919"><ele>137.0</ele><time>2026-04-19T10:54:29.962Z</time></trkpt><trkpt lat="44.770639328450294" lon="0.7656457981260868"><ele>137.0</ele><time>2026-04-19T10:54:30.962Z</time></trkpt><trkpt lat="44.770560304618414" lon="0.7656869962635982"><ele>137.0</ele><time>2026-04-19T10:54:31.962Z</time></trkpt><trkpt lat="44.770486469671624" lon="0.765734263572831"><ele>137.0</ele><time>2026-04-19T10:54:32.96Z</time></trkpt><trkpt lat="44.77041352328734" lon="0.7657771915389717"><ele>137.0</ele><time>2026-04-19T10:54:33.96Z</time></trkpt><trkpt lat="44.770343718311075" lon="0.7658309726490949"><ele>137.0</ele><time>2026-04-19T10:54:34.96Z</time></trkpt><trkpt lat="44.770270158178676" lon="0.7658781696136763"><ele>137.0</ele><time>2026-04-19T10:54:35.959Z</time></trkpt><trkpt lat="44.77019295183566" lon="0.7659262190736167"><ele>137.66666666666666</ele><time>2026-04-19T10:54:36.96Z</time></trkpt><trkpt lat="44.77011959385907" lon="0.7659701915529322"><ele>138.33333333333331</ele><time>2026-04-19T10:54:37.96Z</time></trkpt><trkpt lat="44.77004642015946" lon="0.7660104314640365"><ele>139.0</ele><time>2026-04-19T10:54:38.959Z</time></trkpt><trkpt lat="44.769969807640756" lon="0.766061362431987"><ele>139.66666666666666</ele><time>2026-04-19T10:54:39.959Z</time></trkpt><trkpt lat="44.769889237662454" lon="0.7661004599415281"><ele>140.33333333333334</ele><time>2026-04-19T10:54:40.959Z</time></trkpt><trkpt lat="44.7698141553667" lon="0.7661152750419754"><ele>141.0</ele><time>2026-04-19T10:54:41.96Z</time></trkpt><trkpt lat="44.769729802147616" lon="0.7661541497210069"><ele>141.0</ele><time>2026-04-19T10:54:42.959Z</time></trkpt><trkpt lat="44.76964916141048" lon="0.7661824018561458"><ele>141.0</ele><time>2026-04-19T10:54:43.96Z</time></trkpt><trkpt lat="44.76956983750049" lon="0.7662062481591423"><ele>141.0</ele><time>2026-04-19T10:54:44.959Z</time></trkpt><trkpt lat="44.769487287955556" lon="0.7662385110912936"><ele>141.0</ele><time>2026-04-19T10:54:45.959Z</time></trkpt><trkpt lat="44.76939440912829" lon="0.7662723949122815"><ele>141.0</ele><time>2026-04-19T10:54:46.959Z</time></trkpt><trkpt lat="44.76930507098122" lon="0.7663064176009752"><ele>141.0</ele><time>2026-04-19T10:54:47.959Z</time></trkpt><trkpt lat="44.76921729820259" lon="0.7663387553786274"><ele>140.4</ele><time>2026-04-19T10:54:48.959Z</time></trkpt><trkpt lat="44.76912783949196" lon="0.7663706433405245"><ele>139.8</ele><time>2026-04-19T10:54:49.959Z</time></trkpt><trkpt lat="44.7690367225645" lon="0.7664060639520202"><ele>139.20000000000002</ele><time>2026-04-19T10:54:50.959Z</time></trkpt><trkpt lat="44.76894252663197" lon="0.76643706822642"><ele>138.6</ele><time>2026-04-19T10:54:51.959Z</time></trkpt><trkpt lat="44.76885776540086" lon="0.7664762073767905"><ele>138.0</ele><time>2026-04-19T10:54:52.959Z</time></trkpt><trkpt lat="44.76876958057273" lon="0.7664974735340703"><ele>138.0</ele><time>2026-04-19T10:54:53.959Z</time></trkpt><trkpt lat="44.768677706807736" lon="0.7665151425362592"><ele>138.0</ele><time>2026-04-19T10:54:54.959Z</time></trkpt><trkpt lat="44.768590965167185" lon="0.766536898856526"><ele>138.0</ele><time>2026-04-19T10:54:55.959Z</time></trkpt><trkpt lat="44.768502886048466" lon="0.7665484472460119"><ele>138.0</ele><time>2026-04-19T10:54:56.959Z</time></trkpt><trkpt lat="44.7684122416545" lon="0.7665581307085345"><ele>138.0</ele><time>2026-04-19T10:54:57.959Z</time></trkpt><trkpt lat="44.768325404961914" lon="0.7665632171600989"><ele>138.0</ele><time>2026-04-19T10:54:58.959Z</time></trkpt><trkpt lat="44.76824827550826" lon="0.7665790785810029"><ele>137.83333333333334</ele><time>2026-04-19T10:54:59.959Z</time></trkpt><trkpt lat="44.768172935272545" lon="0.7665802755926246"><ele>137.66666666666666</ele><time>2026-04-19T10:55:00.959Z</time></trkpt><trkpt lat="44.768098050862214" lon="0.76655941602796"><ele>137.5</ele><time>2026-04-19T10:55:01.959Z</time></trkpt><trkpt lat="44.76802840981479" lon="0.7665102934841451"><ele>137.33333333333331</ele><time>2026-04-19T10:55:02.959Z</time></trkpt><trkpt lat="44.76796362135573" lon="0.766441658304033"><ele>137.16666666666666</ele><time>2026-04-19T10:55:03.959Z</time></trkpt><trkpt lat="44.76788145407968" lon="0.766350283711798"><ele>137.0</ele><time>2026-04-19T10:55:04.959Z</time></trkpt><trkpt lat="44.76781176353824" lon="0.7662458941802922"><ele>137.0</ele><time>2026-04-19T10:55:05.959Z</time></trkpt><trkpt lat="44.76772984658922" lon="0.7661313689532113"><ele>137.0</ele><time>2026-04-19T10:55:06.959Z</time></trkpt><trkpt lat="44.767647826872164" lon="0.7660328132893641"><ele>137.0</ele><time>2026-04-19T10:55:07.959Z</time></trkpt><trkpt lat="44.76757720717428" lon="0.7659398362693444"><ele>137.0</ele><time>2026-04-19T10:55:08.959Z</time></trkpt><trkpt lat="44.767512746412336" lon="0.7658613641388211"><ele>137.0</ele><time>2026-04-19T10:55:09.959Z</time></trkpt><trkpt lat="44.76744322243765" lon="0.7657865345799666"><ele>136.33333333333331</ele><time>2026-04-19T10:55:10.959Z</time></trkpt><trkpt lat="44.7673785423508" lon="0.765734984775262"><ele>135.66666666666666</ele><time>2026-04-19T10:55:11.959Z</time></trkpt><trkpt lat="44.76731319228149" lon="0.7657037216929762"><ele>135.0</ele><time>2026-04-19T10:55:12.959Z</time></trkpt><trkpt lat="44.76724475599491" lon="0.7657147109572505"><ele>134.33333333333334</ele><time>2026-04-19T10:55:13.959Z</time></trkpt><trkpt lat="44.76718406449486" lon="0.7657586172442242"><ele>133.66666666666669</ele><time>2026-04-19T10:55:14.959Z</time></trkpt><trkpt lat="44.76712420544437" lon="0.7658408443512935"><ele>133.0</ele><time>2026-04-19T10:55:15.959Z</time></trkpt><trkpt lat="44.76707822522561" lon="0.7659430196317069"><ele>134.20000000000002</ele><time>2026-04-19T10:55:16.959Z</time></trkpt><trkpt lat="44.767024131189636" lon="0.7660602155785163"><ele>135.4</ele><time>2026-04-19T10:55:17.959Z</time></trkpt><trkpt lat="44.7669756086741" lon="0.7661724509884792"><ele>136.60000000000002</ele><time>2026-04-19T10:55:18.959Z</time></trkpt><trkpt lat="44.766910162835565" lon="0.7663010778920718"><ele>137.8</ele><time>2026-04-19T10:55:19.959Z</time></trkpt><trkpt lat="44.76683789675765" lon="0.7664233891980244"><ele>139.0</ele><time>2026-04-19T10:55:20.959Z</time></trkpt><trkpt lat="44.76678375538165" lon="0.7665447309864583"><ele>139.0</ele><time>2026-04-19T10:55:21.959Z</time></trkpt><trkpt lat="44.76672471260698" lon="0.7666599973727494"><ele>139.0</ele><time>2026-04-19T10:55:22.959Z</time></trkpt><trkpt lat="44.76667521613019" lon="0.7667626075434602"><ele>139.0</ele><time>2026-04-19T10:55:23.959Z</time></trkpt><trkpt lat="44.76663012797011" lon="0.7668543362747902"><ele>139.0</ele><time>2026-04-19T10:55:24.959Z</time></trkpt><trkpt lat="44.76655139363856" lon="0.766998045744578"><ele>139.0</ele><time>2026-04-19T10:55:26.959Z</time></trkpt><trkpt lat="44.76649584968029" lon="0.7671048438927114"><ele>140.4</ele><time>2026-04-19T10:55:28.959Z</time></trkpt><trkpt lat="44.76645412368794" lon="0.7671845134459305"><ele>141.8</ele><time>2026-04-19T10:55:30.959Z</time></trkpt><trkpt lat="44.76640115357788" lon="0.7672623471430331"><ele>143.2</ele><time>2026-04-19T10:55:33.959Z</time></trkpt><trkpt lat="44.76639267935156" lon="0.7674440327204348"><ele>144.6</ele><time>2026-04-19T10:55:36.959Z</time></trkpt><trkpt lat="44.766553218553206" lon="0.7674698383933678"><ele>146.0</ele><time>2026-04-19T10:55:41.959Z</time></trkpt><trkpt lat="44.766631552271996" lon="0.7674389866409616"><ele>146.0</ele><time>2026-04-19T10:55:43.959Z</time></trkpt><trkpt lat="44.766700032185085" lon="0.7674088994954336"><ele>146.0</ele><time>2026-04-19T10:55:46.959Z</time></trkpt><trkpt lat="44.766624972634276" lon="0.7674651394413905"><ele>146.0</ele><time>2026-04-19T10:55:54.96Z</time></trkpt><trkpt lat="44.76656298825524" lon="0.7674854544032143"><ele>146.0</ele><time>2026-04-19T10:55:57.96Z</time></trkpt><trkpt lat="44.76649936873923" lon="0.7675063052782193"><ele>146.0</ele><time>2026-04-19T10:56:03.96Z</time></trkpt><trkpt lat="44.76642064487969" lon="0.7676201760613666"><ele>146.0</ele><time>2026-04-19T10:56:58.958Z</time></trkpt><trkpt lat="44.76663703970011" lon="0.7676163907862159"><ele>146.0</ele><time>2026-04-19T11:02:04.958Z</time></trkpt><trkpt lat="44.76655448565238" lon="0.7675799618907148"><ele>146.0</ele><time>2026-04-19T11:02:40.958Z</time></trkpt><trkpt lat="44.766620980647374" lon="0.7675690548383753"><ele>146.0</ele><time>2026-04-19T11:04:05.958Z</time></trkpt><trkpt lat="44.76665545127311" lon="0.7674761242076434"><ele>146.0</ele><time>2026-04-19T11:04:20.958Z</time></trkpt><trkpt lat="44.7667013412012" lon="0.7674152769358159"><ele>146.0</ele><time>2026-04-19T11:04:29.959Z</time></trkpt><trkpt lat="44.766760352672996" lon="0.7673764130834984"><ele>146.0</ele><time>2026-04-19T11:04:38.959Z</time></trkpt><trkpt lat="44.76682580925546" lon="0.7673357989792263"><ele>146.0</ele><time>2026-04-19T11:04:45.959Z</time></trkpt><trkpt lat="44.766890738519386" lon="0.7673143737907321"><ele>146.14285714285714</ele><time>2026-04-19T11:04:50.959Z</time></trkpt><trkpt lat="44.76695329459681" lon="0.7673039209600887"><ele>146.28571428571428</ele><time>2026-04-19T11:04:56.959Z</time></trkpt><trkpt lat="44.76702340410311" lon="0.7673109562751256"><ele>146.42857142857144</ele><time>2026-04-19T11:05:03.959Z</time></trkpt><trkpt lat="44.767088460256794" lon="0.7672849669636181"><ele>146.57142857142856</ele><time>2026-04-19T11:05:11.96Z</time></trkpt><trkpt lat="44.7671583118808" lon="0.7672590107982749"><ele>146.71428571428572</ele><time>2026-04-19T11:05:20.959Z</time></trkpt><trkpt lat="44.767227499443266" lon="0.7672580227006041"><ele>146.85714285714286</ele><time>2026-04-19T11:05:28.959Z</time></trkpt><trkpt lat="44.76730494259326" lon="0.7672649273006389"><ele>147.0</ele><time>2026-04-19T11:05:36.959Z</time></trkpt><trkpt lat="44.767376181430926" lon="0.7672472234350488"><ele>147.0</ele><time>2026-04-19T11:05:49.959Z</time></trkpt><trkpt lat="44.76744372851629" lon="0.7672096823308203"><ele>147.0</ele><time>2026-04-19T11:05:58.959Z</time></trkpt><trkpt lat="44.76750751600465" lon="0.7671971230956371"><ele>147.0</ele><time>2026-04-19T11:06:07.959Z</time></trkpt><trkpt lat="44.76756899896991" lon="0.767177448577277"><ele>147.0</ele><time>2026-04-19T11:06:14.959Z</time></trkpt><trkpt lat="44.7676442200839" lon="0.7671500696235977"><ele>147.0</ele><time>2026-04-19T11:06:23.959Z</time></trkpt><trkpt lat="44.767716011137146" lon="0.7671372712447658"><ele>147.0</ele><time>2026-04-19T11:06:32.959Z</time></trkpt><trkpt lat="44.767780571483456" lon="0.7671808458963817"><ele>147.0</ele><time>2026-04-19T11:06:39.96Z</time></trkpt><trkpt lat="44.76784906568831" lon="0.7671983583499492"><ele>146.42857142857142</ele><time>2026-04-19T11:06:46.96Z</time></trkpt><trkpt lat="44.76791319234537" lon="0.7672007855735441"><ele>145.85714285714286</ele><time>2026-04-19T11:06:54.96Z</time></trkpt><trkpt lat="44.76797686518763" lon="0.7672118952704733"><ele>145.28571428571428</ele><time>2026-04-19T11:07:01.96Z</time></trkpt><trkpt lat="44.76804751194254" lon="0.7672092713005538"><ele>144.71428571428572</ele><time>2026-04-19T11:07:09.959Z</time></trkpt><trkpt lat="44.768113626016486" lon="0.767216762284108"><ele>144.14285714285714</ele><time>2026-04-19T11:07:18.96Z</time></trkpt><trkpt lat="44.768182370357835" lon="0.7671952378828295"><ele>143.57142857142856</ele><time>2026-04-19T11:07:27.959Z</time></trkpt><trkpt lat="44.76824948680639" lon="0.7671852664114004"><ele>143.0</ele><time>2026-04-19T11:07:35.959Z</time></trkpt><trkpt lat="44.76831301182976" lon="0.767200241438616"><ele>143.0</ele><time>2026-04-19T11:07:41.959Z</time></trkpt><trkpt lat="44.76837384298328" lon="0.7672302262818473"><ele>143.0</ele><time>2026-04-19T11:07:48.959Z</time></trkpt><trkpt lat="44.76843733627704" lon="0.7672431504636066"><ele>143.0</ele><time>2026-04-19T11:07:56.959Z</time></trkpt><trkpt lat="44.76850766570835" lon="0.7672481785015047"><ele>143.0</ele><time>2026-04-19T11:08:03.959Z</time></trkpt><trkpt lat="44.76857235641106" lon="0.7672510428315973"><ele>143.0</ele><time>2026-04-19T11:08:10.96Z</time></trkpt><trkpt lat="44.76863569754194" lon="0.7672284087173017"><ele>143.0</ele><time>2026-04-19T11:08:17.96Z</time></trkpt><trkpt lat="44.76880848235607" lon="0.767162778808075"><ele>143.14285714285714</ele><time>2026-04-19T11:08:59.96Z</time></trkpt><trkpt lat="44.76885946648908" lon="0.7670994147651177"><ele>143.28571428571428</ele><time>2026-04-19T11:09:03.96Z</time></trkpt><trkpt lat="44.768882956796716" lon="0.7672395733363734"><ele>143.42857142857144</ele><time>2026-04-19T11:09:27.961Z</time></trkpt><trkpt lat="44.768923707708055" lon="0.7671572252569483"><ele>143.57142857142856</ele><time>2026-04-19T11:09:34.961Z</time></trkpt><trkpt lat="44.76897930174413" lon="0.7670947333525956"><ele>143.71428571428572</ele><time>2026-04-19T11:09:41.961Z</time></trkpt><trkpt lat="44.769034529319505" lon="0.7670476060336466"><ele>143.85714285714286</ele><time>2026-04-19T11:09:51.961Z</time></trkpt><trkpt lat="44.76909830535202" lon="0.7670372418262714"><ele>144.0</ele><time>2026-04-19T11:09:59.961Z</time></trkpt><trkpt lat="44.769168363174764" lon="0.7670026114904049"><ele>144.00000000000003</ele><time>2026-04-19T11:10:09.961Z</time></trkpt><trkpt lat="44.76924571241574" lon="0.7670122498912698"><ele>144.0</ele><time>2026-04-19T11:10:17.961Z</time></trkpt><trkpt lat="44.76930466164895" lon="0.7669807143271942"><ele>144.0</ele><time>2026-04-19T11:10:24.961Z</time></trkpt><trkpt lat="44.7693684135224" lon="0.7669296735171391"><ele>144.0</ele><time>2026-04-19T11:10:31.961Z</time></trkpt><trkpt lat="44.76944240547919" lon="0.7668746344252292"><ele>144.0</ele><time>2026-04-19T11:10:41.961Z</time></trkpt><trkpt lat="44.76951090689561" lon="0.7668424797886738"><ele>144.00000000000003</ele><time>2026-04-19T11:10:51.961Z</time></trkpt><trkpt lat="44.76957692129218" lon="0.7668470286948121"><ele>144.0</ele><time>2026-04-19T11:11:00.961Z</time></trkpt><trkpt lat="44.76964595089014" lon="0.7668549652338312"><ele>143.57142857142858</ele><time>2026-04-19T11:11:07.962Z</time></trkpt><trkpt lat="44.76971581099885" lon="0.7668473339864706"><ele>143.14285714285714</ele><time>2026-04-19T11:11:15.962Z</time></trkpt><trkpt lat="44.769783758194926" lon="0.7668397380711675"><ele>142.71428571428572</ele><time>2026-04-19T11:11:22.961Z</time></trkpt><trkpt lat="44.76983189944212" lon="0.7669099133022024"><ele>142.28571428571428</ele><time>2026-04-19T11:11:32.961Z</time></trkpt><trkpt lat="44.7698667973864" lon="0.7669895659905746"><ele>141.85714285714286</ele><time>2026-04-19T11:11:42.96Z</time></trkpt><trkpt lat="44.76988411874393" lon="0.7670850198357463"><ele>141.42857142857144</ele><time>2026-04-19T11:11:56.96Z</time></trkpt><trkpt lat="44.769863589987494" lon="0.7671740487596539"><ele>141.0</ele><time>2026-04-19T11:12:04.961Z</time></trkpt><trkpt lat="44.769828797074645" lon="0.7672497414436346"><ele>141.0</ele><time>2026-04-19T11:12:16.961Z</time></trkpt><trkpt lat="44.76976181468924" lon="0.7673310464338305"><ele>141.0</ele><time>2026-04-19T11:12:25.961Z</time></trkpt><trkpt lat="44.769690913954285" lon="0.7674489479027721"><ele>141.0</ele><time>2026-04-19T11:12:39.961Z</time></trkpt><trkpt lat="44.76963154674172" lon="0.7674901060902041"><ele>141.0</ele><time>2026-04-19T11:12:47.961Z</time></trkpt><trkpt lat="44.76957073286366" lon="0.7675247129289029"><ele>141.0</ele><time>2026-04-19T11:12:56.961Z</time></trkpt><trkpt lat="44.76949867673381" lon="0.767560393626196"><ele>141.0</ele><time>2026-04-19T11:13:08.961Z</time></trkpt><trkpt lat="44.76943926793655" lon="0.7676007513570855"><ele>141.0</ele><time>2026-04-19T11:13:17.961Z</time></trkpt><trkpt lat="44.76937452569655" lon="0.7675979233359489"><ele>141.0</ele><time>2026-04-19T11:13:21.961Z</time></trkpt><trkpt lat="44.76931491337815" lon="0.7675673476820504"><ele>141.0</ele><time>2026-04-19T11:13:28.961Z</time></trkpt><trkpt lat="44.769251702648475" lon="0.767613470058575"><ele>141.0</ele><time>2026-04-19T11:13:41.961Z</time></trkpt><trkpt lat="44.76918149067799" lon="0.7676355211262967"><ele>141.0</ele><time>2026-04-19T11:13:49.961Z</time></trkpt><trkpt lat="44.769106572695186" lon="0.7676390944056175"><ele>141.0</ele><time>2026-04-19T11:13:56.961Z</time></trkpt><trkpt lat="44.76904289113423" lon="0.7676496746669426"><ele>141.0</ele><time>2026-04-19T11:14:05.961Z</time></trkpt><trkpt lat="44.769003255869116" lon="0.7675720894724399"><ele>144.0</ele><time>2026-04-19T11:14:32.961Z</time></trkpt></trkseg><trkseg><trkpt lat="44.76899445714963" lon="0.7676214364346055"><ele>144.00000000000003</ele><time>2026-04-19T11:36:53.94Z</time></trkpt><trkpt lat="44.76892514836448" lon="0.7676280093418152"><ele>144.0</ele><time>2026-04-19T11:36:59.94Z</time></trkpt><trkpt lat="44.76886460578493" lon="0.7676690074712664"><ele>144.0</ele><time>2026-04-19T11:37:04.937Z</time></trkpt><trkpt lat="44.76880935464582" lon="0.7677235228713797"><ele>144.0</ele><time>2026-04-19T11:37:09.937Z</time></trkpt><trkpt lat="44.76876031249611" lon="0.7677858219463469"><ele>144.0</ele><time>2026-04-19T11:37:20.937Z</time></trkpt><trkpt lat="44.76874369383353" lon="0.76787136102968"><ele>144.00000000000003</ele><time>2026-04-19T11:37:28.937Z</time></trkpt><trkpt lat="44.76874210962032" lon="0.767960140529626"><ele>144.0</ele><time>2026-04-19T11:37:35.937Z</time></trkpt><trkpt lat="44.768725496074126" lon="0.7680520423444702"><ele>143.2857142857143</ele><time>2026-04-19T11:37:42.937Z</time></trkpt><trkpt lat="44.7687552950503" lon="0.768138656118879"><ele>142.57142857142858</ele><time>2026-04-19T11:37:50.937Z</time></trkpt><trkpt lat="44.76878394780308" lon="0.7682234622650769"><ele>141.85714285714286</ele><time>2026-04-19T11:37:59.937Z</time></trkpt><trkpt lat="44.76876046933868" lon="0.768318431976824"><ele>141.14285714285717</ele><time>2026-04-19T11:38:11.937Z</time></trkpt><trkpt lat="44.76870738194427" lon="0.7683942239298935"><ele>140.42857142857144</ele><time>2026-04-19T11:38:16.937Z</time></trkpt><trkpt lat="44.76868268722993" lon="0.7684908499033202"><ele>139.71428571428572</ele><time>2026-04-19T11:38:25.937Z</time></trkpt><trkpt lat="44.7686214247691" lon="0.7685217752826095"><ele>139.0</ele><time>2026-04-19T11:38:35.937Z</time></trkpt><trkpt lat="44.7685525945736" lon="0.7685324475962003"><ele>138.85714285714286</ele><time>2026-04-19T11:38:44.938Z</time></trkpt><trkpt lat="44.7684810964857" lon="0.7685352252419336"><ele>138.71428571428572</ele><time>2026-04-19T11:38:53.938Z</time></trkpt><trkpt lat="44.76841657325282" lon="0.768528141454914"><ele>138.57142857142858</ele><time>2026-04-19T11:38:59.938Z</time></trkpt><trkpt lat="44.768351860267046" lon="0.7685264076959183"><ele>138.42857142857144</ele><time>2026-04-19T11:39:06.938Z</time></trkpt><trkpt lat="44.76828417681777" lon="0.7685140204686535"><ele>138.2857142857143</ele><time>2026-04-19T11:39:15.936Z</time></trkpt><trkpt lat="44.76821416487814" lon="0.7684998524534934"><ele>138.14285714285714</ele><time>2026-04-19T11:39:23.936Z</time></trkpt><trkpt lat="44.76814371811841" lon="0.7684870026220044"><ele>138.0</ele><time>2026-04-19T11:39:31.936Z</time></trkpt><trkpt lat="44.76807781677025" lon="0.768488282768138"><ele>138.0</ele><time>2026-04-19T11:39:42.936Z</time></trkpt><trkpt lat="44.76801086490785" lon="0.7684671255716099"><ele>138.0</ele><time>2026-04-19T11:39:53.936Z</time></trkpt><trkpt lat="44.76794614269533" lon="0.7684530396484901"><ele>138.0</ele><time>2026-04-19T11:40:00.937Z</time></trkpt><trkpt lat="44.76787546436751" lon="0.7684292324325375"><ele>138.0</ele><time>2026-04-19T11:40:07.937Z</time></trkpt><trkpt lat="44.76780535475718" lon="0.7684478297600622"><ele>138.0</ele><time>2026-04-19T11:40:15.937Z</time></trkpt><trkpt lat="44.767742413961685" lon="0.7684644402592973"><ele>138.0</ele><time>2026-04-19T11:40:20.937Z</time></trkpt><trkpt lat="44.76768206888523" lon="0.768498385559385"><ele>138.0</ele><time>2026-04-19T11:40:25.937Z</time></trkpt><trkpt lat="44.76761359277556" lon="0.7685282097820124"><ele>137.42857142857144</ele><time>2026-04-19T11:40:33.937Z</time></trkpt><trkpt lat="44.76755375077905" lon="0.7685597367055877"><ele>136.85714285714286</ele><time>2026-04-19T11:40:40.937Z</time></trkpt><trkpt lat="44.76748939216768" lon="0.7685772044458988"><ele>136.28571428571428</ele><time>2026-04-19T11:40:47.937Z</time></trkpt><trkpt lat="44.767426206055084" lon="0.768613333914218"><ele>135.71428571428572</ele><time>2026-04-19T11:40:54.937Z</time></trkpt><trkpt lat="44.76736374772362" lon="0.7686583784798574"><ele>135.14285714285714</ele><time>2026-04-19T11:41:00.937Z</time></trkpt><trkpt lat="44.767303461451306" lon="0.7686969393937849"><ele>134.57142857142858</ele><time>2026-04-19T11:41:08.937Z</time></trkpt><trkpt lat="44.7672450986092" lon="0.7687369112645505"><ele>134.0</ele><time>2026-04-19T11:41:16.936Z</time></trkpt><trkpt lat="44.76718593246527" lon="0.7687762856767352"><ele>134.0</ele><time>2026-04-19T11:41:24.936Z</time></trkpt><trkpt lat="44.76712339018703" lon="0.7688223787496056"><ele>134.0</ele><time>2026-04-19T11:41:31.936Z</time></trkpt><trkpt lat="44.76705020448518" lon="0.7688553313279339"><ele>134.0</ele><time>2026-04-19T11:41:38.936Z</time></trkpt><trkpt lat="44.766977810871715" lon="0.7688654036945879"><ele>134.0</ele><time>2026-04-19T11:41:55.936Z</time></trkpt><trkpt lat="44.76691312414269" lon="0.7688812121412328"><ele>134.0</ele><time>2026-04-19T11:42:03.937Z</time></trkpt><trkpt lat="44.766831486620994" lon="0.7689175468024564"><ele>134.0</ele><time>2026-04-19T11:42:11.937Z</time></trkpt><trkpt lat="44.76675382737368" lon="0.7689179906826564"><ele>134.0</ele><time>2026-04-19T11:42:19.937Z</time></trkpt><trkpt lat="44.76668576685129" lon="0.7689373813286817"><ele>134.85714285714286</ele><time>2026-04-19T11:42:26.937Z</time></trkpt><trkpt lat="44.76661946090965" lon="0.768895564705167"><ele>135.71428571428572</ele><time>2026-04-19T11:42:33.948Z</time></trkpt><trkpt lat="44.76659061422061" lon="0.768785040905921"><ele>136.57142857142856</ele><time>2026-04-19T11:42:41.957Z</time></trkpt><trkpt lat="44.766557555078855" lon="0.7687002211319323"><ele>137.42857142857144</ele><time>2026-04-19T11:42:48.961Z</time></trkpt><trkpt lat="44.766549301690965" lon="0.7685983308918817"><ele>138.28571428571428</ele><time>2026-04-19T11:42:56.964Z</time></trkpt><trkpt lat="44.76652525135621" lon="0.7685144976977564"><ele>139.14285714285714</ele><time>2026-04-19T11:43:03.966Z</time></trkpt><trkpt lat="44.766512343461144" lon="0.76842254155338"><ele>140.0</ele><time>2026-04-19T11:43:10.967Z</time></trkpt><trkpt lat="44.76650750653" lon="0.7683331134625244"><ele>140.85714285714286</ele><time>2026-04-19T11:43:16.968Z</time></trkpt><trkpt lat="44.76649044197899" lon="0.7682434443167157"><ele>141.71428571428572</ele><time>2026-04-19T11:43:24.975Z</time></trkpt><trkpt lat="44.76647889566042" lon="0.7681502488075757"><ele>142.57142857142856</ele><time>2026-04-19T11:43:31.985Z</time></trkpt><trkpt lat="44.76649119598404" lon="0.7680574752512763"><ele>143.42857142857144</ele><time>2026-04-19T11:43:39.992Z</time></trkpt><trkpt lat="44.766509580454056" lon="0.7679631840471218"><ele>144.28571428571428</ele><time>2026-04-19T11:43:47.996Z</time></trkpt><trkpt lat="44.766543155459296" lon="0.7678870715004505"><ele>145.14285714285714</ele><time>2026-04-19T11:43:54.998Z</time></trkpt><trkpt lat="44.76653498242106" lon="0.7677960872631627"><ele>146.0</ele><time>2026-04-19T11:44:03Z</time></trkpt><trkpt lat="44.766518193031224" lon="0.7677068287545569"><ele>146.0</ele><time>2026-04-19T11:44:11.001Z</time></trkpt><trkpt lat="44.76649157023836" lon="0.7676027245782923"><ele>146.0</ele><time>2026-04-19T11:45:44.005Z</time></trkpt><trkpt lat="44.766592364119816" lon="0.767611673469515"><ele>146.0</ele><time>2026-04-19T11:50:40.012Z</time></trkpt><trkpt lat="44.76666040168912" lon="0.767595222650312"><ele>146.0</ele><time>2026-04-19T11:50:42.012Z</time></trkpt><trkpt lat="44.76671134757563" lon="0.767513652032001"><ele>146.0</ele><time>2026-04-19T11:50:45.012Z</time></trkpt><trkpt lat="44.766683605565554" lon="0.7674039253400511"><ele>146.0</ele><time>2026-04-19T11:50:49.012Z</time></trkpt><trkpt lat="44.7665859400531" lon="0.7674526313213893"><ele>146.0</ele><time>2026-04-19T11:50:51.012Z</time></trkpt><trkpt lat="44.76650516406686" lon="0.7674456965688017"><ele>146.0</ele><time>2026-04-19T11:50:53.012Z</time></trkpt><trkpt lat="44.76644429622885" lon="0.7674755849665965"><ele>146.0</ele><time>2026-04-19T11:51:00.013Z</time></trkpt><trkpt lat="44.766403388393044" lon="0.7675537448505807"><ele>146.0</ele><time>2026-04-19T11:51:02.013Z</time></trkpt><trkpt lat="44.766432638708196" lon="0.7676782456107687"><ele>146.0</ele><time>2026-04-19T11:51:04.013Z</time></trkpt><trkpt lat="44.766451659795926" lon="0.7677797098554109"><ele>146.0</ele><time>2026-04-19T11:51:06.013Z</time></trkpt><trkpt lat="44.766423911848584" lon="0.767885635114248"><ele>146.0</ele><time>2026-04-19T11:51:09.013Z</time></trkpt><trkpt lat="44.766360474436425" lon="0.7679711802349499"><ele>146.0</ele><time>2026-04-19T11:51:12.013Z</time></trkpt><trkpt lat="44.766326899605936" lon="0.7680756057189256"><ele>146.0</ele><time>2026-04-19T11:51:15.013Z</time></trkpt><trkpt lat="44.76636448780156" lon="0.7681968320085146"><ele>146.0</ele><time>2026-04-19T11:51:17.013Z</time></trkpt><trkpt lat="44.766377862471735" lon="0.7683501168184578"><ele>146.0</ele><time>2026-04-19T11:51:19.013Z</time></trkpt><trkpt lat="44.766339401517584" lon="0.7685111344070998"><ele>145.16666666666666</ele><time>2026-04-19T11:51:21.013Z</time></trkpt><trkpt lat="44.76628203982367" lon="0.7685812071929791"><ele>144.33333333333331</ele><time>2026-04-19T11:51:22.013Z</time></trkpt><trkpt lat="44.76620250367045" lon="0.7686422395582115"><ele>143.5</ele><time>2026-04-19T11:51:23.013Z</time></trkpt><trkpt lat="44.766115938009484" lon="0.768698189288801"><ele>142.66666666666666</ele><time>2026-04-19T11:51:24.013Z</time></trkpt><trkpt lat="44.76605941758704" lon="0.7687588672737653"><ele>141.83333333333334</ele><time>2026-04-19T11:51:25.013Z</time></trkpt><trkpt lat="44.76601369638971" lon="0.7688408891388816"><ele>141.0</ele><time>2026-04-19T11:51:26.013Z</time></trkpt><trkpt lat="44.76596825806493" lon="0.7689300767549252"><ele>141.0</ele><time>2026-04-19T11:51:27.013Z</time></trkpt><trkpt lat="44.76592140831799" lon="0.7690203597431872"><ele>141.0</ele><time>2026-04-19T11:51:28.013Z</time></trkpt><trkpt lat="44.765875464567145" lon="0.7691146065781919"><ele>141.0</ele><time>2026-04-19T11:51:29.013Z</time></trkpt><trkpt lat="44.76582244085287" lon="0.7692148449037033"><ele>141.0</ele><time>2026-04-19T11:51:30.013Z</time></trkpt><trkpt lat="44.765773121411996" lon="0.769314813064205"><ele>141.0</ele><time>2026-04-19T11:51:31.013Z</time></trkpt><trkpt lat="44.76571768921768" lon="0.7694146533799443"><ele>141.0</ele><time>2026-04-19T11:51:32.013Z</time></trkpt><trkpt lat="44.76567854225277" lon="0.7695126764496653"><ele>140.4</ele><time>2026-04-19T11:51:33.013Z</time></trkpt><trkpt lat="44.76563551562945" lon="0.7696129397364923"><ele>139.8</ele><time>2026-04-19T11:51:34.013Z</time></trkpt><trkpt lat="44.765576892655645" lon="0.769714320262757"><ele>139.20000000000002</ele><time>2026-04-19T11:51:35.014Z</time></trkpt><trkpt lat="44.765524846251296" lon="0.7698229596465378"><ele>138.6</ele><time>2026-04-19T11:51:36.014Z</time></trkpt><trkpt lat="44.76547237765856" lon="0.7699260392881718"><ele>138.0</ele><time>2026-04-19T11:51:37.014Z</time></trkpt><trkpt lat="44.76541577787062" lon="0.77003136611599"><ele>138.0</ele><time>2026-04-19T11:51:38.014Z</time></trkpt><trkpt lat="44.7653631990163" lon="0.7701293131720938"><ele>138.0</ele><time>2026-04-19T11:51:39.014Z</time></trkpt><trkpt lat="44.765314954330904" lon="0.7702364504581621"><ele>138.0</ele><time>2026-04-19T11:51:40.014Z</time></trkpt><trkpt lat="44.7652665377958" lon="0.7703543275990733"><ele>138.0</ele><time>2026-04-19T11:51:41.014Z</time></trkpt><trkpt lat="44.76522245616513" lon="0.7704731632476619"><ele>138.0</ele><time>2026-04-19T11:51:42.014Z</time></trkpt><trkpt lat="44.76518766108223" lon="0.770600926643482"><ele>137.6</ele><time>2026-04-19T11:51:43.014Z</time></trkpt><trkpt lat="44.76515663760605" lon="0.7707397027646398"><ele>137.20000000000002</ele><time>2026-04-19T11:51:44.014Z</time></trkpt><trkpt lat="44.76512813559334" lon="0.7708847570477423"><ele>136.8</ele><time>2026-04-19T11:51:45.014Z</time></trkpt><trkpt lat="44.765100637414264" lon="0.771028653567012"><ele>136.4</ele><time>2026-04-19T11:51:46.014Z</time></trkpt><trkpt lat="44.76507907974648" lon="0.7711823447104341"><ele>136.0</ele><time>2026-04-19T11:51:47.014Z</time></trkpt><trkpt lat="44.76505910638563" lon="0.7713453694405165"><ele>135.5</ele><time>2026-04-19T11:51:48.014Z</time></trkpt><trkpt lat="44.7650438404305" lon="0.7715046848510696"><ele>135.0</ele><time>2026-04-19T11:51:49.014Z</time></trkpt><trkpt lat="44.76502626836327" lon="0.7716708027319962"><ele>134.5</ele><time>2026-04-19T11:51:50.014Z</time></trkpt><trkpt lat="44.765005867862854" lon="0.7718408179693433"><ele>134.0</ele><time>2026-04-19T11:51:51.014Z</time></trkpt><trkpt lat="44.76498541658949" lon="0.7720104305589522"><ele>134.0</ele><time>2026-04-19T11:51:52.014Z</time></trkpt><trkpt lat="44.764970018625604" lon="0.7721876588589799"><ele>134.0</ele><time>2026-04-19T11:51:53.014Z</time></trkpt><trkpt lat="44.76495132527059" lon="0.7723702908684452"><ele>134.0</ele><time>2026-04-19T11:51:54.014Z</time></trkpt><trkpt lat="44.76493056885683" lon="0.7725487435349875"><ele>134.0</ele><time>2026-04-19T11:51:55.014Z</time></trkpt><trkpt lat="44.764910530197575" lon="0.7727256330589759"><ele>133.2</ele><time>2026-04-19T11:51:56.014Z</time></trkpt><trkpt lat="44.764886848422165" lon="0.772907335548515"><ele>132.4</ele><time>2026-04-19T11:51:57.014Z</time></trkpt><trkpt lat="44.76487432627426" lon="0.7730537919751802"><ele>131.6</ele><time>2026-04-19T11:51:58.014Z</time></trkpt><trkpt lat="44.76486139267231" lon="0.7732003069985791"><ele>130.8</ele><time>2026-04-19T11:51:59.014Z</time></trkpt><trkpt lat="44.764853614503906" lon="0.7733483111668868"><ele>130.0</ele><time>2026-04-19T11:52:00.014Z</time></trkpt><trkpt lat="44.764843928170905" lon="0.7734935820082772"><ele>128.6</ele><time>2026-04-19T11:52:01.014Z</time></trkpt><trkpt lat="44.7648457373179" lon="0.7736318262136567"><ele>127.2</ele><time>2026-04-19T11:52:02.014Z</time></trkpt><trkpt lat="44.76483940632285" lon="0.7737898928198381"><ele>125.80000000000001</ele><time>2026-04-19T11:52:03.014Z</time></trkpt><trkpt lat="44.76484013692944" lon="0.7739442588333081"><ele>124.4</ele><time>2026-04-19T11:52:04.014Z</time></trkpt><trkpt lat="44.764851301283315" lon="0.7740931659633864"><ele>123.0</ele><time>2026-04-19T11:52:05.014Z</time></trkpt><trkpt lat="44.76486991072917" lon="0.7742471646968364"><ele>122.60000000000001</ele><time>2026-04-19T11:52:06.014Z</time></trkpt><trkpt lat="44.764896210296584" lon="0.7743944574581799"><ele>122.20000000000002</ele><time>2026-04-19T11:52:07.014Z</time></trkpt><trkpt lat="44.76492743760326" lon="0.7745391037688475"><ele>121.8</ele><time>2026-04-19T11:52:08.014Z</time></trkpt><trkpt lat="44.7649671394286" lon="0.7746855173390722"><ele>121.4</ele><time>2026-04-19T11:52:09.014Z</time></trkpt><trkpt lat="44.76500960949927" lon="0.7748188553509686"><ele>121.0</ele><time>2026-04-19T11:52:10.014Z</time></trkpt><trkpt lat="44.76505236900256" lon="0.7749500049503658"><ele>121.0</ele><time>2026-04-19T11:52:11.014Z</time></trkpt><trkpt lat="44.76509476015574" lon="0.7750865270718891"><ele>121.0</ele><time>2026-04-19T11:52:12.014Z</time></trkpt><trkpt lat="44.765115537820144" lon="0.7752483668018715"><ele>121.0</ele><time>2026-04-19T11:52:13.014Z</time></trkpt><trkpt lat="44.76516201250719" lon="0.7754060515382635"><ele>121.0</ele><time>2026-04-19T11:52:14.014Z</time></trkpt><trkpt lat="44.765215517949905" lon="0.7755850914615097"><ele>121.33333333333334</ele><time>2026-04-19T11:52:15.015Z</time></trkpt><trkpt lat="44.76527788732861" lon="0.7757823905062099"><ele>121.66666666666666</ele><time>2026-04-19T11:52:16.015Z</time></trkpt><trkpt lat="44.76534846990703" lon="0.775989876377164"><ele>122.0</ele><time>2026-04-19T11:52:17.015Z</time></trkpt><trkpt lat="44.765418668562894" lon="0.7762058073283187"><ele>123.33333333333333</ele><time>2026-04-19T11:52:18.015Z</time></trkpt><trkpt lat="44.76548405890653" lon="0.7764515695254463"><ele>124.66666666666666</ele><time>2026-04-19T11:52:19.015Z</time></trkpt><trkpt lat="44.76555928654457" lon="0.7766855156953603"><ele>126.0</ele><time>2026-04-19T11:52:20.015Z</time></trkpt><trkpt lat="44.765632639075605" lon="0.7769324403474686"><ele>126.33333333333334</ele><time>2026-04-19T11:52:21.015Z</time></trkpt><trkpt lat="44.7657094306634" lon="0.7771930006781783"><ele>126.66666666666667</ele><time>2026-04-19T11:52:22.015Z</time></trkpt><trkpt lat="44.76579113485846" lon="0.7774612697825318"><ele>127.0</ele><time>2026-04-19T11:52:23.015Z</time></trkpt><trkpt lat="44.76587342694188" lon="0.777729670775205"><ele>126.33333333333334</ele><time>2026-04-19T11:52:24.015Z</time></trkpt><trkpt lat="44.765962204945524" lon="0.7780072100502285"><ele>125.66666666666666</ele><time>2026-04-19T11:52:25.015Z</time></trkpt><trkpt lat="44.76604932093746" lon="0.7782904714748026"><ele>125.0</ele><time>2026-04-19T11:52:26.015Z</time></trkpt><trkpt lat="44.76613144405416" lon="0.7785821354877992"><ele>127.0</ele><time>2026-04-19T11:52:27.015Z</time></trkpt><trkpt lat="44.76620349279091" lon="0.7788805673931153"><ele>129.0</ele><time>2026-04-19T11:52:28.015Z</time></trkpt><trkpt lat="44.766262690023154" lon="0.7791831626048467"><ele>131.0</ele><time>2026-04-19T11:52:29.015Z</time></trkpt><trkpt lat="44.76630168247176" lon="0.7795142659433645"><ele>131.0</ele><time>2026-04-19T11:52:30.015Z</time></trkpt><trkpt lat="44.76633868452682" lon="0.7798514104384626"><ele>131.0</ele><time>2026-04-19T11:52:31.015Z</time></trkpt><trkpt lat="44.7663781706048" lon="0.7801831762963894"><ele>131.0</ele><time>2026-04-19T11:52:32.015Z</time></trkpt><trkpt lat="44.766421962779056" lon="0.7805134277127226"><ele>131.0</ele><time>2026-04-19T11:52:33.015Z</time></trkpt><trkpt lat="44.76646995432635" lon="0.780846507511842"><ele>133.0</ele><time>2026-04-19T11:52:34.015Z</time></trkpt><trkpt lat="44.7665089282456" lon="0.7811707963275911"><ele>135.0</ele><time>2026-04-19T11:52:35.015Z</time></trkpt><trkpt lat="44.76655568476934" lon="0.7815008652113007"><ele>135.0</ele><time>2026-04-19T11:52:36.015Z</time></trkpt><trkpt lat="44.766597997280236" lon="0.7818080503874831"><ele>135.0</ele><time>2026-04-19T11:52:37.015Z</time></trkpt><trkpt lat="44.76663162343671" lon="0.7821125682176762"><ele>135.0</ele><time>2026-04-19T11:52:38.015Z</time></trkpt><trkpt lat="44.76667658341945" lon="0.782399175524487"><ele>135.0</ele><time>2026-04-19T11:52:39.015Z</time></trkpt><trkpt lat="44.7667127043495" lon="0.7826868582756722"><ele>135.0</ele><time>2026-04-19T11:52:40.015Z</time></trkpt><trkpt lat="44.76674552833181" lon="0.7829677477609128"><ele>135.0</ele><time>2026-04-19T11:52:41.015Z</time></trkpt><trkpt lat="44.76678039222206" lon="0.7832474733774436"><ele>135.0</ele><time>2026-04-19T11:52:42.015Z</time></trkpt><trkpt lat="44.76680590590225" lon="0.7835213858602269"><ele>135.0</ele><time>2026-04-19T11:52:43.015Z</time></trkpt><trkpt lat="44.76683903399871" lon="0.7837859728042832"><ele>135.0</ele><time>2026-04-19T11:52:44.015Z</time></trkpt><trkpt lat="44.76688641411943" lon="0.7840342930202466"><ele>134.66666666666666</ele><time>2026-04-19T11:52:45.015Z</time></trkpt><trkpt lat="44.76694595385764" lon="0.7842749954836203"><ele>134.33333333333331</ele><time>2026-04-19T11:52:46.015Z</time></trkpt><trkpt lat="44.76702600185856" lon="0.7845038093209975"><ele>134.0</ele><time>2026-04-19T11:52:47.015Z</time></trkpt><trkpt lat="44.767131456689526" lon="0.7847132159375694"><ele>133.33333333333331</ele><time>2026-04-19T11:52:48.015Z</time></trkpt><trkpt lat="44.76726410145108" lon="0.7849052186039358"><ele>132.66666666666666</ele><time>2026-04-19T11:52:49.015Z</time></trkpt><trkpt lat="44.76740196855702" lon="0.785071560724979"><ele>132.0</ele><time>2026-04-19T11:52:50.015Z</time></trkpt><trkpt lat="44.76752354766608" lon="0.7852506488792237"><ele>132.0</ele><time>2026-04-19T11:52:51.015Z</time></trkpt><trkpt lat="44.76763351331637" lon="0.7854411089963558"><ele>132.0</ele><time>2026-04-19T11:52:52.015Z</time></trkpt><trkpt lat="44.767686997307955" lon="0.7856669603748784"><ele>132.0</ele><time>2026-04-19T11:52:53.015Z</time></trkpt><trkpt lat="44.767723974621575" lon="0.7858760974806324"><ele>132.0</ele><time>2026-04-19T11:52:54.015Z</time></trkpt><trkpt lat="44.76773419395209" lon="0.7861131734935313"><ele>132.0</ele><time>2026-04-19T11:52:55.016Z</time></trkpt><trkpt lat="44.76773240523625" lon="0.7863756650711372"><ele>132.0</ele><time>2026-04-19T11:52:56.016Z</time></trkpt><trkpt lat="44.76773447955577" lon="0.7866361817344192"><ele>132.33333333333334</ele><time>2026-04-19T11:52:57.016Z</time></trkpt><trkpt lat="44.767732962238355" lon="0.7868887441940375"><ele>132.66666666666669</ele><time>2026-04-19T11:52:58.016Z</time></trkpt><trkpt lat="44.767731529384264" lon="0.7871298947442738"><ele>133.0</ele><time>2026-04-19T11:52:59.016Z</time></trkpt><trkpt lat="44.767727160894445" lon="0.7873682397164476"><ele>133.0</ele><time>2026-04-19T11:53:00.016Z</time></trkpt><trkpt lat="44.7677092721238" lon="0.7875978446253026"><ele>133.0</ele><time>2026-04-19T11:53:01.016Z</time></trkpt><trkpt lat="44.767731331417565" lon="0.7878383497906228"><ele>133.0</ele><time>2026-04-19T11:53:02.016Z</time></trkpt><trkpt lat="44.76761599155755" lon="0.78806644912802"><ele>130.66666666666669</ele><time>2026-04-19T11:53:03.016Z</time></trkpt><trkpt lat="44.76753839603171" lon="0.7882877232287459"><ele>128.33333333333334</ele><time>2026-04-19T11:53:04.016Z</time></trkpt><trkpt lat="44.767450752701365" lon="0.7884921195273519"><ele>126.0</ele><time>2026-04-19T11:53:05.016Z</time></trkpt><trkpt lat="44.76735936797737" lon="0.7886890934900441"><ele>126.0</ele><time>2026-04-19T11:53:06.016Z</time></trkpt><trkpt lat="44.76721598516642" lon="0.7888082188377914"><ele>126.0</ele><time>2026-04-19T11:53:07.016Z</time></trkpt><trkpt lat="44.767094707490536" lon="0.7889358540364688"><ele>126.0</ele><time>2026-04-19T11:53:08.016Z</time></trkpt><trkpt lat="44.76696158420607" lon="0.7890507991574255"><ele>123.25</ele><time>2026-04-19T11:53:09.016Z</time></trkpt><trkpt lat="44.76684467232707" lon="0.7891495047010102"><ele>120.5</ele><time>2026-04-19T11:53:10.016Z</time></trkpt><trkpt lat="44.766719073818926" lon="0.789265658934494"><ele>117.75</ele><time>2026-04-19T11:53:11.016Z</time></trkpt><trkpt lat="44.766611510128776" lon="0.7893993795883334"><ele>115.0</ele><time>2026-04-19T11:53:12.016Z</time></trkpt><trkpt lat="44.76653125588913" lon="0.7895559432177507"><ele>115.0</ele><time>2026-04-19T11:53:13.016Z</time></trkpt><trkpt lat="44.766485693892015" lon="0.7897398829447663"><ele>115.0</ele><time>2026-04-19T11:53:14.016Z</time></trkpt><trkpt lat="44.76645065181554" lon="0.7899435327722385"><ele>115.0</ele><time>2026-04-19T11:53:15.016Z</time></trkpt><trkpt lat="44.7664364111422" lon="0.7901471992711372"><ele>115.0</ele><time>2026-04-19T11:53:16.016Z</time></trkpt><trkpt lat="44.76645283709715" lon="0.7903706458181586"><ele>114.66666666666667</ele><time>2026-04-19T11:53:17.016Z</time></trkpt><trkpt lat="44.766502543979435" lon="0.790605358615524"><ele>114.33333333333334</ele><time>2026-04-19T11:53:18.016Z</time></trkpt><trkpt lat="44.766576189318194" lon="0.7908696191545729"><ele>114.0</ele><time>2026-04-19T11:53:19.016Z</time></trkpt><trkpt lat="44.76665179280721" lon="0.791137439502691"><ele>111.66666666666666</ele><time>2026-04-19T11:53:20.016Z</time></trkpt><trkpt lat="44.76671768459499" lon="0.7914322760685538"><ele>109.33333333333333</ele><time>2026-04-19T11:53:21.016Z</time></trkpt><trkpt lat="44.766791357448966" lon="0.791725244328622"><ele>107.0</ele><time>2026-04-19T11:53:22.016Z</time></trkpt><trkpt lat="44.76685626669848" lon="0.7920047457970404"><ele>107.66666666666666</ele><time>2026-04-19T11:53:23.016Z</time></trkpt><trkpt lat="44.76691164874477" lon="0.7922495229790889"><ele>108.33333333333334</ele><time>2026-04-19T11:53:24.016Z</time></trkpt><trkpt lat="44.76695540295358" lon="0.7924443233131697"><ele>109.0</ele><time>2026-04-19T11:53:25.016Z</time></trkpt><trkpt lat="44.767012639485905" lon="0.7926121849915931"><ele>106.0</ele><time>2026-04-19T11:53:26.016Z</time></trkpt><trkpt lat="44.767106803773125" lon="0.7927609350216563"><ele>103.0</ele><time>2026-04-19T11:53:27.016Z</time></trkpt><trkpt lat="44.76723483387741" lon="0.7928791837344101"><ele>100.0</ele><time>2026-04-19T11:53:28.016Z</time></trkpt><trkpt lat="44.767372775381" lon="0.7929656372980446"><ele>97.0</ele><time>2026-04-19T11:53:29.016Z</time></trkpt><trkpt lat="44.767523111349945" lon="0.7930279932122702"><ele>97.0</ele><time>2026-04-19T11:53:30.016Z</time></trkpt><trkpt lat="44.76767759748202" lon="0.7930829818925258"><ele>97.0</ele><time>2026-04-19T11:53:31.016Z</time></trkpt><trkpt lat="44.767815918802924" lon="0.7931782884298231"><ele>97.0</ele><time>2026-04-19T11:53:32.016Z</time></trkpt><trkpt lat="44.76795682531885" lon="0.7933114113158605"><ele>95.66666666666667</ele><time>2026-04-19T11:53:33.016Z</time></trkpt><trkpt lat="44.76809682274761" lon="0.793471926700294"><ele>94.33333333333334</ele><time>2026-04-19T11:53:34.016Z</time></trkpt><trkpt lat="44.76822863067377" lon="0.7936265549629546"><ele>93.0</ele><time>2026-04-19T11:53:35.017Z</time></trkpt><trkpt lat="44.76835945282857" lon="0.7937823750571454"><ele>93.0</ele><time>2026-04-19T11:53:36.017Z</time></trkpt><trkpt lat="44.76847832433067" lon="0.7939440376000281"><ele>93.0</ele><time>2026-04-19T11:53:37.017Z</time></trkpt><trkpt lat="44.768595281739074" lon="0.794102553689121"><ele>93.0</ele><time>2026-04-19T11:53:38.017Z</time></trkpt><trkpt lat="44.76869843275552" lon="0.7942655263201583"><ele>95.0</ele><time>2026-04-19T11:53:39.017Z</time></trkpt><trkpt lat="44.76880071783844" lon="0.7944588268178597"><ele>97.0</ele><time>2026-04-19T11:53:40.017Z</time></trkpt><trkpt lat="44.76888546553954" lon="0.7946810002038766"><ele>99.0</ele><time>2026-04-19T11:53:41.017Z</time></trkpt><trkpt lat="44.7689535197825" lon="0.794911351674924"><ele>99.0</ele><time>2026-04-19T11:53:42.017Z</time></trkpt><trkpt lat="44.76902640512447" lon="0.7951443393090624"><ele>99.0</ele><time>2026-04-19T11:53:43.017Z</time></trkpt><trkpt lat="44.76911274231348" lon="0.7953429394888777"><ele>99.0</ele><time>2026-04-19T11:53:44.017Z</time></trkpt><trkpt lat="44.76920699894485" lon="0.7955337040086873"><ele>98.66666666666666</ele><time>2026-04-19T11:53:45.017Z</time></trkpt><trkpt lat="44.76930824353205" lon="0.7957065536820321"><ele>98.33333333333333</ele><time>2026-04-19T11:53:46.017Z</time></trkpt><trkpt lat="44.769412987358805" lon="0.7958649899330483"><ele>98.0</ele><time>2026-04-19T11:53:47.017Z</time></trkpt><trkpt lat="44.76952870455354" lon="0.7959934772163755"><ele>92.33333333333333</ele><time>2026-04-19T11:53:48.017Z</time></trkpt><trkpt lat="44.76965289522876" lon="0.7961018375980076"><ele>86.66666666666666</ele><time>2026-04-19T11:53:49.017Z</time></trkpt><trkpt lat="44.76979979722532" lon="0.7961806884880384"><ele>81.0</ele><time>2026-04-19T11:53:50.017Z</time></trkpt><trkpt lat="44.76994768295388" lon="0.7962496274471785"><ele>81.0</ele><time>2026-04-19T11:53:51.017Z</time></trkpt><trkpt lat="44.77010045550159" lon="0.7963094476633742"><ele>81.0</ele><time>2026-04-19T11:53:52.017Z</time></trkpt><trkpt lat="44.77023894568011" lon="0.7963649632176336"><ele>81.0</ele><time>2026-04-19T11:53:53.017Z</time></trkpt><trkpt lat="44.770368665788816" lon="0.7964349824915822"><ele>81.0</ele><time>2026-04-19T11:53:54.017Z</time></trkpt><trkpt lat="44.77049240015761" lon="0.7965374488305915"><ele>79.75</ele><time>2026-04-19T11:53:55.017Z</time></trkpt><trkpt lat="44.77058556251792" lon="0.7966939594005897"><ele>78.5</ele><time>2026-04-19T11:53:56.017Z</time></trkpt><trkpt lat="44.77067978234533" lon="0.7968556963560495"><ele>77.25</ele><time>2026-04-19T11:53:57.017Z</time></trkpt><trkpt lat="44.77074805501267" lon="0.7970524417552337"><ele>76.0</ele><time>2026-04-19T11:53:58.017Z</time></trkpt><trkpt lat="44.770782605080704" lon="0.7972586415498456"><ele>75.75</ele><time>2026-04-19T11:53:59.017Z</time></trkpt><trkpt lat="44.7707764482503" lon="0.7974626818084456"><ele>75.5</ele><time>2026-04-19T11:54:00.017Z</time></trkpt><trkpt lat="44.770751508759346" lon="0.7976734205037838"><ele>75.25</ele><time>2026-04-19T11:54:01.017Z</time></trkpt><trkpt lat="44.77072983693282" lon="0.797879739245106"><ele>75.0</ele><time>2026-04-19T11:54:02.017Z</time></trkpt><trkpt lat="44.77070357980634" lon="0.7980988966133372"><ele>74.75</ele><time>2026-04-19T11:54:03.017Z</time></trkpt><trkpt lat="44.770693061145394" lon="0.7982991582245332"><ele>74.5</ele><time>2026-04-19T11:54:04.017Z</time></trkpt><trkpt lat="44.77066355941549" lon="0.7984845893886086"><ele>74.25</ele><time>2026-04-19T11:54:05.017Z</time></trkpt><trkpt lat="44.77065065700648" lon="0.7986553663586313"><ele>74.0</ele><time>2026-04-19T11:54:06.017Z</time></trkpt><trkpt lat="44.77059635886557" lon="0.7988214336521676"><ele>74.8</ele><time>2026-04-19T11:54:07.017Z</time></trkpt><trkpt lat="44.770581130770715" lon="0.7989732045638892"><ele>75.60000000000001</ele><time>2026-04-19T11:54:08.017Z</time></trkpt><trkpt lat="44.77056273627511" lon="0.799113197120849"><ele>76.4</ele><time>2026-04-19T11:54:09.017Z</time></trkpt><trkpt lat="44.77054696410563" lon="0.7992395534868415"><ele>77.2</ele><time>2026-04-19T11:54:10.017Z</time></trkpt><trkpt lat="44.7705426811615" lon="0.799342133092634"><ele>78.0</ele><time>2026-04-19T11:54:11.017Z</time></trkpt><trkpt lat="44.77052893896542" lon="0.799484098619479"><ele>81.2</ele><time>2026-04-19T11:54:13.017Z</time></trkpt><trkpt lat="44.770525645042625" lon="0.7996270733767451"><ele>84.4</ele><time>2026-04-19T11:54:16.018Z</time></trkpt><trkpt lat="44.77051554844861" lon="0.7997200813590631"><ele>87.60000000000001</ele><time>2026-04-19T11:54:17.018Z</time></trkpt><trkpt lat="44.77050061868604" lon="0.7998394106038158"><ele>90.8</ele><time>2026-04-19T11:54:18.018Z</time></trkpt><trkpt lat="44.770472816921306" lon="0.7999794169967727"><ele>94.0</ele><time>2026-04-19T11:54:19.018Z</time></trkpt><trkpt lat="44.770429334166806" lon="0.8001274500274663"><ele>96.6</ele><time>2026-04-19T11:54:20.018Z</time></trkpt><trkpt lat="44.770363542167736" lon="0.8002610349226246"><ele>99.2</ele><time>2026-04-19T11:54:21.018Z</time></trkpt><trkpt lat="44.77028796467123" lon="0.8003707413884266"><ele>101.79999999999998</ele><time>2026-04-19T11:54:22.018Z</time></trkpt><trkpt lat="44.770229084519265" lon="0.8004831081236171"><ele>104.39999999999999</ele><time>2026-04-19T11:54:23.018Z</time></trkpt><trkpt lat="44.770181651282876" lon="0.8006194595526313"><ele>107.0</ele><time>2026-04-19T11:54:24.018Z</time></trkpt><trkpt lat="44.77015462408074" lon="0.800767729466955"><ele>107.75</ele><time>2026-04-19T11:54:25.018Z</time></trkpt><trkpt lat="44.770150524962666" lon="0.8009303408431172"><ele>108.5</ele><time>2026-04-19T11:54:26.018Z</time></trkpt><trkpt lat="44.77017314558913" lon="0.8010986041270136"><ele>109.25</ele><time>2026-04-19T11:54:27.018Z</time></trkpt><trkpt lat="44.77022728538425" lon="0.8012687260737222"><ele>110.0</ele><time>2026-04-19T11:54:28.018Z</time></trkpt><trkpt lat="44.770294618992295" lon="0.8014486144564668"><ele>110.0</ele><time>2026-04-19T11:54:29.018Z</time></trkpt><trkpt lat="44.77036282748112" lon="0.801629638084979"><ele>110.0</ele><time>2026-04-19T11:54:30.018Z</time></trkpt><trkpt lat="44.77042220197543" lon="0.8018317212140886"><ele>110.0</ele><time>2026-04-19T11:54:31.018Z</time></trkpt><trkpt lat="44.77046714728949" lon="0.8020287878966774"><ele>110.0</ele><time>2026-04-19T11:54:32.018Z</time></trkpt><trkpt lat="44.77049648530699" lon="0.8022178117412513"><ele>108.5</ele><time>2026-04-19T11:54:33.018Z</time></trkpt><trkpt lat="44.77053204716547" lon="0.8024815536277581"><ele>107.0</ele><time>2026-04-19T11:54:35.018Z</time></trkpt><trkpt lat="44.77055774964391" lon="0.8026178077533863"><ele>105.5</ele><time>2026-04-19T11:54:36.018Z</time></trkpt><trkpt lat="44.770588350295924" lon="0.802759322953212"><ele>104.0</ele><time>2026-04-19T11:54:37.018Z</time></trkpt><trkpt lat="44.77061920278931" lon="0.8029052687356629"><ele>102.6</ele><time>2026-04-19T11:54:38.018Z</time></trkpt><trkpt lat="44.77064537701013" lon="0.8030556600192091"><ele>101.2</ele><time>2026-04-19T11:54:39.018Z</time></trkpt><trkpt lat="44.77068821902085" lon="0.8033106032031233"><ele>99.8</ele><time>2026-04-19T11:54:41.018Z</time></trkpt><trkpt lat="44.77071102342096" lon="0.8034177606555063"><ele>98.39999999999999</ele><time>2026-04-19T11:54:42.018Z</time></trkpt><trkpt lat="44.770749456665904" lon="0.8035068112780763"><ele>97.0</ele><time>2026-04-19T11:54:43.018Z</time></trkpt><trkpt lat="44.77078160439365" lon="0.8036012263613747"><ele>96.19999999999999</ele><time>2026-04-19T11:54:44.018Z</time></trkpt><trkpt lat="44.77083184560779" lon="0.8037002637187043"><ele>95.4</ele><time>2026-04-19T11:54:45.018Z</time></trkpt><trkpt lat="44.77089295002368" lon="0.8038218205707442"><ele>94.6</ele><time>2026-04-19T11:54:46.018Z</time></trkpt><trkpt lat="44.770957070591976" lon="0.8039520636159089"><ele>93.80000000000001</ele><time>2026-04-19T11:54:47.018Z</time></trkpt><trkpt lat="44.771027342531866" lon="0.804070050270613"><ele>93.0</ele><time>2026-04-19T11:54:48.018Z</time></trkpt><trkpt lat="44.771112020900794" lon="0.8041878363927831"><ele>96.4</ele><time>2026-04-19T11:54:49.018Z</time></trkpt><trkpt lat="44.77119161267975" lon="0.8043123006298308"><ele>99.80000000000001</ele><time>2026-04-19T11:54:50.018Z</time></trkpt><trkpt lat="44.77127186980375" lon="0.8044235253846741"><ele>103.2</ele><time>2026-04-19T11:54:51.018Z</time></trkpt><trkpt lat="44.77131145014899" lon="0.8045538876021334"><ele>106.6</ele><time>2026-04-19T11:54:52.018Z</time></trkpt><trkpt lat="44.77134951392596" lon="0.8046905406648381"><ele>110.0</ele><time>2026-04-19T11:54:53.018Z</time></trkpt><trkpt lat="44.771369336667014" lon="0.8048392455363058"><ele>110.0</ele><time>2026-04-19T11:54:54.018Z</time></trkpt><trkpt lat="44.77136629246336" lon="0.8049855674615471"><ele>110.0</ele><time>2026-04-19T11:54:55.018Z</time></trkpt><trkpt lat="44.77134750280981" lon="0.8051205606124466"><ele>110.0</ele><time>2026-04-19T11:54:56.019Z</time></trkpt><trkpt lat="44.77130954830759" lon="0.8052907652789535"><ele>110.0</ele><time>2026-04-19T11:54:57.019Z</time></trkpt><trkpt lat="44.771277705370565" lon="0.8054685443936506"><ele>111.6</ele><time>2026-04-19T11:54:58.019Z</time></trkpt><trkpt lat="44.77123915432238" lon="0.805607960666886"><ele>113.2</ele><time>2026-04-19T11:54:59.019Z</time></trkpt><trkpt lat="44.77119852900546" lon="0.8057092899661535"><ele>114.80000000000001</ele><time>2026-04-19T11:55:00.019Z</time></trkpt><trkpt lat="44.771191193639645" lon="0.80581494690032"><ele>116.4</ele><time>2026-04-19T11:55:02.019Z</time></trkpt><trkpt lat="44.77121623307633" lon="0.8056914678611975"><ele>118.0</ele><time>2026-04-19T11:55:07.019Z</time></trkpt><trkpt lat="44.771263055004596" lon="0.8055652049697519"><ele>118.0</ele><time>2026-04-19T11:55:08.019Z</time></trkpt><trkpt lat="44.77129873594304" lon="0.8054294890427293"><ele>118.00000000000001</ele><time>2026-04-19T11:55:09.019Z</time></trkpt><trkpt lat="44.771321116520696" lon="0.8053054763006903"><ele>118.00000000000001</ele><time>2026-04-19T11:55:10.019Z</time></trkpt><trkpt lat="44.77135505654548" lon="0.8051688630443786"><ele>118.0</ele><time>2026-04-19T11:55:11.019Z</time></trkpt><trkpt lat="44.77137396915433" lon="0.8050465666592622"><ele>118.0</ele><time>2026-04-19T11:55:12.019Z</time></trkpt><trkpt lat="44.771370798178545" lon="0.8049181300102127"><ele>117.80000000000001</ele><time>2026-04-19T11:55:13.019Z</time></trkpt><trkpt lat="44.77136591319653" lon="0.8047910825900073"><ele>117.60000000000001</ele><time>2026-04-19T11:55:14.019Z</time></trkpt><trkpt lat="44.771347404380805" lon="0.8046584282190421"><ele>117.39999999999999</ele><time>2026-04-19T11:55:15.019Z</time></trkpt><trkpt lat="44.7713294628322" lon="0.8045047522562652"><ele>117.19999999999999</ele><time>2026-04-19T11:55:16.019Z</time></trkpt><trkpt lat="44.77127270126882" lon="0.804375236431942"><ele>117.0</ele><time>2026-04-19T11:55:17.019Z</time></trkpt><trkpt lat="44.77118267600151" lon="0.8042433690022043"><ele>117.0</ele><time>2026-04-19T11:55:18.019Z</time></trkpt><trkpt lat="44.771092989852626" lon="0.8041107724317359"><ele>117.0</ele><time>2026-04-19T11:55:19.019Z</time></trkpt><trkpt lat="44.77101291617434" lon="0.8039862883188316"><ele>117.0</ele><time>2026-04-19T11:55:20.019Z</time></trkpt><trkpt lat="44.77093463036518" lon="0.8038550421712259"><ele>117.0</ele><time>2026-04-19T11:55:21.019Z</time></trkpt><trkpt lat="44.770866683329984" lon="0.8037176588291441"><ele>112.0</ele><time>2026-04-19T11:55:22.019Z</time></trkpt><trkpt lat="44.770804462514704" lon="0.8035731150576936"><ele>107.0</ele><time>2026-04-19T11:55:23.019Z</time></trkpt><trkpt lat="44.77075294320158" lon="0.803414139646031"><ele>102.0</ele><time>2026-04-19T11:55:24.019Z</time></trkpt><trkpt lat="44.77070865256252" lon="0.8032369456598666"><ele>97.0</ele><time>2026-04-19T11:55:25.019Z</time></trkpt><trkpt lat="44.77067323749894" lon="0.8030516959707964"><ele>97.0</ele><time>2026-04-19T11:55:26.019Z</time></trkpt><trkpt lat="44.770637734498344" lon="0.8028585062978281"><ele>97.0</ele><time>2026-04-19T11:55:27.019Z</time></trkpt><trkpt lat="44.77060184303711" lon="0.802658910025178"><ele>97.0</ele><time>2026-04-19T11:55:28.019Z</time></trkpt><trkpt lat="44.7705645027729" lon="0.8024512562124312"><ele>97.0</ele><time>2026-04-19T11:55:29.019Z</time></trkpt><trkpt lat="44.77052627378918" lon="0.8022386606004657"><ele>98.75</ele><time>2026-04-19T11:55:30.019Z</time></trkpt><trkpt lat="44.77047033624661" lon="0.8020391319865172"><ele>100.5</ele><time>2026-04-19T11:55:31.019Z</time></trkpt><trkpt lat="44.770431453142166" lon="0.8018496383969924"><ele>102.25</ele><time>2026-04-19T11:55:32.019Z</time></trkpt><trkpt lat="44.77038763533286" lon="0.8016765569805787"><ele>104.0</ele><time>2026-04-19T11:55:33.019Z</time></trkpt><trkpt lat="44.77035116958735" lon="0.801497247779972"><ele>104.6</ele><time>2026-04-19T11:55:34.019Z</time></trkpt><trkpt lat="44.770301619744664" lon="0.8013371886768337"><ele>105.2</ele><time>2026-04-19T11:55:35.019Z</time></trkpt><trkpt lat="44.77025749196585" lon="0.8011939713379238"><ele>105.79999999999998</ele><time>2026-04-19T11:55:36.02Z</time></trkpt><trkpt lat="44.77022015586792" lon="0.8010651248962977"><ele>106.39999999999999</ele><time>2026-04-19T11:55:37.02Z</time></trkpt><trkpt lat="44.77019731469472" lon="0.8009319449679819"><ele>107.0</ele><time>2026-04-19T11:55:38.02Z</time></trkpt><trkpt lat="44.770196203847355" lon="0.8007909142150444"><ele>107.0</ele><time>2026-04-19T11:55:39.02Z</time></trkpt><trkpt lat="44.77021181330113" lon="0.8006573672513594"><ele>107.0</ele><time>2026-04-19T11:55:40.02Z</time></trkpt><trkpt lat="44.77025547734358" lon="0.8005058987250311"><ele>107.0</ele><time>2026-04-19T11:55:41.02Z</time></trkpt><trkpt lat="44.770393466909255" lon="0.800259938101847"><ele>107.0</ele><time>2026-04-19T11:55:43.02Z</time></trkpt><trkpt lat="44.77044935903662" lon="0.8001483771426937"><ele>104.39999999999999</ele><time>2026-04-19T11:55:44.02Z</time></trkpt><trkpt lat="44.77049513811849" lon="0.8000519498226274"><ele>101.79999999999998</ele><time>2026-04-19T11:55:45.02Z</time></trkpt><trkpt lat="44.77052431683105" lon="0.7999680534138579"><ele>99.2</ele><time>2026-04-19T11:55:46.02Z</time></trkpt><trkpt lat="44.77054413607517" lon="0.7998449759889371"><ele>96.6</ele><time>2026-04-19T11:55:48.02Z</time></trkpt><trkpt lat="44.77054473532708" lon="0.7997285709311021"><ele>94.0</ele><time>2026-04-19T11:55:52.02Z</time></trkpt><trkpt lat="44.77040552463254" lon="0.7997761732195628"><ele>94.0</ele><time>2026-04-19T11:55:56.02Z</time></trkpt><trkpt lat="44.770367926383784" lon="0.7998804831084382"><ele>94.0</ele><time>2026-04-19T11:55:57.02Z</time></trkpt><trkpt lat="44.770301281471774" lon="0.8000110720718261"><ele>94.0</ele><time>2026-04-19T11:55:58.02Z</time></trkpt><trkpt lat="44.77022690333045" lon="0.8001630445738949"><ele>94.0</ele><time>2026-04-19T11:55:59.02Z</time></trkpt><trkpt lat="44.77015436872858" lon="0.800303509794494"><ele>90.75</ele><time>2026-04-19T11:56:00.02Z</time></trkpt><trkpt lat="44.77006983419807" lon="0.8004493086945238"><ele>87.5</ele><time>2026-04-19T11:56:01.02Z</time></trkpt><trkpt lat="44.76996722322007" lon="0.8005931572101043"><ele>84.25</ele><time>2026-04-19T11:56:02.02Z</time></trkpt><trkpt lat="44.76984416177947" lon="0.8007156717271523"><ele>81.0</ele><time>2026-04-19T11:56:03.02Z</time></trkpt><trkpt lat="44.76970704282794" lon="0.8008362675524902"><ele>81.0</ele><time>2026-04-19T11:56:04.02Z</time></trkpt><trkpt lat="44.76954631892487" lon="0.8009400800149181"><ele>81.0</ele><time>2026-04-19T11:56:05.02Z</time></trkpt><trkpt lat="44.76937817300343" lon="0.801015823624678"><ele>81.0</ele><time>2026-04-19T11:56:06.02Z</time></trkpt><trkpt lat="44.76921078628985" lon="0.8010883998607933"><ele>83.33333333333333</ele><time>2026-04-19T11:56:07.02Z</time></trkpt><trkpt lat="44.76905782113539" lon="0.8011755238862526"><ele>85.66666666666666</ele><time>2026-04-19T11:56:08.02Z</time></trkpt><trkpt lat="44.768906878752794" lon="0.8012596797611611"><ele>88.0</ele><time>2026-04-19T11:56:09.02Z</time></trkpt><trkpt lat="44.7687531583104" lon="0.8013596290264831"><ele>88.0</ele><time>2026-04-19T11:56:10.02Z</time></trkpt><trkpt lat="44.768610209394055" lon="0.8014484108324272"><ele>88.0</ele><time>2026-04-19T11:56:11.02Z</time></trkpt><trkpt lat="44.768489535277524" lon="0.8015442847799022"><ele>88.0</ele><time>2026-04-19T11:56:12.02Z</time></trkpt><trkpt lat="44.76835773429449" lon="0.801642475291491"><ele>88.0</ele><time>2026-04-19T11:56:13.02Z</time></trkpt><trkpt lat="44.76822798292207" lon="0.8017626260173796"><ele>89.66666666666666</ele><time>2026-04-19T11:56:14.02Z</time></trkpt><trkpt lat="44.76810170783402" lon="0.8019079163579846"><ele>91.33333333333333</ele><time>2026-04-19T11:56:15.02Z</time></trkpt><trkpt lat="44.767964546565594" lon="0.8020537408275253"><ele>93.0</ele><time>2026-04-19T11:56:16.021Z</time></trkpt><trkpt lat="44.76783279080576" lon="0.8022102260725593"><ele>92.66666666666667</ele><time>2026-04-19T11:56:17.021Z</time></trkpt><trkpt lat="44.767692586786815" lon="0.8023830434123589"><ele>92.33333333333334</ele><time>2026-04-19T11:56:18.021Z</time></trkpt><trkpt lat="44.76754656651518" lon="0.8025586056890411"><ele>92.0</ele><time>2026-04-19T11:56:19.021Z</time></trkpt><trkpt lat="44.767406119578936" lon="0.8027307857841327"><ele>92.0</ele><time>2026-04-19T11:56:20.021Z</time></trkpt><trkpt lat="44.76726446275826" lon="0.8029012193497135"><ele>92.0</ele><time>2026-04-19T11:56:21.021Z</time></trkpt><trkpt lat="44.767113426092685" lon="0.803059981578442"><ele>92.0</ele><time>2026-04-19T11:56:22.021Z</time></trkpt><trkpt lat="44.76698809089514" lon="0.8032213709713001"><ele>92.0</ele><time>2026-04-19T11:56:23.021Z</time></trkpt><trkpt lat="44.76686996701674" lon="0.8033731523619146"><ele>92.0</ele><time>2026-04-19T11:56:24.021Z</time></trkpt><trkpt lat="44.76675089796137" lon="0.8035085216131282"><ele>92.0</ele><time>2026-04-19T11:56:25.021Z</time></trkpt><trkpt lat="44.7666248792527" lon="0.8036305215597983"><ele>91.66666666666667</ele><time>2026-04-19T11:56:26.021Z</time></trkpt><trkpt lat="44.7664829792588" lon="0.803705833449632"><ele>91.33333333333333</ele><time>2026-04-19T11:56:27.021Z</time></trkpt><trkpt lat="44.76634137443384" lon="0.8037802821834666"><ele>91.0</ele><time>2026-04-19T11:56:28.021Z</time></trkpt><trkpt lat="44.76619302489283" lon="0.803848400779448"><ele>91.0</ele><time>2026-04-19T11:56:29.021Z</time></trkpt><trkpt lat="44.76604804501169" lon="0.8039328282588225"><ele>91.0</ele><time>2026-04-19T11:56:30.021Z</time></trkpt><trkpt lat="44.76590024099016" lon="0.8039953879421092"><ele>91.0</ele><time>2026-04-19T11:56:31.021Z</time></trkpt><trkpt lat="44.76575861305783" lon="0.8040642110906762"><ele>88.66666666666666</ele><time>2026-04-19T11:56:32.021Z</time></trkpt><trkpt lat="44.765609322405844" lon="0.8041137844028009"><ele>86.33333333333333</ele><time>2026-04-19T11:56:33.021Z</time></trkpt><trkpt lat="44.76547034047544" lon="0.8042131644868279"><ele>84.0</ele><time>2026-04-19T11:56:34.021Z</time></trkpt><trkpt lat="44.76532640888622" lon="0.8042939316151565"><ele>85.0</ele><time>2026-04-19T11:56:35.021Z</time></trkpt><trkpt lat="44.765187350380835" lon="0.8043798554226128"><ele>86.0</ele><time>2026-04-19T11:56:36.021Z</time></trkpt><trkpt lat="44.76504598064939" lon="0.8044688468127972"><ele>87.0</ele><time>2026-04-19T11:56:37.021Z</time></trkpt><trkpt lat="44.76491112940877" lon="0.804564624438295"><ele>87.0</ele><time>2026-04-19T11:56:38.021Z</time></trkpt><trkpt lat="44.764774075509834" lon="0.8046523205945652"><ele>87.0</ele><time>2026-04-19T11:56:39.021Z</time></trkpt><trkpt lat="44.764645175880446" lon="0.8047384104569363"><ele>87.0</ele><time>2026-04-19T11:56:40.021Z</time></trkpt><trkpt lat="44.76453206928162" lon="0.8048248145817365"><ele>87.0</ele><time>2026-04-19T11:56:41.021Z</time></trkpt><trkpt lat="44.76441498283774" lon="0.8049236248952119"><ele>87.0</ele><time>2026-04-19T11:56:42.021Z</time></trkpt><trkpt lat="44.76431187026056" lon="0.8050426831562072"><ele>87.0</ele><time>2026-04-19T11:56:43.021Z</time></trkpt><trkpt lat="44.76421646124486" lon="0.805176273909524"><ele>87.0</ele><time>2026-04-19T11:56:44.021Z</time></trkpt><trkpt lat="44.764094845678905" lon="0.8053012174863355"><ele>87.0</ele><time>2026-04-19T11:56:45.021Z</time></trkpt><trkpt lat="44.76399591861727" lon="0.8054635444180193"><ele>87.0</ele><time>2026-04-19T11:56:46.021Z</time></trkpt><trkpt lat="44.763905897212595" lon="0.8056194759640478"><ele>87.0</ele><time>2026-04-19T11:56:47.021Z</time></trkpt><trkpt lat="44.76382207854422" lon="0.805789554070788"><ele>87.0</ele><time>2026-04-19T11:56:48.021Z</time></trkpt><trkpt lat="44.763746979065075" lon="0.8059438213138307"><ele>87.0</ele><time>2026-04-19T11:56:49.021Z</time></trkpt><trkpt lat="44.763682538891636" lon="0.80611154703667"><ele>86.25</ele><time>2026-04-19T11:56:50.021Z</time></trkpt><trkpt lat="44.763627442970915" lon="0.806298023446322"><ele>85.5</ele><time>2026-04-19T11:56:51.021Z</time></trkpt><trkpt lat="44.76357056454294" lon="0.8064957860449574"><ele>84.75</ele><time>2026-04-19T11:56:52.021Z</time></trkpt><trkpt lat="44.763523783681535" lon="0.8066985547560086"><ele>84.0</ele><time>2026-04-19T11:56:53.021Z</time></trkpt><trkpt lat="44.76347089258673" lon="0.8069261176024543"><ele>84.0</ele><time>2026-04-19T11:56:54.021Z</time></trkpt><trkpt lat="44.76342249102404" lon="0.807133757867252"><ele>84.0</ele><time>2026-04-19T11:56:55.021Z</time></trkpt><trkpt lat="44.76336346587176" lon="0.8073308872029923"><ele>84.0</ele><time>2026-04-19T11:56:56.022Z</time></trkpt><trkpt lat="44.76330135487223" lon="0.8075215817361476"><ele>85.5</ele><time>2026-04-19T11:56:57.022Z</time></trkpt><trkpt lat="44.763231574661745" lon="0.8076966549748985"><ele>87.0</ele><time>2026-04-19T11:56:58.022Z</time></trkpt><trkpt lat="44.76315965061509" lon="0.807863151421836"><ele>88.5</ele><time>2026-04-19T11:56:59.022Z</time></trkpt><trkpt lat="44.76307776986805" lon="0.8080249204669948"><ele>90.0</ele><time>2026-04-19T11:57:00.022Z</time></trkpt><trkpt lat="44.76300045566234" lon="0.8081820638066226"><ele>90.0</ele><time>2026-04-19T11:57:01.022Z</time></trkpt><trkpt lat="44.76292358498585" lon="0.8083473243895023"><ele>90.0</ele><time>2026-04-19T11:57:02.022Z</time></trkpt><trkpt lat="44.762842567182936" lon="0.8085297989502751"><ele>90.0</ele><time>2026-04-19T11:57:03.022Z</time></trkpt><trkpt lat="44.76276075252676" lon="0.8087101173771831"><ele>90.0</ele><time>2026-04-19T11:57:04.022Z</time></trkpt><trkpt lat="44.76267409713116" lon="0.8088862450657287"><ele>88.75</ele><time>2026-04-19T11:57:05.022Z</time></trkpt><trkpt lat="44.76258974573729" lon="0.8090574480089711"><ele>87.5</ele><time>2026-04-19T11:57:06.022Z</time></trkpt><trkpt lat="44.76250696704045" lon="0.8092161039876811"><ele>86.25</ele><time>2026-04-19T11:57:07.022Z</time></trkpt><trkpt lat="44.76242911845063" lon="0.8093640986736272"><ele>85.0</ele><time>2026-04-19T11:57:08.022Z</time></trkpt><trkpt lat="44.76235144293011" lon="0.8095042655408978"><ele>88.0</ele><time>2026-04-19T11:57:09.022Z</time></trkpt><trkpt lat="44.76226992213728" lon="0.8096457727981154"><ele>91.0</ele><time>2026-04-19T11:57:10.022Z</time></trkpt><trkpt lat="44.76218166695436" lon="0.8097827448540161"><ele>94.0</ele><time>2026-04-19T11:57:11.022Z</time></trkpt><trkpt lat="44.76207527551063" lon="0.8099014634700392"><ele>97.0</ele><time>2026-04-19T11:57:12.022Z</time></trkpt><trkpt lat="44.76194917689084" lon="0.8100492092730401"><ele>97.0</ele><time>2026-04-19T11:57:13.022Z</time></trkpt><trkpt lat="44.76182921280824" lon="0.8102004345266528"><ele>97.0</ele><time>2026-04-19T11:57:14.022Z</time></trkpt><trkpt lat="44.76169959757192" lon="0.8103426506412506"><ele>97.0</ele><time>2026-04-19T11:57:15.022Z</time></trkpt><trkpt lat="44.76156274879975" lon="0.8104824147070714"><ele>97.0</ele><time>2026-04-19T11:57:16.022Z</time></trkpt><trkpt lat="44.76140855468022" lon="0.8106093771533778"><ele>97.0</ele><time>2026-04-19T11:57:17.022Z</time></trkpt><trkpt lat="44.761236723839225" lon="0.8107236017247512"><ele>97.0</ele><time>2026-04-19T11:57:18.022Z</time></trkpt><trkpt lat="44.761057955633504" lon="0.8107928220504902"><ele>93.33333333333334</ele><time>2026-04-19T11:57:19.022Z</time></trkpt><trkpt lat="44.76088971909342" lon="0.8108725621673906"><ele>89.66666666666667</ele><time>2026-04-19T11:57:20.022Z</time></trkpt><trkpt lat="44.76072818403273" lon="0.8109594694697705"><ele>86.0</ele><time>2026-04-19T11:57:21.022Z</time></trkpt><trkpt lat="44.76056393723171" lon="0.8109869058178669"><ele>86.0</ele><time>2026-04-19T11:57:22.022Z</time></trkpt><trkpt lat="44.760411230984346" lon="0.8110060861900235"><ele>86.0</ele><time>2026-04-19T11:57:23.022Z</time></trkpt><trkpt lat="44.760251140130954" lon="0.810994354643094"><ele>86.0</ele><time>2026-04-19T11:57:24.022Z</time></trkpt><trkpt lat="44.760088309286616" lon="0.8109597914548409"><ele>86.0</ele><time>2026-04-19T11:57:25.022Z</time></trkpt><trkpt lat="44.75991872248735" lon="0.8108964544993039"><ele>86.0</ele><time>2026-04-19T11:57:26.022Z</time></trkpt><trkpt lat="44.75974355017747" lon="0.8108111767820377"><ele>86.0</ele><time>2026-04-19T11:57:27.022Z</time></trkpt><trkpt lat="44.75957173700926" lon="0.810716582938704"><ele>86.0</ele><time>2026-04-19T11:57:28.022Z</time></trkpt><trkpt lat="44.75938782050964" lon="0.8106125614250681"><ele>86.0</ele><time>2026-04-19T11:57:29.022Z</time></trkpt><trkpt lat="44.75920083547189" lon="0.8105043761538413"><ele>86.0</ele><time>2026-04-19T11:57:30.022Z</time></trkpt><trkpt lat="44.75901288425969" lon="0.8103917783486915"><ele>86.33333333333334</ele><time>2026-04-19T11:57:31.022Z</time></trkpt><trkpt lat="44.75882812993489" lon="0.8102991201269063"><ele>86.66666666666667</ele><time>2026-04-19T11:57:32.022Z</time></trkpt><trkpt lat="44.75866578417896" lon="0.8101717226913971"><ele>87.0</ele><time>2026-04-19T11:57:33.022Z</time></trkpt><trkpt lat="44.75850108657914" lon="0.8100865732356402"><ele>87.0</ele><time>2026-04-19T11:57:34.022Z</time></trkpt><trkpt lat="44.75835017614625" lon="0.809980793026509"><ele>87.0</ele><time>2026-04-19T11:57:35.022Z</time></trkpt><trkpt lat="44.758204709463385" lon="0.8098739569528997"><ele>87.0</ele><time>2026-04-19T11:57:36.023Z</time></trkpt><trkpt lat="44.75805619449046" lon="0.8097769576884508"><ele>87.0</ele><time>2026-04-19T11:57:37.023Z</time></trkpt><trkpt lat="44.757901586893844" lon="0.8096943485012552"><ele>87.0</ele><time>2026-04-19T11:57:38.023Z</time></trkpt><trkpt lat="44.75774425822071" lon="0.8096239611631558"><ele>87.0</ele><time>2026-04-19T11:57:39.023Z</time></trkpt><trkpt lat="44.757581535387146" lon="0.809572906237897"><ele>90.33333333333334</ele><time>2026-04-19T11:57:40.023Z</time></trkpt><trkpt lat="44.757419885447156" lon="0.8095455602951551"><ele>93.66666666666667</ele><time>2026-04-19T11:57:41.023Z</time></trkpt><trkpt lat="44.75723465242937" lon="0.8095286241194427"><ele>97.0</ele><time>2026-04-19T11:57:42.023Z</time></trkpt><trkpt lat="44.75704905402734" lon="0.8095400622119616"><ele>96.0</ele><time>2026-04-19T11:57:43.023Z</time></trkpt><trkpt lat="44.75686625526016" lon="0.8095695607679111"><ele>95.0</ele><time>2026-04-19T11:57:44.023Z</time></trkpt><trkpt lat="44.75668646934423" lon="0.8095965676852168"><ele>94.0</ele><time>2026-04-19T11:57:45.023Z</time></trkpt><trkpt lat="44.756505656009146" lon="0.8096453366952611"><ele>94.0</ele><time>2026-04-19T11:57:46.023Z</time></trkpt><trkpt lat="44.75632559660784" lon="0.8096927292694244"><ele>94.0</ele><time>2026-04-19T11:57:47.023Z</time></trkpt><trkpt lat="44.75616185368904" lon="0.8097576352681962"><ele>94.0</ele><time>2026-04-19T11:57:48.023Z</time></trkpt><trkpt lat="44.75600955731233" lon="0.8098291998202756"><ele>92.0</ele><time>2026-04-19T11:57:49.023Z</time></trkpt><trkpt lat="44.75586645632869" lon="0.8099070227196187"><ele>90.0</ele><time>2026-04-19T11:57:50.023Z</time></trkpt><trkpt lat="44.755741043176194" lon="0.8100256261471738"><ele>88.0</ele><time>2026-04-19T11:57:51.023Z</time></trkpt><trkpt lat="44.75563164124322" lon="0.8101799960244602"><ele>92.66666666666666</ele><time>2026-04-19T11:57:52.023Z</time></trkpt><trkpt lat="44.755529554281786" lon="0.8103548672905203"><ele>97.33333333333333</ele><time>2026-04-19T11:57:53.023Z</time></trkpt><trkpt lat="44.75546384611806" lon="0.8105463228940257"><ele>102.0</ele><time>2026-04-19T11:57:54.023Z</time></trkpt><trkpt lat="44.75542090315578" lon="0.8107688588394731"><ele>103.33333333333334</ele><time>2026-04-19T11:57:55.023Z</time></trkpt><trkpt lat="44.755413174339786" lon="0.8110054254943597"><ele>104.66666666666667</ele><time>2026-04-19T11:57:56.023Z</time></trkpt><trkpt lat="44.75540977932348" lon="0.8112352999275284"><ele>106.0</ele><time>2026-04-19T11:57:57.023Z</time></trkpt><trkpt lat="44.75542643573494" lon="0.8114803868812601"><ele>106.0</ele><time>2026-04-19T11:57:58.023Z</time></trkpt><trkpt lat="44.75544266949479" lon="0.8117393092021558"><ele>106.0</ele><time>2026-04-19T11:57:59.023Z</time></trkpt><trkpt lat="44.75545801742396" lon="0.8119996972309925"><ele>106.0</ele><time>2026-04-19T11:58:00.023Z</time></trkpt><trkpt lat="44.75546177295155" lon="0.812264991095429"><ele>106.0</ele><time>2026-04-19T11:58:01.023Z</time></trkpt><trkpt lat="44.755456934283316" lon="0.812532703649772"><ele>106.0</ele><time>2026-04-19T11:58:02.023Z</time></trkpt><trkpt lat="44.7554391850877" lon="0.8128099096006504"><ele>106.0</ele><time>2026-04-19T11:58:03.023Z</time></trkpt><trkpt lat="44.75541526869201" lon="0.8130900292986842"><ele>106.66666666666667</ele><time>2026-04-19T11:58:04.023Z</time></trkpt><trkpt lat="44.75537752795717" lon="0.8133674633083133"><ele>107.33333333333334</ele><time>2026-04-19T11:58:05.023Z</time></trkpt><trkpt lat="44.755338808570926" lon="0.8136342869319712"><ele>108.0</ele><time>2026-04-19T11:58:06.023Z</time></trkpt><trkpt lat="44.755298611389854" lon="0.8138954901722855"><ele>109.33333333333334</ele><time>2026-04-19T11:58:07.023Z</time></trkpt><trkpt lat="44.755251249482825" lon="0.8141519670599029"><ele>110.66666666666667</ele><time>2026-04-19T11:58:08.023Z</time></trkpt><trkpt lat="44.7552011461909" lon="0.8143975706215812"><ele>112.0</ele><time>2026-04-19T11:58:09.023Z</time></trkpt><trkpt lat="44.75513857286422" lon="0.8146402954152041"><ele>109.33333333333334</ele><time>2026-04-19T11:58:10.023Z</time></trkpt><trkpt lat="44.755061777997454" lon="0.8148737155073252"><ele>106.66666666666666</ele><time>2026-04-19T11:58:11.023Z</time></trkpt><trkpt lat="44.75496179794682" lon="0.8150812048675087"><ele>104.0</ele><time>2026-04-19T11:58:12.023Z</time></trkpt><trkpt lat="44.75486302553508" lon="0.815305830641468"><ele>104.0</ele><time>2026-04-19T11:58:13.023Z</time></trkpt><trkpt lat="44.75474906139231" lon="0.8155236760680525"><ele>104.0</ele><time>2026-04-19T11:58:14.023Z</time></trkpt><trkpt lat="44.754631338175265" lon="0.8157279953031173"><ele>104.0</ele><time>2026-04-19T11:58:15.023Z</time></trkpt><trkpt lat="44.75450811710213" lon="0.8159197034415964"><ele>101.66666666666666</ele><time>2026-04-19T11:58:16.023Z</time></trkpt><trkpt lat="44.75439522529043" lon="0.8161254785598634"><ele>99.33333333333334</ele><time>2026-04-19T11:58:17.024Z</time></trkpt><trkpt lat="44.75426417305988" lon="0.8163058384287833"><ele>97.0</ele><time>2026-04-19T11:58:18.024Z</time></trkpt><trkpt lat="44.75413343417392" lon="0.8164777540482859"><ele>97.0</ele><time>2026-04-19T11:58:19.024Z</time></trkpt><trkpt lat="44.75400624214128" lon="0.8166416042922588"><ele>97.0</ele><time>2026-04-19T11:58:20.024Z</time></trkpt><trkpt lat="44.753880313519915" lon="0.8168040250355878"><ele>97.0</ele><time>2026-04-19T11:58:21.024Z</time></trkpt><trkpt lat="44.75375839104393" lon="0.8169632516695929"><ele>95.66666666666667</ele><time>2026-04-19T11:58:22.024Z</time></trkpt><trkpt lat="44.75364658104934" lon="0.8171321825595675"><ele>94.33333333333334</ele><time>2026-04-19T11:58:23.024Z</time></trkpt><trkpt lat="44.753549327060156" lon="0.8173052345992146"><ele>93.0</ele><time>2026-04-19T11:58:24.024Z</time></trkpt><trkpt lat="44.75346446852162" lon="0.8174751646323422"><ele>93.0</ele><time>2026-04-19T11:58:25.024Z</time></trkpt><trkpt lat="44.75339285797681" lon="0.8176483041857444"><ele>93.0</ele><time>2026-04-19T11:58:26.024Z</time></trkpt><trkpt lat="44.753341259855574" lon="0.8178358243760956"><ele>93.0</ele><time>2026-04-19T11:58:27.024Z</time></trkpt><trkpt lat="44.75330148730174" lon="0.818025815879898"><ele>93.0</ele><time>2026-04-19T11:58:28.024Z</time></trkpt><trkpt lat="44.75329086610132" lon="0.8182322609038901"><ele>92.66666666666667</ele><time>2026-04-19T11:58:29.024Z</time></trkpt><trkpt lat="44.75331691326688" lon="0.8184647566733094"><ele>92.33333333333334</ele><time>2026-04-19T11:58:30.024Z</time></trkpt><trkpt lat="44.75337665516714" lon="0.8187095280667943"><ele>92.0</ele><time>2026-04-19T11:58:31.024Z</time></trkpt><trkpt lat="44.75345704103965" lon="0.8189676836944378"><ele>92.0</ele><time>2026-04-19T11:58:32.024Z</time></trkpt><trkpt lat="44.75352454881279" lon="0.8192094751250795"><ele>92.0</ele><time>2026-04-19T11:58:33.024Z</time></trkpt><trkpt lat="44.753585259330734" lon="0.8194497479214289"><ele>92.0</ele><time>2026-04-19T11:58:34.024Z</time></trkpt><trkpt lat="44.753643210894964" lon="0.8196876847971457"><ele>97.66666666666667</ele><time>2026-04-19T11:58:35.024Z</time></trkpt><trkpt lat="44.75367863840505" lon="0.8199323838356837"><ele>103.33333333333334</ele><time>2026-04-19T11:58:36.024Z</time></trkpt><trkpt lat="44.75371473271914" lon="0.8201771509783657"><ele>109.0</ele><time>2026-04-19T11:58:37.024Z</time></trkpt><trkpt lat="44.753735605654256" lon="0.8204379993037253"><ele>109.0</ele><time>2026-04-19T11:58:38.024Z</time></trkpt><trkpt lat="44.75372994175643" lon="0.8207048662463214"><ele>109.0</ele><time>2026-04-19T11:58:39.024Z</time></trkpt><trkpt lat="44.75371035379002" lon="0.8209812177086889"><ele>109.0</ele><time>2026-04-19T11:58:40.024Z</time></trkpt><trkpt lat="44.7536693247195" lon="0.8212542120086368"><ele>110.33333333333334</ele><time>2026-04-19T11:58:41.024Z</time></trkpt><trkpt lat="44.753613848290435" lon="0.8215169549177317"><ele>111.66666666666666</ele><time>2026-04-19T11:58:42.024Z</time></trkpt><trkpt lat="44.75353733031455" lon="0.8217778564989181"><ele>113.0</ele><time>2026-04-19T11:58:43.024Z</time></trkpt><trkpt lat="44.75344562844641" lon="0.8220238167216712"><ele>110.66666666666666</ele><time>2026-04-19T11:58:44.024Z</time></trkpt><trkpt lat="44.75334862882385" lon="0.8222593000685876"><ele>108.33333333333334</ele><time>2026-04-19T11:58:45.024Z</time></trkpt><trkpt lat="44.753250968923936" lon="0.8224854033901658"><ele>106.0</ele><time>2026-04-19T11:58:46.024Z</time></trkpt><trkpt lat="44.75317317210335" lon="0.8227202148192376"><ele>106.0</ele><time>2026-04-19T11:58:47.024Z</time></trkpt><trkpt lat="44.753085903761786" lon="0.8229253158313772"><ele>106.0</ele><time>2026-04-19T11:58:48.024Z</time></trkpt><trkpt lat="44.753005964932065" lon="0.8231272348947942"><ele>106.0</ele><time>2026-04-19T11:58:49.024Z</time></trkpt><trkpt lat="44.7529383275321" lon="0.8233331599029081"><ele>108.66666666666667</ele><time>2026-04-19T11:58:50.024Z</time></trkpt><trkpt lat="44.752884180278535" lon="0.8235458283624373"><ele>111.33333333333334</ele><time>2026-04-19T11:58:51.024Z</time></trkpt><trkpt lat="44.75284223211376" lon="0.8237612190961765"><ele>114.0</ele><time>2026-04-19T11:58:52.024Z</time></trkpt><trkpt lat="44.75280331379906" lon="0.8239758384744496"><ele>114.0</ele><time>2026-04-19T11:58:53.024Z</time></trkpt><trkpt lat="44.752745158046125" lon="0.8241782194803448"><ele>114.0</ele><time>2026-04-19T11:58:54.024Z</time></trkpt><trkpt lat="44.752716700332385" lon="0.8243932805457942"><ele>114.0</ele><time>2026-04-19T11:58:55.024Z</time></trkpt><trkpt lat="44.75266243745583" lon="0.824597014842205"><ele>108.66666666666666</ele><time>2026-04-19T11:58:56.024Z</time></trkpt><trkpt lat="44.75261045405567" lon="0.824811695034238"><ele>103.33333333333333</ele><time>2026-04-19T11:58:57.025Z</time></trkpt><trkpt lat="44.75256818460884" lon="0.8250357006374255"><ele>98.0</ele><time>2026-04-19T11:58:58.025Z</time></trkpt><trkpt lat="44.75252044258565" lon="0.8252651303369191"><ele>98.0</ele><time>2026-04-19T11:58:59.025Z</time></trkpt><trkpt lat="44.752476183809236" lon="0.8255023372144621"><ele>98.0</ele><time>2026-04-19T11:59:00.025Z</time></trkpt><trkpt lat="44.75242944913149" lon="0.8257489525131053"><ele>98.0</ele><time>2026-04-19T11:59:01.025Z</time></trkpt><trkpt lat="44.752382084574464" lon="0.8260030463208747"><ele>99.66666666666666</ele><time>2026-04-19T11:59:02.025Z</time></trkpt><trkpt lat="44.75233544579551" lon="0.826260052487431"><ele>101.33333333333334</ele><time>2026-04-19T11:59:03.025Z</time></trkpt><trkpt lat="44.75228615195764" lon="0.8265116356823937"><ele>103.0</ele><time>2026-04-19T11:59:04.025Z</time></trkpt><trkpt lat="44.752239156874204" lon="0.826758325934623"><ele>104.33333333333334</ele><time>2026-04-19T11:59:05.025Z</time></trkpt><trkpt lat="44.752194057749605" lon="0.8270036504557283"><ele>105.66666666666666</ele><time>2026-04-19T11:59:06.025Z</time></trkpt><trkpt lat="44.75215902504489" lon="0.8272510859258869"><ele>107.0</ele><time>2026-04-19T11:59:07.025Z</time></trkpt><trkpt lat="44.75213826895677" lon="0.8274916544326967"><ele>107.66666666666666</ele><time>2026-04-19T11:59:08.025Z</time></trkpt><trkpt lat="44.752135015632305" lon="0.8277409074282103"><ele>108.33333333333334</ele><time>2026-04-19T11:59:09.025Z</time></trkpt><trkpt lat="44.75214058904228" lon="0.8280089706772439"><ele>109.0</ele><time>2026-04-19T11:59:10.025Z</time></trkpt><trkpt lat="44.75218276135665" lon="0.8282886017362535"><ele>107.33333333333334</ele><time>2026-04-19T11:59:11.025Z</time></trkpt><trkpt lat="44.752219720355015" lon="0.8285916185422681"><ele>105.66666666666666</ele><time>2026-04-19T11:59:12.025Z</time></trkpt><trkpt lat="44.75226134803383" lon="0.8288706504282032"><ele>104.0</ele><time>2026-04-19T11:59:13.025Z</time></trkpt><trkpt lat="44.75230464555723" lon="0.8291456230664759"><ele>102.0</ele><time>2026-04-19T11:59:14.025Z</time></trkpt><trkpt lat="44.75234966769951" lon="0.8294320799883173"><ele>100.0</ele><time>2026-04-19T11:59:15.025Z</time></trkpt><trkpt lat="44.75239357018711" lon="0.8297165976867363"><ele>98.0</ele><time>2026-04-19T11:59:16.025Z</time></trkpt><trkpt lat="44.75244907208815" lon="0.8299942826631408"><ele>96.66666666666666</ele><time>2026-04-19T11:59:17.025Z</time></trkpt><trkpt lat="44.75251013083746" lon="0.8302789471463283"><ele>95.33333333333333</ele><time>2026-04-19T11:59:18.025Z</time></trkpt><trkpt lat="44.752568930015045" lon="0.8305780617826399"><ele>94.0</ele><time>2026-04-19T11:59:19.025Z</time></trkpt><trkpt lat="44.7526366973058" lon="0.830868285086875"><ele>92.5</ele><time>2026-04-19T11:59:20.025Z</time></trkpt><trkpt lat="44.75270452030955" lon="0.8311771024370537"><ele>91.0</ele><time>2026-04-19T11:59:21.025Z</time></trkpt><trkpt lat="44.75278150952537" lon="0.8314883717343725"><ele>97.66666666666666</ele><time>2026-04-19T11:59:22.025Z</time></trkpt><trkpt lat="44.75285280056434" lon="0.831797934437156"><ele>104.33333333333333</ele><time>2026-04-19T11:59:23.025Z</time></trkpt><trkpt lat="44.7529182943491" lon="0.8320862879647123"><ele>111.0</ele><time>2026-04-19T11:59:24.025Z</time></trkpt><trkpt lat="44.75298983262869" lon="0.8323525311659138"><ele>111.0</ele><time>2026-04-19T11:59:25.025Z</time></trkpt><trkpt lat="44.7530643517789" lon="0.8325990598073323"><ele>111.0</ele><time>2026-04-19T11:59:26.025Z</time></trkpt><trkpt lat="44.75313942763951" lon="0.8328267010731053"><ele>111.0</ele><time>2026-04-19T11:59:27.025Z</time></trkpt><trkpt lat="44.75320755335821" lon="0.8330406289307902"><ele>107.75</ele><time>2026-04-19T11:59:28.025Z</time></trkpt><trkpt lat="44.75325763090764" lon="0.833234101070266"><ele>104.5</ele><time>2026-04-19T11:59:29.025Z</time></trkpt><trkpt lat="44.75328966911553" lon="0.8334085358341666"><ele>101.25</ele><time>2026-04-19T11:59:30.025Z</time></trkpt><trkpt lat="44.753286775046476" lon="0.833578950748814"><ele>98.0</ele><time>2026-04-19T11:59:31.025Z</time></trkpt><trkpt lat="44.75327556243186" lon="0.833740517971353"><ele>98.0</ele><time>2026-04-19T11:59:32.025Z</time></trkpt><trkpt lat="44.753252072440965" lon="0.8338984119441293"><ele>98.0</ele><time>2026-04-19T11:59:33.025Z</time></trkpt><trkpt lat="44.75321469834515" lon="0.8340588824139412"><ele>98.0</ele><time>2026-04-19T11:59:34.025Z</time></trkpt><trkpt lat="44.75315713934689" lon="0.8342152804924869"><ele>98.0</ele><time>2026-04-19T11:59:35.025Z</time></trkpt><trkpt lat="44.75310265939421" lon="0.8343750273089717"><ele>101.0</ele><time>2026-04-19T11:59:36.025Z</time></trkpt><trkpt lat="44.75302938872248" lon="0.8345143064235406"><ele>104.0</ele><time>2026-04-19T11:59:37.026Z</time></trkpt><trkpt lat="44.752952287671235" lon="0.8346590124313615"><ele>107.0</ele><time>2026-04-19T11:59:38.026Z</time></trkpt><trkpt lat="44.75288171020136" lon="0.8348141592175824"><ele>110.0</ele><time>2026-04-19T11:59:39.026Z</time></trkpt><trkpt lat="44.752823800152335" lon="0.8349864091751139"><ele>113.75</ele><time>2026-04-19T11:59:40.026Z</time></trkpt><trkpt lat="44.7527717883858" lon="0.8351710215239779"><ele>117.5</ele><time>2026-04-19T11:59:41.026Z</time></trkpt><trkpt lat="44.752698442432326" lon="0.8353614610622879"><ele>121.25</ele><time>2026-04-19T11:59:42.026Z</time></trkpt><trkpt lat="44.7526480339825" lon="0.8355589048579924"><ele>125.0</ele><time>2026-04-19T11:59:43.026Z</time></trkpt><trkpt lat="44.75259527083948" lon="0.8357780250187472"><ele>117.0</ele><time>2026-04-19T11:59:44.026Z</time></trkpt><trkpt lat="44.752535561066566" lon="0.8360026576529762"><ele>109.0</ele><time>2026-04-19T11:59:45.026Z</time></trkpt><trkpt lat="44.75247555708535" lon="0.8362275110548706"><ele>101.0</ele><time>2026-04-19T11:59:46.026Z</time></trkpt><trkpt lat="44.75241936260277" lon="0.8364623541441084"><ele>101.0</ele><time>2026-04-19T11:59:47.026Z</time></trkpt><trkpt lat="44.75237456274857" lon="0.8367108522106134"><ele>101.0</ele><time>2026-04-19T11:59:48.026Z</time></trkpt><trkpt lat="44.75234261798613" lon="0.8369744658328826"><ele>101.0</ele><time>2026-04-19T11:59:49.026Z</time></trkpt><trkpt lat="44.752310284971365" lon="0.8372471758804115"><ele>103.0</ele><time>2026-04-19T11:59:50.026Z</time></trkpt><trkpt lat="44.75228611481528" lon="0.8375393590450784"><ele>105.0</ele><time>2026-04-19T11:59:51.026Z</time></trkpt><trkpt lat="44.75225657088046" lon="0.8378156427225446"><ele>107.0</ele><time>2026-04-19T11:59:52.026Z</time></trkpt><trkpt lat="44.75222898919757" lon="0.8380974985945897"><ele>108.33333333333333</ele><time>2026-04-19T11:59:53.026Z</time></trkpt><trkpt lat="44.75220506359922" lon="0.8383702186810253"><ele>109.66666666666666</ele><time>2026-04-19T11:59:54.026Z</time></trkpt><trkpt lat="44.75217949145788" lon="0.8386464372719978"><ele>111.0</ele><time>2026-04-19T11:59:55.026Z</time></trkpt><trkpt lat="44.75215070517824" lon="0.8389149812351556"><ele>112.66666666666666</ele><time>2026-04-19T11:59:56.026Z</time></trkpt><trkpt lat="44.7521165462914" lon="0.8391792301914816"><ele>114.33333333333333</ele><time>2026-04-19T11:59:57.026Z</time></trkpt><trkpt lat="44.752095238997626" lon="0.839433922926011"><ele>116.0</ele><time>2026-04-19T11:59:58.026Z</time></trkpt><trkpt lat="44.75207045424007" lon="0.839692170310921"><ele>116.66666666666666</ele><time>2026-04-19T11:59:59.026Z</time></trkpt><trkpt lat="44.752040245358145" lon="0.8399489442888718"><ele>117.33333333333334</ele><time>2026-04-19T12:00:00.026Z</time></trkpt><trkpt lat="44.75200231350367" lon="0.8402003388918624"><ele>118.0</ele><time>2026-04-19T12:00:01.026Z</time></trkpt><trkpt lat="44.751966903913804" lon="0.8404521460765371"><ele>119.33333333333334</ele><time>2026-04-19T12:00:02.026Z</time></trkpt><trkpt lat="44.751922305517525" lon="0.8407218548702441"><ele>120.66666666666666</ele><time>2026-04-19T12:00:03.026Z</time></trkpt><trkpt lat="44.75187214250943" lon="0.8409992425405697"><ele>122.0</ele><time>2026-04-19T12:00:04.026Z</time></trkpt><trkpt lat="44.75181042946381" lon="0.8412619756989825"><ele>117.0</ele><time>2026-04-19T12:00:05.026Z</time></trkpt><trkpt lat="44.751756390010826" lon="0.8415134535823459"><ele>112.0</ele><time>2026-04-19T12:00:06.026Z</time></trkpt><trkpt lat="44.75170358066068" lon="0.8417687998668056"><ele>107.0</ele><time>2026-04-19T12:00:07.026Z</time></trkpt><trkpt lat="44.75164813130934" lon="0.8420196599962216"><ele>107.0</ele><time>2026-04-19T12:00:08.026Z</time></trkpt><trkpt lat="44.751558844487995" lon="0.8422571673543245"><ele>107.0</ele><time>2026-04-19T12:00:09.026Z</time></trkpt><trkpt lat="44.751488477374046" lon="0.8425182816795058"><ele>107.0</ele><time>2026-04-19T12:00:10.026Z</time></trkpt><trkpt lat="44.751397297569326" lon="0.8427569870368214"><ele>110.66666666666666</ele><time>2026-04-19T12:00:11.026Z</time></trkpt><trkpt lat="44.75132570734473" lon="0.8429918653687504"><ele>114.33333333333334</ele><time>2026-04-19T12:00:12.026Z</time></trkpt><trkpt lat="44.751266353890706" lon="0.843216420735666"><ele>118.0</ele><time>2026-04-19T12:00:13.026Z</time></trkpt><trkpt lat="44.75122214606674" lon="0.8434453570840128"><ele>121.33333333333334</ele><time>2026-04-19T12:00:14.026Z</time></trkpt><trkpt lat="44.751184382533346" lon="0.8436807881393505"><ele>124.66666666666666</ele><time>2026-04-19T12:00:15.026Z</time></trkpt><trkpt lat="44.75115214699389" lon="0.8439201801809418"><ele>128.0</ele><time>2026-04-19T12:00:16.026Z</time></trkpt><trkpt lat="44.75113574889005" lon="0.8441528193568545"><ele>127.0</ele><time>2026-04-19T12:00:17.027Z</time></trkpt><trkpt lat="44.75113261610102" lon="0.8443910945541134"><ele>126.0</ele><time>2026-04-19T12:00:18.027Z</time></trkpt><trkpt lat="44.75115210656802" lon="0.8446346010611199"><ele>125.0</ele><time>2026-04-19T12:00:19.027Z</time></trkpt><trkpt lat="44.751185950109544" lon="0.8448791895538414"><ele>125.0</ele><time>2026-04-19T12:00:20.027Z</time></trkpt><trkpt lat="44.75122870454964" lon="0.8451289248949966"><ele>125.0</ele><time>2026-04-19T12:00:21.027Z</time></trkpt><trkpt lat="44.75128580908013" lon="0.845377362438183"><ele>125.0</ele><time>2026-04-19T12:00:22.027Z</time></trkpt><trkpt lat="44.75135621782146" lon="0.8456281326019374"><ele>121.33333333333333</ele><time>2026-04-19T12:00:23.027Z</time></trkpt><trkpt lat="44.75143497484003" lon="0.8458701446588095"><ele>117.66666666666666</ele><time>2026-04-19T12:00:24.027Z</time></trkpt><trkpt lat="44.75151080282197" lon="0.8461135495862925"><ele>114.0</ele><time>2026-04-19T12:00:25.027Z</time></trkpt><trkpt lat="44.751587777212876" lon="0.8463407966673758"><ele>110.0</ele><time>2026-04-19T12:00:26.027Z</time></trkpt><trkpt lat="44.75165908930932" lon="0.8465634851852063"><ele>106.0</ele><time>2026-04-19T12:00:27.027Z</time></trkpt><trkpt lat="44.7517320136784" lon="0.8467826632600792"><ele>102.0</ele><time>2026-04-19T12:00:28.027Z</time></trkpt><trkpt lat="44.75181093066689" lon="0.8469947557630498"><ele>107.33333333333334</ele><time>2026-04-19T12:00:29.027Z</time></trkpt><trkpt lat="44.75190337246223" lon="0.8472088464877064"><ele>112.66666666666667</ele><time>2026-04-19T12:00:30.027Z</time></trkpt><trkpt lat="44.752003655092075" lon="0.8474059978888432"><ele>118.0</ele><time>2026-04-19T12:00:31.027Z</time></trkpt><trkpt lat="44.75210895650498" lon="0.8476015251138079"><ele>113.66666666666667</ele><time>2026-04-19T12:00:32.027Z</time></trkpt><trkpt lat="44.75221490124419" lon="0.8477928325591767"><ele>109.33333333333334</ele><time>2026-04-19T12:00:33.027Z</time></trkpt><trkpt lat="44.752316106609385" lon="0.8479842052437149"><ele>105.0</ele><time>2026-04-19T12:00:34.027Z</time></trkpt><trkpt lat="44.7524093172439" lon="0.8481791552736695"><ele>105.0</ele><time>2026-04-19T12:00:35.027Z</time></trkpt><trkpt lat="44.752483432772074" lon="0.8483901506614864"><ele>105.0</ele><time>2026-04-19T12:00:36.027Z</time></trkpt><trkpt lat="44.75254784899614" lon="0.8486067776934368"><ele>105.0</ele><time>2026-04-19T12:00:37.027Z</time></trkpt><trkpt lat="44.75258248809599" lon="0.8488406252382761"><ele>104.33333333333334</ele><time>2026-04-19T12:00:38.027Z</time></trkpt><trkpt lat="44.75260986728385" lon="0.849084563039808"><ele>103.66666666666667</ele><time>2026-04-19T12:00:39.027Z</time></trkpt><trkpt lat="44.7526206850454" lon="0.8493325557792947"><ele>103.0</ele><time>2026-04-19T12:00:40.027Z</time></trkpt><trkpt lat="44.75261081067417" lon="0.8495910391528854"><ele>103.0</ele><time>2026-04-19T12:00:41.027Z</time></trkpt><trkpt lat="44.752599327061624" lon="0.8498495942162266"><ele>103.0</ele><time>2026-04-19T12:00:42.027Z</time></trkpt><trkpt lat="44.752584600879125" lon="0.8501110838952118"><ele>103.0</ele><time>2026-04-19T12:00:43.027Z</time></trkpt><trkpt lat="44.75257107760505" lon="0.850374894844367"><ele>103.0</ele><time>2026-04-19T12:00:44.027Z</time></trkpt><trkpt lat="44.75255293111989" lon="0.8506403573212393"><ele>103.0</ele><time>2026-04-19T12:00:45.027Z</time></trkpt><trkpt lat="44.75252682652821" lon="0.8509149375921116"><ele>103.0</ele><time>2026-04-19T12:00:46.027Z</time></trkpt><trkpt lat="44.75248589917539" lon="0.8511808780356084"><ele>102.33333333333334</ele><time>2026-04-19T12:00:47.027Z</time></trkpt><trkpt lat="44.75242984148669" lon="0.8514232083716969"><ele>101.66666666666666</ele><time>2026-04-19T12:00:48.027Z</time></trkpt><trkpt lat="44.752400402413386" lon="0.8516573696227098"><ele>101.0</ele><time>2026-04-19T12:00:49.027Z</time></trkpt><trkpt lat="44.752357404203444" lon="0.8518725406141722"><ele>102.66666666666666</ele><time>2026-04-19T12:00:50.027Z</time></trkpt><trkpt lat="44.75231188484108" lon="0.8520823732638924"><ele>104.33333333333334</ele><time>2026-04-19T12:00:51.027Z</time></trkpt><trkpt lat="44.752255170068366" lon="0.8522870258923926"><ele>106.0</ele><time>2026-04-19T12:00:52.027Z</time></trkpt><trkpt lat="44.752169760770634" lon="0.8524728979151237"><ele>109.66666666666667</ele><time>2026-04-19T12:00:53.027Z</time></trkpt><trkpt lat="44.752087901309686" lon="0.852662682943233"><ele>113.33333333333334</ele><time>2026-04-19T12:00:54.027Z</time></trkpt><trkpt lat="44.752003403250384" lon="0.8528511328699037"><ele>117.0</ele><time>2026-04-19T12:00:55.027Z</time></trkpt><trkpt lat="44.75192248887514" lon="0.8530569845707344"><ele>114.33333333333334</ele><time>2026-04-19T12:00:56.027Z</time></trkpt><trkpt lat="44.751837182501205" lon="0.8532566949782668"><ele>111.66666666666667</ele><time>2026-04-19T12:00:57.028Z</time></trkpt><trkpt lat="44.75175021861243" lon="0.8534642932240769"><ele>109.0</ele><time>2026-04-19T12:00:58.028Z</time></trkpt><trkpt lat="44.751667729059285" lon="0.8536808537117944"><ele>109.0</ele><time>2026-04-19T12:00:59.028Z</time></trkpt><trkpt lat="44.75158901619431" lon="0.8539102890671524"><ele>109.0</ele><time>2026-04-19T12:01:00.028Z</time></trkpt><trkpt lat="44.751515301501534" lon="0.854147377965005"><ele>109.0</ele><time>2026-04-19T12:01:01.028Z</time></trkpt><trkpt lat="44.75144033661837" lon="0.8543953327472874"><ele>111.33333333333334</ele><time>2026-04-19T12:01:02.028Z</time></trkpt><trkpt lat="44.75136437500397" lon="0.8546408524425234"><ele>113.66666666666666</ele><time>2026-04-19T12:01:03.028Z</time></trkpt><trkpt lat="44.751287172602254" lon="0.8548735404699497"><ele>116.0</ele><time>2026-04-19T12:01:04.028Z</time></trkpt><trkpt lat="44.751214886261124" lon="0.8550924105093816"><ele>118.0</ele><time>2026-04-19T12:01:05.028Z</time></trkpt><trkpt lat="44.75114894503365" lon="0.8552974264645272"><ele>120.0</ele><time>2026-04-19T12:01:06.028Z</time></trkpt><trkpt lat="44.75110316293848" lon="0.8555069944406177"><ele>122.0</ele><time>2026-04-19T12:01:07.028Z</time></trkpt><trkpt lat="44.75108144604468" lon="0.8557336575244338"><ele>121.66666666666666</ele><time>2026-04-19T12:01:08.028Z</time></trkpt><trkpt lat="44.7510799839663" lon="0.8559763339678793"><ele>121.33333333333334</ele><time>2026-04-19T12:01:09.028Z</time></trkpt><trkpt lat="44.751098632028885" lon="0.8562254237388165"><ele>121.0</ele><time>2026-04-19T12:01:10.028Z</time></trkpt><trkpt lat="44.75111723683801" lon="0.8564737067055993"><ele>121.0</ele><time>2026-04-19T12:01:11.028Z</time></trkpt><trkpt lat="44.751150263500286" lon="0.8567314397545461"><ele>121.0</ele><time>2026-04-19T12:01:12.028Z</time></trkpt><trkpt lat="44.75119845786292" lon="0.8569847270406522"><ele>121.0</ele><time>2026-04-19T12:01:13.028Z</time></trkpt><trkpt lat="44.75125488534039" lon="0.8572294537382359"><ele>119.0</ele><time>2026-04-19T12:01:14.028Z</time></trkpt><trkpt lat="44.7513234536961" lon="0.8574674818250652"><ele>117.0</ele><time>2026-04-19T12:01:15.028Z</time></trkpt><trkpt lat="44.751359580866456" lon="0.8577183552199662"><ele>115.0</ele><time>2026-04-19T12:01:16.028Z</time></trkpt><trkpt lat="44.75141288723521" lon="0.8579372942365467"><ele>115.0</ele><time>2026-04-19T12:01:17.028Z</time></trkpt><trkpt lat="44.751442752266975" lon="0.8581513571449736"><ele>115.0</ele><time>2026-04-19T12:01:18.028Z</time></trkpt><trkpt lat="44.75145670157132" lon="0.858373450051906"><ele>115.0</ele><time>2026-04-19T12:01:19.028Z</time></trkpt><trkpt lat="44.75143240730688" lon="0.8586057118386096"><ele>115.0</ele><time>2026-04-19T12:01:20.028Z</time></trkpt><trkpt lat="44.75142310064345" lon="0.8588425326373602"><ele>115.0</ele><time>2026-04-19T12:01:21.028Z</time></trkpt><trkpt lat="44.751402516193586" lon="0.8590624017001335"><ele>115.0</ele><time>2026-04-19T12:01:22.028Z</time></trkpt><trkpt lat="44.75139173800111" lon="0.8592847760984808"><ele>115.33333333333334</ele><time>2026-04-19T12:01:23.028Z</time></trkpt><trkpt lat="44.75139228130209" lon="0.8595188566246993"><ele>115.66666666666666</ele><time>2026-04-19T12:01:24.028Z</time></trkpt><trkpt lat="44.75140663959354" lon="0.8597526768702838"><ele>116.0</ele><time>2026-04-19T12:01:25.028Z</time></trkpt><trkpt lat="44.75142391587411" lon="0.8599771948809868"><ele>114.33333333333333</ele><time>2026-04-19T12:01:26.028Z</time></trkpt><trkpt lat="44.75144814818088" lon="0.8602032601967162"><ele>112.66666666666666</ele><time>2026-04-19T12:01:27.028Z</time></trkpt><trkpt lat="44.751487473494386" lon="0.8604263684531688"><ele>111.0</ele><time>2026-04-19T12:01:28.028Z</time></trkpt><trkpt lat="44.75153658264362" lon="0.8606515879244642"><ele>111.0</ele><time>2026-04-19T12:01:29.028Z</time></trkpt><trkpt lat="44.751603937150676" lon="0.8608690209503268"><ele>111.0</ele><time>2026-04-19T12:01:30.028Z</time></trkpt><trkpt lat="44.75167720228801" lon="0.8610964014317394"><ele>111.0</ele><time>2026-04-19T12:01:31.028Z</time></trkpt><trkpt lat="44.751759253506584" lon="0.861316620855857"><ele>112.33333333333334</ele><time>2026-04-19T12:01:32.028Z</time></trkpt><trkpt lat="44.7518336199211" lon="0.8615359474731381"><ele>113.66666666666667</ele><time>2026-04-19T12:01:33.028Z</time></trkpt><trkpt lat="44.75190244344998" lon="0.8617534797217697"><ele>115.0</ele><time>2026-04-19T12:01:34.028Z</time></trkpt><trkpt lat="44.75197628253466" lon="0.861962039244431"><ele>115.0</ele><time>2026-04-19T12:01:35.028Z</time></trkpt><trkpt lat="44.75205727101958" lon="0.862162731793626"><ele>115.0</ele><time>2026-04-19T12:01:36.028Z</time></trkpt><trkpt lat="44.75215199747261" lon="0.8623670356437603"><ele>115.0</ele><time>2026-04-19T12:01:37.028Z</time></trkpt><trkpt lat="44.752271838931826" lon="0.8625613540133594"><ele>112.33333333333334</ele><time>2026-04-19T12:01:38.029Z</time></trkpt><trkpt lat="44.75241294686129" lon="0.8627530873767496"><ele>109.66666666666666</ele><time>2026-04-19T12:01:39.029Z</time></trkpt><trkpt lat="44.75256745453328" lon="0.8629407837046114"><ele>107.0</ele><time>2026-04-19T12:01:40.029Z</time></trkpt><trkpt lat="44.75271839219189" lon="0.8631349940455341"><ele>109.66666666666666</ele><time>2026-04-19T12:01:41.029Z</time></trkpt><trkpt lat="44.752870598272494" lon="0.8633135370763289"><ele>112.33333333333334</ele><time>2026-04-19T12:01:42.029Z</time></trkpt><trkpt lat="44.7529971914079" lon="0.8635337403441354"><ele>115.0</ele><time>2026-04-19T12:01:43.029Z</time></trkpt><trkpt lat="44.75311558526334" lon="0.8637609672524572"><ele>115.0</ele><time>2026-04-19T12:01:44.029Z</time></trkpt><trkpt lat="44.753230090116524" lon="0.8640049966213849"><ele>115.0</ele><time>2026-04-19T12:01:45.029Z</time></trkpt><trkpt lat="44.75332235936267" lon="0.8642635139278447"><ele>115.0</ele><time>2026-04-19T12:01:46.029Z</time></trkpt><trkpt lat="44.75341706188325" lon="0.864503924945142"><ele>112.66666666666667</ele><time>2026-04-19T12:01:47.029Z</time></trkpt><trkpt lat="44.753511156753774" lon="0.8647427065272172"><ele>110.33333333333334</ele><time>2026-04-19T12:01:48.029Z</time></trkpt><trkpt lat="44.753591495578064" lon="0.8649804940492245"><ele>108.0</ele><time>2026-04-19T12:01:49.029Z</time></trkpt><trkpt lat="44.753670526568776" lon="0.8652152177604799"><ele>111.66666666666666</ele><time>2026-04-19T12:01:50.029Z</time></trkpt><trkpt lat="44.75373638388963" lon="0.8654677795256237"><ele>115.33333333333333</ele><time>2026-04-19T12:01:51.029Z</time></trkpt><trkpt lat="44.75378958170308" lon="0.8657239322467833"><ele>119.0</ele><time>2026-04-19T12:01:52.029Z</time></trkpt><trkpt lat="44.75383238033514" lon="0.8659827133791976"><ele>119.0</ele><time>2026-04-19T12:01:53.029Z</time></trkpt><trkpt lat="44.753869258209676" lon="0.8662412017435376"><ele>119.0</ele><time>2026-04-19T12:01:54.029Z</time></trkpt><trkpt lat="44.753901656660645" lon="0.8664972935309905"><ele>119.0</ele><time>2026-04-19T12:01:55.029Z</time></trkpt><trkpt lat="44.753929828369415" lon="0.8667557929548488"><ele>119.33333333333333</ele><time>2026-04-19T12:01:56.029Z</time></trkpt><trkpt lat="44.753949381396616" lon="0.8670088153455882"><ele>119.66666666666666</ele><time>2026-04-19T12:01:57.029Z</time></trkpt><trkpt lat="44.75394806133602" lon="0.8672573480143226"><ele>120.0</ele><time>2026-04-19T12:01:58.029Z</time></trkpt><trkpt lat="44.753929107013334" lon="0.8674891677113413"><ele>121.66666666666666</ele><time>2026-04-19T12:01:59.029Z</time></trkpt><trkpt lat="44.75389323048132" lon="0.8677076019436349"><ele>123.33333333333333</ele><time>2026-04-19T12:02:00.029Z</time></trkpt><trkpt lat="44.75384745952804" lon="0.8679092887673205"><ele>125.0</ele><time>2026-04-19T12:02:01.029Z</time></trkpt><trkpt lat="44.75379830294881" lon="0.8680951312112588"><ele>125.0</ele><time>2026-04-19T12:02:02.029Z</time></trkpt><trkpt lat="44.75374670149918" lon="0.8682779754908482"><ele>125.0</ele><time>2026-04-19T12:02:03.029Z</time></trkpt><trkpt lat="44.75369975766845" lon="0.8684361962979252"><ele>125.0</ele><time>2026-04-19T12:02:04.029Z</time></trkpt><trkpt lat="44.75365494420572" lon="0.8685835741987251"><ele>125.0</ele><time>2026-04-19T12:02:05.029Z</time></trkpt><trkpt lat="44.75361478662222" lon="0.8687330267108248"><ele>123.4</ele><time>2026-04-19T12:02:06.029Z</time></trkpt><trkpt lat="44.75357268642184" lon="0.8688810013333764"><ele>121.8</ele><time>2026-04-19T12:02:07.029Z</time></trkpt><trkpt lat="44.75353306204058" lon="0.8690218201945984"><ele>120.19999999999999</ele><time>2026-04-19T12:02:08.029Z</time></trkpt><trkpt lat="44.75349789691472" lon="0.8691632100734941"><ele>118.6</ele><time>2026-04-19T12:02:09.029Z</time></trkpt><trkpt lat="44.75345796213105" lon="0.8693017876199717"><ele>117.0</ele><time>2026-04-19T12:02:10.029Z</time></trkpt><trkpt lat="44.75342649495763" lon="0.8694382695555704"><ele>117.0</ele><time>2026-04-19T12:02:11.029Z</time></trkpt><trkpt lat="44.75338782054007" lon="0.8695830308511363"><ele>117.0</ele><time>2026-04-19T12:02:12.029Z</time></trkpt><trkpt lat="44.75334374633477" lon="0.8697357875293091"><ele>117.0</ele><time>2026-04-19T12:02:13.029Z</time></trkpt><trkpt lat="44.75329923005926" lon="0.8699011383306863"><ele>117.0</ele><time>2026-04-19T12:02:14.029Z</time></trkpt><trkpt lat="44.75324839608629" lon="0.8700770572720329"><ele>119.0</ele><time>2026-04-19T12:02:15.029Z</time></trkpt><trkpt lat="44.7531976530979" lon="0.8702621224934254"><ele>121.0</ele><time>2026-04-19T12:02:16.029Z</time></trkpt><trkpt lat="44.753151076678385" lon="0.870451105735007"><ele>123.0</ele><time>2026-04-19T12:02:17.029Z</time></trkpt><trkpt lat="44.753096718571456" lon="0.8706312909831234"><ele>125.0</ele><time>2026-04-19T12:02:18.03Z</time></trkpt><trkpt lat="44.7530504723238" lon="0.8708019248424589"><ele>126.25</ele><time>2026-04-19T12:02:19.03Z</time></trkpt><trkpt lat="44.752994203220084" lon="0.870953357745265"><ele>127.5</ele><time>2026-04-19T12:02:20.03Z</time></trkpt><trkpt lat="44.75297089165862" lon="0.8711148988106522"><ele>128.75</ele><time>2026-04-19T12:02:21.03Z</time></trkpt><trkpt lat="44.752946918663966" lon="0.8712682451743965"><ele>130.0</ele><time>2026-04-19T12:02:22.03Z</time></trkpt><trkpt lat="44.75293278824964" lon="0.8714267753293572"><ele>130.0</ele><time>2026-04-19T12:02:23.03Z</time></trkpt><trkpt lat="44.75292119019954" lon="0.8715891914959827"><ele>130.0</ele><time>2026-04-19T12:02:24.03Z</time></trkpt><trkpt lat="44.75290235439558" lon="0.8717633376675027"><ele>130.0</ele><time>2026-04-19T12:02:25.03Z</time></trkpt><trkpt lat="44.7529095195504" lon="0.8719426640169047"><ele>130.0</ele><time>2026-04-19T12:02:26.03Z</time></trkpt><trkpt lat="44.75291925087507" lon="0.8721176816057388"><ele>130.0</ele><time>2026-04-19T12:02:27.03Z</time></trkpt><trkpt lat="44.752936519482525" lon="0.8722969636015091"><ele>130.0</ele><time>2026-04-19T12:02:28.03Z</time></trkpt><trkpt lat="44.752954592942146" lon="0.8724836164753265"><ele>130.0</ele><time>2026-04-19T12:02:29.03Z</time></trkpt><trkpt lat="44.75297995320366" lon="0.8726701469056797"><ele>130.0</ele><time>2026-04-19T12:02:30.03Z</time></trkpt><trkpt lat="44.75300912517238" lon="0.8728500807383642"><ele>128.75</ele><time>2026-04-19T12:02:31.03Z</time></trkpt><trkpt lat="44.75305875376139" lon="0.8730253250564225"><ele>127.5</ele><time>2026-04-19T12:02:32.03Z</time></trkpt><trkpt lat="44.7531065735881" lon="0.8731985688431595"><ele>126.25</ele><time>2026-04-19T12:02:33.03Z</time></trkpt><trkpt lat="44.75315366337037" lon="0.8733708144423342"><ele>125.0</ele><time>2026-04-19T12:02:34.03Z</time></trkpt><trkpt lat="44.7532062369715" lon="0.8735391442118836"><ele>122.5</ele><time>2026-04-19T12:02:35.03Z</time></trkpt><trkpt lat="44.7532600872937" lon="0.8737048515095526"><ele>120.0</ele><time>2026-04-19T12:02:36.03Z</time></trkpt><trkpt lat="44.75331475811395" lon="0.8738700843304875"><ele>117.5</ele><time>2026-04-19T12:02:37.03Z</time></trkpt><trkpt lat="44.75337103769144" lon="0.8740330667658188"><ele>115.0</ele><time>2026-04-19T12:02:38.03Z</time></trkpt><trkpt lat="44.75343195066294" lon="0.874191188034618"><ele>113.5</ele><time>2026-04-19T12:02:39.03Z</time></trkpt><trkpt lat="44.75349749865966" lon="0.8743434925334601"><ele>112.0</ele><time>2026-04-19T12:02:40.03Z</time></trkpt><trkpt lat="44.753565559289655" lon="0.8744924081575903"><ele>110.5</ele><time>2026-04-19T12:02:41.03Z</time></trkpt><trkpt lat="44.75363770540067" lon="0.8746364188981509"><ele>109.0</ele><time>2026-04-19T12:02:42.03Z</time></trkpt><trkpt lat="44.75370636852332" lon="0.8747824740734332"><ele>110.5</ele><time>2026-04-19T12:02:43.03Z</time></trkpt><trkpt lat="44.7537751497223" lon="0.8749255047771752"><ele>112.0</ele><time>2026-04-19T12:02:44.03Z</time></trkpt><trkpt lat="44.753840486299644" lon="0.8750717868978507"><ele>113.5</ele><time>2026-04-19T12:02:45.03Z</time></trkpt><trkpt lat="44.75390679873423" lon="0.8752200403404999"><ele>115.0</ele><time>2026-04-19T12:02:46.03Z</time></trkpt><trkpt lat="44.75398062454099" lon="0.8753658702601174"><ele>115.0</ele><time>2026-04-19T12:02:47.03Z</time></trkpt><trkpt lat="44.75406759738384" lon="0.875513355283563"><ele>115.0</ele><time>2026-04-19T12:02:48.03Z</time></trkpt><trkpt lat="44.75416262295637" lon="0.8756567769142802"><ele>115.0</ele><time>2026-04-19T12:02:49.03Z</time></trkpt><trkpt lat="44.75426674764455" lon="0.8757963179949123"><ele>115.0</ele><time>2026-04-19T12:02:50.03Z</time></trkpt><trkpt lat="44.75437398687309" lon="0.875940520636899"><ele>115.0</ele><time>2026-04-19T12:02:51.03Z</time></trkpt><trkpt lat="44.754484872622925" lon="0.8760825128990478"><ele>115.0</ele><time>2026-04-19T12:02:52.03Z</time></trkpt><trkpt lat="44.75459975916538" lon="0.8762154125623662"><ele>115.0</ele><time>2026-04-19T12:02:53.03Z</time></trkpt><trkpt lat="44.75470485339381" lon="0.8763601473388628"><ele>115.0</ele><time>2026-04-19T12:02:54.03Z</time></trkpt><trkpt lat="44.75481043101263" lon="0.8765155110412418"><ele>115.0</ele><time>2026-04-19T12:02:55.03Z</time></trkpt><trkpt lat="44.75490457020103" lon="0.8766779200611822"><ele>115.0</ele><time>2026-04-19T12:02:56.03Z</time></trkpt><trkpt lat="44.75499050308892" lon="0.8768438495224365"><ele>115.0</ele><time>2026-04-19T12:02:57.03Z</time></trkpt><trkpt lat="44.755066697584645" lon="0.8770145518018873"><ele>115.0</ele><time>2026-04-19T12:02:58.031Z</time></trkpt><trkpt lat="44.755124603131954" lon="0.8771864670992936"><ele>115.25</ele><time>2026-04-19T12:02:59.031Z</time></trkpt><trkpt lat="44.755176434870265" lon="0.8773654379880265"><ele>115.5</ele><time>2026-04-19T12:03:00.031Z</time></trkpt><trkpt lat="44.755218605719264" lon="0.8775532865273727"><ele>115.75</ele><time>2026-04-19T12:03:01.031Z</time></trkpt><trkpt lat="44.75525148758186" lon="0.8777416952998542"><ele>116.0</ele><time>2026-04-19T12:03:02.031Z</time></trkpt><trkpt lat="44.75527105694348" lon="0.8779355179135362"><ele>119.25</ele><time>2026-04-19T12:03:03.031Z</time></trkpt><trkpt lat="44.755287838518214" lon="0.8781304868928753"><ele>122.5</ele><time>2026-04-19T12:03:04.031Z</time></trkpt><trkpt lat="44.75531792963698" lon="0.8783377479470171"><ele>125.75</ele><time>2026-04-19T12:03:05.031Z</time></trkpt><trkpt lat="44.75536699896257" lon="0.8785420254448763"><ele>129.0</ele><time>2026-04-19T12:03:06.031Z</time></trkpt><trkpt lat="44.75544832356154" lon="0.8787570802635987"><ele>129.0</ele><time>2026-04-19T12:03:07.031Z</time></trkpt><trkpt lat="44.755553444798736" lon="0.878964493137019"><ele>129.0</ele><time>2026-04-19T12:03:08.031Z</time></trkpt><trkpt lat="44.75567930540667" lon="0.8791653312659624"><ele>129.0</ele><time>2026-04-19T12:03:09.031Z</time></trkpt><trkpt lat="44.755783026697515" lon="0.879377708684132"><ele>126.66666666666666</ele><time>2026-04-19T12:03:10.031Z</time></trkpt><trkpt lat="44.75588305748518" lon="0.8796048394289235"><ele>124.33333333333333</ele><time>2026-04-19T12:03:11.031Z</time></trkpt><trkpt lat="44.75594547622163" lon="0.8798629696435945"><ele>122.0</ele><time>2026-04-19T12:03:12.031Z</time></trkpt><trkpt lat="44.75599510922849" lon="0.8801369204775085"><ele>121.0</ele><time>2026-04-19T12:03:13.031Z</time></trkpt><trkpt lat="44.75603513583122" lon="0.8804120817576901"><ele>120.0</ele><time>2026-04-19T12:03:14.031Z</time></trkpt><trkpt lat="44.75607672537017" lon="0.8806725408309689"><ele>119.0</ele><time>2026-04-19T12:03:15.031Z</time></trkpt><trkpt lat="44.756104214953986" lon="0.8809349952904513"><ele>127.66666666666666</ele><time>2026-04-19T12:03:16.031Z</time></trkpt><trkpt lat="44.75613461359218" lon="0.8812039554279316"><ele>136.33333333333334</ele><time>2026-04-19T12:03:17.031Z</time></trkpt><trkpt lat="44.756142475067456" lon="0.8814578621675302"><ele>145.0</ele><time>2026-04-19T12:03:18.031Z</time></trkpt><trkpt lat="44.75613802150421" lon="0.8817303299127165"><ele>144.33333333333334</ele><time>2026-04-19T12:03:19.031Z</time></trkpt><trkpt lat="44.75613071909747" lon="0.8819840245901148"><ele>143.66666666666666</ele><time>2026-04-19T12:03:20.031Z</time></trkpt><trkpt lat="44.75612696027423" lon="0.882222834916135"><ele>143.0</ele><time>2026-04-19T12:03:21.031Z</time></trkpt><trkpt lat="44.75613414138385" lon="0.8824533477458621"><ele>141.0</ele><time>2026-04-19T12:03:22.031Z</time></trkpt><trkpt lat="44.756167085161906" lon="0.8826960810713197"><ele>139.0</ele><time>2026-04-19T12:03:23.031Z</time></trkpt><trkpt lat="44.75621783977447" lon="0.8829432006885582"><ele>137.0</ele><time>2026-04-19T12:03:24.031Z</time></trkpt><trkpt lat="44.7562858119279" lon="0.8832031776394509"><ele>135.33333333333331</ele><time>2026-04-19T12:03:25.031Z</time></trkpt><trkpt lat="44.75633624543097" lon="0.8834585211423076"><ele>133.66666666666666</ele><time>2026-04-19T12:03:26.031Z</time></trkpt><trkpt lat="44.75637653148678" lon="0.8837185674977251"><ele>132.0</ele><time>2026-04-19T12:03:27.031Z</time></trkpt><trkpt lat="44.75642138965563" lon="0.8839920628900344"><ele>132.0</ele><time>2026-04-19T12:03:28.031Z</time></trkpt><trkpt lat="44.75648907727289" lon="0.8842577012523887"><ele>132.0</ele><time>2026-04-19T12:03:29.031Z</time></trkpt><trkpt lat="44.75656928209981" lon="0.8845146991042613"><ele>132.0</ele><time>2026-04-19T12:03:30.031Z</time></trkpt><trkpt lat="44.75666367897941" lon="0.8847657506378269"><ele>129.66666666666666</ele><time>2026-04-19T12:03:31.031Z</time></trkpt><trkpt lat="44.756756407629055" lon="0.8850092779271644"><ele>127.33333333333333</ele><time>2026-04-19T12:03:32.031Z</time></trkpt><trkpt lat="44.756841359348" lon="0.8852576890632554"><ele>125.0</ele><time>2026-04-19T12:03:33.031Z</time></trkpt><trkpt lat="44.75689844745892" lon="0.8855065582891742"><ele>130.0</ele><time>2026-04-19T12:03:34.004Z</time></trkpt><trkpt lat="44.75693866381153" lon="0.8857744556943121"><ele>135.0</ele><time>2026-04-19T12:03:35.004Z</time></trkpt><trkpt lat="44.756973350730355" lon="0.8860511262919012"><ele>140.0</ele><time>2026-04-19T12:03:36.004Z</time></trkpt><trkpt lat="44.757014849530876" lon="0.886312077227579"><ele>140.0</ele><time>2026-04-19T12:03:37.004Z</time></trkpt><trkpt lat="44.757074009637755" lon="0.8865669974609761"><ele>140.0</ele><time>2026-04-19T12:03:38.004Z</time></trkpt><trkpt lat="44.757157848661606" lon="0.886831633087405"><ele>140.0</ele><time>2026-04-19T12:03:39.004Z</time></trkpt><trkpt lat="44.757232828373375" lon="0.8870802568894949"><ele>137.33333333333331</ele><time>2026-04-19T12:03:40.004Z</time></trkpt><trkpt lat="44.75730859186848" lon="0.8873208425475239"><ele>134.66666666666666</ele><time>2026-04-19T12:03:41.004Z</time></trkpt><trkpt lat="44.75738627556313" lon="0.887546925949518"><ele>132.0</ele><time>2026-04-19T12:03:42.004Z</time></trkpt><trkpt lat="44.7574627756849" lon="0.8877730229239763"><ele>132.66666666666666</ele><time>2026-04-19T12:03:43.004Z</time></trkpt><trkpt lat="44.75754783701801" lon="0.8879900908540643"><ele>133.33333333333331</ele><time>2026-04-19T12:03:44.004Z</time></trkpt><trkpt lat="44.75763287584159" lon="0.8882059827317853"><ele>134.0</ele><time>2026-04-19T12:03:45.004Z</time></trkpt><trkpt lat="44.757705113074145" lon="0.8884412982858704"><ele>134.0</ele><time>2026-04-19T12:03:46.005Z</time></trkpt><trkpt lat="44.7578038641199" lon="0.8886368539398541"><ele>134.0</ele><time>2026-04-19T12:03:47.005Z</time></trkpt><trkpt lat="44.75791252905744" lon="0.8888263743581534"><ele>134.0</ele><time>2026-04-19T12:03:48.005Z</time></trkpt><trkpt lat="44.75802407034224" lon="0.8890141423704687"><ele>134.0</ele><time>2026-04-19T12:03:49.005Z</time></trkpt><trkpt lat="44.75813995050153" lon="0.8891994178960263"><ele>134.0</ele><time>2026-04-19T12:03:50.005Z</time></trkpt><trkpt lat="44.7582519590513" lon="0.8893863351022356"><ele>134.0</ele><time>2026-04-19T12:03:51.005Z</time></trkpt><trkpt lat="44.75836753606793" lon="0.8895768514068745"><ele>133.33333333333331</ele><time>2026-04-19T12:03:52.005Z</time></trkpt><trkpt lat="44.758480147676366" lon="0.8897845047963326"><ele>132.66666666666666</ele><time>2026-04-19T12:03:53.005Z</time></trkpt><trkpt lat="44.75859294672666" lon="0.889981926525603"><ele>132.0</ele><time>2026-04-19T12:03:54.005Z</time></trkpt><trkpt lat="44.758704049140704" lon="0.8901778493583746"><ele>132.0</ele><time>2026-04-19T12:03:55.005Z</time></trkpt><trkpt lat="44.75881420637559" lon="0.890372170169597"><ele>132.0</ele><time>2026-04-19T12:03:56.005Z</time></trkpt><trkpt lat="44.7589222398472" lon="0.8905794099597959"><ele>132.0</ele><time>2026-04-19T12:03:57.005Z</time></trkpt><trkpt lat="44.75901311692679" lon="0.8907915832097076"><ele>130.0</ele><time>2026-04-19T12:03:58.005Z</time></trkpt><trkpt lat="44.75908464085933" lon="0.8910118973826329"><ele>128.0</ele><time>2026-04-19T12:03:59.005Z</time></trkpt><trkpt lat="44.75915022852228" lon="0.8912524013643061"><ele>126.0</ele><time>2026-04-19T12:04:00.005Z</time></trkpt><trkpt lat="44.75921069020748" lon="0.8914902781776806"><ele>126.0</ele><time>2026-04-19T12:04:01.005Z</time></trkpt><trkpt lat="44.75927169014864" lon="0.8917257428162304"><ele>126.0</ele><time>2026-04-19T12:04:02.005Z</time></trkpt><trkpt lat="44.75932848233777" lon="0.8919605798567356"><ele>126.0</ele><time>2026-04-19T12:04:03.005Z</time></trkpt><trkpt lat="44.75938796355612" lon="0.8921922830003706"><ele>128.66666666666666</ele><time>2026-04-19T12:04:04.005Z</time></trkpt><trkpt lat="44.759446458354894" lon="0.8924211875235322"><ele>131.33333333333331</ele><time>2026-04-19T12:04:05.005Z</time></trkpt><trkpt lat="44.75951418539133" lon="0.8926504239096795"><ele>134.0</ele><time>2026-04-19T12:04:06.005Z</time></trkpt><trkpt lat="44.7595805810415" lon="0.8928754288293743"><ele>134.0</ele><time>2026-04-19T12:04:07.005Z</time></trkpt><trkpt lat="44.75964448553671" lon="0.893097825227314"><ele>134.0</ele><time>2026-04-19T12:04:08.005Z</time></trkpt><trkpt lat="44.75970503967344" lon="0.8933180248432974"><ele>134.0</ele><time>2026-04-19T12:04:09.005Z</time></trkpt><trkpt lat="44.75976437720458" lon="0.8935246526141167"><ele>133.5</ele><time>2026-04-19T12:04:10.005Z</time></trkpt><trkpt lat="44.75981974342853" lon="0.8937264707999976"><ele>133.0</ele><time>2026-04-19T12:04:11.005Z</time></trkpt><trkpt lat="44.75988345591837" lon="0.8939124370684869"><ele>132.5</ele><time>2026-04-19T12:04:12.005Z</time></trkpt><trkpt lat="44.759925413398975" lon="0.8940942082394354"><ele>132.0</ele><time>2026-04-19T12:04:13.005Z</time></trkpt><trkpt lat="44.75995632334894" lon="0.8942811162228528"><ele>132.0</ele><time>2026-04-19T12:04:14.005Z</time></trkpt><trkpt lat="44.759960511385046" lon="0.8944714267281679"><ele>132.0</ele><time>2026-04-19T12:04:15.005Z</time></trkpt><trkpt lat="44.75994462988045" lon="0.8946563322296339"><ele>132.0</ele><time>2026-04-19T12:04:16.005Z</time></trkpt><trkpt lat="44.759918172613716" lon="0.8948404307522217"><ele>132.0</ele><time>2026-04-19T12:04:17.005Z</time></trkpt><trkpt lat="44.75988143196629" lon="0.8950163482503246"><ele>132.0</ele><time>2026-04-19T12:04:18.005Z</time></trkpt><trkpt lat="44.759864030286515" lon="0.895199118913797"><ele>132.0</ele><time>2026-04-19T12:04:19.005Z</time></trkpt><trkpt lat="44.759859636283" lon="0.8953725858869632"><ele>132.0</ele><time>2026-04-19T12:04:20.005Z</time></trkpt><trkpt lat="44.7598461328519" lon="0.8955583432814628"><ele>132.0</ele><time>2026-04-19T12:04:21.002Z</time></trkpt><trkpt lat="44.759849835709794" lon="0.8957474224598623"><ele>132.0</ele><time>2026-04-19T12:04:22.002Z</time></trkpt><trkpt lat="44.75985897124383" lon="0.8959371541781072"><ele>132.0</ele><time>2026-04-19T12:04:23.002Z</time></trkpt><trkpt lat="44.759868421709115" lon="0.8961225304074977"><ele>132.0</ele><time>2026-04-19T12:04:24.002Z</time></trkpt><trkpt lat="44.759871196144296" lon="0.8963196498307815"><ele>132.0</ele><time>2026-04-19T12:04:25.001Z</time></trkpt><trkpt lat="44.759871115027394" lon="0.8965137228622553"><ele>132.0</ele><time>2026-04-19T12:04:26.001Z</time></trkpt><trkpt lat="44.75988255586322" lon="0.8967175457956975"><ele>132.0</ele><time>2026-04-19T12:04:27.002Z</time></trkpt><trkpt lat="44.75989780521736" lon="0.896929712996261"><ele>132.0</ele><time>2026-04-19T12:04:28.001Z</time></trkpt><trkpt lat="44.75991596743075" lon="0.8971482793207947"><ele>131.25</ele><time>2026-04-19T12:04:29.001Z</time></trkpt><trkpt lat="44.75994708929078" lon="0.8973564633912509"><ele>130.5</ele><time>2026-04-19T12:04:30.002Z</time></trkpt><trkpt lat="44.75998906584203" lon="0.897548857170748"><ele>129.75</ele><time>2026-04-19T12:04:31.002Z</time></trkpt><trkpt lat="44.76004981945602" lon="0.8977318951988039"><ele>129.0</ele><time>2026-04-19T12:04:32.002Z</time></trkpt><trkpt lat="44.7601268506377" lon="0.8979097002945322"><ele>130.0</ele><time>2026-04-19T12:04:33.002Z</time></trkpt><trkpt lat="44.76022888611338" lon="0.898074168991651"><ele>131.0</ele><time>2026-04-19T12:04:34.002Z</time></trkpt><trkpt lat="44.76035319300111" lon="0.8982217681651106"><ele>132.0</ele><time>2026-04-19T12:04:35.002Z</time></trkpt><trkpt lat="44.760480888159215" lon="0.8983507250779651"><ele>130.0</ele><time>2026-04-19T12:04:36.002Z</time></trkpt><trkpt lat="44.76059588398284" lon="0.8984718103917406"><ele>128.0</ele><time>2026-04-19T12:04:37.002Z</time></trkpt><trkpt lat="44.760676562996935" lon="0.8986379922583413"><ele>126.0</ele><time>2026-04-19T12:04:38.002Z</time></trkpt><trkpt lat="44.7607341251998" lon="0.8988045250613942"><ele>124.0</ele><time>2026-04-19T12:04:39.002Z</time></trkpt><trkpt lat="44.76079075500761" lon="0.8989964616068914"><ele>124.0</ele><time>2026-04-19T12:04:40.002Z</time></trkpt><trkpt lat="44.76084156215939" lon="0.899206616866152"><ele>124.0</ele><time>2026-04-19T12:04:41.002Z</time></trkpt><trkpt lat="44.76087876935712" lon="0.8994107031339079"><ele>124.0</ele><time>2026-04-19T12:04:42.002Z</time></trkpt><trkpt lat="44.76089643219294" lon="0.8996152696599445"><ele>125.0</ele><time>2026-04-19T12:04:43.002Z</time></trkpt><trkpt lat="44.76087964562357" lon="0.8998109164193465"><ele>126.0</ele><time>2026-04-19T12:04:44.002Z</time></trkpt><trkpt lat="44.76086623980386" lon="0.8999926764833704"><ele>127.0</ele><time>2026-04-19T12:04:45.002Z</time></trkpt><trkpt lat="44.760879570274305" lon="0.900170166186215"><ele>128.0</ele><time>2026-04-19T12:04:46.002Z</time></trkpt><trkpt lat="44.76091145026179" lon="0.900322886659608"><ele>128.0</ele><time>2026-04-19T12:04:47.002Z</time></trkpt><trkpt lat="44.760994843523214" lon="0.9004736130192031"><ele>128.0</ele><time>2026-04-19T12:04:48.002Z</time></trkpt><trkpt lat="44.761106908217215" lon="0.9005996303596403"><ele>128.0</ele><time>2026-04-19T12:04:49.002Z</time></trkpt><trkpt lat="44.76123050724904" lon="0.9007498688332325"><ele>128.0</ele><time>2026-04-19T12:04:50.002Z</time></trkpt><trkpt lat="44.76132895572038" lon="0.9009298959333422"><ele>134.0</ele><time>2026-04-19T12:04:51.002Z</time></trkpt><trkpt lat="44.76140382115411" lon="0.9011368626131101"><ele>140.0</ele><time>2026-04-19T12:04:52.002Z</time></trkpt><trkpt lat="44.761457233889324" lon="0.9013560304194749"><ele>146.0</ele><time>2026-04-19T12:04:53.002Z</time></trkpt><trkpt lat="44.761478890883836" lon="0.901589463740634"><ele>147.66666666666666</ele><time>2026-04-19T12:04:54.002Z</time></trkpt><trkpt lat="44.76146541090875" lon="0.9018327940109769"><ele>149.33333333333334</ele><time>2026-04-19T12:04:55.002Z</time></trkpt><trkpt lat="44.76139436634762" lon="0.9020504697887164"><ele>151.0</ele><time>2026-04-19T12:04:56.002Z</time></trkpt><trkpt lat="44.761315785947666" lon="0.902265736400109"><ele>151.0</ele><time>2026-04-19T12:04:57.002Z</time></trkpt><trkpt lat="44.76122688429305" lon="0.9024774818549989"><ele>151.0</ele><time>2026-04-19T12:04:58.002Z</time></trkpt><trkpt lat="44.76113978356646" lon="0.9027051634377714"><ele>151.0</ele><time>2026-04-19T12:04:59.002Z</time></trkpt><trkpt lat="44.761013382306196" lon="0.9028929029979285"><ele>149.0</ele><time>2026-04-19T12:05:00.002Z</time></trkpt><trkpt lat="44.760881926008985" lon="0.9030824651981358"><ele>147.0</ele><time>2026-04-19T12:05:01.003Z</time></trkpt><trkpt lat="44.76074407713267" lon="0.9032644341408554"><ele>145.0</ele><time>2026-04-19T12:05:02.003Z</time></trkpt><trkpt lat="44.76062449675889" lon="0.9034479028929341"><ele>145.0</ele><time>2026-04-19T12:05:03.003Z</time></trkpt><trkpt lat="44.760493719508716" lon="0.9036060690617401"><ele>145.0</ele><time>2026-04-19T12:05:04.003Z</time></trkpt><trkpt lat="44.76038730023942" lon="0.9037606086727135"><ele>145.0</ele><time>2026-04-19T12:05:05.003Z</time></trkpt><trkpt lat="44.760273490225906" lon="0.90391461492637"><ele>141.75</ele><time>2026-04-19T12:05:06.003Z</time></trkpt><trkpt lat="44.760169209199816" lon="0.9040731419918367"><ele>138.5</ele><time>2026-04-19T12:05:07.003Z</time></trkpt><trkpt lat="44.76006966009113" lon="0.9042353671329559"><ele>135.25</ele><time>2026-04-19T12:05:08.003Z</time></trkpt><trkpt lat="44.759982657316435" lon="0.9043945044078934"><ele>132.0</ele><time>2026-04-19T12:05:09.003Z</time></trkpt><trkpt lat="44.7599165571622" lon="0.9045358514715189"><ele>131.79999999999998</ele><time>2026-04-19T12:05:10.003Z</time></trkpt><trkpt lat="44.75988009853187" lon="0.9046719866111326"><ele>131.6</ele><time>2026-04-19T12:05:11.003Z</time></trkpt><trkpt lat="44.7598706630313" lon="0.904820977934501"><ele>131.39999999999998</ele><time>2026-04-19T12:05:12.003Z</time></trkpt><trkpt lat="44.75990216653916" lon="0.9049675738101919"><ele>131.2</ele><time>2026-04-19T12:05:13.003Z</time></trkpt><trkpt lat="44.759958526704374" lon="0.9051044572687796"><ele>131.0</ele><time>2026-04-19T12:05:14.003Z</time></trkpt><trkpt lat="44.76005040783636" lon="0.9052032245693935"><ele>130.5</ele><time>2026-04-19T12:05:15.003Z</time></trkpt><trkpt lat="44.76015708054645" lon="0.9052761332793738"><ele>130.0</ele><time>2026-04-19T12:05:16.003Z</time></trkpt><trkpt lat="44.760269738630335" lon="0.9053276818671618"><ele>129.5</ele><time>2026-04-19T12:05:17.003Z</time></trkpt><trkpt lat="44.76037781496367" lon="0.905369715816731"><ele>129.0</ele><time>2026-04-19T12:05:18.003Z</time></trkpt><trkpt lat="44.76047109213977" lon="0.9054501520178133"><ele>131.75</ele><time>2026-04-19T12:05:19.003Z</time></trkpt><trkpt lat="44.76054856567707" lon="0.9055689592493427"><ele>134.5</ele><time>2026-04-19T12:05:20.003Z</time></trkpt><trkpt lat="44.76059350393635" lon="0.9057303753597391"><ele>137.25</ele><time>2026-04-19T12:05:21.003Z</time></trkpt><trkpt lat="44.76062613738385" lon="0.9058913658172576"><ele>140.0</ele><time>2026-04-19T12:05:22.003Z</time></trkpt><trkpt lat="44.76065864770899" lon="0.9060564634007938"><ele>140.0</ele><time>2026-04-19T12:05:23.003Z</time></trkpt><trkpt lat="44.76070092182518" lon="0.9062369553352474"><ele>140.0</ele><time>2026-04-19T12:05:24.003Z</time></trkpt><trkpt lat="44.760745306025186" lon="0.9064257781767956"><ele>140.0</ele><time>2026-04-19T12:05:25.003Z</time></trkpt><trkpt lat="44.760771156550746" lon="0.9066133272959142"><ele>140.0</ele><time>2026-04-19T12:05:26.003Z</time></trkpt><trkpt lat="44.76078484316785" lon="0.9068031290929103"><ele>140.0</ele><time>2026-04-19T12:05:27.003Z</time></trkpt><trkpt lat="44.760781579688846" lon="0.9069966083738238"><ele>140.0</ele><time>2026-04-19T12:05:28.003Z</time></trkpt><trkpt lat="44.76076515269604" lon="0.9071929610421468"><ele>140.0</ele><time>2026-04-19T12:05:29.003Z</time></trkpt><trkpt lat="44.760741006422876" lon="0.9073906222325183"><ele>140.0</ele><time>2026-04-19T12:05:30.003Z</time></trkpt><trkpt lat="44.76071554959592" lon="0.9075792795255497"><ele>141.0</ele><time>2026-04-19T12:05:31.003Z</time></trkpt><trkpt lat="44.760682276139995" lon="0.9077539971263369"><ele>142.0</ele><time>2026-04-19T12:05:32.003Z</time></trkpt><trkpt lat="44.76063481061751" lon="0.9079335168430934"><ele>143.0</ele><time>2026-04-19T12:05:33.003Z</time></trkpt><trkpt lat="44.760587613858135" lon="0.9081054647810294"><ele>144.0</ele><time>2026-04-19T12:05:34.003Z</time></trkpt><trkpt lat="44.760520788399646" lon="0.9082824805004569"><ele>146.25</ele><time>2026-04-19T12:05:35.003Z</time></trkpt><trkpt lat="44.760444238556154" lon="0.9084396865316869"><ele>148.5</ele><time>2026-04-19T12:05:36.003Z</time></trkpt><trkpt lat="44.76038405430859" lon="0.9086172087513665"><ele>150.75</ele><time>2026-04-19T12:05:37.003Z</time></trkpt><trkpt lat="44.76029919514161" lon="0.9087737046252208"><ele>153.0</ele><time>2026-04-19T12:05:38.003Z</time></trkpt><trkpt lat="44.760207053610934" lon="0.9089172133181976"><ele>150.25</ele><time>2026-04-19T12:05:39.003Z</time></trkpt><trkpt lat="44.76010042862502" lon="0.9090354204002424"><ele>147.5</ele><time>2026-04-19T12:05:40.003Z</time></trkpt><trkpt lat="44.75999102685478" lon="0.9091511528332163"><ele>144.75</ele><time>2026-04-19T12:05:41.004Z</time></trkpt><trkpt lat="44.75987741342062" lon="0.9092236648266433"><ele>142.0</ele><time>2026-04-19T12:05:42.004Z</time></trkpt><trkpt lat="44.75974128063945" lon="0.909254346410887"><ele>142.0</ele><time>2026-04-19T12:05:43.004Z</time></trkpt><trkpt lat="44.75960492102627" lon="0.9092532342463823"><ele>142.0</ele><time>2026-04-19T12:05:44.004Z</time></trkpt><trkpt lat="44.7594666670798" lon="0.9092214875129159"><ele>142.0</ele><time>2026-04-19T12:05:45.004Z</time></trkpt><trkpt lat="44.75932767239014" lon="0.9091730194957816"><ele>142.0</ele><time>2026-04-19T12:05:46.004Z</time></trkpt><trkpt lat="44.75918934800291" lon="0.9091127979883491"><ele>142.25</ele><time>2026-04-19T12:05:47.004Z</time></trkpt><trkpt lat="44.75904847571223" lon="0.9090448257976805"><ele>142.5</ele><time>2026-04-19T12:05:48.004Z</time></trkpt><trkpt lat="44.75892715817594" lon="0.908986240069907"><ele>142.75</ele><time>2026-04-19T12:05:49.004Z</time></trkpt><trkpt lat="44.758806402939435" lon="0.9089473942027193"><ele>143.0</ele><time>2026-04-19T12:05:50.004Z</time></trkpt><trkpt lat="44.7586986160149" lon="0.9089370445880391"><ele>143.0</ele><time>2026-04-19T12:05:51.004Z</time></trkpt><trkpt lat="44.758588669124194" lon="0.9089783102853308"><ele>143.0</ele><time>2026-04-19T12:05:52.004Z</time></trkpt><trkpt lat="44.75849665864637" lon="0.9090853167613768"><ele>143.0</ele><time>2026-04-19T12:05:53.004Z</time></trkpt><trkpt lat="44.75842297503377" lon="0.9091805629265183"><ele>143.0</ele><time>2026-04-19T12:05:54.004Z</time></trkpt><trkpt lat="44.75838611982465" lon="0.9093437972908524"><ele>142.66666666666666</ele><time>2026-04-19T12:05:55.004Z</time></trkpt><trkpt lat="44.75835428281153" lon="0.9095404814935664"><ele>142.33333333333334</ele><time>2026-04-19T12:05:56.004Z</time></trkpt><trkpt lat="44.75833381407709" lon="0.9097477983741824"><ele>142.0</ele><time>2026-04-19T12:05:57.004Z</time></trkpt><trkpt lat="44.7583177961978" lon="0.9099687649068139"><ele>142.33333333333334</ele><time>2026-04-19T12:05:58.004Z</time></trkpt><trkpt lat="44.758314174552716" lon="0.9102013688105708"><ele>142.66666666666666</ele><time>2026-04-19T12:05:59.004Z</time></trkpt><trkpt lat="44.75831289296678" lon="0.9104500413221077"><ele>143.0</ele><time>2026-04-19T12:06:00.004Z</time></trkpt><trkpt lat="44.75830877042574" lon="0.9106868723802101"><ele>143.66666666666666</ele><time>2026-04-19T12:06:01.004Z</time></trkpt><trkpt lat="44.75832381930318" lon="0.9109239655928438"><ele>144.33333333333334</ele><time>2026-04-19T12:06:02.004Z</time></trkpt><trkpt lat="44.75834659304374" lon="0.9111543799314789"><ele>145.0</ele><time>2026-04-19T12:06:03.004Z</time></trkpt><trkpt lat="44.758384474003755" lon="0.9113570390403349"><ele>145.0</ele><time>2026-04-19T12:06:04.004Z</time></trkpt><trkpt lat="44.75839999348466" lon="0.911548844665578"><ele>145.0</ele><time>2026-04-19T12:06:05.004Z</time></trkpt><trkpt lat="44.75842879943873" lon="0.9117243528584651"><ele>145.0</ele><time>2026-04-19T12:06:06.004Z</time></trkpt><trkpt lat="44.75845998357483" lon="0.911898268648454"><ele>145.0</ele><time>2026-04-19T12:06:07.004Z</time></trkpt><trkpt lat="44.758475393725476" lon="0.9120660420037612"><ele>145.5</ele><time>2026-04-19T12:06:08.004Z</time></trkpt><trkpt lat="44.75847137216844" lon="0.9122383920839546"><ele>146.0</ele><time>2026-04-19T12:06:09.004Z</time></trkpt><trkpt lat="44.75843729894485" lon="0.9124148602575809"><ele>146.5</ele><time>2026-04-19T12:06:10.004Z</time></trkpt><trkpt lat="44.758367517299625" lon="0.9125693471895712"><ele>147.0</ele><time>2026-04-19T12:06:11.004Z</time></trkpt><trkpt lat="44.75828691696722" lon="0.9127032988316278"><ele>148.75</ele><time>2026-04-19T12:06:12.004Z</time></trkpt><trkpt lat="44.75820345973092" lon="0.9128182107214461"><ele>150.5</ele><time>2026-04-19T12:06:13.004Z</time></trkpt><trkpt lat="44.75808638562348" lon="0.9129476405120428"><ele>152.25</ele><time>2026-04-19T12:06:14.004Z</time></trkpt><trkpt lat="44.75796948370091" lon="0.9130722785185271"><ele>154.0</ele><time>2026-04-19T12:06:15.004Z</time></trkpt><trkpt lat="44.757858080556886" lon="0.9131910539936707"><ele>154.0</ele><time>2026-04-19T12:06:16.004Z</time></trkpt><trkpt lat="44.7577499183262" lon="0.9133063739064037"><ele>154.0</ele><time>2026-04-19T12:06:17.004Z</time></trkpt><trkpt lat="44.7576494351578" lon="0.9134130758548223"><ele>154.0</ele><time>2026-04-19T12:06:18.004Z</time></trkpt><trkpt lat="44.75756152052561" lon="0.9135217999231193"><ele>154.0</ele><time>2026-04-19T12:06:19.004Z</time></trkpt><trkpt lat="44.75748198583575" lon="0.9136454644045415"><ele>151.75</ele><time>2026-04-19T12:06:20.004Z</time></trkpt><trkpt lat="44.75742192500212" lon="0.9137947111136521"><ele>149.5</ele><time>2026-04-19T12:06:21.005Z</time></trkpt><trkpt lat="44.757400386613696" lon="0.9139744018320819"><ele>147.25</ele><time>2026-04-19T12:06:22.005Z</time></trkpt><trkpt lat="44.75739609198979" lon="0.9141616343809181"><ele>145.0</ele><time>2026-04-19T12:06:23.005Z</time></trkpt><trkpt lat="44.75742269682121" lon="0.9143698998529294"><ele>145.0</ele><time>2026-04-19T12:06:24.005Z</time></trkpt><trkpt lat="44.75744537031677" lon="0.9145898931699837"><ele>145.0</ele><time>2026-04-19T12:06:25.005Z</time></trkpt><trkpt lat="44.757482244545244" lon="0.9148140448622619"><ele>145.0</ele><time>2026-04-19T12:06:26.005Z</time></trkpt><trkpt lat="44.75750947966389" lon="0.9150275307121868"><ele>144.25</ele><time>2026-04-19T12:06:27.001Z</time></trkpt><trkpt lat="44.757529618127144" lon="0.9152354084348524"><ele>143.5</ele><time>2026-04-19T12:06:28.001Z</time></trkpt><trkpt lat="44.75755320161707" lon="0.9154393373129324"><ele>142.75</ele><time>2026-04-19T12:06:29.001Z</time></trkpt><trkpt lat="44.757574189944506" lon="0.9156363745644516"><ele>142.0</ele><time>2026-04-19T12:06:30.001Z</time></trkpt><trkpt lat="44.75762526523681" lon="0.9158480217871757"><ele>141.0</ele><time>2026-04-19T12:06:31.001Z</time></trkpt><trkpt lat="44.75768238246535" lon="0.9160627971603857"><ele>140.0</ele><time>2026-04-19T12:06:32.001Z</time></trkpt><trkpt lat="44.7577514098559" lon="0.916275364748795"><ele>139.0</ele><time>2026-04-19T12:06:33.001Z</time></trkpt><trkpt lat="44.75782518760575" lon="0.916473306107798"><ele>140.25</ele><time>2026-04-19T12:06:34.001Z</time></trkpt><trkpt lat="44.75788703124011" lon="0.9166723666485843"><ele>141.5</ele><time>2026-04-19T12:06:35.001Z</time></trkpt><trkpt lat="44.75795555161194" lon="0.9168620967567541"><ele>142.75</ele><time>2026-04-19T12:06:36.001Z</time></trkpt><trkpt lat="44.75800854441839" lon="0.9170299382887263"><ele>144.0</ele><time>2026-04-19T12:06:37.002Z</time></trkpt><trkpt lat="44.75806352397343" lon="0.9171903604209111"><ele>144.0</ele><time>2026-04-19T12:06:38.002Z</time></trkpt><trkpt lat="44.758121158869436" lon="0.9173347411864472"><ele>144.0</ele><time>2026-04-19T12:06:39.001Z</time></trkpt><trkpt lat="44.75819086555634" lon="0.917449154713822"><ele>144.0</ele><time>2026-04-19T12:06:40.002Z</time></trkpt><trkpt lat="44.758290569086284" lon="0.9175451291486121"><ele>144.0</ele><time>2026-04-19T12:06:41.002Z</time></trkpt><trkpt lat="44.758408405206715" lon="0.917594927741416"><ele>144.0</ele><time>2026-04-19T12:06:42.002Z</time></trkpt><trkpt lat="44.75853104349645" lon="0.9176339936964947"><ele>144.0</ele><time>2026-04-19T12:06:43.002Z</time></trkpt><trkpt lat="44.758653394154095" lon="0.9176450059849048"><ele>144.0</ele><time>2026-04-19T12:06:44.002Z</time></trkpt><trkpt lat="44.75876765618239" lon="0.9176698378028008"><ele>144.0</ele><time>2026-04-19T12:06:45.002Z</time></trkpt><trkpt lat="44.7588811567384" lon="0.9176981408807597"><ele>144.0</ele><time>2026-04-19T12:06:46.002Z</time></trkpt><trkpt lat="44.758982343469214" lon="0.9177475506429922"><ele>144.0</ele><time>2026-04-19T12:06:47.002Z</time></trkpt><trkpt lat="44.75906274196392" lon="0.9178078935477988"><ele>144.0</ele><time>2026-04-19T12:06:48.002Z</time></trkpt><trkpt lat="44.75915142771259" lon="0.9178813783422548"><ele>144.0</ele><time>2026-04-19T12:06:49.002Z</time></trkpt><trkpt lat="44.75921955837808" lon="0.9179767660342687"><ele>144.0</ele><time>2026-04-19T12:06:50.002Z</time></trkpt><trkpt lat="44.759270004775004" lon="0.9180848701147779"><ele>144.0</ele><time>2026-04-19T12:06:51.002Z</time></trkpt><trkpt lat="44.759293925950885" lon="0.9181971119221739"><ele>144.0</ele><time>2026-04-19T12:06:52.002Z</time></trkpt><trkpt lat="44.75929641839119" lon="0.9183321186243711"><ele>144.0</ele><time>2026-04-19T12:06:53.002Z</time></trkpt><trkpt lat="44.75929819861206" lon="0.918475565508914"><ele>144.0</ele><time>2026-04-19T12:06:54.002Z</time></trkpt><trkpt lat="44.75930337077092" lon="0.9186318914799272"><ele>144.0</ele><time>2026-04-19T12:06:55.002Z</time></trkpt><trkpt lat="44.75931723193833" lon="0.9187913576937773"><ele>143.5</ele><time>2026-04-19T12:06:56.002Z</time></trkpt><trkpt lat="44.75935715796713" lon="0.9189710473173351"><ele>143.0</ele><time>2026-04-19T12:06:57.002Z</time></trkpt><trkpt lat="44.759421559327265" lon="0.9191542951292888"><ele>142.5</ele><time>2026-04-19T12:06:58.002Z</time></trkpt><trkpt lat="44.75948784245522" lon="0.9193355548625052"><ele>142.0</ele><time>2026-04-19T12:06:59.002Z</time></trkpt><trkpt lat="44.75953469621245" lon="0.9195184895942179"><ele>144.0</ele><time>2026-04-19T12:07:00.002Z</time></trkpt><trkpt lat="44.75956233269058" lon="0.9197044264443528"><ele>146.0</ele><time>2026-04-19T12:07:01.002Z</time></trkpt><trkpt lat="44.75954597571048" lon="0.9199045434911404"><ele>148.0</ele><time>2026-04-19T12:07:02.002Z</time></trkpt><trkpt lat="44.759482748296776" lon="0.920083296394718"><ele>150.0</ele><time>2026-04-19T12:07:03.002Z</time></trkpt><trkpt lat="44.75942325338997" lon="0.9202608943243591"><ele>149.0</ele><time>2026-04-19T12:07:04.002Z</time></trkpt><trkpt lat="44.759354519819354" lon="0.9204517152897582"><ele>148.0</ele><time>2026-04-19T12:07:05.003Z</time></trkpt><trkpt lat="44.75929091389269" lon="0.9206739954184171"><ele>147.0</ele><time>2026-04-19T12:07:06.003Z</time></trkpt><trkpt lat="44.75922447631627" lon="0.9208563359392629"><ele>150.5</ele><time>2026-04-19T12:07:07.003Z</time></trkpt><trkpt lat="44.759163326990524" lon="0.9210184334207567"><ele>154.0</ele><time>2026-04-19T12:07:08.003Z</time></trkpt><trkpt lat="44.759079155015" lon="0.9211367118633129"><ele>157.5</ele><time>2026-04-19T12:07:09.003Z</time></trkpt><trkpt lat="44.75898036774303" lon="0.921227901035693"><ele>161.0</ele><time>2026-04-19T12:07:10.003Z</time></trkpt><trkpt lat="44.75887406976356" lon="0.9212638991322203"><ele>161.0</ele><time>2026-04-19T12:07:11.003Z</time></trkpt><trkpt lat="44.75874185368247" lon="0.9212874707945378"><ele>161.0</ele><time>2026-04-19T12:07:12.003Z</time></trkpt><trkpt lat="44.758600208475045" lon="0.9212768520994367"><ele>161.0</ele><time>2026-04-19T12:07:13.003Z</time></trkpt><trkpt lat="44.75845367891306" lon="0.9212755791650501"><ele>161.0</ele><time>2026-04-19T12:07:14.003Z</time></trkpt><trkpt lat="44.75831680931429" lon="0.921296342634178"><ele>160.0</ele><time>2026-04-19T12:07:15.003Z</time></trkpt><trkpt lat="44.758173209381226" lon="0.9213060711954113"><ele>159.0</ele><time>2026-04-19T12:07:16.003Z</time></trkpt><trkpt lat="44.75803643935687" lon="0.9213808493379293"><ele>158.0</ele><time>2026-04-19T12:07:17.003Z</time></trkpt><trkpt lat="44.75790358331877" lon="0.9214769410463785"><ele>157.0</ele><time>2026-04-19T12:07:18.003Z</time></trkpt><trkpt lat="44.757758539750206" lon="0.9216233225848036"><ele>158.66666666666669</ele><time>2026-04-19T12:07:19.003Z</time></trkpt><trkpt lat="44.75760278304413" lon="0.9217701490927024"><ele>160.33333333333334</ele><time>2026-04-19T12:07:20.003Z</time></trkpt><trkpt lat="44.757437041719776" lon="0.9219225935850539"><ele>162.0</ele><time>2026-04-19T12:07:21.003Z</time></trkpt><trkpt lat="44.75726246800027" lon="0.9220736787467174"><ele>162.0</ele><time>2026-04-19T12:07:22.003Z</time></trkpt><trkpt lat="44.75709243001692" lon="0.9222280279466786"><ele>162.0</ele><time>2026-04-19T12:07:23.003Z</time></trkpt><trkpt lat="44.75693547219848" lon="0.9223806942552505"><ele>162.0</ele><time>2026-04-19T12:07:24.003Z</time></trkpt><trkpt lat="44.756785153541195" lon="0.9225325410356787"><ele>160.0</ele><time>2026-04-19T12:07:25.003Z</time></trkpt><trkpt lat="44.7566344716909" lon="0.9226990821458851"><ele>158.0</ele><time>2026-04-19T12:07:26.003Z</time></trkpt><trkpt lat="44.7564860974872" lon="0.9228935317708072"><ele>156.0</ele><time>2026-04-19T12:07:27.003Z</time></trkpt><trkpt lat="44.756339250815" lon="0.9231133053924877"><ele>156.0</ele><time>2026-04-19T12:07:28.003Z</time></trkpt><trkpt lat="44.756195565055194" lon="0.9233151391853696"><ele>156.0</ele><time>2026-04-19T12:07:29.003Z</time></trkpt><trkpt lat="44.7560603267725" lon="0.9235177269886634"><ele>156.0</ele><time>2026-04-19T12:07:30.003Z</time></trkpt><trkpt lat="44.75594095604521" lon="0.9237280196543667"><ele>156.66666666666666</ele><time>2026-04-19T12:07:31.003Z</time></trkpt><trkpt lat="44.755814901741545" lon="0.9239140876986379"><ele>157.33333333333331</ele><time>2026-04-19T12:07:32.003Z</time></trkpt><trkpt lat="44.75569304538927" lon="0.9240867274848599"><ele>158.0</ele><time>2026-04-19T12:07:33.003Z</time></trkpt><trkpt lat="44.75559284563088" lon="0.9242809888045006"><ele>158.0</ele><time>2026-04-19T12:07:34.003Z</time></trkpt><trkpt lat="44.755510813933796" lon="0.92450105346833"><ele>158.0</ele><time>2026-04-19T12:07:35.003Z</time></trkpt><trkpt lat="44.75541195762636" lon="0.9246835759601324"><ele>158.0</ele><time>2026-04-19T12:07:36.003Z</time></trkpt><trkpt lat="44.755335020505015" lon="0.9248690226364369"><ele>158.0</ele><time>2026-04-19T12:07:37.003Z</time></trkpt><trkpt lat="44.75528416556801" lon="0.925056542309783"><ele>158.0</ele><time>2026-04-19T12:07:38.003Z</time></trkpt><trkpt lat="44.75523622096333" lon="0.925215222666189"><ele>158.0</ele><time>2026-04-19T12:07:39.003Z</time></trkpt><trkpt lat="44.75521717868102" lon="0.9253910675127063"><ele>158.0</ele><time>2026-04-19T12:07:40.003Z</time></trkpt><trkpt lat="44.75522582299297" lon="0.9255768230944255"><ele>158.75</ele><time>2026-04-19T12:07:41.003Z</time></trkpt><trkpt lat="44.75522705618928" lon="0.9257796791877838"><ele>159.5</ele><time>2026-04-19T12:07:42.003Z</time></trkpt><trkpt lat="44.75524477613907" lon="0.9259806751189232"><ele>160.25</ele><time>2026-04-19T12:07:43.003Z</time></trkpt><trkpt lat="44.7552397794334" lon="0.9261910577329285"><ele>161.0</ele><time>2026-04-19T12:07:44.003Z</time></trkpt><trkpt lat="44.75522351616477" lon="0.9264106701463968"><ele>161.0</ele><time>2026-04-19T12:07:45.004Z</time></trkpt><trkpt lat="44.75520970130598" lon="0.9266289729472132"><ele>161.0</ele><time>2026-04-19T12:07:46.004Z</time></trkpt><trkpt lat="44.75521594447694" lon="0.9268420092964722"><ele>161.0</ele><time>2026-04-19T12:07:47.004Z</time></trkpt><trkpt lat="44.755223806944855" lon="0.9270575219309523"><ele>159.5</ele><time>2026-04-19T12:07:48.004Z</time></trkpt><trkpt lat="44.7552223611634" lon="0.927267543671836"><ele>158.0</ele><time>2026-04-19T12:07:49.004Z</time></trkpt><trkpt lat="44.75519513506366" lon="0.9274708071809156"><ele>156.5</ele><time>2026-04-19T12:07:50.004Z</time></trkpt><trkpt lat="44.7551351093904" lon="0.9276656341679352"><ele>155.0</ele><time>2026-04-19T12:07:51.004Z</time></trkpt><trkpt lat="44.75501790976496" lon="0.9278290659947859"><ele>155.0</ele><time>2026-04-19T12:07:52.004Z</time></trkpt><trkpt lat="44.75492308604549" lon="0.9280086550149405"><ele>155.0</ele><time>2026-04-19T12:07:53.004Z</time></trkpt><trkpt lat="44.75483108215196" lon="0.9281976985790544"><ele>155.0</ele><time>2026-04-19T12:07:54.004Z</time></trkpt><trkpt lat="44.75474652062764" lon="0.928358211969334"><ele>156.25</ele><time>2026-04-19T12:07:55.004Z</time></trkpt><trkpt lat="44.75466629887686" lon="0.9285063746563201"><ele>157.5</ele><time>2026-04-19T12:07:56.004Z</time></trkpt><trkpt lat="44.754592565492345" lon="0.9286598238170972"><ele>158.75</ele><time>2026-04-19T12:07:57.004Z</time></trkpt><trkpt lat="44.75453437131864" lon="0.9288187542351801"><ele>160.0</ele><time>2026-04-19T12:07:58.004Z</time></trkpt><trkpt lat="44.754489286091264" lon="0.9289941044173988"><ele>160.0</ele><time>2026-04-19T12:07:59.004Z</time></trkpt><trkpt lat="44.754466648949" lon="0.9291941610012124"><ele>160.0</ele><time>2026-04-19T12:08:00.004Z</time></trkpt><trkpt lat="44.754469098658596" lon="0.9294106793803667"><ele>160.0</ele><time>2026-04-19T12:08:01.004Z</time></trkpt><trkpt lat="44.75449400476673" lon="0.9296345780718915"><ele>160.33333333333334</ele><time>2026-04-19T12:08:02.004Z</time></trkpt><trkpt lat="44.75452490805826" lon="0.9298701239327766"><ele>160.66666666666666</ele><time>2026-04-19T12:08:03.004Z</time></trkpt><trkpt lat="44.754559739104636" lon="0.9301068879184802"><ele>161.0</ele><time>2026-04-19T12:08:04.004Z</time></trkpt><trkpt lat="44.75459197343299" lon="0.930348460259504"><ele>163.0</ele><time>2026-04-19T12:08:05.004Z</time></trkpt><trkpt lat="44.754591559973846" lon="0.9306098424617458"><ele>165.0</ele><time>2026-04-19T12:08:06.004Z</time></trkpt><trkpt lat="44.75458289999507" lon="0.9308851121177253"><ele>167.0</ele><time>2026-04-19T12:08:07.004Z</time></trkpt><trkpt lat="44.754550549132745" lon="0.9311797001788754"><ele>168.66666666666666</ele><time>2026-04-19T12:08:08.004Z</time></trkpt><trkpt lat="44.75449644029122" lon="0.9314874157962943"><ele>170.33333333333334</ele><time>2026-04-19T12:08:09.004Z</time></trkpt><trkpt lat="44.754428247107555" lon="0.931785267754075"><ele>172.0</ele><time>2026-04-19T12:08:10.004Z</time></trkpt><trkpt lat="44.754355938026585" lon="0.9320874835920007"><ele>167.0</ele><time>2026-04-19T12:08:11.004Z</time></trkpt><trkpt lat="44.754288509931264" lon="0.9323530351282955"><ele>162.0</ele><time>2026-04-19T12:08:12.004Z</time></trkpt><trkpt lat="44.75424640036072" lon="0.9325991567324996"><ele>157.0</ele><time>2026-04-19T12:08:13.004Z</time></trkpt><trkpt lat="44.754195640632965" lon="0.9328341956464989"><ele>156.33333333333334</ele><time>2026-04-19T12:08:14.004Z</time></trkpt><trkpt lat="44.75415817489067" lon="0.9330698163272507"><ele>155.66666666666666</ele><time>2026-04-19T12:08:15.004Z</time></trkpt><trkpt lat="44.75414938813789" lon="0.9333099021339532"><ele>155.0</ele><time>2026-04-19T12:08:16.004Z</time></trkpt><trkpt lat="44.754152897384756" lon="0.9335523757034019"><ele>154.66666666666666</ele><time>2026-04-19T12:08:17.004Z</time></trkpt><trkpt lat="44.754178828483134" lon="0.9338066744601191"><ele>154.33333333333334</ele><time>2026-04-19T12:08:18.004Z</time></trkpt><trkpt lat="44.75421168799859" lon="0.9340631688635311"><ele>154.0</ele><time>2026-04-19T12:08:19.004Z</time></trkpt><trkpt lat="44.75425454372165" lon="0.9343034033068695"><ele>155.0</ele><time>2026-04-19T12:08:20.004Z</time></trkpt><trkpt lat="44.75430955092742" lon="0.9345293730975899"><ele>156.0</ele><time>2026-04-19T12:08:21.004Z</time></trkpt><trkpt lat="44.75438837747394" lon="0.9347516820126919"><ele>157.0</ele><time>2026-04-19T12:08:22.004Z</time></trkpt><trkpt lat="44.75448475600296" lon="0.9349789582972615"><ele>158.0</ele><time>2026-04-19T12:08:23.004Z</time></trkpt><trkpt lat="44.75460023724353" lon="0.9351870077221222"><ele>159.0</ele><time>2026-04-19T12:08:24.004Z</time></trkpt><trkpt lat="44.754708615607456" lon="0.9353945011122525"><ele>160.0</ele><time>2026-04-19T12:08:25.005Z</time></trkpt><trkpt lat="44.75477987791666" lon="0.9356239250833208"><ele>160.0</ele><time>2026-04-19T12:08:26.005Z</time></trkpt><trkpt lat="44.75482357109555" lon="0.9358600008608396"><ele>160.0</ele><time>2026-04-19T12:08:27.005Z</time></trkpt><trkpt lat="44.75482934742259" lon="0.9361075698677194"><ele>160.0</ele><time>2026-04-19T12:08:28.005Z</time></trkpt><trkpt lat="44.754809547792526" lon="0.9363703178405123"><ele>158.0</ele><time>2026-04-19T12:08:29.005Z</time></trkpt><trkpt lat="44.75478773838544" lon="0.9366430209702078"><ele>156.0</ele><time>2026-04-19T12:08:30.005Z</time></trkpt><trkpt lat="44.75476701524432" lon="0.9369083738532668"><ele>154.0</ele><time>2026-04-19T12:08:31.005Z</time></trkpt><trkpt lat="44.75475013522224" lon="0.9371743566997603"><ele>154.0</ele><time>2026-04-19T12:08:32.005Z</time></trkpt><trkpt lat="44.75473232707214" lon="0.9374339572599284"><ele>154.0</ele><time>2026-04-19T12:08:33.001Z</time></trkpt><trkpt lat="44.75471447889842" lon="0.9376892454490388"><ele>154.0</ele><time>2026-04-19T12:08:34.001Z</time></trkpt><trkpt lat="44.754693904688146" lon="0.9379556060944352"><ele>155.33333333333334</ele><time>2026-04-19T12:08:35.001Z</time></trkpt><trkpt lat="44.75465422262493" lon="0.9382170589196186"><ele>156.66666666666666</ele><time>2026-04-19T12:08:36.001Z</time></trkpt><trkpt lat="44.75459745726194" lon="0.9384683292274774"><ele>158.0</ele><time>2026-04-19T12:08:37.001Z</time></trkpt><trkpt lat="44.75451357225799" lon="0.9387305523589409"><ele>157.66666666666666</ele><time>2026-04-19T12:08:38.001Z</time></trkpt><trkpt lat="44.75440202458754" lon="0.9389856164063585"><ele>157.33333333333334</ele><time>2026-04-19T12:08:39.001Z</time></trkpt><trkpt lat="44.75427835684383" lon="0.9392289208148655"><ele>157.0</ele><time>2026-04-19T12:08:40.001Z</time></trkpt><trkpt lat="44.75416114474454" lon="0.9394920621626472"><ele>157.0</ele><time>2026-04-19T12:08:41.001Z</time></trkpt><trkpt lat="44.754090806410765" lon="0.9397864059177854"><ele>157.0</ele><time>2026-04-19T12:08:42.001Z</time></trkpt><trkpt lat="44.75401565588631" lon="0.9400685608987938"><ele>157.0</ele><time>2026-04-19T12:08:43.001Z</time></trkpt><trkpt lat="44.753944121183814" lon="0.9403453450297091"><ele>156.0</ele><time>2026-04-19T12:08:44.001Z</time></trkpt><trkpt lat="44.7538328163607" lon="0.9405798527896944"><ele>155.0</ele><time>2026-04-19T12:08:45.001Z</time></trkpt><trkpt lat="44.75371956161685" lon="0.9407930361504481"><ele>154.0</ele><time>2026-04-19T12:08:46.001Z</time></trkpt><trkpt lat="44.75357667852858" lon="0.9410599397677584"><ele>155.5</ele><time>2026-04-19T12:08:47.001Z</time></trkpt><trkpt lat="44.75343236074793" lon="0.9413357063086744"><ele>157.0</ele><time>2026-04-19T12:08:48.001Z</time></trkpt><trkpt lat="44.75330638169298" lon="0.9416001696914359"><ele>157.0</ele><time>2026-04-19T12:08:49.001Z</time></trkpt><trkpt lat="44.75318274132695" lon="0.9418441494136257"><ele>157.0</ele><time>2026-04-19T12:08:50.001Z</time></trkpt><trkpt lat="44.753059187764144" lon="0.9420684649875852"><ele>157.0</ele><time>2026-04-19T12:08:51.001Z</time></trkpt><trkpt lat="44.75293202968905" lon="0.9422744294233741"><ele>157.0</ele><time>2026-04-19T12:08:52.001Z</time></trkpt><trkpt lat="44.7527955277803" lon="0.9424622748238486"><ele>157.0</ele><time>2026-04-19T12:08:53.001Z</time></trkpt><trkpt lat="44.75266326323897" lon="0.9426479222981287"><ele>157.0</ele><time>2026-04-19T12:08:54.001Z</time></trkpt><trkpt lat="44.75254008133882" lon="0.9428394005625839"><ele>157.0</ele><time>2026-04-19T12:08:55.001Z</time></trkpt><trkpt lat="44.7524434357172" lon="0.9430552365040528"><ele>157.0</ele><time>2026-04-19T12:08:56.001Z</time></trkpt><trkpt lat="44.752352011976235" lon="0.9432709445523705"><ele>157.0</ele><time>2026-04-19T12:08:57.001Z</time></trkpt><trkpt lat="44.752283816997206" lon="0.9435003220707558"><ele>157.0</ele><time>2026-04-19T12:08:58.001Z</time></trkpt><trkpt lat="44.752252092085904" lon="0.9437482609259729"><ele>157.0</ele><time>2026-04-19T12:08:59.001Z</time></trkpt><trkpt lat="44.75221901687194" lon="0.944002395489149"><ele>157.0</ele><time>2026-04-19T12:09:00.001Z</time></trkpt><trkpt lat="44.752227843516295" lon="0.9442515697340301"><ele>157.66666666666669</ele><time>2026-04-19T12:09:01.001Z</time></trkpt><trkpt lat="44.752255607648536" lon="0.9445028131437927"><ele>158.33333333333334</ele><time>2026-04-19T12:09:02.001Z</time></trkpt><trkpt lat="44.75230113209296" lon="0.9447475219507235"><ele>159.0</ele><time>2026-04-19T12:09:03.001Z</time></trkpt><trkpt lat="44.75239160365684" lon="0.944982015760614"><ele>160.0</ele><time>2026-04-19T12:09:04.001Z</time></trkpt><trkpt lat="44.752469611469785" lon="0.9452133565473704"><ele>161.0</ele><time>2026-04-19T12:09:05.001Z</time></trkpt><trkpt lat="44.75259416389339" lon="0.9454299881288499"><ele>162.0</ele><time>2026-04-19T12:09:06.001Z</time></trkpt><trkpt lat="44.752727171957304" lon="0.9456240431209413"><ele>162.0</ele><time>2026-04-19T12:09:07.001Z</time></trkpt><trkpt lat="44.752864273735256" lon="0.9457900469941145"><ele>162.0</ele><time>2026-04-19T12:09:08.001Z</time></trkpt><trkpt lat="44.752973753050654" lon="0.9460080164709214"><ele>162.0</ele><time>2026-04-19T12:09:09.001Z</time></trkpt><trkpt lat="44.75308748441545" lon="0.9462414750973975"><ele>162.0</ele><time>2026-04-19T12:09:10.001Z</time></trkpt><trkpt lat="44.75319717954623" lon="0.9464940687467607"><ele>162.0</ele><time>2026-04-19T12:09:11.001Z</time></trkpt><trkpt lat="44.753297712897506" lon="0.946705963622805"><ele>162.0</ele><time>2026-04-19T12:09:12.001Z</time></trkpt><trkpt lat="44.75337966142242" lon="0.9469606069855125"><ele>162.0</ele><time>2026-04-19T12:09:13.001Z</time></trkpt><trkpt lat="44.75343736278529" lon="0.9472265891020079"><ele>162.0</ele><time>2026-04-19T12:09:14.001Z</time></trkpt><trkpt lat="44.75350371993475" lon="0.9474813669874963"><ele>162.0</ele><time>2026-04-19T12:09:15.001Z</time></trkpt><trkpt lat="44.75356573651398" lon="0.9477441052040766"><ele>162.0</ele><time>2026-04-19T12:09:16.001Z</time></trkpt><trkpt lat="44.75364537472517" lon="0.9480319888282341"><ele>162.0</ele><time>2026-04-19T12:09:17.001Z</time></trkpt><trkpt lat="44.75369512573456" lon="0.9483154380811726"><ele>162.0</ele><time>2026-04-19T12:09:18.001Z</time></trkpt><trkpt lat="44.75377043687422" lon="0.9485798324392021"><ele>162.66666666666666</ele><time>2026-04-19T12:09:19.001Z</time></trkpt><trkpt lat="44.753829510380136" lon="0.948856705881046"><ele>163.33333333333331</ele><time>2026-04-19T12:09:20.001Z</time></trkpt><trkpt lat="44.75387516224509" lon="0.9491381604600132"><ele>164.0</ele><time>2026-04-19T12:09:21.001Z</time></trkpt><trkpt lat="44.753950544632566" lon="0.9494084597915367"><ele>165.0</ele><time>2026-04-19T12:09:22.001Z</time></trkpt><trkpt lat="44.754011160789176" lon="0.9496785912035063"><ele>166.0</ele><time>2026-04-19T12:09:23.001Z</time></trkpt><trkpt lat="44.75406017033521" lon="0.9499503094054808"><ele>167.0</ele><time>2026-04-19T12:09:24.001Z</time></trkpt><trkpt lat="44.75412499610885" lon="0.9502224322137055"><ele>167.0</ele><time>2026-04-19T12:09:25.001Z</time></trkpt><trkpt lat="44.7541849198817" lon="0.9504900192221789"><ele>167.0</ele><time>2026-04-19T12:09:26.001Z</time></trkpt><trkpt lat="44.7542324115698" lon="0.9507629661569121"><ele>167.0</ele><time>2026-04-19T12:09:27.001Z</time></trkpt><trkpt lat="44.754251476177636" lon="0.9510476213210268"><ele>165.66666666666666</ele><time>2026-04-19T12:09:28.001Z</time></trkpt><trkpt lat="44.754249919883065" lon="0.9513535733018271"><ele>164.33333333333334</ele><time>2026-04-19T12:09:29.001Z</time></trkpt><trkpt lat="44.7542463521119" lon="0.951669071209924"><ele>163.0</ele><time>2026-04-19T12:09:30.001Z</time></trkpt><trkpt lat="44.75424366028996" lon="0.9519678791302938"><ele>163.0</ele><time>2026-04-19T12:09:31.001Z</time></trkpt><trkpt lat="44.754244225279045" lon="0.9522361921566457"><ele>163.0</ele><time>2026-04-19T12:09:32.001Z</time></trkpt><trkpt lat="44.75425986188891" lon="0.952490264625638"><ele>163.0</ele><time>2026-04-19T12:09:33.001Z</time></trkpt><trkpt lat="44.7542566967234" lon="0.9527247535282777"><ele>163.0</ele><time>2026-04-19T12:09:34.001Z</time></trkpt><trkpt lat="44.754227042065885" lon="0.9529467035166678"><ele>163.0</ele><time>2026-04-19T12:09:35.001Z</time></trkpt><trkpt lat="44.754185804151845" lon="0.953175944962797"><ele>163.0</ele><time>2026-04-19T12:09:36.002Z</time></trkpt><trkpt lat="44.754129644659976" lon="0.9534187517615191"><ele>163.0</ele><time>2026-04-19T12:09:37.002Z</time></trkpt><trkpt lat="44.75405168826476" lon="0.9536585497188054"><ele>163.0</ele><time>2026-04-19T12:09:38.002Z</time></trkpt><trkpt lat="44.75398580168935" lon="0.9539051388418079"><ele>163.0</ele><time>2026-04-19T12:09:39.002Z</time></trkpt><trkpt lat="44.75386377278042" lon="0.9541252423638787"><ele>163.0</ele><time>2026-04-19T12:09:40.002Z</time></trkpt><trkpt lat="44.753738891309155" lon="0.9543818914777578"><ele>163.0</ele><time>2026-04-19T12:09:41.002Z</time></trkpt><trkpt lat="44.753605682668976" lon="0.9546424816204675"><ele>163.0</ele><time>2026-04-19T12:09:42.002Z</time></trkpt><trkpt lat="44.75347683743887" lon="0.9549031035644926"><ele>165.5</ele><time>2026-04-19T12:09:43.002Z</time></trkpt><trkpt lat="44.75334547295867" lon="0.9551650332075652"><ele>168.0</ele><time>2026-04-19T12:09:44.002Z</time></trkpt><trkpt lat="44.75321560740198" lon="0.9554238018449632"><ele>168.0</ele><time>2026-04-19T12:09:45.002Z</time></trkpt><trkpt lat="44.75308896227088" lon="0.9556770297780489"><ele>168.0</ele><time>2026-04-19T12:09:46.002Z</time></trkpt><trkpt lat="44.752965230602115" lon="0.955926012359256"><ele>168.0</ele><time>2026-04-19T12:09:47.002Z</time></trkpt><trkpt lat="44.75284721426808" lon="0.9561610956232662"><ele>168.0</ele><time>2026-04-19T12:09:48.002Z</time></trkpt><trkpt lat="44.75273715531683" lon="0.9563786498717988"><ele>168.0</ele><time>2026-04-19T12:09:49.002Z</time></trkpt><trkpt lat="44.75263099841146" lon="0.9565893734630994"><ele>168.0</ele><time>2026-04-19T12:09:50.002Z</time></trkpt><trkpt lat="44.752529994725826" lon="0.9567928882947455"><ele>169.66666666666666</ele><time>2026-04-19T12:09:51.002Z</time></trkpt><trkpt lat="44.75243349241074" lon="0.9569864743807052"><ele>171.33333333333331</ele><time>2026-04-19T12:09:52.002Z</time></trkpt><trkpt lat="44.75234307237523" lon="0.9571626534201286"><ele>173.0</ele><time>2026-04-19T12:09:53.002Z</time></trkpt><trkpt lat="44.75227631332939" lon="0.9573530356247604"><ele>173.0</ele><time>2026-04-19T12:09:54.002Z</time></trkpt><trkpt lat="44.75220016321273" lon="0.9575262645301811"><ele>173.0</ele><time>2026-04-19T12:09:55.002Z</time></trkpt><trkpt lat="44.75214170506779" lon="0.957713174045084"><ele>173.0</ele><time>2026-04-19T12:09:56.002Z</time></trkpt><trkpt lat="44.75212331912849" lon="0.9579299623398426"><ele>173.0</ele><time>2026-04-19T12:09:57.002Z</time></trkpt><trkpt lat="44.752126828904935" lon="0.9581608378234765"><ele>173.0</ele><time>2026-04-19T12:09:58.002Z</time></trkpt><trkpt lat="44.75214713811652" lon="0.9583886500570044"><ele>173.0</ele><time>2026-04-19T12:09:59.002Z</time></trkpt><trkpt lat="44.75213746878141" lon="0.9586216245234714"><ele>173.0</ele><time>2026-04-19T12:10:00.002Z</time></trkpt><trkpt lat="44.75215273229354" lon="0.9588484354904804"><ele>173.0</ele><time>2026-04-19T12:10:01.002Z</time></trkpt><trkpt lat="44.75215606419961" lon="0.9590809394585222"><ele>173.0</ele><time>2026-04-19T12:10:02.002Z</time></trkpt><trkpt lat="44.752154430038836" lon="0.959326189995874"><ele>173.0</ele><time>2026-04-19T12:10:03.002Z</time></trkpt><trkpt lat="44.75215076364745" lon="0.959566673200318"><ele>174.0</ele><time>2026-04-19T12:10:04.002Z</time></trkpt><trkpt lat="44.752145267999296" lon="0.9598012929568558"><ele>175.0</ele><time>2026-04-19T12:10:05.002Z</time></trkpt><trkpt lat="44.75214569312852" lon="0.9600380672463429"><ele>176.0</ele><time>2026-04-19T12:10:06.002Z</time></trkpt><trkpt lat="44.75214614078039" lon="0.9602873846601039"><ele>175.66666666666666</ele><time>2026-04-19T12:10:07.002Z</time></trkpt><trkpt lat="44.75214661345737" lon="0.9605506413458375"><ele>175.33333333333334</ele><time>2026-04-19T12:10:08.002Z</time></trkpt><trkpt lat="44.752147075400146" lon="0.9608079192379997"><ele>175.0</ele><time>2026-04-19T12:10:09.002Z</time></trkpt><trkpt lat="44.7521485710692" lon="0.9610793676729003"><ele>175.0</ele><time>2026-04-19T12:10:10.002Z</time></trkpt><trkpt lat="44.75215182712062" lon="0.9613543850395432"><ele>175.0</ele><time>2026-04-19T12:10:11.002Z</time></trkpt><trkpt lat="44.75216935540564" lon="0.9616357706789113"><ele>175.0</ele><time>2026-04-19T12:10:12.002Z</time></trkpt><trkpt lat="44.752171674445485" lon="0.9619132840013133"><ele>174.66666666666669</ele><time>2026-04-19T12:10:13.002Z</time></trkpt><trkpt lat="44.75216812696447" lon="0.962195726630298"><ele>174.33333333333334</ele><time>2026-04-19T12:10:14.002Z</time></trkpt><trkpt lat="44.75217051600071" lon="0.9624895531067135"><ele>174.0</ele><time>2026-04-19T12:10:15.002Z</time></trkpt><trkpt lat="44.752167208291155" lon="0.9627978615054372"><ele>174.0</ele><time>2026-04-19T12:10:16.002Z</time></trkpt><trkpt lat="44.75216853575405" lon="0.9631026077060475"><ele>174.0</ele><time>2026-04-19T12:10:17.002Z</time></trkpt><trkpt lat="44.75216234831933" lon="0.9634125658153225"><ele>174.0</ele><time>2026-04-19T12:10:18.003Z</time></trkpt><trkpt lat="44.75216445680709" lon="0.9637175728916075"><ele>174.0</ele><time>2026-04-19T12:10:19.003Z</time></trkpt><trkpt lat="44.75218206046531" lon="0.9640339559973307"><ele>174.0</ele><time>2026-04-19T12:10:20.003Z</time></trkpt><trkpt lat="44.75216890472225" lon="0.9643285753239029"><ele>174.0</ele><time>2026-04-19T12:10:21.003Z</time></trkpt><trkpt lat="44.75218170193803" lon="0.9646253261097416"><ele>174.66666666666666</ele><time>2026-04-19T12:10:22.003Z</time></trkpt><trkpt lat="44.75218484065877" lon="0.9649278798472577"><ele>175.33333333333331</ele><time>2026-04-19T12:10:23.003Z</time></trkpt><trkpt lat="44.7521743956086" lon="0.965221911429803"><ele>176.0</ele><time>2026-04-19T12:10:24.003Z</time></trkpt><trkpt lat="44.752175635882786" lon="0.9655041178347492"><ele>176.66666666666666</ele><time>2026-04-19T12:10:25.003Z</time></trkpt><trkpt lat="44.752170705759745" lon="0.9657883671706415"><ele>177.33333333333334</ele><time>2026-04-19T12:10:26.003Z</time></trkpt><trkpt lat="44.752151774320964" lon="0.9660760823133105"><ele>178.0</ele><time>2026-04-19T12:10:27.003Z</time></trkpt><trkpt lat="44.752107637352736" lon="0.9663691699177605"><ele>178.33333333333334</ele><time>2026-04-19T12:10:28.003Z</time></trkpt><trkpt lat="44.75205750073262" lon="0.9666592529278158"><ele>178.66666666666666</ele><time>2026-04-19T12:10:29.003Z</time></trkpt><trkpt lat="44.75199888653977" lon="0.966959488526658"><ele>179.0</ele><time>2026-04-19T12:10:30.003Z</time></trkpt><trkpt lat="44.751944631503754" lon="0.9672526020496803"><ele>180.33333333333331</ele><time>2026-04-19T12:10:31.003Z</time></trkpt><trkpt lat="44.751892621931574" lon="0.9675274518271247"><ele>181.66666666666666</ele><time>2026-04-19T12:10:32.003Z</time></trkpt><trkpt lat="44.75183582652962" lon="0.967817448666707"><ele>183.0</ele><time>2026-04-19T12:10:33.003Z</time></trkpt><trkpt lat="44.75178262878865" lon="0.968096479460298"><ele>183.33333333333334</ele><time>2026-04-19T12:10:34.003Z</time></trkpt><trkpt lat="44.75173071182627" lon="0.9683720984206723"><ele>183.66666666666669</ele><time>2026-04-19T12:10:35.003Z</time></trkpt><trkpt lat="44.751677611771534" lon="0.9686533009485802"><ele>184.0</ele><time>2026-04-19T12:10:36.003Z</time></trkpt><trkpt lat="44.751622810220915" lon="0.9689395142956888"><ele>184.0</ele><time>2026-04-19T12:10:37.003Z</time></trkpt><trkpt lat="44.751566448592776" lon="0.9692338754906424"><ele>184.0</ele><time>2026-04-19T12:10:38.003Z</time></trkpt><trkpt lat="44.751510349556064" lon="0.969526865300384"><ele>184.0</ele><time>2026-04-19T12:10:39Z</time></trkpt><trkpt lat="44.75146625307" lon="0.9698230085156266"><ele>184.66666666666669</ele><time>2026-04-19T12:10:39.999Z</time></trkpt><trkpt lat="44.7514022569564" lon="0.9700893416508507"><ele>185.33333333333334</ele><time>2026-04-19T12:10:40.999Z</time></trkpt><trkpt lat="44.751351575324726" lon="0.9703481282038813"><ele>186.0</ele><time>2026-04-19T12:10:42Z</time></trkpt><trkpt lat="44.75130713513494" lon="0.9705750453024891"><ele>186.0</ele><time>2026-04-19T12:10:42.999Z</time></trkpt><trkpt lat="44.75126229964726" lon="0.9708039809493068"><ele>186.0</ele><time>2026-04-19T12:10:43.999Z</time></trkpt><trkpt lat="44.751237340772676" lon="0.9710195160728783"><ele>186.0</ele><time>2026-04-19T12:10:45Z</time></trkpt><trkpt lat="44.75119145460989" lon="0.9712220756246344"><ele>186.5</ele><time>2026-04-19T12:10:45.999Z</time></trkpt><trkpt lat="44.75114619554554" lon="0.9713968224506063"><ele>187.0</ele><time>2026-04-19T12:10:46.999Z</time></trkpt><trkpt lat="44.75111157423014" lon="0.9715736031199381"><ele>187.5</ele><time>2026-04-19T12:10:48Z</time></trkpt><trkpt lat="44.751080037997276" lon="0.9717346310103752"><ele>188.0</ele><time>2026-04-19T12:10:48.999Z</time></trkpt><trkpt lat="44.751050863710304" lon="0.9718835984302947"><ele>187.60000000000002</ele><time>2026-04-19T12:10:49.999Z</time></trkpt><trkpt lat="44.751024551643255" lon="0.9720179510621828"><ele>187.20000000000002</ele><time>2026-04-19T12:10:50.999Z</time></trkpt><trkpt lat="44.751000767973494" lon="0.9721872881113914"><ele>186.8</ele><time>2026-04-19T12:10:53Z</time></trkpt><trkpt lat="44.750972640887504" lon="0.9722679749693041"><ele>186.4</ele><time>2026-04-19T12:10:56Z</time></trkpt><trkpt lat="44.7510291767598" lon="0.9723904308548799"><ele>186.0</ele><time>2026-04-19T12:10:58Z</time></trkpt><trkpt lat="44.75109089995479" lon="0.9724737521395896"><ele>187.25</ele><time>2026-04-19T12:10:59Z</time></trkpt><trkpt lat="44.751159324798834" lon="0.9725865337474482"><ele>188.5</ele><time>2026-04-19T12:11:00Z</time></trkpt><trkpt lat="44.75123404356001" lon="0.9727203513978542"><ele>189.75</ele><time>2026-04-19T12:11:01Z</time></trkpt><trkpt lat="44.75130700557274" lon="0.9728472376062772"><ele>191.0</ele><time>2026-04-19T12:11:02Z</time></trkpt><trkpt lat="44.751391402936726" lon="0.9729932780797371"><ele>191.0</ele><time>2026-04-19T12:11:03Z</time></trkpt><trkpt lat="44.75147742531079" lon="0.9731413212932155"><ele>191.0</ele><time>2026-04-19T12:11:04Z</time></trkpt><trkpt lat="44.751570938115535" lon="0.9732921640880412"><ele>191.0</ele><time>2026-04-19T12:11:05Z</time></trkpt><trkpt lat="44.75166657715768" lon="0.97345357252307"><ele>191.0</ele><time>2026-04-19T12:11:06Z</time></trkpt><trkpt lat="44.75176978622794" lon="0.9736244962409618"><ele>191.66666666666666</ele><time>2026-04-19T12:11:07Z</time></trkpt><trkpt lat="44.751879144387075" lon="0.9738002561462327"><ele>192.33333333333331</ele><time>2026-04-19T12:11:08Z</time></trkpt><trkpt lat="44.751985059284976" lon="0.9739760665535852"><ele>193.0</ele><time>2026-04-19T12:11:09Z</time></trkpt><trkpt lat="44.752091267667865" lon="0.9741524586455715"><ele>192.25</ele><time>2026-04-19T12:11:10Z</time></trkpt><trkpt lat="44.75218888993862" lon="0.9743234682723793"><ele>191.5</ele><time>2026-04-19T12:11:11Z</time></trkpt><trkpt lat="44.75227349648693" lon="0.9744769745270091"><ele>190.75</ele><time>2026-04-19T12:11:12Z</time></trkpt><trkpt lat="44.75237278967713" lon="0.9746151086332163"><ele>190.0</ele><time>2026-04-19T12:11:13Z</time></trkpt><trkpt lat="44.75245962616198" lon="0.9747350289979965"><ele>190.0</ele><time>2026-04-19T12:11:14Z</time></trkpt><trkpt lat="44.752553541055875" lon="0.9748627747744363"><ele>190.0</ele><time>2026-04-19T12:11:15Z</time></trkpt><trkpt lat="44.752652126031855" lon="0.9749792993631418"><ele>190.0</ele><time>2026-04-19T12:11:16Z</time></trkpt><trkpt lat="44.75276119358153" lon="0.9751028437397857"><ele>190.0</ele><time>2026-04-19T12:11:17Z</time></trkpt><trkpt lat="44.75288824315407" lon="0.9752047969857274"><ele>190.0</ele><time>2026-04-19T12:11:18Z</time></trkpt><trkpt lat="44.75301101958999" lon="0.9753117388781658"><ele>190.0</ele><time>2026-04-19T12:11:19Z</time></trkpt><trkpt lat="44.753139801456086" lon="0.9754486470462015"><ele>190.0</ele><time>2026-04-19T12:11:20Z</time></trkpt><trkpt lat="44.75325613899285" lon="0.9756232330638005"><ele>190.0</ele><time>2026-04-19T12:11:21Z</time></trkpt><trkpt lat="44.75337700483822" lon="0.9758409381267136"><ele>190.0</ele><time>2026-04-19T12:11:22Z</time></trkpt><trkpt lat="44.75348508024819" lon="0.9760750570977785"><ele>190.0</ele><time>2026-04-19T12:11:23Z</time></trkpt><trkpt lat="44.753596095814416" lon="0.9763111047163586"><ele>188.66666666666669</ele><time>2026-04-19T12:11:24Z</time></trkpt><trkpt lat="44.753706797656186" lon="0.9765506938087347"><ele>187.33333333333334</ele><time>2026-04-19T12:11:25.001Z</time></trkpt><trkpt lat="44.75381662229086" lon="0.976772555678192"><ele>186.0</ele><time>2026-04-19T12:11:26.001Z</time></trkpt><trkpt lat="44.753915617832355" lon="0.9769880208348548"><ele>185.33333333333334</ele><time>2026-04-19T12:11:27.001Z</time></trkpt><trkpt lat="44.754013698973594" lon="0.9771957946899547"><ele>184.66666666666669</ele><time>2026-04-19T12:11:28.001Z</time></trkpt><trkpt lat="44.75411110242715" lon="0.9773830551326472"><ele>184.0</ele><time>2026-04-19T12:11:29.001Z</time></trkpt><trkpt lat="44.75420093195677" lon="0.9775734551229355"><ele>183.75</ele><time>2026-04-19T12:11:30.001Z</time></trkpt><trkpt lat="44.75428648433837" lon="0.9777621020592999"><ele>183.5</ele><time>2026-04-19T12:11:31.001Z</time></trkpt><trkpt lat="44.75437653904802" lon="0.9779106287165504"><ele>183.25</ele><time>2026-04-19T12:11:32.001Z</time></trkpt><trkpt lat="44.75446232504266" lon="0.9780643392031632"><ele>183.0</ele><time>2026-04-19T12:11:33.001Z</time></trkpt><trkpt lat="44.75459075565118" lon="0.9784511132065118"><ele>182.0</ele><time>2026-04-19T12:11:35.001Z</time></trkpt><trkpt lat="44.75468024859611" lon="0.9786664783412901"><ele>181.0</ele><time>2026-04-19T12:11:36.001Z</time></trkpt><trkpt lat="44.75471933415509" lon="0.9789367915804815"><ele>180.0</ele><time>2026-04-19T12:11:37.001Z</time></trkpt><trkpt lat="44.75479349538804" lon="0.9791949456861033"><ele>179.66666666666666</ele><time>2026-04-19T12:11:38.001Z</time></trkpt><trkpt lat="44.75488434172384" lon="0.9794609793414639"><ele>179.33333333333331</ele><time>2026-04-19T12:11:39.001Z</time></trkpt><trkpt lat="44.75496634913035" lon="0.9797341265086261"><ele>179.0</ele><time>2026-04-19T12:11:40.001Z</time></trkpt><trkpt lat="44.75505341822901" lon="0.9800186091491772"><ele>178.33333333333331</ele><time>2026-04-19T12:11:41.001Z</time></trkpt><trkpt lat="44.755135934625265" lon="0.980292204665438"><ele>177.66666666666666</ele><time>2026-04-19T12:11:42.001Z</time></trkpt><trkpt lat="44.75521207953139" lon="0.9805657745038332"><ele>177.0</ele><time>2026-04-19T12:11:43.001Z</time></trkpt><trkpt lat="44.75529513378622" lon="0.9808293580853175"><ele>177.66666666666666</ele><time>2026-04-19T12:11:44.001Z</time></trkpt><trkpt lat="44.755402161060836" lon="0.9810959076991566"><ele>178.33333333333331</ele><time>2026-04-19T12:11:45.001Z</time></trkpt><trkpt lat="44.75552338859566" lon="0.9813469462962462"><ele>179.0</ele><time>2026-04-19T12:11:46.001Z</time></trkpt><trkpt lat="44.755653124058924" lon="0.9816042469489407"><ele>178.0</ele><time>2026-04-19T12:11:47.001Z</time></trkpt><trkpt lat="44.755794172870786" lon="0.9818575395826867"><ele>177.0</ele><time>2026-04-19T12:11:48.001Z</time></trkpt><trkpt lat="44.75594330890263" lon="0.9820994313446546"><ele>176.0</ele><time>2026-04-19T12:11:49.001Z</time></trkpt><trkpt lat="44.7560975590815" lon="0.9823456926737852"><ele>175.0</ele><time>2026-04-19T12:11:50.001Z</time></trkpt><trkpt lat="44.7562399947803" lon="0.9825937794906447"><ele>174.0</ele><time>2026-04-19T12:11:51.001Z</time></trkpt><trkpt lat="44.75639149942909" lon="0.982837638100006"><ele>173.0</ele><time>2026-04-19T12:11:52.001Z</time></trkpt><trkpt lat="44.7565473085636" lon="0.9830868069523536"><ele>173.0</ele><time>2026-04-19T12:11:53.001Z</time></trkpt><trkpt lat="44.75670225700833" lon="0.9833337037804297"><ele>173.0</ele><time>2026-04-19T12:11:54.001Z</time></trkpt><trkpt lat="44.756846700106905" lon="0.9835739442753355"><ele>172.5</ele><time>2026-04-19T12:11:55.001Z</time></trkpt><trkpt lat="44.75699578217758" lon="0.9838138777046568"><ele>172.0</ele><time>2026-04-19T12:11:56.001Z</time></trkpt><trkpt lat="44.75714275753173" lon="0.9840590650547497"><ele>169.5</ele><time>2026-04-19T12:11:57.001Z</time></trkpt><trkpt lat="44.75727854561967" lon="0.9843004055013367"><ele>167.0</ele><time>2026-04-19T12:11:58.001Z</time></trkpt><trkpt lat="44.75741416168485" lon="0.9845648136578753"><ele>167.0</ele><time>2026-04-19T12:11:59.001Z</time></trkpt><trkpt lat="44.75754870310136" lon="0.9848237019887978"><ele>167.0</ele><time>2026-04-19T12:12:00.001Z</time></trkpt><trkpt lat="44.75767378737973" lon="0.9851012683673951"><ele>169.0</ele><time>2026-04-19T12:12:01.001Z</time></trkpt><trkpt lat="44.75779388448408" lon="0.985389875984977"><ele>171.0</ele><time>2026-04-19T12:12:02.001Z</time></trkpt><trkpt lat="44.75788317734043" lon="0.9856842174101346"><ele>174.5</ele><time>2026-04-19T12:12:03.001Z</time></trkpt><trkpt lat="44.75797766358936" lon="0.9859762326684788"><ele>178.0</ele><time>2026-04-19T12:12:04.001Z</time></trkpt><trkpt lat="44.75806104923195" lon="0.9862708140711802"><ele>178.0</ele><time>2026-04-19T12:12:05.002Z</time></trkpt><trkpt lat="44.75813443175413" lon="0.9865575952032506"><ele>178.0</ele><time>2026-04-19T12:12:06.002Z</time></trkpt><trkpt lat="44.75820517960345" lon="0.9868392400439141"><ele>178.0</ele><time>2026-04-19T12:12:07.002Z</time></trkpt><trkpt lat="44.75827355793166" lon="0.9871003031928355"><ele>177.66666666666669</ele><time>2026-04-19T12:12:08.002Z</time></trkpt><trkpt lat="44.758348231364295" lon="0.9873582457575478"><ele>177.33333333333334</ele><time>2026-04-19T12:12:09.002Z</time></trkpt><trkpt lat="44.75842747595318" lon="0.9875873162929839"><ele>177.0</ele><time>2026-04-19T12:12:10.002Z</time></trkpt><trkpt lat="44.7585107090266" lon="0.9877965343113912"><ele>177.0</ele><time>2026-04-19T12:12:11.002Z</time></trkpt><trkpt lat="44.75860557599766" lon="0.9879896747275903"><ele>177.0</ele><time>2026-04-19T12:12:12.002Z</time></trkpt><trkpt lat="44.75871194370713" lon="0.9881753202761268"><ele>177.0</ele><time>2026-04-19T12:12:13.002Z</time></trkpt><trkpt lat="44.75883315370338" lon="0.9883487409412908"><ele>176.0</ele><time>2026-04-19T12:12:14.002Z</time></trkpt><trkpt lat="44.75896250713912" lon="0.9885178222664245"><ele>175.0</ele><time>2026-04-19T12:12:15.002Z</time></trkpt><trkpt lat="44.759101066712724" lon="0.9886795273429577"><ele>174.0</ele><time>2026-04-19T12:12:16.002Z</time></trkpt><trkpt lat="44.75923995695592" lon="0.9888280365789559"><ele>171.33333333333334</ele><time>2026-04-19T12:12:17.002Z</time></trkpt><trkpt lat="44.75937048324152" lon="0.9889692598364527"><ele>168.66666666666669</ele><time>2026-04-19T12:12:18.002Z</time></trkpt><trkpt lat="44.759496011465096" lon="0.989115691919131"><ele>166.0</ele><time>2026-04-19T12:12:19.002Z</time></trkpt><trkpt lat="44.75960901591452" lon="0.9892812178429624"><ele>166.0</ele><time>2026-04-19T12:12:20.002Z</time></trkpt><trkpt lat="44.75970943705833" lon="0.9894580848684371"><ele>166.0</ele><time>2026-04-19T12:12:21.002Z</time></trkpt><trkpt lat="44.759796945144494" lon="0.9896516515806204"><ele>166.0</ele><time>2026-04-19T12:12:22.002Z</time></trkpt><trkpt lat="44.75988536348805" lon="0.9898452221289421"><ele>166.33333333333334</ele><time>2026-04-19T12:12:23.002Z</time></trkpt><trkpt lat="44.759982235911586" lon="0.9900264438420845"><ele>166.66666666666666</ele><time>2026-04-19T12:12:24.002Z</time></trkpt><trkpt lat="44.760094042100356" lon="0.9901950865738536"><ele>167.0</ele><time>2026-04-19T12:12:25.002Z</time></trkpt><trkpt lat="44.760215917844135" lon="0.9903557035818743"><ele>164.66666666666666</ele><time>2026-04-19T12:12:26.002Z</time></trkpt><trkpt lat="44.760348673577134" lon="0.9904984126277733"><ele>162.33333333333334</ele><time>2026-04-19T12:12:27.002Z</time></trkpt><trkpt lat="44.76048137129561" lon="0.99064162970693"><ele>160.0</ele><time>2026-04-19T12:12:28.002Z</time></trkpt><trkpt lat="44.760611663270346" lon="0.9907877137893923"><ele>159.66666666666669</ele><time>2026-04-19T12:12:29.002Z</time></trkpt><trkpt lat="44.76073121158626" lon="0.9909221309633405"><ele>159.33333333333334</ele><time>2026-04-19T12:12:30.002Z</time></trkpt><trkpt lat="44.760862838006915" lon="0.9910594812953936"><ele>159.0</ele><time>2026-04-19T12:12:31.002Z</time></trkpt><trkpt lat="44.76100230400993" lon="0.9911945269522201"><ele>156.33333333333334</ele><time>2026-04-19T12:12:32.002Z</time></trkpt><trkpt lat="44.7611274975905" lon="0.9913123928652684"><ele>153.66666666666669</ele><time>2026-04-19T12:12:33.002Z</time></trkpt><trkpt lat="44.76127853762805" lon="0.9914246253081781"><ele>151.0</ele><time>2026-04-19T12:12:34.002Z</time></trkpt><trkpt lat="44.76143674902602" lon="0.9915178102103012"><ele>151.0</ele><time>2026-04-19T12:12:35.002Z</time></trkpt><trkpt lat="44.761602616078896" lon="0.9916152684430523"><ele>151.0</ele><time>2026-04-19T12:12:36.002Z</time></trkpt><trkpt lat="44.761760490228674" lon="0.9917219823101149"><ele>151.0</ele><time>2026-04-19T12:12:37.002Z</time></trkpt><trkpt lat="44.761908179117135" lon="0.9918413027307775"><ele>149.66666666666669</ele><time>2026-04-19T12:12:38.002Z</time></trkpt><trkpt lat="44.76203678282296" lon="0.9920012163559884"><ele>148.33333333333334</ele><time>2026-04-19T12:12:39.002Z</time></trkpt><trkpt lat="44.76218986851854" lon="0.9921667171815043"><ele>147.0</ele><time>2026-04-19T12:12:40.002Z</time></trkpt><trkpt lat="44.76233098022013" lon="0.992358262029695"><ele>147.33333333333334</ele><time>2026-04-19T12:12:41.002Z</time></trkpt><trkpt lat="44.76246485940541" lon="0.9925667575250493"><ele>147.66666666666669</ele><time>2026-04-19T12:12:42.002Z</time></trkpt><trkpt lat="44.76260973263026" lon="0.9927612758168798"><ele>148.0</ele><time>2026-04-19T12:12:43.002Z</time></trkpt><trkpt lat="44.762771219583506" lon="0.9929459733065319"><ele>147.0</ele><time>2026-04-19T12:12:44.002Z</time></trkpt><trkpt lat="44.76293512315774" lon="0.9931263768018119"><ele>146.0</ele><time>2026-04-19T12:12:44.999Z</time></trkpt><trkpt lat="44.76312693050297" lon="0.9933232167879213"><ele>145.0</ele><time>2026-04-19T12:12:45.999Z</time></trkpt><trkpt lat="44.763320243228435" lon="0.9935089607629264"><ele>144.0</ele><time>2026-04-19T12:12:46.999Z</time></trkpt><trkpt lat="44.763522586585566" lon="0.9937020538304769"><ele>143.0</ele><time>2026-04-19T12:12:47.999Z</time></trkpt><trkpt lat="44.763710378344115" lon="0.9938748370884788"><ele>142.66666666666666</ele><time>2026-04-19T12:12:48.999Z</time></trkpt><trkpt lat="44.76388969256911" lon="0.9940591653158899"><ele>142.33333333333334</ele><time>2026-04-19T12:12:49.999Z</time></trkpt><trkpt lat="44.76406889251892" lon="0.9942252176257805"><ele>142.0</ele><time>2026-04-19T12:12:50.999Z</time></trkpt><trkpt lat="44.76425232947176" lon="0.994405959682403"><ele>139.0</ele><time>2026-04-19T12:12:51.999Z</time></trkpt><trkpt lat="44.76440530043563" lon="0.9945854856640809"><ele>136.0</ele><time>2026-04-19T12:12:52.999Z</time></trkpt><trkpt lat="44.76456442862676" lon="0.9947791025679052"><ele>133.0</ele><time>2026-04-19T12:12:53.999Z</time></trkpt><trkpt lat="44.76471377429073" lon="0.9949824160309948"><ele>132.0</ele><time>2026-04-19T12:12:55Z</time></trkpt><trkpt lat="44.764862449636546" lon="0.9951822291157167"><ele>131.0</ele><time>2026-04-19T12:12:56Z</time></trkpt><trkpt lat="44.76501102696757" lon="0.9953754415442563"><ele>130.0</ele><time>2026-04-19T12:12:56.999Z</time></trkpt><trkpt lat="44.76515935801705" lon="0.995564526127145"><ele>129.33333333333334</ele><time>2026-04-19T12:12:57.999Z</time></trkpt><trkpt lat="44.76530417619563" lon="0.9957560737523241"><ele>128.66666666666666</ele><time>2026-04-19T12:12:58.999Z</time></trkpt><trkpt lat="44.765443360801946" lon="0.9959546442170675"><ele>128.0</ele><time>2026-04-19T12:12:59.999Z</time></trkpt><trkpt lat="44.765588114140854" lon="0.9961495603117544"><ele>128.0</ele><time>2026-04-19T12:13:00.999Z</time></trkpt><trkpt lat="44.76573312056263" lon="0.996345727676748"><ele>128.0</ele><time>2026-04-19T12:13:01.999Z</time></trkpt><trkpt lat="44.76586964393403" lon="0.996559598347305"><ele>128.0</ele><time>2026-04-19T12:13:02.999Z</time></trkpt><trkpt lat="44.7659885194998" lon="0.9967946519915607"><ele>126.66666666666666</ele><time>2026-04-19T12:13:03.999Z</time></trkpt><trkpt lat="44.766090086911454" lon="0.9970472019952239"><ele>125.33333333333334</ele><time>2026-04-19T12:13:04.999Z</time></trkpt><trkpt lat="44.76619671425504" lon="0.9972974342336055"><ele>124.0</ele><time>2026-04-19T12:13:05.999Z</time></trkpt><trkpt lat="44.766333175281" lon="0.9975209247027759"><ele>124.0</ele><time>2026-04-19T12:13:06.999Z</time></trkpt><trkpt lat="44.76647631955448" lon="0.9977467119617563"><ele>124.0</ele><time>2026-04-19T12:13:07.999Z</time></trkpt><trkpt lat="44.76662761451593" lon="0.9979585600898419"><ele>124.0</ele><time>2026-04-19T12:13:08.999Z</time></trkpt><trkpt lat="44.7667769101983" lon="0.9981711523270906"><ele>123.66666666666667</ele><time>2026-04-19T12:13:09.999Z</time></trkpt><trkpt lat="44.76691582221907" lon="0.9983837135533458"><ele>123.33333333333334</ele><time>2026-04-19T12:13:10.999Z</time></trkpt><trkpt lat="44.76705314468914" lon="0.998594066868459"><ele>123.0</ele><time>2026-04-19T12:13:11.999Z</time></trkpt><trkpt lat="44.767198166856325" lon="0.9988051085695224"><ele>123.0</ele><time>2026-04-19T12:13:12.999Z</time></trkpt><trkpt lat="44.76733646138374" lon="0.9990217324407553"><ele>123.0</ele><time>2026-04-19T12:13:13.999Z</time></trkpt><trkpt lat="44.767478874438176" lon="0.9992310045028562"><ele>123.0</ele><time>2026-04-19T12:13:14.999Z</time></trkpt><trkpt lat="44.76761628259574" lon="0.9994437817383182"><ele>125.33333333333334</ele><time>2026-04-19T12:13:15.999Z</time></trkpt><trkpt lat="44.76775728213813" lon="0.9996593202485312"><ele>127.66666666666667</ele><time>2026-04-19T12:13:16.999Z</time></trkpt><trkpt lat="44.767891965872096" lon="0.9998742090147644"><ele>130.0</ele><time>2026-04-19T12:13:17.999Z</time></trkpt><trkpt lat="44.76801145883728" lon="1.0000843719034516"><ele>130.0</ele><time>2026-04-19T12:13:18.999Z</time></trkpt><trkpt lat="44.76812208796851" lon="1.0002971961694012"><ele>130.0</ele><time>2026-04-19T12:13:19.999Z</time></trkpt><trkpt lat="44.7682217179121" lon="1.000502640505682"><ele>130.0</ele><time>2026-04-19T12:13:20.999Z</time></trkpt><trkpt lat="44.768319738878446" lon="1.0007191373773907"><ele>127.33333333333334</ele><time>2026-04-19T12:13:21.999Z</time></trkpt><trkpt lat="44.76841675151725" lon="1.000939237142146"><ele>124.66666666666666</ele><time>2026-04-19T12:13:22.999Z</time></trkpt><trkpt lat="44.76853070099627" lon="1.0011389471933154"><ele>122.0</ele><time>2026-04-19T12:13:23.999Z</time></trkpt><trkpt lat="44.768636238597196" lon="1.001320387056215"><ele>124.5</ele><time>2026-04-19T12:13:24.999Z</time></trkpt><trkpt lat="44.76875177776577" lon="1.0014901089585193"><ele>127.0</ele><time>2026-04-19T12:13:25.999Z</time></trkpt><trkpt lat="44.76900383735726" lon="1.0017911966608415"><ele>127.0</ele><time>2026-04-19T12:13:27.999Z</time></trkpt><trkpt lat="44.769140921376206" lon="1.0019289468708454"><ele>127.0</ele><time>2026-04-19T12:13:28.999Z</time></trkpt><trkpt lat="44.76928388335489" lon="1.0020575334196602"><ele>127.0</ele><time>2026-04-19T12:13:29.999Z</time></trkpt><trkpt lat="44.76941465951852" lon="1.0021831381896043"><ele>129.0</ele><time>2026-04-19T12:13:30.999Z</time></trkpt><trkpt lat="44.76954021439087" lon="1.0023102433544442"><ele>131.0</ele><time>2026-04-19T12:13:32Z</time></trkpt><trkpt lat="44.7696498377836" lon="1.0024596729517046"><ele>133.0</ele><time>2026-04-19T12:13:33Z</time></trkpt><trkpt lat="44.7697512269113" lon="1.0026174328588815"><ele>130.0</ele><time>2026-04-19T12:13:34Z</time></trkpt><trkpt lat="44.76984535610613" lon="1.0027703341187972"><ele>127.0</ele><time>2026-04-19T12:13:35Z</time></trkpt><trkpt lat="44.769924889352126" lon="1.0029211694684224"><ele>124.0</ele><time>2026-04-19T12:13:36Z</time></trkpt><trkpt lat="44.77000888673942" lon="1.0030614015458408"><ele>121.0</ele><time>2026-04-19T12:13:37Z</time></trkpt><trkpt lat="44.77009307905479" lon="1.0031968559778306"><ele>121.0</ele><time>2026-04-19T12:13:38Z</time></trkpt><trkpt lat="44.770171812586966" lon="1.0033156706247153"><ele>121.0</ele><time>2026-04-19T12:13:39Z</time></trkpt><trkpt lat="44.77024919448588" lon="1.003434629027076"><ele>121.0</ele><time>2026-04-19T12:13:40Z</time></trkpt><trkpt lat="44.77032381982671" lon="1.003549775310478"><ele>121.0</ele><time>2026-04-19T12:13:41Z</time></trkpt><trkpt lat="44.77039080768394" lon="1.0036674835421984"><ele>121.0</ele><time>2026-04-19T12:13:42Z</time></trkpt><trkpt lat="44.77045895353719" lon="1.0037708050442924"><ele>119.83333333333334</ele><time>2026-04-19T12:13:43Z</time></trkpt><trkpt lat="44.770517070162605" lon="1.003854500527343"><ele>118.66666666666667</ele><time>2026-04-19T12:13:44Z</time></trkpt><trkpt lat="44.77057143705411" lon="1.0039272265209245"><ele>117.5</ele><time>2026-04-19T12:13:45Z</time></trkpt><trkpt lat="44.770630705296064" lon="1.0039975711113212"><ele>116.33333333333334</ele><time>2026-04-19T12:13:46Z</time></trkpt><trkpt lat="44.770683889534155" lon="1.0040464483570828"><ele>115.16666666666667</ele><time>2026-04-19T12:13:47Z</time></trkpt><trkpt lat="44.770752189446306" lon="1.0041651806411331"><ele>114.0</ele><time>2026-04-19T12:13:50Z</time></trkpt><trkpt lat="44.77078097134497" lon="1.0042482068485896"><ele>113.33333333333333</ele><time>2026-04-19T12:13:52Z</time></trkpt><trkpt lat="44.770861278892" lon="1.0042624050649576"><ele>112.66666666666666</ele><time>2026-04-19T12:13:54Z</time></trkpt><trkpt lat="44.770919552339414" lon="1.0042232105060096"><ele>112.0</ele><time>2026-04-19T12:13:55Z</time></trkpt><trkpt lat="44.77100228014502" lon="1.004178993964322"><ele>111.33333333333333</ele><time>2026-04-19T12:13:56Z</time></trkpt><trkpt lat="44.77109900588003" lon="1.0041495336695883"><ele>110.66666666666666</ele><time>2026-04-19T12:13:57Z</time></trkpt><trkpt lat="44.771212987418174" lon="1.004128308622286"><ele>110.0</ele><time>2026-04-19T12:13:58Z</time></trkpt><trkpt lat="44.77134168530831" lon="1.0041065162363987"><ele>111.25</ele><time>2026-04-19T12:13:59Z</time></trkpt><trkpt lat="44.77147600844812" lon="1.0040988414008123"><ele>112.5</ele><time>2026-04-19T12:14:00Z</time></trkpt><trkpt lat="44.77159625010074" lon="1.004104350807787"><ele>113.75</ele><time>2026-04-19T12:14:01Z</time></trkpt><trkpt lat="44.771715797923065" lon="1.0041431842542294"><ele>115.0</ele><time>2026-04-19T12:14:02Z</time></trkpt><trkpt lat="44.77182708280745" lon="1.004197483478782"><ele>120.0</ele><time>2026-04-19T12:14:03Z</time></trkpt><trkpt lat="44.771926931489055" lon="1.0042911295553594"><ele>125.0</ele><time>2026-04-19T12:14:04Z</time></trkpt><trkpt lat="44.772103936505076" lon="1.0044985526216963"><ele>130.0</ele><time>2026-04-19T12:14:06Z</time></trkpt><trkpt lat="44.77217454352665" lon="1.0046388687450654"><ele>130.0</ele><time>2026-04-19T12:14:07Z</time></trkpt><trkpt lat="44.772224277251425" lon="1.0047927110452362"><ele>130.0</ele><time>2026-04-19T12:14:08Z</time></trkpt><trkpt lat="44.77226875837181" lon="1.0049704723357096"><ele>130.0</ele><time>2026-04-19T12:14:09Z</time></trkpt><trkpt lat="44.7722901986045" lon="1.0051433846782223"><ele>130.0</ele><time>2026-04-19T12:14:10Z</time></trkpt><trkpt lat="44.772286054288855" lon="1.0055006960156982"><ele>130.0</ele><time>2026-04-19T12:14:12.001Z</time></trkpt><trkpt lat="44.77227761721837" lon="1.0056664090087388"><ele>130.0</ele><time>2026-04-19T12:14:13.001Z</time></trkpt><trkpt lat="44.77224790893262" lon="1.0058416414489584"><ele>130.0</ele><time>2026-04-19T12:14:14.001Z</time></trkpt><trkpt lat="44.77220465784632" lon="1.0060123198946396"><ele>130.0</ele><time>2026-04-19T12:14:15.001Z</time></trkpt><trkpt lat="44.77216944820193" lon="1.0061764495123304"><ele>130.0</ele><time>2026-04-19T12:14:16.001Z</time></trkpt><trkpt lat="44.7721255529877" lon="1.0063270979626748"><ele>130.0</ele><time>2026-04-19T12:14:17.001Z</time></trkpt><trkpt lat="44.772086726473866" lon="1.006488120819858"><ele>130.0</ele><time>2026-04-19T12:14:18.001Z</time></trkpt><trkpt lat="44.772072717594945" lon="1.006652997154104"><ele>130.0</ele><time>2026-04-19T12:14:19.001Z</time></trkpt><trkpt lat="44.7720618159918" lon="1.0068275013460726"><ele>131.66666666666669</ele><time>2026-04-19T12:14:20.001Z</time></trkpt><trkpt lat="44.77206502489321" lon="1.0070179987036878"><ele>133.33333333333334</ele><time>2026-04-19T12:14:21.001Z</time></trkpt><trkpt lat="44.77207300548348" lon="1.0072369066148663"><ele>135.0</ele><time>2026-04-19T12:14:22.001Z</time></trkpt><trkpt lat="44.77209773531271" lon="1.007457695226937"><ele>136.0</ele><time>2026-04-19T12:14:23.001Z</time></trkpt><trkpt lat="44.77214009448729" lon="1.0076862962158373"><ele>137.0</ele><time>2026-04-19T12:14:24.001Z</time></trkpt><trkpt lat="44.772173401997634" lon="1.0078812864946458"><ele>138.0</ele><time>2026-04-19T12:14:25.001Z</time></trkpt><trkpt lat="44.77220834515538" lon="1.0080488103474607"><ele>139.0</ele><time>2026-04-19T12:14:26.001Z</time></trkpt><trkpt lat="44.77223487041208" lon="1.0082154426681516"><ele>138.2</ele><time>2026-04-19T12:14:27.001Z</time></trkpt><trkpt lat="44.77227104794454" lon="1.0083720772901774"><ele>137.4</ele><time>2026-04-19T12:14:28.001Z</time></trkpt><trkpt lat="44.77232767882607" lon="1.008503128023682"><ele>136.6</ele><time>2026-04-19T12:14:29.001Z</time></trkpt><trkpt lat="44.772390409983075" lon="1.008633945956496"><ele>135.8</ele><time>2026-04-19T12:14:30.001Z</time></trkpt><trkpt lat="44.77245053851659" lon="1.0087506811934375"><ele>135.0</ele><time>2026-04-19T12:14:31.001Z</time></trkpt><trkpt lat="44.77251186905637" lon="1.0088524693178733"><ele>135.0</ele><time>2026-04-19T12:14:32.001Z</time></trkpt><trkpt lat="44.7725750455834" lon="1.008924194547777"><ele>135.0</ele><time>2026-04-19T12:14:33.001Z</time></trkpt><trkpt lat="44.772651059168304" lon="1.0089715018089978"><ele>135.0</ele><time>2026-04-19T12:14:34.001Z</time></trkpt><trkpt lat="44.77273590849427" lon="1.0089959592341509"><ele>135.0</ele><time>2026-04-19T12:14:35.001Z</time></trkpt><trkpt lat="44.7728223598893" lon="1.0089964695157876"><ele>135.0</ele><time>2026-04-19T12:14:36.001Z</time></trkpt><trkpt lat="44.772911152347476" lon="1.0089724907980402"><ele>135.0</ele><time>2026-04-19T12:14:37.001Z</time></trkpt><trkpt lat="44.77300650855582" lon="1.0089138565754794"><ele>135.8</ele><time>2026-04-19T12:14:38.001Z</time></trkpt><trkpt lat="44.77308139512836" lon="1.0088181050269995"><ele>136.6</ele><time>2026-04-19T12:14:39.001Z</time></trkpt><trkpt lat="44.77314587049881" lon="1.0087042059485716"><ele>137.4</ele><time>2026-04-19T12:14:40.001Z</time></trkpt><trkpt lat="44.773195317139994" lon="1.008580820219268"><ele>138.2</ele><time>2026-04-19T12:14:41.001Z</time></trkpt><trkpt lat="44.77322562748022" lon="1.0084359956324025"><ele>139.0</ele><time>2026-04-19T12:14:42.001Z</time></trkpt><trkpt lat="44.77328988072984" lon="1.0083010468314202"><ele>141.75</ele><time>2026-04-19T12:14:43.001Z</time></trkpt><trkpt lat="44.773333662520976" lon="1.008155899432015"><ele>144.5</ele><time>2026-04-19T12:14:44.001Z</time></trkpt><trkpt lat="44.77337553040485" lon="1.0080121219556484"><ele>147.25</ele><time>2026-04-19T12:14:45.001Z</time></trkpt><trkpt lat="44.77341648805215" lon="1.0078646788412025"><ele>150.0</ele><time>2026-04-19T12:14:46.001Z</time></trkpt><trkpt lat="44.77347232508957" lon="1.007712482223298"><ele>150.0</ele><time>2026-04-19T12:14:47.001Z</time></trkpt><trkpt lat="44.77351758066232" lon="1.0075707135424736"><ele>150.0</ele><time>2026-04-19T12:14:48.001Z</time></trkpt><trkpt lat="44.77356668604491" lon="1.0074293733279265"><ele>150.0</ele><time>2026-04-19T12:14:49.001Z</time></trkpt><trkpt lat="44.773615321141065" lon="1.00729548811346"><ele>150.0</ele><time>2026-04-19T12:14:50.001Z</time></trkpt><trkpt lat="44.77365666548832" lon="1.0071722621398114"><ele>150.0</ele><time>2026-04-19T12:14:50.999Z</time></trkpt><trkpt lat="44.77369726559849" lon="1.0070519839141212"><ele>150.2</ele><time>2026-04-19T12:14:51.999Z</time></trkpt><trkpt lat="44.77375690250899" lon="1.0069484618737028"><ele>150.4</ele><time>2026-04-19T12:14:52.999Z</time></trkpt><trkpt lat="44.77382760485896" lon="1.006845105624399"><ele>150.6</ele><time>2026-04-19T12:14:53.998Z</time></trkpt><trkpt lat="44.77390019087429" lon="1.0067764176970955"><ele>150.8</ele><time>2026-04-19T12:14:54.999Z</time></trkpt><trkpt lat="44.77397431346687" lon="1.0067077792113663"><ele>151.0</ele><time>2026-04-19T12:14:55.999Z</time></trkpt><trkpt lat="44.77404242201342" lon="1.0066390681230994"><ele>152.5</ele><time>2026-04-19T12:14:56.999Z</time></trkpt><trkpt lat="44.774126247362325" lon="1.0065909105407107"><ele>154.0</ele><time>2026-04-19T12:14:57.999Z</time></trkpt><trkpt lat="44.774220400541054" lon="1.006584676983686"><ele>155.5</ele><time>2026-04-19T12:14:58.999Z</time></trkpt><trkpt lat="44.774314389526225" lon="1.0065566796284298"><ele>157.0</ele><time>2026-04-19T12:14:59.999Z</time></trkpt><trkpt lat="44.774391602484314" lon="1.0065406506945846"><ele>158.5</ele><time>2026-04-19T12:15:00.999Z</time></trkpt><trkpt lat="44.77446692042486" lon="1.0065243937801116"><ele>160.0</ele><time>2026-04-19T12:15:01.999Z</time></trkpt><trkpt lat="44.77453424496198" lon="1.0065118938692952"><ele>160.83333333333334</ele><time>2026-04-19T12:15:02.999Z</time></trkpt><trkpt lat="44.7746029901543" lon="1.006499635832587"><ele>161.66666666666669</ele><time>2026-04-19T12:15:03.998Z</time></trkpt><trkpt lat="44.774680935379195" lon="1.0064857373248042"><ele>162.5</ele><time>2026-04-19T12:15:04.998Z</time></trkpt><trkpt lat="44.77475930004305" lon="1.0064732674610095"><ele>163.33333333333334</ele><time>2026-04-19T12:15:05.998Z</time></trkpt><trkpt lat="44.774843275189625" lon="1.0064616939395872"><ele>164.16666666666666</ele><time>2026-04-19T12:15:06.998Z</time></trkpt><trkpt lat="44.77492765892675" lon="1.0064521919053413"><ele>165.0</ele><time>2026-04-19T12:15:07.998Z</time></trkpt><trkpt lat="44.775014685230595" lon="1.0064403786556528"><ele>165.0</ele><time>2026-04-19T12:15:08.999Z</time></trkpt><trkpt lat="44.77509538928505" lon="1.0064370856458187"><ele>165.0</ele><time>2026-04-19T12:15:09.999Z</time></trkpt><trkpt lat="44.77517020070497" lon="1.0064366602077595"><ele>165.0</ele><time>2026-04-19T12:15:10.999Z</time></trkpt><trkpt lat="44.77527680281865" lon="1.0064733323264128"><ele>165.0</ele><time>2026-04-19T12:15:12.999Z</time></trkpt><trkpt lat="44.77536141002619" lon="1.0065079564782178"><ele>165.0</ele><time>2026-04-19T12:15:14.999Z</time></trkpt><trkpt lat="44.7754173455837" lon="1.006617330775278"><ele>165.0</ele><time>2026-04-19T12:15:16.999Z</time></trkpt><trkpt lat="44.77542925281103" lon="1.0067056157113778"><ele>164.8</ele><time>2026-04-19T12:15:17.999Z</time></trkpt><trkpt lat="44.77545598348071" lon="1.0067885479081242"><ele>164.6</ele><time>2026-04-19T12:15:18.999Z</time></trkpt><trkpt lat="44.77546527889183" lon="1.0069744627329118"><ele>164.39999999999998</ele><time>2026-04-19T12:15:20.999Z</time></trkpt><trkpt lat="44.77545620958269" lon="1.0071316691943588"><ele>164.2</ele><time>2026-04-19T12:15:22.999Z</time></trkpt><trkpt lat="44.775429539334624" lon="1.0072183444518286"><ele>164.0</ele><time>2026-04-19T12:15:23.999Z</time></trkpt><trkpt lat="44.775412229104646" lon="1.0073314831974167"><ele>164.0</ele><time>2026-04-19T12:15:24.999Z</time></trkpt><trkpt lat="44.7753620598694" lon="1.0074342289853995"><ele>164.0</ele><time>2026-04-19T12:15:25.999Z</time></trkpt><trkpt lat="44.77531583594257" lon="1.0075336445688374"><ele>164.0</ele><time>2026-04-19T12:15:26.999Z</time></trkpt><trkpt lat="44.775279984385186" lon="1.0076313747884345"><ele>164.0</ele><time>2026-04-19T12:15:27.999Z</time></trkpt><trkpt lat="44.77525232383941" lon="1.0077363979167717"><ele>164.0</ele><time>2026-04-19T12:15:28.999Z</time></trkpt><trkpt lat="44.77523254437061" lon="1.0078465659969265"><ele>164.0</ele><time>2026-04-19T12:15:29.999Z</time></trkpt><trkpt lat="44.77521820688336" lon="1.007948752794038"><ele>164.66666666666666</ele><time>2026-04-19T12:15:30.999Z</time></trkpt><trkpt lat="44.7752097653256" lon="1.008055093276329"><ele>165.33333333333331</ele><time>2026-04-19T12:15:31.999Z</time></trkpt><trkpt lat="44.77519885706761" lon="1.0081691112359088"><ele>166.0</ele><time>2026-04-19T12:15:32.999Z</time></trkpt><trkpt lat="44.77519761666905" lon="1.0082770237712662"><ele>166.66666666666666</ele><time>2026-04-19T12:15:33.999Z</time></trkpt><trkpt lat="44.775195841481754" lon="1.0083820272434194"><ele>167.33333333333334</ele><time>2026-04-19T12:15:34.999Z</time></trkpt><trkpt lat="44.775199619520684" lon="1.008488800592674"><ele>168.0</ele><time>2026-04-19T12:15:35.999Z</time></trkpt><trkpt lat="44.775199557797805" lon="1.0085940835069505"><ele>168.28571428571428</ele><time>2026-04-19T12:15:36.999Z</time></trkpt><trkpt lat="44.77520083335908" lon="1.0086996149657714"><ele>168.57142857142856</ele><time>2026-04-19T12:15:37.999Z</time></trkpt><trkpt lat="44.77519866606556" lon="1.0088054939203184"><ele>168.85714285714286</ele><time>2026-04-19T12:15:38.999Z</time></trkpt><trkpt lat="44.77521333940785" lon="1.0088964685862338"><ele>169.14285714285714</ele><time>2026-04-19T12:15:39.999Z</time></trkpt><trkpt lat="44.77523593699276" lon="1.0090032566658653"><ele>169.42857142857142</ele><time>2026-04-19T12:15:40.999Z</time></trkpt><trkpt lat="44.775251156330214" lon="1.0091029249719725"><ele>169.71428571428572</ele><time>2026-04-19T12:15:41.999Z</time></trkpt><trkpt lat="44.7752720297382" lon="1.0092120893458407"><ele>170.0</ele><time>2026-04-19T12:15:42.999Z</time></trkpt><trkpt lat="44.77529933312606" lon="1.0093120610357447"><ele>170.0</ele><time>2026-04-19T12:15:43.999Z</time></trkpt><trkpt lat="44.77533736513377" lon="1.0093998979703578"><ele>170.0</ele><time>2026-04-19T12:15:44.999Z</time></trkpt><trkpt lat="44.77537293468764" lon="1.0094924926432451"><ele>170.0</ele><time>2026-04-19T12:15:45.999Z</time></trkpt><trkpt lat="44.775405971567" lon="1.0095840229527617"><ele>170.0</ele><time>2026-04-19T12:15:46.999Z</time></trkpt><trkpt lat="44.77544728750374" lon="1.0096610025294617"><ele>170.0</ele><time>2026-04-19T12:15:47.999Z</time></trkpt><trkpt lat="44.775496457114954" lon="1.0097231976876981"><ele>170.0</ele><time>2026-04-19T12:15:49Z</time></trkpt><trkpt lat="44.775550625272395" lon="1.0097877136339193"><ele>170.0</ele><time>2026-04-19T12:15:50Z</time></trkpt><trkpt lat="44.77561384584993" lon="1.009833699893422"><ele>170.0</ele><time>2026-04-19T12:15:51Z</time></trkpt><trkpt lat="44.775682395563145" lon="1.009880510142609"><ele>170.0</ele><time>2026-04-19T12:15:52Z</time></trkpt><trkpt lat="44.77576181902761" lon="1.0099008344020894"><ele>170.0</ele><time>2026-04-19T12:15:53Z</time></trkpt><trkpt lat="44.77583694063532" lon="1.0099217338969984"><ele>170.0</ele><time>2026-04-19T12:15:54Z</time></trkpt><trkpt lat="44.775911109305945" lon="1.009929917208129"><ele>170.0</ele><time>2026-04-19T12:15:55Z</time></trkpt><trkpt lat="44.775981454361215" lon="1.009970063807521"><ele>170.0</ele><time>2026-04-19T12:15:56Z</time></trkpt><trkpt lat="44.77605402013721" lon="1.0099912034188427"><ele>168.71428571428572</ele><time>2026-04-19T12:15:57Z</time></trkpt><trkpt lat="44.77612522163356" lon="1.010011256863126"><ele>167.42857142857142</ele><time>2026-04-19T12:15:58Z</time></trkpt><trkpt lat="44.776198156932864" lon="1.0100069555749434"><ele>166.14285714285714</ele><time>2026-04-19T12:15:59Z</time></trkpt><trkpt lat="44.776265418586334" lon="1.0100253327621032"><ele>164.85714285714286</ele><time>2026-04-19T12:16:00Z</time></trkpt><trkpt lat="44.7763401997305" lon="1.010040279998026"><ele>163.57142857142856</ele><time>2026-04-19T12:16:01Z</time></trkpt><trkpt lat="44.77642141327416" lon="1.010052036382959"><ele>162.28571428571428</ele><time>2026-04-19T12:16:02Z</time></trkpt><trkpt lat="44.776492332445585" lon="1.0100440984299066"><ele>161.0</ele><time>2026-04-19T12:16:03Z</time></trkpt><trkpt lat="44.77656459982766" lon="1.0100320656745216"><ele>161.0</ele><time>2026-04-19T12:16:04Z</time></trkpt><trkpt lat="44.776634766576244" lon="1.0099960559914818"><ele>161.0</ele><time>2026-04-19T12:16:05Z</time></trkpt><trkpt lat="44.77670539253719" lon="1.0099511103724819"><ele>161.0</ele><time>2026-04-19T12:16:06Z</time></trkpt><trkpt lat="44.77676233021214" lon="1.0099042288244608"><ele>161.0</ele><time>2026-04-19T12:16:07Z</time></trkpt><trkpt lat="44.776818383844436" lon="1.0098388497010582"><ele>161.0</ele><time>2026-04-19T12:16:08Z</time></trkpt><trkpt lat="44.77687458651229" lon="1.0097536826701485"><ele>161.0</ele><time>2026-04-19T12:16:09Z</time></trkpt><trkpt lat="44.77691588875198" lon="1.0096681482895178"><ele>161.0</ele><time>2026-04-19T12:16:10Z</time></trkpt><trkpt lat="44.776938237182286" lon="1.0095824104689246"><ele>158.66666666666666</ele><time>2026-04-19T12:16:11Z</time></trkpt><trkpt lat="44.77695670135474" lon="1.0094260836499171"><ele>156.33333333333331</ele><time>2026-04-19T12:16:13Z</time></trkpt><trkpt lat="44.7769571697081" lon="1.0093355837188909"><ele>154.0</ele><time>2026-04-19T12:16:14Z</time></trkpt><trkpt lat="44.77695256922562" lon="1.009162773002726"><ele>151.66666666666666</ele><time>2026-04-19T12:16:16Z</time></trkpt><trkpt lat="44.776946105454776" lon="1.009060944362872"><ele>149.33333333333334</ele><time>2026-04-19T12:16:17Z</time></trkpt><trkpt lat="44.77693672136258" lon="1.0089641464347596"><ele>147.0</ele><time>2026-04-19T12:16:18Z</time></trkpt><trkpt lat="44.77692387572382" lon="1.0088630989214369"><ele>146.4</ele><time>2026-04-19T12:16:19Z</time></trkpt><trkpt lat="44.776899573556356" lon="1.008687014778361"><ele>145.79999999999998</ele><time>2026-04-19T12:16:21Z</time></trkpt><trkpt lat="44.77688067171607" lon="1.0085257112430885"><ele>145.2</ele><time>2026-04-19T12:16:23Z</time></trkpt><trkpt lat="44.776817074184116" lon="1.008372708879026"><ele>144.6</ele><time>2026-04-19T12:16:25Z</time></trkpt><trkpt lat="44.77681653220189" lon="1.0082829015837864"><ele>144.0</ele><time>2026-04-19T12:16:26Z</time></trkpt><trkpt lat="44.77680567962224" lon="1.0081216278549439"><ele>146.33333333333334</ele><time>2026-04-19T12:16:28Z</time></trkpt><trkpt lat="44.776787806902774" lon="1.007988813548618"><ele>148.66666666666666</ele><time>2026-04-19T12:16:30.001Z</time></trkpt><trkpt lat="44.77678772898019" lon="1.0078792516400514"><ele>151.0</ele><time>2026-04-19T12:16:32.001Z</time></trkpt><trkpt lat="44.7767943893401" lon="1.0077484321902528"><ele>153.33333333333331</ele><time>2026-04-19T12:16:34.001Z</time></trkpt><trkpt lat="44.776811799969735" lon="1.0076438116562891"><ele>155.66666666666666</ele><time>2026-04-19T12:16:36.001Z</time></trkpt><trkpt lat="44.77683770073799" lon="1.0075371645455427"><ele>158.0</ele><time>2026-04-19T12:16:38.001Z</time></trkpt><trkpt lat="44.77686316340831" lon="1.0074287990152784"><ele>158.0</ele><time>2026-04-19T12:16:40.001Z</time></trkpt><trkpt lat="44.77690284114429" lon="1.0073492113463385"><ele>158.0</ele><time>2026-04-19T12:16:42.001Z</time></trkpt><trkpt lat="44.77699477062829" lon="1.007340268187699"><ele>158.0</ele><time>2026-04-19T12:16:46.001Z</time></trkpt><trkpt lat="44.77691191634011" lon="1.0073346178772558"><ele>158.0</ele><time>2026-04-19T12:16:47.001Z</time></trkpt><trkpt lat="44.777037095508014" lon="1.0073749877689882"><ele>158.0</ele><time>2026-04-19T12:16:48.001Z</time></trkpt><trkpt lat="44.777121606477316" lon="1.007224635353411"><ele>158.00000000000003</ele><time>2026-04-19T12:16:50.001Z</time></trkpt><trkpt lat="44.777166828555444" lon="1.0071188427941824"><ele>158.0</ele><time>2026-04-19T12:16:53.001Z</time></trkpt><trkpt lat="44.77710177903414" lon="1.0070959499429928"><ele>158.0</ele><time>2026-04-19T12:20:56Z</time></trkpt><trkpt lat="44.77704587173868" lon="1.0071475531554448"><ele>158.0</ele><time>2026-04-19T12:21:03Z</time></trkpt><trkpt lat="44.77699274331089" lon="1.0072041205311435"><ele>158.0</ele><time>2026-04-19T12:21:14Z</time></trkpt><trkpt lat="44.776930280751145" lon="1.0072455777429368"><ele>158.00000000000003</ele><time>2026-04-19T12:21:22.999Z</time></trkpt><trkpt lat="44.77688854172226" lon="1.0073167141121504"><ele>158.0</ele><time>2026-04-19T12:21:29.999Z</time></trkpt><trkpt lat="44.77686516869959" lon="1.0074079249648373"><ele>156.66666666666666</ele><time>2026-04-19T12:21:35.999Z</time></trkpt><trkpt lat="44.77686289127034" lon="1.0075003811336576"><ele>155.33333333333331</ele><time>2026-04-19T12:21:44Z</time></trkpt><trkpt lat="44.776854677763616" lon="1.0075898233023572"><ele>154.0</ele><time>2026-04-19T12:21:53Z</time></trkpt><trkpt lat="44.776837902053934" lon="1.0076757713714084"><ele>152.66666666666666</ele><time>2026-04-19T12:21:59Z</time></trkpt><trkpt lat="44.77680053738143" lon="1.0077714476038133"><ele>151.33333333333334</ele><time>2026-04-19T12:22:04Z</time></trkpt><trkpt lat="44.776822672685284" lon="1.0078557793684442"><ele>150.0</ele><time>2026-04-19T12:23:36.002Z</time></trkpt><trkpt lat="44.77696110005231" lon="1.0078683886591935"><ele>149.99999999999997</ele><time>2026-04-19T12:23:58.003Z</time></trkpt><trkpt lat="44.777028570756805" lon="1.0078379207806263"><ele>150.0</ele><time>2026-04-19T12:24:52.004Z</time></trkpt><trkpt lat="44.7769643121921" lon="1.0078185581526542"><ele>150.0</ele><time>2026-04-19T12:25:06.004Z</time></trkpt><trkpt lat="44.77689934662072" lon="1.007723779718495"><ele>150.0</ele><time>2026-04-19T12:25:12.005Z</time></trkpt><trkpt lat="44.77695346724109" lon="1.0076716216359936"><ele>150.0</ele><time>2026-04-19T12:25:18.005Z</time></trkpt><trkpt lat="44.776977749399485" lon="1.0075795779659098"><ele>149.99999999999997</ele><time>2026-04-19T12:25:27Z</time></trkpt><trkpt lat="44.777005220158955" lon="1.007498159499947"><ele>150.0</ele><time>2026-04-19T12:25:40Z</time></trkpt><trkpt lat="44.77700888172887" lon="1.0074063810193288"><ele>151.33333333333334</ele><time>2026-04-19T12:25:50Z</time></trkpt><trkpt lat="44.777043836934844" lon="1.0073200020570479"><ele>152.66666666666666</ele><time>2026-04-19T12:26:00.001Z</time></trkpt><trkpt lat="44.777072367529655" lon="1.0072097532516868"><ele>154.0</ele><time>2026-04-19T12:26:07.001Z</time></trkpt><trkpt lat="44.7770940076152" lon="1.0071232353065547"><ele>155.33333333333331</ele><time>2026-04-19T12:26:13.001Z</time></trkpt><trkpt lat="44.77711015439789" lon="1.0069473165063758"><ele>156.66666666666666</ele><time>2026-04-19T12:26:39.002Z</time></trkpt><trkpt lat="44.77708429211159" lon="1.0068660818163369"><ele>158.0</ele><time>2026-04-19T12:31:05.002Z</time></trkpt><trkpt lat="44.77709800797088" lon="1.0067666017489922"><ele>158.0</ele><time>2026-04-19T12:31:07.002Z</time></trkpt><trkpt lat="44.77714873589414" lon="1.006675766124656"><ele>158.0</ele><time>2026-04-19T12:31:09.002Z</time></trkpt><trkpt lat="44.77721417748075" lon="1.0065692682559852"><ele>158.0</ele><time>2026-04-19T12:31:11.002Z</time></trkpt><trkpt lat="44.77728620164593" lon="1.0064335923240044"><ele>158.0</ele><time>2026-04-19T12:31:13.002Z</time></trkpt><trkpt lat="44.77737658624569" lon="1.0063010208871894"><ele>158.0</ele><time>2026-04-19T12:31:15.002Z</time></trkpt><trkpt lat="44.7774198837359" lon="1.0062334259567025"><ele>159.66666666666666</ele><time>2026-04-19T12:31:16.002Z</time></trkpt><trkpt lat="44.77749057005829" lon="1.006128278468199"><ele>161.33333333333331</ele><time>2026-04-19T12:31:18.002Z</time></trkpt><trkpt lat="44.77754093789054" lon="1.006059076573125"><ele>163.0</ele><time>2026-04-19T12:31:20.003Z</time></trkpt><trkpt lat="44.77760070570486" lon="1.0059773593558476"><ele>164.66666666666666</ele><time>2026-04-19T12:31:23.003Z</time></trkpt><trkpt lat="44.77765546445181" lon="1.0059029200565757"><ele>166.33333333333334</ele><time>2026-04-19T12:31:42Z</time></trkpt><trkpt lat="44.77766107264905" lon="1.0058072535516158"><ele>168.0</ele><time>2026-04-19T12:31:44.001Z</time></trkpt><trkpt lat="44.777580945503814" lon="1.0057607054135724"><ele>168.0</ele><time>2026-04-19T12:31:46Z</time></trkpt><trkpt lat="44.77749232280207" lon="1.0058256092834372"><ele>168.0</ele><time>2026-04-19T12:31:48.001Z</time></trkpt><trkpt lat="44.777420754256035" lon="1.005939860042509"><ele>168.0</ele><time>2026-04-19T12:31:50.001Z</time></trkpt><trkpt lat="44.777369003048356" lon="1.00602657279126"><ele>168.0</ele><time>2026-04-19T12:31:52Z</time></trkpt><trkpt lat="44.77731927759139" lon="1.0060862393484524"><ele>168.0</ele><time>2026-04-19T12:31:56Z</time></trkpt><trkpt lat="44.7772745515137" lon="1.0061673750480749"><ele>168.0</ele><time>2026-04-19T12:31:59.001Z</time></trkpt><trkpt lat="44.77721667725501" lon="1.0062570759277387"><ele>168.0</ele><time>2026-04-19T12:32:01.001Z</time></trkpt><trkpt lat="44.77716958749704" lon="1.0063174828792356"><ele>168.0</ele><time>2026-04-19T12:32:03.001Z</time></trkpt><trkpt lat="44.777124120325084" lon="1.0064202461624518"><ele>168.0</ele><time>2026-04-19T12:32:14.001Z</time></trkpt><trkpt lat="44.777029528560924" lon="1.0064204020242165"><ele>168.0</ele><time>2026-04-19T12:32:17.001Z</time></trkpt><trkpt lat="44.77695057516691" lon="1.006332395163567"><ele>168.0</ele><time>2026-04-19T12:32:19.001Z</time></trkpt><trkpt lat="44.77682623115834" lon="1.0062476044264894"><ele>169.2</ele><time>2026-04-19T12:32:21.001Z</time></trkpt><trkpt lat="44.776811669279425" lon="1.0061387839028995"><ele>170.4</ele><time>2026-04-19T12:32:22.001Z</time></trkpt><trkpt lat="44.77668252930223" lon="1.0061383575232286"><ele>171.6</ele><time>2026-04-19T12:32:24.001Z</time></trkpt><trkpt lat="44.77657732299713" lon="1.006060824201491"><ele>172.79999999999998</ele><time>2026-04-19T12:32:26.001Z</time></trkpt><trkpt lat="44.77647071222406" lon="1.0059883877631315"><ele>174.0</ele><time>2026-04-19T12:32:28.001Z</time></trkpt><trkpt lat="44.77646880111223" lon="1.005848255081013"><ele>174.2</ele><time>2026-04-19T12:32:30.001Z</time></trkpt><trkpt lat="44.77649585048237" lon="1.0057179237774996"><ele>174.39999999999998</ele><time>2026-04-19T12:32:32.001Z</time></trkpt><trkpt lat="44.776479409884104" lon="1.0056163948693186"><ele>174.6</ele><time>2026-04-19T12:32:34.001Z</time></trkpt><trkpt lat="44.77641872088175" lon="1.005520448357028"><ele>174.8</ele><time>2026-04-19T12:32:37.001Z</time></trkpt><trkpt lat="44.776331180231864" lon="1.0055438482462091"><ele>175.0</ele><time>2026-04-19T12:32:39.002Z</time></trkpt><trkpt lat="44.776232936305036" lon="1.0055819115246407"><ele>175.0</ele><time>2026-04-19T12:32:41.002Z</time></trkpt><trkpt lat="44.77614536556756" lon="1.0056154975329727"><ele>175.0</ele><time>2026-04-19T12:32:43.002Z</time></trkpt><trkpt lat="44.77603828850621" lon="1.0056731102721468"><ele>175.0</ele><time>2026-04-19T12:32:45.002Z</time></trkpt><trkpt lat="44.77591818235043" lon="1.0057062909582684"><ele>175.0</ele><time>2026-04-19T12:32:47.002Z</time></trkpt><trkpt lat="44.775837397187445" lon="1.0057223029100866"><ele>175.0</ele><time>2026-04-19T12:32:48.002Z</time></trkpt><trkpt lat="44.775763832082895" lon="1.005685289646814"><ele>175.16666666666669</ele><time>2026-04-19T12:32:49.002Z</time></trkpt><trkpt lat="44.775694237103494" lon="1.0056716689807692"><ele>175.33333333333334</ele><time>2026-04-19T12:32:50.002Z</time></trkpt><trkpt lat="44.775623143264625" lon="1.0056478145283099"><ele>175.5</ele><time>2026-04-19T12:32:51.002Z</time></trkpt><trkpt lat="44.775562896178236" lon="1.0056005162193538"><ele>175.66666666666666</ele><time>2026-04-19T12:32:52.002Z</time></trkpt><trkpt lat="44.775492796858515" lon="1.0055681987587413"><ele>175.83333333333331</ele><time>2026-04-19T12:32:53.002Z</time></trkpt><trkpt lat="44.775422247591855" lon="1.0055502523237447"><ele>176.0</ele><time>2026-04-19T12:32:54.002Z</time></trkpt><trkpt lat="44.77530059873753" lon="1.0055334751920106"><ele>176.4</ele><time>2026-04-19T12:32:56.002Z</time></trkpt><trkpt lat="44.77517812663755" lon="1.0055269675321632"><ele>176.8</ele><time>2026-04-19T12:32:58.002Z</time></trkpt><trkpt lat="44.77505826062018" lon="1.005526954046421"><ele>177.20000000000002</ele><time>2026-04-19T12:33:00.002Z</time></trkpt><trkpt lat="44.7749941914961" lon="1.005516723537572"><ele>177.60000000000002</ele><time>2026-04-19T12:33:01.002Z</time></trkpt><trkpt lat="44.77492113697352" lon="1.0055198964211578"><ele>178.0</ele><time>2026-04-19T12:33:02.002Z</time></trkpt><trkpt lat="44.77484724830125" lon="1.0054950698829417"><ele>178.0</ele><time>2026-04-19T12:33:03.002Z</time></trkpt><trkpt lat="44.77477021942925" lon="1.00546898796106"><ele>178.0</ele><time>2026-04-19T12:33:04.002Z</time></trkpt><trkpt lat="44.77470238482151" lon="1.0054429041545692"><ele>178.0</ele><time>2026-04-19T12:33:05.002Z</time></trkpt><trkpt lat="44.77462312283982" lon="1.0054030381391519"><ele>178.0</ele><time>2026-04-19T12:33:06.002Z</time></trkpt><trkpt lat="44.774552144599646" lon="1.0053620722683008"><ele>178.0</ele><time>2026-04-19T12:33:07.002Z</time></trkpt><trkpt lat="44.774477256711386" lon="1.0052951043901068"><ele>178.0</ele><time>2026-04-19T12:33:08.002Z</time></trkpt><trkpt lat="44.77441367674131" lon="1.0052261106931657"><ele>178.0</ele><time>2026-04-19T12:33:09.002Z</time></trkpt><trkpt lat="44.774357068577544" lon="1.0051597494137539"><ele>178.0</ele><time>2026-04-19T12:33:10.002Z</time></trkpt><trkpt lat="44.77431190325545" lon="1.0050959444477128"><ele>178.0</ele><time>2026-04-19T12:33:11.002Z</time></trkpt><trkpt lat="44.77424174355332" lon="1.0049434807781068"><ele>178.0</ele><time>2026-04-19T12:33:13.002Z</time></trkpt><trkpt lat="44.77418860363484" lon="1.004856016609201"><ele>178.0</ele><time>2026-04-19T12:33:14.002Z</time></trkpt><trkpt lat="44.77414397585285" lon="1.0047889969998347"><ele>178.0</ele><time>2026-04-19T12:33:15.002Z</time></trkpt><trkpt lat="44.774088716506306" lon="1.004697480967361"><ele>177.33333333333334</ele><time>2026-04-19T12:33:16.002Z</time></trkpt><trkpt lat="44.77405762424858" lon="1.0046048004653378"><ele>176.66666666666669</ele><time>2026-04-19T12:33:17.002Z</time></trkpt><trkpt lat="44.77402350081473" lon="1.0045038766146652"><ele>176.0</ele><time>2026-04-19T12:33:18.002Z</time></trkpt><trkpt lat="44.773991462086265" lon="1.0044095803519135"><ele>175.33333333333334</ele><time>2026-04-19T12:33:19.003Z</time></trkpt><trkpt lat="44.773967265322895" lon="1.0043034400654087"><ele>174.66666666666666</ele><time>2026-04-19T12:33:20.003Z</time></trkpt><trkpt lat="44.77393588704123" lon="1.0042100625821861"><ele>174.0</ele><time>2026-04-19T12:33:21.003Z</time></trkpt><trkpt lat="44.77391649267791" lon="1.0041113889112367"><ele>173.83333333333334</ele><time>2026-04-19T12:33:22.003Z</time></trkpt><trkpt lat="44.773901612063526" lon="1.00400392111957"><ele>173.66666666666666</ele><time>2026-04-19T12:33:23.003Z</time></trkpt><trkpt lat="44.77389743698362" lon="1.0038914092153712"><ele>173.5</ele><time>2026-04-19T12:33:24.003Z</time></trkpt><trkpt lat="44.7739138779405" lon="1.0037778175913001"><ele>173.33333333333331</ele><time>2026-04-19T12:33:25.003Z</time></trkpt><trkpt lat="44.77393692773345" lon="1.0036720361683353"><ele>173.16666666666666</ele><time>2026-04-19T12:33:26.003Z</time></trkpt><trkpt lat="44.77395404831812" lon="1.0035698335203032"><ele>173.0</ele><time>2026-04-19T12:33:27.003Z</time></trkpt><trkpt lat="44.773986640983054" lon="1.0034645463302427"><ele>173.0</ele><time>2026-04-19T12:33:28.003Z</time></trkpt><trkpt lat="44.77403550733431" lon="1.0033594473879532"><ele>173.0</ele><time>2026-04-19T12:33:29.003Z</time></trkpt><trkpt lat="44.77408531297237" lon="1.0032541122231613"><ele>173.0</ele><time>2026-04-19T12:33:30.003Z</time></trkpt><trkpt lat="44.77413214748695" lon="1.003145399697931"><ele>173.0</ele><time>2026-04-19T12:33:31.003Z</time></trkpt><trkpt lat="44.77418501581347" lon="1.0030326466597594"><ele>173.0</ele><time>2026-04-19T12:33:32.003Z</time></trkpt><trkpt lat="44.774237909569685" lon="1.0029268622350336"><ele>173.4</ele><time>2026-04-19T12:33:33.003Z</time></trkpt><trkpt lat="44.774285674402805" lon="1.0028130038766538"><ele>173.8</ele><time>2026-04-19T12:33:34.003Z</time></trkpt><trkpt lat="44.774329089461204" lon="1.0026931053481665"><ele>174.2</ele><time>2026-04-19T12:33:35.003Z</time></trkpt><trkpt lat="44.774382334534614" lon="1.0025735732101093"><ele>174.6</ele><time>2026-04-19T12:33:36.003Z</time></trkpt><trkpt lat="44.77445700015074" lon="1.0024787860133"><ele>175.0</ele><time>2026-04-19T12:33:37.003Z</time></trkpt><trkpt lat="44.77450003813464" lon="1.0023668625562876"><ele>175.0</ele><time>2026-04-19T12:33:38.003Z</time></trkpt><trkpt lat="44.774555885894046" lon="1.002264376500856"><ele>175.0</ele><time>2026-04-19T12:33:39.003Z</time></trkpt><trkpt lat="44.77459929414884" lon="1.0021551262656665"><ele>175.0</ele><time>2026-04-19T12:33:40.003Z</time></trkpt><trkpt lat="44.77464533524329" lon="1.0020361700200873"><ele>175.0</ele><time>2026-04-19T12:33:41.003Z</time></trkpt><trkpt lat="44.774671858236445" lon="1.0019378120120344"><ele>175.0</ele><time>2026-04-19T12:33:42.003Z</time></trkpt><trkpt lat="44.774715616104146" lon="1.0018268037903932"><ele>175.0</ele><time>2026-04-19T12:33:43.003Z</time></trkpt><trkpt lat="44.77475274987077" lon="1.0017256234279286"><ele>175.8</ele><time>2026-04-19T12:33:44.003Z</time></trkpt><trkpt lat="44.774779742191235" lon="1.0016304158054539"><ele>176.6</ele><time>2026-04-19T12:33:45Z</time></trkpt><trkpt lat="44.774807022177235" lon="1.0015236590439018"><ele>177.39999999999998</ele><time>2026-04-19T12:33:46Z</time></trkpt><trkpt lat="44.774837768943975" lon="1.0014233024037518"><ele>178.2</ele><time>2026-04-19T12:33:47Z</time></trkpt><trkpt lat="44.774859025793425" lon="1.0013087858417138"><ele>179.0</ele><time>2026-04-19T12:33:48Z</time></trkpt><trkpt lat="44.77485957677182" lon="1.0010887008129095"><ele>179.0</ele><time>2026-04-19T12:33:51Z</time></trkpt><trkpt lat="44.77485665107435" lon="1.0009999737960558"><ele>179.0</ele><time>2026-04-19T12:33:51.999Z</time></trkpt><trkpt lat="44.77485183472637" lon="1.0009058532731185"><ele>179.0</ele><time>2026-04-19T12:33:52.999Z</time></trkpt><trkpt lat="44.77489672675024" lon="1.0007338882647239"><ele>179.0</ele><time>2026-04-19T12:33:55Z</time></trkpt><trkpt lat="44.774920198621956" lon="1.0006342644952553"><ele>179.0</ele><time>2026-04-19T12:33:57Z</time></trkpt><trkpt lat="44.7750104727858" lon="1.0005727538162734"><ele>179.0</ele><time>2026-04-19T12:33:59Z</time></trkpt><trkpt lat="44.77508896316707" lon="1.0005470497568303"><ele>180.0</ele><time>2026-04-19T12:34:00Z</time></trkpt><trkpt lat="44.77515234468543" lon="1.0005114320477841"><ele>181.0</ele><time>2026-04-19T12:34:01Z</time></trkpt><trkpt lat="44.775224310541596" lon="1.0004882703029185"><ele>182.0</ele><time>2026-04-19T12:34:02Z</time></trkpt><trkpt lat="44.775292276003036" lon="1.0004968456417533"><ele>183.0</ele><time>2026-04-19T12:34:03Z</time></trkpt><trkpt lat="44.775402013253476" lon="1.000589182172729"><ele>184.0</ele><time>2026-04-19T12:34:05Z</time></trkpt><trkpt lat="44.77548978544452" lon="1.0007685092188021"><ele>183.39999999999998</ele><time>2026-04-19T12:34:07Z</time></trkpt><trkpt lat="44.77553734367314" lon="1.0008931823743237"><ele>182.8</ele><time>2026-04-19T12:34:08Z</time></trkpt><trkpt lat="44.77558313378704" lon="1.001013145961725"><ele>182.2</ele><time>2026-04-19T12:34:09.001Z</time></trkpt><trkpt lat="44.7756270382797" lon="1.001127272912132"><ele>181.60000000000002</ele><time>2026-04-19T12:34:10.001Z</time></trkpt><trkpt lat="44.77567893011116" lon="1.0012377578880667"><ele>181.0</ele><time>2026-04-19T12:34:11.001Z</time></trkpt><trkpt lat="44.77572470470898" lon="1.0013461984557073"><ele>181.0</ele><time>2026-04-19T12:34:12.001Z</time></trkpt><trkpt lat="44.77576379898591" lon="1.0014652361428158"><ele>181.0</ele><time>2026-04-19T12:34:13.001Z</time></trkpt><trkpt lat="44.77580169274579" lon="1.001566386169099"><ele>181.0</ele><time>2026-04-19T12:34:14.001Z</time></trkpt><trkpt lat="44.77584707358323" lon="1.0016426835917096"><ele>181.0</ele><time>2026-04-19T12:34:15.001Z</time></trkpt><trkpt lat="44.775885559088294" lon="1.0017254483002"><ele>181.0</ele><time>2026-04-19T12:34:16.001Z</time></trkpt><trkpt lat="44.77594389008001" lon="1.0018852022898381"><ele>181.0</ele><time>2026-04-19T12:34:18.001Z</time></trkpt><trkpt lat="44.77597705162196" lon="1.0019694273489288"><ele>181.66666666666669</ele><time>2026-04-19T12:34:19.001Z</time></trkpt><trkpt lat="44.77600693353387" lon="1.002068310117025"><ele>182.33333333333334</ele><time>2026-04-19T12:34:20.001Z</time></trkpt><trkpt lat="44.77605463732486" lon="1.0021961339983116"><ele>183.0</ele><time>2026-04-19T12:34:22.001Z</time></trkpt><trkpt lat="44.77608991777388" lon="1.0022717903327802"><ele>183.66666666666666</ele><time>2026-04-19T12:34:25.001Z</time></trkpt><trkpt lat="44.77610269043169" lon="1.0023903473240166"><ele>184.33333333333331</ele><time>2026-04-19T12:34:28.001Z</time></trkpt><trkpt lat="44.77607614748814" lon="1.002491367416604"><ele>185.0</ele><time>2026-04-19T12:34:30.001Z</time></trkpt><trkpt lat="44.77602085062674" lon="1.0026417907498006"><ele>185.6</ele><time>2026-04-19T12:34:32.001Z</time></trkpt><trkpt lat="44.77597861085733" lon="1.002752551974248"><ele>186.2</ele><time>2026-04-19T12:34:34.001Z</time></trkpt><trkpt lat="44.77603873433491" lon="1.0026546340562972"><ele>186.8</ele><time>2026-04-19T12:34:49.002Z</time></trkpt><trkpt lat="44.77607624957695" lon="1.002537650411057"><ele>187.4</ele><time>2026-04-19T12:34:52.002Z</time></trkpt><trkpt lat="44.77611989522573" lon="1.0024058941149523"><ele>188.0</ele><time>2026-04-19T12:34:54.002Z</time></trkpt><trkpt lat="44.776193549801455" lon="1.0022970248910714"><ele>188.8</ele><time>2026-04-19T12:34:56.002Z</time></trkpt><trkpt lat="44.77626592812582" lon="1.002251358592698"><ele>189.60000000000002</ele><time>2026-04-19T12:34:58.002Z</time></trkpt><trkpt lat="44.77633534176006" lon="1.0021779853611021"><ele>190.39999999999998</ele><time>2026-04-19T12:35:00.002Z</time></trkpt><trkpt lat="44.77640517275815" lon="1.002032117148714"><ele>191.2</ele><time>2026-04-19T12:35:02.002Z</time></trkpt><trkpt lat="44.77644121875751" lon="1.0018691130085422"><ele>192.0</ele><time>2026-04-19T12:35:04.002Z</time></trkpt><trkpt lat="44.77648874424637" lon="1.0017927146050818"><ele>191.99999999999997</ele><time>2026-04-19T12:35:05.002Z</time></trkpt><trkpt lat="44.77651843328508" lon="1.0017065546633752"><ele>192.0</ele><time>2026-04-19T12:35:06.002Z</time></trkpt><trkpt lat="44.77654474577977" lon="1.0016142139401059"><ele>192.0</ele><time>2026-04-19T12:35:07.002Z</time></trkpt><trkpt lat="44.77657545201482" lon="1.0015165513676139"><ele>192.0</ele><time>2026-04-19T12:35:08.002Z</time></trkpt><trkpt lat="44.776600821642184" lon="1.001420626044636"><ele>192.0</ele><time>2026-04-19T12:35:09.002Z</time></trkpt><trkpt lat="44.77663630604369" lon="1.001330093081584"><ele>191.99999999999997</ele><time>2026-04-19T12:35:10.002Z</time></trkpt><trkpt lat="44.77666261679574" lon="1.001229145882305"><ele>192.0</ele><time>2026-04-19T12:35:11.002Z</time></trkpt><trkpt lat="44.77669314491984" lon="1.0011279963639423"><ele>192.16666666666666</ele><time>2026-04-19T12:35:12.002Z</time></trkpt><trkpt lat="44.776727540711356" lon="1.0010194839295714"><ele>192.33333333333331</ele><time>2026-04-19T12:35:13.002Z</time></trkpt><trkpt lat="44.77676522313378" lon="1.000912094461112"><ele>192.5</ele><time>2026-04-19T12:35:14.002Z</time></trkpt><trkpt lat="44.776802912703374" lon="1.0008022830396297"><ele>192.66666666666666</ele><time>2026-04-19T12:35:15.002Z</time></trkpt><trkpt lat="44.776840538946395" lon="1.0006845070923935"><ele>192.83333333333331</ele><time>2026-04-19T12:35:16.002Z</time></trkpt><trkpt lat="44.77687483668791" lon="1.0005712572265113"><ele>193.0</ele><time>2026-04-19T12:35:17.002Z</time></trkpt><trkpt lat="44.77691460930707" lon="1.0004602374463152"><ele>192.99999999999997</ele><time>2026-04-19T12:35:18.002Z</time></trkpt><trkpt lat="44.77694405229571" lon="1.000344407199978"><ele>193.0</ele><time>2026-04-19T12:35:19.002Z</time></trkpt><trkpt lat="44.77697410972607" lon="1.0002268759720627"><ele>193.0</ele><time>2026-04-19T12:35:20.002Z</time></trkpt><trkpt lat="44.77699700878176" lon="1.0001128307670357"><ele>193.0</ele><time>2026-04-19T12:35:21.002Z</time></trkpt><trkpt lat="44.77702965584197" lon="1.0000005466625506"><ele>192.99999999999997</ele><time>2026-04-19T12:35:22.002Z</time></trkpt><trkpt lat="44.77706124457328" lon="0.9998916888921128"><ele>193.0</ele><time>2026-04-19T12:35:23.002Z</time></trkpt><trkpt lat="44.77708170888674" lon="0.9997831249837812"><ele>192.99999999999997</ele><time>2026-04-19T12:35:24.002Z</time></trkpt><trkpt lat="44.77709556724621" lon="0.9996859843580739"><ele>193.0</ele><time>2026-04-19T12:35:25.002Z</time></trkpt><trkpt lat="44.77710792479601" lon="0.9995942024687201"><ele>193.0</ele><time>2026-04-19T12:35:26.002Z</time></trkpt><trkpt lat="44.7771139371313" lon="0.9994980828172336"><ele>193.0</ele><time>2026-04-19T12:35:27.002Z</time></trkpt><trkpt lat="44.77712551480902" lon="0.9994017941485558"><ele>192.99999999999997</ele><time>2026-04-19T12:35:28.002Z</time></trkpt><trkpt lat="44.77713984701537" lon="0.9992257870947626"><ele>193.0</ele><time>2026-04-19T12:35:30.003Z</time></trkpt><trkpt lat="44.777153006716645" lon="0.9990992680294026"><ele>193.2</ele><time>2026-04-19T12:35:31.003Z</time></trkpt><trkpt lat="44.777157688702324" lon="0.9989883679283272"><ele>193.4</ele><time>2026-04-19T12:35:32.003Z</time></trkpt><trkpt lat="44.77715226849497" lon="0.9988557155589732"><ele>193.6</ele><time>2026-04-19T12:35:33.003Z</time></trkpt><trkpt lat="44.7771354002439" lon="0.9987258089381653"><ele>193.79999999999998</ele><time>2026-04-19T12:35:34.003Z</time></trkpt><trkpt lat="44.77712904341192" lon="0.9985879245554746"><ele>194.0</ele><time>2026-04-19T12:35:35.003Z</time></trkpt><trkpt lat="44.77711379454696" lon="0.9984704937544291"><ele>194.0</ele><time>2026-04-19T12:35:36.003Z</time></trkpt><trkpt lat="44.77711591685043" lon="0.9983434446321183"><ele>194.0</ele><time>2026-04-19T12:35:37.003Z</time></trkpt><trkpt lat="44.77710494081146" lon="0.9982294998661669"><ele>194.0</ele><time>2026-04-19T12:35:38.003Z</time></trkpt><trkpt lat="44.77709893057503" lon="0.9981020666698311"><ele>194.0</ele><time>2026-04-19T12:35:39.003Z</time></trkpt><trkpt lat="44.777106043578335" lon="0.9979885929144026"><ele>194.0</ele><time>2026-04-19T12:35:40.003Z</time></trkpt><trkpt lat="44.777117507442036" lon="0.9977674219664716"><ele>194.14285714285714</ele><time>2026-04-19T12:35:42.003Z</time></trkpt><trkpt lat="44.77713166485101" lon="0.997650213722332"><ele>194.2857142857143</ele><time>2026-04-19T12:35:43.003Z</time></trkpt><trkpt lat="44.777138741781606" lon="0.9975365569589925"><ele>194.42857142857144</ele><time>2026-04-19T12:35:44.003Z</time></trkpt><trkpt lat="44.77715308141143" lon="0.9974296015419426"><ele>194.57142857142856</ele><time>2026-04-19T12:35:45.003Z</time></trkpt><trkpt lat="44.7771729248408" lon="0.9973308519157364"><ele>194.71428571428572</ele><time>2026-04-19T12:35:46.003Z</time></trkpt><trkpt lat="44.7771863308484" lon="0.9972402476459237"><ele>194.85714285714286</ele><time>2026-04-19T12:35:47.003Z</time></trkpt><trkpt lat="44.77720574416295" lon="0.9971503398399719"><ele>195.0</ele><time>2026-04-19T12:35:48.003Z</time></trkpt><trkpt lat="44.77724065638151" lon="0.9970047550673299"><ele>194.66666666666666</ele><time>2026-04-19T12:35:50.003Z</time></trkpt><trkpt lat="44.777260379824746" lon="0.9969043709148239"><ele>194.33333333333331</ele><time>2026-04-19T12:35:51.999Z</time></trkpt><trkpt lat="44.777240787911275" lon="0.9967938152673843"><ele>194.0</ele><time>2026-04-19T12:35:54Z</time></trkpt><trkpt lat="44.77718048107671" lon="0.9967056854594265"><ele>193.66666666666666</ele><time>2026-04-19T12:35:54.999Z</time></trkpt><trkpt lat="44.777128905042204" lon="0.9966279895386696"><ele>193.33333333333331</ele><time>2026-04-19T12:35:55.999Z</time></trkpt><trkpt lat="44.777090454854516" lon="0.9965421546579069"><ele>193.0</ele><time>2026-04-19T12:35:56.999Z</time></trkpt><trkpt lat="44.77704976349079" lon="0.9964690229409158"><ele>192.60000000000002</ele><time>2026-04-19T12:35:57.999Z</time></trkpt><trkpt lat="44.776975239608184" lon="0.9963406020115763"><ele>192.20000000000002</ele><time>2026-04-19T12:35:59.999Z</time></trkpt><trkpt lat="44.776904521331026" lon="0.9962887067194771"><ele>191.8</ele><time>2026-04-19T12:36:01.998Z</time></trkpt><trkpt lat="44.776800518483604" lon="0.9963800454109646"><ele>191.4</ele><time>2026-04-19T12:36:05.999Z</time></trkpt><trkpt lat="44.7767835682986" lon="0.99646648684112"><ele>191.0</ele><time>2026-04-19T12:36:06.999Z</time></trkpt><trkpt lat="44.776770343057755" lon="0.9965750633984553"><ele>189.60000000000002</ele><time>2026-04-19T12:36:07.999Z</time></trkpt><trkpt lat="44.7767592836761" lon="0.9966894688103519"><ele>188.2</ele><time>2026-04-19T12:36:08.999Z</time></trkpt><trkpt lat="44.77673182802332" lon="0.9968302512582533"><ele>186.8</ele><time>2026-04-19T12:36:09.999Z</time></trkpt><trkpt lat="44.77669464999698" lon="0.9969742896310391"><ele>185.39999999999998</ele><time>2026-04-19T12:36:10.999Z</time></trkpt><trkpt lat="44.776649554910655" lon="0.9971219689380595"><ele>184.0</ele><time>2026-04-19T12:36:11.999Z</time></trkpt><trkpt lat="44.776588909401006" lon="0.9972825155842616"><ele>184.0</ele><time>2026-04-19T12:36:12.999Z</time></trkpt><trkpt lat="44.77651086905351" lon="0.9974349152921002"><ele>184.0</ele><time>2026-04-19T12:36:13.999Z</time></trkpt><trkpt lat="44.77642166154853" lon="0.9976000227670676"><ele>184.0</ele><time>2026-04-19T12:36:14.999Z</time></trkpt><trkpt lat="44.7763326740689" lon="0.9977572434088092"><ele>184.0</ele><time>2026-04-19T12:36:15.999Z</time></trkpt><trkpt lat="44.776243622498086" lon="0.9979054757390105"><ele>184.5</ele><time>2026-04-19T12:36:16.999Z</time></trkpt><trkpt lat="44.7761599227064" lon="0.9980433041009957"><ele>185.0</ele><time>2026-04-19T12:36:18Z</time></trkpt><trkpt lat="44.77607535562129" lon="0.9981789105894238"><ele>185.5</ele><time>2026-04-19T12:36:19Z</time></trkpt><trkpt lat="44.7759830989114" lon="0.9983046632957471"><ele>186.0</ele><time>2026-04-19T12:36:20Z</time></trkpt><trkpt lat="44.77588140283832" lon="0.9984250471065946"><ele>186.0</ele><time>2026-04-19T12:36:21Z</time></trkpt><trkpt lat="44.77578433819375" lon="0.9985406091975333"><ele>186.0</ele><time>2026-04-19T12:36:22Z</time></trkpt><trkpt lat="44.77568601134514" lon="0.9986454613590307"><ele>186.0</ele><time>2026-04-19T12:36:23Z</time></trkpt><trkpt lat="44.77558634226934" lon="0.998743780859757"><ele>186.0</ele><time>2026-04-19T12:36:24Z</time></trkpt><trkpt lat="44.775486274399185" lon="0.9988432262064643"><ele>186.0</ele><time>2026-04-19T12:36:25Z</time></trkpt><trkpt lat="44.77538233192458" lon="0.9989389356908577"><ele>186.0</ele><time>2026-04-19T12:36:26Z</time></trkpt><trkpt lat="44.775277202766354" lon="0.9990258192224185"><ele>186.0</ele><time>2026-04-19T12:36:27Z</time></trkpt><trkpt lat="44.77517447136177" lon="0.999109450830659"><ele>186.0</ele><time>2026-04-19T12:36:28Z</time></trkpt><trkpt lat="44.77506986516479" lon="0.9991876299075594"><ele>185.8</ele><time>2026-04-19T12:36:29Z</time></trkpt><trkpt lat="44.774966518749785" lon="0.9992663494102966"><ele>185.60000000000002</ele><time>2026-04-19T12:36:30Z</time></trkpt><trkpt lat="44.77486777515404" lon="0.9993430370159943"><ele>185.4</ele><time>2026-04-19T12:36:31Z</time></trkpt><trkpt lat="44.774778960967076" lon="0.9994022141470386"><ele>185.2</ele><time>2026-04-19T12:36:32Z</time></trkpt><trkpt lat="44.77469807237878" lon="0.9994634148609073"><ele>185.0</ele><time>2026-04-19T12:36:33Z</time></trkpt><trkpt lat="44.7746385061618" lon="0.9995422809671309"><ele>185.0</ele><time>2026-04-19T12:36:34Z</time></trkpt><trkpt lat="44.774603340017215" lon="0.9996426311812151"><ele>185.0</ele><time>2026-04-19T12:36:35Z</time></trkpt><trkpt lat="44.774580282755004" lon="0.9997605049596395"><ele>185.0</ele><time>2026-04-19T12:36:36Z</time></trkpt><trkpt lat="44.77460560547637" lon="0.9998777856014017"><ele>185.0</ele><time>2026-04-19T12:36:37Z</time></trkpt><trkpt lat="44.77461913420345" lon="0.999994846660573"><ele>185.0</ele><time>2026-04-19T12:36:38Z</time></trkpt><trkpt lat="44.77464868716387" lon="1.000123303902714"><ele>185.0</ele><time>2026-04-19T12:36:39Z</time></trkpt><trkpt lat="44.77468053429777" lon="1.000252625510141"><ele>185.0</ele><time>2026-04-19T12:36:40Z</time></trkpt><trkpt lat="44.774719671675776" lon="1.0003795562710833"><ele>185.0</ele><time>2026-04-19T12:36:41Z</time></trkpt><trkpt lat="44.77475290528892" lon="1.000535126313172"><ele>185.0</ele><time>2026-04-19T12:36:42Z</time></trkpt><trkpt lat="44.77478262891221" lon="1.0006652059629502"><ele>185.0</ele><time>2026-04-19T12:36:43Z</time></trkpt><trkpt lat="44.77480814460447" lon="1.0007950261563816"><ele>185.0</ele><time>2026-04-19T12:36:44Z</time></trkpt><trkpt lat="44.77483789247522" lon="1.0009246949994999"><ele>184.0</ele><time>2026-04-19T12:36:45Z</time></trkpt><trkpt lat="44.77484315754198" lon="1.0010629263159831"><ele>183.0</ele><time>2026-04-19T12:36:46Z</time></trkpt><trkpt lat="44.77482551965581" lon="1.001187601803353"><ele>182.0</ele><time>2026-04-19T12:36:47Z</time></trkpt><trkpt lat="44.77481472341518" lon="1.0013071636004007"><ele>181.0</ele><time>2026-04-19T12:36:48Z</time></trkpt><trkpt lat="44.77479321587816" lon="1.0014007816596264"><ele>180.0</ele><time>2026-04-19T12:36:49Z</time></trkpt><trkpt lat="44.77476955864042" lon="1.001499352498147"><ele>179.0</ele><time>2026-04-19T12:36:50Z</time></trkpt><trkpt lat="44.774752442486964" lon="1.001611982978059"><ele>178.2</ele><time>2026-04-19T12:36:51Z</time></trkpt><trkpt lat="44.77469421291557" lon="1.0017265858037325"><ele>177.39999999999998</ele><time>2026-04-19T12:36:52Z</time></trkpt><trkpt lat="44.77466795073283" lon="1.0018382658290608"><ele>176.6</ele><time>2026-04-19T12:36:53Z</time></trkpt><trkpt lat="44.77462638336082" lon="1.0019433151689268"><ele>175.8</ele><time>2026-04-19T12:36:54Z</time></trkpt><trkpt lat="44.77458544404551" lon="1.0020537574594128"><ele>175.0</ele><time>2026-04-19T12:36:55Z</time></trkpt><trkpt lat="44.77453715832029" lon="1.0021678347782295"><ele>175.0</ele><time>2026-04-19T12:36:56Z</time></trkpt><trkpt lat="44.77449168165086" lon="1.0022843181216181"><ele>175.0</ele><time>2026-04-19T12:36:57Z</time></trkpt><trkpt lat="44.77444612611395" lon="1.002398687775604"><ele>175.0</ele><time>2026-04-19T12:36:58.001Z</time></trkpt><trkpt lat="44.77439848081538" lon="1.0025073180845296"><ele>175.0</ele><time>2026-04-19T12:36:59.001Z</time></trkpt><trkpt lat="44.774345811221316" lon="1.0026239967847999"><ele>175.0</ele><time>2026-04-19T12:37:00.001Z</time></trkpt><trkpt lat="44.77428534566174" lon="1.00275048186085"><ele>173.8</ele><time>2026-04-19T12:37:01.001Z</time></trkpt><trkpt lat="44.77422660714426" lon="1.002872317607207"><ele>172.6</ele><time>2026-04-19T12:37:02.001Z</time></trkpt><trkpt lat="44.77416528707369" lon="1.002989936141561"><ele>171.39999999999998</ele><time>2026-04-19T12:37:03.001Z</time></trkpt><trkpt lat="44.77411794803071" lon="1.003103153348034"><ele>170.2</ele><time>2026-04-19T12:37:04.001Z</time></trkpt><trkpt lat="44.774070982098166" lon="1.0032120327755185"><ele>169.0</ele><time>2026-04-19T12:37:05.001Z</time></trkpt><trkpt lat="44.77403188089056" lon="1.003326491704088"><ele>169.79999999999998</ele><time>2026-04-19T12:37:06.001Z</time></trkpt><trkpt lat="44.77398678055175" lon="1.003437964981324"><ele>170.6</ele><time>2026-04-19T12:37:07.001Z</time></trkpt><trkpt lat="44.7739419360514" lon="1.0035481343117063"><ele>171.4</ele><time>2026-04-19T12:37:08.001Z</time></trkpt><trkpt lat="44.77390599984261" lon="1.0036642740465376"><ele>172.2</ele><time>2026-04-19T12:37:09.001Z</time></trkpt><trkpt lat="44.773882796871426" lon="1.0037872594218107"><ele>173.0</ele><time>2026-04-19T12:37:10.001Z</time></trkpt><trkpt lat="44.773885734021626" lon="1.0039212513024591"><ele>173.0</ele><time>2026-04-19T12:37:11.001Z</time></trkpt><trkpt lat="44.77389816854919" lon="1.0040495214939456"><ele>173.0</ele><time>2026-04-19T12:37:12.001Z</time></trkpt><trkpt lat="44.77391425011559" lon="1.0041735694129197"><ele>173.0</ele><time>2026-04-19T12:37:13.001Z</time></trkpt><trkpt lat="44.77394687193408" lon="1.0042932874553998"><ele>173.0</ele><time>2026-04-19T12:37:14.001Z</time></trkpt><trkpt lat="44.77397872996577" lon="1.0044143244593597"><ele>173.0</ele><time>2026-04-19T12:37:15.001Z</time></trkpt><trkpt lat="44.77401292931403" lon="1.0045422382269766"><ele>173.16666666666666</ele><time>2026-04-19T12:37:16.001Z</time></trkpt><trkpt lat="44.774048623631685" lon="1.0046557430865968"><ele>173.33333333333331</ele><time>2026-04-19T12:37:17.001Z</time></trkpt><trkpt lat="44.77410693917252" lon="1.004756351955219"><ele>173.5</ele><time>2026-04-19T12:37:18.001Z</time></trkpt><trkpt lat="44.774162078582464" lon="1.004857234120191"><ele>173.66666666666666</ele><time>2026-04-19T12:37:19.001Z</time></trkpt><trkpt lat="44.77421110409329" lon="1.0049502754709765"><ele>173.83333333333334</ele><time>2026-04-19T12:37:20.001Z</time></trkpt><trkpt lat="44.774261633504764" lon="1.0050379691819262"><ele>174.0</ele><time>2026-04-19T12:37:21.001Z</time></trkpt><trkpt lat="44.77430723990412" lon="1.0051171310348905"><ele>173.5</ele><time>2026-04-19T12:37:22.001Z</time></trkpt><trkpt lat="44.77433480670159" lon="1.0051975748875515"><ele>173.0</ele><time>2026-04-19T12:37:25.001Z</time></trkpt><trkpt lat="44.77431298152208" lon="1.005305504319846"><ele>172.5</ele><time>2026-04-19T12:37:28.001Z</time></trkpt><trkpt lat="44.77425827985076" lon="1.0054357017843265"><ele>172.0</ele><time>2026-04-19T12:37:30.001Z</time></trkpt><trkpt lat="44.77421487139203" lon="1.0055154714523764"><ele>171.5</ele><time>2026-04-19T12:37:31.001Z</time></trkpt><trkpt lat="44.77416745808818" lon="1.0055913868336543"><ele>171.0</ele><time>2026-04-19T12:37:32.001Z</time></trkpt><trkpt lat="44.77412203714833" lon="1.0056573835798883"><ele>171.0</ele><time>2026-04-19T12:37:33.001Z</time></trkpt><trkpt lat="44.774039222988314" lon="1.0057753961047122"><ele>171.0</ele><time>2026-04-19T12:37:35.001Z</time></trkpt><trkpt lat="44.773966782254305" lon="1.0058939653336187"><ele>171.0</ele><time>2026-04-19T12:37:37.001Z</time></trkpt><trkpt lat="44.773902405716846" lon="1.006000675177311"><ele>171.0</ele><time>2026-04-19T12:37:39.002Z</time></trkpt><trkpt lat="44.77384241378933" lon="1.006086552900028"><ele>171.0</ele><time>2026-04-19T12:37:41.002Z</time></trkpt><trkpt lat="44.773794350444376" lon="1.0061870082736728"><ele>169.16666666666666</ele><time>2026-04-19T12:37:43.002Z</time></trkpt><trkpt lat="44.773721292440854" lon="1.0062597502675017"><ele>167.33333333333334</ele><time>2026-04-19T12:37:45.002Z</time></trkpt><trkpt lat="44.77368789073271" lon="1.0063540295005549"><ele>165.5</ele><time>2026-04-19T12:37:47.002Z</time></trkpt><trkpt lat="44.77364323972295" lon="1.006477116181464"><ele>163.66666666666669</ele><time>2026-04-19T12:37:50.002Z</time></trkpt><trkpt lat="44.77362526336096" lon="1.0065695422489265"><ele>161.83333333333334</ele><time>2026-04-19T12:37:54.002Z</time></trkpt><trkpt lat="44.77361181036359" lon="1.0066601532684736"><ele>160.0</ele><time>2026-04-19T12:38:12.999Z</time></trkpt><trkpt lat="44.773540943836146" lon="1.006776876188938"><ele>158.66666666666669</ele><time>2026-04-19T12:38:14.999Z</time></trkpt><trkpt lat="44.77351051712104" lon="1.0068809400656769"><ele>157.33333333333334</ele><time>2026-04-19T12:38:15.999Z</time></trkpt><trkpt lat="44.77342532741415" lon="1.0070037688345983"><ele>156.0</ele><time>2026-04-19T12:38:17.999Z</time></trkpt><trkpt lat="44.77337895834844" lon="1.0070806878450145"><ele>154.66666666666666</ele><time>2026-04-19T12:38:18.999Z</time></trkpt><trkpt lat="44.77333145834564" lon="1.007150592782744"><ele>153.33333333333331</ele><time>2026-04-19T12:38:19.999Z</time></trkpt><trkpt lat="44.7732829172479" lon="1.007217168847115"><ele>152.0</ele><time>2026-04-19T12:38:20.999Z</time></trkpt><trkpt lat="44.77323177315638" lon="1.0072847639419915"><ele>152.0</ele><time>2026-04-19T12:38:21.999Z</time></trkpt><trkpt lat="44.77314599705661" lon="1.0074123413099478"><ele>152.0</ele><time>2026-04-19T12:38:23.999Z</time></trkpt><trkpt lat="44.773053499307714" lon="1.0074897500431776"><ele>152.0</ele><time>2026-04-19T12:38:25.999Z</time></trkpt><trkpt lat="44.77298591058889" lon="1.0076103448897933"><ele>152.0</ele><time>2026-04-19T12:38:27.999Z</time></trkpt><trkpt lat="44.77291718388196" lon="1.0077417222310503"><ele>151.5</ele><time>2026-04-19T12:38:29.999Z</time></trkpt><trkpt lat="44.77285393559099" lon="1.0078792715814942"><ele>151.0</ele><time>2026-04-19T12:38:31.999Z</time></trkpt><trkpt lat="44.77280363138109" lon="1.0080385359928423"><ele>150.5</ele><time>2026-04-19T12:38:33.999Z</time></trkpt><trkpt lat="44.772758166729886" lon="1.008196479791109"><ele>150.0</ele><time>2026-04-19T12:38:35.999Z</time></trkpt><trkpt lat="44.77272198253801" lon="1.0083382093010487"><ele>147.8</ele><time>2026-04-19T12:38:37.999Z</time></trkpt><trkpt lat="44.77268705379887" lon="1.008467866077181"><ele>145.6</ele><time>2026-04-19T12:38:39.999Z</time></trkpt><trkpt lat="44.772700006067716" lon="1.0085863392523717"><ele>143.4</ele><time>2026-04-19T12:38:41.999Z</time></trkpt><trkpt lat="44.7727431512085" lon="1.008675836553631"><ele>141.2</ele><time>2026-04-19T12:38:44Z</time></trkpt><trkpt lat="44.772830828677215" lon="1.0087473407451308"><ele>139.0</ele><time>2026-04-19T12:38:46Z</time></trkpt><trkpt lat="44.772921248551754" lon="1.0087907477366236"><ele>139.0</ele><time>2026-04-19T12:38:49Z</time></trkpt><trkpt lat="44.772781773183404" lon="1.0089429572177364"><ele>139.0</ele><time>2026-04-19T12:38:56Z</time></trkpt><trkpt lat="44.77270246589321" lon="1.0089450081016482"><ele>139.0</ele><time>2026-04-19T12:38:57Z</time></trkpt><trkpt lat="44.77263706446484" lon="1.0089140942337467"><ele>139.0</ele><time>2026-04-19T12:38:58Z</time></trkpt><trkpt lat="44.772581230718906" lon="1.0088692934441856"><ele>139.0</ele><time>2026-04-19T12:38:59Z</time></trkpt><trkpt lat="44.77253322750381" lon="1.0088025485223087"><ele>139.0</ele><time>2026-04-19T12:39:00Z</time></trkpt><trkpt lat="44.772451008613785" lon="1.0086856010531884"><ele>139.0</ele><time>2026-04-19T12:39:02Z</time></trkpt><trkpt lat="44.772386908183506" lon="1.008551182770242"><ele>139.0</ele><time>2026-04-19T12:39:04Z</time></trkpt><trkpt lat="44.77235290261315" lon="1.0084702232811205"><ele>139.0</ele><time>2026-04-19T12:39:05Z</time></trkpt><trkpt lat="44.772312948040216" lon="1.0083735794937014"><ele>139.0</ele><time>2026-04-19T12:39:06Z</time></trkpt><trkpt lat="44.77228076746341" lon="1.0082556176318473"><ele>139.0</ele><time>2026-04-19T12:39:07Z</time></trkpt><trkpt lat="44.772244457958266" lon="1.0081287472015785"><ele>139.0</ele><time>2026-04-19T12:39:08Z</time></trkpt><trkpt lat="44.77223102954313" lon="1.007976154191627"><ele>139.0</ele><time>2026-04-19T12:39:09Z</time></trkpt><trkpt lat="44.772192287118216" lon="1.0078148618855811"><ele>139.0</ele><time>2026-04-19T12:39:10Z</time></trkpt><trkpt lat="44.772169011463916" lon="1.007639831781174"><ele>138.0</ele><time>2026-04-19T12:39:11Z</time></trkpt><trkpt lat="44.772142462498856" lon="1.0074625891870173"><ele>137.0</ele><time>2026-04-19T12:39:12Z</time></trkpt><trkpt lat="44.772111121057236" lon="1.0072879489824946"><ele>136.0</ele><time>2026-04-19T12:39:13Z</time></trkpt><trkpt lat="44.77210570872224" lon="1.007114716988135"><ele>135.0</ele><time>2026-04-19T12:39:14Z</time></trkpt><trkpt lat="44.772090261697336" lon="1.0069476458842925"><ele>135.0</ele><time>2026-04-19T12:39:15Z</time></trkpt><trkpt lat="44.772095415968245" lon="1.0067900865989985"><ele>135.0</ele><time>2026-04-19T12:39:16Z</time></trkpt><trkpt lat="44.77210946846875" lon="1.0066200774467542"><ele>135.0</ele><time>2026-04-19T12:39:17.001Z</time></trkpt><trkpt lat="44.77213930188787" lon="1.0064645959947893"><ele>135.0</ele><time>2026-04-19T12:39:18.001Z</time></trkpt><trkpt lat="44.772178945487944" lon="1.0063128907953585"><ele>133.75</ele><time>2026-04-19T12:39:19.001Z</time></trkpt><trkpt lat="44.772204655781124" lon="1.0061511387611999"><ele>132.5</ele><time>2026-04-19T12:39:20.001Z</time></trkpt><trkpt lat="44.77223397164741" lon="1.00599890379215"><ele>131.25</ele><time>2026-04-19T12:39:21.001Z</time></trkpt><trkpt lat="44.772271330705955" lon="1.0058423657474782"><ele>130.0</ele><time>2026-04-19T12:39:22.001Z</time></trkpt><trkpt lat="44.772291797558914" lon="1.0056836292969042"><ele>129.5</ele><time>2026-04-19T12:39:23.001Z</time></trkpt><trkpt lat="44.77231427380968" lon="1.0055286774560153"><ele>129.0</ele><time>2026-04-19T12:39:24.002Z</time></trkpt><trkpt lat="44.77233352118823" lon="1.0053722770415288"><ele>128.5</ele><time>2026-04-19T12:39:25.002Z</time></trkpt><trkpt lat="44.772343707609565" lon="1.005215448193928"><ele>128.0</ele><time>2026-04-19T12:39:26.002Z</time></trkpt><trkpt lat="44.77234504422168" lon="1.0050547218104904"><ele>128.66666666666666</ele><time>2026-04-19T12:39:27.002Z</time></trkpt><trkpt lat="44.7723205472903" lon="1.0048907067068158"><ele>129.33333333333334</ele><time>2026-04-19T12:39:28.002Z</time></trkpt><trkpt lat="44.772264431856286" lon="1.0047362993119064"><ele>130.0</ele><time>2026-04-19T12:39:29.002Z</time></trkpt><trkpt lat="44.772145658313015" lon="1.004475881787164"><ele>130.0</ele><time>2026-04-19T12:39:31.002Z</time></trkpt><trkpt lat="44.77207099721549" lon="1.0043725999691195"><ele>130.0</ele><time>2026-04-19T12:39:32.002Z</time></trkpt><trkpt lat="44.77198709213421" lon="1.0042867070205233"><ele>130.0</ele><time>2026-04-19T12:39:33.002Z</time></trkpt><trkpt lat="44.771892215040594" lon="1.004209197425768"><ele>130.0</ele><time>2026-04-19T12:39:34.002Z</time></trkpt><trkpt lat="44.77179498679978" lon="1.0041519593395212"><ele>130.0</ele><time>2026-04-19T12:39:35.002Z</time></trkpt><trkpt lat="44.77170759079823" lon="1.0041035316172666"><ele>127.6</ele><time>2026-04-19T12:39:36.002Z</time></trkpt><trkpt lat="44.77161769168331" lon="1.004085000146068"><ele>125.2</ele><time>2026-04-19T12:39:37.002Z</time></trkpt><trkpt lat="44.7715208213198" lon="1.0040495544859898"><ele>122.80000000000001</ele><time>2026-04-19T12:39:38.002Z</time></trkpt><trkpt lat="44.7714267323982" lon="1.0040462335329277"><ele>120.4</ele><time>2026-04-19T12:39:39.002Z</time></trkpt><trkpt lat="44.77133917210652" lon="1.0040800344405132"><ele>118.0</ele><time>2026-04-19T12:39:40.002Z</time></trkpt><trkpt lat="44.77124569272842" lon="1.004089476910844"><ele>118.00000000000001</ele><time>2026-04-19T12:39:41.002Z</time></trkpt><trkpt lat="44.771167977358274" lon="1.004081648453604"><ele>118.0</ele><time>2026-04-19T12:39:42.002Z</time></trkpt><trkpt lat="44.771105915030006" lon="1.0040991809960391"><ele>118.0</ele><time>2026-04-19T12:39:43.002Z</time></trkpt><trkpt lat="44.77099728622979" lon="1.0041079118877656"><ele>118.0</ele><time>2026-04-19T12:39:45.002Z</time></trkpt><trkpt lat="44.77091244263562" lon="1.0041001184568854"><ele>118.00000000000001</ele><time>2026-04-19T12:39:47.002Z</time></trkpt><trkpt lat="44.77083787767866" lon="1.0041201237715682"><ele>118.0</ele><time>2026-04-19T12:39:49.002Z</time></trkpt><trkpt lat="44.77077272058596" lon="1.0041677872155095"><ele>116.4</ele><time>2026-04-19T12:39:52.002Z</time></trkpt><trkpt lat="44.77071381845076" lon="1.004281866851734"><ele>114.80000000000001</ele><time>2026-04-19T12:39:54.002Z</time></trkpt><trkpt lat="44.770664528028355" lon="1.0043735176882058"><ele>113.2</ele><time>2026-04-19T12:39:55.002Z</time></trkpt><trkpt lat="44.770596291223484" lon="1.0044611194068314"><ele>111.6</ele><time>2026-04-19T12:39:56.002Z</time></trkpt><trkpt lat="44.77052363981832" lon="1.004528352135456"><ele>110.0</ele><time>2026-04-19T12:39:57.002Z</time></trkpt><trkpt lat="44.77044488600806" lon="1.004614957928326"><ele>110.0</ele><time>2026-04-19T12:39:58.002Z</time></trkpt><trkpt lat="44.770370053220844" lon="1.0047071334239446"><ele>110.0</ele><time>2026-04-19T12:39:59.002Z</time></trkpt><trkpt lat="44.77030655724093" lon="1.0048381089679128"><ele>110.0</ele><time>2026-04-19T12:40:00.002Z</time></trkpt><trkpt lat="44.770243051124574" lon="1.004971684174283"><ele>110.0</ele><time>2026-04-19T12:40:01.002Z</time></trkpt><trkpt lat="44.770177722550166" lon="1.0051236299022686"><ele>109.0</ele><time>2026-04-19T12:40:02.002Z</time></trkpt><trkpt lat="44.77013530598332" lon="1.00530514439455"><ele>108.0</ele><time>2026-04-19T12:40:02.998Z</time></trkpt><trkpt lat="44.77010150551822" lon="1.0055029383514575"><ele>107.0</ele><time>2026-04-19T12:40:03.998Z</time></trkpt><trkpt lat="44.77009311275682" lon="1.0056885298477194"><ele>106.0</ele><time>2026-04-19T12:40:04.998Z</time></trkpt><trkpt lat="44.77010007533804" lon="1.0058863999769765"><ele>105.0</ele><time>2026-04-19T12:40:05.998Z</time></trkpt><trkpt lat="44.77016621061092" lon="1.0063486049858983"><ele>104.0</ele><time>2026-04-19T12:40:07.998Z</time></trkpt><trkpt lat="44.770203182891706" lon="1.0066037571469517"><ele>102.0</ele><time>2026-04-19T12:40:08.999Z</time></trkpt><trkpt lat="44.77023233606002" lon="1.0068425908236318"><ele>100.0</ele><time>2026-04-19T12:40:09.998Z</time></trkpt><trkpt lat="44.77025970927172" lon="1.0070743982636579"><ele>98.0</ele><time>2026-04-19T12:40:10.998Z</time></trkpt><trkpt lat="44.770291292598735" lon="1.0072943464257806"><ele>98.0</ele><time>2026-04-19T12:40:11.999Z</time></trkpt><trkpt lat="44.77032396974928" lon="1.0075036271392093"><ele>98.0</ele><time>2026-04-19T12:40:12.998Z</time></trkpt><trkpt lat="44.77034784834579" lon="1.0077067278015928"><ele>98.0</ele><time>2026-04-19T12:40:13.998Z</time></trkpt><trkpt lat="44.77037276590713" lon="1.0078999493454412"><ele>98.0</ele><time>2026-04-19T12:40:14.999Z</time></trkpt><trkpt lat="44.77039784312353" lon="1.0080907469680076"><ele>98.0</ele><time>2026-04-19T12:40:15.998Z</time></trkpt><trkpt lat="44.770421712865144" lon="1.0082806928045893"><ele>98.0</ele><time>2026-04-19T12:40:16.998Z</time></trkpt><trkpt lat="44.77044167001211" lon="1.0084616617287476"><ele>98.0</ele><time>2026-04-19T12:40:17.998Z</time></trkpt><trkpt lat="44.77046387994368" lon="1.0086464971149922"><ele>98.0</ele><time>2026-04-19T12:40:18.998Z</time></trkpt><trkpt lat="44.77048864319867" lon="1.0088232681867602"><ele>97.75</ele><time>2026-04-19T12:40:19.998Z</time></trkpt><trkpt lat="44.770513078622336" lon="1.0089939227898337"><ele>97.5</ele><time>2026-04-19T12:40:20.998Z</time></trkpt><trkpt lat="44.77053770476477" lon="1.0091591668417355"><ele>97.25</ele><time>2026-04-19T12:40:21.998Z</time></trkpt><trkpt lat="44.77056291868695" lon="1.0093152903932896"><ele>97.0</ele><time>2026-04-19T12:40:22.998Z</time></trkpt><trkpt lat="44.77058575358881" lon="1.0094757959484235"><ele>97.8</ele><time>2026-04-19T12:40:23.998Z</time></trkpt><trkpt lat="44.77061575322556" lon="1.0096084733422712"><ele>98.6</ele><time>2026-04-19T12:40:24.998Z</time></trkpt><trkpt lat="44.770645758843074" lon="1.0097471968478404"><ele>99.39999999999999</ele><time>2026-04-19T12:40:25.998Z</time></trkpt><trkpt lat="44.77064418572246" lon="1.00989856991598"><ele>100.19999999999999</ele><time>2026-04-19T12:40:26.998Z</time></trkpt><trkpt lat="44.77065496734945" lon="1.0100253947121827"><ele>101.0</ele><time>2026-04-19T12:40:27.998Z</time></trkpt><trkpt lat="44.77064547106977" lon="1.010137999776518"><ele>101.49999999999999</ele><time>2026-04-19T12:40:28.998Z</time></trkpt><trkpt lat="44.77064708266957" lon="1.0102597709644747"><ele>102.0</ele><time>2026-04-19T12:40:29.998Z</time></trkpt><trkpt lat="44.770657240335964" lon="1.0103744425499084"><ele>102.5</ele><time>2026-04-19T12:40:30.998Z</time></trkpt><trkpt lat="44.770676238961116" lon="1.0105324526023987"><ele>103.0</ele><time>2026-04-19T12:40:32.998Z</time></trkpt><trkpt lat="44.770684475107274" lon="1.0106299472660547"><ele>103.49999999999999</ele><time>2026-04-19T12:40:34.998Z</time></trkpt><trkpt lat="44.77072447690416" lon="1.0107296473479"><ele>104.0</ele><time>2026-04-19T12:40:47.999Z</time></trkpt><trkpt lat="44.77082590727288" lon="1.0107790421530722"><ele>103.99999999999999</ele><time>2026-04-19T12:40:49.999Z</time></trkpt><trkpt lat="44.77094037879772" lon="1.0107992135416324"><ele>104.0</ele><time>2026-04-19T12:40:51.999Z</time></trkpt><trkpt lat="44.771017606848005" lon="1.010798532315684"><ele>104.0</ele><time>2026-04-19T12:40:52.999Z</time></trkpt><trkpt lat="44.77109270597373" lon="1.0107952426497528"><ele>104.0</ele><time>2026-04-19T12:40:53.999Z</time></trkpt><trkpt lat="44.77117421252665" lon="1.0107966242083346"><ele>103.99999999999999</ele><time>2026-04-19T12:40:54.999Z</time></trkpt><trkpt lat="44.77126128106319" lon="1.01079723819727"><ele>104.0</ele><time>2026-04-19T12:40:55.999Z</time></trkpt><trkpt lat="44.77135609171023" lon="1.0107935049608125"><ele>103.6</ele><time>2026-04-19T12:40:56.999Z</time></trkpt><trkpt lat="44.77145108616856" lon="1.010787811058784"><ele>103.2</ele><time>2026-04-19T12:40:57.999Z</time></trkpt><trkpt lat="44.7715457695636" lon="1.0107940527634505"><ele>102.8</ele><time>2026-04-19T12:40:58.999Z</time></trkpt><trkpt lat="44.77163560882975" lon="1.01078663879264"><ele>102.39999999999999</ele><time>2026-04-19T12:40:59.999Z</time></trkpt><trkpt lat="44.771731311678906" lon="1.0107915238502834"><ele>102.0</ele><time>2026-04-19T12:41:00.999Z</time></trkpt><trkpt lat="44.77182681931952" lon="1.0107883646687548"><ele>103.8</ele><time>2026-04-19T12:41:01.999Z</time></trkpt><trkpt lat="44.77191965684739" lon="1.0107820169433204"><ele>105.6</ele><time>2026-04-19T12:41:02.999Z</time></trkpt><trkpt lat="44.77200221316081" lon="1.0107732278301387"><ele>107.39999999999999</ele><time>2026-04-19T12:41:03.999Z</time></trkpt><trkpt lat="44.77216867569323" lon="1.0107781164437946"><ele>109.19999999999999</ele><time>2026-04-19T12:41:05.999Z</time></trkpt><trkpt lat="44.77224890396793" lon="1.01077923571607"><ele>111.0</ele><time>2026-04-19T12:41:06.999Z</time></trkpt><trkpt lat="44.77233132746764" lon="1.0107791009410232"><ele>111.0</ele><time>2026-04-19T12:41:07.999Z</time></trkpt><trkpt lat="44.77240942967977" lon="1.010790172060192"><ele>111.0</ele><time>2026-04-19T12:41:08.999Z</time></trkpt><trkpt lat="44.77247945097645" lon="1.010780385104055"><ele>111.0</ele><time>2026-04-19T12:41:09.999Z</time></trkpt><trkpt lat="44.77254341607486" lon="1.010781331319817"><ele>111.0</ele><time>2026-04-19T12:41:10.999Z</time></trkpt><trkpt lat="44.77263302660171" lon="1.010770996484204"><ele>111.0</ele><time>2026-04-19T12:41:12.999Z</time></trkpt><trkpt lat="44.772708361557825" lon="1.0107704619418496"><ele>111.0</ele><time>2026-04-19T12:41:20Z</time></trkpt><trkpt lat="44.77259574057097" lon="1.0107596446636986"><ele>111.0</ele><time>2026-04-19T12:41:33Z</time></trkpt><trkpt lat="44.77253131090067" lon="1.0107603026067558"><ele>111.0</ele><time>2026-04-19T12:41:34Z</time></trkpt><trkpt lat="44.772403859579306" lon="1.0107616041475032"><ele>111.0</ele><time>2026-04-19T12:41:36Z</time></trkpt><trkpt lat="44.7723387400129" lon="1.0107622691584335"><ele>111.0</ele><time>2026-04-19T12:41:37Z</time></trkpt><trkpt lat="44.77226575542935" lon="1.0107559603194751"><ele>111.0</ele><time>2026-04-19T12:41:38Z</time></trkpt><trkpt lat="44.772154571021346" lon="1.0107618072285147"><ele>111.0</ele><time>2026-04-19T12:41:40Z</time></trkpt><trkpt lat="44.772087694332015" lon="1.010764832788518"><ele>111.0</ele><time>2026-04-19T12:41:42Z</time></trkpt><trkpt lat="44.77202477927953" lon="1.0107706752440921"><ele>111.0</ele><time>2026-04-19T12:41:45Z</time></trkpt><trkpt lat="44.77210234882776" lon="1.0108464780229978"><ele>111.0</ele><time>2026-04-19T12:41:48Z</time></trkpt><trkpt lat="44.772197152475606" lon="1.0108629738999684"><ele>111.0</ele><time>2026-04-19T12:41:50Z</time></trkpt><trkpt lat="44.772261746779456" lon="1.0113049248071553"><ele>108.0</ele><time>2026-04-19T12:41:52Z</time></trkpt><trkpt lat="44.772248768446424" lon="1.0114583422477388"><ele>105.0</ele><time>2026-04-19T12:41:53Z</time></trkpt><trkpt lat="44.77225533049282" lon="1.0115830838443338"><ele>102.0</ele><time>2026-04-19T12:41:54Z</time></trkpt><trkpt lat="44.77226648225307" lon="1.0117221659802338"><ele>99.0</ele><time>2026-04-19T12:41:55Z</time></trkpt><trkpt lat="44.772271595989324" lon="1.0118593716137472"><ele>96.0</ele><time>2026-04-19T12:41:56Z</time></trkpt><trkpt lat="44.77228366920681" lon="1.0119890825563873"><ele>95.33333333333333</ele><time>2026-04-19T12:41:57Z</time></trkpt><trkpt lat="44.772285839160205" lon="1.012111068459604"><ele>94.66666666666667</ele><time>2026-04-19T12:41:58Z</time></trkpt><trkpt lat="44.77227593071522" lon="1.0122322832118094"><ele>94.0</ele><time>2026-04-19T12:41:59Z</time></trkpt><trkpt lat="44.77225184538841" lon="1.0123462912611394"><ele>93.33333333333334</ele><time>2026-04-19T12:42:00.001Z</time></trkpt><trkpt lat="44.7722143088293" lon="1.01246883888445"><ele>92.66666666666667</ele><time>2026-04-19T12:42:01.001Z</time></trkpt><trkpt lat="44.772173192407784" lon="1.0125909443856986"><ele>92.0</ele><time>2026-04-19T12:42:02.001Z</time></trkpt><trkpt lat="44.77213336265395" lon="1.0127183809513465"><ele>91.6</ele><time>2026-04-19T12:42:03.001Z</time></trkpt><trkpt lat="44.772086715695565" lon="1.0128582752325714"><ele>91.19999999999999</ele><time>2026-04-19T12:42:04.001Z</time></trkpt><trkpt lat="44.77205133006502" lon="1.0129999814605533"><ele>90.8</ele><time>2026-04-19T12:42:05.001Z</time></trkpt><trkpt lat="44.77202004221612" lon="1.013131327109623"><ele>90.4</ele><time>2026-04-19T12:42:06.001Z</time></trkpt><trkpt lat="44.77193251159942" lon="1.0132442987641845"><ele>90.0</ele><time>2026-04-19T12:42:07.001Z</time></trkpt><trkpt lat="44.7718954125617" lon="1.0133829241869523"><ele>90.0</ele><time>2026-04-19T12:42:08.001Z</time></trkpt><trkpt lat="44.77185584309634" lon="1.0135239501185302"><ele>90.0</ele><time>2026-04-19T12:42:08.997Z</time></trkpt><trkpt lat="44.771813804077944" lon="1.0136725618745817"><ele>90.0</ele><time>2026-04-19T12:42:09.997Z</time></trkpt><trkpt lat="44.77176611379035" lon="1.0138097362629632"><ele>90.0</ele><time>2026-04-19T12:42:10.997Z</time></trkpt><trkpt lat="44.77170834519747" lon="1.0139345230102956"><ele>90.0</ele><time>2026-04-19T12:42:11.997Z</time></trkpt><trkpt lat="44.7716425125856" lon="1.0140410685570878"><ele>90.0</ele><time>2026-04-19T12:42:12.997Z</time></trkpt><trkpt lat="44.771594004941555" lon="1.014151073365691"><ele>90.0</ele><time>2026-04-19T12:42:13.997Z</time></trkpt><trkpt lat="44.771520696200945" lon="1.014225488079727"><ele>90.0</ele><time>2026-04-19T12:42:14.997Z</time></trkpt><trkpt lat="44.7714497178247" lon="1.0142802127786386"><ele>90.0</ele><time>2026-04-19T12:42:15.997Z</time></trkpt><trkpt lat="44.77138158029989" lon="1.0143472331747356"><ele>90.0</ele><time>2026-04-19T12:42:16.997Z</time></trkpt><trkpt lat="44.77131797639726" lon="1.0144192481449499"><ele>90.0</ele><time>2026-04-19T12:42:17.998Z</time></trkpt><trkpt lat="44.77124496747235" lon="1.0144971175582118"><ele>90.75</ele><time>2026-04-19T12:42:18.997Z</time></trkpt><trkpt lat="44.771168960143015" lon="1.014586896546476"><ele>91.5</ele><time>2026-04-19T12:42:19.997Z</time></trkpt><trkpt lat="44.771080175350896" lon="1.0146920059408375"><ele>92.25</ele><time>2026-04-19T12:42:20.997Z</time></trkpt><trkpt lat="44.770984820329005" lon="1.0148037296758448"><ele>93.0</ele><time>2026-04-19T12:42:21.997Z</time></trkpt><trkpt lat="44.770882217997986" lon="1.0149377943144096"><ele>94.33333333333334</ele><time>2026-04-19T12:42:22.997Z</time></trkpt><trkpt lat="44.770765259668764" lon="1.0150954006230832"><ele>95.66666666666667</ele><time>2026-04-19T12:42:23.997Z</time></trkpt><trkpt lat="44.77064561845907" lon="1.0152620481289916"><ele>97.0</ele><time>2026-04-19T12:42:24.997Z</time></trkpt><trkpt lat="44.77050434686021" lon="1.015421128146849"><ele>97.0</ele><time>2026-04-19T12:42:25.997Z</time></trkpt><trkpt lat="44.77037187430874" lon="1.0156034342236429"><ele>97.0</ele><time>2026-04-19T12:42:26.997Z</time></trkpt><trkpt lat="44.77023286954109" lon="1.0157904105331503"><ele>97.0</ele><time>2026-04-19T12:42:27.997Z</time></trkpt><trkpt lat="44.77009838684714" lon="1.01596996886849"><ele>98.0</ele><time>2026-04-19T12:42:28.997Z</time></trkpt><trkpt lat="44.769940347988594" lon="1.016179163296872"><ele>99.0</ele><time>2026-04-19T12:42:29.997Z</time></trkpt><trkpt lat="44.76981085527154" lon="1.016381686551081"><ele>100.0</ele><time>2026-04-19T12:42:30.997Z</time></trkpt><trkpt lat="44.769676149317526" lon="1.0165780777253268"><ele>100.33333333333334</ele><time>2026-04-19T12:42:31.997Z</time></trkpt><trkpt lat="44.76953684429903" lon="1.0167735575442716"><ele>100.66666666666666</ele><time>2026-04-19T12:42:32.997Z</time></trkpt><trkpt lat="44.76939620591602" lon="1.016965107420206"><ele>101.0</ele><time>2026-04-19T12:42:33.997Z</time></trkpt><trkpt lat="44.76926322487766" lon="1.0171594431579212"><ele>101.0</ele><time>2026-04-19T12:42:34.997Z</time></trkpt><trkpt lat="44.76912191927721" lon="1.0173536175983129"><ele>101.0</ele><time>2026-04-19T12:42:35.997Z</time></trkpt><trkpt lat="44.7689939697213" lon="1.0175292043816784"><ele>101.0</ele><time>2026-04-19T12:42:36.997Z</time></trkpt><trkpt lat="44.76886475172212" lon="1.0176970785602883"><ele>101.0</ele><time>2026-04-19T12:42:37.997Z</time></trkpt><trkpt lat="44.76875010977585" lon="1.0178696411571893"><ele>101.0</ele><time>2026-04-19T12:42:38.997Z</time></trkpt><trkpt lat="44.7686274160778" lon="1.0180454498467975"><ele>101.0</ele><time>2026-04-19T12:42:39.998Z</time></trkpt><trkpt lat="44.76848922534512" lon="1.01820469944471"><ele>101.33333333333333</ele><time>2026-04-19T12:42:40.998Z</time></trkpt><trkpt lat="44.76836260818932" lon="1.0183787737645484"><ele>101.66666666666666</ele><time>2026-04-19T12:42:41.998Z</time></trkpt><trkpt lat="44.76824783784095" lon="1.0185626041223865"><ele>102.0</ele><time>2026-04-19T12:42:42.998Z</time></trkpt><trkpt lat="44.76812312621085" lon="1.0187291583135505"><ele>102.0</ele><time>2026-04-19T12:42:43.998Z</time></trkpt><trkpt lat="44.7679972136898" lon="1.0188927981907148"><ele>102.0</ele><time>2026-04-19T12:42:44.998Z</time></trkpt><trkpt lat="44.76788022572901" lon="1.0190632468906267"><ele>102.0</ele><time>2026-04-19T12:42:45.998Z</time></trkpt><trkpt lat="44.76774166688335" lon="1.019211061639064"><ele>102.33333333333334</ele><time>2026-04-19T12:42:46.998Z</time></trkpt><trkpt lat="44.76763049176397" lon="1.01937622165921"><ele>102.66666666666667</ele><time>2026-04-19T12:42:47.998Z</time></trkpt><trkpt lat="44.767523320058785" lon="1.0195368521344874"><ele>103.0</ele><time>2026-04-19T12:42:48.998Z</time></trkpt><trkpt lat="44.76740896694347" lon="1.0196894676340529"><ele>103.0</ele><time>2026-04-19T12:42:49.998Z</time></trkpt><trkpt lat="44.76730150490638" lon="1.019853858679304"><ele>103.0</ele><time>2026-04-19T12:42:50.998Z</time></trkpt><trkpt lat="44.76719291460504" lon="1.0200093849227163"><ele>103.0</ele><time>2026-04-19T12:42:51.998Z</time></trkpt><trkpt lat="44.767097085203304" lon="1.020189107087633"><ele>103.66666666666667</ele><time>2026-04-19T12:42:52.998Z</time></trkpt><trkpt lat="44.76699943834449" lon="1.0203739948584074"><ele>104.33333333333334</ele><time>2026-04-19T12:42:53.998Z</time></trkpt><trkpt lat="44.766908449188946" lon="1.0205733259286207"><ele>105.0</ele><time>2026-04-19T12:42:54.998Z</time></trkpt><trkpt lat="44.766823417659715" lon="1.0207702002398813"><ele>106.33333333333334</ele><time>2026-04-19T12:42:55.998Z</time></trkpt><trkpt lat="44.76675280753636" lon="1.0209863032282571"><ele>107.66666666666667</ele><time>2026-04-19T12:42:56.998Z</time></trkpt><trkpt lat="44.76667751238732" lon="1.0211995851407085"><ele>109.0</ele><time>2026-04-19T12:42:57.998Z</time></trkpt><trkpt lat="44.76659368254447" lon="1.021414600180782"><ele>109.0</ele><time>2026-04-19T12:42:58.998Z</time></trkpt><trkpt lat="44.766505955423" lon="1.0216268366101697"><ele>109.0</ele><time>2026-04-19T12:42:59.998Z</time></trkpt><trkpt lat="44.76641046469485" lon="1.0218418145113974"><ele>109.0</ele><time>2026-04-19T12:43:00.998Z</time></trkpt><trkpt lat="44.76630062990698" lon="1.022046324312362"><ele>110.66666666666667</ele><time>2026-04-19T12:43:01.998Z</time></trkpt><trkpt lat="44.76620274938667" lon="1.0222355046071976"><ele>112.33333333333334</ele><time>2026-04-19T12:43:02.998Z</time></trkpt><trkpt lat="44.76609835296462" lon="1.0224182886962374"><ele>114.0</ele><time>2026-04-19T12:43:03.998Z</time></trkpt><trkpt lat="44.76599591728891" lon="1.0226057744073243"><ele>114.0</ele><time>2026-04-19T12:43:04.998Z</time></trkpt><trkpt lat="44.76589030915986" lon="1.0227913454286843"><ele>114.0</ele><time>2026-04-19T12:43:05.998Z</time></trkpt><trkpt lat="44.76579798252537" lon="1.0230096943324478"><ele>114.0</ele><time>2026-04-19T12:43:06.998Z</time></trkpt><trkpt lat="44.76572666154831" lon="1.023253319896808"><ele>114.33333333333334</ele><time>2026-04-19T12:43:07.998Z</time></trkpt><trkpt lat="44.76566637290883" lon="1.0235237737056337"><ele>114.66666666666667</ele><time>2026-04-19T12:43:08.998Z</time></trkpt><trkpt lat="44.76561068347749" lon="1.0238023614211305"><ele>115.0</ele><time>2026-04-19T12:43:09.998Z</time></trkpt><trkpt lat="44.76555587620021" lon="1.0240807370444387"><ele>117.0</ele><time>2026-04-19T12:43:10.998Z</time></trkpt><trkpt lat="44.76549427099196" lon="1.0243638367270385"><ele>119.0</ele><time>2026-04-19T12:43:11.998Z</time></trkpt><trkpt lat="44.76539326016243" lon="1.024637589027774"><ele>121.0</ele><time>2026-04-19T12:43:12.998Z</time></trkpt><trkpt lat="44.76530403078191" lon="1.0249133293414274"><ele>119.66666666666667</ele><time>2026-04-19T12:43:13.998Z</time></trkpt><trkpt lat="44.76521264218982" lon="1.0251726677815083"><ele>118.33333333333334</ele><time>2026-04-19T12:43:14.998Z</time></trkpt><trkpt lat="44.76512087770368" lon="1.0254192079528062"><ele>117.0</ele><time>2026-04-19T12:43:15.998Z</time></trkpt><trkpt lat="44.76503636482368" lon="1.0256385438462094"><ele>118.33333333333334</ele><time>2026-04-19T12:43:16.998Z</time></trkpt><trkpt lat="44.76496224578427" lon="1.0258618660520449"><ele>119.66666666666667</ele><time>2026-04-19T12:43:17.998Z</time></trkpt><trkpt lat="44.76490698802651" lon="1.026109334246539"><ele>121.0</ele><time>2026-04-19T12:43:18.998Z</time></trkpt><trkpt lat="44.764858209586194" lon="1.0263660043945024"><ele>121.0</ele><time>2026-04-19T12:43:19.999Z</time></trkpt><trkpt lat="44.76481729543571" lon="1.0266357561155888"><ele>121.0</ele><time>2026-04-19T12:43:20.999Z</time></trkpt><trkpt lat="44.76479141488013" lon="1.0269339838268718"><ele>121.0</ele><time>2026-04-19T12:43:21.999Z</time></trkpt><trkpt lat="44.76476423896759" lon="1.027219165191478"><ele>121.66666666666667</ele><time>2026-04-19T12:43:22.999Z</time></trkpt><trkpt lat="44.76473461374266" lon="1.0275055789360823"><ele>122.33333333333334</ele><time>2026-04-19T12:43:23.999Z</time></trkpt><trkpt lat="44.76470739095184" lon="1.0277869949847003"><ele>123.0</ele><time>2026-04-19T12:43:24.999Z</time></trkpt><trkpt lat="44.764681739451525" lon="1.028061367123821"><ele>124.66666666666666</ele><time>2026-04-19T12:43:25.999Z</time></trkpt><trkpt lat="44.76465518347379" lon="1.0283449829848799"><ele>126.33333333333333</ele><time>2026-04-19T12:43:26.999Z</time></trkpt><trkpt lat="44.76462782811946" lon="1.0286228468824907"><ele>128.0</ele><time>2026-04-19T12:43:27.999Z</time></trkpt><trkpt lat="44.7645993227838" lon="1.0289046244082327"><ele>131.0</ele><time>2026-04-19T12:43:28.999Z</time></trkpt><trkpt lat="44.764569356700044" lon="1.0292008416894474"><ele>134.0</ele><time>2026-04-19T12:43:29.999Z</time></trkpt><trkpt lat="44.76455068572132" lon="1.029502945136679"><ele>137.0</ele><time>2026-04-19T12:43:30.999Z</time></trkpt><trkpt lat="44.764519935106115" lon="1.0297733572389147"><ele>139.0</ele><time>2026-04-19T12:43:31.999Z</time></trkpt><trkpt lat="44.764498961675734" lon="1.0300459905332975"><ele>141.0</ele><time>2026-04-19T12:43:32.999Z</time></trkpt><trkpt lat="44.76446709367391" lon="1.0303170028130586"><ele>143.0</ele><time>2026-04-19T12:43:33.999Z</time></trkpt><trkpt lat="44.76444868543727" lon="1.030577643171491"><ele>144.0</ele><time>2026-04-19T12:43:34.999Z</time></trkpt><trkpt lat="44.76442646018523" lon="1.0308432954516524"><ele>145.0</ele><time>2026-04-19T12:43:35.999Z</time></trkpt><trkpt lat="44.76441804226915" lon="1.031104591491707"><ele>146.0</ele><time>2026-04-19T12:43:36.999Z</time></trkpt><trkpt lat="44.76441415810963" lon="1.0313795451338164"><ele>147.0</ele><time>2026-04-19T12:43:37.999Z</time></trkpt><trkpt lat="44.764417525464566" lon="1.0316403229884694"><ele>148.0</ele><time>2026-04-19T12:43:38.999Z</time></trkpt><trkpt lat="44.764424855183236" lon="1.031911436776399"><ele>149.0</ele><time>2026-04-19T12:43:39.999Z</time></trkpt><trkpt lat="44.76445979567162" lon="1.0321562692481492"><ele>149.0</ele><time>2026-04-19T12:43:40.999Z</time></trkpt><trkpt lat="44.76448480763232" lon="1.0324075981713894"><ele>149.0</ele><time>2026-04-19T12:43:41.999Z</time></trkpt><trkpt lat="44.7645070981005" lon="1.032629456233156"><ele>149.0</ele><time>2026-04-19T12:43:42.999Z</time></trkpt><trkpt lat="44.76451132337863" lon="1.0328457565943052"><ele>149.33333333333331</ele><time>2026-04-19T12:43:43.999Z</time></trkpt><trkpt lat="44.7644940272109" lon="1.0330695469729914"><ele>149.66666666666666</ele><time>2026-04-19T12:43:44.999Z</time></trkpt><trkpt lat="44.76447470580493" lon="1.0333026727752437"><ele>150.0</ele><time>2026-04-19T12:43:45.999Z</time></trkpt><trkpt lat="44.764386807247504" lon="1.0335158043648889"><ele>141.66666666666666</ele><time>2026-04-19T12:43:46.999Z</time></trkpt><trkpt lat="44.76428266009375" lon="1.0337220433910363"><ele>133.33333333333331</ele><time>2026-04-19T12:43:47.999Z</time></trkpt><trkpt lat="44.76415874569145" lon="1.0339151725847016"><ele>125.0</ele><time>2026-04-19T12:43:48.999Z</time></trkpt><trkpt lat="44.76400466492474" lon="1.0340889542344227"><ele>124.66666666666666</ele><time>2026-04-19T12:43:49.999Z</time></trkpt><trkpt lat="44.76389269799081" lon="1.0342911107722261"><ele>124.33333333333334</ele><time>2026-04-19T12:43:50.999Z</time></trkpt><trkpt lat="44.763785601334945" lon="1.0344839866208533"><ele>124.0</ele><time>2026-04-19T12:43:51.999Z</time></trkpt><trkpt lat="44.763684592703854" lon="1.0346970503335575"><ele>124.0</ele><time>2026-04-19T12:43:52.999Z</time></trkpt><trkpt lat="44.763582319086176" lon="1.0348874083268373"><ele>124.0</ele><time>2026-04-19T12:43:53.999Z</time></trkpt><trkpt lat="44.76345226702143" lon="1.0350708268610342"><ele>124.0</ele><time>2026-04-19T12:43:54.999Z</time></trkpt><trkpt lat="44.763331855442495" lon="1.0352683751831722"><ele>126.0</ele><time>2026-04-19T12:43:55.999Z</time></trkpt><trkpt lat="44.76319896265569" lon="1.0354591410784946"><ele>128.0</ele><time>2026-04-19T12:43:56.999Z</time></trkpt><trkpt lat="44.76305971458061" lon="1.0356232332905746"><ele>130.0</ele><time>2026-04-19T12:43:57.999Z</time></trkpt><trkpt lat="44.762897168201576" lon="1.0357817176021162"><ele>131.0</ele><time>2026-04-19T12:43:58.999Z</time></trkpt><trkpt lat="44.76272867216689" lon="1.0359025699166162"><ele>132.0</ele><time>2026-04-19T12:44:00Z</time></trkpt><trkpt lat="44.762550864649995" lon="1.035998116266793"><ele>133.0</ele><time>2026-04-19T12:44:01Z</time></trkpt><trkpt lat="44.762371599062476" lon="1.0360751111880058"><ele>133.0</ele><time>2026-04-19T12:44:02Z</time></trkpt><trkpt lat="44.76218074834952" lon="1.0361479982873332"><ele>133.0</ele><time>2026-04-19T12:44:03Z</time></trkpt><trkpt lat="44.7620018943359" lon="1.036215190277223"><ele>133.0</ele><time>2026-04-19T12:44:04Z</time></trkpt><trkpt lat="44.76182521768346" lon="1.0362845653427006"><ele>132.66666666666669</ele><time>2026-04-19T12:44:05Z</time></trkpt><trkpt lat="44.76166547583087" lon="1.036365566235672"><ele>132.33333333333334</ele><time>2026-04-19T12:44:06Z</time></trkpt><trkpt lat="44.761508132814605" lon="1.0364337200235774"><ele>132.0</ele><time>2026-04-19T12:44:07Z</time></trkpt><trkpt lat="44.7613536874285" lon="1.0364949789019802"><ele>132.0</ele><time>2026-04-19T12:44:08Z</time></trkpt><trkpt lat="44.76118502398253" lon="1.0365371889185462"><ele>132.0</ele><time>2026-04-19T12:44:09Z</time></trkpt><trkpt lat="44.761032264585424" lon="1.036611510821528"><ele>132.0</ele><time>2026-04-19T12:44:10Z</time></trkpt><trkpt lat="44.760868103313264" lon="1.0366885196024251"><ele>134.66666666666666</ele><time>2026-04-19T12:44:11Z</time></trkpt><trkpt lat="44.7607061503493" lon="1.0367805186603822"><ele>137.33333333333331</ele><time>2026-04-19T12:44:12Z</time></trkpt><trkpt lat="44.760548276379424" lon="1.036880134762384"><ele>140.0</ele><time>2026-04-19T12:44:13Z</time></trkpt><trkpt lat="44.760399812364525" lon="1.0369826567463563"><ele>140.0</ele><time>2026-04-19T12:44:14Z</time></trkpt><trkpt lat="44.76025653813176" lon="1.0370961958704223"><ele>140.0</ele><time>2026-04-19T12:44:14.997Z</time></trkpt><trkpt lat="44.760121979677486" lon="1.0372181237841465"><ele>140.0</ele><time>2026-04-19T12:44:15.996Z</time></trkpt><trkpt lat="44.75999639729472" lon="1.037353375811499"><ele>140.66666666666666</ele><time>2026-04-19T12:44:16.996Z</time></trkpt><trkpt lat="44.759881957659914" lon="1.0375203558189934"><ele>141.33333333333334</ele><time>2026-04-19T12:44:17.997Z</time></trkpt><trkpt lat="44.759784569529174" lon="1.0377126904155878"><ele>142.0</ele><time>2026-04-19T12:44:18.997Z</time></trkpt><trkpt lat="44.75969160286624" lon="1.0379089066936196"><ele>142.0</ele><time>2026-04-19T12:44:19.997Z</time></trkpt><trkpt lat="44.759612591417714" lon="1.0381337798218409"><ele>142.0</ele><time>2026-04-19T12:44:20.997Z</time></trkpt><trkpt lat="44.75953388548293" lon="1.038373217741609"><ele>142.0</ele><time>2026-04-19T12:44:21.997Z</time></trkpt><trkpt lat="44.75945189602503" lon="1.0386169160263536"><ele>142.0</ele><time>2026-04-19T12:44:22.997Z</time></trkpt><trkpt lat="44.75935501620838" lon="1.0388494768479861"><ele>142.0</ele><time>2026-04-19T12:44:23.996Z</time></trkpt><trkpt lat="44.75928630097537" lon="1.0390949537533207"><ele>142.0</ele><time>2026-04-19T12:44:24.996Z</time></trkpt><trkpt lat="44.75920626785404" lon="1.0393183304424816"><ele>144.0</ele><time>2026-04-19T12:44:25.996Z</time></trkpt><trkpt lat="44.75911957781829" lon="1.0395607322337836"><ele>146.0</ele><time>2026-04-19T12:44:26.997Z</time></trkpt><trkpt lat="44.75903787983571" lon="1.039794230431428"><ele>148.0</ele><time>2026-04-19T12:44:27.996Z</time></trkpt><trkpt lat="44.7589405825494" lon="1.040015156311741"><ele>151.33333333333334</ele><time>2026-04-19T12:44:28.997Z</time></trkpt><trkpt lat="44.758868255572054" lon="1.0402477454775896"><ele>154.66666666666666</ele><time>2026-04-19T12:44:29.997Z</time></trkpt><trkpt lat="44.758764957025406" lon="1.0404613965686715"><ele>158.0</ele><time>2026-04-19T12:44:30.997Z</time></trkpt><trkpt lat="44.75869448447597" lon="1.040699615301845"><ele>162.33333333333331</ele><time>2026-04-19T12:44:31.997Z</time></trkpt><trkpt lat="44.758636369496315" lon="1.0409361733693034"><ele>166.66666666666666</ele><time>2026-04-19T12:44:32.997Z</time></trkpt><trkpt lat="44.75859148966575" lon="1.0411912114098263"><ele>171.0</ele><time>2026-04-19T12:44:33.997Z</time></trkpt><trkpt lat="44.75854841751273" lon="1.0414551489860344"><ele>164.33333333333334</ele><time>2026-04-19T12:44:34.997Z</time></trkpt><trkpt lat="44.75850856825246" lon="1.0417181732384746"><ele>157.66666666666669</ele><time>2026-04-19T12:44:35.997Z</time></trkpt><trkpt lat="44.758462438022974" lon="1.0419796911036228"><ele>151.0</ele><time>2026-04-19T12:44:36.997Z</time></trkpt><trkpt lat="44.758401275310014" lon="1.042239112499065"><ele>153.66666666666669</ele><time>2026-04-19T12:44:37.997Z</time></trkpt><trkpt lat="44.75834668681338" lon="1.0425052057375688"><ele>156.33333333333334</ele><time>2026-04-19T12:44:38.997Z</time></trkpt><trkpt lat="44.75828599820056" lon="1.042761796684185"><ele>159.0</ele><time>2026-04-19T12:44:39.997Z</time></trkpt><trkpt lat="44.75819756152295" lon="1.043031205795508"><ele>161.33333333333334</ele><time>2026-04-19T12:44:40.997Z</time></trkpt><trkpt lat="44.758108508840245" lon="1.043301865272146"><ele>163.66666666666669</ele><time>2026-04-19T12:44:41.997Z</time></trkpt><trkpt lat="44.75801055350751" lon="1.0435809204592923"><ele>166.0</ele><time>2026-04-19T12:44:42.997Z</time></trkpt><trkpt lat="44.757913942809964" lon="1.043860376540973"><ele>163.33333333333334</ele><time>2026-04-19T12:44:43.997Z</time></trkpt><trkpt lat="44.75782206301793" lon="1.0441309739397542"><ele>160.66666666666666</ele><time>2026-04-19T12:44:44.997Z</time></trkpt><trkpt lat="44.757743938519425" lon="1.0444081153692861"><ele>158.0</ele><time>2026-04-19T12:44:45.997Z</time></trkpt><trkpt lat="44.75765146319746" lon="1.044669593338061"><ele>158.0</ele><time>2026-04-19T12:44:46.997Z</time></trkpt><trkpt lat="44.75754402711796" lon="1.0449066313903843"><ele>158.0</ele><time>2026-04-19T12:44:47.997Z</time></trkpt><trkpt lat="44.757403444572596" lon="1.0451057210033732"><ele>158.0</ele><time>2026-04-19T12:44:48.997Z</time></trkpt><trkpt lat="44.75727027852436" lon="1.0452981850778262"><ele>160.33333333333331</ele><time>2026-04-19T12:44:49.997Z</time></trkpt><trkpt lat="44.75714513046354" lon="1.0454877696646696"><ele>162.66666666666666</ele><time>2026-04-19T12:44:50.997Z</time></trkpt><trkpt lat="44.75703899040959" lon="1.045694144720442"><ele>165.0</ele><time>2026-04-19T12:44:51.997Z</time></trkpt><trkpt lat="44.756935336468906" lon="1.0458659837960853"><ele>164.66666666666666</ele><time>2026-04-19T12:44:52.997Z</time></trkpt><trkpt lat="44.75684071611314" lon="1.046051741661617"><ele>164.33333333333331</ele><time>2026-04-19T12:44:53.997Z</time></trkpt><trkpt lat="44.7567609593059" lon="1.0462444412472875"><ele>164.0</ele><time>2026-04-19T12:44:54.997Z</time></trkpt><trkpt lat="44.7566922088674" lon="1.0464423250380797"><ele>166.0</ele><time>2026-04-19T12:44:55.997Z</time></trkpt><trkpt lat="44.756656784868326" lon="1.0466388498071768"><ele>168.0</ele><time>2026-04-19T12:44:56.997Z</time></trkpt><trkpt lat="44.7566449719" lon="1.0468533932092632"><ele>170.0</ele><time>2026-04-19T12:44:57.997Z</time></trkpt><trkpt lat="44.75665883076918" lon="1.0470826618982645"><ele>170.0</ele><time>2026-04-19T12:44:58.997Z</time></trkpt><trkpt lat="44.75669059381013" lon="1.0473217414717266"><ele>170.0</ele><time>2026-04-19T12:44:59.997Z</time></trkpt><trkpt lat="44.75671524210755" lon="1.047554667338191"><ele>170.0</ele><time>2026-04-19T12:45:00.997Z</time></trkpt><trkpt lat="44.756724470962126" lon="1.0477820166454785"><ele>170.66666666666666</ele><time>2026-04-19T12:45:01.997Z</time></trkpt><trkpt lat="44.756711323724005" lon="1.048021656868782"><ele>171.33333333333334</ele><time>2026-04-19T12:45:02.997Z</time></trkpt><trkpt lat="44.756684020258255" lon="1.0482365127085511"><ele>172.0</ele><time>2026-04-19T12:45:03.997Z</time></trkpt><trkpt lat="44.75663230219794" lon="1.0484674145895014"><ele>173.0</ele><time>2026-04-19T12:45:04.997Z</time></trkpt><trkpt lat="44.75656129247527" lon="1.0486838529847056"><ele>174.0</ele><time>2026-04-19T12:45:05.997Z</time></trkpt><trkpt lat="44.75648073949157" lon="1.0488961276894517"><ele>175.0</ele><time>2026-04-19T12:45:06.997Z</time></trkpt><trkpt lat="44.756398572536696" lon="1.0491053622802107"><ele>177.0</ele><time>2026-04-19T12:45:07.997Z</time></trkpt><trkpt lat="44.75631965277561" lon="1.04930600347517"><ele>179.0</ele><time>2026-04-19T12:45:08.998Z</time></trkpt><trkpt lat="44.75624075258039" lon="1.0495171040364026"><ele>181.0</ele><time>2026-04-19T12:45:09.998Z</time></trkpt><trkpt lat="44.756174752777255" lon="1.0497410369338216"><ele>184.66666666666669</ele><time>2026-04-19T12:45:10.998Z</time></trkpt><trkpt lat="44.75612260353607" lon="1.0499651311457006"><ele>188.33333333333334</ele><time>2026-04-19T12:45:11.998Z</time></trkpt><trkpt lat="44.75608781790586" lon="1.0502076977321337"><ele>192.0</ele><time>2026-04-19T12:45:12.998Z</time></trkpt><trkpt lat="44.75603715603958" lon="1.05045263748662"><ele>189.0</ele><time>2026-04-19T12:45:13.998Z</time></trkpt><trkpt lat="44.75599605539291" lon="1.0507090323788049"><ele>186.0</ele><time>2026-04-19T12:45:14.998Z</time></trkpt><trkpt lat="44.7559546949237" lon="1.0509670476445796"><ele>183.0</ele><time>2026-04-19T12:45:15.998Z</time></trkpt><trkpt lat="44.755913570637325" lon="1.0512250808904176"><ele>183.0</ele><time>2026-04-19T12:45:16.998Z</time></trkpt><trkpt lat="44.75588353141979" lon="1.051478405305014"><ele>183.0</ele><time>2026-04-19T12:45:17.998Z</time></trkpt><trkpt lat="44.755847588124425" lon="1.0517304415747952"><ele>183.0</ele><time>2026-04-19T12:45:18.998Z</time></trkpt><trkpt lat="44.75579624874659" lon="1.0519576053953745"><ele>183.66666666666666</ele><time>2026-04-19T12:45:19.998Z</time></trkpt><trkpt lat="44.755757418271834" lon="1.0522030262712412"><ele>184.33333333333331</ele><time>2026-04-19T12:45:20.998Z</time></trkpt><trkpt lat="44.7557200022967" lon="1.0524401701513653"><ele>185.0</ele><time>2026-04-19T12:45:21.998Z</time></trkpt><trkpt lat="44.75568059554221" lon="1.0526748779959019"><ele>187.33333333333331</ele><time>2026-04-19T12:45:22.998Z</time></trkpt><trkpt lat="44.75564067288411" lon="1.0529048764613582"><ele>189.66666666666666</ele><time>2026-04-19T12:45:23.998Z</time></trkpt><trkpt lat="44.755597079003536" lon="1.0531242657014626"><ele>192.0</ele><time>2026-04-19T12:45:24.998Z</time></trkpt><trkpt lat="44.75554398045573" lon="1.0533145032952322"><ele>193.25</ele><time>2026-04-19T12:45:25.998Z</time></trkpt><trkpt lat="44.75547943259229" lon="1.0534852566465678"><ele>194.5</ele><time>2026-04-19T12:45:26.998Z</time></trkpt><trkpt lat="44.75541478299657" lon="1.0536519136744655"><ele>195.75</ele><time>2026-04-19T12:45:27.998Z</time></trkpt><trkpt lat="44.75536173015489" lon="1.053823455026416"><ele>197.0</ele><time>2026-04-19T12:45:28.998Z</time></trkpt><trkpt lat="44.755329151781126" lon="1.054005756163726"><ele>198.25</ele><time>2026-04-19T12:45:29.998Z</time></trkpt><trkpt lat="44.755288401219524" lon="1.0541997955517297"><ele>199.5</ele><time>2026-04-19T12:45:30.998Z</time></trkpt><trkpt lat="44.75525986232849" lon="1.0543926964423715"><ele>200.75</ele><time>2026-04-19T12:45:31.998Z</time></trkpt><trkpt lat="44.7552471187684" lon="1.0545841011289527"><ele>202.0</ele><time>2026-04-19T12:45:32.998Z</time></trkpt><trkpt lat="44.75524770545084" lon="1.0547769552502448"><ele>202.0</ele><time>2026-04-19T12:45:33.998Z</time></trkpt><trkpt lat="44.75524742625675" lon="1.0549416225300676"><ele>202.0</ele><time>2026-04-19T12:45:34.998Z</time></trkpt><trkpt lat="44.75525015937271" lon="1.0551173803961438"><ele>202.0</ele><time>2026-04-19T12:45:35.998Z</time></trkpt><trkpt lat="44.755260064035696" lon="1.0553082801572606"><ele>202.0</ele><time>2026-04-19T12:45:36.998Z</time></trkpt><trkpt lat="44.755304303487726" lon="1.0554839447157993"><ele>203.6</ele><time>2026-04-19T12:45:37.998Z</time></trkpt><trkpt lat="44.75535627928141" lon="1.0556362051009667"><ele>205.2</ele><time>2026-04-19T12:45:38.998Z</time></trkpt><trkpt lat="44.75539046799327" lon="1.0557904399884765"><ele>206.8</ele><time>2026-04-19T12:45:39.998Z</time></trkpt><trkpt lat="44.75542465181849" lon="1.0559095412629873"><ele>208.4</ele><time>2026-04-19T12:45:40.998Z</time></trkpt><trkpt lat="44.755456269792546" lon="1.0560333444451684"><ele>210.0</ele><time>2026-04-19T12:45:41.998Z</time></trkpt><trkpt lat="44.75547785002945" lon="1.0561386451754353"><ele>210.0</ele><time>2026-04-19T12:45:42.998Z</time></trkpt><trkpt lat="44.755470352893965" lon="1.0562449080653762"><ele>210.0</ele><time>2026-04-19T12:45:43.998Z</time></trkpt><trkpt lat="44.75544216090073" lon="1.0563368988991086"><ele>210.0</ele><time>2026-04-19T12:45:44.998Z</time></trkpt><trkpt lat="44.75536985503835" lon="1.0564087584619046"><ele>210.0</ele><time>2026-04-19T12:45:45.998Z</time></trkpt><trkpt lat="44.75528068880933" lon="1.0564514697535743"><ele>210.0</ele><time>2026-04-19T12:45:46.998Z</time></trkpt><trkpt lat="44.75519460436222" lon="1.0564277855489472"><ele>210.0</ele><time>2026-04-19T12:45:47.998Z</time></trkpt><trkpt lat="44.75509690422706" lon="1.0563722854867508"><ele>208.6</ele><time>2026-04-19T12:45:48.999Z</time></trkpt><trkpt lat="44.755007434046085" lon="1.0562651445878974"><ele>207.2</ele><time>2026-04-19T12:45:49.999Z</time></trkpt><trkpt lat="44.75491388957057" lon="1.056160556734287"><ele>205.8</ele><time>2026-04-19T12:45:50.999Z</time></trkpt><trkpt lat="44.75482309724962" lon="1.056084687039496"><ele>204.4</ele><time>2026-04-19T12:45:51.999Z</time></trkpt><trkpt lat="44.75474303829938" lon="1.0559915130140285"><ele>203.0</ele><time>2026-04-19T12:45:52.999Z</time></trkpt><trkpt lat="44.75465136311409" lon="1.0559589770371764"><ele>203.0</ele><time>2026-04-19T12:45:53.999Z</time></trkpt><trkpt lat="44.75455932115218" lon="1.0559780099699907"><ele>203.0</ele><time>2026-04-19T12:45:54.999Z</time></trkpt><trkpt lat="44.75446452405842" lon="1.0560039478277368"><ele>203.0</ele><time>2026-04-19T12:45:55.999Z</time></trkpt><trkpt lat="44.754380717683865" lon="1.0560914988637262"><ele>203.0</ele><time>2026-04-19T12:45:56.999Z</time></trkpt><trkpt lat="44.75429154117285" lon="1.0562083161599736"><ele>203.0</ele><time>2026-04-19T12:45:57.999Z</time></trkpt><trkpt lat="44.75419856428124" lon="1.056346987325602"><ele>202.5</ele><time>2026-04-19T12:45:58.999Z</time></trkpt><trkpt lat="44.75407928110242" lon="1.0564467116689138"><ele>202.0</ele><time>2026-04-19T12:45:59.999Z</time></trkpt><trkpt lat="44.7539704118436" lon="1.0565870686073129"><ele>201.5</ele><time>2026-04-19T12:46:00.999Z</time></trkpt><trkpt lat="44.75387843260002" lon="1.0567452181913988"><ele>201.0</ele><time>2026-04-19T12:46:01.999Z</time></trkpt><trkpt lat="44.753767222765255" lon="1.0569016296271345"><ele>202.33333333333331</ele><time>2026-04-19T12:46:02.999Z</time></trkpt><trkpt lat="44.75364698422167" lon="1.057046713637245"><ele>203.66666666666666</ele><time>2026-04-19T12:46:03.999Z</time></trkpt><trkpt lat="44.753504872091376" lon="1.0571625143928984"><ele>205.0</ele><time>2026-04-19T12:46:04.999Z</time></trkpt><trkpt lat="44.75335898369071" lon="1.0572596120676105"><ele>205.0</ele><time>2026-04-19T12:46:05.999Z</time></trkpt><trkpt lat="44.75321726851502" lon="1.057339740043254"><ele>205.0</ele><time>2026-04-19T12:46:06.999Z</time></trkpt><trkpt lat="44.75309898292682" lon="1.057437365316975"><ele>205.0</ele><time>2026-04-19T12:46:07.999Z</time></trkpt><trkpt lat="44.75298994548943" lon="1.0575512843781094"><ele>205.0</ele><time>2026-04-19T12:46:08.999Z</time></trkpt><trkpt lat="44.75291292153841" lon="1.057675027724434"><ele>207.75</ele><time>2026-04-19T12:46:09.999Z</time></trkpt><trkpt lat="44.752880774576035" lon="1.057807127232688"><ele>210.5</ele><time>2026-04-19T12:46:10.999Z</time></trkpt><trkpt lat="44.75293491008005" lon="1.057979236524667"><ele>213.25</ele><time>2026-04-19T12:46:11.999Z</time></trkpt><trkpt lat="44.752982503696806" lon="1.058145739722881"><ele>216.0</ele><time>2026-04-19T12:46:12.999Z</time></trkpt><trkpt lat="44.75304600459853" lon="1.058303499461063"><ele>218.0</ele><time>2026-04-19T12:46:13.999Z</time></trkpt><trkpt lat="44.75306513417792" lon="1.058463987365236"><ele>220.0</ele><time>2026-04-19T12:46:14.999Z</time></trkpt><trkpt lat="44.75306748745238" lon="1.0586222594992887"><ele>222.0</ele><time>2026-04-19T12:46:15.999Z</time></trkpt><trkpt lat="44.75303469748193" lon="1.058782647013831"><ele>224.0</ele><time>2026-04-19T12:46:16.999Z</time></trkpt><trkpt lat="44.7529773976522" lon="1.0589175105613169"><ele>224.0</ele><time>2026-04-19T12:46:17.999Z</time></trkpt><trkpt lat="44.75290765582069" lon="1.059054504272752"><ele>224.0</ele><time>2026-04-19T12:46:18.999Z</time></trkpt><trkpt lat="44.75280170232091" lon="1.0591106002800643"><ele>224.0</ele><time>2026-04-19T12:46:19.997Z</time></trkpt><trkpt lat="44.75268311946131" lon="1.059126970340325"><ele>224.0</ele><time>2026-04-19T12:46:20.997Z</time></trkpt><trkpt lat="44.75257077494221" lon="1.0591548507383404"><ele>225.0</ele><time>2026-04-19T12:46:21.997Z</time></trkpt><trkpt lat="44.75247739498073" lon="1.059224801047758"><ele>226.0</ele><time>2026-04-19T12:46:22.996Z</time></trkpt><trkpt lat="44.75238567317589" lon="1.0593076694766113"><ele>227.0</ele><time>2026-04-19T12:46:23.996Z</time></trkpt><trkpt lat="44.75231147915181" lon="1.059451504215589"><ele>228.0</ele><time>2026-04-19T12:46:24.996Z</time></trkpt><trkpt lat="44.752254403058046" lon="1.05962413831006"><ele>228.0</ele><time>2026-04-19T12:46:25.997Z</time></trkpt><trkpt lat="44.75219785130928" lon="1.0598085866504785"><ele>228.0</ele><time>2026-04-19T12:46:26.997Z</time></trkpt><trkpt lat="44.752130630757904" lon="1.0599816963392463"><ele>228.0</ele><time>2026-04-19T12:46:27.997Z</time></trkpt><trkpt lat="44.752058645628246" lon="1.06014523421508"><ele>228.0</ele><time>2026-04-19T12:46:28.997Z</time></trkpt><trkpt lat="44.751989948004905" lon="1.0603069612451108"><ele>229.25</ele><time>2026-04-19T12:46:29.996Z</time></trkpt><trkpt lat="44.75194066442229" lon="1.0604682891016879"><ele>230.5</ele><time>2026-04-19T12:46:30.996Z</time></trkpt><trkpt lat="44.751917669246346" lon="1.0606472957242292"><ele>231.75</ele><time>2026-04-19T12:46:31.997Z</time></trkpt><trkpt lat="44.75191586326027" lon="1.0608339771201107"><ele>233.0</ele><time>2026-04-19T12:46:32.996Z</time></trkpt><trkpt lat="44.751910433692295" lon="1.0610240358801684"><ele>234.5</ele><time>2026-04-19T12:46:33.996Z</time></trkpt><trkpt lat="44.75191663639472" lon="1.0612021694160478"><ele>236.0</ele><time>2026-04-19T12:46:34.996Z</time></trkpt><trkpt lat="44.75190238524853" lon="1.0613882233108303"><ele>237.5</ele><time>2026-04-19T12:46:35.996Z</time></trkpt><trkpt lat="44.751895554946465" lon="1.0615678613213049"><ele>239.0</ele><time>2026-04-19T12:46:36.996Z</time></trkpt><trkpt lat="44.7518961372066" lon="1.0617449164469963"><ele>239.0</ele><time>2026-04-19T12:46:37.996Z</time></trkpt><trkpt lat="44.751882163348355" lon="1.0619268900875594"><ele>239.0</ele><time>2026-04-19T12:46:38.996Z</time></trkpt><trkpt lat="44.75186782704385" lon="1.062108340458984"><ele>239.0</ele><time>2026-04-19T12:46:39.996Z</time></trkpt><trkpt lat="44.75183974071968" lon="1.0622948434583779"><ele>239.0</ele><time>2026-04-19T12:46:40.996Z</time></trkpt><trkpt lat="44.75181635792263" lon="1.0624712474940488"><ele>239.0</ele><time>2026-04-19T12:46:41.996Z</time></trkpt><trkpt lat="44.75179197418738" lon="1.0626523589468668"><ele>239.0</ele><time>2026-04-19T12:46:42.996Z</time></trkpt><trkpt lat="44.75177313713622" lon="1.0628331435677767"><ele>239.0</ele><time>2026-04-19T12:46:43.997Z</time></trkpt><trkpt lat="44.75174383730923" lon="1.0630226936877334"><ele>239.0</ele><time>2026-04-19T12:46:44.997Z</time></trkpt><trkpt lat="44.75170864545159" lon="1.063212083740955"><ele>239.75</ele><time>2026-04-19T12:46:45.997Z</time></trkpt><trkpt lat="44.75167373819411" lon="1.0633874312013143"><ele>240.5</ele><time>2026-04-19T12:46:46.997Z</time></trkpt><trkpt lat="44.751626142352016" lon="1.0635700467020601"><ele>241.25</ele><time>2026-04-19T12:46:47.997Z</time></trkpt><trkpt lat="44.75157760534867" lon="1.0637639483659571"><ele>242.0</ele><time>2026-04-19T12:46:48.997Z</time></trkpt><trkpt lat="44.75152760664351" lon="1.063961114745682"><ele>243.66666666666669</ele><time>2026-04-19T12:46:49.997Z</time></trkpt><trkpt lat="44.75147372815237" lon="1.0641644871014"><ele>245.33333333333331</ele><time>2026-04-19T12:46:50.997Z</time></trkpt><trkpt lat="44.751411433562495" lon="1.0643628574528818"><ele>247.0</ele><time>2026-04-19T12:46:51.997Z</time></trkpt><trkpt lat="44.751355814963254" lon="1.0645683317756525"><ele>247.0</ele><time>2026-04-19T12:46:52.997Z</time></trkpt><trkpt lat="44.75130252823253" lon="1.0647724888236243"><ele>247.0</ele><time>2026-04-19T12:46:53.997Z</time></trkpt><trkpt lat="44.75125050802729" lon="1.0649907929451563"><ele>247.0</ele><time>2026-04-19T12:46:54.997Z</time></trkpt><trkpt lat="44.7511983959057" lon="1.065201767984806"><ele>247.33333333333331</ele><time>2026-04-19T12:46:55.997Z</time></trkpt><trkpt lat="44.75113935622566" lon="1.065412629434516"><ele>247.66666666666669</ele><time>2026-04-19T12:46:56.997Z</time></trkpt><trkpt lat="44.751067156124776" lon="1.0656363365529602"><ele>248.0</ele><time>2026-04-19T12:46:57.997Z</time></trkpt><trkpt lat="44.751010911838854" lon="1.0658497509623608"><ele>250.33333333333334</ele><time>2026-04-19T12:46:58.997Z</time></trkpt><trkpt lat="44.75095253450493" lon="1.0660712908329015"><ele>252.66666666666669</ele><time>2026-04-19T12:46:59.997Z</time></trkpt><trkpt lat="44.75088400118246" lon="1.0663042373872575"><ele>255.0</ele><time>2026-04-19T12:47:00.997Z</time></trkpt><trkpt lat="44.75083242551648" lon="1.066547700483466"><ele>254.0</ele><time>2026-04-19T12:47:01.997Z</time></trkpt><trkpt lat="44.750762284416346" lon="1.0668038099077135"><ele>253.0</ele><time>2026-04-19T12:47:02.997Z</time></trkpt><trkpt lat="44.75069121860701" lon="1.0670474481256507"><ele>252.0</ele><time>2026-04-19T12:47:03.997Z</time></trkpt><trkpt lat="44.7506174169759" lon="1.0672922061206058"><ele>250.33333333333331</ele><time>2026-04-19T12:47:04.997Z</time></trkpt><trkpt lat="44.75054910367332" lon="1.0675478832252694"><ele>248.66666666666666</ele><time>2026-04-19T12:47:05.997Z</time></trkpt><trkpt lat="44.75049641358177" lon="1.067783280726317"><ele>247.0</ele><time>2026-04-19T12:47:06.997Z</time></trkpt><trkpt lat="44.75043377352057" lon="1.068033340731608"><ele>247.0</ele><time>2026-04-19T12:47:07.997Z</time></trkpt><trkpt lat="44.75036437259764" lon="1.068264214791732"><ele>247.0</ele><time>2026-04-19T12:47:08.997Z</time></trkpt><trkpt lat="44.750307562085624" lon="1.0685014936702844"><ele>247.0</ele><time>2026-04-19T12:47:09.997Z</time></trkpt><trkpt lat="44.75024024005301" lon="1.0687248306177797"><ele>250.0</ele><time>2026-04-19T12:47:10.997Z</time></trkpt><trkpt lat="44.75017911646255" lon="1.0689515243233467"><ele>253.0</ele><time>2026-04-19T12:47:11.997Z</time></trkpt><trkpt lat="44.750119409455415" lon="1.0691719630584557"><ele>256.0</ele><time>2026-04-19T12:47:12.997Z</time></trkpt><trkpt lat="44.75005936861479" lon="1.0693839127449043"><ele>257.0</ele><time>2026-04-19T12:47:13.997Z</time></trkpt><trkpt lat="44.74999575196814" lon="1.0696018331390431"><ele>258.0</ele><time>2026-04-19T12:47:14.997Z</time></trkpt><trkpt lat="44.74992380074759" lon="1.0698158753153164"><ele>259.0</ele><time>2026-04-19T12:47:15.997Z</time></trkpt><trkpt lat="44.74984653698851" lon="1.070019487910337"><ele>259.0</ele><time>2026-04-19T12:47:16.997Z</time></trkpt><trkpt lat="44.74976754119198" lon="1.0702129588889662"><ele>259.0</ele><time>2026-04-19T12:47:17.997Z</time></trkpt><trkpt lat="44.74968264043841" lon="1.0703839138781848"><ele>259.0</ele><time>2026-04-19T12:47:18.997Z</time></trkpt><trkpt lat="44.74959907542721" lon="1.0705392757568255"><ele>259.0</ele><time>2026-04-19T12:47:19.997Z</time></trkpt><trkpt lat="44.74951153557197" lon="1.070696220604509"><ele>258.8</ele><time>2026-04-19T12:47:20.997Z</time></trkpt><trkpt lat="44.74943970493548" lon="1.070831526445165"><ele>258.59999999999997</ele><time>2026-04-19T12:47:21.997Z</time></trkpt><trkpt lat="44.74939239162709" lon="1.0709414583454717"><ele>258.4</ele><time>2026-04-19T12:47:22.997Z</time></trkpt><trkpt lat="44.74932546274884" lon="1.0710683319963938"><ele>258.2</ele><time>2026-04-19T12:47:23.998Z</time></trkpt><trkpt lat="44.749290780013126" lon="1.071211629509003"><ele>258.0</ele><time>2026-04-19T12:47:24.998Z</time></trkpt><trkpt lat="44.74928500866457" lon="1.071406887854487"><ele>258.0</ele><time>2026-04-19T12:47:25.998Z</time></trkpt><trkpt lat="44.7492787637944" lon="1.0715732873862394"><ele>258.0</ele><time>2026-04-19T12:47:26.998Z</time></trkpt><trkpt lat="44.749288155522336" lon="1.0717532235315717"><ele>258.0</ele><time>2026-04-19T12:47:27.998Z</time></trkpt><trkpt lat="44.749321007671355" lon="1.071907023853581"><ele>258.0</ele><time>2026-04-19T12:47:28.998Z</time></trkpt><trkpt lat="44.749340234" lon="1.072104557882258"><ele>257.75</ele><time>2026-04-19T12:47:29.998Z</time></trkpt><trkpt lat="44.749384083842344" lon="1.0723049764727173"><ele>257.5</ele><time>2026-04-19T12:47:30.998Z</time></trkpt><trkpt lat="44.74944557020965" lon="1.0724969604670642"><ele>257.25</ele><time>2026-04-19T12:47:31.998Z</time></trkpt><trkpt lat="44.74948054152986" lon="1.0726906718895894"><ele>257.0</ele><time>2026-04-19T12:47:32.998Z</time></trkpt><trkpt lat="44.74953059594333" lon="1.0728829304023675"><ele>257.5</ele><time>2026-04-19T12:47:33.998Z</time></trkpt><trkpt lat="44.749562904807256" lon="1.0730912310447376"><ele>258.0</ele><time>2026-04-19T12:47:34.998Z</time></trkpt><trkpt lat="44.7495804454675" lon="1.0732967388872268"><ele>258.5</ele><time>2026-04-19T12:47:35.998Z</time></trkpt><trkpt lat="44.74960041735539" lon="1.0734953510522895"><ele>259.0</ele><time>2026-04-19T12:47:36.998Z</time></trkpt><trkpt lat="44.74959848429639" lon="1.0736895439555323"><ele>258.0</ele><time>2026-04-19T12:47:37.998Z</time></trkpt><trkpt lat="44.749599444673365" lon="1.0738844777604772"><ele>257.0</ele><time>2026-04-19T12:47:38.998Z</time></trkpt><trkpt lat="44.749597641571356" lon="1.0740711048395482"><ele>256.0</ele><time>2026-04-19T12:47:39.998Z</time></trkpt><trkpt lat="44.74959459713666" lon="1.0742791290595723"><ele>255.0</ele><time>2026-04-19T12:47:40.998Z</time></trkpt><trkpt lat="44.7495916403915" lon="1.0744811616429881"><ele>255.0</ele><time>2026-04-19T12:47:41.998Z</time></trkpt><trkpt lat="44.74960253967827" lon="1.0746766452276735"><ele>255.0</ele><time>2026-04-19T12:47:42.998Z</time></trkpt><trkpt lat="44.74959062224079" lon="1.0748984160452748"><ele>255.0</ele><time>2026-04-19T12:47:43.998Z</time></trkpt><trkpt lat="44.749579915145105" lon="1.0751159108135802"><ele>255.66666666666669</ele><time>2026-04-19T12:47:44.998Z</time></trkpt><trkpt lat="44.749586763173056" lon="1.0753357726495834"><ele>256.33333333333337</ele><time>2026-04-19T12:47:45.998Z</time></trkpt><trkpt lat="44.749588505811836" lon="1.0755526224993526"><ele>257.0</ele><time>2026-04-19T12:47:46.998Z</time></trkpt><trkpt lat="44.74958347392329" lon="1.0757690969646883"><ele>257.5</ele><time>2026-04-19T12:47:47.998Z</time></trkpt><trkpt lat="44.749587010135876" lon="1.0759830400967267"><ele>258.0</ele><time>2026-04-19T12:47:48.998Z</time></trkpt><trkpt lat="44.7495888606126" lon="1.0761867170938884"><ele>258.5</ele><time>2026-04-19T12:47:49.998Z</time></trkpt><trkpt lat="44.749587026825346" lon="1.076397877993337"><ele>259.0</ele><time>2026-04-19T12:47:50.998Z</time></trkpt><trkpt lat="44.74959421825769" lon="1.076598289788523"><ele>260.0</ele><time>2026-04-19T12:47:51.998Z</time></trkpt><trkpt lat="44.74959408427274" lon="1.0768054955779518"><ele>261.0</ele><time>2026-04-19T12:47:52.998Z</time></trkpt><trkpt lat="44.74958880919375" lon="1.0770192154038418"><ele>262.0</ele><time>2026-04-19T12:47:53.998Z</time></trkpt><trkpt lat="44.749591791250424" lon="1.077233315480372"><ele>261.5</ele><time>2026-04-19T12:47:54.998Z</time></trkpt><trkpt lat="44.7495911413464" lon="1.0774424217419725"><ele>261.0</ele><time>2026-04-19T12:47:55.998Z</time></trkpt><trkpt lat="44.74959793865515" lon="1.0776594136855338"><ele>260.5</ele><time>2026-04-19T12:47:56.998Z</time></trkpt><trkpt lat="44.749596139698525" lon="1.0778619642631544"><ele>260.0</ele><time>2026-04-19T12:47:57.998Z</time></trkpt><trkpt lat="44.74959445100982" lon="1.0780714100544033"><ele>260.0</ele><time>2026-04-19T12:47:58.998Z</time></trkpt><trkpt lat="44.74958993928227" lon="1.0782665673474068"><ele>260.0</ele><time>2026-04-19T12:47:59.998Z</time></trkpt><trkpt lat="44.74959179975472" lon="1.0784599430299215"><ele>260.0</ele><time>2026-04-19T12:48:00.998Z</time></trkpt><trkpt lat="44.749602597708865" lon="1.0786621403864054"><ele>260.0</ele><time>2026-04-19T12:48:01.998Z</time></trkpt><trkpt lat="44.74958672732247" lon="1.0788698576776858"><ele>260.2</ele><time>2026-04-19T12:48:02.998Z</time></trkpt><trkpt lat="44.749581661019164" lon="1.0790308491132956"><ele>260.4</ele><time>2026-04-19T12:48:03.999Z</time></trkpt><trkpt lat="44.749585508217685" lon="1.0791815273244272"><ele>260.6</ele><time>2026-04-19T12:48:04.999Z</time></trkpt><trkpt lat="44.749586871070576" lon="1.079287368264112"><ele>260.8</ele><time>2026-04-19T12:48:05.999Z</time></trkpt><trkpt lat="44.74959073538105" lon="1.0794236182415267"><ele>261.0</ele><time>2026-04-19T12:48:07.999Z</time></trkpt><trkpt lat="44.74956282907464" lon="1.0795295059875851"><ele>261.5</ele><time>2026-04-19T12:48:09.999Z</time></trkpt><trkpt lat="44.749578927910875" lon="1.0796153621006164"><ele>262.0</ele><time>2026-04-19T12:49:48.998Z</time></trkpt><trkpt lat="44.74958304445165" lon="1.079757352761092"><ele>262.5</ele><time>2026-04-19T12:49:51.998Z</time></trkpt><trkpt lat="44.749582349079716" lon="1.0798539224475772"><ele>263.0</ele><time>2026-04-19T12:49:52.998Z</time></trkpt><trkpt lat="44.74958148341442" lon="1.0799741416920225"><ele>263.5</ele><time>2026-04-19T12:49:53.998Z</time></trkpt><trkpt lat="44.74957682127332" lon="1.0801063966638353"><ele>264.0</ele><time>2026-04-19T12:49:54.998Z</time></trkpt><trkpt lat="44.749575902374474" lon="1.0802344208712864"><ele>264.8</ele><time>2026-04-19T12:49:55.998Z</time></trkpt><trkpt lat="44.749578577352544" lon="1.0803623215097287"><ele>265.59999999999997</ele><time>2026-04-19T12:49:56.998Z</time></trkpt><trkpt lat="44.749573649368514" lon="1.0805046531814484"><ele>266.4</ele><time>2026-04-19T12:49:57.998Z</time></trkpt><trkpt lat="44.74957058599971" lon="1.0806498588580975"><ele>267.2</ele><time>2026-04-19T12:49:58.998Z</time></trkpt><trkpt lat="44.749570944223294" lon="1.0807982197590085"><ele>268.0</ele><time>2026-04-19T12:49:59.998Z</time></trkpt><trkpt lat="44.749569468921756" lon="1.0809391385900509"><ele>268.6</ele><time>2026-04-19T12:50:00.998Z</time></trkpt><trkpt lat="44.74956209624486" lon="1.0810888118745317"><ele>269.20000000000005</ele><time>2026-04-19T12:50:01.998Z</time></trkpt><trkpt lat="44.749551183482126" lon="1.081239572609725"><ele>269.8</ele><time>2026-04-19T12:50:02.998Z</time></trkpt><trkpt lat="44.74953575484307" lon="1.0813725245264127"><ele>270.40000000000003</ele><time>2026-04-19T12:50:03.998Z</time></trkpt><trkpt lat="44.7495314596252" lon="1.0815076494448357"><ele>271.0</ele><time>2026-04-19T12:50:04.998Z</time></trkpt><trkpt lat="44.74951116951061" lon="1.0816432557273221"><ele>269.40000000000003</ele><time>2026-04-19T12:50:05.998Z</time></trkpt><trkpt lat="44.749500798087254" lon="1.0817865194408844"><ele>267.8</ele><time>2026-04-19T12:50:06.998Z</time></trkpt><trkpt lat="44.74948137392648" lon="1.0819209064658748"><ele>266.20000000000005</ele><time>2026-04-19T12:50:07.998Z</time></trkpt><trkpt lat="44.74945568763853" lon="1.0820458315275527"><ele>264.6</ele><time>2026-04-19T12:50:08.998Z</time></trkpt><trkpt lat="44.74943114545559" lon="1.082191770380083"><ele>263.0</ele><time>2026-04-19T12:50:09.998Z</time></trkpt><trkpt lat="44.74941847024133" lon="1.0823120109393298"><ele>262.0</ele><time>2026-04-19T12:50:10.998Z</time></trkpt><trkpt lat="44.74940023537681" lon="1.0824385519140816"><ele>261.0</ele><time>2026-04-19T12:50:11.998Z</time></trkpt><trkpt lat="44.74937453199614" lon="1.0825654272577105"><ele>260.0</ele><time>2026-04-19T12:50:12.998Z</time></trkpt><trkpt lat="44.749348132093566" lon="1.0826861770127998"><ele>259.0</ele><time>2026-04-19T12:50:13.998Z</time></trkpt><trkpt lat="44.74932524831763" lon="1.082814062192275"><ele>258.0</ele><time>2026-04-19T12:50:14.998Z</time></trkpt><trkpt lat="44.74929219193498" lon="1.0829292982065808"><ele>260.1666666666667</ele><time>2026-04-19T12:50:15.998Z</time></trkpt><trkpt lat="44.74926508655292" lon="1.0830374666771336"><ele>262.3333333333333</ele><time>2026-04-19T12:50:16.998Z</time></trkpt><trkpt lat="44.74921999354263" lon="1.08313887303778"><ele>264.5</ele><time>2026-04-19T12:50:17.998Z</time></trkpt><trkpt lat="44.74918903763785" lon="1.0832486060574003"><ele>266.66666666666663</ele><time>2026-04-19T12:50:18.997Z</time></trkpt><trkpt lat="44.74915540322105" lon="1.0833469437305363"><ele>268.8333333333333</ele><time>2026-04-19T12:50:19.997Z</time></trkpt><trkpt lat="44.749120710116564" lon="1.083439557617494"><ele>271.0</ele><time>2026-04-19T12:50:20.997Z</time></trkpt><trkpt lat="44.74909069970287" lon="1.0835187118854182"><ele>271.0</ele><time>2026-04-19T12:50:21.996Z</time></trkpt><trkpt lat="44.749061919679626" lon="1.0836031398167352"><ele>271.0</ele><time>2026-04-19T12:50:22.996Z</time></trkpt><trkpt lat="44.74901002370253" lon="1.0837735258468992"><ele>271.0</ele><time>2026-04-19T12:50:24.996Z</time></trkpt><trkpt lat="44.74896419485833" lon="1.0838769514158955"><ele>271.0</ele><time>2026-04-19T12:50:25.995Z</time></trkpt><trkpt lat="44.74893104414297" lon="1.0840050881895549"><ele>271.0</ele><time>2026-04-19T12:50:26.995Z</time></trkpt><trkpt lat="44.7488915794596" lon="1.0841630770780664"><ele>270.5</ele><time>2026-04-19T12:50:27.995Z</time></trkpt><trkpt lat="44.74886105744633" lon="1.0843334762905463"><ele>270.0</ele><time>2026-04-19T12:50:28.995Z</time></trkpt><trkpt lat="44.74882833035121" lon="1.084489983907738"><ele>269.5</ele><time>2026-04-19T12:50:29.995Z</time></trkpt><trkpt lat="44.748831818286746" lon="1.0846563962470508"><ele>269.0</ele><time>2026-04-19T12:50:30.995Z</time></trkpt><trkpt lat="44.748821756470946" lon="1.0848312153908033"><ele>268.75</ele><time>2026-04-19T12:50:31.992Z</time></trkpt><trkpt lat="44.748813568464016" lon="1.0850037879528"><ele>268.5</ele><time>2026-04-19T12:50:32.992Z</time></trkpt><trkpt lat="44.7488180018093" lon="1.085176430189624"><ele>268.25</ele><time>2026-04-19T12:50:33.992Z</time></trkpt><trkpt lat="44.74882621265266" lon="1.0853445886624487"><ele>268.0</ele><time>2026-04-19T12:50:34.992Z</time></trkpt><trkpt lat="44.748843864115635" lon="1.0855135004589345"><ele>268.0</ele><time>2026-04-19T12:50:35.991Z</time></trkpt><trkpt lat="44.7488491455023" lon="1.0856784725929054"><ele>268.0</ele><time>2026-04-19T12:50:36.991Z</time></trkpt><trkpt lat="44.74885895617812" lon="1.0858452167795525"><ele>268.0</ele><time>2026-04-19T12:50:37.991Z</time></trkpt><trkpt lat="44.74889360659431" lon="1.0860071585317799"><ele>268.0</ele><time>2026-04-19T12:50:38.991Z</time></trkpt><trkpt lat="44.74893001937699" lon="1.086158807047142"><ele>269.25</ele><time>2026-04-19T12:50:39.991Z</time></trkpt><trkpt lat="44.74897993896582" lon="1.0863416309464857"><ele>270.5</ele><time>2026-04-19T12:50:40.991Z</time></trkpt><trkpt lat="44.74904074753438" lon="1.0864783887586669"><ele>271.75</ele><time>2026-04-19T12:50:41.991Z</time></trkpt><trkpt lat="44.749077548181035" lon="1.086647599084464"><ele>273.0</ele><time>2026-04-19T12:50:42.991Z</time></trkpt><trkpt lat="44.74915299896082" lon="1.086809883284606"><ele>274.0</ele><time>2026-04-19T12:50:43.991Z</time></trkpt><trkpt lat="44.749203765811686" lon="1.0869661366295378"><ele>275.0</ele><time>2026-04-19T12:50:44.99Z</time></trkpt><trkpt lat="44.74926884932319" lon="1.0871163631792549"><ele>276.0</ele><time>2026-04-19T12:50:45.99Z</time></trkpt><trkpt lat="44.74932969374099" lon="1.087265846702758"><ele>277.0</ele><time>2026-04-19T12:50:46.99Z</time></trkpt><trkpt lat="44.74939626511631" lon="1.087404983537409"><ele>274.5</ele><time>2026-04-19T12:50:47.99Z</time></trkpt><trkpt lat="44.74946666797537" lon="1.0875011426510044"><ele>272.0</ele><time>2026-04-19T12:50:48.99Z</time></trkpt><trkpt lat="44.749550596463656" lon="1.0876115850567205"><ele>269.5</ele><time>2026-04-19T12:50:49.99Z</time></trkpt><trkpt lat="44.74964339471302" lon="1.0877254873839555"><ele>267.0</ele><time>2026-04-19T12:50:50.99Z</time></trkpt><trkpt lat="44.74973805086749" lon="1.0878154627017687"><ele>267.0</ele><time>2026-04-19T12:50:51.99Z</time></trkpt><trkpt lat="44.74983839819262" lon="1.087892287471617"><ele>267.0</ele><time>2026-04-19T12:50:52.99Z</time></trkpt><trkpt lat="44.74995779977695" lon="1.0879418446273548"><ele>267.0</ele><time>2026-04-19T12:50:53.99Z</time></trkpt><trkpt lat="44.750094784067784" lon="1.0880149829425245"><ele>267.0</ele><time>2026-04-19T12:50:54.99Z</time></trkpt><trkpt lat="44.75022021112774" lon="1.0880772705765598"><ele>266.8</ele><time>2026-04-19T12:50:55.99Z</time></trkpt><trkpt lat="44.75032334926409" lon="1.088123423864299"><ele>266.6</ele><time>2026-04-19T12:50:56.99Z</time></trkpt><trkpt lat="44.75042741534158" lon="1.088174914387703"><ele>266.40000000000003</ele><time>2026-04-19T12:50:57.99Z</time></trkpt><trkpt lat="44.75053175444597" lon="1.0882266619866665"><ele>266.2</ele><time>2026-04-19T12:50:58.99Z</time></trkpt><trkpt lat="44.75061974822666" lon="1.0882765361488738"><ele>266.0</ele><time>2026-04-19T12:50:59.99Z</time></trkpt><trkpt lat="44.75070428773558" lon="1.0883456628097223"><ele>267.8</ele><time>2026-04-19T12:51:00.99Z</time></trkpt><trkpt lat="44.75077700309917" lon="1.0884221300493429"><ele>269.6</ele><time>2026-04-19T12:51:01.99Z</time></trkpt><trkpt lat="44.750845915133965" lon="1.0885128463304563"><ele>271.4</ele><time>2026-04-19T12:51:02.99Z</time></trkpt><trkpt lat="44.750884173479854" lon="1.0886355217480828"><ele>273.2</ele><time>2026-04-19T12:51:03.99Z</time></trkpt><trkpt lat="44.750918134145934" lon="1.0887676182036883"><ele>275.0</ele><time>2026-04-19T12:51:04.99Z</time></trkpt><trkpt lat="44.75093368290964" lon="1.0889056055407107"><ele>275.0</ele><time>2026-04-19T12:51:05.99Z</time></trkpt><trkpt lat="44.75095010226046" lon="1.089066306181855"><ele>275.0</ele><time>2026-04-19T12:51:06.99Z</time></trkpt><trkpt lat="44.75096749799343" lon="1.0892559950746716"><ele>275.0</ele><time>2026-04-19T12:51:07.99Z</time></trkpt><trkpt lat="44.75098579089538" lon="1.0894482579827398"><ele>275.0</ele><time>2026-04-19T12:51:08.99Z</time></trkpt><trkpt lat="44.75100693409605" lon="1.0896698025062928"><ele>275.75</ele><time>2026-04-19T12:51:09.99Z</time></trkpt><trkpt lat="44.75102756769767" lon="1.089879964420851"><ele>276.5</ele><time>2026-04-19T12:51:10.99Z</time></trkpt><trkpt lat="44.751041193201125" lon="1.0900906684089233"><ele>277.25</ele><time>2026-04-19T12:51:11.99Z</time></trkpt><trkpt lat="44.75105639975921" lon="1.0902931385687233"><ele>278.0</ele><time>2026-04-19T12:51:12.99Z</time></trkpt><trkpt lat="44.751091917788926" lon="1.0904904790576035"><ele>274.5</ele><time>2026-04-19T12:51:13.99Z</time></trkpt><trkpt lat="44.75113126063298" lon="1.0906845613528084"><ele>271.0</ele><time>2026-04-19T12:51:14.99Z</time></trkpt><trkpt lat="44.75117351417387" lon="1.0908658095584043"><ele>267.5</ele><time>2026-04-19T12:51:15.99Z</time></trkpt><trkpt lat="44.75123452274116" lon="1.0910360297211321"><ele>264.0</ele><time>2026-04-19T12:51:16.99Z</time></trkpt><trkpt lat="44.751285271861775" lon="1.0912132881199696"><ele>263.0</ele><time>2026-04-19T12:51:17.99Z</time></trkpt><trkpt lat="44.751324720624176" lon="1.091380470818958"><ele>262.0</ele><time>2026-04-19T12:51:18.99Z</time></trkpt><trkpt lat="44.7513633405288" lon="1.0915436095960829"><ele>261.0</ele><time>2026-04-19T12:51:19.99Z</time></trkpt><trkpt lat="44.751400985055895" lon="1.0917176777044164"><ele>260.0</ele><time>2026-04-19T12:51:20.99Z</time></trkpt><trkpt lat="44.751433251757184" lon="1.0919002187702667"><ele>260.0</ele><time>2026-04-19T12:51:21.99Z</time></trkpt><trkpt lat="44.75145946950243" lon="1.0920788827893253"><ele>260.0</ele><time>2026-04-19T12:51:22.99Z</time></trkpt><trkpt lat="44.751498691070985" lon="1.0922309863278363"><ele>260.0</ele><time>2026-04-19T12:51:23.99Z</time></trkpt><trkpt lat="44.751543666229594" lon="1.0923819657472587"><ele>260.0</ele><time>2026-04-19T12:51:24.99Z</time></trkpt><trkpt lat="44.75159422744837" lon="1.0925035185383587"><ele>260.75</ele><time>2026-04-19T12:51:25.99Z</time></trkpt><trkpt lat="44.75169038607034" lon="1.0926172144363344"><ele>261.5</ele><time>2026-04-19T12:51:26.99Z</time></trkpt><trkpt lat="44.751795210089846" lon="1.0927049407859803"><ele>262.25</ele><time>2026-04-19T12:51:27.99Z</time></trkpt><trkpt lat="44.75190872715561" lon="1.092762585163509"><ele>263.0</ele><time>2026-04-19T12:51:28.99Z</time></trkpt><trkpt lat="44.75200551707304" lon="1.0927994323599175"><ele>260.5</ele><time>2026-04-19T12:51:29.99Z</time></trkpt><trkpt lat="44.75210009045155" lon="1.092837208951817"><ele>258.0</ele><time>2026-04-19T12:51:30.99Z</time></trkpt><trkpt lat="44.752191324671" lon="1.0928761239226223"><ele>255.5</ele><time>2026-04-19T12:51:31.99Z</time></trkpt><trkpt lat="44.75224934911153" lon="1.0929331828447506"><ele>253.0</ele><time>2026-04-19T12:51:32.99Z</time></trkpt><trkpt lat="44.75231603547706" lon="1.0929997733217893"><ele>250.50000000000003</ele><time>2026-04-19T12:51:33.99Z</time></trkpt><trkpt lat="44.75235356365571" lon="1.0931208107148127"><ele>248.0</ele><time>2026-04-19T12:51:34.99Z</time></trkpt><trkpt lat="44.75237444888706" lon="1.0932376016202745"><ele>249.2</ele><time>2026-04-19T12:51:35.99Z</time></trkpt><trkpt lat="44.75239326466739" lon="1.0933512289941172"><ele>250.4</ele><time>2026-04-19T12:51:36.99Z</time></trkpt><trkpt lat="44.75240084893963" lon="1.093473402760855"><ele>251.59999999999997</ele><time>2026-04-19T12:51:37.99Z</time></trkpt><trkpt lat="44.75239004874725" lon="1.0936061131604493"><ele>252.79999999999998</ele><time>2026-04-19T12:51:38.99Z</time></trkpt><trkpt lat="44.75236719355145" lon="1.093750696672793"><ele>254.0</ele><time>2026-04-19T12:51:39.99Z</time></trkpt><trkpt lat="44.752318584570766" lon="1.093896732243831"><ele>254.0</ele><time>2026-04-19T12:51:40.99Z</time></trkpt><trkpt lat="44.752296388621545" lon="1.0940508846605053"><ele>253.99999999999997</ele><time>2026-04-19T12:51:41.99Z</time></trkpt><trkpt lat="44.75223574848808" lon="1.0941807975269324"><ele>253.99999999999997</ele><time>2026-04-19T12:51:42.99Z</time></trkpt><trkpt lat="44.752208668033205" lon="1.094310465421041"><ele>254.0</ele><time>2026-04-19T12:51:43.99Z</time></trkpt><trkpt lat="44.75218476147432" lon="1.0944185168403755"><ele>254.0</ele><time>2026-04-19T12:51:44.99Z</time></trkpt><trkpt lat="44.75215668918103" lon="1.0945171131613527"><ele>253.83333333333334</ele><time>2026-04-19T12:51:45.991Z</time></trkpt><trkpt lat="44.752139921621335" lon="1.0946041833236548"><ele>253.66666666666669</ele><time>2026-04-19T12:51:46.991Z</time></trkpt><trkpt lat="44.75210004402141" lon="1.094741153959144"><ele>253.5</ele><time>2026-04-19T12:51:48.991Z</time></trkpt><trkpt lat="44.752072454440324" lon="1.094835094971184"><ele>253.33333333333331</ele><time>2026-04-19T12:51:50.991Z</time></trkpt><trkpt lat="44.75205807772985" lon="1.094933198410692"><ele>253.16666666666666</ele><time>2026-04-19T12:52:30.991Z</time></trkpt><trkpt lat="44.75203036616103" lon="1.095068656984582"><ele>253.0</ele><time>2026-04-19T12:52:33.992Z</time></trkpt><trkpt lat="44.751995125221086" lon="1.0952307981926677"><ele>252.83333333333331</ele><time>2026-04-19T12:52:35.992Z</time></trkpt><trkpt lat="44.751965511700476" lon="1.095332017733383"><ele>252.66666666666666</ele><time>2026-04-19T12:52:36.992Z</time></trkpt><trkpt lat="44.75194871742364" lon="1.095436543670179"><ele>252.5</ele><time>2026-04-19T12:52:37.989Z</time></trkpt><trkpt lat="44.751935581218554" lon="1.0955451035931096"><ele>252.33333333333331</ele><time>2026-04-19T12:52:38.988Z</time></trkpt><trkpt lat="44.75192783923304" lon="1.0956551501679905"><ele>252.16666666666666</ele><time>2026-04-19T12:52:39.988Z</time></trkpt><trkpt lat="44.75191830841195" lon="1.095768659207949"><ele>252.0</ele><time>2026-04-19T12:52:40.989Z</time></trkpt><trkpt lat="44.75190708646342" lon="1.0958905593286439"><ele>251.0</ele><time>2026-04-19T12:52:41.989Z</time></trkpt><trkpt lat="44.75186664542798" lon="1.0960139270928517"><ele>250.0</ele><time>2026-04-19T12:52:42.989Z</time></trkpt><trkpt lat="44.751849522207195" lon="1.0961258521317285"><ele>249.0</ele><time>2026-04-19T12:52:43.988Z</time></trkpt><trkpt lat="44.75182967132034" lon="1.0962353366707427"><ele>248.0</ele><time>2026-04-19T12:52:44.988Z</time></trkpt><trkpt lat="44.751805727108035" lon="1.0963471809267582"><ele>247.0</ele><time>2026-04-19T12:52:45.988Z</time></trkpt><trkpt lat="44.75176724081919" lon="1.0964513382951828"><ele>246.0</ele><time>2026-04-19T12:52:46.988Z</time></trkpt><trkpt lat="44.75172073798477" lon="1.0965549652802955"><ele>245.4</ele><time>2026-04-19T12:52:47.989Z</time></trkpt><trkpt lat="44.751644401032856" lon="1.0966402087356937"><ele>244.8</ele><time>2026-04-19T12:52:48.989Z</time></trkpt><trkpt lat="44.75155782092344" lon="1.0967250581973118"><ele>244.20000000000002</ele><time>2026-04-19T12:52:49.989Z</time></trkpt><trkpt lat="44.751473959225166" lon="1.0968009956581"><ele>243.60000000000002</ele><time>2026-04-19T12:52:50.988Z</time></trkpt><trkpt lat="44.751379159034656" lon="1.0968402057914117"><ele>243.0</ele><time>2026-04-19T12:52:51.988Z</time></trkpt><trkpt lat="44.7512752131942" lon="1.0968294351041719"><ele>243.0</ele><time>2026-04-19T12:52:52.988Z</time></trkpt><trkpt lat="44.75117600821388" lon="1.096797576173347"><ele>243.0</ele><time>2026-04-19T12:52:53.988Z</time></trkpt><trkpt lat="44.75106558875179" lon="1.0967445445737456"><ele>243.0</ele><time>2026-04-19T12:52:54.988Z</time></trkpt><trkpt lat="44.75096933771951" lon="1.096678907561273"><ele>243.0</ele><time>2026-04-19T12:52:55.988Z</time></trkpt><trkpt lat="44.75086162806218" lon="1.0966221432703311"><ele>243.0</ele><time>2026-04-19T12:52:56.988Z</time></trkpt><trkpt lat="44.75077166005279" lon="1.0965856446076199"><ele>242.2</ele><time>2026-04-19T12:52:57.988Z</time></trkpt><trkpt lat="44.75068052389098" lon="1.0965670985233111"><ele>241.4</ele><time>2026-04-19T12:52:58.988Z</time></trkpt><trkpt lat="44.75059448947475" lon="1.0966043267818737"><ele>240.59999999999997</ele><time>2026-04-19T12:52:59.988Z</time></trkpt><trkpt lat="44.75051699533641" lon="1.0967032095243148"><ele>239.79999999999998</ele><time>2026-04-19T12:53:00.988Z</time></trkpt><trkpt lat="44.750459699284775" lon="1.0968239781998603"><ele>239.0</ele><time>2026-04-19T12:53:01.989Z</time></trkpt><trkpt lat="44.75043976811491" lon="1.0969664602704758"><ele>239.0</ele><time>2026-04-19T12:53:02.989Z</time></trkpt><trkpt lat="44.7504728504488" lon="1.0971069742275699"><ele>239.0</ele><time>2026-04-19T12:53:03.989Z</time></trkpt><trkpt lat="44.75050984670213" lon="1.0972593365896004"><ele>239.0</ele><time>2026-04-19T12:53:04.989Z</time></trkpt><trkpt lat="44.75062091874416" lon="1.0973541441677697"><ele>239.0</ele><time>2026-04-19T12:53:05.989Z</time></trkpt><trkpt lat="44.75067767915903" lon="1.0974719119550513"><ele>237.39999999999998</ele><time>2026-04-19T12:53:06.989Z</time></trkpt><trkpt lat="44.7507204062478" lon="1.0976027283948075"><ele>235.79999999999998</ele><time>2026-04-19T12:53:07.989Z</time></trkpt><trkpt lat="44.75073416528865" lon="1.0977287388419812"><ele>234.20000000000002</ele><time>2026-04-19T12:53:08.989Z</time></trkpt><trkpt lat="44.75070938023611" lon="1.0978445060822217"><ele>232.60000000000002</ele><time>2026-04-19T12:53:09.989Z</time></trkpt><trkpt lat="44.75065803208783" lon="1.097944398800968"><ele>231.0</ele><time>2026-04-19T12:53:10.989Z</time></trkpt><trkpt lat="44.750589028206704" lon="1.0980170774108975"><ele>231.0</ele><time>2026-04-19T12:53:11.989Z</time></trkpt><trkpt lat="44.75048795200621" lon="1.0980853659252743"><ele>231.00000000000003</ele><time>2026-04-19T12:53:12.989Z</time></trkpt><trkpt lat="44.750390453687814" lon="1.0981055266159987"><ele>231.00000000000003</ele><time>2026-04-19T12:53:13.989Z</time></trkpt><trkpt lat="44.750299064301345" lon="1.0981428126624893"><ele>231.0</ele><time>2026-04-19T12:53:14.989Z</time></trkpt><trkpt lat="44.75022629584113" lon="1.0982040591542508"><ele>231.0</ele><time>2026-04-19T12:53:15.989Z</time></trkpt><trkpt lat="44.75016837709692" lon="1.0982980919443743"><ele>231.0</ele><time>2026-04-19T12:53:16.989Z</time></trkpt><trkpt lat="44.75012840083494" lon="1.0984167318732012"><ele>231.00000000000003</ele><time>2026-04-19T12:53:17.989Z</time></trkpt><trkpt lat="44.75010815360439" lon="1.0985397763151032"><ele>231.00000000000003</ele><time>2026-04-19T12:53:18.989Z</time></trkpt><trkpt lat="44.750116937481515" lon="1.0986663864372388"><ele>231.0</ele><time>2026-04-19T12:53:19.989Z</time></trkpt><trkpt lat="44.75013598438956" lon="1.09879667512333"><ele>231.0</ele><time>2026-04-19T12:53:20.989Z</time></trkpt><trkpt lat="44.750177041247206" lon="1.0989075743481471"><ele>229.20000000000002</ele><time>2026-04-19T12:53:21.989Z</time></trkpt><trkpt lat="44.750221679879495" lon="1.0990221263462325"><ele>227.40000000000003</ele><time>2026-04-19T12:53:22.989Z</time></trkpt><trkpt lat="44.750320172358144" lon="1.099076629845628"><ele>225.6</ele><time>2026-04-19T12:53:23.989Z</time></trkpt><trkpt lat="44.75041221905214" lon="1.0991353218030437"><ele>223.8</ele><time>2026-04-19T12:53:24.989Z</time></trkpt><trkpt lat="44.750523317867575" lon="1.099164744499658"><ele>222.0</ele><time>2026-04-19T12:53:25.989Z</time></trkpt><trkpt lat="44.750622223814304" lon="1.0992299277207327"><ele>221.2</ele><time>2026-04-19T12:53:26.989Z</time></trkpt><trkpt lat="44.75072702182577" lon="1.0992777118836514"><ele>220.39999999999998</ele><time>2026-04-19T12:53:27.989Z</time></trkpt><trkpt lat="44.75082737788861" lon="1.0993472113089873"><ele>219.60000000000002</ele><time>2026-04-19T12:53:28.989Z</time></trkpt><trkpt lat="44.75091026437591" lon="1.0994502596372675"><ele>218.8</ele><time>2026-04-19T12:53:29.989Z</time></trkpt><trkpt lat="44.750973003064814" lon="1.0995604845111695"><ele>218.0</ele><time>2026-04-19T12:53:30.989Z</time></trkpt><trkpt lat="44.75103408222824" lon="1.0997090708294444"><ele>215.75</ele><time>2026-04-19T12:53:31.989Z</time></trkpt><trkpt lat="44.751101462341836" lon="1.0998616406472912"><ele>213.5</ele><time>2026-04-19T12:53:32.989Z</time></trkpt><trkpt lat="44.75115353674109" lon="1.1000297455021228"><ele>211.25</ele><time>2026-04-19T12:53:33.989Z</time></trkpt><trkpt lat="44.75121250394241" lon="1.1002307228944217"><ele>209.0</ele><time>2026-04-19T12:53:34.989Z</time></trkpt><trkpt lat="44.751251641163435" lon="1.1004369296266119"><ele>209.0</ele><time>2026-04-19T12:53:35.989Z</time></trkpt><trkpt lat="44.75130348028139" lon="1.1006223948001448"><ele>209.0</ele><time>2026-04-19T12:53:36.989Z</time></trkpt><trkpt lat="44.75132383384594" lon="1.1008060925667051"><ele>209.0</ele><time>2026-04-19T12:53:37.989Z</time></trkpt><trkpt lat="44.75132486699947" lon="1.1009841378975411"><ele>209.0</ele><time>2026-04-19T12:53:38.989Z</time></trkpt><trkpt lat="44.75132330920037" lon="1.1011529119584358"><ele>209.0</ele><time>2026-04-19T12:53:39.989Z</time></trkpt><trkpt lat="44.751296750574994" lon="1.1013130184456648"><ele>209.0</ele><time>2026-04-19T12:53:40.989Z</time></trkpt><trkpt lat="44.75124069232708" lon="1.1014417417279387"><ele>209.0</ele><time>2026-04-19T12:53:41.989Z</time></trkpt><trkpt lat="44.75118836407595" lon="1.101564439141055"><ele>209.0</ele><time>2026-04-19T12:53:42.989Z</time></trkpt><trkpt lat="44.75110627816625" lon="1.1016614244075746"><ele>209.0</ele><time>2026-04-19T12:53:43.989Z</time></trkpt><trkpt lat="44.75102790607903" lon="1.1017668229631008"><ele>211.0</ele><time>2026-04-19T12:53:44.989Z</time></trkpt><trkpt lat="44.75090982116501" lon="1.1017996845357334"><ele>213.0</ele><time>2026-04-19T12:53:45.99Z</time></trkpt><trkpt lat="44.75077920209006" lon="1.101831298994041"><ele>215.0</ele><time>2026-04-19T12:53:46.99Z</time></trkpt><trkpt lat="44.750661047417005" lon="1.101852190458366"><ele>217.0</ele><time>2026-04-19T12:53:47.99Z</time></trkpt><trkpt lat="44.75052756678139" lon="1.1019055942717957"><ele>217.0</ele><time>2026-04-19T12:53:48.99Z</time></trkpt><trkpt lat="44.75039582280257" lon="1.1019511290400195"><ele>217.0</ele><time>2026-04-19T12:53:49.99Z</time></trkpt><trkpt lat="44.750275902264285" lon="1.102026075753532"><ele>217.0</ele><time>2026-04-19T12:53:50.99Z</time></trkpt><trkpt lat="44.75016228395334" lon="1.1021177926438657"><ele>217.0</ele><time>2026-04-19T12:53:51.99Z</time></trkpt><trkpt lat="44.750073756713014" lon="1.1022251213284235"><ele>217.2</ele><time>2026-04-19T12:53:52.99Z</time></trkpt><trkpt lat="44.74999227305576" lon="1.1023350014067932"><ele>217.39999999999998</ele><time>2026-04-19T12:53:53.99Z</time></trkpt><trkpt lat="44.74992590136492" lon="1.1024540717158253"><ele>217.60000000000002</ele><time>2026-04-19T12:53:54.99Z</time></trkpt><trkpt lat="44.74988296970536" lon="1.1025930479594788"><ele>217.8</ele><time>2026-04-19T12:53:55.99Z</time></trkpt><trkpt lat="44.74984465885173" lon="1.1027523599979039"><ele>218.0</ele><time>2026-04-19T12:53:56.99Z</time></trkpt><trkpt lat="44.7498347432548" lon="1.1029315437702787"><ele>216.5</ele><time>2026-04-19T12:53:57.99Z</time></trkpt><trkpt lat="44.749860501254176" lon="1.1031058341500928"><ele>215.0</ele><time>2026-04-19T12:53:58.99Z</time></trkpt><trkpt lat="44.74992380637124" lon="1.1032749996397508"><ele>213.5</ele><time>2026-04-19T12:53:59.99Z</time></trkpt><trkpt lat="44.75000153248798" lon="1.1034301431997544"><ele>212.0</ele><time>2026-04-19T12:54:00.99Z</time></trkpt><trkpt lat="44.750083912392824" lon="1.103588385070514"><ele>212.0</ele><time>2026-04-19T12:54:01.99Z</time></trkpt><trkpt lat="44.75017498958415" lon="1.1037502688740501"><ele>212.0</ele><time>2026-04-19T12:54:02.99Z</time></trkpt><trkpt lat="44.75023466574315" lon="1.1039285372582077"><ele>212.0</ele><time>2026-04-19T12:54:03.99Z</time></trkpt><trkpt lat="44.75030595511996" lon="1.1040815534692106"><ele>212.0</ele><time>2026-04-19T12:54:04.99Z</time></trkpt><trkpt lat="44.750353991284086" lon="1.1042388820053985"><ele>211.0</ele><time>2026-04-19T12:54:05.99Z</time></trkpt><trkpt lat="44.75036143556956" lon="1.104383884083682"><ele>210.0</ele><time>2026-04-19T12:54:06.99Z</time></trkpt><trkpt lat="44.75032714453991" lon="1.1045232348090084"><ele>209.0</ele><time>2026-04-19T12:54:07.99Z</time></trkpt><trkpt lat="44.75026113149846" lon="1.1046491236155283"><ele>208.0</ele><time>2026-04-19T12:54:08.99Z</time></trkpt><trkpt lat="44.75019654761781" lon="1.1047843156706232"><ele>207.0</ele><time>2026-04-19T12:54:09.99Z</time></trkpt><trkpt lat="44.750137587792906" lon="1.1049089668178764"><ele>210.25</ele><time>2026-04-19T12:54:10.99Z</time></trkpt><trkpt lat="44.75008916368051" lon="1.1050481618840415"><ele>213.5</ele><time>2026-04-19T12:54:11.99Z</time></trkpt><trkpt lat="44.75005418753766" lon="1.1052148140878417"><ele>216.75</ele><time>2026-04-19T12:54:12.99Z</time></trkpt><trkpt lat="44.75006168216948" lon="1.1053816945187607"><ele>220.0</ele><time>2026-04-19T12:54:13.99Z</time></trkpt><trkpt lat="44.75007586596883" lon="1.1055335810086695"><ele>220.0</ele><time>2026-04-19T12:54:14.99Z</time></trkpt><trkpt lat="44.75008470841858" lon="1.1057024614796547"><ele>220.0</ele><time>2026-04-19T12:54:15.99Z</time></trkpt><trkpt lat="44.75007847079259" lon="1.105870494797716"><ele>220.0</ele><time>2026-04-19T12:54:16.99Z</time></trkpt><trkpt lat="44.75006024840818" lon="1.1060312015088034"><ele>220.0</ele><time>2026-04-19T12:54:17.99Z</time></trkpt><trkpt lat="44.75002610249349" lon="1.1062066448674952"><ele>219.0</ele><time>2026-04-19T12:54:18.99Z</time></trkpt><trkpt lat="44.74997824794861" lon="1.1063670173858655"><ele>218.0</ele><time>2026-04-19T12:54:19.99Z</time></trkpt><trkpt lat="44.74991934505515" lon="1.1065179611487113"><ele>217.0</ele><time>2026-04-19T12:54:20.99Z</time></trkpt><trkpt lat="44.74977273902211" lon="1.10686606462829"><ele>216.25</ele><time>2026-04-19T12:54:22.99Z</time></trkpt><trkpt lat="44.74970581470245" lon="1.107035176194003"><ele>215.5</ele><time>2026-04-19T12:54:23.99Z</time></trkpt><trkpt lat="44.74965588735271" lon="1.1072098699599038"><ele>214.75</ele><time>2026-04-19T12:54:24.99Z</time></trkpt><trkpt lat="44.74958760800864" lon="1.1073800555734081"><ele>214.0</ele><time>2026-04-19T12:54:25.99Z</time></trkpt><trkpt lat="44.74956128845963" lon="1.107531485584039"><ele>213.79999999999998</ele><time>2026-04-19T12:54:26.99Z</time></trkpt><trkpt lat="44.74951695086711" lon="1.1076790216525352"><ele>213.59999999999997</ele><time>2026-04-19T12:54:27.99Z</time></trkpt><trkpt lat="44.74948664645217" lon="1.107810272857516"><ele>213.4</ele><time>2026-04-19T12:54:28.991Z</time></trkpt><trkpt lat="44.749443081124824" lon="1.10792417019356"><ele>213.2</ele><time>2026-04-19T12:54:29.991Z</time></trkpt><trkpt lat="44.749414081968766" lon="1.1080270921597306"><ele>213.0</ele><time>2026-04-19T12:54:30.991Z</time></trkpt><trkpt lat="44.749387515235306" lon="1.1081518894911258"><ele>214.16666666666666</ele><time>2026-04-19T12:54:31.991Z</time></trkpt><trkpt lat="44.74935680541151" lon="1.1082500598731213"><ele>215.33333333333331</ele><time>2026-04-19T12:54:32.991Z</time></trkpt><trkpt lat="44.74932895638959" lon="1.108363173634888"><ele>216.5</ele><time>2026-04-19T12:54:33.991Z</time></trkpt><trkpt lat="44.74930295688622" lon="1.1084740226740306"><ele>217.66666666666666</ele><time>2026-04-19T12:54:34.991Z</time></trkpt><trkpt lat="44.749276397111345" lon="1.108581953635198"><ele>218.83333333333331</ele><time>2026-04-19T12:54:35.991Z</time></trkpt><trkpt lat="44.74924342900952" lon="1.1086949947601137"><ele>220.0</ele><time>2026-04-19T12:54:36.991Z</time></trkpt><trkpt lat="44.74920947110736" lon="1.108811436503906"><ele>219.99999999999997</ele><time>2026-04-19T12:54:37.991Z</time></trkpt><trkpt lat="44.74917729089451" lon="1.1089324833339649"><ele>220.0</ele><time>2026-04-19T12:54:38.991Z</time></trkpt><trkpt lat="44.749144551951595" lon="1.109048326347996"><ele>220.0</ele><time>2026-04-19T12:54:39.991Z</time></trkpt><trkpt lat="44.74910930599116" lon="1.1091573742069183"><ele>220.0</ele><time>2026-04-19T12:54:40.991Z</time></trkpt><trkpt lat="44.74908865963606" lon="1.1092570300004727"><ele>219.99999999999997</ele><time>2026-04-19T12:54:41.991Z</time></trkpt><trkpt lat="44.74906219844824" lon="1.1093399116591955"><ele>220.0</ele><time>2026-04-19T12:54:42.991Z</time></trkpt><trkpt lat="44.749041276565414" lon="1.1094574472245293"><ele>219.8</ele><time>2026-04-19T12:54:44.987Z</time></trkpt><trkpt lat="44.74905823892335" lon="1.1095473342443558"><ele>219.6</ele><time>2026-04-19T12:54:46.988Z</time></trkpt><trkpt lat="44.7490780743045" lon="1.1096576327174226"><ele>219.39999999999998</ele><time>2026-04-19T12:54:48.987Z</time></trkpt><trkpt lat="44.74913675867135" lon="1.1097643511781294"><ele>219.2</ele><time>2026-04-19T12:54:50.988Z</time></trkpt><trkpt lat="44.74922021066152" lon="1.1098813837843726"><ele>219.0</ele><time>2026-04-19T12:54:52.988Z</time></trkpt><trkpt lat="44.74931384035512" lon="1.1099938467561725"><ele>219.0</ele><time>2026-04-19T12:54:54.987Z</time></trkpt><trkpt lat="44.7494205693221" lon="1.1100615094024144"><ele>218.99999999999997</ele><time>2026-04-19T12:54:56.988Z</time></trkpt><trkpt lat="44.74951884234141" lon="1.1101635403307697"><ele>218.99999999999997</ele><time>2026-04-19T12:54:58.988Z</time></trkpt><trkpt lat="44.74957702664071" lon="1.1102084837969974"><ele>219.0</ele><time>2026-04-19T12:54:59.988Z</time></trkpt><trkpt lat="44.749679901043784" lon="1.1103103674018033"><ele>219.0</ele><time>2026-04-19T12:55:01.988Z</time></trkpt><trkpt lat="44.749737284644645" lon="1.1103751725590811"><ele>219.0</ele><time>2026-04-19T12:55:02.988Z</time></trkpt><trkpt lat="44.74983326413621" lon="1.1105045065011914"><ele>218.99999999999997</ele><time>2026-04-19T12:55:04.988Z</time></trkpt><trkpt lat="44.74988053761977" lon="1.1105731712834115"><ele>218.99999999999997</ele><time>2026-04-19T12:55:05.988Z</time></trkpt><trkpt lat="44.749919830256815" lon="1.1106608786368302"><ele>219.0</ele><time>2026-04-19T12:55:06.988Z</time></trkpt><trkpt lat="44.749988621019945" lon="1.110800889384324"><ele>219.0</ele><time>2026-04-19T12:55:08.988Z</time></trkpt><trkpt lat="44.750032962000354" lon="1.1109544540598697"><ele>219.0</ele><time>2026-04-19T12:55:10.988Z</time></trkpt><trkpt lat="44.749943354819095" lon="1.1111518740897905"><ele>219.0</ele><time>2026-04-19T12:55:12.988Z</time></trkpt><trkpt lat="44.74988402224311" lon="1.1112692777926372"><ele>219.0</ele><time>2026-04-19T12:55:13.988Z</time></trkpt><trkpt lat="44.74982881326556" lon="1.111403033461964"><ele>219.0</ele><time>2026-04-19T12:55:14.988Z</time></trkpt><trkpt lat="44.749762531745915" lon="1.1115233520930108"><ele>218.75</ele><time>2026-04-19T12:55:15.988Z</time></trkpt><trkpt lat="44.74969356090349" lon="1.1116586994059825"><ele>218.5</ele><time>2026-04-19T12:55:16.988Z</time></trkpt><trkpt lat="44.74962526323418" lon="1.1118368143304271"><ele>218.25</ele><time>2026-04-19T12:55:17.988Z</time></trkpt><trkpt lat="44.74952512311062" lon="1.1120279849717452"><ele>218.0</ele><time>2026-04-19T12:55:18.988Z</time></trkpt><trkpt lat="44.74944735438755" lon="1.1122218385724862"><ele>219.33333333333334</ele><time>2026-04-19T12:55:19.988Z</time></trkpt><trkpt lat="44.74935960741347" lon="1.1124145182616156"><ele>220.66666666666669</ele><time>2026-04-19T12:55:20.988Z</time></trkpt><trkpt lat="44.74926836694941" lon="1.1126125200715176"><ele>222.0</ele><time>2026-04-19T12:55:21.988Z</time></trkpt><trkpt lat="44.749175829915416" lon="1.1128025318586579"><ele>222.0</ele><time>2026-04-19T12:55:22.988Z</time></trkpt><trkpt lat="44.74908099957935" lon="1.1129972384662525"><ele>222.0</ele><time>2026-04-19T12:55:23.988Z</time></trkpt><trkpt lat="44.74898798045044" lon="1.113188649987319"><ele>222.0</ele><time>2026-04-19T12:55:24.988Z</time></trkpt><trkpt lat="44.748905128687696" lon="1.113373818392943"><ele>221.66666666666669</ele><time>2026-04-19T12:55:25.988Z</time></trkpt><trkpt lat="44.74882904042103" lon="1.1135590664155939"><ele>221.33333333333334</ele><time>2026-04-19T12:55:26.988Z</time></trkpt><trkpt lat="44.74875955324448" lon="1.1137525784164908"><ele>221.0</ele><time>2026-04-19T12:55:27.988Z</time></trkpt><trkpt lat="44.74870415103891" lon="1.1139488984035726"><ele>221.0</ele><time>2026-04-19T12:55:28.988Z</time></trkpt><trkpt lat="44.74864445853735" lon="1.1141615240094618"><ele>221.0</ele><time>2026-04-19T12:55:29.988Z</time></trkpt><trkpt lat="44.74857392685876" lon="1.1143720844038345"><ele>221.0</ele><time>2026-04-19T12:55:30.988Z</time></trkpt><trkpt lat="44.74852472682882" lon="1.1145968304715648"><ele>221.0</ele><time>2026-04-19T12:55:31.988Z</time></trkpt><trkpt lat="44.74846200348542" lon="1.1148232245627816"><ele>221.0</ele><time>2026-04-19T12:55:32.988Z</time></trkpt><trkpt lat="44.74840474188872" lon="1.115053197478856"><ele>221.0</ele><time>2026-04-19T12:55:33.988Z</time></trkpt><trkpt lat="44.74836286176419" lon="1.1152831024503194"><ele>219.66666666666669</ele><time>2026-04-19T12:55:34.988Z</time></trkpt><trkpt lat="44.74830892406911" lon="1.1155171965004915"><ele>218.33333333333331</ele><time>2026-04-19T12:55:35.989Z</time></trkpt><trkpt lat="44.748280620670776" lon="1.1157575832846824"><ele>217.0</ele><time>2026-04-19T12:55:36.989Z</time></trkpt><trkpt lat="44.74827935713668" lon="1.1160124943200194"><ele>215.33333333333331</ele><time>2026-04-19T12:55:37.989Z</time></trkpt><trkpt lat="44.748256284549065" lon="1.1162778282030128"><ele>213.66666666666669</ele><time>2026-04-19T12:55:38.989Z</time></trkpt><trkpt lat="44.74825079985404" lon="1.1165593822451565"><ele>212.0</ele><time>2026-04-19T12:55:39.99Z</time></trkpt><trkpt lat="44.748245376624844" lon="1.1168377815761021"><ele>211.0</ele><time>2026-04-19T12:55:40.99Z</time></trkpt><trkpt lat="44.748239904025446" lon="1.1171187147505228"><ele>210.0</ele><time>2026-04-19T12:55:41.99Z</time></trkpt><trkpt lat="44.74823455906192" lon="1.1173930960719969"><ele>209.0</ele><time>2026-04-19T12:55:42.99Z</time></trkpt><trkpt lat="44.74822951374035" lon="1.1176662773368735"><ele>208.0</ele><time>2026-04-19T12:55:43.99Z</time></trkpt><trkpt lat="44.74824113751837" lon="1.1179325799206201"><ele>207.0</ele><time>2026-04-19T12:55:44.99Z</time></trkpt><trkpt lat="44.748234899185285" lon="1.1181931660346103"><ele>206.0</ele><time>2026-04-19T12:55:45.99Z</time></trkpt><trkpt lat="44.74823035871371" lon="1.1184462693208246"><ele>205.66666666666669</ele><time>2026-04-19T12:55:46.99Z</time></trkpt><trkpt lat="44.74822513650031" lon="1.1186964785579168"><ele>205.33333333333331</ele><time>2026-04-19T12:55:47.99Z</time></trkpt><trkpt lat="44.74822011611346" lon="1.1189441504870001"><ele>205.0</ele><time>2026-04-19T12:55:48.99Z</time></trkpt><trkpt lat="44.748211749481406" lon="1.1191979118952002"><ele>204.33333333333331</ele><time>2026-04-19T12:55:49.99Z</time></trkpt><trkpt lat="44.748207363570984" lon="1.1194517221956666"><ele>203.66666666666669</ele><time>2026-04-19T12:55:50.99Z</time></trkpt><trkpt lat="44.74820207728255" lon="1.1196984213374839"><ele>203.0</ele><time>2026-04-19T12:55:51.99Z</time></trkpt><trkpt lat="44.748192009919904" lon="1.119934498222595"><ele>202.75</ele><time>2026-04-19T12:55:52.99Z</time></trkpt><trkpt lat="44.74818102292756" lon="1.120158729992908"><ele>202.5</ele><time>2026-04-19T12:55:53.99Z</time></trkpt><trkpt lat="44.74818927001324" lon="1.1203631814456625"><ele>202.25</ele><time>2026-04-19T12:55:54.99Z</time></trkpt><trkpt lat="44.74818354933989" lon="1.1205594712009281"><ele>202.0</ele><time>2026-04-19T12:55:55.99Z</time></trkpt><trkpt lat="44.74816889207605" lon="1.1207432799487533"><ele>200.5</ele><time>2026-04-19T12:55:56.99Z</time></trkpt><trkpt lat="44.748161032008355" lon="1.1209355519154405"><ele>199.0</ele><time>2026-04-19T12:55:57.99Z</time></trkpt><trkpt lat="44.74814548925103" lon="1.121113696609528"><ele>197.5</ele><time>2026-04-19T12:55:58.99Z</time></trkpt><trkpt lat="44.748102812537276" lon="1.12127949842522"><ele>196.0</ele><time>2026-04-19T12:55:59.99Z</time></trkpt><trkpt lat="44.74803562889733" lon="1.1214366787634475"><ele>196.0</ele><time>2026-04-19T12:56:00.99Z</time></trkpt><trkpt lat="44.74793007936341" lon="1.1215617656903227"><ele>196.0</ele><time>2026-04-19T12:56:01.99Z</time></trkpt><trkpt lat="44.74782556504113" lon="1.1216743885922955"><ele>196.0</ele><time>2026-04-19T12:56:02.99Z</time></trkpt><trkpt lat="44.747702303597855" lon="1.1217533849162868"><ele>196.0</ele><time>2026-04-19T12:56:03.99Z</time></trkpt><trkpt lat="44.7475665835338" lon="1.1217835528078195"><ele>195.33333333333331</ele><time>2026-04-19T12:56:04.99Z</time></trkpt><trkpt lat="44.747429242241346" lon="1.1217942970171189"><ele>194.66666666666669</ele><time>2026-04-19T12:56:05.99Z</time></trkpt><trkpt lat="44.74726823802805" lon="1.1218019059493036"><ele>194.0</ele><time>2026-04-19T12:56:06.99Z</time></trkpt><trkpt lat="44.74711159137451" lon="1.1218305522351295"><ele>194.0</ele><time>2026-04-19T12:56:07.99Z</time></trkpt><trkpt lat="44.7469658686115" lon="1.1218182589898487"><ele>194.0</ele><time>2026-04-19T12:56:08.99Z</time></trkpt><trkpt lat="44.74682505366401" lon="1.121846868111749"><ele>194.0</ele><time>2026-04-19T12:56:09.99Z</time></trkpt><trkpt lat="44.746672470170765" lon="1.1218716615330617"><ele>194.0</ele><time>2026-04-19T12:56:10.99Z</time></trkpt><trkpt lat="44.74651812673314" lon="1.1219203899729688"><ele>194.0</ele><time>2026-04-19T12:56:11.99Z</time></trkpt><trkpt lat="44.74635628879289" lon="1.121956508419214"><ele>194.0</ele><time>2026-04-19T12:56:12.99Z</time></trkpt><trkpt lat="44.74619152841513" lon="1.1220469565620537"><ele>194.0</ele><time>2026-04-19T12:56:13.99Z</time></trkpt><trkpt lat="44.7460176270002" lon="1.1221475985104823"><ele>194.33333333333334</ele><time>2026-04-19T12:56:14.99Z</time></trkpt><trkpt lat="44.74582445532803" lon="1.1222384824638931"><ele>194.66666666666669</ele><time>2026-04-19T12:56:15.99Z</time></trkpt><trkpt lat="44.74563108083068" lon="1.1223863415946203"><ele>195.0</ele><time>2026-04-19T12:56:16.99Z</time></trkpt><trkpt lat="44.745421117575134" lon="1.1225219785124134"><ele>191.0</ele><time>2026-04-19T12:56:17.99Z</time></trkpt><trkpt lat="44.74520951889347" lon="1.1226607048229647"><ele>187.0</ele><time>2026-04-19T12:56:18.99Z</time></trkpt><trkpt lat="44.744990236390166" lon="1.1228000974494448"><ele>187.0</ele><time>2026-04-19T12:56:19.991Z</time></trkpt><trkpt lat="44.74478066463389" lon="1.1229107536329972"><ele>187.0</ele><time>2026-04-19T12:56:20.991Z</time></trkpt><trkpt lat="44.74457654736294" lon="1.1230240528435593"><ele>187.0</ele><time>2026-04-19T12:56:21.991Z</time></trkpt><trkpt lat="44.744365811669155" lon="1.1231416973828274"><ele>185.33333333333334</ele><time>2026-04-19T12:56:22.991Z</time></trkpt><trkpt lat="44.74415513649369" lon="1.1232553829536152"><ele>183.66666666666666</ele><time>2026-04-19T12:56:23.991Z</time></trkpt><trkpt lat="44.743958865350265" lon="1.123391493289759"><ele>182.0</ele><time>2026-04-19T12:56:24.991Z</time></trkpt><trkpt lat="44.743750834264446" lon="1.1234889108063901"><ele>181.66666666666666</ele><time>2026-04-19T12:56:25.991Z</time></trkpt><trkpt lat="44.74354564262939" lon="1.1236062480698945"><ele>181.33333333333334</ele><time>2026-04-19T12:56:26.991Z</time></trkpt><trkpt lat="44.743346192165816" lon="1.1237180525911887"><ele>181.0</ele><time>2026-04-19T12:56:27.991Z</time></trkpt><trkpt lat="44.74313198870176" lon="1.123836746171812"><ele>181.0</ele><time>2026-04-19T12:56:28.991Z</time></trkpt><trkpt lat="44.74293299143291" lon="1.1239393599820648"><ele>181.0</ele><time>2026-04-19T12:56:29.991Z</time></trkpt><trkpt lat="44.7427369347038" lon="1.124018569691056"><ele>181.0</ele><time>2026-04-19T12:56:30.991Z</time></trkpt><trkpt lat="44.7425484117611" lon="1.124083209146127"><ele>180.0</ele><time>2026-04-19T12:56:31.991Z</time></trkpt><trkpt lat="44.74237435648204" lon="1.124155302313776"><ele>179.0</ele><time>2026-04-19T12:56:32.991Z</time></trkpt><trkpt lat="44.74221637966386" lon="1.124200890586668"><ele>178.0</ele><time>2026-04-19T12:56:33.991Z</time></trkpt><trkpt lat="44.74207019422928" lon="1.1242568829515664"><ele>178.0</ele><time>2026-04-19T12:56:34.991Z</time></trkpt><trkpt lat="44.7419422364339" lon="1.1243417637002928"><ele>178.0</ele><time>2026-04-19T12:56:35.991Z</time></trkpt><trkpt lat="44.74182252217432" lon="1.1244895210983379"><ele>178.0</ele><time>2026-04-19T12:56:36.991Z</time></trkpt><trkpt lat="44.74171400406259" lon="1.1246833743446023"><ele>178.0</ele><time>2026-04-19T12:56:37.991Z</time></trkpt><trkpt lat="44.74160006330427" lon="1.1248830641333671"><ele>178.0</ele><time>2026-04-19T12:56:38.991Z</time></trkpt><trkpt lat="44.741470114172216" lon="1.1250425732359157"><ele>178.0</ele><time>2026-04-19T12:56:39.991Z</time></trkpt><trkpt lat="44.741333800058506" lon="1.1252197278257345"><ele>178.0</ele><time>2026-04-19T12:56:40.991Z</time></trkpt><trkpt lat="44.74118625343862" lon="1.1254069612243343"><ele>178.0</ele><time>2026-04-19T12:56:41.991Z</time></trkpt><trkpt lat="44.74102560176733" lon="1.1256184374773166"><ele>178.0</ele><time>2026-04-19T12:56:42.991Z</time></trkpt><trkpt lat="44.740861940956194" lon="1.1258374625588448"><ele>175.5</ele><time>2026-04-19T12:56:43.991Z</time></trkpt><trkpt lat="44.7406973744041" lon="1.1260628532576438"><ele>173.0</ele><time>2026-04-19T12:56:44.991Z</time></trkpt><trkpt lat="44.7405435741105" lon="1.1263066939616948"><ele>173.0</ele><time>2026-04-19T12:56:45.991Z</time></trkpt><trkpt lat="44.74038295210995" lon="1.1265330543136312"><ele>173.0</ele><time>2026-04-19T12:56:46.991Z</time></trkpt><trkpt lat="44.74021385348943" lon="1.1267413900373178"><ele>171.0</ele><time>2026-04-19T12:56:47.991Z</time></trkpt><trkpt lat="44.740052148750344" lon="1.12693120217546"><ele>169.0</ele><time>2026-04-19T12:56:48.991Z</time></trkpt><trkpt lat="44.739854396431646" lon="1.1271235449316583"><ele>169.0</ele><time>2026-04-19T12:56:49.987Z</time></trkpt><trkpt lat="44.73965360604319" lon="1.1272993408656728"><ele>169.0</ele><time>2026-04-19T12:56:50.987Z</time></trkpt><trkpt lat="44.73945372188762" lon="1.1274911436779458"><ele>168.5</ele><time>2026-04-19T12:56:51.987Z</time></trkpt><trkpt lat="44.739251334526706" lon="1.127644338130892"><ele>168.0</ele><time>2026-04-19T12:56:52.987Z</time></trkpt><trkpt lat="44.73906508186929" lon="1.127810689524816"><ele>168.0</ele><time>2026-04-19T12:56:53.987Z</time></trkpt><trkpt lat="44.73888711428829" lon="1.1279584167397954"><ele>168.0</ele><time>2026-04-19T12:56:54.987Z</time></trkpt><trkpt lat="44.73870558408089" lon="1.1280892198427812"><ele>168.0</ele><time>2026-04-19T12:56:55.988Z</time></trkpt><trkpt lat="44.73851189771498" lon="1.1281845123402385"><ele>169.0</ele><time>2026-04-19T12:56:56.987Z</time></trkpt><trkpt lat="44.73830552183549" lon="1.1282545138722193"><ele>170.0</ele><time>2026-04-19T12:56:57.987Z</time></trkpt><trkpt lat="44.73808214133664" lon="1.1283152463251411"><ele>171.0</ele><time>2026-04-19T12:56:58.987Z</time></trkpt><trkpt lat="44.737861941704026" lon="1.1284130533455496"><ele>168.5</ele><time>2026-04-19T12:56:59.987Z</time></trkpt><trkpt lat="44.73764067724826" lon="1.1285101434242844"><ele>166.0</ele><time>2026-04-19T12:57:00.987Z</time></trkpt><trkpt lat="44.73742667966208" lon="1.1286181154749764"><ele>166.0</ele><time>2026-04-19T12:57:01.987Z</time></trkpt><trkpt lat="44.73721891385919" lon="1.1287078207343"><ele>166.0</ele><time>2026-04-19T12:57:02.987Z</time></trkpt><trkpt lat="44.737041145636496" lon="1.1287924134467748"><ele>166.0</ele><time>2026-04-19T12:57:03.987Z</time></trkpt><trkpt lat="44.73686023573473" lon="1.12888683429674"><ele>165.66666666666669</ele><time>2026-04-19T12:57:04.987Z</time></trkpt><trkpt lat="44.7366876960046" lon="1.1289994572700328"><ele>165.33333333333334</ele><time>2026-04-19T12:57:05.987Z</time></trkpt><trkpt lat="44.73653165631494" lon="1.1291436665742154"><ele>165.0</ele><time>2026-04-19T12:57:06.987Z</time></trkpt><trkpt lat="44.736371068373074" lon="1.1293068697811721"><ele>165.66666666666666</ele><time>2026-04-19T12:57:07.987Z</time></trkpt><trkpt lat="44.73621318906516" lon="1.1294429484762847"><ele>166.33333333333331</ele><time>2026-04-19T12:57:08.987Z</time></trkpt><trkpt lat="44.73607564943449" lon="1.1295748947978006"><ele>167.0</ele><time>2026-04-19T12:57:09.987Z</time></trkpt><trkpt lat="44.73593989011757" lon="1.1297104574778587"><ele>167.0</ele><time>2026-04-19T12:57:10.987Z</time></trkpt><trkpt lat="44.73581323340837" lon="1.1298618328379342"><ele>167.0</ele><time>2026-04-19T12:57:11.987Z</time></trkpt><trkpt lat="44.735696364125566" lon="1.1300490524619902"><ele>167.0</ele><time>2026-04-19T12:57:12.987Z</time></trkpt><trkpt lat="44.73558804495779" lon="1.130235423615641"><ele>167.0</ele><time>2026-04-19T12:57:13.987Z</time></trkpt><trkpt lat="44.73547159800778" lon="1.1304432616382312"><ele>167.0</ele><time>2026-04-19T12:57:14.987Z</time></trkpt><trkpt lat="44.735360159370515" lon="1.1306662862331112"><ele>167.0</ele><time>2026-04-19T12:57:15.987Z</time></trkpt><trkpt lat="44.73523142891298" lon="1.1308949363000393"><ele>166.33333333333331</ele><time>2026-04-19T12:57:16.987Z</time></trkpt><trkpt lat="44.735090258859" lon="1.1311230094166422"><ele>165.66666666666666</ele><time>2026-04-19T12:57:17.987Z</time></trkpt><trkpt lat="44.73494792252157" lon="1.1313583359456554"><ele>165.0</ele><time>2026-04-19T12:57:18.987Z</time></trkpt><trkpt lat="44.73483220758412" lon="1.1316112500367799"><ele>165.0</ele><time>2026-04-19T12:57:19.987Z</time></trkpt><trkpt lat="44.73468961006652" lon="1.1318510294767197"><ele>165.0</ele><time>2026-04-19T12:57:20.987Z</time></trkpt><trkpt lat="44.73456838941888" lon="1.132105970532223"><ele>165.0</ele><time>2026-04-19T12:57:21.987Z</time></trkpt><trkpt lat="44.734439063818705" lon="1.1323466432882714"><ele>162.0</ele><time>2026-04-19T12:57:22.987Z</time></trkpt><trkpt lat="44.73429510173168" lon="1.1325738392721922"><ele>159.0</ele><time>2026-04-19T12:57:23.987Z</time></trkpt><trkpt lat="44.734133198678116" lon="1.1327927192163123"><ele>156.0</ele><time>2026-04-19T12:57:24.987Z</time></trkpt><trkpt lat="44.73394207414033" lon="1.132986240368845"><ele>153.0</ele><time>2026-04-19T12:57:25.987Z</time></trkpt><trkpt lat="44.73351722893547" lon="1.1333531537059884"><ele>153.0</ele><time>2026-04-19T12:57:27.987Z</time></trkpt><trkpt lat="44.733290033512205" lon="1.1335649211530636"><ele>153.0</ele><time>2026-04-19T12:57:28.987Z</time></trkpt><trkpt lat="44.73307196138578" lon="1.133764176552526"><ele>153.0</ele><time>2026-04-19T12:57:29.987Z</time></trkpt><trkpt lat="44.732879407143045" lon="1.1339385539276345"><ele>153.0</ele><time>2026-04-19T12:57:30.987Z</time></trkpt><trkpt lat="44.732671642035065" lon="1.1341059332096273"><ele>153.66666666666666</ele><time>2026-04-19T12:57:31.987Z</time></trkpt><trkpt lat="44.73249738354787" lon="1.1342575555815433"><ele>154.33333333333331</ele><time>2026-04-19T12:57:32.988Z</time></trkpt><trkpt lat="44.7323410794032" lon="1.134387644520688"><ele>155.0</ele><time>2026-04-19T12:57:33.988Z</time></trkpt><trkpt lat="44.732206643951294" lon="1.1345033597487109"><ele>155.0</ele><time>2026-04-19T12:57:34.988Z</time></trkpt><trkpt lat="44.73208905239319" lon="1.1346023143302864"><ele>155.0</ele><time>2026-04-19T12:57:35.988Z</time></trkpt><trkpt lat="44.73199383299518" lon="1.1346920291431324"><ele>155.0</ele><time>2026-04-19T12:57:36.988Z</time></trkpt><trkpt lat="44.73190844386373" lon="1.1347710887944242"><ele>155.0</ele><time>2026-04-19T12:57:37.988Z</time></trkpt><trkpt lat="44.73183227641654" lon="1.134863335225546"><ele>154.0</ele><time>2026-04-19T12:57:38.988Z</time></trkpt><trkpt lat="44.731780282159725" lon="1.1349483570392924"><ele>153.0</ele><time>2026-04-19T12:57:39.988Z</time></trkpt><trkpt lat="44.73169369067788" lon="1.1350586952225266"><ele>152.0</ele><time>2026-04-19T12:57:41.988Z</time></trkpt><trkpt lat="44.73161572235354" lon="1.135093820193"><ele>151.0</ele><time>2026-04-19T12:57:43.988Z</time></trkpt><trkpt lat="44.731551940876685" lon="1.1351480392081923"><ele>150.0</ele><time>2026-04-19T12:57:46.988Z</time></trkpt><trkpt lat="44.73154359637523" lon="1.1353366708961539"><ele>150.0</ele><time>2026-04-19T12:57:48.988Z</time></trkpt><trkpt lat="44.731544783833776" lon="1.135479685415834"><ele>150.0</ele><time>2026-04-19T12:57:49.988Z</time></trkpt><trkpt lat="44.7315484676991" lon="1.1356369864307765"><ele>150.0</ele><time>2026-04-19T12:57:50.988Z</time></trkpt><trkpt lat="44.73155415757259" lon="1.1358099931443142"><ele>150.0</ele><time>2026-04-19T12:57:51.988Z</time></trkpt><trkpt lat="44.73154740585386" lon="1.1360102519818434"><ele>150.25</ele><time>2026-04-19T12:57:52.988Z</time></trkpt><trkpt lat="44.73152219693136" lon="1.1361881977080641"><ele>150.5</ele><time>2026-04-19T12:57:53.988Z</time></trkpt><trkpt lat="44.7314902621798" lon="1.1363803341160892"><ele>150.75</ele><time>2026-04-19T12:57:54.988Z</time></trkpt><trkpt lat="44.73143205671774" lon="1.13657233751105"><ele>151.0</ele><time>2026-04-19T12:57:55.988Z</time></trkpt><trkpt lat="44.73134331920641" lon="1.1367716561474452"><ele>151.0</ele><time>2026-04-19T12:57:56.988Z</time></trkpt><trkpt lat="44.73123204357482" lon="1.1369752717966468"><ele>151.0</ele><time>2026-04-19T12:57:57.988Z</time></trkpt><trkpt lat="44.731106113449314" lon="1.1371939961638835"><ele>151.0</ele><time>2026-04-19T12:57:58.988Z</time></trkpt><trkpt lat="44.73096879510446" lon="1.1374324487028822"><ele>149.0</ele><time>2026-04-19T12:57:59.988Z</time></trkpt><trkpt lat="44.730844973683915" lon="1.137693005388326"><ele>147.0</ele><time>2026-04-19T12:58:00.988Z</time></trkpt><trkpt lat="44.730708913025346" lon="1.1379556405487585"><ele>152.5</ele><time>2026-04-19T12:58:01.988Z</time></trkpt><trkpt lat="44.73058400278507" lon="1.1382203534766118"><ele>158.0</ele><time>2026-04-19T12:58:02.988Z</time></trkpt><trkpt lat="44.73044985747492" lon="1.1384965547281622"><ele>158.0</ele><time>2026-04-19T12:58:03.988Z</time></trkpt><trkpt lat="44.730312877888096" lon="1.1387627152321667"><ele>158.0</ele><time>2026-04-19T12:58:04.988Z</time></trkpt><trkpt lat="44.73017843809866" lon="1.1390310359554008"><ele>155.0</ele><time>2026-04-19T12:58:05.988Z</time></trkpt><trkpt lat="44.73004496585026" lon="1.1392824518974065"><ele>152.0</ele><time>2026-04-19T12:58:06.988Z</time></trkpt><trkpt lat="44.72991319330449" lon="1.1395342121119558"><ele>149.0</ele><time>2026-04-19T12:58:07.988Z</time></trkpt><trkpt lat="44.72978728163561" lon="1.1397688474997223"><ele>151.66666666666666</ele><time>2026-04-19T12:58:08.988Z</time></trkpt><trkpt lat="44.729668139606765" lon="1.1399932602089784"><ele>154.33333333333334</ele><time>2026-04-19T12:58:09.988Z</time></trkpt><trkpt lat="44.72957182163967" lon="1.1402115483841886"><ele>157.0</ele><time>2026-04-19T12:58:10.988Z</time></trkpt><trkpt lat="44.72948582818325" lon="1.1404439325635807"><ele>157.0</ele><time>2026-04-19T12:58:11.988Z</time></trkpt><trkpt lat="44.72942046388382" lon="1.14070787158274"><ele>157.0</ele><time>2026-04-19T12:58:12.988Z</time></trkpt><trkpt lat="44.7293706960865" lon="1.1409998566849535"><ele>157.0</ele><time>2026-04-19T12:58:13.988Z</time></trkpt><trkpt lat="44.72931981123883" lon="1.141294841324222"><ele>152.66666666666669</ele><time>2026-04-19T12:58:14.988Z</time></trkpt><trkpt lat="44.72925705108886" lon="1.1415899196199246"><ele>148.33333333333334</ele><time>2026-04-19T12:58:15.989Z</time></trkpt><trkpt lat="44.729205601270195" lon="1.1418644596473533"><ele>144.0</ele><time>2026-04-19T12:58:16.989Z</time></trkpt><trkpt lat="44.729143177340454" lon="1.1421517868801954"><ele>144.0</ele><time>2026-04-19T12:58:17.989Z</time></trkpt><trkpt lat="44.729082666539625" lon="1.1424441642801482"><ele>144.0</ele><time>2026-04-19T12:58:18.989Z</time></trkpt><trkpt lat="44.7290204136269" lon="1.1427386544643279"><ele>144.0</ele><time>2026-04-19T12:58:19.989Z</time></trkpt><trkpt lat="44.72895295281735" lon="1.1430341384556548"><ele>146.33333333333334</ele><time>2026-04-19T12:58:20.989Z</time></trkpt><trkpt lat="44.72889675405007" lon="1.1433135105371799"><ele>148.66666666666669</ele><time>2026-04-19T12:58:21.989Z</time></trkpt><trkpt lat="44.72884429615324" lon="1.1435845841461918"><ele>151.0</ele><time>2026-04-19T12:58:22.989Z</time></trkpt><trkpt lat="44.7287962102094" lon="1.1438271078596909"><ele>153.66666666666669</ele><time>2026-04-19T12:58:23.989Z</time></trkpt><trkpt lat="44.728734439048324" lon="1.1440800765860553"><ele>156.33333333333334</ele><time>2026-04-19T12:58:24.989Z</time></trkpt><trkpt lat="44.728690590664144" lon="1.144297123038772"><ele>159.0</ele><time>2026-04-19T12:58:25.989Z</time></trkpt><trkpt lat="44.72865450300806" lon="1.144494871258263"><ele>159.0</ele><time>2026-04-19T12:58:26.989Z</time></trkpt><trkpt lat="44.728603411072406" lon="1.1446485912425732"><ele>159.0</ele><time>2026-04-19T12:58:27.989Z</time></trkpt><trkpt lat="44.72856859849899" lon="1.144779563667612"><ele>159.0</ele><time>2026-04-19T12:58:28.989Z</time></trkpt><trkpt lat="44.72853530575973" lon="1.144895555965292"><ele>159.0</ele><time>2026-04-19T12:58:29.989Z</time></trkpt><trkpt lat="44.72850257709342" lon="1.1450116081259039"><ele>159.0</ele><time>2026-04-19T12:58:30.989Z</time></trkpt><trkpt lat="44.728467411848726" lon="1.1451261882321313"><ele>154.75</ele><time>2026-04-19T12:58:31.989Z</time></trkpt><trkpt lat="44.72841091672595" lon="1.145248239382373"><ele>150.5</ele><time>2026-04-19T12:58:32.989Z</time></trkpt><trkpt lat="44.728352197933575" lon="1.1453765375585665"><ele>146.25</ele><time>2026-04-19T12:58:33.989Z</time></trkpt><trkpt lat="44.72825900680865" lon="1.1454932229442245"><ele>142.0</ele><time>2026-04-19T12:58:34.989Z</time></trkpt><trkpt lat="44.728182071368785" lon="1.1456374681135943"><ele>143.5</ele><time>2026-04-19T12:58:35.989Z</time></trkpt><trkpt lat="44.72808345538318" lon="1.145750397242735"><ele>145.0</ele><time>2026-04-19T12:58:36.989Z</time></trkpt><trkpt lat="44.72797182760534" lon="1.1458466571655133"><ele>146.5</ele><time>2026-04-19T12:58:37.989Z</time></trkpt><trkpt lat="44.72786819507425" lon="1.1459652106196723"><ele>148.0</ele><time>2026-04-19T12:58:38.989Z</time></trkpt><trkpt lat="44.7277590991699" lon="1.1460515450517972"><ele>145.25</ele><time>2026-04-19T12:58:39.989Z</time></trkpt><trkpt lat="44.72765415966478" lon="1.146108091944933"><ele>142.5</ele><time>2026-04-19T12:58:40.989Z</time></trkpt><trkpt lat="44.727545374861684" lon="1.1461727124161682"><ele>139.75</ele><time>2026-04-19T12:58:41.989Z</time></trkpt><trkpt lat="44.72743690727415" lon="1.14623215646611"><ele>137.0</ele><time>2026-04-19T12:58:42.989Z</time></trkpt><trkpt lat="44.727327712566144" lon="1.146271832907474"><ele>137.0</ele><time>2026-04-19T12:58:43.989Z</time></trkpt><trkpt lat="44.727218979375216" lon="1.146298121621295"><ele>137.0</ele><time>2026-04-19T12:58:44.989Z</time></trkpt><trkpt lat="44.72711143886994" lon="1.1463072891137303"><ele>137.0</ele><time>2026-04-19T12:58:45.989Z</time></trkpt><trkpt lat="44.72701115962832" lon="1.1463280485041742"><ele>137.0</ele><time>2026-04-19T12:58:46.989Z</time></trkpt><trkpt lat="44.726923551731744" lon="1.1463472687926566"><ele>137.0</ele><time>2026-04-19T12:58:47.989Z</time></trkpt><trkpt lat="44.72684711749225" lon="1.14635446465806"><ele>137.2857142857143</ele><time>2026-04-19T12:58:48.989Z</time></trkpt><trkpt lat="44.72677971995828" lon="1.1463656974117842"><ele>137.57142857142858</ele><time>2026-04-19T12:58:49.989Z</time></trkpt><trkpt lat="44.72671644069563" lon="1.146376775359215"><ele>137.85714285714286</ele><time>2026-04-19T12:58:50.989Z</time></trkpt><trkpt lat="44.72662469834197" lon="1.1464057627363817"><ele>138.14285714285717</ele><time>2026-04-19T12:58:52.989Z</time></trkpt><trkpt lat="44.72656177090312" lon="1.1464088575543872"><ele>138.42857142857144</ele><time>2026-04-19T12:58:53.989Z</time></trkpt><trkpt lat="44.726495698611465" lon="1.1464209449778748"><ele>138.71428571428572</ele><time>2026-04-19T12:58:54.989Z</time></trkpt><trkpt lat="44.72642109082966" lon="1.1464345991194715"><ele>139.0</ele><time>2026-04-19T12:58:55.987Z</time></trkpt><trkpt lat="44.726338972819164" lon="1.1464497426351055"><ele>139.0</ele><time>2026-04-19T12:58:56.986Z</time></trkpt><trkpt lat="44.72625754116404" lon="1.146464759575408"><ele>139.0</ele><time>2026-04-19T12:58:57.986Z</time></trkpt><trkpt lat="44.72618295270375" lon="1.1464839250170173"><ele>139.0</ele><time>2026-04-19T12:58:58.986Z</time></trkpt><trkpt lat="44.72609462147385" lon="1.1464894854095995"><ele>139.0</ele><time>2026-04-19T12:58:59.986Z</time></trkpt><trkpt lat="44.72600589734063" lon="1.1465058351661093"><ele>139.0</ele><time>2026-04-19T12:59:00.986Z</time></trkpt><trkpt lat="44.72592271505497" lon="1.1465278419424532"><ele>139.0</ele><time>2026-04-19T12:59:01.987Z</time></trkpt><trkpt lat="44.72584125460784" lon="1.1465469831898967"><ele>138.6</ele><time>2026-04-19T12:59:02.986Z</time></trkpt><trkpt lat="44.72576440969244" lon="1.1465527305200578"><ele>138.2</ele><time>2026-04-19T12:59:03.986Z</time></trkpt><trkpt lat="44.72561645609402" lon="1.1465908753898926"><ele>137.79999999999998</ele><time>2026-04-19T12:59:05.987Z</time></trkpt><trkpt lat="44.725546291985424" lon="1.146613565695051"><ele>137.4</ele><time>2026-04-19T12:59:06.987Z</time></trkpt><trkpt lat="44.725481637256955" lon="1.1466525265343972"><ele>137.0</ele><time>2026-04-19T12:59:07.987Z</time></trkpt><trkpt lat="44.72539545795463" lon="1.1467044890538551"><ele>137.0</ele><time>2026-04-19T12:59:08.986Z</time></trkpt><trkpt lat="44.72531791609359" lon="1.1467658500390543"><ele>137.0</ele><time>2026-04-19T12:59:09.986Z</time></trkpt><trkpt lat="44.72526280469874" lon="1.1468416245204072"><ele>137.0</ele><time>2026-04-19T12:59:10.986Z</time></trkpt><trkpt lat="44.72520808353213" lon="1.1469389172687796"><ele>137.0</ele><time>2026-04-19T12:59:11.986Z</time></trkpt><trkpt lat="44.725173630790515" lon="1.1470549947934474"><ele>137.0</ele><time>2026-04-19T12:59:12.986Z</time></trkpt><trkpt lat="44.72514716953551" lon="1.1471772637360773"><ele>137.0</ele><time>2026-04-19T12:59:13.986Z</time></trkpt><trkpt lat="44.725131696911774" lon="1.1472931807115767"><ele>136.2</ele><time>2026-04-19T12:59:14.986Z</time></trkpt><trkpt lat="44.72512923859391" lon="1.1473979040849664"><ele>135.39999999999998</ele><time>2026-04-19T12:59:15.986Z</time></trkpt><trkpt lat="44.72509828813919" lon="1.147616654779417"><ele>134.60000000000002</ele><time>2026-04-19T12:59:18.987Z</time></trkpt><trkpt lat="44.72508866077877" lon="1.1477861461002592"><ele>133.8</ele><time>2026-04-19T12:59:20.987Z</time></trkpt><trkpt lat="44.725081811535176" lon="1.1478997707364407"><ele>133.0</ele><time>2026-04-19T12:59:21.987Z</time></trkpt><trkpt lat="44.72507388406938" lon="1.148027773605057"><ele>133.0</ele><time>2026-04-19T12:59:22.987Z</time></trkpt><trkpt lat="44.72503287615199" lon="1.1481450979107493"><ele>133.0</ele><time>2026-04-19T12:59:23.987Z</time></trkpt><trkpt lat="44.725046307112734" lon="1.1482925868246119"><ele>133.0</ele><time>2026-04-19T12:59:24.987Z</time></trkpt><trkpt lat="44.72502849420991" lon="1.1484339540161166"><ele>133.0</ele><time>2026-04-19T12:59:25.987Z</time></trkpt><trkpt lat="44.725021663191285" lon="1.148572684502115"><ele>133.0</ele><time>2026-04-19T12:59:26.987Z</time></trkpt><trkpt lat="44.725009490905315" lon="1.148712775093595"><ele>133.25</ele><time>2026-04-19T12:59:27.987Z</time></trkpt><trkpt lat="44.72495637687433" lon="1.148847433059833"><ele>133.5</ele><time>2026-04-19T12:59:28.987Z</time></trkpt><trkpt lat="44.72493842979217" lon="1.149010184938724"><ele>133.75</ele><time>2026-04-19T12:59:29.987Z</time></trkpt><trkpt lat="44.72491890119052" lon="1.149187278708991"><ele>134.0</ele><time>2026-04-19T12:59:30.987Z</time></trkpt><trkpt lat="44.724899415704016" lon="1.1493639815043606"><ele>134.25</ele><time>2026-04-19T12:59:31.987Z</time></trkpt><trkpt lat="44.724880120994285" lon="1.1495389542224355"><ele>134.5</ele><time>2026-04-19T12:59:32.987Z</time></trkpt><trkpt lat="44.72486026500526" lon="1.1497148505702997"><ele>134.75</ele><time>2026-04-19T12:59:33.987Z</time></trkpt><trkpt lat="44.724839842420906" lon="1.1498966997298115"><ele>135.0</ele><time>2026-04-19T12:59:34.987Z</time></trkpt><trkpt lat="44.72481618458889" lon="1.1501073565751847"><ele>135.33333333333334</ele><time>2026-04-19T12:59:35.987Z</time></trkpt><trkpt lat="44.72479290651211" lon="1.150314631970523"><ele>135.66666666666669</ele><time>2026-04-19T12:59:36.987Z</time></trkpt><trkpt lat="44.72476963514398" lon="1.1505292541766077"><ele>136.0</ele><time>2026-04-19T12:59:37.987Z</time></trkpt><trkpt lat="44.72476033568799" lon="1.1507608891464598"><ele>137.66666666666669</ele><time>2026-04-19T12:59:38.987Z</time></trkpt><trkpt lat="44.72473489699359" lon="1.1509929224612803"><ele>139.33333333333334</ele><time>2026-04-19T12:59:39.987Z</time></trkpt><trkpt lat="44.724705827161415" lon="1.1512309339424347"><ele>141.0</ele><time>2026-04-19T12:59:40.987Z</time></trkpt><trkpt lat="44.72467934718434" lon="1.1514754829165872"><ele>141.66666666666666</ele><time>2026-04-19T12:59:41.987Z</time></trkpt><trkpt lat="44.724649157888315" lon="1.1517185393698965"><ele>142.33333333333331</ele><time>2026-04-19T12:59:42.987Z</time></trkpt><trkpt lat="44.72462576035349" lon="1.1519592038719326"><ele>143.0</ele><time>2026-04-19T12:59:43.987Z</time></trkpt><trkpt lat="44.72458176287976" lon="1.152202018808734"><ele>144.66666666666666</ele><time>2026-04-19T12:59:44.987Z</time></trkpt><trkpt lat="44.72456875602916" lon="1.1524509073877585"><ele>146.33333333333334</ele><time>2026-04-19T12:59:45.987Z</time></trkpt><trkpt lat="44.72452638265534" lon="1.1526954587565552"><ele>148.0</ele><time>2026-04-19T12:59:46.987Z</time></trkpt><trkpt lat="44.72451285071714" lon="1.152957316788969"><ele>150.66666666666669</ele><time>2026-04-19T12:59:47.987Z</time></trkpt><trkpt lat="44.72447983608979" lon="1.1532183617659608"><ele>153.33333333333334</ele><time>2026-04-19T12:59:48.987Z</time></trkpt><trkpt lat="44.72444885166063" lon="1.1534889217144026"><ele>156.0</ele><time>2026-04-19T12:59:49.987Z</time></trkpt><trkpt lat="44.724419888383785" lon="1.1537548673609441"><ele>148.0</ele><time>2026-04-19T12:59:50.987Z</time></trkpt><trkpt lat="44.72438507480675" lon="1.154019941645497"><ele>140.0</ele><time>2026-04-19T12:59:51.987Z</time></trkpt><trkpt lat="44.72435609694146" lon="1.1542808054238887"><ele>132.0</ele><time>2026-04-19T12:59:52.987Z</time></trkpt><trkpt lat="44.72432640640243" lon="1.1545501328848167"><ele>132.0</ele><time>2026-04-19T12:59:53.987Z</time></trkpt><trkpt lat="44.72429248717641" lon="1.1548055155017787"><ele>132.0</ele><time>2026-04-19T12:59:54.987Z</time></trkpt><trkpt lat="44.724263453246586" lon="1.1550655716025788"><ele>132.0</ele><time>2026-04-19T12:59:55.987Z</time></trkpt><trkpt lat="44.7242430358078" lon="1.1553260592679073"><ele>132.0</ele><time>2026-04-19T12:59:56.987Z</time></trkpt><trkpt lat="44.724200759232964" lon="1.1555847897520313"><ele>132.0</ele><time>2026-04-19T12:59:57.987Z</time></trkpt><trkpt lat="44.72417307116834" lon="1.1558405946950812"><ele>132.0</ele><time>2026-04-19T12:59:58.988Z</time></trkpt><trkpt lat="44.724152963147496" lon="1.156108006996156"><ele>132.66666666666666</ele><time>2026-04-19T12:59:59.988Z</time></trkpt><trkpt lat="44.72412537824099" lon="1.1563637117414725"><ele>133.33333333333331</ele><time>2026-04-19T13:00:00.988Z</time></trkpt><trkpt lat="44.724096455075966" lon="1.1566185857118274"><ele>134.0</ele><time>2026-04-19T13:00:01.988Z</time></trkpt><trkpt lat="44.72406674790299" lon="1.1568733351908755"><ele>134.66666666666666</ele><time>2026-04-19T13:00:02.988Z</time></trkpt><trkpt lat="44.724034929718776" lon="1.1571290420764255"><ele>135.33333333333334</ele><time>2026-04-19T13:00:03.988Z</time></trkpt><trkpt lat="44.72400429020605" lon="1.1573824712271852"><ele>136.0</ele><time>2026-04-19T13:00:04.988Z</time></trkpt><trkpt lat="44.723975381677484" lon="1.1576323940000364"><ele>136.66666666666669</ele><time>2026-04-19T13:00:05.988Z</time></trkpt><trkpt lat="44.72394403587143" lon="1.1578860413051093"><ele>137.33333333333334</ele><time>2026-04-19T13:00:06.988Z</time></trkpt><trkpt lat="44.723914920286376" lon="1.1581301896275102"><ele>138.0</ele><time>2026-04-19T13:00:07.988Z</time></trkpt><trkpt lat="44.723881996344296" lon="1.1583877818092434"><ele>136.66666666666666</ele><time>2026-04-19T13:00:08.988Z</time></trkpt><trkpt lat="44.72385586646823" lon="1.1586331195859794"><ele>135.33333333333331</ele><time>2026-04-19T13:00:09.988Z</time></trkpt><trkpt lat="44.72382965897691" lon="1.1588620303975237"><ele>134.0</ele><time>2026-04-19T13:00:10.988Z</time></trkpt><trkpt lat="44.723802805294014" lon="1.159097024033806"><ele>133.66666666666666</ele><time>2026-04-19T13:00:11.988Z</time></trkpt><trkpt lat="44.72379648255818" lon="1.1593200444275913"><ele>133.33333333333334</ele><time>2026-04-19T13:00:12.988Z</time></trkpt><trkpt lat="44.72381651201766" lon="1.159543631691199"><ele>133.0</ele><time>2026-04-19T13:00:13.988Z</time></trkpt><trkpt lat="44.72386102328368" lon="1.1597560903605129"><ele>131.33333333333334</ele><time>2026-04-19T13:00:14.988Z</time></trkpt><trkpt lat="44.72393629566976" lon="1.1599566912424273"><ele>129.66666666666666</ele><time>2026-04-19T13:00:15.988Z</time></trkpt><trkpt lat="44.724038037002146" lon="1.1601298222503496"><ele>128.0</ele><time>2026-04-19T13:00:16.988Z</time></trkpt><trkpt lat="44.72415940625971" lon="1.1602888125473199"><ele>128.0</ele><time>2026-04-19T13:00:17.988Z</time></trkpt><trkpt lat="44.72429866263749" lon="1.160400423826581"><ele>128.0</ele><time>2026-04-19T13:00:18.988Z</time></trkpt><trkpt lat="44.72445202827976" lon="1.1605109089242973"><ele>128.0</ele><time>2026-04-19T13:00:19.988Z</time></trkpt><trkpt lat="44.72460642684037" lon="1.160592862594634"><ele>127.33333333333333</ele><time>2026-04-19T13:00:20.988Z</time></trkpt><trkpt lat="44.724751291013874" lon="1.1606944849408756"><ele>126.66666666666666</ele><time>2026-04-19T13:00:21.988Z</time></trkpt><trkpt lat="44.724910129602605" lon="1.1607904302526144"><ele>126.0</ele><time>2026-04-19T13:00:22.988Z</time></trkpt><trkpt lat="44.72506504871271" lon="1.1608840080248628"><ele>126.0</ele><time>2026-04-19T13:00:23.988Z</time></trkpt><trkpt lat="44.72522266133324" lon="1.1609808556639556"><ele>126.0</ele><time>2026-04-19T13:00:24.988Z</time></trkpt><trkpt lat="44.72538419997772" lon="1.1610623970814409"><ele>126.0</ele><time>2026-04-19T13:00:25.988Z</time></trkpt><trkpt lat="44.7255390595298" lon="1.1611634495678818"><ele>126.33333333333334</ele><time>2026-04-19T13:00:26.988Z</time></trkpt><trkpt lat="44.72569187753633" lon="1.1612599087948634"><ele>126.66666666666667</ele><time>2026-04-19T13:00:27.988Z</time></trkpt><trkpt lat="44.72584593034922" lon="1.1613528786292078"><ele>127.0</ele><time>2026-04-19T13:00:28.988Z</time></trkpt><trkpt lat="44.72598134771038" lon="1.161483928969654"><ele>127.66666666666667</ele><time>2026-04-19T13:00:29.988Z</time></trkpt><trkpt lat="44.72613000347097" lon="1.1615965725615562"><ele>128.33333333333334</ele><time>2026-04-19T13:00:30.988Z</time></trkpt><trkpt lat="44.72625766189775" lon="1.1617480695573053"><ele>129.0</ele><time>2026-04-19T13:00:31.988Z</time></trkpt><trkpt lat="44.72637636428636" lon="1.1619113180325624"><ele>129.0</ele><time>2026-04-19T13:00:32.988Z</time></trkpt><trkpt lat="44.72648506189152" lon="1.1620877245506986"><ele>129.0</ele><time>2026-04-19T13:00:33.988Z</time></trkpt><trkpt lat="44.726573420530556" lon="1.1622918001859968"><ele>129.0</ele><time>2026-04-19T13:00:34.988Z</time></trkpt><trkpt lat="44.726632272846466" lon="1.1625099211242924"><ele>127.66666666666666</ele><time>2026-04-19T13:00:35.988Z</time></trkpt><trkpt lat="44.726687268260726" lon="1.1627295965799713"><ele>126.33333333333333</ele><time>2026-04-19T13:00:36.988Z</time></trkpt><trkpt lat="44.72673625541397" lon="1.1629672009445065"><ele>125.0</ele><time>2026-04-19T13:00:37.988Z</time></trkpt><trkpt lat="44.726741066809936" lon="1.1632191183778926"><ele>124.66666666666666</ele><time>2026-04-19T13:00:38.988Z</time></trkpt><trkpt lat="44.726740566432056" lon="1.163473547910822"><ele>124.33333333333334</ele><time>2026-04-19T13:00:39.988Z</time></trkpt><trkpt lat="44.72671789209636" lon="1.1637280473839855"><ele>124.0</ele><time>2026-04-19T13:00:40.988Z</time></trkpt><trkpt lat="44.72668221231803" lon="1.1639780831359272"><ele>124.66666666666667</ele><time>2026-04-19T13:00:41.988Z</time></trkpt><trkpt lat="44.7266429472331" lon="1.1642367442981887"><ele>125.33333333333334</ele><time>2026-04-19T13:00:42.989Z</time></trkpt><trkpt lat="44.7266172348653" lon="1.1644854770182995"><ele>126.0</ele><time>2026-04-19T13:00:43.989Z</time></trkpt><trkpt lat="44.72657231621125" lon="1.1647328411270566"><ele>128.66666666666666</ele><time>2026-04-19T13:00:44.989Z</time></trkpt><trkpt lat="44.72653698141537" lon="1.1649738481287062"><ele>131.33333333333331</ele><time>2026-04-19T13:00:45.989Z</time></trkpt><trkpt lat="44.72649871317706" lon="1.1652196985969403"><ele>134.0</ele><time>2026-04-19T13:00:46.989Z</time></trkpt><trkpt lat="44.72646728366945" lon="1.1654597411373933"><ele>134.0</ele><time>2026-04-19T13:00:47.989Z</time></trkpt><trkpt lat="44.72643858187943" lon="1.1656888674063468"><ele>134.0</ele><time>2026-04-19T13:00:48.989Z</time></trkpt><trkpt lat="44.726422719442866" lon="1.1659038868950329"><ele>134.0</ele><time>2026-04-19T13:00:49.989Z</time></trkpt><trkpt lat="44.72641623085514" lon="1.1661335735305633"><ele>134.0</ele><time>2026-04-19T13:00:50.989Z</time></trkpt><trkpt lat="44.72642203741778" lon="1.1663576097095534"><ele>134.0</ele><time>2026-04-19T13:00:51.989Z</time></trkpt><trkpt lat="44.72643393764156" lon="1.1665770985373833"><ele>134.0</ele><time>2026-04-19T13:00:52.989Z</time></trkpt><trkpt lat="44.72645405148444" lon="1.1667971039065907"><ele>134.0</ele><time>2026-04-19T13:00:53.989Z</time></trkpt><trkpt lat="44.72648869234848" lon="1.1670143359576817"><ele>134.0</ele><time>2026-04-19T13:00:54.989Z</time></trkpt><trkpt lat="44.726533630137055" lon="1.1672358011584836"><ele>134.0</ele><time>2026-04-19T13:00:55.989Z</time></trkpt><trkpt lat="44.72658589273075" lon="1.1674525576464603"><ele>131.66666666666666</ele><time>2026-04-19T13:00:56.989Z</time></trkpt><trkpt lat="44.72663392495021" lon="1.1676843776213932"><ele>129.33333333333334</ele><time>2026-04-19T13:00:57.989Z</time></trkpt><trkpt lat="44.72669765950601" lon="1.1678916557343186"><ele>127.0</ele><time>2026-04-19T13:00:58.989Z</time></trkpt><trkpt lat="44.72676973735261" lon="1.1680924487787616"><ele>125.0</ele><time>2026-04-19T13:00:59.989Z</time></trkpt><trkpt lat="44.72685554827051" lon="1.1682892239229379"><ele>123.0</ele><time>2026-04-19T13:01:00.989Z</time></trkpt><trkpt lat="44.7269366833016" lon="1.168486326735961"><ele>121.0</ele><time>2026-04-19T13:01:01.986Z</time></trkpt><trkpt lat="44.72704107349949" lon="1.1686683677783123"><ele>122.66666666666667</ele><time>2026-04-19T13:01:02.986Z</time></trkpt><trkpt lat="44.7271419603429" lon="1.1688635791511603"><ele>124.33333333333334</ele><time>2026-04-19T13:01:03.986Z</time></trkpt><trkpt lat="44.727252407036154" lon="1.1690463744863677"><ele>126.0</ele><time>2026-04-19T13:01:04.986Z</time></trkpt><trkpt lat="44.72736948358589" lon="1.1692299687033192"><ele>126.0</ele><time>2026-04-19T13:01:05.985Z</time></trkpt><trkpt lat="44.72749245188682" lon="1.1694172347756804"><ele>126.0</ele><time>2026-04-19T13:01:06.985Z</time></trkpt><trkpt lat="44.7276087561871" lon="1.1696167618074502"><ele>126.0</ele><time>2026-04-19T13:01:07.986Z</time></trkpt><trkpt lat="44.727719138262714" lon="1.169829189725204"><ele>127.33333333333334</ele><time>2026-04-19T13:01:08.986Z</time></trkpt><trkpt lat="44.72784094024102" lon="1.170035189715841"><ele>128.66666666666669</ele><time>2026-04-19T13:01:09.986Z</time></trkpt><trkpt lat="44.72797005637645" lon="1.1702336825054545"><ele>130.0</ele><time>2026-04-19T13:01:10.986Z</time></trkpt><trkpt lat="44.72811082362988" lon="1.170438628046837"><ele>130.0</ele><time>2026-04-19T13:01:11.986Z</time></trkpt><trkpt lat="44.72822952113316" lon="1.17065778265023"><ele>130.0</ele><time>2026-04-19T13:01:12.986Z</time></trkpt><trkpt lat="44.72835826348773" lon="1.1708810353403718"><ele>130.0</ele><time>2026-04-19T13:01:13.986Z</time></trkpt><trkpt lat="44.72849889691721" lon="1.1711124482112076"><ele>131.0</ele><time>2026-04-19T13:01:14.985Z</time></trkpt><trkpt lat="44.72863998558949" lon="1.1713474050156165"><ele>132.0</ele><time>2026-04-19T13:01:15.985Z</time></trkpt><trkpt lat="44.72877986113139" lon="1.1715710886488317"><ele>133.0</ele><time>2026-04-19T13:01:16.985Z</time></trkpt><trkpt lat="44.72890868488555" lon="1.1717831459253096"><ele>128.33333333333334</ele><time>2026-04-19T13:01:17.985Z</time></trkpt><trkpt lat="44.729044055351785" lon="1.172000136421643"><ele>123.66666666666666</ele><time>2026-04-19T13:01:18.985Z</time></trkpt><trkpt lat="44.729173203962375" lon="1.1722156790533687"><ele>119.0</ele><time>2026-04-19T13:01:19.985Z</time></trkpt><trkpt lat="44.72930554097837" lon="1.172404664142574"><ele>122.0</ele><time>2026-04-19T13:01:20.985Z</time></trkpt><trkpt lat="44.72941951901238" lon="1.1726070125834307"><ele>125.0</ele><time>2026-04-19T13:01:21.985Z</time></trkpt><trkpt lat="44.72953717525776" lon="1.1728070629657943"><ele>128.0</ele><time>2026-04-19T13:01:22.985Z</time></trkpt><trkpt lat="44.72967043917478" lon="1.1729934035682397"><ele>128.0</ele><time>2026-04-19T13:01:23.985Z</time></trkpt><trkpt lat="44.72978893315075" lon="1.1731829951520654"><ele>128.0</ele><time>2026-04-19T13:01:24.985Z</time></trkpt><trkpt lat="44.72990608161667" lon="1.1733760595239346"><ele>128.0</ele><time>2026-04-19T13:01:25.985Z</time></trkpt><trkpt lat="44.730016387295876" lon="1.1735928978034038"><ele>127.0</ele><time>2026-04-19T13:01:26.985Z</time></trkpt><trkpt lat="44.730117150366404" lon="1.1737948208961624"><ele>126.0</ele><time>2026-04-19T13:01:27.985Z</time></trkpt><trkpt lat="44.73019504571669" lon="1.1740347227303762"><ele>125.0</ele><time>2026-04-19T13:01:28.985Z</time></trkpt><trkpt lat="44.730252470617195" lon="1.174287236032801"><ele>133.33333333333331</ele><time>2026-04-19T13:01:29.985Z</time></trkpt><trkpt lat="44.73028241897161" lon="1.1745430908246024"><ele>141.66666666666666</ele><time>2026-04-19T13:01:30.985Z</time></trkpt><trkpt lat="44.73029316806347" lon="1.1748289804342835"><ele>150.0</ele><time>2026-04-19T13:01:31.985Z</time></trkpt><trkpt lat="44.730300133005215" lon="1.17511210308813"><ele>150.0</ele><time>2026-04-19T13:01:32.985Z</time></trkpt><trkpt lat="44.73030915298033" lon="1.1753882613597937"><ele>150.0</ele><time>2026-04-19T13:01:33.986Z</time></trkpt><trkpt lat="44.73031764551355" lon="1.1756643073013713"><ele>150.0</ele><time>2026-04-19T13:01:34.986Z</time></trkpt><trkpt lat="44.73032592341545" lon="1.1759417225898496"><ele>149.0</ele><time>2026-04-19T13:01:35.986Z</time></trkpt><trkpt lat="44.73033922129269" lon="1.1762254606754166"><ele>148.0</ele><time>2026-04-19T13:01:36.986Z</time></trkpt><trkpt lat="44.73035521172545" lon="1.176510263195133"><ele>147.0</ele><time>2026-04-19T13:01:37.986Z</time></trkpt><trkpt lat="44.730366216187456" lon="1.1767948687505139"><ele>146.0</ele><time>2026-04-19T13:01:38.986Z</time></trkpt><trkpt lat="44.730380685733564" lon="1.1770667417699265"><ele>145.0</ele><time>2026-04-19T13:01:39.986Z</time></trkpt><trkpt lat="44.73039733414516" lon="1.1773459245449327"><ele>144.0</ele><time>2026-04-19T13:01:40.986Z</time></trkpt><trkpt lat="44.73040922400929" lon="1.177620621273201"><ele>144.0</ele><time>2026-04-19T13:01:41.986Z</time></trkpt><trkpt lat="44.73042402691139" lon="1.177893555900788"><ele>144.0</ele><time>2026-04-19T13:01:42.986Z</time></trkpt><trkpt lat="44.73043153785438" lon="1.1781556758286682"><ele>144.0</ele><time>2026-04-19T13:01:43.986Z</time></trkpt><trkpt lat="44.73044305164167" lon="1.1784454311191606"><ele>144.0</ele><time>2026-04-19T13:01:44.986Z</time></trkpt><trkpt lat="44.73045252863527" lon="1.1787281465807955"><ele>144.0</ele><time>2026-04-19T13:01:45.986Z</time></trkpt><trkpt lat="44.73046983933783" lon="1.1789906095114866"><ele>144.0</ele><time>2026-04-19T13:01:46.986Z</time></trkpt><trkpt lat="44.730464168590444" lon="1.179248902026061"><ele>142.33333333333334</ele><time>2026-04-19T13:01:47.986Z</time></trkpt><trkpt lat="44.730492963149636" lon="1.1795126287299118"><ele>140.66666666666669</ele><time>2026-04-19T13:01:48.986Z</time></trkpt><trkpt lat="44.7305172109423" lon="1.1797700024149351"><ele>139.0</ele><time>2026-04-19T13:01:49.986Z</time></trkpt><trkpt lat="44.73056846882832" lon="1.1800236878063233"><ele>136.0</ele><time>2026-04-19T13:01:50.986Z</time></trkpt><trkpt lat="44.730645596838094" lon="1.1802807395734383"><ele>133.0</ele><time>2026-04-19T13:01:51.986Z</time></trkpt><trkpt lat="44.730745976589965" lon="1.1805531914592082"><ele>130.0</ele><time>2026-04-19T13:01:52.986Z</time></trkpt><trkpt lat="44.73083403057616" lon="1.1808227017002313"><ele>126.66666666666667</ele><time>2026-04-19T13:01:53.986Z</time></trkpt><trkpt lat="44.73094011856286" lon="1.1810715181937155"><ele>123.33333333333334</ele><time>2026-04-19T13:01:54.986Z</time></trkpt><trkpt lat="44.73102659749594" lon="1.1813359994360342"><ele>120.0</ele><time>2026-04-19T13:01:55.986Z</time></trkpt><trkpt lat="44.731119288608205" lon="1.181589980325843"><ele>126.66666666666666</ele><time>2026-04-19T13:01:56.986Z</time></trkpt><trkpt lat="44.731205226305285" lon="1.1818500238710525"><ele>133.33333333333331</ele><time>2026-04-19T13:01:57.986Z</time></trkpt><trkpt lat="44.731291372864895" lon="1.182095653063595"><ele>140.0</ele><time>2026-04-19T13:01:58.986Z</time></trkpt><trkpt lat="44.731374478519335" lon="1.1823149449183992"><ele>136.33333333333331</ele><time>2026-04-19T13:01:59.986Z</time></trkpt><trkpt lat="44.73145452550536" lon="1.1825521391540648"><ele>132.66666666666666</ele><time>2026-04-19T13:02:00.986Z</time></trkpt><trkpt lat="44.73153140517898" lon="1.1827922778667221"><ele>129.0</ele><time>2026-04-19T13:02:01.986Z</time></trkpt><trkpt lat="44.73156374230304" lon="1.1830704191638832"><ele>127.33333333333334</ele><time>2026-04-19T13:02:02.986Z</time></trkpt><trkpt lat="44.73157508819313" lon="1.1833418537350426"><ele>125.66666666666667</ele><time>2026-04-19T13:02:03.986Z</time></trkpt><trkpt lat="44.731563033248534" lon="1.1836185429123418"><ele>124.0</ele><time>2026-04-19T13:02:04.986Z</time></trkpt><trkpt lat="44.73153152553683" lon="1.18389970242993"><ele>124.66666666666667</ele><time>2026-04-19T13:02:05.986Z</time></trkpt><trkpt lat="44.73151404432062" lon="1.184159435455869"><ele>125.33333333333334</ele><time>2026-04-19T13:02:06.986Z</time></trkpt><trkpt lat="44.73147564195998" lon="1.1844084470725222"><ele>126.0</ele><time>2026-04-19T13:02:07.986Z</time></trkpt><trkpt lat="44.731452369528775" lon="1.1846419754392412"><ele>126.0</ele><time>2026-04-19T13:02:08.986Z</time></trkpt><trkpt lat="44.73143071842862" lon="1.184869806860693"><ele>126.0</ele><time>2026-04-19T13:02:09.986Z</time></trkpt><trkpt lat="44.731422750029694" lon="1.1850918644817519"><ele>126.0</ele><time>2026-04-19T13:02:10.986Z</time></trkpt><trkpt lat="44.731444894469114" lon="1.1853350244100436"><ele>126.0</ele><time>2026-04-19T13:02:11.986Z</time></trkpt><trkpt lat="44.7314857355244" lon="1.1855640371773284"><ele>126.0</ele><time>2026-04-19T13:02:12.986Z</time></trkpt><trkpt lat="44.73154563209248" lon="1.1858088781154938"><ele>126.0</ele><time>2026-04-19T13:02:13.986Z</time></trkpt><trkpt lat="44.73160993757623" lon="1.186033979120831"><ele>124.66666666666666</ele><time>2026-04-19T13:02:14.986Z</time></trkpt><trkpt lat="44.731672329648624" lon="1.1862785395643969"><ele>123.33333333333333</ele><time>2026-04-19T13:02:15.986Z</time></trkpt><trkpt lat="44.731722588556785" lon="1.1865053576843652"><ele>122.0</ele><time>2026-04-19T13:02:16.986Z</time></trkpt><trkpt lat="44.731771255279085" lon="1.1867470634616872"><ele>121.0</ele><time>2026-04-19T13:02:17.987Z</time></trkpt><trkpt lat="44.73180172379672" lon="1.1869748681049173"><ele>120.0</ele><time>2026-04-19T13:02:18.987Z</time></trkpt><trkpt lat="44.73183615419003" lon="1.1871927472248633"><ele>119.0</ele><time>2026-04-19T13:02:19.987Z</time></trkpt><trkpt lat="44.73184854052373" lon="1.187430710750902"><ele>118.33333333333333</ele><time>2026-04-19T13:02:20.987Z</time></trkpt><trkpt lat="44.73184422865331" lon="1.1876699054012023"><ele>117.66666666666666</ele><time>2026-04-19T13:02:21.987Z</time></trkpt><trkpt lat="44.7318447052661" lon="1.1879376751740849"><ele>117.0</ele><time>2026-04-19T13:02:22.987Z</time></trkpt><trkpt lat="44.73181545911907" lon="1.1881936176311507"><ele>117.0</ele><time>2026-04-19T13:02:23.987Z</time></trkpt><trkpt lat="44.731799888737896" lon="1.1884501764452315"><ele>117.0</ele><time>2026-04-19T13:02:24.987Z</time></trkpt><trkpt lat="44.731783933770295" lon="1.1887023271982309"><ele>117.0</ele><time>2026-04-19T13:02:25.987Z</time></trkpt><trkpt lat="44.73177195149735" lon="1.188938600940734"><ele>117.0</ele><time>2026-04-19T13:02:26.987Z</time></trkpt><trkpt lat="44.73175376738276" lon="1.1891723839108181"><ele>117.0</ele><time>2026-04-19T13:02:27.987Z</time></trkpt><trkpt lat="44.731735992204044" lon="1.1893933443962093"><ele>117.0</ele><time>2026-04-19T13:02:28.987Z</time></trkpt><trkpt lat="44.73172469018245" lon="1.18960295575496"><ele>117.0</ele><time>2026-04-19T13:02:29.987Z</time></trkpt><trkpt lat="44.73172186130943" lon="1.1897990219395984"><ele>117.0</ele><time>2026-04-19T13:02:30.987Z</time></trkpt><trkpt lat="44.731734605491965" lon="1.1899950129392955"><ele>117.0</ele><time>2026-04-19T13:02:31.987Z</time></trkpt><trkpt lat="44.73177825748917" lon="1.1901957926071574"><ele>117.0</ele><time>2026-04-19T13:02:32.987Z</time></trkpt><trkpt lat="44.73184918834163" lon="1.1903974348475934"><ele>120.66666666666666</ele><time>2026-04-19T13:02:33.987Z</time></trkpt><trkpt lat="44.731928177843116" lon="1.1905901154442837"><ele>124.33333333333333</ele><time>2026-04-19T13:02:34.987Z</time></trkpt><trkpt lat="44.73204589902426" lon="1.1907557991327604"><ele>128.0</ele><time>2026-04-19T13:02:35.987Z</time></trkpt><trkpt lat="44.732178623666925" lon="1.190918497476679"><ele>128.0</ele><time>2026-04-19T13:02:36.987Z</time></trkpt><trkpt lat="44.73234175908775" lon="1.191079027907756"><ele>128.0</ele><time>2026-04-19T13:02:37.987Z</time></trkpt><trkpt lat="44.73247864480017" lon="1.191260824172503"><ele>128.0</ele><time>2026-04-19T13:02:38.987Z</time></trkpt><trkpt lat="44.732561177899626" lon="1.1914655872176336"><ele>129.66666666666666</ele><time>2026-04-19T13:02:39.987Z</time></trkpt><trkpt lat="44.73265911339202" lon="1.1916827446782468"><ele>131.33333333333334</ele><time>2026-04-19T13:02:40.987Z</time></trkpt><trkpt lat="44.732764962349876" lon="1.1919291332662465"><ele>133.0</ele><time>2026-04-19T13:02:41.987Z</time></trkpt><trkpt lat="44.73288036584292" lon="1.1921873508228897"><ele>125.0</ele><time>2026-04-19T13:02:42.987Z</time></trkpt><trkpt lat="44.7330418203896" lon="1.1924311683845683"><ele>117.0</ele><time>2026-04-19T13:02:43.987Z</time></trkpt><trkpt lat="44.733210108002936" lon="1.1926492146370422"><ele>117.0</ele><time>2026-04-19T13:02:44.987Z</time></trkpt><trkpt lat="44.73335920841308" lon="1.192812384447606"><ele>117.0</ele><time>2026-04-19T13:02:45.987Z</time></trkpt><trkpt lat="44.7334870218152" lon="1.1930031672446002"><ele>117.0</ele><time>2026-04-19T13:02:46.987Z</time></trkpt><trkpt lat="44.73357306039276" lon="1.1932084856669023"><ele>119.0</ele><time>2026-04-19T13:02:47.987Z</time></trkpt><trkpt lat="44.73363464180852" lon="1.1933984909231516"><ele>121.0</ele><time>2026-04-19T13:02:48.987Z</time></trkpt><trkpt lat="44.73370296787907" lon="1.1935587284914324"><ele>123.0</ele><time>2026-04-19T13:02:49.987Z</time></trkpt><trkpt lat="44.73379335199387" lon="1.1936763944362083"><ele>125.0</ele><time>2026-04-19T13:02:50.987Z</time></trkpt><trkpt lat="44.73391367146999" lon="1.1937879049083318"><ele>125.0</ele><time>2026-04-19T13:02:51.987Z</time></trkpt><trkpt lat="44.73407190522021" lon="1.1938534393733222"><ele>125.0</ele><time>2026-04-19T13:02:52.987Z</time></trkpt><trkpt lat="44.73424615795037" lon="1.1938864368833508"><ele>125.0</ele><time>2026-04-19T13:02:53.987Z</time></trkpt><trkpt lat="44.73440730158505" lon="1.1939376770363392"><ele>123.0</ele><time>2026-04-19T13:02:54.987Z</time></trkpt><trkpt lat="44.73455832217866" lon="1.1940219113407387"><ele>121.0</ele><time>2026-04-19T13:02:55.987Z</time></trkpt><trkpt lat="44.7346874496913" lon="1.1941456736937666"><ele>119.0</ele><time>2026-04-19T13:02:56.987Z</time></trkpt><trkpt lat="44.73481204693739" lon="1.1942652091631472"><ele>119.0</ele><time>2026-04-19T13:02:57.987Z</time></trkpt><trkpt lat="44.734917038278226" lon="1.1944520593091499"><ele>119.0</ele><time>2026-04-19T13:02:58.987Z</time></trkpt><trkpt lat="44.73503675926913" lon="1.194634428995788"><ele>119.0</ele><time>2026-04-19T13:02:59.987Z</time></trkpt><trkpt lat="44.735140835258385" lon="1.1947967530949446"><ele>119.5</ele><time>2026-04-19T13:03:00.987Z</time></trkpt><trkpt lat="44.73524859163115" lon="1.1949381409481135"><ele>120.0</ele><time>2026-04-19T13:03:01.988Z</time></trkpt><trkpt lat="44.73536011778241" lon="1.1950570919488026"><ele>120.5</ele><time>2026-04-19T13:03:02.988Z</time></trkpt><trkpt lat="44.73548304095137" lon="1.19516977879275"><ele>121.0</ele><time>2026-04-19T13:03:03.988Z</time></trkpt><trkpt lat="44.735625591637785" lon="1.195273883191581"><ele>121.0</ele><time>2026-04-19T13:03:04.988Z</time></trkpt><trkpt lat="44.73579828467665" lon="1.1953432433557298"><ele>121.0</ele><time>2026-04-19T13:03:05.988Z</time></trkpt><trkpt lat="44.735952663084774" lon="1.1954302243521586"><ele>121.0</ele><time>2026-04-19T13:03:06.988Z</time></trkpt><trkpt lat="44.73612778446664" lon="1.1955215958996561"><ele>118.0</ele><time>2026-04-19T13:03:07.985Z</time></trkpt><trkpt lat="44.73632001152829" lon="1.195651114912093"><ele>115.0</ele><time>2026-04-19T13:03:08.985Z</time></trkpt><trkpt lat="44.736501836814675" lon="1.1957616914898304"><ele>112.0</ele><time>2026-04-19T13:03:09.985Z</time></trkpt><trkpt lat="44.73668758379065" lon="1.1958677801336004"><ele>112.0</ele><time>2026-04-19T13:03:10.986Z</time></trkpt><trkpt lat="44.73687094089075" lon="1.195964213338867"><ele>112.0</ele><time>2026-04-19T13:03:11.985Z</time></trkpt><trkpt lat="44.73703796220041" lon="1.1960829995756888"><ele>112.0</ele><time>2026-04-19T13:03:12.985Z</time></trkpt><trkpt lat="44.73719882427745" lon="1.1961581528052658"><ele>117.0</ele><time>2026-04-19T13:03:13.985Z</time></trkpt><trkpt lat="44.73734742668163" lon="1.1962424883882545"><ele>122.0</ele><time>2026-04-19T13:03:14.985Z</time></trkpt><trkpt lat="44.73748508061589" lon="1.196331944504298"><ele>127.0</ele><time>2026-04-19T13:03:15.985Z</time></trkpt><trkpt lat="44.73761355286441" lon="1.19640356378823"><ele>130.25</ele><time>2026-04-19T13:03:16.985Z</time></trkpt><trkpt lat="44.737741947398135" lon="1.1964682668002091"><ele>133.5</ele><time>2026-04-19T13:03:17.985Z</time></trkpt><trkpt lat="44.73785806772519" lon="1.1965309085435762"><ele>136.75</ele><time>2026-04-19T13:03:18.985Z</time></trkpt><trkpt lat="44.7379679582109" lon="1.1966004026836907"><ele>140.0</ele><time>2026-04-19T13:03:19.985Z</time></trkpt><trkpt lat="44.738069325979815" lon="1.1966628163214283"><ele>134.8</ele><time>2026-04-19T13:03:20.985Z</time></trkpt><trkpt lat="44.73816705052369" lon="1.1967369886234827"><ele>129.6</ele><time>2026-04-19T13:03:21.985Z</time></trkpt><trkpt lat="44.738269451146415" lon="1.1967717397438091"><ele>124.4</ele><time>2026-04-19T13:03:22.985Z</time></trkpt><trkpt lat="44.73837243056593" lon="1.196832928504441"><ele>119.2</ele><time>2026-04-19T13:03:23.985Z</time></trkpt><trkpt lat="44.738466251393355" lon="1.1968810206114"><ele>114.0</ele><time>2026-04-19T13:03:24.985Z</time></trkpt><trkpt lat="44.73856978987586" lon="1.1968882178279698"><ele>113.4</ele><time>2026-04-19T13:03:25.985Z</time></trkpt><trkpt lat="44.738665661488504" lon="1.1969079068542052"><ele>112.80000000000001</ele><time>2026-04-19T13:03:26.985Z</time></trkpt><trkpt lat="44.738768149261304" lon="1.1969038158316545"><ele>112.19999999999999</ele><time>2026-04-19T13:03:27.985Z</time></trkpt><trkpt lat="44.7388574000969" lon="1.196894871823542"><ele>111.6</ele><time>2026-04-19T13:03:28.985Z</time></trkpt><trkpt lat="44.738958151344534" lon="1.1968847153253692"><ele>111.0</ele><time>2026-04-19T13:03:29.985Z</time></trkpt><trkpt lat="44.73905155068799" lon="1.1968657228669914"><ele>111.0</ele><time>2026-04-19T13:03:30.985Z</time></trkpt><trkpt lat="44.73913491530308" lon="1.19685938583298"><ele>111.0</ele><time>2026-04-19T13:03:31.985Z</time></trkpt><trkpt lat="44.73920899997922" lon="1.1968371582165411"><ele>111.0</ele><time>2026-04-19T13:03:32.985Z</time></trkpt><trkpt lat="44.73928350052737" lon="1.1968153320589803"><ele>111.0</ele><time>2026-04-19T13:03:33.985Z</time></trkpt><trkpt lat="44.73935507587817" lon="1.1967841805606734"><ele>111.0</ele><time>2026-04-19T13:03:34.985Z</time></trkpt><trkpt lat="44.73942145509172" lon="1.1967572051412736"><ele>111.0</ele><time>2026-04-19T13:03:35.985Z</time></trkpt><trkpt lat="44.739500815328" lon="1.1967484028158355"><ele>110.66666666666667</ele><time>2026-04-19T13:03:36.985Z</time></trkpt><trkpt lat="44.73956683683706" lon="1.196691767003506"><ele>110.33333333333334</ele><time>2026-04-19T13:03:37.985Z</time></trkpt><trkpt lat="44.73964897793338" lon="1.1966677452214811"><ele>110.0</ele><time>2026-04-19T13:03:38.985Z</time></trkpt><trkpt lat="44.73970067099707" lon="1.1966168116099019"><ele>109.66666666666667</ele><time>2026-04-19T13:03:39.985Z</time></trkpt><trkpt lat="44.73977919541561" lon="1.1965836060847312"><ele>109.33333333333334</ele><time>2026-04-19T13:03:40.985Z</time></trkpt><trkpt lat="44.73984535343878" lon="1.196535896193664"><ele>109.0</ele><time>2026-04-19T13:03:41.985Z</time></trkpt><trkpt lat="44.73992102371101" lon="1.1964723730847047"><ele>109.00000000000001</ele><time>2026-04-19T13:03:42.985Z</time></trkpt><trkpt lat="44.73997993166202" lon="1.1964151288301346"><ele>109.0</ele><time>2026-04-19T13:03:43.985Z</time></trkpt><trkpt lat="44.74006444138385" lon="1.1963678623695257"><ele>109.0</ele><time>2026-04-19T13:03:44.985Z</time></trkpt><trkpt lat="44.740136371096014" lon="1.1963211921381103"><ele>109.0</ele><time>2026-04-19T13:03:45.985Z</time></trkpt><trkpt lat="44.74020383593582" lon="1.1962521301805515"><ele>109.00000000000001</ele><time>2026-04-19T13:03:46.985Z</time></trkpt><trkpt lat="44.740283006831724" lon="1.1962058569980079"><ele>109.0</ele><time>2026-04-19T13:03:47.985Z</time></trkpt><trkpt lat="44.74035372701354" lon="1.1961409851536293"><ele>107.83333333333334</ele><time>2026-04-19T13:03:48.985Z</time></trkpt><trkpt lat="44.74043463966949" lon="1.196082171652115"><ele>106.66666666666667</ele><time>2026-04-19T13:03:49.985Z</time></trkpt><trkpt lat="44.74050899614915" lon="1.1960237921005927"><ele>105.5</ele><time>2026-04-19T13:03:50.985Z</time></trkpt><trkpt lat="44.74058897195278" lon="1.1959666611832374"><ele>104.33333333333334</ele><time>2026-04-19T13:03:51.985Z</time></trkpt><trkpt lat="44.74066796596894" lon="1.195898316736906"><ele>103.16666666666667</ele><time>2026-04-19T13:03:52.985Z</time></trkpt><trkpt lat="44.74074202066739" lon="1.1958464071642207"><ele>102.0</ele><time>2026-04-19T13:03:53.985Z</time></trkpt><trkpt lat="44.74079409363704" lon="1.195789638877341"><ele>102.0</ele><time>2026-04-19T13:03:54.985Z</time></trkpt><trkpt lat="44.74086245011606" lon="1.1957629829517116"><ele>102.0</ele><time>2026-04-19T13:03:55.985Z</time></trkpt><trkpt lat="44.74096429290835" lon="1.195717640083416"><ele>102.0</ele><time>2026-04-19T13:03:57.986Z</time></trkpt><trkpt lat="44.74104231737373" lon="1.1957121954700132"><ele>102.0</ele><time>2026-04-19T13:04:00.986Z</time></trkpt><trkpt lat="44.741051896197725" lon="1.1955784137500858"><ele>102.0</ele><time>2026-04-19T13:04:03.986Z</time></trkpt><trkpt lat="44.74101736488243" lon="1.195472819511257"><ele>102.0</ele><time>2026-04-19T13:04:05.986Z</time></trkpt><trkpt lat="44.74097172487323" lon="1.1953686955362088"><ele>101.83333333333333</ele><time>2026-04-19T13:04:07.986Z</time></trkpt><trkpt lat="44.740970568324926" lon="1.1952794810682663"><ele>101.66666666666666</ele><time>2026-04-19T13:04:09.986Z</time></trkpt><trkpt lat="44.74103111803355" lon="1.1951528500071762"><ele>101.5</ele><time>2026-04-19T13:04:11.986Z</time></trkpt><trkpt lat="44.74112432792937" lon="1.1950475219103518"><ele>101.33333333333333</ele><time>2026-04-19T13:04:13.986Z</time></trkpt><trkpt lat="44.74116743333278" lon="1.1949674202347245"><ele>101.16666666666666</ele><time>2026-04-19T13:04:14.986Z</time></trkpt><trkpt lat="44.741206190632354" lon="1.1948895286945957"><ele>101.0</ele><time>2026-04-19T13:04:15.986Z</time></trkpt><trkpt lat="44.7412467228269" lon="1.194805298215388"><ele>101.0</ele><time>2026-04-19T13:04:16.986Z</time></trkpt><trkpt lat="44.741282520172426" lon="1.194709309363396"><ele>101.0</ele><time>2026-04-19T13:04:17.986Z</time></trkpt><trkpt lat="44.74130775922846" lon="1.1946160252508722"><ele>101.0</ele><time>2026-04-19T13:04:18.986Z</time></trkpt><trkpt lat="44.741365009835924" lon="1.1944557759556242"><ele>101.0</ele><time>2026-04-19T13:04:20.986Z</time></trkpt><trkpt lat="44.74143060659882" lon="1.194291110452868"><ele>101.0</ele><time>2026-04-19T13:04:22.986Z</time></trkpt><trkpt lat="44.74146621867708" lon="1.1942078911077083"><ele>101.0</ele><time>2026-04-19T13:04:23.986Z</time></trkpt><trkpt lat="44.74153300826909" lon="1.1940610876166926"><ele>101.0</ele><time>2026-04-19T13:04:25.986Z</time></trkpt><trkpt lat="44.74158283708075" lon="1.1939295916914574"><ele>101.0</ele><time>2026-04-19T13:04:27.986Z</time></trkpt><trkpt lat="44.74161700370052" lon="1.1938493733927207"><ele>101.0</ele><time>2026-04-19T13:04:28.986Z</time></trkpt><trkpt lat="44.74168029115738" lon="1.193727074207845"><ele>101.0</ele><time>2026-04-19T13:04:30.986Z</time></trkpt><trkpt lat="44.74169582090106" lon="1.1936379847126548"><ele>101.16666666666666</ele><time>2026-04-19T13:04:31.986Z</time></trkpt><trkpt lat="44.741725126658636" lon="1.1935556542215955"><ele>101.33333333333333</ele><time>2026-04-19T13:04:32.986Z</time></trkpt><trkpt lat="44.7417446446189" lon="1.1934701362080709"><ele>101.5</ele><time>2026-04-19T13:04:33.986Z</time></trkpt><trkpt lat="44.741791449437116" lon="1.1933341461856022"><ele>101.66666666666666</ele><time>2026-04-19T13:04:35.986Z</time></trkpt><trkpt lat="44.74178150409186" lon="1.193198080357454"><ele>101.83333333333333</ele><time>2026-04-19T13:04:37.986Z</time></trkpt><trkpt lat="44.741821843470284" lon="1.193080720721411"><ele>102.0</ele><time>2026-04-19T13:04:39.986Z</time></trkpt><trkpt lat="44.741890383374894" lon="1.1929639732972883"><ele>102.0</ele><time>2026-04-19T13:04:41.987Z</time></trkpt><trkpt lat="44.741948598867936" lon="1.192830577097062"><ele>102.0</ele><time>2026-04-19T13:04:43.987Z</time></trkpt><trkpt lat="44.742005071733324" lon="1.1926879838405577"><ele>102.0</ele><time>2026-04-19T13:04:45.987Z</time></trkpt><trkpt lat="44.74204674709493" lon="1.1925648233440596"><ele>102.0</ele><time>2026-04-19T13:04:47.987Z</time></trkpt><trkpt lat="44.74205914994932" lon="1.1924112038238714"><ele>102.0</ele><time>2026-04-19T13:04:49.987Z</time></trkpt><trkpt lat="44.74207845663678" lon="1.1923219039040858"><ele>102.0</ele><time>2026-04-19T13:04:50.987Z</time></trkpt><trkpt lat="44.742088952462716" lon="1.1922221560026258"><ele>102.0</ele><time>2026-04-19T13:04:51.987Z</time></trkpt><trkpt lat="44.742129052711164" lon="1.1921501074885024"><ele>102.0</ele><time>2026-04-19T13:04:52.987Z</time></trkpt><trkpt lat="44.742123820845286" lon="1.192035778880284"><ele>102.0</ele><time>2026-04-19T13:04:53.987Z</time></trkpt><trkpt lat="44.74212799395142" lon="1.1919356692918104"><ele>102.0</ele><time>2026-04-19T13:04:54.987Z</time></trkpt><trkpt lat="44.74216130981496" lon="1.1918433464502163"><ele>102.0</ele><time>2026-04-19T13:04:55.987Z</time></trkpt><trkpt lat="44.74220435646407" lon="1.1917594260167175"><ele>102.0</ele><time>2026-04-19T13:04:56.987Z</time></trkpt><trkpt lat="44.74227910432654" lon="1.1916063518373474"><ele>102.33333333333333</ele><time>2026-04-19T13:04:58.987Z</time></trkpt><trkpt lat="44.74234374099744" lon="1.1914496496142757"><ele>102.66666666666666</ele><time>2026-04-19T13:05:00.987Z</time></trkpt><trkpt lat="44.742380158848114" lon="1.1913734879493485"><ele>103.0</ele><time>2026-04-19T13:05:01.987Z</time></trkpt><trkpt lat="44.742374285371746" lon="1.1912644450558125"><ele>103.33333333333333</ele><time>2026-04-19T13:05:02.987Z</time></trkpt><trkpt lat="44.74239026794808" lon="1.1911582746404616"><ele>103.66666666666666</ele><time>2026-04-19T13:05:03.987Z</time></trkpt><trkpt lat="44.74239645430687" lon="1.1910616248620225"><ele>104.0</ele><time>2026-04-19T13:05:04.987Z</time></trkpt><trkpt lat="44.74241318705303" lon="1.190946788205392"><ele>104.0</ele><time>2026-04-19T13:05:06.987Z</time></trkpt><trkpt lat="44.74246447847261" lon="1.1908761060247437"><ele>104.0</ele><time>2026-04-19T13:05:08.987Z</time></trkpt><trkpt lat="44.74250772003161" lon="1.1907650597461785"><ele>104.0</ele><time>2026-04-19T13:05:10.987Z</time></trkpt><trkpt lat="44.742592073488346" lon="1.190698569779522"><ele>104.0</ele><time>2026-04-19T13:05:12.987Z</time></trkpt><trkpt lat="44.74266885575023" lon="1.1905964294911626"><ele>104.0</ele><time>2026-04-19T13:05:14.984Z</time></trkpt><trkpt lat="44.74276110783738" lon="1.1905049761870174"><ele>106.16666666666666</ele><time>2026-04-19T13:05:16.984Z</time></trkpt><trkpt lat="44.74284836008226" lon="1.1904560660822419"><ele>108.33333333333333</ele><time>2026-04-19T13:05:18.983Z</time></trkpt><trkpt lat="44.742912003729444" lon="1.1904215847847681"><ele>110.5</ele><time>2026-04-19T13:05:20.984Z</time></trkpt><trkpt lat="44.74299597192099" lon="1.1903966264401522"><ele>112.66666666666666</ele><time>2026-04-19T13:05:23.983Z</time></trkpt><trkpt lat="44.74304982045935" lon="1.1903368556603693"><ele>114.83333333333333</ele><time>2026-04-19T13:05:25.983Z</time></trkpt><trkpt lat="44.743045144410964" lon="1.1901869210211986"><ele>117.0</ele><time>2026-04-19T13:05:27.984Z</time></trkpt><trkpt lat="44.74303261172961" lon="1.1900025638146452"><ele>117.0</ele><time>2026-04-19T13:05:29.984Z</time></trkpt><trkpt lat="44.74302355894836" lon="1.1899113428556611"><ele>117.0</ele><time>2026-04-19T13:05:30.984Z</time></trkpt><trkpt lat="44.74301060106328" lon="1.1898047032286556"><ele>117.0</ele><time>2026-04-19T13:05:31.984Z</time></trkpt><trkpt lat="44.7429976939211" lon="1.1897070355797308"><ele>117.0</ele><time>2026-04-19T13:05:32.984Z</time></trkpt><trkpt lat="44.74298397170582" lon="1.1896032005792363"><ele>117.0</ele><time>2026-04-19T13:05:33.984Z</time></trkpt><trkpt lat="44.74296501668026" lon="1.1894830413453985"><ele>117.0</ele><time>2026-04-19T13:05:34.984Z</time></trkpt><trkpt lat="44.74295165808286" lon="1.189353906126943"><ele>119.6</ele><time>2026-04-19T13:05:35.984Z</time></trkpt><trkpt lat="44.74292832650024" lon="1.1892353352076612"><ele>122.19999999999999</ele><time>2026-04-19T13:05:36.984Z</time></trkpt><trkpt lat="44.742903718745495" lon="1.189121090132386"><ele>124.8</ele><time>2026-04-19T13:05:37.984Z</time></trkpt><trkpt lat="44.74287430077451" lon="1.189001724256801"><ele>127.4</ele><time>2026-04-19T13:05:38.984Z</time></trkpt><trkpt lat="44.74284870593844" lon="1.1888659768342316"><ele>130.0</ele><time>2026-04-19T13:05:39.984Z</time></trkpt><trkpt lat="44.7428105368494" lon="1.1887351133089903"><ele>130.0</ele><time>2026-04-19T13:05:40.984Z</time></trkpt><trkpt lat="44.7427819702015" lon="1.1885913981725362"><ele>130.0</ele><time>2026-04-19T13:05:41.984Z</time></trkpt><trkpt lat="44.74273875100728" lon="1.1884651825686918"><ele>130.0</ele><time>2026-04-19T13:05:42.984Z</time></trkpt><trkpt lat="44.742702169373416" lon="1.1883452874849563"><ele>130.0</ele><time>2026-04-19T13:05:43.984Z</time></trkpt><trkpt lat="44.74266012123402" lon="1.1882057673811541"><ele>130.0</ele><time>2026-04-19T13:05:44.984Z</time></trkpt><trkpt lat="44.74262747849096" lon="1.1880718177677594"><ele>130.0</ele><time>2026-04-19T13:05:45.984Z</time></trkpt><trkpt lat="44.74259018589563" lon="1.187941935851065"><ele>130.0</ele><time>2026-04-19T13:05:46.984Z</time></trkpt><trkpt lat="44.74255326232898" lon="1.1878164845363313"><ele>130.0</ele><time>2026-04-19T13:05:47.984Z</time></trkpt><trkpt lat="44.74252725538235" lon="1.187672919594364"><ele>130.0</ele><time>2026-04-19T13:05:48.984Z</time></trkpt><trkpt lat="44.74249714677179" lon="1.1875670833337455"><ele>130.0</ele><time>2026-04-19T13:05:49.984Z</time></trkpt><trkpt lat="44.74248068816552" lon="1.1874686333666677"><ele>130.0</ele><time>2026-04-19T13:05:50.984Z</time></trkpt><trkpt lat="44.74245764305379" lon="1.1873644974938222"><ele>130.0</ele><time>2026-04-19T13:05:51.984Z</time></trkpt><trkpt lat="44.74242689058373" lon="1.1872022647632943"><ele>130.0</ele><time>2026-04-19T13:05:53.984Z</time></trkpt><trkpt lat="44.74241652541705" lon="1.187022428448345"><ele>130.0</ele><time>2026-04-19T13:05:55.984Z</time></trkpt><trkpt lat="44.74243679049257" lon="1.186913262818424"><ele>130.0</ele><time>2026-04-19T13:05:56.984Z</time></trkpt><trkpt lat="44.742453324163904" lon="1.1867948817434586"><ele>131.2</ele><time>2026-04-19T13:05:57.984Z</time></trkpt><trkpt lat="44.74247548660766" lon="1.1866824229381832"><ele>132.4</ele><time>2026-04-19T13:05:58.984Z</time></trkpt><trkpt lat="44.74250247683918" lon="1.1865561612367181"><ele>133.6</ele><time>2026-04-19T13:05:59.984Z</time></trkpt><trkpt lat="44.74253203368079" lon="1.1864289940031167"><ele>134.8</ele><time>2026-04-19T13:06:00.984Z</time></trkpt><trkpt lat="44.742554415070344" lon="1.1863064401451882"><ele>136.0</ele><time>2026-04-19T13:06:01.984Z</time></trkpt><trkpt lat="44.742570251352916" lon="1.1861817260057665"><ele>137.0</ele><time>2026-04-19T13:06:02.984Z</time></trkpt><trkpt lat="44.74260159148716" lon="1.1860588444166669"><ele>138.0</ele><time>2026-04-19T13:06:03.984Z</time></trkpt><trkpt lat="44.74263887473744" lon="1.1859380875647918"><ele>139.0</ele><time>2026-04-19T13:06:04.984Z</time></trkpt><trkpt lat="44.74266865808726" lon="1.1858252432673426"><ele>140.0</ele><time>2026-04-19T13:06:05.984Z</time></trkpt><trkpt lat="44.74270990803354" lon="1.1857154000648455"><ele>141.0</ele><time>2026-04-19T13:06:06.984Z</time></trkpt><trkpt lat="44.74275897131124" lon="1.1856084148432875"><ele>141.16666666666666</ele><time>2026-04-19T13:06:07.984Z</time></trkpt><trkpt lat="44.74278885267233" lon="1.185500246017784"><ele>141.33333333333334</ele><time>2026-04-19T13:06:08.984Z</time></trkpt><trkpt lat="44.74280224863845" lon="1.185391800753929"><ele>141.5</ele><time>2026-04-19T13:06:09.984Z</time></trkpt><trkpt lat="44.74278668579565" lon="1.185292644148858"><ele>141.66666666666669</ele><time>2026-04-19T13:06:10.985Z</time></trkpt><trkpt lat="44.7427492688534" lon="1.185200116540869"><ele>141.83333333333334</ele><time>2026-04-19T13:06:11.985Z</time></trkpt><trkpt lat="44.74269909543549" lon="1.1851243367136992"><ele>142.0</ele><time>2026-04-19T13:06:12.985Z</time></trkpt><trkpt lat="44.74260190124528" lon="1.1850630805332192"><ele>142.0</ele><time>2026-04-19T13:06:13.985Z</time></trkpt><trkpt lat="44.74248661152534" lon="1.1850002235808645"><ele>142.0</ele><time>2026-04-19T13:06:14.985Z</time></trkpt><trkpt lat="44.74236350896432" lon="1.1849681177817197"><ele>142.0</ele><time>2026-04-19T13:06:15.985Z</time></trkpt><trkpt lat="44.74226476390011" lon="1.184913902782354"><ele>142.0</ele><time>2026-04-19T13:06:16.985Z</time></trkpt><trkpt lat="44.74214861414859" lon="1.1848773396575878"><ele>145.0</ele><time>2026-04-19T13:06:17.985Z</time></trkpt><trkpt lat="44.74203358366186" lon="1.184831961000737"><ele>148.0</ele><time>2026-04-19T13:06:18.985Z</time></trkpt><trkpt lat="44.741933205086276" lon="1.1847790048796232"><ele>151.0</ele><time>2026-04-19T13:06:19.985Z</time></trkpt><trkpt lat="44.741821142624666" lon="1.1847092264530092"><ele>154.0</ele><time>2026-04-19T13:06:20.985Z</time></trkpt><trkpt lat="44.741705554033224" lon="1.1846199683335037"><ele>154.0</ele><time>2026-04-19T13:06:21.985Z</time></trkpt><trkpt lat="44.74158660072589" lon="1.1845223623241643"><ele>154.0</ele><time>2026-04-19T13:06:22.985Z</time></trkpt><trkpt lat="44.74148038044151" lon="1.184457281770858"><ele>154.0</ele><time>2026-04-19T13:06:23.985Z</time></trkpt><trkpt lat="44.7414025926356" lon="1.1843543684898092"><ele>154.0</ele><time>2026-04-19T13:06:24.985Z</time></trkpt><trkpt lat="44.74132624766984" lon="1.1842941099644404"><ele>154.0</ele><time>2026-04-19T13:06:25.985Z</time></trkpt><trkpt lat="44.74123619281299" lon="1.1842392281465581"><ele>154.0</ele><time>2026-04-19T13:06:26.985Z</time></trkpt><trkpt lat="44.74113491309274" lon="1.1842046442300722"><ele>154.0</ele><time>2026-04-19T13:06:27.985Z</time></trkpt><trkpt lat="44.7410209455289" lon="1.1842017730962742"><ele>154.0</ele><time>2026-04-19T13:06:28.985Z</time></trkpt><trkpt lat="44.740899168852444" lon="1.1842350185861"><ele>154.0</ele><time>2026-04-19T13:06:29.985Z</time></trkpt><trkpt lat="44.74077569406205" lon="1.1842887603031538"><ele>153.6</ele><time>2026-04-19T13:06:30.985Z</time></trkpt><trkpt lat="44.74065708060988" lon="1.184346542634572"><ele>153.2</ele><time>2026-04-19T13:06:31.985Z</time></trkpt><trkpt lat="44.740562014066235" lon="1.1843828546988011"><ele>152.79999999999998</ele><time>2026-04-19T13:06:32.985Z</time></trkpt><trkpt lat="44.7404628097903" lon="1.1843889415035185"><ele>152.4</ele><time>2026-04-19T13:06:33.985Z</time></trkpt><trkpt lat="44.74037665284053" lon="1.1843917555539505"><ele>152.0</ele><time>2026-04-19T13:06:34.985Z</time></trkpt><trkpt lat="44.74030941549075" lon="1.184350439547514"><ele>152.0</ele><time>2026-04-19T13:06:35.985Z</time></trkpt><trkpt lat="44.74023586130858" lon="1.1842885974243427"><ele>152.0</ele><time>2026-04-19T13:06:36.985Z</time></trkpt><trkpt lat="44.74019420613943" lon="1.184166510254572"><ele>152.0</ele><time>2026-04-19T13:06:37.985Z</time></trkpt><trkpt lat="44.74013662253686" lon="1.1840504544602393"><ele>152.0</ele><time>2026-04-19T13:06:38.985Z</time></trkpt><trkpt lat="44.74013384335663" lon="1.1839183063627763"><ele>152.0</ele><time>2026-04-19T13:06:39.985Z</time></trkpt><trkpt lat="44.740148667127514" lon="1.1837897117986818"><ele>154.39999999999998</ele><time>2026-04-19T13:06:40.985Z</time></trkpt><trkpt lat="44.74016850797225" lon="1.1836432575319882"><ele>156.79999999999998</ele><time>2026-04-19T13:06:41.985Z</time></trkpt><trkpt lat="44.74021077892368" lon="1.1835269377591242"><ele>159.2</ele><time>2026-04-19T13:06:42.985Z</time></trkpt><trkpt lat="44.74026945556951" lon="1.183439243438922"><ele>161.6</ele><time>2026-04-19T13:06:43.985Z</time></trkpt><trkpt lat="44.74035839629585" lon="1.183395084853009"><ele>164.0</ele><time>2026-04-19T13:06:44.985Z</time></trkpt><trkpt lat="44.740452928665285" lon="1.18336809001006"><ele>164.0</ele><time>2026-04-19T13:06:45.985Z</time></trkpt><trkpt lat="44.74055566197928" lon="1.1833619594169404"><ele>164.0</ele><time>2026-04-19T13:06:46.985Z</time></trkpt><trkpt lat="44.74066334516168" lon="1.183376090991873"><ele>164.0</ele><time>2026-04-19T13:06:47.985Z</time></trkpt><trkpt lat="44.74076065770458" lon="1.1833923028906845"><ele>164.0</ele><time>2026-04-19T13:06:48.985Z</time></trkpt><trkpt lat="44.74084805530297" lon="1.18341360134262"><ele>164.0</ele><time>2026-04-19T13:06:49.985Z</time></trkpt><trkpt lat="44.740938435315066" lon="1.18339766561449"><ele>164.0</ele><time>2026-04-19T13:06:50.985Z</time></trkpt><trkpt lat="44.741040619780875" lon="1.1833606317573493"><ele>164.0</ele><time>2026-04-19T13:06:51.985Z</time></trkpt><trkpt lat="44.74114699894801" lon="1.1833293489457175"><ele>164.0</ele><time>2026-04-19T13:06:52.985Z</time></trkpt><trkpt lat="44.74125402524787" lon="1.18325319530695"><ele>164.0</ele><time>2026-04-19T13:06:53.985Z</time></trkpt><trkpt lat="44.741385606708334" lon="1.1831966150930315"><ele>168.75</ele><time>2026-04-19T13:06:54.986Z</time></trkpt><trkpt lat="44.74150791335306" lon="1.1831286565726362"><ele>173.5</ele><time>2026-04-19T13:06:55.986Z</time></trkpt><trkpt lat="44.74163444884967" lon="1.1830638461983471"><ele>178.25</ele><time>2026-04-19T13:06:56.986Z</time></trkpt><trkpt lat="44.741750797897915" lon="1.183001881562861"><ele>183.0</ele><time>2026-04-19T13:06:57.986Z</time></trkpt><trkpt lat="44.741868732652705" lon="1.182967976454897"><ele>181.0</ele><time>2026-04-19T13:06:58.986Z</time></trkpt><trkpt lat="44.74197799061171" lon="1.1829695389701296"><ele>179.0</ele><time>2026-04-19T13:06:59.986Z</time></trkpt><trkpt lat="44.7420833455585" lon="1.1829613063432627"><ele>177.0</ele><time>2026-04-19T13:07:00.986Z</time></trkpt><trkpt lat="44.742174199229886" lon="1.182971648296631"><ele>175.0</ele><time>2026-04-19T13:07:01.986Z</time></trkpt><trkpt lat="44.742247111319344" lon="1.1829701886086763"><ele>173.0</ele><time>2026-04-19T13:07:02.986Z</time></trkpt><trkpt lat="44.74232683279565" lon="1.1829568421255665"><ele>173.0</ele><time>2026-04-19T13:07:03.986Z</time></trkpt><trkpt lat="44.74238838959807" lon="1.1829156389670403"><ele>173.0</ele><time>2026-04-19T13:07:04.986Z</time></trkpt><trkpt lat="44.74245270313497" lon="1.1828585641471123"><ele>173.0</ele><time>2026-04-19T13:07:05.986Z</time></trkpt><trkpt lat="44.742489274912714" lon="1.182780886623535"><ele>173.0</ele><time>2026-04-19T13:07:06.986Z</time></trkpt><trkpt lat="44.74253330577774" lon="1.182679851149478"><ele>173.0</ele><time>2026-04-19T13:07:07.986Z</time></trkpt><trkpt lat="44.74256424520253" lon="1.182556230993191"><ele>173.0</ele><time>2026-04-19T13:07:08.986Z</time></trkpt><trkpt lat="44.742575005753906" lon="1.1824253998872862"><ele>173.2</ele><time>2026-04-19T13:07:09.986Z</time></trkpt><trkpt lat="44.742575859210326" lon="1.1822921328348401"><ele>173.4</ele><time>2026-04-19T13:07:10.986Z</time></trkpt><trkpt lat="44.742553506679464" lon="1.182144750846637"><ele>173.6</ele><time>2026-04-19T13:07:11.986Z</time></trkpt><trkpt lat="44.74251777779635" lon="1.182011120023367"><ele>173.79999999999998</ele><time>2026-04-19T13:07:12.986Z</time></trkpt><trkpt lat="44.74246207020826" lon="1.1818731488146426"><ele>174.0</ele><time>2026-04-19T13:07:13.986Z</time></trkpt><trkpt lat="44.742391736967576" lon="1.1817336670341652"><ele>174.0</ele><time>2026-04-19T13:07:14.986Z</time></trkpt><trkpt lat="44.742314882680894" lon="1.1815972304365108"><ele>174.0</ele><time>2026-04-19T13:07:15.986Z</time></trkpt><trkpt lat="44.74224075338121" lon="1.1814637647582529"><ele>174.0</ele><time>2026-04-19T13:07:16.986Z</time></trkpt><trkpt lat="44.742174761063154" lon="1.1813325072673686"><ele>174.0</ele><time>2026-04-19T13:07:17.986Z</time></trkpt><trkpt lat="44.742119604845996" lon="1.181189161417635"><ele>175.5</ele><time>2026-04-19T13:07:18.986Z</time></trkpt><trkpt lat="44.74206705913395" lon="1.1810036033493596"><ele>177.0</ele><time>2026-04-19T13:07:19.982Z</time></trkpt><trkpt lat="44.7420294844149" lon="1.1808362807243598"><ele>178.5</ele><time>2026-04-19T13:07:20.982Z</time></trkpt><trkpt lat="44.7419849621597" lon="1.1806412431696631"><ele>180.0</ele><time>2026-04-19T13:07:21.982Z</time></trkpt><trkpt lat="44.74194405261721" lon="1.1804528881227687"><ele>182.0</ele><time>2026-04-19T13:07:22.983Z</time></trkpt><trkpt lat="44.74190968436372" lon="1.1802680487901493"><ele>184.0</ele><time>2026-04-19T13:07:23.982Z</time></trkpt><trkpt lat="44.74187152698616" lon="1.1800750500913584"><ele>186.0</ele><time>2026-04-19T13:07:24.982Z</time></trkpt><trkpt lat="44.74183328688275" lon="1.1798849413113348"><ele>188.0</ele><time>2026-04-19T13:07:25.983Z</time></trkpt><trkpt lat="44.74179012269061" lon="1.1797114440254493"><ele>188.75</ele><time>2026-04-19T13:07:26.982Z</time></trkpt><trkpt lat="44.7417483649033" lon="1.1795290730811925"><ele>189.5</ele><time>2026-04-19T13:07:27.982Z</time></trkpt><trkpt lat="44.74172073648515" lon="1.179368936788848"><ele>190.25</ele><time>2026-04-19T13:07:28.983Z</time></trkpt><trkpt lat="44.74168480364" lon="1.1791773875708738"><ele>191.0</ele><time>2026-04-19T13:07:29.982Z</time></trkpt><trkpt lat="44.74166080097599" lon="1.178975039504299"><ele>192.25</ele><time>2026-04-19T13:07:30.982Z</time></trkpt><trkpt lat="44.741643224964406" lon="1.178779660441557"><ele>193.5</ele><time>2026-04-19T13:07:31.982Z</time></trkpt><trkpt lat="44.74162313605494" lon="1.178575415592485"><ele>194.75</ele><time>2026-04-19T13:07:32.982Z</time></trkpt><trkpt lat="44.74159473493179" lon="1.1783766056168172"><ele>196.0</ele><time>2026-04-19T13:07:33.982Z</time></trkpt><trkpt lat="44.74155997208067" lon="1.1781931130425325"><ele>197.0</ele><time>2026-04-19T13:07:34.982Z</time></trkpt><trkpt lat="44.74153940687271" lon="1.1780222056110072"><ele>198.0</ele><time>2026-04-19T13:07:35.982Z</time></trkpt><trkpt lat="44.74150917594975" lon="1.1778550826481808"><ele>199.0</ele><time>2026-04-19T13:07:36.982Z</time></trkpt><trkpt lat="44.741500134553235" lon="1.1776990767930262"><ele>200.0</ele><time>2026-04-19T13:07:37.982Z</time></trkpt><trkpt lat="44.74148983969501" lon="1.1775604053045348"><ele>200.0</ele><time>2026-04-19T13:07:38.982Z</time></trkpt><trkpt lat="44.74147737589923" lon="1.1774220698337106"><ele>200.0</ele><time>2026-04-19T13:07:39.982Z</time></trkpt><trkpt lat="44.741474915545915" lon="1.1772912642608313"><ele>200.0</ele><time>2026-04-19T13:07:40.982Z</time></trkpt><trkpt lat="44.741459248668264" lon="1.1771538100415628"><ele>200.0</ele><time>2026-04-19T13:07:41.982Z</time></trkpt><trkpt lat="44.74142672356664" lon="1.1770256089802054"><ele>200.0</ele><time>2026-04-19T13:07:42.982Z</time></trkpt><trkpt lat="44.74140179006806" lon="1.176873462716305"><ele>201.75</ele><time>2026-04-19T13:07:43.982Z</time></trkpt><trkpt lat="44.74139313507223" lon="1.1767044937767026"><ele>203.5</ele><time>2026-04-19T13:07:44.982Z</time></trkpt><trkpt lat="44.741392631168516" lon="1.1765229255342773"><ele>205.25</ele><time>2026-04-19T13:07:45.982Z</time></trkpt><trkpt lat="44.74138145407373" lon="1.1763424643471756"><ele>207.0</ele><time>2026-04-19T13:07:46.982Z</time></trkpt><trkpt lat="44.741388349043625" lon="1.1761626651062762"><ele>208.0</ele><time>2026-04-19T13:07:47.982Z</time></trkpt><trkpt lat="44.74139415096193" lon="1.1759796027739324"><ele>209.0</ele><time>2026-04-19T13:07:48.983Z</time></trkpt><trkpt lat="44.74141485967167" lon="1.175807197006961"><ele>210.0</ele><time>2026-04-19T13:07:49.983Z</time></trkpt><trkpt lat="44.74144973727024" lon="1.1756424051867855"><ele>211.0</ele><time>2026-04-19T13:07:50.983Z</time></trkpt><trkpt lat="44.74149609072717" lon="1.1755139053308443"><ele>211.75</ele><time>2026-04-19T13:07:51.983Z</time></trkpt><trkpt lat="44.741550224248236" lon="1.1753875899838941"><ele>212.5</ele><time>2026-04-19T13:07:52.983Z</time></trkpt><trkpt lat="44.74162256841079" lon="1.1752538752199144"><ele>213.25</ele><time>2026-04-19T13:07:53.983Z</time></trkpt><trkpt lat="44.74170492986593" lon="1.1751294266527095"><ele>214.0</ele><time>2026-04-19T13:07:54.983Z</time></trkpt><trkpt lat="44.74181117107553" lon="1.175010321477865"><ele>216.25</ele><time>2026-04-19T13:07:55.983Z</time></trkpt><trkpt lat="44.74192158208766" lon="1.174895967566519"><ele>218.5</ele><time>2026-04-19T13:07:56.983Z</time></trkpt><trkpt lat="44.742012402387395" lon="1.1747569133331457"><ele>220.75</ele><time>2026-04-19T13:07:57.983Z</time></trkpt><trkpt lat="44.74210683706603" lon="1.1745880734343281"><ele>223.0</ele><time>2026-04-19T13:07:58.983Z</time></trkpt><trkpt lat="44.74219821815494" lon="1.1744207851946784"><ele>223.0</ele><time>2026-04-19T13:07:59.984Z</time></trkpt><trkpt lat="44.74226508047669" lon="1.174254669802627"><ele>223.0</ele><time>2026-04-19T13:08:00.984Z</time></trkpt><trkpt lat="44.74235110144504" lon="1.1740948514340968"><ele>223.0</ele><time>2026-04-19T13:08:01.984Z</time></trkpt><trkpt lat="44.742443348867965" lon="1.1739569419576399"><ele>223.0</ele><time>2026-04-19T13:08:02.984Z</time></trkpt><trkpt lat="44.74251661841708" lon="1.173812611899144"><ele>223.25</ele><time>2026-04-19T13:08:03.984Z</time></trkpt><trkpt lat="44.74262489256688" lon="1.173606399074196"><ele>223.5</ele><time>2026-04-19T13:08:05.984Z</time></trkpt><trkpt lat="44.74269774478306" lon="1.1734880034722435"><ele>223.75</ele><time>2026-04-19T13:08:06.984Z</time></trkpt><trkpt lat="44.742749796313916" lon="1.173388070019723"><ele>224.0</ele><time>2026-04-19T13:08:07.984Z</time></trkpt><trkpt lat="44.742819507367265" lon="1.1732662900532105"><ele>224.0</ele><time>2026-04-19T13:08:08.984Z</time></trkpt><trkpt lat="44.74290043020498" lon="1.1731561435978892"><ele>224.0</ele><time>2026-04-19T13:08:09.984Z</time></trkpt><trkpt lat="44.74298286735289" lon="1.1730461292012042"><ele>224.0</ele><time>2026-04-19T13:08:10.984Z</time></trkpt><trkpt lat="44.743079153103935" lon="1.172922139849932"><ele>224.0</ele><time>2026-04-19T13:08:11.984Z</time></trkpt><trkpt lat="44.74315424489794" lon="1.1728103252599134"><ele>224.0</ele><time>2026-04-19T13:08:12.984Z</time></trkpt><trkpt lat="44.74323520646001" lon="1.1726799196826827"><ele>224.0</ele><time>2026-04-19T13:08:13.984Z</time></trkpt><trkpt lat="44.74332292225546" lon="1.1725572777525388"><ele>224.0</ele><time>2026-04-19T13:08:14.984Z</time></trkpt><trkpt lat="44.74340515854783" lon="1.172439968039753"><ele>224.0</ele><time>2026-04-19T13:08:15.984Z</time></trkpt><trkpt lat="44.74347331125157" lon="1.1723325633621868"><ele>224.0</ele><time>2026-04-19T13:08:16.984Z</time></trkpt><trkpt lat="44.74352458003645" lon="1.1722083308219087"><ele>223.99999999999997</ele><time>2026-04-19T13:08:17.984Z</time></trkpt><trkpt lat="44.74356839911914" lon="1.1720668855811973"><ele>223.99999999999997</ele><time>2026-04-19T13:08:18.984Z</time></trkpt><trkpt lat="44.7435975994725" lon="1.17191782523698"><ele>224.0</ele><time>2026-04-19T13:08:19.984Z</time></trkpt><trkpt lat="44.7436192918252" lon="1.1717631837363278"><ele>224.0</ele><time>2026-04-19T13:08:20.984Z</time></trkpt><trkpt lat="44.74364389131743" lon="1.1716045247394224"><ele>225.5</ele><time>2026-04-19T13:08:21.984Z</time></trkpt><trkpt lat="44.74367891561151" lon="1.1714531552917993"><ele>227.0</ele><time>2026-04-19T13:08:22.984Z</time></trkpt><trkpt lat="44.74371544993215" lon="1.1713019235495334"><ele>228.5</ele><time>2026-04-19T13:08:23.984Z</time></trkpt><trkpt lat="44.74376763109811" lon="1.1711556686461218"><ele>230.0</ele><time>2026-04-19T13:08:24.984Z</time></trkpt><trkpt lat="44.74382956737423" lon="1.1710102281405659"><ele>230.0</ele><time>2026-04-19T13:08:25.984Z</time></trkpt><trkpt lat="44.7438947170546" lon="1.1708753223039945"><ele>230.0</ele><time>2026-04-19T13:08:26.984Z</time></trkpt><trkpt lat="44.74397646809205" lon="1.1707489080203524"><ele>230.0</ele><time>2026-04-19T13:08:27.984Z</time></trkpt><trkpt lat="44.74404454654966" lon="1.1706412091045204"><ele>230.0</ele><time>2026-04-19T13:08:28.984Z</time></trkpt><trkpt lat="44.74413240874955" lon="1.170564553982073"><ele>230.0</ele><time>2026-04-19T13:08:29.984Z</time></trkpt><trkpt lat="44.74420089404167" lon="1.1704807335650793"><ele>229.83333333333334</ele><time>2026-04-19T13:08:30.984Z</time></trkpt><trkpt lat="44.744261915217464" lon="1.1704045869227493"><ele>229.66666666666669</ele><time>2026-04-19T13:08:31.984Z</time></trkpt><trkpt lat="44.74431030490793" lon="1.1703142871920458"><ele>229.5</ele><time>2026-04-19T13:08:32.985Z</time></trkpt><trkpt lat="44.74437345182905" lon="1.1702431941039289"><ele>229.33333333333331</ele><time>2026-04-19T13:08:33.985Z</time></trkpt><trkpt lat="44.744442200815854" lon="1.170166386644277"><ele>229.16666666666666</ele><time>2026-04-19T13:08:34.985Z</time></trkpt><trkpt lat="44.74450394838022" lon="1.170076011866337"><ele>229.0</ele><time>2026-04-19T13:08:35.985Z</time></trkpt><trkpt lat="44.74457050202527" lon="1.1699898700502998"><ele>230.6</ele><time>2026-04-19T13:08:36.985Z</time></trkpt><trkpt lat="44.74464552015096" lon="1.1699015080527617"><ele>232.2</ele><time>2026-04-19T13:08:37.985Z</time></trkpt><trkpt lat="44.74471199230881" lon="1.1698038196161107"><ele>233.79999999999998</ele><time>2026-04-19T13:08:38.985Z</time></trkpt><trkpt lat="44.74476778677138" lon="1.1696966908481161"><ele>235.39999999999998</ele><time>2026-04-19T13:08:39.985Z</time></trkpt><trkpt lat="44.744817682090975" lon="1.169589981168818"><ele>237.0</ele><time>2026-04-19T13:08:40.985Z</time></trkpt><trkpt lat="44.74486443224063" lon="1.169474582290448"><ele>238.0</ele><time>2026-04-19T13:08:41.985Z</time></trkpt><trkpt lat="44.74490483118485" lon="1.1693561951512257"><ele>239.0</ele><time>2026-04-19T13:08:42.985Z</time></trkpt><trkpt lat="44.74496035329609" lon="1.1692449770424387"><ele>240.0</ele><time>2026-04-19T13:08:43.985Z</time></trkpt><trkpt lat="44.74502530552044" lon="1.1691309051901317"><ele>241.0</ele><time>2026-04-19T13:08:44.985Z</time></trkpt><trkpt lat="44.7450968156424" lon="1.1690106720562383"><ele>242.0</ele><time>2026-04-19T13:08:45.985Z</time></trkpt><trkpt lat="44.74518252491879" lon="1.1688843405627674"><ele>246.75</ele><time>2026-04-19T13:08:46.985Z</time></trkpt><trkpt lat="44.745247576907936" lon="1.1687318885008002"><ele>251.5</ele><time>2026-04-19T13:08:47.985Z</time></trkpt><trkpt lat="44.74531105893965" lon="1.168578679494738"><ele>256.25</ele><time>2026-04-19T13:08:48.985Z</time></trkpt><trkpt lat="44.7453804000452" lon="1.1684214993704016"><ele>261.0</ele><time>2026-04-19T13:08:49.985Z</time></trkpt><trkpt lat="44.74543415695921" lon="1.16826456104989"><ele>261.5</ele><time>2026-04-19T13:08:50.985Z</time></trkpt><trkpt lat="44.74550397877152" lon="1.1681150308043595"><ele>262.0</ele><time>2026-04-19T13:08:51.985Z</time></trkpt><trkpt lat="44.74555372500376" lon="1.167973159292467"><ele>262.5</ele><time>2026-04-19T13:08:52.985Z</time></trkpt><trkpt lat="44.74560423810409" lon="1.1678279791119557"><ele>263.0</ele><time>2026-04-19T13:08:53.985Z</time></trkpt><trkpt lat="44.745660623523925" lon="1.1676956421910847"><ele>263.0</ele><time>2026-04-19T13:08:54.985Z</time></trkpt><trkpt lat="44.74570998668073" lon="1.167572451362302"><ele>263.0</ele><time>2026-04-19T13:08:55.985Z</time></trkpt><trkpt lat="44.745744076041056" lon="1.1674443132028258"><ele>263.0</ele><time>2026-04-19T13:08:56.985Z</time></trkpt><trkpt lat="44.74576574343589" lon="1.1673189985827392"><ele>263.0</ele><time>2026-04-19T13:08:57.985Z</time></trkpt><trkpt lat="44.745772075379435" lon="1.167201081916809"><ele>263.0</ele><time>2026-04-19T13:08:58.985Z</time></trkpt><trkpt lat="44.74577413677072" lon="1.1671104692592416"><ele>263.0</ele><time>2026-04-19T13:08:59.985Z</time></trkpt><trkpt lat="44.745786729680766" lon="1.1669063174274303"><ele>263.2</ele><time>2026-04-19T13:09:02.985Z</time></trkpt><trkpt lat="44.74583404309248" lon="1.166756642432455"><ele>263.4</ele><time>2026-04-19T13:09:04.985Z</time></trkpt><trkpt lat="44.745884321522276" lon="1.1665848474729605"><ele>263.59999999999997</ele><time>2026-04-19T13:09:06.985Z</time></trkpt><trkpt lat="44.745934944963196" lon="1.1664925029259352"><ele>263.8</ele><time>2026-04-19T13:09:07.985Z</time></trkpt><trkpt lat="44.74601918488514" lon="1.1663849610983816"><ele>264.0</ele><time>2026-04-19T13:09:08.985Z</time></trkpt><trkpt lat="44.746106455771155" lon="1.1662572718131448"><ele>264.25</ele><time>2026-04-19T13:09:09.985Z</time></trkpt><trkpt lat="44.74618439610998" lon="1.1660982523850005"><ele>264.5</ele><time>2026-04-19T13:09:10.985Z</time></trkpt><trkpt lat="44.7462586054124" lon="1.1659163305640763"><ele>264.75</ele><time>2026-04-19T13:09:11.985Z</time></trkpt><trkpt lat="44.74633524525574" lon="1.1657321861730037"><ele>265.0</ele><time>2026-04-19T13:09:12.985Z</time></trkpt><trkpt lat="44.74641934650286" lon="1.1655441094154415"><ele>265.0</ele><time>2026-04-19T13:09:13.985Z</time></trkpt><trkpt lat="44.74650314016148" lon="1.1653625081805121"><ele>265.0</ele><time>2026-04-19T13:09:14.985Z</time></trkpt><trkpt lat="44.74658453680011" lon="1.1651759306779712"><ele>265.0</ele><time>2026-04-19T13:09:15.985Z</time></trkpt><trkpt lat="44.746663317303984" lon="1.164991280313624"><ele>265.3333333333333</ele><time>2026-04-19T13:09:16.986Z</time></trkpt><trkpt lat="44.74675070990991" lon="1.16481856208195"><ele>265.6666666666667</ele><time>2026-04-19T13:09:17.986Z</time></trkpt><trkpt lat="44.74682649885258" lon="1.164632896459677"><ele>266.0</ele><time>2026-04-19T13:09:18.986Z</time></trkpt><trkpt lat="44.74690841633033" lon="1.164445898505164"><ele>266.0</ele><time>2026-04-19T13:09:19.986Z</time></trkpt><trkpt lat="44.74699219878882" lon="1.1642592898320827"><ele>266.0</ele><time>2026-04-19T13:09:20.986Z</time></trkpt><trkpt lat="44.747075342595856" lon="1.1640731865636287"><ele>266.0</ele><time>2026-04-19T13:09:21.986Z</time></trkpt><trkpt lat="44.74715323414388" lon="1.163890275557707"><ele>266.6666666666667</ele><time>2026-04-19T13:09:22.986Z</time></trkpt><trkpt lat="44.747240444431824" lon="1.163706134312762"><ele>267.3333333333333</ele><time>2026-04-19T13:09:23.986Z</time></trkpt><trkpt lat="44.74731718457038" lon="1.1635195006754686"><ele>268.0</ele><time>2026-04-19T13:09:24.986Z</time></trkpt><trkpt lat="44.74739745777592" lon="1.1633429380627356"><ele>269.0</ele><time>2026-04-19T13:09:25.983Z</time></trkpt><trkpt lat="44.747470684940815" lon="1.1631655103542662"><ele>270.0</ele><time>2026-04-19T13:09:26.983Z</time></trkpt><trkpt lat="44.74754140339512" lon="1.162997550838638"><ele>271.0</ele><time>2026-04-19T13:09:27.983Z</time></trkpt><trkpt lat="44.74761003530011" lon="1.162824768510326"><ele>272.0</ele><time>2026-04-19T13:09:28.983Z</time></trkpt><trkpt lat="44.74768793343089" lon="1.1626728652529794"><ele>272.0</ele><time>2026-04-19T13:09:29.982Z</time></trkpt><trkpt lat="44.747763509056234" lon="1.1625105724902736"><ele>272.0</ele><time>2026-04-19T13:09:30.982Z</time></trkpt><trkpt lat="44.74783453735274" lon="1.162357143620011"><ele>272.0</ele><time>2026-04-19T13:09:31.983Z</time></trkpt><trkpt lat="44.747909753410916" lon="1.1622098554455427"><ele>272.0</ele><time>2026-04-19T13:09:32.982Z</time></trkpt><trkpt lat="44.74798325259592" lon="1.1620583731384648"><ele>272.0</ele><time>2026-04-19T13:09:33.982Z</time></trkpt><trkpt lat="44.74806167809207" lon="1.1619309574410062"><ele>272.0</ele><time>2026-04-19T13:09:34.982Z</time></trkpt><trkpt lat="44.74814865314155" lon="1.1618434582660144"><ele>272.0</ele><time>2026-04-19T13:09:35.983Z</time></trkpt><trkpt lat="44.748234142339605" lon="1.1617561375483123"><ele>272.0</ele><time>2026-04-19T13:09:36.983Z</time></trkpt><trkpt lat="44.748325738324525" lon="1.1616930378399684"><ele>272.0</ele><time>2026-04-19T13:09:37.982Z</time></trkpt><trkpt lat="44.74842776691929" lon="1.1616309514358985"><ele>272.0</ele><time>2026-04-19T13:09:38.982Z</time></trkpt><trkpt lat="44.74852967844008" lon="1.1615929403844705"><ele>272.0</ele><time>2026-04-19T13:09:39.982Z</time></trkpt><trkpt lat="44.748644200160555" lon="1.1615460383328062"><ele>272.0</ele><time>2026-04-19T13:09:40.982Z</time></trkpt><trkpt lat="44.74874869414927" lon="1.1614781670330048"><ele>272.0</ele><time>2026-04-19T13:09:41.982Z</time></trkpt><trkpt lat="44.7488504488328" lon="1.1613982354662178"><ele>273.25</ele><time>2026-04-19T13:09:42.982Z</time></trkpt><trkpt lat="44.74893187812221" lon="1.1612725956385008"><ele>274.5</ele><time>2026-04-19T13:09:43.982Z</time></trkpt><trkpt lat="44.74901973309924" lon="1.1611525320365006"><ele>275.75</ele><time>2026-04-19T13:09:44.982Z</time></trkpt><trkpt lat="44.749076673765956" lon="1.1609758130979735"><ele>277.0</ele><time>2026-04-19T13:09:45.982Z</time></trkpt><trkpt lat="44.749129793842044" lon="1.1608022525399766"><ele>277.5</ele><time>2026-04-19T13:09:46.982Z</time></trkpt><trkpt lat="44.74919452448492" lon="1.160646258932281"><ele>278.0</ele><time>2026-04-19T13:09:47.982Z</time></trkpt><trkpt lat="44.74922999581209" lon="1.160477730966219"><ele>278.5</ele><time>2026-04-19T13:09:48.982Z</time></trkpt><trkpt lat="44.74928100544742" lon="1.160344677459188"><ele>279.0</ele><time>2026-04-19T13:09:49.982Z</time></trkpt><trkpt lat="44.74932604063402" lon="1.160222317372313"><ele>279.0</ele><time>2026-04-19T13:09:50.982Z</time></trkpt><trkpt lat="44.749360988588094" lon="1.1601121408410484"><ele>279.0</ele><time>2026-04-19T13:09:51.982Z</time></trkpt><trkpt lat="44.749368047215825" lon="1.1599975672335845"><ele>279.0</ele><time>2026-04-19T13:09:52.982Z</time></trkpt><trkpt lat="44.749364796621315" lon="1.1598750123517714"><ele>279.0</ele><time>2026-04-19T13:09:53.983Z</time></trkpt><trkpt lat="44.74935310631736" lon="1.1597560241958313"><ele>279.0</ele><time>2026-04-19T13:09:54.983Z</time></trkpt><trkpt lat="44.74935127610795" lon="1.1596232804276947"><ele>279.0</ele><time>2026-04-19T13:09:55.983Z</time></trkpt><trkpt lat="44.7493192177323" lon="1.1594953126658016"><ele>279.0</ele><time>2026-04-19T13:09:56.983Z</time></trkpt><trkpt lat="44.749315778616904" lon="1.1593451557818832"><ele>279.0</ele><time>2026-04-19T13:09:57.983Z</time></trkpt><trkpt lat="44.74929496724465" lon="1.1592032453512702"><ele>279.0</ele><time>2026-04-19T13:09:58.983Z</time></trkpt><trkpt lat="44.749276895575555" lon="1.1590750566538237"><ele>279.0</ele><time>2026-04-19T13:09:59.983Z</time></trkpt><trkpt lat="44.74927288574336" lon="1.1589507432706063"><ele>279.0</ele><time>2026-04-19T13:10:00.983Z</time></trkpt><trkpt lat="44.74927811222429" lon="1.1588132105054432"><ele>279.4</ele><time>2026-04-19T13:10:01.983Z</time></trkpt><trkpt lat="44.74930605916303" lon="1.158683675946395"><ele>279.79999999999995</ele><time>2026-04-19T13:10:02.983Z</time></trkpt><trkpt lat="44.74934214583216" lon="1.1585427065470921"><ele>280.20000000000005</ele><time>2026-04-19T13:10:03.983Z</time></trkpt><trkpt lat="44.74937532479088" lon="1.1584302220216058"><ele>280.6</ele><time>2026-04-19T13:10:04.983Z</time></trkpt><trkpt lat="44.749403029405975" lon="1.158349811491699"><ele>281.0</ele><time>2026-04-19T13:10:05.983Z</time></trkpt><trkpt lat="44.74946587020357" lon="1.1582225317200119"><ele>280.2</ele><time>2026-04-19T13:10:07.983Z</time></trkpt><trkpt lat="44.74953203762673" lon="1.1581113750227212"><ele>279.40000000000003</ele><time>2026-04-19T13:10:09.983Z</time></trkpt><trkpt lat="44.74957263743049" lon="1.1580179167809448"><ele>278.6</ele><time>2026-04-19T13:10:10.983Z</time></trkpt><trkpt lat="44.74961436033023" lon="1.1579085454450688"><ele>277.8</ele><time>2026-04-19T13:10:11.983Z</time></trkpt><trkpt lat="44.74964581710431" lon="1.1577834780395817"><ele>277.0</ele><time>2026-04-19T13:10:12.983Z</time></trkpt><trkpt lat="44.74967755476124" lon="1.1576495673134855"><ele>277.0</ele><time>2026-04-19T13:10:13.983Z</time></trkpt><trkpt lat="44.74969085660749" lon="1.1575428018825191"><ele>277.0</ele><time>2026-04-19T13:10:14.983Z</time></trkpt><trkpt lat="44.74970382853386" lon="1.1574431348537595"><ele>277.0</ele><time>2026-04-19T13:10:15.983Z</time></trkpt><trkpt lat="44.74971541551895" lon="1.1573466171600948"><ele>277.0</ele><time>2026-04-19T13:10:16.983Z</time></trkpt><trkpt lat="44.74972026062064" lon="1.1572398374861417"><ele>277.0</ele><time>2026-04-19T13:10:17.983Z</time></trkpt><trkpt lat="44.74971361041491" lon="1.1571348986517214"><ele>277.0</ele><time>2026-04-19T13:10:18.983Z</time></trkpt><trkpt lat="44.74969901490134" lon="1.15703257451529"><ele>277.0</ele><time>2026-04-19T13:10:19.983Z</time></trkpt><trkpt lat="44.7496918707151" lon="1.156921471603194"><ele>276.8333333333333</ele><time>2026-04-19T13:10:20.983Z</time></trkpt><trkpt lat="44.74968684045531" lon="1.1568085213609935"><ele>276.66666666666663</ele><time>2026-04-19T13:10:21.983Z</time></trkpt><trkpt lat="44.749679210121734" lon="1.156684773700477"><ele>276.5</ele><time>2026-04-19T13:10:22.983Z</time></trkpt><trkpt lat="44.74967452662865" lon="1.1565553426936808"><ele>276.3333333333333</ele><time>2026-04-19T13:10:23.983Z</time></trkpt><trkpt lat="44.7496660065857" lon="1.1564258350788796"><ele>276.1666666666667</ele><time>2026-04-19T13:10:24.983Z</time></trkpt><trkpt lat="44.74967600663123" lon="1.1563071778226912"><ele>276.0</ele><time>2026-04-19T13:10:25.983Z</time></trkpt><trkpt lat="44.74967545172879" lon="1.1561861288818966"><ele>276.57142857142856</ele><time>2026-04-19T13:10:26.983Z</time></trkpt><trkpt lat="44.749674083891996" lon="1.1560810842003137"><ele>277.14285714285717</ele><time>2026-04-19T13:10:27.983Z</time></trkpt><trkpt lat="44.749680208599095" lon="1.1559796244679241"><ele>277.7142857142857</ele><time>2026-04-19T13:10:28.983Z</time></trkpt><trkpt lat="44.749677838443645" lon="1.1558745016801892"><ele>278.2857142857143</ele><time>2026-04-19T13:10:29.983Z</time></trkpt><trkpt lat="44.74970111221793" lon="1.1557869585395972"><ele>278.8571428571429</ele><time>2026-04-19T13:10:30.983Z</time></trkpt><trkpt lat="44.74971603181461" lon="1.1556868078640479"><ele>279.42857142857144</ele><time>2026-04-19T13:10:31.983Z</time></trkpt><trkpt lat="44.74971947884827" lon="1.1555882934597699"><ele>280.0</ele><time>2026-04-19T13:10:32.983Z</time></trkpt><trkpt lat="44.749738530989724" lon="1.155479899407764"><ele>279.8333333333333</ele><time>2026-04-19T13:10:33.983Z</time></trkpt><trkpt lat="44.749753964133944" lon="1.1553789232729246"><ele>279.66666666666663</ele><time>2026-04-19T13:10:34.983Z</time></trkpt><trkpt lat="44.74977465395058" lon="1.1552026233534736"><ele>279.5</ele><time>2026-04-19T13:10:36.983Z</time></trkpt><trkpt lat="44.749778709071286" lon="1.1551038897661208"><ele>279.3333333333333</ele><time>2026-04-19T13:10:37.984Z</time></trkpt><trkpt lat="44.74980717185995" lon="1.1549926921388578"><ele>279.1666666666667</ele><time>2026-04-19T13:10:38.984Z</time></trkpt><trkpt lat="44.74981517995267" lon="1.1548879736429714"><ele>279.0</ele><time>2026-04-19T13:10:39.984Z</time></trkpt><trkpt lat="44.749822421656546" lon="1.1547638229473252"><ele>279.0</ele><time>2026-04-19T13:10:40.984Z</time></trkpt><trkpt lat="44.74981185618768" lon="1.1546594406376343"><ele>279.0</ele><time>2026-04-19T13:10:41.984Z</time></trkpt><trkpt lat="44.74982503863966" lon="1.1545426130562486"><ele>279.0</ele><time>2026-04-19T13:10:42.984Z</time></trkpt><trkpt lat="44.749826367552586" lon="1.1544152557505416"><ele>279.0</ele><time>2026-04-19T13:10:43.984Z</time></trkpt><trkpt lat="44.749826722412095" lon="1.1543057901648581"><ele>279.0</ele><time>2026-04-19T13:10:44.984Z</time></trkpt><trkpt lat="44.749832474033944" lon="1.154184461073724"><ele>279.0</ele><time>2026-04-19T13:10:45.984Z</time></trkpt><trkpt lat="44.74983683713597" lon="1.1540608799036738"><ele>278.59999999999997</ele><time>2026-04-19T13:10:46.984Z</time></trkpt><trkpt lat="44.74985966530062" lon="1.153929733020939"><ele>278.2</ele><time>2026-04-19T13:10:47.984Z</time></trkpt><trkpt lat="44.74989694110085" lon="1.1537813270153392"><ele>277.79999999999995</ele><time>2026-04-19T13:10:48.984Z</time></trkpt><trkpt lat="44.749930895971715" lon="1.1536278863883775"><ele>277.4</ele><time>2026-04-19T13:10:49.984Z</time></trkpt><trkpt lat="44.749960193593026" lon="1.1534684055233682"><ele>277.0</ele><time>2026-04-19T13:10:50.984Z</time></trkpt><trkpt lat="44.74998448979612" lon="1.1532948302861785"><ele>277.8</ele><time>2026-04-19T13:10:51.984Z</time></trkpt><trkpt lat="44.750005219543105" lon="1.1531307866940157"><ele>278.6</ele><time>2026-04-19T13:10:52.984Z</time></trkpt><trkpt lat="44.75005467615665" lon="1.1529722429145262"><ele>279.40000000000003</ele><time>2026-04-19T13:10:53.984Z</time></trkpt><trkpt lat="44.750094302982745" lon="1.1528297192866452"><ele>280.2</ele><time>2026-04-19T13:10:54.984Z</time></trkpt><trkpt lat="44.750121995667456" lon="1.1526983602247531"><ele>281.0</ele><time>2026-04-19T13:10:55.984Z</time></trkpt><trkpt lat="44.75015092589532" lon="1.152549391067564"><ele>281.0</ele><time>2026-04-19T13:10:56.984Z</time></trkpt><trkpt lat="44.75016969314333" lon="1.1523951558269865"><ele>281.0</ele><time>2026-04-19T13:10:57.984Z</time></trkpt><trkpt lat="44.750198873838976" lon="1.1522428744812576"><ele>281.0</ele><time>2026-04-19T13:10:58.984Z</time></trkpt><trkpt lat="44.75024435661909" lon="1.1520752457034058"><ele>281.0</ele><time>2026-04-19T13:10:59.984Z</time></trkpt><trkpt lat="44.750266309369955" lon="1.1519126175009748"><ele>282.0</ele><time>2026-04-19T13:11:00.984Z</time></trkpt><trkpt lat="44.75027553845176" lon="1.1517555296409083"><ele>283.0</ele><time>2026-04-19T13:11:01.984Z</time></trkpt><trkpt lat="44.75029417059182" lon="1.1516058257773836"><ele>284.0</ele><time>2026-04-19T13:11:02.984Z</time></trkpt><trkpt lat="44.75031466650573" lon="1.1514577280685654"><ele>285.0</ele><time>2026-04-19T13:11:03.984Z</time></trkpt><trkpt lat="44.750340720721994" lon="1.1513225511793117"><ele>286.0</ele><time>2026-04-19T13:11:04.984Z</time></trkpt><trkpt lat="44.7503621800607" lon="1.1511932486860756"><ele>286.0</ele><time>2026-04-19T13:11:05.984Z</time></trkpt><trkpt lat="44.75039143925021" lon="1.1510852001707739"><ele>286.0</ele><time>2026-04-19T13:11:06.984Z</time></trkpt><trkpt lat="44.75041791663415" lon="1.1509825915457816"><ele>286.0</ele><time>2026-04-19T13:11:07.984Z</time></trkpt><trkpt lat="44.75044181317344" lon="1.1508809513753269"><ele>286.0</ele><time>2026-04-19T13:11:08.984Z</time></trkpt><trkpt lat="44.75045888993924" lon="1.1507732981445618"><ele>286.0</ele><time>2026-04-19T13:11:09.984Z</time></trkpt><trkpt lat="44.75047616977301" lon="1.150662350904166"><ele>286.0</ele><time>2026-04-19T13:11:10.984Z</time></trkpt><trkpt lat="44.750477346883294" lon="1.1505380364054458"><ele>286.40000000000003</ele><time>2026-04-19T13:11:11.984Z</time></trkpt><trkpt lat="44.7504761934488" lon="1.1503913994945207"><ele>286.8</ele><time>2026-04-19T13:11:12.984Z</time></trkpt><trkpt lat="44.75047476252635" lon="1.1502540320584644"><ele>287.20000000000005</ele><time>2026-04-19T13:11:13.984Z</time></trkpt><trkpt lat="44.75047075215362" lon="1.1501240884353772"><ele>287.6</ele><time>2026-04-19T13:11:14.984Z</time></trkpt><trkpt lat="44.750463078307945" lon="1.149972282553429"><ele>288.0</ele><time>2026-04-19T13:11:15.984Z</time></trkpt><trkpt lat="44.750442631428456" lon="1.1498325936210458"><ele>288.0</ele><time>2026-04-19T13:11:16.984Z</time></trkpt><trkpt lat="44.75044834431713" lon="1.1496882848578853"><ele>288.0</ele><time>2026-04-19T13:11:17.984Z</time></trkpt><trkpt lat="44.75045307388702" lon="1.1495319576748309"><ele>288.0</ele><time>2026-04-19T13:11:18.984Z</time></trkpt><trkpt lat="44.75046453096045" lon="1.1493851671934585"><ele>288.0</ele><time>2026-04-19T13:11:19.984Z</time></trkpt><trkpt lat="44.750475203225584" lon="1.1492498475145738"><ele>288.0</ele><time>2026-04-19T13:11:20.984Z</time></trkpt><trkpt lat="44.75048055124402" lon="1.1491172566048728"><ele>287.4</ele><time>2026-04-19T13:11:21.985Z</time></trkpt><trkpt lat="44.75045912493764" lon="1.1489813078380569"><ele>286.8</ele><time>2026-04-19T13:11:22.985Z</time></trkpt><trkpt lat="44.75044073674737" lon="1.1488372222541812"><ele>286.2</ele><time>2026-04-19T13:11:23.985Z</time></trkpt><trkpt lat="44.750413236998924" lon="1.1486899167277913"><ele>285.6</ele><time>2026-04-19T13:11:24.985Z</time></trkpt><trkpt lat="44.75039900380222" lon="1.1485336304688905"><ele>285.0</ele><time>2026-04-19T13:11:25.985Z</time></trkpt><trkpt lat="44.750373372120585" lon="1.148395199854318"><ele>285.0</ele><time>2026-04-19T13:11:26.985Z</time></trkpt><trkpt lat="44.750355080397206" lon="1.14825543857382"><ele>285.0</ele><time>2026-04-19T13:11:27.985Z</time></trkpt><trkpt lat="44.750351501434125" lon="1.1481068117352333"><ele>285.0</ele><time>2026-04-19T13:11:28.985Z</time></trkpt><trkpt lat="44.75036208144162" lon="1.1479554890225077"><ele>285.0</ele><time>2026-04-19T13:11:29.985Z</time></trkpt><trkpt lat="44.75038778791854" lon="1.147823610910191"><ele>285.0</ele><time>2026-04-19T13:11:30.985Z</time></trkpt><trkpt lat="44.75041191240298" lon="1.1476837119685326"><ele>284.6</ele><time>2026-04-19T13:11:31.981Z</time></trkpt><trkpt lat="44.7504374598331" lon="1.147552222474111"><ele>284.2</ele><time>2026-04-19T13:11:32.981Z</time></trkpt><trkpt lat="44.75046702348732" lon="1.1474215290715333"><ele>283.8</ele><time>2026-04-19T13:11:33.981Z</time></trkpt><trkpt lat="44.750481045982355" lon="1.1472892462332536"><ele>283.4</ele><time>2026-04-19T13:11:34.981Z</time></trkpt><trkpt lat="44.75050121315888" lon="1.1471590790716157"><ele>283.0</ele><time>2026-04-19T13:11:35.981Z</time></trkpt><trkpt lat="44.75051420944484" lon="1.1470297748375378"><ele>282.2</ele><time>2026-04-19T13:11:36.981Z</time></trkpt><trkpt lat="44.75052082661712" lon="1.1468890247093293"><ele>281.4</ele><time>2026-04-19T13:11:37.982Z</time></trkpt><trkpt lat="44.75053698445463" lon="1.1467527950528948"><ele>280.59999999999997</ele><time>2026-04-19T13:11:38.981Z</time></trkpt><trkpt lat="44.750547093135744" lon="1.1466174393928124"><ele>279.8</ele><time>2026-04-19T13:11:39.981Z</time></trkpt><trkpt lat="44.750550556740365" lon="1.1464771095395525"><ele>279.0</ele><time>2026-04-19T13:11:40.981Z</time></trkpt><trkpt lat="44.75057221118557" lon="1.1463312363177585"><ele>278.2</ele><time>2026-04-19T13:11:41.981Z</time></trkpt><trkpt lat="44.750564875580245" lon="1.1461910750601465"><ele>277.4</ele><time>2026-04-19T13:11:42.981Z</time></trkpt><trkpt lat="44.750574746571864" lon="1.1460629005960254"><ele>276.6</ele><time>2026-04-19T13:11:43.98Z</time></trkpt><trkpt lat="44.750568044553646" lon="1.1459394409546377"><ele>275.8</ele><time>2026-04-19T13:11:44.981Z</time></trkpt><trkpt lat="44.75056174852056" lon="1.145805044592075"><ele>275.0</ele><time>2026-04-19T13:11:45.981Z</time></trkpt><trkpt lat="44.75055535588645" lon="1.145664763336588"><ele>275.0</ele><time>2026-04-19T13:11:46.981Z</time></trkpt><trkpt lat="44.750552187323116" lon="1.1455330603583147"><ele>275.0</ele><time>2026-04-19T13:11:47.981Z</time></trkpt><trkpt lat="44.750569549713596" lon="1.1454051467545932"><ele>275.0</ele><time>2026-04-19T13:11:48.981Z</time></trkpt><trkpt lat="44.75058598051754" lon="1.1452525363447021"><ele>275.0</ele><time>2026-04-19T13:11:49.981Z</time></trkpt><trkpt lat="44.7506125561264" lon="1.145081042303416"><ele>275.0</ele><time>2026-04-19T13:11:50.981Z</time></trkpt><trkpt lat="44.75063147499455" lon="1.1449318346769193"><ele>276.75</ele><time>2026-04-19T13:11:51.981Z</time></trkpt><trkpt lat="44.750681583133755" lon="1.1447670806809263"><ele>278.5</ele><time>2026-04-19T13:11:52.981Z</time></trkpt><trkpt lat="44.75073589453353" lon="1.1446130406715498"><ele>280.25</ele><time>2026-04-19T13:11:53.981Z</time></trkpt><trkpt lat="44.75078429411045" lon="1.144456379482357"><ele>282.0</ele><time>2026-04-19T13:11:54.981Z</time></trkpt><trkpt lat="44.75084138749564" lon="1.144311705136493"><ele>282.0</ele><time>2026-04-19T13:11:55.981Z</time></trkpt><trkpt lat="44.75091483693504" lon="1.1441904004395305"><ele>282.0</ele><time>2026-04-19T13:11:56.981Z</time></trkpt><trkpt lat="44.75097827182898" lon="1.144057809349316"><ele>282.0</ele><time>2026-04-19T13:11:57.981Z</time></trkpt><trkpt lat="44.7510474150819" lon="1.143921742732392"><ele>282.0</ele><time>2026-04-19T13:11:58.981Z</time></trkpt><trkpt lat="44.7511213812435" lon="1.143784238772334"><ele>282.25</ele><time>2026-04-19T13:11:59.981Z</time></trkpt><trkpt lat="44.751196308424966" lon="1.1436505058558182"><ele>282.5</ele><time>2026-04-19T13:12:00.981Z</time></trkpt><trkpt lat="44.75127731150514" lon="1.1435102711494587"><ele>282.75</ele><time>2026-04-19T13:12:01.981Z</time></trkpt><trkpt lat="44.75135470536246" lon="1.143377137136723"><ele>283.0</ele><time>2026-04-19T13:12:02.981Z</time></trkpt><trkpt lat="44.75143915868302" lon="1.143226664238766"><ele>282.5</ele><time>2026-04-19T13:12:03.981Z</time></trkpt><trkpt lat="44.75151143309838" lon="1.1430800717976075"><ele>282.0</ele><time>2026-04-19T13:12:04.981Z</time></trkpt><trkpt lat="44.75159307742675" lon="1.1429463596565623"><ele>281.5</ele><time>2026-04-19T13:12:05.981Z</time></trkpt><trkpt lat="44.75166414360979" lon="1.1428073215967076"><ele>281.0</ele><time>2026-04-19T13:12:06.981Z</time></trkpt><trkpt lat="44.75174060067478" lon="1.1426709094680803"><ele>281.0</ele><time>2026-04-19T13:12:07.981Z</time></trkpt><trkpt lat="44.75183943566211" lon="1.1425484035617237"><ele>281.0</ele><time>2026-04-19T13:12:08.981Z</time></trkpt><trkpt lat="44.75191896802994" lon="1.1424173420656811"><ele>281.0</ele><time>2026-04-19T13:12:09.981Z</time></trkpt><trkpt lat="44.75201194327386" lon="1.142300981731461"><ele>281.0</ele><time>2026-04-19T13:12:10.981Z</time></trkpt><trkpt lat="44.752102714090405" lon="1.1421858362001918"><ele>282.0</ele><time>2026-04-19T13:12:11.981Z</time></trkpt><trkpt lat="44.75220279597682" lon="1.142050357953567"><ele>283.0</ele><time>2026-04-19T13:12:12.981Z</time></trkpt><trkpt lat="44.75231982722568" lon="1.1419227095806728"><ele>284.0</ele><time>2026-04-19T13:12:13.981Z</time></trkpt><trkpt lat="44.752415003488245" lon="1.141777981818461"><ele>285.0</ele><time>2026-04-19T13:12:14.981Z</time></trkpt><trkpt lat="44.752521256572294" lon="1.1416378895380728"><ele>285.5</ele><time>2026-04-19T13:12:15.981Z</time></trkpt><trkpt lat="44.75262340979557" lon="1.1414862166355741"><ele>286.0</ele><time>2026-04-19T13:12:16.981Z</time></trkpt><trkpt lat="44.75274368127998" lon="1.1413509007261673"><ele>286.5</ele><time>2026-04-19T13:12:17.981Z</time></trkpt><trkpt lat="44.752827365916495" lon="1.1411898320023328"><ele>287.0</ele><time>2026-04-19T13:12:18.981Z</time></trkpt><trkpt lat="44.75289452614362" lon="1.1410267635967448"><ele>287.0</ele><time>2026-04-19T13:12:19.981Z</time></trkpt><trkpt lat="44.752956015923225" lon="1.140859286245344"><ele>287.0</ele><time>2026-04-19T13:12:20.981Z</time></trkpt><trkpt lat="44.75301251509671" lon="1.140685462614889"><ele>287.0</ele><time>2026-04-19T13:12:21.981Z</time></trkpt><trkpt lat="44.75306873202156" lon="1.1405026093378956"><ele>287.0</ele><time>2026-04-19T13:12:22.981Z</time></trkpt><trkpt lat="44.753115884802725" lon="1.14031874039668"><ele>285.75</ele><time>2026-04-19T13:12:23.981Z</time></trkpt><trkpt lat="44.7531628322056" lon="1.1401237357517497"><ele>284.5</ele><time>2026-04-19T13:12:24.981Z</time></trkpt><trkpt lat="44.75319529291233" lon="1.1399219073067859"><ele>283.25</ele><time>2026-04-19T13:12:25.981Z</time></trkpt><trkpt lat="44.75321979261424" lon="1.1397292600280964"><ele>282.0</ele><time>2026-04-19T13:12:26.982Z</time></trkpt><trkpt lat="44.753257430072715" lon="1.139534365732193"><ele>281.75</ele><time>2026-04-19T13:12:27.982Z</time></trkpt><trkpt lat="44.75327778534532" lon="1.1393395937044395"><ele>281.5</ele><time>2026-04-19T13:12:28.982Z</time></trkpt><trkpt lat="44.75329135782103" lon="1.1391438139100163"><ele>281.25</ele><time>2026-04-19T13:12:29.982Z</time></trkpt><trkpt lat="44.753312449473434" lon="1.1389618202351488"><ele>281.0</ele><time>2026-04-19T13:12:30.982Z</time></trkpt><trkpt lat="44.75332435243166" lon="1.13879726708644"><ele>281.8</ele><time>2026-04-19T13:12:31.982Z</time></trkpt><trkpt lat="44.75334812884946" lon="1.1386336904111827"><ele>282.6</ele><time>2026-04-19T13:12:32.982Z</time></trkpt><trkpt lat="44.75336340899291" lon="1.1384795794575604"><ele>283.4</ele><time>2026-04-19T13:12:33.982Z</time></trkpt><trkpt lat="44.75337391521779" lon="1.1383270405523935"><ele>284.2</ele><time>2026-04-19T13:12:34.982Z</time></trkpt><trkpt lat="44.75340040312977" lon="1.1381745707850357"><ele>285.0</ele><time>2026-04-19T13:12:35.982Z</time></trkpt><trkpt lat="44.75343264970292" lon="1.138004563550719"><ele>284.25</ele><time>2026-04-19T13:12:36.982Z</time></trkpt><trkpt lat="44.75346812503511" lon="1.1378358858850246"><ele>283.5</ele><time>2026-04-19T13:12:37.982Z</time></trkpt><trkpt lat="44.75350480903751" lon="1.1376664246017034"><ele>282.75</ele><time>2026-04-19T13:12:38.982Z</time></trkpt><trkpt lat="44.75355081479833" lon="1.1374922113901875"><ele>282.0</ele><time>2026-04-19T13:12:39.982Z</time></trkpt><trkpt lat="44.75359771261408" lon="1.137322665042941"><ele>284.6</ele><time>2026-04-19T13:12:40.982Z</time></trkpt><trkpt lat="44.75363099653907" lon="1.1371537471550723"><ele>287.2</ele><time>2026-04-19T13:12:41.982Z</time></trkpt><trkpt lat="44.753664008497395" lon="1.1369886279593628"><ele>289.8</ele><time>2026-04-19T13:12:42.982Z</time></trkpt><trkpt lat="44.753683977886695" lon="1.1368482714126837"><ele>292.4</ele><time>2026-04-19T13:12:43.982Z</time></trkpt><trkpt lat="44.75373131979481" lon="1.1367325906289365"><ele>295.0</ele><time>2026-04-19T13:12:44.982Z</time></trkpt><trkpt lat="44.75376570605767" lon="1.1366172659412683"><ele>296.16666666666663</ele><time>2026-04-19T13:12:45.982Z</time></trkpt><trkpt lat="44.75380925051653" lon="1.1365111807806094"><ele>297.3333333333333</ele><time>2026-04-19T13:12:46.982Z</time></trkpt><trkpt lat="44.753853983678816" lon="1.1364267292921828"><ele>298.5</ele><time>2026-04-19T13:12:47.982Z</time></trkpt><trkpt lat="44.753922664969785" lon="1.136347469869985"><ele>299.6666666666667</ele><time>2026-04-19T13:12:48.982Z</time></trkpt><trkpt lat="44.7539864695775" lon="1.136255797613246"><ele>300.83333333333337</ele><time>2026-04-19T13:12:49.982Z</time></trkpt><trkpt lat="44.75403965606956" lon="1.1361667029818456"><ele>302.0</ele><time>2026-04-19T13:12:50.982Z</time></trkpt><trkpt lat="44.75408288926299" lon="1.136045919609889"><ele>302.0</ele><time>2026-04-19T13:12:51.982Z</time></trkpt><trkpt lat="44.754110505630116" lon="1.1359094236233886"><ele>302.0</ele><time>2026-04-19T13:12:52.982Z</time></trkpt><trkpt lat="44.754121559137246" lon="1.1357450726926648"><ele>302.0</ele><time>2026-04-19T13:12:53.982Z</time></trkpt><trkpt lat="44.75412376510157" lon="1.135594796436335"><ele>302.0</ele><time>2026-04-19T13:12:54.982Z</time></trkpt><trkpt lat="44.7541080611532" lon="1.1354620584852384"><ele>302.0</ele><time>2026-04-19T13:12:55.982Z</time></trkpt><trkpt lat="44.754126058633624" lon="1.1352757764698649"><ele>302.0</ele><time>2026-04-19T13:12:56.982Z</time></trkpt><trkpt lat="44.754110425158295" lon="1.1351092989029838"><ele>302.0</ele><time>2026-04-19T13:12:57.982Z</time></trkpt><trkpt lat="44.754130545358436" lon="1.1349290889596633"><ele>302.0</ele><time>2026-04-19T13:12:58.982Z</time></trkpt><trkpt lat="44.75412071138345" lon="1.1347945847007044"><ele>302.0</ele><time>2026-04-19T13:12:59.982Z</time></trkpt><trkpt lat="44.75412250781201" lon="1.1346511294150217"><ele>302.0</ele><time>2026-04-19T13:13:00.982Z</time></trkpt><trkpt lat="44.754154333563484" lon="1.1345185077840143"><ele>302.25</ele><time>2026-04-19T13:13:01.982Z</time></trkpt><trkpt lat="44.754211889191154" lon="1.1343909890328348"><ele>302.5</ele><time>2026-04-19T13:13:02.982Z</time></trkpt><trkpt lat="44.75426785401373" lon="1.1342440376831375"><ele>302.75</ele><time>2026-04-19T13:13:03.982Z</time></trkpt><trkpt lat="44.75436105757243" lon="1.1341300211124534"><ele>303.0</ele><time>2026-04-19T13:13:04.982Z</time></trkpt><trkpt lat="44.75443966988233" lon="1.1339856072740424"><ele>301.75</ele><time>2026-04-19T13:13:05.982Z</time></trkpt><trkpt lat="44.75452277109919" lon="1.1338736629380692"><ele>300.5</ele><time>2026-04-19T13:13:06.982Z</time></trkpt><trkpt lat="44.75460203458783" lon="1.1337521059860767"><ele>299.25</ele><time>2026-04-19T13:13:07.982Z</time></trkpt><trkpt lat="44.75469376157191" lon="1.1336384341122487"><ele>298.0</ele><time>2026-04-19T13:13:08.982Z</time></trkpt><trkpt lat="44.754781323281776" lon="1.133542468717836"><ele>298.0</ele><time>2026-04-19T13:13:09.983Z</time></trkpt><trkpt lat="44.75487968912123" lon="1.133432410190292"><ele>298.0</ele><time>2026-04-19T13:13:10.983Z</time></trkpt><trkpt lat="44.75497480395691" lon="1.1332976303336617"><ele>298.0</ele><time>2026-04-19T13:13:11.983Z</time></trkpt><trkpt lat="44.7550880198328" lon="1.1331928873984227"><ele>298.0</ele><time>2026-04-19T13:13:12.983Z</time></trkpt><trkpt lat="44.7551858408631" lon="1.1330648097184992"><ele>297.5</ele><time>2026-04-19T13:13:13.983Z</time></trkpt><trkpt lat="44.755313308668725" lon="1.1329465429957302"><ele>297.0</ele><time>2026-04-19T13:13:14.983Z</time></trkpt><trkpt lat="44.75542697029115" lon="1.1328170615646584"><ele>296.5</ele><time>2026-04-19T13:13:15.983Z</time></trkpt><trkpt lat="44.7555293493117" lon="1.1326923279767775"><ele>296.0</ele><time>2026-04-19T13:13:16.983Z</time></trkpt><trkpt lat="44.755636334827045" lon="1.1325851617445126"><ele>296.0</ele><time>2026-04-19T13:13:17.983Z</time></trkpt><trkpt lat="44.755748389836256" lon="1.1324549005426845"><ele>296.0</ele><time>2026-04-19T13:13:18.983Z</time></trkpt><trkpt lat="44.75585068002487" lon="1.1323377946594932"><ele>296.0</ele><time>2026-04-19T13:13:19.983Z</time></trkpt><trkpt lat="44.75593803815162" lon="1.1322315548223816"><ele>296.0</ele><time>2026-04-19T13:13:20.983Z</time></trkpt><trkpt lat="44.756036283028045" lon="1.1321476274556732"><ele>295.75</ele><time>2026-04-19T13:13:21.983Z</time></trkpt><trkpt lat="44.75611992503642" lon="1.1320489042236719"><ele>295.5</ele><time>2026-04-19T13:13:22.983Z</time></trkpt><trkpt lat="44.756199055886036" lon="1.1319255505891277"><ele>295.25</ele><time>2026-04-19T13:13:23.983Z</time></trkpt><trkpt lat="44.756261996970544" lon="1.1317651983156614"><ele>295.0</ele><time>2026-04-19T13:13:24.983Z</time></trkpt><trkpt lat="44.756312532089645" lon="1.1315694336686246"><ele>292.5</ele><time>2026-04-19T13:13:25.983Z</time></trkpt><trkpt lat="44.75641596864463" lon="1.131165325090422"><ele>290.0</ele><time>2026-04-19T13:13:27.983Z</time></trkpt><trkpt lat="44.756466505522326" lon="1.1309588577997376"><ele>290.0</ele><time>2026-04-19T13:13:28.983Z</time></trkpt><trkpt lat="44.75650657834595" lon="1.1307472308665831"><ele>290.0</ele><time>2026-04-19T13:13:29.983Z</time></trkpt><trkpt lat="44.75655105182592" lon="1.1305846958850732"><ele>290.0</ele><time>2026-04-19T13:13:30.983Z</time></trkpt><trkpt lat="44.75656878755202" lon="1.1303675611219373"><ele>290.0</ele><time>2026-04-19T13:13:31.983Z</time></trkpt><trkpt lat="44.75659860119578" lon="1.1301766193047655"><ele>289.0</ele><time>2026-04-19T13:13:32.983Z</time></trkpt><trkpt lat="44.75663364859323" lon="1.129993547388538"><ele>288.0</ele><time>2026-04-19T13:13:33.983Z</time></trkpt><trkpt lat="44.75668926261001" lon="1.129818868907807"><ele>287.0</ele><time>2026-04-19T13:13:34.983Z</time></trkpt><trkpt lat="44.75676544004659" lon="1.1296528937552357"><ele>286.0</ele><time>2026-04-19T13:13:35.983Z</time></trkpt><trkpt lat="44.75684036716756" lon="1.1294801078807724"><ele>285.25</ele><time>2026-04-19T13:13:36.983Z</time></trkpt><trkpt lat="44.75690372764747" lon="1.1293380843504277"><ele>284.5</ele><time>2026-04-19T13:13:37.98Z</time></trkpt><trkpt lat="44.75696065739824" lon="1.1291824810187996"><ele>283.75</ele><time>2026-04-19T13:13:38.98Z</time></trkpt><trkpt lat="44.75702095662454" lon="1.1290225389090174"><ele>283.0</ele><time>2026-04-19T13:13:39.98Z</time></trkpt><trkpt lat="44.757088450084346" lon="1.1288991294622506"><ele>282.75</ele><time>2026-04-19T13:13:40.98Z</time></trkpt><trkpt lat="44.75716064913284" lon="1.1287907577215133"><ele>282.5</ele><time>2026-04-19T13:13:41.981Z</time></trkpt><trkpt lat="44.757268761158855" lon="1.1286841811614476"><ele>282.25</ele><time>2026-04-19T13:13:42.981Z</time></trkpt><trkpt lat="44.75738157048" lon="1.1285818618578736"><ele>282.0</ele><time>2026-04-19T13:13:43.98Z</time></trkpt><trkpt lat="44.75750426224395" lon="1.1284818091512916"><ele>282.0</ele><time>2026-04-19T13:13:44.98Z</time></trkpt><trkpt lat="44.75761153635686" lon="1.1283687331577288"><ele>282.0</ele><time>2026-04-19T13:13:45.98Z</time></trkpt><trkpt lat="44.757700585655485" lon="1.1282374596146796"><ele>282.0</ele><time>2026-04-19T13:13:46.98Z</time></trkpt><trkpt lat="44.757768817939365" lon="1.1281049372752852"><ele>282.0</ele><time>2026-04-19T13:13:47.98Z</time></trkpt><trkpt lat="44.75784444956327" lon="1.1279746500159533"><ele>281.8333333333333</ele><time>2026-04-19T13:13:48.98Z</time></trkpt><trkpt lat="44.75789893762644" lon="1.127849207022195"><ele>281.6666666666667</ele><time>2026-04-19T13:13:49.98Z</time></trkpt><trkpt lat="44.75793156497638" lon="1.127761897320115"><ele>281.5</ele><time>2026-04-19T13:13:50.98Z</time></trkpt><trkpt lat="44.75795863873204" lon="1.127673318267334"><ele>281.33333333333337</ele><time>2026-04-19T13:13:51.98Z</time></trkpt><trkpt lat="44.758024854238904" lon="1.1275336141467924"><ele>281.1666666666667</ele><time>2026-04-19T13:13:53.98Z</time></trkpt><trkpt lat="44.75806451861666" lon="1.1274591857410976"><ele>281.0</ele><time>2026-04-19T13:13:54.98Z</time></trkpt><trkpt lat="44.758056974490586" lon="1.1273299074413767"><ele>281.0</ele><time>2026-04-19T13:13:55.98Z</time></trkpt><trkpt lat="44.758111921072604" lon="1.1272296797944212"><ele>281.0</ele><time>2026-04-19T13:13:56.98Z</time></trkpt><trkpt lat="44.75817472708387" lon="1.1271234103508176"><ele>281.0</ele><time>2026-04-19T13:13:57.98Z</time></trkpt><trkpt lat="44.758258314392144" lon="1.1270121059553022"><ele>281.0</ele><time>2026-04-19T13:13:58.98Z</time></trkpt><trkpt lat="44.75835849441434" lon="1.1268968866419444"><ele>281.0</ele><time>2026-04-19T13:13:59.98Z</time></trkpt><trkpt lat="44.7584400249607" lon="1.1267486959602524"><ele>281.0</ele><time>2026-04-19T13:14:00.98Z</time></trkpt><trkpt lat="44.75851915887033" lon="1.126599806205134"><ele>281.0</ele><time>2026-04-19T13:14:01.98Z</time></trkpt><trkpt lat="44.75858578658415" lon="1.1264423259683642"><ele>281.0</ele><time>2026-04-19T13:14:02.98Z</time></trkpt><trkpt lat="44.7586554953309" lon="1.1262739004202065"><ele>281.0</ele><time>2026-04-19T13:14:03.98Z</time></trkpt><trkpt lat="44.758744778126406" lon="1.1261146586471342"><ele>281.25</ele><time>2026-04-19T13:14:04.98Z</time></trkpt><trkpt lat="44.75881379349703" lon="1.1259673063166766"><ele>281.5</ele><time>2026-04-19T13:14:05.98Z</time></trkpt><trkpt lat="44.75888874711491" lon="1.1258425068391262"><ele>281.75</ele><time>2026-04-19T13:14:06.98Z</time></trkpt><trkpt lat="44.75896942092071" lon="1.1257452875833185"><ele>282.0</ele><time>2026-04-19T13:14:07.98Z</time></trkpt><trkpt lat="44.75907520497215" lon="1.125670169576782"><ele>281.8</ele><time>2026-04-19T13:14:08.98Z</time></trkpt><trkpt lat="44.75917160675749" lon="1.1256011729567044"><ele>281.6</ele><time>2026-04-19T13:14:09.98Z</time></trkpt><trkpt lat="44.75926772255463" lon="1.1255460529027062"><ele>281.40000000000003</ele><time>2026-04-19T13:14:10.98Z</time></trkpt><trkpt lat="44.75937799425742" lon="1.125506704638893"><ele>281.2</ele><time>2026-04-19T13:14:11.98Z</time></trkpt><trkpt lat="44.759490929708726" lon="1.1254955165168818"><ele>281.0</ele><time>2026-04-19T13:14:12.98Z</time></trkpt><trkpt lat="44.75961324855346" lon="1.1255185575674533"><ele>281.0</ele><time>2026-04-19T13:14:13.98Z</time></trkpt><trkpt lat="44.75975611155839" lon="1.1255653958807628"><ele>281.0</ele><time>2026-04-19T13:14:14.98Z</time></trkpt><trkpt lat="44.75989584464789" lon="1.1256134161207447"><ele>281.0</ele><time>2026-04-19T13:14:15.981Z</time></trkpt><trkpt lat="44.76002882143291" lon="1.1256408669509654"><ele>281.0</ele><time>2026-04-19T13:14:16.981Z</time></trkpt><trkpt lat="44.760153433616594" lon="1.1256853919410177"><ele>280.75</ele><time>2026-04-19T13:14:17.981Z</time></trkpt><trkpt lat="44.76028355248264" lon="1.1257106106584711"><ele>280.5</ele><time>2026-04-19T13:14:18.981Z</time></trkpt><trkpt lat="44.76040271972989" lon="1.1257109587176062"><ele>280.25</ele><time>2026-04-19T13:14:19.981Z</time></trkpt><trkpt lat="44.76052545976034" lon="1.125718619167777"><ele>280.0</ele><time>2026-04-19T13:14:20.981Z</time></trkpt><trkpt lat="44.760655816645226" lon="1.1257232946041742"><ele>280.25</ele><time>2026-04-19T13:14:21.981Z</time></trkpt><trkpt lat="44.760784279604316" lon="1.1257318359551682"><ele>280.5</ele><time>2026-04-19T13:14:22.981Z</time></trkpt><trkpt lat="44.76092699068786" lon="1.1257327282080005"><ele>280.75</ele><time>2026-04-19T13:14:23.981Z</time></trkpt><trkpt lat="44.761058243181985" lon="1.1257231300436255"><ele>281.0</ele><time>2026-04-19T13:14:24.981Z</time></trkpt><trkpt lat="44.761200082771275" lon="1.1257225018867203"><ele>281.6</ele><time>2026-04-19T13:14:25.981Z</time></trkpt><trkpt lat="44.761315704687114" lon="1.1257054103672057"><ele>282.20000000000005</ele><time>2026-04-19T13:14:26.981Z</time></trkpt><trkpt lat="44.7614250091903" lon="1.125685796050145"><ele>282.79999999999995</ele><time>2026-04-19T13:14:27.981Z</time></trkpt><trkpt lat="44.76151735034461" lon="1.1256521275798765"><ele>283.4</ele><time>2026-04-19T13:14:28.981Z</time></trkpt><trkpt lat="44.76161486237733" lon="1.1256381281741603"><ele>284.0</ele><time>2026-04-19T13:14:29.981Z</time></trkpt><trkpt lat="44.76171305508351" lon="1.1255759316497311"><ele>284.0</ele><time>2026-04-19T13:14:30.981Z</time></trkpt><trkpt lat="44.76181548202524" lon="1.1255179317996338"><ele>284.0</ele><time>2026-04-19T13:14:31.981Z</time></trkpt><trkpt lat="44.76190881949572" lon="1.125427550788085"><ele>284.0</ele><time>2026-04-19T13:14:32.981Z</time></trkpt><trkpt lat="44.76199778057226" lon="1.12532357941087"><ele>284.0</ele><time>2026-04-19T13:14:33.981Z</time></trkpt><trkpt lat="44.762092404629676" lon="1.125200948381768"><ele>284.75</ele><time>2026-04-19T13:14:34.981Z</time></trkpt><trkpt lat="44.76219265188004" lon="1.125082457107777"><ele>285.5</ele><time>2026-04-19T13:14:35.981Z</time></trkpt><trkpt lat="44.762279341136136" lon="1.124936711049259"><ele>286.25</ele><time>2026-04-19T13:14:36.981Z</time></trkpt><trkpt lat="44.76235930279211" lon="1.124755521958757"><ele>287.0</ele><time>2026-04-19T13:14:37.981Z</time></trkpt><trkpt lat="44.76243696491665" lon="1.1245865774342354"><ele>287.0</ele><time>2026-04-19T13:14:38.981Z</time></trkpt><trkpt lat="44.76253651738208" lon="1.1244170976055643"><ele>287.0</ele><time>2026-04-19T13:14:39.981Z</time></trkpt><trkpt lat="44.76260755340417" lon="1.1242332706726947"><ele>287.0</ele><time>2026-04-19T13:14:40.981Z</time></trkpt><trkpt lat="44.762687089907345" lon="1.1240567218131432"><ele>286.25</ele><time>2026-04-19T13:14:41.981Z</time></trkpt><trkpt lat="44.76276577600494" lon="1.1238847415148108"><ele>285.5</ele><time>2026-04-19T13:14:42.981Z</time></trkpt><trkpt lat="44.762850654897086" lon="1.1237203354098757"><ele>284.75</ele><time>2026-04-19T13:14:43.981Z</time></trkpt><trkpt lat="44.762929953366665" lon="1.123572668508726"><ele>284.0</ele><time>2026-04-19T13:14:44.981Z</time></trkpt><trkpt lat="44.76300513318436" lon="1.123433440537892"><ele>284.0</ele><time>2026-04-19T13:14:45.981Z</time></trkpt><trkpt lat="44.763079804287166" lon="1.1232867239843944"><ele>284.0</ele><time>2026-04-19T13:14:46.981Z</time></trkpt><trkpt lat="44.763147662778486" lon="1.1231355499205848"><ele>284.0</ele><time>2026-04-19T13:14:47.981Z</time></trkpt><trkpt lat="44.763198674555476" lon="1.1229671724994765"><ele>284.0</ele><time>2026-04-19T13:14:48.981Z</time></trkpt><trkpt lat="44.763239224903664" lon="1.1228022016053014"><ele>283.0</ele><time>2026-04-19T13:14:49.981Z</time></trkpt><trkpt lat="44.76328555409279" lon="1.1226290911798738"><ele>282.0</ele><time>2026-04-19T13:14:50.981Z</time></trkpt><trkpt lat="44.76333608206433" lon="1.122454093342943"><ele>281.0</ele><time>2026-04-19T13:14:51.981Z</time></trkpt><trkpt lat="44.763404856598626" lon="1.122290319883991"><ele>280.0</ele><time>2026-04-19T13:14:52.981Z</time></trkpt><trkpt lat="44.76345416504593" lon="1.1221389101201307"><ele>278.5</ele><time>2026-04-19T13:14:53.981Z</time></trkpt><trkpt lat="44.76351362716699" lon="1.1219950857645455"><ele>277.0</ele><time>2026-04-19T13:14:54.981Z</time></trkpt><trkpt lat="44.763587828261436" lon="1.121834759098975"><ele>275.5</ele><time>2026-04-19T13:14:55.981Z</time></trkpt><trkpt lat="44.763679063564226" lon="1.1216818937809132"><ele>274.0</ele><time>2026-04-19T13:14:56.981Z</time></trkpt><trkpt lat="44.76377583674314" lon="1.121520692973104"><ele>273.0</ele><time>2026-04-19T13:14:57.981Z</time></trkpt><trkpt lat="44.763861900847516" lon="1.1213894907578474"><ele>272.0</ele><time>2026-04-19T13:14:58.982Z</time></trkpt><trkpt lat="44.76392079775246" lon="1.1212912602514296"><ele>271.0</ele><time>2026-04-19T13:14:59.982Z</time></trkpt><trkpt lat="44.76398364212686" lon="1.121165351909151"><ele>270.0</ele><time>2026-04-19T13:15:00.982Z</time></trkpt><trkpt lat="44.76402178893804" lon="1.1210416611835239"><ele>269.0</ele><time>2026-04-19T13:15:01.982Z</time></trkpt><trkpt lat="44.76405681339113" lon="1.1209006251912967"><ele>269.0</ele><time>2026-04-19T13:15:02.982Z</time></trkpt><trkpt lat="44.76408128794752" lon="1.1207406475237351"><ele>269.0</ele><time>2026-04-19T13:15:03.982Z</time></trkpt><trkpt lat="44.76412444460063" lon="1.1205635898876245"><ele>269.0</ele><time>2026-04-19T13:15:04.982Z</time></trkpt><trkpt lat="44.76413707395822" lon="1.1203672024383862"><ele>269.0</ele><time>2026-04-19T13:15:05.982Z</time></trkpt><trkpt lat="44.76418504757178" lon="1.1201736868752645"><ele>267.75</ele><time>2026-04-19T13:15:06.982Z</time></trkpt><trkpt lat="44.76421891301126" lon="1.1199899218206242"><ele>266.5</ele><time>2026-04-19T13:15:07.982Z</time></trkpt><trkpt lat="44.76426726652617" lon="1.1198182626807898"><ele>265.25</ele><time>2026-04-19T13:15:08.982Z</time></trkpt><trkpt lat="44.76430589966899" lon="1.119652773624771"><ele>264.0</ele><time>2026-04-19T13:15:09.982Z</time></trkpt><trkpt lat="44.764334216527914" lon="1.119491280628657"><ele>263.0</ele><time>2026-04-19T13:15:10.982Z</time></trkpt><trkpt lat="44.76435433360641" lon="1.1193619561733765"><ele>262.0</ele><time>2026-04-19T13:15:11.982Z</time></trkpt><trkpt lat="44.764369397361875" lon="1.119233788610496"><ele>261.0</ele><time>2026-04-19T13:15:12.982Z</time></trkpt><trkpt lat="44.76436518031483" lon="1.1190879715841477"><ele>260.0</ele><time>2026-04-19T13:15:13.982Z</time></trkpt><trkpt lat="44.76434626006735" lon="1.1189595792571376"><ele>259.0</ele><time>2026-04-19T13:15:14.982Z</time></trkpt><trkpt lat="44.76431709744064" lon="1.118837468898352"><ele>258.0</ele><time>2026-04-19T13:15:15.982Z</time></trkpt><trkpt lat="44.764289737115966" lon="1.1187185756404623"><ele>257.0</ele><time>2026-04-19T13:15:16.982Z</time></trkpt><trkpt lat="44.76426254873293" lon="1.1186262295423444"><ele>256.0</ele><time>2026-04-19T13:15:17.982Z</time></trkpt><trkpt lat="44.764253877662" lon="1.118521231509384"><ele>255.0</ele><time>2026-04-19T13:15:18.982Z</time></trkpt><trkpt lat="44.7642636220946" lon="1.1184114973872852"><ele>253.99999999999997</ele><time>2026-04-19T13:15:19.982Z</time></trkpt><trkpt lat="44.764307355697284" lon="1.1182872438156202"><ele>253.0</ele><time>2026-04-19T13:15:20.982Z</time></trkpt><trkpt lat="44.76435029755666" lon="1.1181815442701235"><ele>251.8</ele><time>2026-04-19T13:15:21.982Z</time></trkpt><trkpt lat="44.76440130835294" lon="1.1180672156283051"><ele>250.60000000000002</ele><time>2026-04-19T13:15:22.982Z</time></trkpt><trkpt lat="44.76444285883025" lon="1.117944348267786"><ele>249.39999999999998</ele><time>2026-04-19T13:15:23.982Z</time></trkpt><trkpt lat="44.764461367214146" lon="1.1178172365151766"><ele>248.2</ele><time>2026-04-19T13:15:24.982Z</time></trkpt><trkpt lat="44.76446501459687" lon="1.1176759753152812"><ele>247.0</ele><time>2026-04-19T13:15:25.982Z</time></trkpt><trkpt lat="44.7644640577082" lon="1.1175505131167045"><ele>247.0</ele><time>2026-04-19T13:15:26.982Z</time></trkpt><trkpt lat="44.764469847021225" lon="1.1174061871121306"><ele>247.0</ele><time>2026-04-19T13:15:27.982Z</time></trkpt><trkpt lat="44.76447224697719" lon="1.117262806577076"><ele>247.0</ele><time>2026-04-19T13:15:28.982Z</time></trkpt><trkpt lat="44.76447224697981" lon="1.1171254719197894"><ele>247.0</ele><time>2026-04-19T13:15:29.982Z</time></trkpt><trkpt lat="44.76447224698217" lon="1.1169955500834852"><ele>247.0</ele><time>2026-04-19T13:15:30.982Z</time></trkpt><trkpt lat="44.764467110382135" lon="1.1168600496674481"><ele>245.99999999999997</ele><time>2026-04-19T13:15:31.982Z</time></trkpt><trkpt lat="44.76446029149572" lon="1.116736799493145"><ele>245.0</ele><time>2026-04-19T13:15:32.982Z</time></trkpt><trkpt lat="44.764431104366444" lon="1.116614733627217"><ele>244.0</ele><time>2026-04-19T13:15:33.982Z</time></trkpt><trkpt lat="44.7644250271309" lon="1.1165120543133313"><ele>243.0</ele><time>2026-04-19T13:15:34.982Z</time></trkpt><trkpt lat="44.76438741128495" lon="1.116401946964316"><ele>241.99999999999997</ele><time>2026-04-19T13:15:35.982Z</time></trkpt><trkpt lat="44.7643853772916" lon="1.1162819283036858"><ele>241.0</ele><time>2026-04-19T13:15:36.982Z</time></trkpt><trkpt lat="44.76435927221901" lon="1.1161534554700927"><ele>239.33333333333331</ele><time>2026-04-19T13:15:37.982Z</time></trkpt><trkpt lat="44.76433486098021" lon="1.116024543537097"><ele>237.66666666666666</ele><time>2026-04-19T13:15:38.982Z</time></trkpt><trkpt lat="44.76431352078757" lon="1.1158976816272634"><ele>236.0</ele><time>2026-04-19T13:15:39.982Z</time></trkpt><trkpt lat="44.764295825873575" lon="1.115772205078528"><ele>234.33333333333331</ele><time>2026-04-19T13:15:40.982Z</time></trkpt><trkpt lat="44.764278921946214" lon="1.1156719675379791"><ele>232.66666666666666</ele><time>2026-04-19T13:15:41.983Z</time></trkpt><trkpt lat="44.76428100953706" lon="1.115569778337771"><ele>231.0</ele><time>2026-04-19T13:15:42.983Z</time></trkpt><trkpt lat="44.764293742053894" lon="1.1154623277342248"><ele>231.0</ele><time>2026-04-19T13:15:43.979Z</time></trkpt><trkpt lat="44.76431059497742" lon="1.1153460064219995"><ele>231.0</ele><time>2026-04-19T13:15:44.979Z</time></trkpt><trkpt lat="44.76434214553187" lon="1.1152435678946995"><ele>231.0</ele><time>2026-04-19T13:15:45.979Z</time></trkpt><trkpt lat="44.764401109442495" lon="1.1151512532150023"><ele>231.0</ele><time>2026-04-19T13:15:46.98Z</time></trkpt><trkpt lat="44.76447046210464" lon="1.11508539819054"><ele>231.0</ele><time>2026-04-19T13:15:47.979Z</time></trkpt><trkpt lat="44.764572878976885" lon="1.115058941918499"><ele>231.0</ele><time>2026-04-19T13:15:48.979Z</time></trkpt><trkpt lat="44.76485264139431" lon="1.114949876721153"><ele>231.16666666666666</ele><time>2026-04-19T13:15:51.979Z</time></trkpt><trkpt lat="44.764940516709" lon="1.1149411573743762"><ele>231.33333333333331</ele><time>2026-04-19T13:15:52.979Z</time></trkpt><trkpt lat="44.765020193054596" lon="1.114945191868463"><ele>231.5</ele><time>2026-04-19T13:15:53.979Z</time></trkpt><trkpt lat="44.76509443443784" lon="1.1149489459208306"><ele>231.66666666666666</ele><time>2026-04-19T13:15:54.979Z</time></trkpt><trkpt lat="44.7651634809033" lon="1.1149797619765212"><ele>231.83333333333331</ele><time>2026-04-19T13:15:55.979Z</time></trkpt><trkpt lat="44.765227243206155" lon="1.1150189453977977"><ele>232.0</ele><time>2026-04-19T13:15:56.979Z</time></trkpt><trkpt lat="44.765318280473366" lon="1.1150686128488667"><ele>232.0</ele><time>2026-04-19T13:15:57.979Z</time></trkpt><trkpt lat="44.7654087722916" lon="1.1151275496507667"><ele>232.0</ele><time>2026-04-19T13:15:58.979Z</time></trkpt><trkpt lat="44.76550461800657" lon="1.1152028463421948"><ele>232.0</ele><time>2026-04-19T13:15:59.979Z</time></trkpt><trkpt lat="44.76559998263604" lon="1.1152871015710415"><ele>232.0</ele><time>2026-04-19T13:16:00.979Z</time></trkpt><trkpt lat="44.7656971861375" lon="1.1153752846320604"><ele>232.0</ele><time>2026-04-19T13:16:01.979Z</time></trkpt><trkpt lat="44.7657811760468" lon="1.1154715785888252"><ele>232.0</ele><time>2026-04-19T13:16:02.979Z</time></trkpt><trkpt lat="44.765868292167525" lon="1.1155626763458235"><ele>232.0</ele><time>2026-04-19T13:16:03.979Z</time></trkpt><trkpt lat="44.76592270758625" lon="1.115651427675522"><ele>232.0</ele><time>2026-04-19T13:16:04.979Z</time></trkpt><trkpt lat="44.76599726714206" lon="1.1156975552156265"><ele>232.0</ele><time>2026-04-19T13:16:05.979Z</time></trkpt><trkpt lat="44.76606567133046" lon="1.115734685158849"><ele>232.0</ele><time>2026-04-19T13:16:06.979Z</time></trkpt><trkpt lat="44.766163899484376" lon="1.115787127503001"><ele>231.39999999999998</ele><time>2026-04-19T13:16:08.979Z</time></trkpt><trkpt lat="44.76623562317202" lon="1.1158270354739797"><ele>230.79999999999998</ele><time>2026-04-19T13:16:10.979Z</time></trkpt><trkpt lat="44.76634533064908" lon="1.11593125633653"><ele>230.2</ele><time>2026-04-19T13:16:12.979Z</time></trkpt><trkpt lat="44.76643488215292" lon="1.116025917963364"><ele>229.6</ele><time>2026-04-19T13:16:13.979Z</time></trkpt><trkpt lat="44.76652768999399" lon="1.1161214454996775"><ele>229.0</ele><time>2026-04-19T13:16:14.979Z</time></trkpt><trkpt lat="44.76662168657127" lon="1.1162135421478976"><ele>229.0</ele><time>2026-04-19T13:16:15.979Z</time></trkpt><trkpt lat="44.766731670068495" lon="1.116320512779608"><ele>229.0</ele><time>2026-04-19T13:16:16.979Z</time></trkpt><trkpt lat="44.76684208520922" lon="1.1164300687434445"><ele>229.0</ele><time>2026-04-19T13:16:17.979Z</time></trkpt><trkpt lat="44.76695134071014" lon="1.116536229234642"><ele>229.0</ele><time>2026-04-19T13:16:18.979Z</time></trkpt><trkpt lat="44.767065807022014" lon="1.116644632604399"><ele>229.0</ele><time>2026-04-19T13:16:19.979Z</time></trkpt><trkpt lat="44.767183370402876" lon="1.1167518443424798"><ele>229.0</ele><time>2026-04-19T13:16:20.979Z</time></trkpt><trkpt lat="44.767304651823" lon="1.1168559644947953"><ele>229.0</ele><time>2026-04-19T13:16:21.98Z</time></trkpt><trkpt lat="44.76742890429171" lon="1.116961406975966"><ele>229.0</ele><time>2026-04-19T13:16:22.98Z</time></trkpt><trkpt lat="44.76755922772144" lon="1.1170603656401892"><ele>229.66666666666666</ele><time>2026-04-19T13:16:23.98Z</time></trkpt><trkpt lat="44.76770071955504" lon="1.1171521152781854"><ele>230.33333333333331</ele><time>2026-04-19T13:16:24.98Z</time></trkpt><trkpt lat="44.76785050907334" lon="1.1172062372148308"><ele>231.0</ele><time>2026-04-19T13:16:25.98Z</time></trkpt><trkpt lat="44.76800202682589" lon="1.1172395108966913"><ele>231.0</ele><time>2026-04-19T13:16:26.98Z</time></trkpt><trkpt lat="44.76815967112252" lon="1.1172639030633609"><ele>231.0</ele><time>2026-04-19T13:16:27.98Z</time></trkpt><trkpt lat="44.768320302402834" lon="1.1172969903842187"><ele>231.0</ele><time>2026-04-19T13:16:28.98Z</time></trkpt><trkpt lat="44.768487712847055" lon="1.117318525942144"><ele>230.66666666666669</ele><time>2026-04-19T13:16:29.98Z</time></trkpt><trkpt lat="44.768657535944484" lon="1.1173779377743294"><ele>230.33333333333334</ele><time>2026-04-19T13:16:30.98Z</time></trkpt><trkpt lat="44.76882524721579" lon="1.117402043356999"><ele>230.0</ele><time>2026-04-19T13:16:31.98Z</time></trkpt><trkpt lat="44.76899138270352" lon="1.117453726460977"><ele>229.66666666666669</ele><time>2026-04-19T13:16:32.98Z</time></trkpt><trkpt lat="44.7691582494157" lon="1.1174975543064456"><ele>229.33333333333331</ele><time>2026-04-19T13:16:33.98Z</time></trkpt><trkpt lat="44.76932620954239" lon="1.1175480296385079"><ele>229.0</ele><time>2026-04-19T13:16:34.98Z</time></trkpt><trkpt lat="44.76948764728125" lon="1.1175875154854946"><ele>229.0</ele><time>2026-04-19T13:16:35.98Z</time></trkpt><trkpt lat="44.769647837345396" lon="1.117625691751824"><ele>229.0</ele><time>2026-04-19T13:16:36.98Z</time></trkpt><trkpt lat="44.769799776914645" lon="1.117662210984535"><ele>229.0</ele><time>2026-04-19T13:16:37.98Z</time></trkpt><trkpt lat="44.76996273989447" lon="1.1176996278082596"><ele>229.0</ele><time>2026-04-19T13:16:38.98Z</time></trkpt><trkpt lat="44.77012020357936" lon="1.1177313494090044"><ele>229.0</ele><time>2026-04-19T13:16:39.98Z</time></trkpt><trkpt lat="44.77028066175986" lon="1.1177688406141317"><ele>229.0</ele><time>2026-04-19T13:16:40.98Z</time></trkpt><trkpt lat="44.770424814643505" lon="1.1178327753991604"><ele>229.0</ele><time>2026-04-19T13:16:41.98Z</time></trkpt><trkpt lat="44.77056443723014" lon="1.1179001310960628"><ele>229.0</ele><time>2026-04-19T13:16:42.98Z</time></trkpt><trkpt lat="44.77068613445892" lon="1.117984169307601"><ele>229.0</ele><time>2026-04-19T13:16:43.98Z</time></trkpt><trkpt lat="44.77082057909115" lon="1.1180569258265325"><ele>229.0</ele><time>2026-04-19T13:16:44.98Z</time></trkpt><trkpt lat="44.77094017183606" lon="1.118136629129091"><ele>230.0</ele><time>2026-04-19T13:16:45.98Z</time></trkpt><trkpt lat="44.77107915350156" lon="1.1181907984365331"><ele>231.0</ele><time>2026-04-19T13:16:46.98Z</time></trkpt><trkpt lat="44.771238479065396" lon="1.1182329863708658"><ele>232.0</ele><time>2026-04-19T13:16:47.98Z</time></trkpt><trkpt lat="44.77140257869976" lon="1.1182717740049009"><ele>229.0</ele><time>2026-04-19T13:16:48.98Z</time></trkpt><trkpt lat="44.77156925732644" lon="1.1183102827221232"><ele>226.0</ele><time>2026-04-19T13:16:49.98Z</time></trkpt><trkpt lat="44.771729572477696" lon="1.118354834397867"><ele>223.0</ele><time>2026-04-19T13:16:50.98Z</time></trkpt><trkpt lat="44.77189089062811" lon="1.1183954022539957"><ele>221.66666666666666</ele><time>2026-04-19T13:16:51.98Z</time></trkpt><trkpt lat="44.77204844542692" lon="1.1184291556134072"><ele>220.33333333333331</ele><time>2026-04-19T13:16:52.98Z</time></trkpt><trkpt lat="44.77219428725195" lon="1.1184929008706181"><ele>219.0</ele><time>2026-04-19T13:16:53.98Z</time></trkpt><trkpt lat="44.77233195172835" lon="1.1185526682006663"><ele>219.0</ele><time>2026-04-19T13:16:54.98Z</time></trkpt><trkpt lat="44.77245064432097" lon="1.1186460782206913"><ele>219.0</ele><time>2026-04-19T13:16:55.98Z</time></trkpt><trkpt lat="44.77254887489502" lon="1.1187593126776745"><ele>219.0</ele><time>2026-04-19T13:16:56.98Z</time></trkpt><trkpt lat="44.77266489222785" lon="1.118909185158771"><ele>219.0</ele><time>2026-04-19T13:16:57.98Z</time></trkpt><trkpt lat="44.77279426143417" lon="1.1190208326307018"><ele>219.0</ele><time>2026-04-19T13:16:58.98Z</time></trkpt><trkpt lat="44.77292141115536" lon="1.1191348359675823"><ele>219.0</ele><time>2026-04-19T13:16:59.98Z</time></trkpt><trkpt lat="44.77306672090229" lon="1.119209608214531"><ele>219.0</ele><time>2026-04-19T13:17:00.98Z</time></trkpt><trkpt lat="44.7731938215662" lon="1.1193177855798573"><ele>219.0</ele><time>2026-04-19T13:17:01.98Z</time></trkpt><trkpt lat="44.77330610196979" lon="1.119374485063536"><ele>219.0</ele><time>2026-04-19T13:17:02.98Z</time></trkpt><trkpt lat="44.773453871440665" lon="1.1194391058514834"><ele>219.0</ele><time>2026-04-19T13:17:03.98Z</time></trkpt><trkpt lat="44.77359367814436" lon="1.1195286677701533"><ele>219.0</ele><time>2026-04-19T13:17:04.98Z</time></trkpt><trkpt lat="44.77373218082527" lon="1.1196117790560556"><ele>219.0</ele><time>2026-04-19T13:17:05.981Z</time></trkpt><trkpt lat="44.77386431624693" lon="1.1196920576145184"><ele>219.0</ele><time>2026-04-19T13:17:06.981Z</time></trkpt><trkpt lat="44.77400286713099" lon="1.1197614921612835"><ele>219.0</ele><time>2026-04-19T13:17:07.981Z</time></trkpt><trkpt lat="44.77413892749789" lon="1.1198228002043895"><ele>219.0</ele><time>2026-04-19T13:17:08.981Z</time></trkpt><trkpt lat="44.77427869076437" lon="1.1198739844182821"><ele>222.5</ele><time>2026-04-19T13:17:09.981Z</time></trkpt><trkpt lat="44.77441157687325" lon="1.1199188694806204"><ele>226.0</ele><time>2026-04-19T13:17:10.981Z</time></trkpt><trkpt lat="44.77452725021672" lon="1.1199328328718208"><ele>229.5</ele><time>2026-04-19T13:17:11.981Z</time></trkpt><trkpt lat="44.7746653013207" lon="1.119965348063976"><ele>233.0</ele><time>2026-04-19T13:17:12.981Z</time></trkpt><trkpt lat="44.77483050411563" lon="1.1199524088964683"><ele>233.0</ele><time>2026-04-19T13:17:13.981Z</time></trkpt><trkpt lat="44.774986506141225" lon="1.119913013590198"><ele>233.0</ele><time>2026-04-19T13:17:14.981Z</time></trkpt><trkpt lat="44.775144768100866" lon="1.1198662821643133"><ele>233.0</ele><time>2026-04-19T13:17:15.981Z</time></trkpt><trkpt lat="44.7753044365051" lon="1.119813005269904"><ele>234.25</ele><time>2026-04-19T13:17:16.981Z</time></trkpt><trkpt lat="44.77546013280242" lon="1.1197598698278837"><ele>235.5</ele><time>2026-04-19T13:17:17.981Z</time></trkpt><trkpt lat="44.77561078758261" lon="1.119706805237175"><ele>236.75</ele><time>2026-04-19T13:17:18.981Z</time></trkpt><trkpt lat="44.77573984067551" lon="1.1196588768815021"><ele>238.0</ele><time>2026-04-19T13:17:19.981Z</time></trkpt><trkpt lat="44.775870528096966" lon="1.1196105151326723"><ele>238.0</ele><time>2026-04-19T13:17:20.981Z</time></trkpt><trkpt lat="44.77598093722065" lon="1.1195734694036696"><ele>238.0</ele><time>2026-04-19T13:17:21.981Z</time></trkpt><trkpt lat="44.77609748143306" lon="1.1195504486035621"><ele>238.0</ele><time>2026-04-19T13:17:22.981Z</time></trkpt><trkpt lat="44.77621182250765" lon="1.1195505933384873"><ele>238.0</ele><time>2026-04-19T13:17:23.981Z</time></trkpt><trkpt lat="44.77632571346769" lon="1.119571117273274"><ele>239.75</ele><time>2026-04-19T13:17:24.981Z</time></trkpt><trkpt lat="44.776451128391436" lon="1.1196134511225255"><ele>241.5</ele><time>2026-04-19T13:17:25.981Z</time></trkpt><trkpt lat="44.77658463528242" lon="1.1196709243086935"><ele>243.25</ele><time>2026-04-19T13:17:26.981Z</time></trkpt><trkpt lat="44.77671109296899" lon="1.1197467682382698"><ele>245.0</ele><time>2026-04-19T13:17:27.981Z</time></trkpt><trkpt lat="44.776831298404495" lon="1.1198153192648341"><ele>246.4</ele><time>2026-04-19T13:17:28.981Z</time></trkpt><trkpt lat="44.776926075247346" lon="1.1199084683159823"><ele>247.8</ele><time>2026-04-19T13:17:29.981Z</time></trkpt><trkpt lat="44.77699805892206" lon="1.1199831735233228"><ele>249.2</ele><time>2026-04-19T13:17:30.981Z</time></trkpt><trkpt lat="44.7770561960406" lon="1.1200564963650357"><ele>250.6</ele><time>2026-04-19T13:17:31.981Z</time></trkpt><trkpt lat="44.77713298823452" lon="1.1201544658642608"><ele>252.0</ele><time>2026-04-19T13:17:33.981Z</time></trkpt><trkpt lat="44.777192511714006" lon="1.1201949455546105"><ele>252.0</ele><time>2026-04-19T13:17:35.981Z</time></trkpt><trkpt lat="44.77729295675394" lon="1.1200157063436191"><ele>252.0</ele><time>2026-04-19T13:17:39.981Z</time></trkpt><trkpt lat="44.77728544205636" lon="1.1199219694392337"><ele>252.0</ele><time>2026-04-19T13:17:40.981Z</time></trkpt><trkpt lat="44.77726679298911" lon="1.119793660186624"><ele>252.0</ele><time>2026-04-19T13:17:41.981Z</time></trkpt><trkpt lat="44.77724688742332" lon="1.1196483960610586"><ele>252.0</ele><time>2026-04-19T13:17:42.981Z</time></trkpt><trkpt lat="44.77722951755879" lon="1.119513288294234"><ele>252.39999999999998</ele><time>2026-04-19T13:17:43.981Z</time></trkpt><trkpt lat="44.777222709617114" lon="1.1193768054849513"><ele>252.79999999999998</ele><time>2026-04-19T13:17:44.981Z</time></trkpt><trkpt lat="44.777226390909625" lon="1.1192424805901275"><ele>253.2</ele><time>2026-04-19T13:17:45.981Z</time></trkpt><trkpt lat="44.77723958177696" lon="1.119126130357574"><ele>253.6</ele><time>2026-04-19T13:17:46.981Z</time></trkpt><trkpt lat="44.77726775421575" lon="1.1190130117509511"><ele>254.0</ele><time>2026-04-19T13:17:47.981Z</time></trkpt><trkpt lat="44.777305578258435" lon="1.1188812835862907"><ele>254.75</ele><time>2026-04-19T13:17:48.981Z</time></trkpt><trkpt lat="44.77735389894906" lon="1.1187361841585517"><ele>255.5</ele><time>2026-04-19T13:17:49.978Z</time></trkpt><trkpt lat="44.77741284372151" lon="1.1185733603775116"><ele>256.25</ele><time>2026-04-19T13:17:50.978Z</time></trkpt><trkpt lat="44.777476004332726" lon="1.1183932731343689"><ele>257.0</ele><time>2026-04-19T13:17:51.978Z</time></trkpt><trkpt lat="44.77753985245679" lon="1.1182064062450383"><ele>257.25</ele><time>2026-04-19T13:17:52.978Z</time></trkpt><trkpt lat="44.777613961010594" lon="1.1180431538786146"><ele>257.5</ele><time>2026-04-19T13:17:53.978Z</time></trkpt><trkpt lat="44.77767561805791" lon="1.117882756233366"><ele>257.75</ele><time>2026-04-19T13:17:54.978Z</time></trkpt><trkpt lat="44.77773928497722" lon="1.1177405604988597"><ele>258.0</ele><time>2026-04-19T13:17:55.978Z</time></trkpt><trkpt lat="44.777789865272155" lon="1.1175872308205863"><ele>258.0</ele><time>2026-04-19T13:17:56.978Z</time></trkpt><trkpt lat="44.777844306004575" lon="1.1174468170363638"><ele>258.0</ele><time>2026-04-19T13:17:57.978Z</time></trkpt><trkpt lat="44.77789773292561" lon="1.1173208916406105"><ele>258.0</ele><time>2026-04-19T13:17:58.978Z</time></trkpt><trkpt lat="44.77795157617425" lon="1.1172187376710256"><ele>258.0</ele><time>2026-04-19T13:17:59.978Z</time></trkpt><trkpt lat="44.77798673708444" lon="1.1171211503355583"><ele>258.0</ele><time>2026-04-19T13:18:00.978Z</time></trkpt><trkpt lat="44.77804567829934" lon="1.1170408516515191"><ele>259.0</ele><time>2026-04-19T13:18:01.978Z</time></trkpt><trkpt lat="44.77811307983788" lon="1.1169589258254033"><ele>260.0</ele><time>2026-04-19T13:18:02.977Z</time></trkpt><trkpt lat="44.77818477518156" lon="1.1168917954713353"><ele>261.0</ele><time>2026-04-19T13:18:03.977Z</time></trkpt><trkpt lat="44.77824230477922" lon="1.1167947140495353"><ele>262.0</ele><time>2026-04-19T13:18:04.977Z</time></trkpt><trkpt lat="44.77832078579071" lon="1.1167085873212375"><ele>263.0</ele><time>2026-04-19T13:18:05.977Z</time></trkpt><trkpt lat="44.778392973625905" lon="1.1166119215117407"><ele>263.4</ele><time>2026-04-19T13:18:06.977Z</time></trkpt><trkpt lat="44.77847169385027" lon="1.1165261143398215"><ele>263.8</ele><time>2026-04-19T13:18:07.978Z</time></trkpt><trkpt lat="44.77852836613232" lon="1.1164134717222352"><ele>264.2</ele><time>2026-04-19T13:18:08.978Z</time></trkpt><trkpt lat="44.77859956757999" lon="1.116317840252434"><ele>264.6</ele><time>2026-04-19T13:18:09.978Z</time></trkpt><trkpt lat="44.778658615405185" lon="1.116219144161294"><ele>265.0</ele><time>2026-04-19T13:18:10.978Z</time></trkpt><trkpt lat="44.77874118972782" lon="1.116132166590287"><ele>264.66666666666663</ele><time>2026-04-19T13:18:11.978Z</time></trkpt><trkpt lat="44.77880184779942" lon="1.11604135267751"><ele>264.3333333333333</ele><time>2026-04-19T13:18:12.978Z</time></trkpt><trkpt lat="44.77885194839611" lon="1.115940657746859"><ele>264.0</ele><time>2026-04-19T13:18:13.978Z</time></trkpt><trkpt lat="44.77890837425801" lon="1.1158469661067663"><ele>263.6666666666667</ele><time>2026-04-19T13:18:14.978Z</time></trkpt><trkpt lat="44.77896491034305" lon="1.1157609228141154"><ele>263.33333333333337</ele><time>2026-04-19T13:18:15.978Z</time></trkpt><trkpt lat="44.7790077873702" lon="1.1156811556927453"><ele>263.0</ele><time>2026-04-19T13:18:16.978Z</time></trkpt><trkpt lat="44.77907568534119" lon="1.1155484807208011"><ele>263.0</ele><time>2026-04-19T13:18:18.978Z</time></trkpt><trkpt lat="44.77911393681381" lon="1.115462598875469"><ele>263.0</ele><time>2026-04-19T13:18:20.979Z</time></trkpt><trkpt lat="44.77915592018895" lon="1.1153549503175295"><ele>263.0</ele><time>2026-04-19T13:18:22.979Z</time></trkpt><trkpt lat="44.77920132077619" lon="1.1152308152355013"><ele>263.0</ele><time>2026-04-19T13:18:24.979Z</time></trkpt><trkpt lat="44.77924767475865" lon="1.115115282660521"><ele>263.0</ele><time>2026-04-19T13:18:26.979Z</time></trkpt><trkpt lat="44.7792883293197" lon="1.1149990354398167"><ele>263.0</ele><time>2026-04-19T13:18:28.979Z</time></trkpt><trkpt lat="44.779367358340295" lon="1.1148833641834806"><ele>262.6666666666667</ele><time>2026-04-19T13:18:30.979Z</time></trkpt><trkpt lat="44.779442591963154" lon="1.114757568890956"><ele>262.33333333333337</ele><time>2026-04-19T13:18:32.979Z</time></trkpt><trkpt lat="44.77948962969179" lon="1.1146900810176856"><ele>262.0</ele><time>2026-04-19T13:18:33.979Z</time></trkpt><trkpt lat="44.77954521576965" lon="1.1146051118767644"><ele>261.6666666666667</ele><time>2026-04-19T13:18:34.979Z</time></trkpt><trkpt lat="44.7796036141462" lon="1.114507737937596"><ele>261.3333333333333</ele><time>2026-04-19T13:18:35.979Z</time></trkpt><trkpt lat="44.77965725131185" lon="1.114400694749668"><ele>261.0</ele><time>2026-04-19T13:18:36.979Z</time></trkpt><trkpt lat="44.77970175140353" lon="1.11428492084056"><ele>261.0</ele><time>2026-04-19T13:18:37.979Z</time></trkpt><trkpt lat="44.77975032888703" lon="1.1141745019029905"><ele>261.0</ele><time>2026-04-19T13:18:38.979Z</time></trkpt><trkpt lat="44.77980734281148" lon="1.114056025553922"><ele>261.0</ele><time>2026-04-19T13:18:39.979Z</time></trkpt><trkpt lat="44.77985267333772" lon="1.1139348294135616"><ele>261.0</ele><time>2026-04-19T13:18:40.979Z</time></trkpt><trkpt lat="44.77988890784614" lon="1.1137907756871268"><ele>261.0</ele><time>2026-04-19T13:18:41.979Z</time></trkpt><trkpt lat="44.77993888690171" lon="1.1136556161576332"><ele>261.40000000000003</ele><time>2026-04-19T13:18:42.979Z</time></trkpt><trkpt lat="44.7799822613599" lon="1.113527073753796"><ele>261.8</ele><time>2026-04-19T13:18:43.979Z</time></trkpt><trkpt lat="44.78003072371189" lon="1.1133883856995488"><ele>262.20000000000005</ele><time>2026-04-19T13:18:44.979Z</time></trkpt><trkpt lat="44.780084264937386" lon="1.1132491667991204"><ele>262.6</ele><time>2026-04-19T13:18:45.979Z</time></trkpt><trkpt lat="44.78012717794563" lon="1.1131120503175094"><ele>263.0</ele><time>2026-04-19T13:18:46.979Z</time></trkpt><trkpt lat="44.780182718520294" lon="1.1129808090132967"><ele>263.83333333333337</ele><time>2026-04-19T13:18:47.979Z</time></trkpt><trkpt lat="44.780234477108955" lon="1.1128559108393539"><ele>264.6666666666667</ele><time>2026-04-19T13:18:48.979Z</time></trkpt><trkpt lat="44.78029318346773" lon="1.1127594707021682"><ele>265.5</ele><time>2026-04-19T13:18:49.979Z</time></trkpt><trkpt lat="44.78035330406847" lon="1.112669936156325"><ele>266.3333333333333</ele><time>2026-04-19T13:18:50.98Z</time></trkpt><trkpt lat="44.78040587791221" lon="1.1126024369859178"><ele>267.16666666666663</ele><time>2026-04-19T13:18:51.98Z</time></trkpt><trkpt lat="44.78047731684491" lon="1.112517141381913"><ele>268.0</ele><time>2026-04-19T13:18:52.98Z</time></trkpt><trkpt lat="44.78054723121729" lon="1.1124342096210533"><ele>268.0</ele><time>2026-04-19T13:18:53.98Z</time></trkpt><trkpt lat="44.78059669326744" lon="1.1123342577361781"><ele>268.0</ele><time>2026-04-19T13:18:54.98Z</time></trkpt><trkpt lat="44.780643220565366" lon="1.1122565234267845"><ele>268.0</ele><time>2026-04-19T13:18:55.98Z</time></trkpt><trkpt lat="44.780678033800136" lon="1.112161162933515"><ele>268.0</ele><time>2026-04-19T13:18:56.98Z</time></trkpt><trkpt lat="44.78070942757755" lon="1.1120377887388357"><ele>268.0</ele><time>2026-04-19T13:18:57.98Z</time></trkpt><trkpt lat="44.78074115891752" lon="1.1119066564626396"><ele>268.0</ele><time>2026-04-19T13:18:58.98Z</time></trkpt><trkpt lat="44.78079269525182" lon="1.1117726169887414"><ele>268.0</ele><time>2026-04-19T13:18:59.98Z</time></trkpt><trkpt lat="44.78082668761934" lon="1.11161899245308"><ele>268.0</ele><time>2026-04-19T13:19:00.98Z</time></trkpt><trkpt lat="44.78085918006018" lon="1.1114673213672472"><ele>268.0</ele><time>2026-04-19T13:19:01.98Z</time></trkpt><trkpt lat="44.78089545942549" lon="1.1113287211969731"><ele>268.0</ele><time>2026-04-19T13:19:02.98Z</time></trkpt><trkpt lat="44.78094175055145" lon="1.1112075884241441"><ele>268.0</ele><time>2026-04-19T13:19:03.98Z</time></trkpt><trkpt lat="44.78101189376843" lon="1.111098534397579"><ele>269.0</ele><time>2026-04-19T13:19:04.98Z</time></trkpt><trkpt lat="44.78110535377202" lon="1.1110216699294553"><ele>270.0</ele><time>2026-04-19T13:19:05.98Z</time></trkpt><trkpt lat="44.781210774932745" lon="1.110981358402542"><ele>271.0</ele><time>2026-04-19T13:19:06.98Z</time></trkpt><trkpt lat="44.78132446336632" lon="1.1109669062517105"><ele>272.0</ele><time>2026-04-19T13:19:07.98Z</time></trkpt><trkpt lat="44.78145810986555" lon="1.1109859613090312"><ele>272.0</ele><time>2026-04-19T13:19:08.98Z</time></trkpt><trkpt lat="44.781580963588716" lon="1.1110057495824568"><ele>272.0</ele><time>2026-04-19T13:19:09.98Z</time></trkpt><trkpt lat="44.78175357095725" lon="1.1109615724198658"><ele>272.0</ele><time>2026-04-19T13:19:10.98Z</time></trkpt><trkpt lat="44.78188403916401" lon="1.1109312997176841"><ele>272.0</ele><time>2026-04-19T13:19:11.98Z</time></trkpt><trkpt lat="44.781963973877104" lon="1.1108675049589405"><ele>271.75</ele><time>2026-04-19T13:19:12.98Z</time></trkpt><trkpt lat="44.782047350467664" lon="1.110768565113348"><ele>271.5</ele><time>2026-04-19T13:19:13.98Z</time></trkpt><trkpt lat="44.78212533140697" lon="1.1106483875513198"><ele>271.25</ele><time>2026-04-19T13:19:14.98Z</time></trkpt><trkpt lat="44.78222171081065" lon="1.1104994934916887"><ele>271.0</ele><time>2026-04-19T13:19:15.98Z</time></trkpt><trkpt lat="44.78231818914933" lon="1.1103907126505745"><ele>271.0</ele><time>2026-04-19T13:19:16.98Z</time></trkpt><trkpt lat="44.78239206781578" lon="1.1102871837512043"><ele>271.0</ele><time>2026-04-19T13:19:17.98Z</time></trkpt><trkpt lat="44.78247806578174" lon="1.1102114760963377"><ele>271.0</ele><time>2026-04-19T13:19:18.98Z</time></trkpt><trkpt lat="44.782585163946486" lon="1.1102132558693112"><ele>271.0</ele><time>2026-04-19T13:19:19.98Z</time></trkpt><trkpt lat="44.78269113334426" lon="1.1102424427000226"><ele>271.0</ele><time>2026-04-19T13:19:20.98Z</time></trkpt><trkpt lat="44.78278675196624" lon="1.1102844009528352"><ele>270.25</ele><time>2026-04-19T13:19:21.98Z</time></trkpt><trkpt lat="44.782888470494434" lon="1.1103324563655605"><ele>269.5</ele><time>2026-04-19T13:19:22.98Z</time></trkpt><trkpt lat="44.783005243540835" lon="1.110403637507193"><ele>268.75</ele><time>2026-04-19T13:19:23.98Z</time></trkpt><trkpt lat="44.783104329062134" lon="1.1104899056141315"><ele>268.0</ele><time>2026-04-19T13:19:24.98Z</time></trkpt><trkpt lat="44.78322211888054" lon="1.1105856404682986"><ele>268.0</ele><time>2026-04-19T13:19:25.98Z</time></trkpt><trkpt lat="44.78333772170886" lon="1.1106699319442648"><ele>268.0</ele><time>2026-04-19T13:19:26.98Z</time></trkpt><trkpt lat="44.7834552153392" lon="1.1107334309177945"><ele>268.0</ele><time>2026-04-19T13:19:27.98Z</time></trkpt><trkpt lat="44.783582439970246" lon="1.110769545191875"><ele>268.0</ele><time>2026-04-19T13:19:28.98Z</time></trkpt><trkpt lat="44.78371707338973" lon="1.1107846095334704"><ele>266.5</ele><time>2026-04-19T13:19:29.98Z</time></trkpt><trkpt lat="44.783846956294575" lon="1.1107813527733004"><ele>265.0</ele><time>2026-04-19T13:19:30.98Z</time></trkpt><trkpt lat="44.78397828945631" lon="1.1107477793834997"><ele>263.5</ele><time>2026-04-19T13:19:31.98Z</time></trkpt><trkpt lat="44.7840983007773" lon="1.1106980215417512"><ele>262.0</ele><time>2026-04-19T13:19:32.98Z</time></trkpt><trkpt lat="44.784250993382805" lon="1.110598722469173"><ele>260.4</ele><time>2026-04-19T13:19:33.98Z</time></trkpt><trkpt lat="44.78437826134178" lon="1.1105485917209421"><ele>258.79999999999995</ele><time>2026-04-19T13:19:34.981Z</time></trkpt><trkpt lat="44.784465250823125" lon="1.1104965659848791"><ele>257.2</ele><time>2026-04-19T13:19:35.981Z</time></trkpt><trkpt lat="44.784561252536285" lon="1.110453376224964"><ele>255.6</ele><time>2026-04-19T13:19:36.981Z</time></trkpt><trkpt lat="44.78464085928323" lon="1.1103773880120522"><ele>254.0</ele><time>2026-04-19T13:19:37.981Z</time></trkpt><trkpt lat="44.784722366603106" lon="1.1102915818039982"><ele>254.0</ele><time>2026-04-19T13:19:38.981Z</time></trkpt><trkpt lat="44.78480343507444" lon="1.1102139178315553"><ele>253.99999999999997</ele><time>2026-04-19T13:19:39.981Z</time></trkpt><trkpt lat="44.784883972072905" lon="1.110141733353197"><ele>253.99999999999997</ele><time>2026-04-19T13:19:40.981Z</time></trkpt><trkpt lat="44.78494258924937" lon="1.1100763275590133"><ele>254.0</ele><time>2026-04-19T13:19:41.981Z</time></trkpt><trkpt lat="44.78501840854535" lon="1.1099389449481747"><ele>254.0</ele><time>2026-04-19T13:19:43.981Z</time></trkpt><trkpt lat="44.78503426369939" lon="1.1098522201616448"><ele>253.16666666666669</ele><time>2026-04-19T13:19:44.981Z</time></trkpt><trkpt lat="44.78498884294682" lon="1.109761720400243"><ele>252.33333333333334</ele><time>2026-04-19T13:19:45.981Z</time></trkpt><trkpt lat="44.784952360929836" lon="1.1096640742267976"><ele>251.5</ele><time>2026-04-19T13:19:46.981Z</time></trkpt><trkpt lat="44.784878770797256" lon="1.1095961711955433"><ele>250.66666666666669</ele><time>2026-04-19T13:19:47.981Z</time></trkpt><trkpt lat="44.784797690785986" lon="1.109493464424315"><ele>249.83333333333334</ele><time>2026-04-19T13:19:48.981Z</time></trkpt><trkpt lat="44.78472967461313" lon="1.1094140541761677"><ele>249.0</ele><time>2026-04-19T13:19:49.981Z</time></trkpt><trkpt lat="44.7846620935307" lon="1.1093232719601722"><ele>249.0</ele><time>2026-04-19T13:19:50.981Z</time></trkpt><trkpt lat="44.784576775646535" lon="1.1092116144072965"><ele>249.0</ele><time>2026-04-19T13:19:51.981Z</time></trkpt><trkpt lat="44.784520114237566" lon="1.1090546807689028"><ele>249.0</ele><time>2026-04-19T13:19:52.981Z</time></trkpt><trkpt lat="44.78446860031055" lon="1.1088987620535746"><ele>249.0</ele><time>2026-04-19T13:19:53.981Z</time></trkpt><trkpt lat="44.78442865979576" lon="1.1087434331938333"><ele>249.75</ele><time>2026-04-19T13:19:54.981Z</time></trkpt><trkpt lat="44.78441001737471" lon="1.1085945689243122"><ele>250.5</ele><time>2026-04-19T13:19:55.977Z</time></trkpt><trkpt lat="44.784400371068934" lon="1.1084235967522569"><ele>251.25</ele><time>2026-04-19T13:19:56.978Z</time></trkpt><trkpt lat="44.784408573533966" lon="1.1082424585441022"><ele>252.0</ele><time>2026-04-19T13:19:57.978Z</time></trkpt><trkpt lat="44.78443340028079" lon="1.1080294804563602"><ele>252.0</ele><time>2026-04-19T13:19:58.978Z</time></trkpt><trkpt lat="44.78445608556121" lon="1.1078580618314298"><ele>252.0</ele><time>2026-04-19T13:19:59.978Z</time></trkpt><trkpt lat="44.784485219948635" lon="1.1077092173905883"><ele>252.0</ele><time>2026-04-19T13:20:00.978Z</time></trkpt><trkpt lat="44.78451083956938" lon="1.1075398391953224"><ele>252.0</ele><time>2026-04-19T13:20:01.977Z</time></trkpt><trkpt lat="44.784554977090124" lon="1.1073687417450295"><ele>253.0</ele><time>2026-04-19T13:20:02.977Z</time></trkpt><trkpt lat="44.78457687609861" lon="1.1071902352274596"><ele>254.0</ele><time>2026-04-19T13:20:03.977Z</time></trkpt><trkpt lat="44.78458330788024" lon="1.1070245128871825"><ele>255.0</ele><time>2026-04-19T13:20:04.978Z</time></trkpt><trkpt lat="44.784611123641845" lon="1.106842528627805"><ele>256.0</ele><time>2026-04-19T13:20:05.977Z</time></trkpt><trkpt lat="44.78465053571648" lon="1.106689378920325"><ele>256.0</ele><time>2026-04-19T13:20:06.977Z</time></trkpt><trkpt lat="44.784672928177486" lon="1.1065815319809742"><ele>256.0</ele><time>2026-04-19T13:20:07.977Z</time></trkpt><trkpt lat="44.784698998033186" lon="1.1064167750308103"><ele>256.0</ele><time>2026-04-19T13:20:08.977Z</time></trkpt><trkpt lat="44.7847864675503" lon="1.106211289943103"><ele>256.0</ele><time>2026-04-19T13:20:09.977Z</time></trkpt><trkpt lat="44.78488329391134" lon="1.1060865604729893"><ele>258.3333333333333</ele><time>2026-04-19T13:20:10.977Z</time></trkpt><trkpt lat="44.78496815515431" lon="1.105897112685774"><ele>260.6666666666667</ele><time>2026-04-19T13:20:11.977Z</time></trkpt><trkpt lat="44.785007427338066" lon="1.1056983003227696"><ele>263.0</ele><time>2026-04-19T13:20:12.977Z</time></trkpt><trkpt lat="44.78505683763417" lon="1.1055042742779853"><ele>263.75</ele><time>2026-04-19T13:20:13.977Z</time></trkpt><trkpt lat="44.78508510019404" lon="1.1053047818991557"><ele>264.5</ele><time>2026-04-19T13:20:14.977Z</time></trkpt><trkpt lat="44.78509622282783" lon="1.1050995094191158"><ele>265.25</ele><time>2026-04-19T13:20:15.977Z</time></trkpt><trkpt lat="44.785131557033466" lon="1.1049187809436118"><ele>266.0</ele><time>2026-04-19T13:20:16.977Z</time></trkpt><trkpt lat="44.78519341925106" lon="1.1047760794945054"><ele>266.0</ele><time>2026-04-19T13:20:17.977Z</time></trkpt><trkpt lat="44.785284952428874" lon="1.1046577592635947"><ele>266.0</ele><time>2026-04-19T13:20:18.977Z</time></trkpt><trkpt lat="44.785404289492256" lon="1.1045553126040488"><ele>266.0</ele><time>2026-04-19T13:20:19.977Z</time></trkpt><trkpt lat="44.785534458385214" lon="1.1044535904621489"><ele>266.0</ele><time>2026-04-19T13:20:20.977Z</time></trkpt><trkpt lat="44.785660685803" lon="1.1043519870057654"><ele>266.0</ele><time>2026-04-19T13:20:21.977Z</time></trkpt><trkpt lat="44.785794716506956" lon="1.1042636886084016"><ele>266.0</ele><time>2026-04-19T13:20:22.978Z</time></trkpt><trkpt lat="44.785939613567244" lon="1.104271237402636"><ele>266.0</ele><time>2026-04-19T13:20:23.978Z</time></trkpt><trkpt lat="44.786082327409105" lon="1.1042649673619613"><ele>266.0</ele><time>2026-04-19T13:20:24.978Z</time></trkpt><trkpt lat="44.78621582520821" lon="1.1042424420088335"><ele>265.5</ele><time>2026-04-19T13:20:25.978Z</time></trkpt><trkpt lat="44.786338054946285" lon="1.1041554687585875"><ele>265.0</ele><time>2026-04-19T13:20:26.978Z</time></trkpt><trkpt lat="44.786451906774225" lon="1.104023131325143"><ele>264.5</ele><time>2026-04-19T13:20:27.978Z</time></trkpt><trkpt lat="44.78657282746783" lon="1.1038938198888752"><ele>264.0</ele><time>2026-04-19T13:20:28.978Z</time></trkpt><trkpt lat="44.78666967400551" lon="1.103781177671804"><ele>262.75</ele><time>2026-04-19T13:20:29.978Z</time></trkpt><trkpt lat="44.78676400122496" lon="1.1036718465997013"><ele>261.5</ele><time>2026-04-19T13:20:30.978Z</time></trkpt><trkpt lat="44.7868770337965" lon="1.1035738040547594"><ele>260.25</ele><time>2026-04-19T13:20:31.978Z</time></trkpt><trkpt lat="44.78698068942283" lon="1.1034917090433927"><ele>259.0</ele><time>2026-04-19T13:20:32.978Z</time></trkpt><trkpt lat="44.78709904652156" lon="1.1034176328982614"><ele>259.0</ele><time>2026-04-19T13:20:33.978Z</time></trkpt><trkpt lat="44.78724133490227" lon="1.1033584058066173"><ele>259.0</ele><time>2026-04-19T13:20:34.978Z</time></trkpt><trkpt lat="44.78738062152755" lon="1.1032976192484145"><ele>259.0</ele><time>2026-04-19T13:20:35.978Z</time></trkpt><trkpt lat="44.78749838375626" lon="1.1032147613035292"><ele>259.0</ele><time>2026-04-19T13:20:36.978Z</time></trkpt><trkpt lat="44.78761138724682" lon="1.103117660087261"><ele>257.25</ele><time>2026-04-19T13:20:37.978Z</time></trkpt><trkpt lat="44.787709456916986" lon="1.1030130632467685"><ele>255.5</ele><time>2026-04-19T13:20:38.978Z</time></trkpt><trkpt lat="44.78780298255484" lon="1.1029130010511772"><ele>253.75</ele><time>2026-04-19T13:20:39.978Z</time></trkpt><trkpt lat="44.78789101359259" lon="1.1028372213378617"><ele>252.0</ele><time>2026-04-19T13:20:40.978Z</time></trkpt><trkpt lat="44.78799743716513" lon="1.1027867364119601"><ele>252.0</ele><time>2026-04-19T13:20:41.978Z</time></trkpt><trkpt lat="44.78808922561924" lon="1.1027936498226159"><ele>252.0</ele><time>2026-04-19T13:20:42.978Z</time></trkpt><trkpt lat="44.788173505351885" lon="1.1027812226475213"><ele>252.0</ele><time>2026-04-19T13:20:43.978Z</time></trkpt><trkpt lat="44.788248951762895" lon="1.1027866728586084"><ele>252.0</ele><time>2026-04-19T13:20:44.978Z</time></trkpt><trkpt lat="44.788386376233994" lon="1.1028409486473132"><ele>252.0</ele><time>2026-04-19T13:20:46.978Z</time></trkpt><trkpt lat="44.788467490790005" lon="1.102917558768093"><ele>251.25</ele><time>2026-04-19T13:20:47.978Z</time></trkpt><trkpt lat="44.7885592308543" lon="1.1030048774706167"><ele>250.5</ele><time>2026-04-19T13:20:48.978Z</time></trkpt><trkpt lat="44.788660109968596" lon="1.1031118504087993"><ele>249.75</ele><time>2026-04-19T13:20:49.978Z</time></trkpt><trkpt lat="44.78878328734325" lon="1.1032160476276898"><ele>249.0</ele><time>2026-04-19T13:20:50.978Z</time></trkpt><trkpt lat="44.78891346970974" lon="1.103313640345116"><ele>249.0</ele><time>2026-04-19T13:20:51.978Z</time></trkpt><trkpt lat="44.78905171809144" lon="1.1034033116080932"><ele>249.0</ele><time>2026-04-19T13:20:52.978Z</time></trkpt><trkpt lat="44.78920342236452" lon="1.103496545551922"><ele>249.0</ele><time>2026-04-19T13:20:53.978Z</time></trkpt><trkpt lat="44.78935677038167" lon="1.1035547704399624"><ele>248.5</ele><time>2026-04-19T13:20:54.978Z</time></trkpt><trkpt lat="44.789489376258224" lon="1.1036147433497254"><ele>248.0</ele><time>2026-04-19T13:20:55.978Z</time></trkpt><trkpt lat="44.78962181714482" lon="1.1036368883115122"><ele>247.5</ele><time>2026-04-19T13:20:56.978Z</time></trkpt><trkpt lat="44.78975131036576" lon="1.103603287164285"><ele>247.0</ele><time>2026-04-19T13:20:57.978Z</time></trkpt><trkpt lat="44.78987714552776" lon="1.1035275887873173"><ele>247.0</ele><time>2026-04-19T13:20:58.978Z</time></trkpt><trkpt lat="44.78999955578631" lon="1.103436803322103"><ele>247.0</ele><time>2026-04-19T13:20:59.978Z</time></trkpt><trkpt lat="44.790117052245314" lon="1.1033756081596944"><ele>247.0</ele><time>2026-04-19T13:21:00.978Z</time></trkpt><trkpt lat="44.79022257669784" lon="1.103324450584484"><ele>247.0</ele><time>2026-04-19T13:21:01.978Z</time></trkpt><trkpt lat="44.79033935973523" lon="1.1033067072352432"><ele>248.25</ele><time>2026-04-19T13:21:02.978Z</time></trkpt><trkpt lat="44.79047094012345" lon="1.1033088648945806"><ele>249.5</ele><time>2026-04-19T13:21:03.978Z</time></trkpt><trkpt lat="44.79060228495891" lon="1.1033253742232123"><ele>250.75</ele><time>2026-04-19T13:21:04.978Z</time></trkpt><trkpt lat="44.790740470413105" lon="1.1033483205006365"><ele>252.0</ele><time>2026-04-19T13:21:05.978Z</time></trkpt><trkpt lat="44.79087010589322" lon="1.1033681799404311"><ele>252.0</ele><time>2026-04-19T13:21:06.979Z</time></trkpt><trkpt lat="44.79096740734408" lon="1.103382123244654"><ele>252.0</ele><time>2026-04-19T13:21:07.979Z</time></trkpt><trkpt lat="44.79105485788166" lon="1.103374906668722"><ele>252.0</ele><time>2026-04-19T13:21:08.979Z</time></trkpt><trkpt lat="44.791144679388786" lon="1.1034070174530262"><ele>252.0</ele><time>2026-04-19T13:21:09.979Z</time></trkpt><trkpt lat="44.79122525943534" lon="1.1034161797182136"><ele>252.0</ele><time>2026-04-19T13:21:10.979Z</time></trkpt><trkpt lat="44.79132954074088" lon="1.1034254148402594"><ele>252.39999999999998</ele><time>2026-04-19T13:21:12.979Z</time></trkpt><trkpt lat="44.79140560190171" lon="1.1034290353726803"><ele>252.79999999999998</ele><time>2026-04-19T13:21:16.979Z</time></trkpt><trkpt lat="44.79148891188177" lon="1.1033021812767014"><ele>253.2</ele><time>2026-04-19T13:21:18.979Z</time></trkpt><trkpt lat="44.79155463031246" lon="1.1031799574747227"><ele>253.6</ele><time>2026-04-19T13:21:19.979Z</time></trkpt><trkpt lat="44.791627576035474" lon="1.1030545622235561"><ele>254.0</ele><time>2026-04-19T13:21:20.979Z</time></trkpt><trkpt lat="44.7917243842862" lon="1.1029044997287911"><ele>253.5</ele><time>2026-04-19T13:21:21.979Z</time></trkpt><trkpt lat="44.791816242660985" lon="1.1027624733281776"><ele>253.0</ele><time>2026-04-19T13:21:22.979Z</time></trkpt><trkpt lat="44.791921907197285" lon="1.1026036899273322"><ele>252.5</ele><time>2026-04-19T13:21:23.979Z</time></trkpt><trkpt lat="44.79201660691823" lon="1.1024703249137433"><ele>252.0</ele><time>2026-04-19T13:21:24.979Z</time></trkpt><trkpt lat="44.79211788549604" lon="1.1022972094216843"><ele>252.0</ele><time>2026-04-19T13:21:25.979Z</time></trkpt><trkpt lat="44.792215090766874" lon="1.1021013059280194"><ele>252.0</ele><time>2026-04-19T13:21:26.979Z</time></trkpt><trkpt lat="44.792313069083065" lon="1.1018903238430793"><ele>252.0</ele><time>2026-04-19T13:21:27.979Z</time></trkpt><trkpt lat="44.79239983197993" lon="1.1016415366000416"><ele>251.33333333333331</ele><time>2026-04-19T13:21:28.979Z</time></trkpt><trkpt lat="44.792479361554676" lon="1.1014085214241465"><ele>250.66666666666666</ele><time>2026-04-19T13:21:29.979Z</time></trkpt><trkpt lat="44.79255586962982" lon="1.1011769376275362"><ele>250.0</ele><time>2026-04-19T13:21:30.979Z</time></trkpt><trkpt lat="44.792648416746786" lon="1.100944159439779"><ele>248.66666666666666</ele><time>2026-04-19T13:21:31.979Z</time></trkpt><trkpt lat="44.79275049643932" lon="1.1007306390052116"><ele>247.33333333333331</ele><time>2026-04-19T13:21:32.979Z</time></trkpt><trkpt lat="44.79286196899042" lon="1.1005433742627344"><ele>246.0</ele><time>2026-04-19T13:21:33.979Z</time></trkpt><trkpt lat="44.79302410781728" lon="1.1003668702360747"><ele>246.0</ele><time>2026-04-19T13:21:34.979Z</time></trkpt><trkpt lat="44.793199267738316" lon="1.1002019634286653"><ele>246.0</ele><time>2026-04-19T13:21:35.979Z</time></trkpt><trkpt lat="44.79337254380704" lon="1.100049184550749"><ele>246.0</ele><time>2026-04-19T13:21:36.979Z</time></trkpt><trkpt lat="44.79356490951721" lon="1.0999087340555962"><ele>247.0</ele><time>2026-04-19T13:21:37.979Z</time></trkpt><trkpt lat="44.79374963016039" lon="1.099781843624042"><ele>248.0</ele><time>2026-04-19T13:21:38.979Z</time></trkpt><trkpt lat="44.793949433008095" lon="1.099674358666587"><ele>249.0</ele><time>2026-04-19T13:21:39.979Z</time></trkpt><trkpt lat="44.79414419631404" lon="1.099585237916546"><ele>249.0</ele><time>2026-04-19T13:21:40.979Z</time></trkpt><trkpt lat="44.794327278594736" lon="1.099507625098825"><ele>249.0</ele><time>2026-04-19T13:21:41.979Z</time></trkpt><trkpt lat="44.79448402671968" lon="1.0994271752984608"><ele>249.0</ele><time>2026-04-19T13:21:42.979Z</time></trkpt><trkpt lat="44.79462122703736" lon="1.0993635743415482"><ele>249.75</ele><time>2026-04-19T13:21:43.979Z</time></trkpt><trkpt lat="44.79475408563433" lon="1.0992892976493893"><ele>250.5</ele><time>2026-04-19T13:21:44.979Z</time></trkpt><trkpt lat="44.79487835910576" lon="1.0992152682044978"><ele>251.25</ele><time>2026-04-19T13:21:45.979Z</time></trkpt><trkpt lat="44.794977146060944" lon="1.09913470706314"><ele>252.0</ele><time>2026-04-19T13:21:46.979Z</time></trkpt><trkpt lat="44.79506028571392" lon="1.0990188248060317"><ele>252.0</ele><time>2026-04-19T13:21:47.979Z</time></trkpt><trkpt lat="44.795120015694025" lon="1.098887599210126"><ele>252.0</ele><time>2026-04-19T13:21:48.979Z</time></trkpt><trkpt lat="44.79515222926273" lon="1.0987336377372954"><ele>252.0</ele><time>2026-04-19T13:21:49.979Z</time></trkpt><trkpt lat="44.795159599773655" lon="1.0985622165236542"><ele>252.0</ele><time>2026-04-19T13:21:50.98Z</time></trkpt><trkpt lat="44.79513665630476" lon="1.0983820329321907"><ele>250.0</ele><time>2026-04-19T13:21:51.98Z</time></trkpt><trkpt lat="44.79508085689778" lon="1.0981987815204926"><ele>248.0</ele><time>2026-04-19T13:21:52.98Z</time></trkpt><trkpt lat="44.79500251134496" lon="1.0979947764215956"><ele>246.0</ele><time>2026-04-19T13:21:53.98Z</time></trkpt><trkpt lat="44.79491033216759" lon="1.0978206028689883"><ele>246.0</ele><time>2026-04-19T13:21:54.98Z</time></trkpt><trkpt lat="44.79485077626427" lon="1.0976762531662299"><ele>246.00000000000003</ele><time>2026-04-19T13:21:55.98Z</time></trkpt><trkpt lat="44.79482882600377" lon="1.0975634068399407"><ele>246.00000000000003</ele><time>2026-04-19T13:21:56.98Z</time></trkpt><trkpt lat="44.794819781986405" lon="1.097424303842954"><ele>246.0</ele><time>2026-04-19T13:21:57.98Z</time></trkpt><trkpt lat="44.794877049864354" lon="1.0972525560421496"><ele>246.0</ele><time>2026-04-19T13:21:58.98Z</time></trkpt><trkpt lat="44.79495984918131" lon="1.097090915122747"><ele>247.25</ele><time>2026-04-19T13:21:59.98Z</time></trkpt><trkpt lat="44.79505174306454" lon="1.0969371236434402"><ele>248.5</ele><time>2026-04-19T13:22:00.98Z</time></trkpt><trkpt lat="44.79513157111246" lon="1.0968283104972558"><ele>249.75</ele><time>2026-04-19T13:22:01.976Z</time></trkpt><trkpt lat="44.79522795407783" lon="1.0967303830274233"><ele>251.0</ele><time>2026-04-19T13:22:02.976Z</time></trkpt><trkpt lat="44.79529893972337" lon="1.096631728690998"><ele>248.5</ele><time>2026-04-19T13:22:03.976Z</time></trkpt><trkpt lat="44.79531886455702" lon="1.0964619847749242"><ele>246.0</ele><time>2026-04-19T13:22:04.976Z</time></trkpt><trkpt lat="44.79531886254935" lon="1.0962782404203226"><ele>243.5</ele><time>2026-04-19T13:22:05.976Z</time></trkpt><trkpt lat="44.7953036703139" lon="1.0960814424940735"><ele>241.0</ele><time>2026-04-19T13:22:06.976Z</time></trkpt><trkpt lat="44.795310266447885" lon="1.0958784081076072"><ele>237.5</ele><time>2026-04-19T13:22:07.976Z</time></trkpt><trkpt lat="44.795366549633805" lon="1.0956978469511243"><ele>234.0</ele><time>2026-04-19T13:22:08.976Z</time></trkpt><trkpt lat="44.79543781068708" lon="1.0955709642399531"><ele>230.5</ele><time>2026-04-19T13:22:09.976Z</time></trkpt><trkpt lat="44.79551947734965" lon="1.095427859483089"><ele>227.0</ele><time>2026-04-19T13:22:10.976Z</time></trkpt><trkpt lat="44.795628858656286" lon="1.0953504812372925"><ele>227.0</ele><time>2026-04-19T13:22:11.976Z</time></trkpt><trkpt lat="44.79571127879545" lon="1.0953196917639567"><ele>227.0</ele><time>2026-04-19T13:22:12.976Z</time></trkpt><trkpt lat="44.795805139905895" lon="1.0953623416481688"><ele>227.0</ele><time>2026-04-19T13:22:13.976Z</time></trkpt><trkpt lat="44.79588069135858" lon="1.0954355050560087"><ele>227.0</ele><time>2026-04-19T13:22:14.975Z</time></trkpt><trkpt lat="44.79594716731875" lon="1.0955213957955792"><ele>227.0</ele><time>2026-04-19T13:22:15.975Z</time></trkpt><trkpt lat="44.79603446555927" lon="1.095603670865999"><ele>226.0</ele><time>2026-04-19T13:22:16.975Z</time></trkpt><trkpt lat="44.79612924464492" lon="1.0956807575776706"><ele>225.0</ele><time>2026-04-19T13:22:17.975Z</time></trkpt><trkpt lat="44.796254169777384" lon="1.0957700592694934"><ele>224.0</ele><time>2026-04-19T13:22:18.975Z</time></trkpt><trkpt lat="44.79635389033323" lon="1.0958421830888883"><ele>223.0</ele><time>2026-04-19T13:22:19.975Z</time></trkpt><trkpt lat="44.79645158635496" lon="1.0958652411109213"><ele>223.5</ele><time>2026-04-19T13:22:20.975Z</time></trkpt><trkpt lat="44.79657918581643" lon="1.0958623244623262"><ele>224.0</ele><time>2026-04-19T13:22:21.975Z</time></trkpt><trkpt lat="44.796713011794466" lon="1.095837534492955"><ele>224.5</ele><time>2026-04-19T13:22:22.975Z</time></trkpt><trkpt lat="44.79685297352324" lon="1.0957949297094003"><ele>225.0</ele><time>2026-04-19T13:22:23.976Z</time></trkpt><trkpt lat="44.79698979250299" lon="1.095754164017393"><ele>225.75</ele><time>2026-04-19T13:22:24.976Z</time></trkpt><trkpt lat="44.79712949221783" lon="1.0957131805039892"><ele>226.5</ele><time>2026-04-19T13:22:25.976Z</time></trkpt><trkpt lat="44.79725766324193" lon="1.0956774795235358"><ele>227.25</ele><time>2026-04-19T13:22:26.976Z</time></trkpt><trkpt lat="44.797387639775835" lon="1.0956541567193303"><ele>228.0</ele><time>2026-04-19T13:22:27.976Z</time></trkpt><trkpt lat="44.79752878503819" lon="1.095639902932084"><ele>228.0</ele><time>2026-04-19T13:22:28.976Z</time></trkpt><trkpt lat="44.79766930577077" lon="1.0956351570012126"><ele>228.0</ele><time>2026-04-19T13:22:29.976Z</time></trkpt><trkpt lat="44.79780360115189" lon="1.0956273346207948"><ele>228.0</ele><time>2026-04-19T13:22:30.976Z</time></trkpt><trkpt lat="44.79793656112085" lon="1.095603353815546"><ele>228.0</ele><time>2026-04-19T13:22:31.976Z</time></trkpt><trkpt lat="44.79804952408418" lon="1.095563877142081"><ele>228.0</ele><time>2026-04-19T13:22:32.976Z</time></trkpt><trkpt lat="44.79815962141249" lon="1.095509490666307"><ele>228.0</ele><time>2026-04-19T13:22:33.976Z</time></trkpt><trkpt lat="44.79827498651752" lon="1.0954408100627733"><ele>228.0</ele><time>2026-04-19T13:22:34.976Z</time></trkpt><trkpt lat="44.79838190543679" lon="1.0953862838729023"><ele>228.0</ele><time>2026-04-19T13:22:35.976Z</time></trkpt><trkpt lat="44.79848325024049" lon="1.0952647167187697"><ele>224.25</ele><time>2026-04-19T13:22:36.976Z</time></trkpt><trkpt lat="44.798599585420085" lon="1.0951550043309792"><ele>220.5</ele><time>2026-04-19T13:22:37.976Z</time></trkpt><trkpt lat="44.79868940633801" lon="1.0950324846598625"><ele>216.75</ele><time>2026-04-19T13:22:38.976Z</time></trkpt><trkpt lat="44.798781635369075" lon="1.094878584421709"><ele>213.0</ele><time>2026-04-19T13:22:39.976Z</time></trkpt><trkpt lat="44.79885707374671" lon="1.094722935651269"><ele>213.0</ele><time>2026-04-19T13:22:40.976Z</time></trkpt><trkpt lat="44.79893049223859" lon="1.0945452026947824"><ele>213.0</ele><time>2026-04-19T13:22:41.976Z</time></trkpt><trkpt lat="44.79898907569695" lon="1.0943658104459792"><ele>213.0</ele><time>2026-04-19T13:22:42.976Z</time></trkpt><trkpt lat="44.79903837758199" lon="1.094192336673446"><ele>213.0</ele><time>2026-04-19T13:22:43.976Z</time></trkpt><trkpt lat="44.79907309681839" lon="1.094018287188721"><ele>213.0</ele><time>2026-04-19T13:22:44.976Z</time></trkpt><trkpt lat="44.79908960148951" lon="1.0938340778469464"><ele>213.0</ele><time>2026-04-19T13:22:45.976Z</time></trkpt><trkpt lat="44.79907929079321" lon="1.0936195514815414"><ele>213.0</ele><time>2026-04-19T13:22:46.976Z</time></trkpt><trkpt lat="44.79905257749281" lon="1.0933965357412296"><ele>213.0</ele><time>2026-04-19T13:22:47.976Z</time></trkpt><trkpt lat="44.79905362370429" lon="1.0931812863905168"><ele>213.25</ele><time>2026-04-19T13:22:48.976Z</time></trkpt><trkpt lat="44.799082642036936" lon="1.0929994046722757"><ele>213.5</ele><time>2026-04-19T13:22:49.976Z</time></trkpt><trkpt lat="44.79913853165155" lon="1.0928094509742605"><ele>213.75</ele><time>2026-04-19T13:22:50.976Z</time></trkpt><trkpt lat="44.79919807339502" lon="1.0926251362497534"><ele>214.0</ele><time>2026-04-19T13:22:51.976Z</time></trkpt><trkpt lat="44.799249852520404" lon="1.0924397644576713"><ele>214.25</ele><time>2026-04-19T13:22:52.976Z</time></trkpt><trkpt lat="44.79927075871976" lon="1.092232826352298"><ele>214.5</ele><time>2026-04-19T13:22:53.976Z</time></trkpt><trkpt lat="44.799269279626884" lon="1.0920418819554434"><ele>214.75</ele><time>2026-04-19T13:22:54.976Z</time></trkpt><trkpt lat="44.79930810686583" lon="1.0918604221193338"><ele>215.0</ele><time>2026-04-19T13:22:55.976Z</time></trkpt><trkpt lat="44.79937626291049" lon="1.091688951603941"><ele>211.66666666666669</ele><time>2026-04-19T13:22:56.976Z</time></trkpt><trkpt lat="44.799468909342124" lon="1.0915287808533067"><ele>208.33333333333331</ele><time>2026-04-19T13:22:57.976Z</time></trkpt><trkpt lat="44.79958358171979" lon="1.0913428681539104"><ele>205.0</ele><time>2026-04-19T13:22:58.976Z</time></trkpt><trkpt lat="44.799696229699904" lon="1.0911411525782255"><ele>205.0</ele><time>2026-04-19T13:22:59.976Z</time></trkpt><trkpt lat="44.79981772639938" lon="1.0909398548412075"><ele>205.0</ele><time>2026-04-19T13:23:00.976Z</time></trkpt><trkpt lat="44.79994304761033" lon="1.0907381210868936"><ele>205.0</ele><time>2026-04-19T13:23:01.976Z</time></trkpt><trkpt lat="44.80007498738367" lon="1.0905489849570584"><ele>203.33333333333331</ele><time>2026-04-19T13:23:02.976Z</time></trkpt><trkpt lat="44.80020746944145" lon="1.0904021312381473"><ele>201.66666666666669</ele><time>2026-04-19T13:23:03.976Z</time></trkpt><trkpt lat="44.8003474636385" lon="1.090245466611768"><ele>200.0</ele><time>2026-04-19T13:23:04.976Z</time></trkpt><trkpt lat="44.80046959099104" lon="1.0900932139442234"><ele>200.0</ele><time>2026-04-19T13:23:05.976Z</time></trkpt><trkpt lat="44.800568902915174" lon="1.0899387559044893"><ele>200.0</ele><time>2026-04-19T13:23:06.977Z</time></trkpt><trkpt lat="44.80066145462045" lon="1.0898217214826804"><ele>200.0</ele><time>2026-04-19T13:23:07.977Z</time></trkpt><trkpt lat="44.80076808961123" lon="1.0897054886502966"><ele>200.0</ele><time>2026-04-19T13:23:08.977Z</time></trkpt><trkpt lat="44.800891127445254" lon="1.089607807992703"><ele>199.75</ele><time>2026-04-19T13:23:09.977Z</time></trkpt><trkpt lat="44.801013959190435" lon="1.0895371290248501"><ele>199.5</ele><time>2026-04-19T13:23:10.977Z</time></trkpt><trkpt lat="44.80115971327442" lon="1.0894855436389606"><ele>199.25</ele><time>2026-04-19T13:23:11.977Z</time></trkpt><trkpt lat="44.801314832377756" lon="1.089449950884757"><ele>199.0</ele><time>2026-04-19T13:23:12.977Z</time></trkpt><trkpt lat="44.80146467463986" lon="1.089419638286365"><ele>199.0</ele><time>2026-04-19T13:23:13.977Z</time></trkpt><trkpt lat="44.801606069112864" lon="1.089393599666937"><ele>199.0</ele><time>2026-04-19T13:23:14.977Z</time></trkpt><trkpt lat="44.80174496084265" lon="1.0893717474140787"><ele>199.0</ele><time>2026-04-19T13:23:15.977Z</time></trkpt><trkpt lat="44.80186738203883" lon="1.0893503424789732"><ele>199.0</ele><time>2026-04-19T13:23:16.977Z</time></trkpt><trkpt lat="44.80197870256466" lon="1.0893284531418743"><ele>197.39999999999998</ele><time>2026-04-19T13:23:17.977Z</time></trkpt><trkpt lat="44.80207969652391" lon="1.0892945802212712"><ele>195.8</ele><time>2026-04-19T13:23:18.977Z</time></trkpt><trkpt lat="44.80217686793178" lon="1.0892260664189115"><ele>194.2</ele><time>2026-04-19T13:23:19.977Z</time></trkpt><trkpt lat="44.8022567800773" lon="1.0891141204073111"><ele>192.60000000000002</ele><time>2026-04-19T13:23:20.977Z</time></trkpt><trkpt lat="44.802310228806306" lon="1.0889744386867293"><ele>191.0</ele><time>2026-04-19T13:23:21.977Z</time></trkpt><trkpt lat="44.8023493446004" lon="1.088835186211354"><ele>191.0</ele><time>2026-04-19T13:23:22.977Z</time></trkpt><trkpt lat="44.80236235774748" lon="1.0886990066377569"><ele>191.0</ele><time>2026-04-19T13:23:23.977Z</time></trkpt><trkpt lat="44.802360392056386" lon="1.0885497750058666"><ele>191.0</ele><time>2026-04-19T13:23:24.977Z</time></trkpt><trkpt lat="44.80239145708161" lon="1.0884103169298305"><ele>191.0</ele><time>2026-04-19T13:23:25.977Z</time></trkpt><trkpt lat="44.80243317041648" lon="1.088261617420404"><ele>191.0</ele><time>2026-04-19T13:23:26.977Z</time></trkpt><trkpt lat="44.80248512222361" lon="1.0881140069054855"><ele>191.25</ele><time>2026-04-19T13:23:27.977Z</time></trkpt><trkpt lat="44.80254411114849" lon="1.087956524258323"><ele>191.5</ele><time>2026-04-19T13:23:28.977Z</time></trkpt><trkpt lat="44.80261131571975" lon="1.0877904986195952"><ele>191.75</ele><time>2026-04-19T13:23:29.977Z</time></trkpt><trkpt lat="44.80268650277885" lon="1.0876140327689816"><ele>192.0</ele><time>2026-04-19T13:23:30.977Z</time></trkpt><trkpt lat="44.802738312308385" lon="1.0874457440578293"><ele>189.75</ele><time>2026-04-19T13:23:31.977Z</time></trkpt><trkpt lat="44.80282283024265" lon="1.087301681168751"><ele>187.5</ele><time>2026-04-19T13:23:32.977Z</time></trkpt><trkpt lat="44.802884052102975" lon="1.0871618620625212"><ele>185.25</ele><time>2026-04-19T13:23:33.977Z</time></trkpt><trkpt lat="44.80294571390178" lon="1.087035826686724"><ele>183.0</ele><time>2026-04-19T13:23:34.977Z</time></trkpt><trkpt lat="44.803015461888606" lon="1.0869129444566155"><ele>183.0</ele><time>2026-04-19T13:23:35.977Z</time></trkpt><trkpt lat="44.80309545820816" lon="1.0868007332565321"><ele>183.0</ele><time>2026-04-19T13:23:36.977Z</time></trkpt><trkpt lat="44.803185567733394" lon="1.0867342999573157"><ele>183.0</ele><time>2026-04-19T13:23:37.977Z</time></trkpt><trkpt lat="44.80327730247414" lon="1.08665666724832"><ele>183.0</ele><time>2026-04-19T13:23:38.977Z</time></trkpt><trkpt lat="44.80336780795188" lon="1.0866075111772875"><ele>183.0</ele><time>2026-04-19T13:23:39.977Z</time></trkpt><trkpt lat="44.80345990263828" lon="1.0865552465022217"><ele>182.16666666666666</ele><time>2026-04-19T13:23:40.977Z</time></trkpt><trkpt lat="44.80355633979579" lon="1.0865362517727424"><ele>181.33333333333334</ele><time>2026-04-19T13:23:41.977Z</time></trkpt><trkpt lat="44.803644062756106" lon="1.0865017105180874"><ele>180.5</ele><time>2026-04-19T13:23:42.977Z</time></trkpt><trkpt lat="44.803716890686125" lon="1.0864849076969398"><ele>179.66666666666669</ele><time>2026-04-19T13:23:43.977Z</time></trkpt><trkpt lat="44.80377656726868" lon="1.0864534350146486"><ele>178.83333333333334</ele><time>2026-04-19T13:23:44.977Z</time></trkpt><trkpt lat="44.80388036861841" lon="1.0864012759977675"><ele>178.0</ele><time>2026-04-19T13:23:46.977Z</time></trkpt><trkpt lat="44.80394416612388" lon="1.0863561981883476"><ele>178.0</ele><time>2026-04-19T13:23:48.977Z</time></trkpt><trkpt lat="44.80405173462976" lon="1.0863459944881628"><ele>178.0</ele><time>2026-04-19T13:23:51.978Z</time></trkpt><trkpt lat="44.80418308781177" lon="1.0863735471903373"><ele>178.0</ele><time>2026-04-19T13:23:53.978Z</time></trkpt><trkpt lat="44.804258019818064" lon="1.086389618924968"><ele>178.0</ele><time>2026-04-19T13:23:54.978Z</time></trkpt><trkpt lat="44.80433766596578" lon="1.0864130860152492"><ele>178.0</ele><time>2026-04-19T13:23:55.978Z</time></trkpt><trkpt lat="44.80440234745638" lon="1.0864333795322827"><ele>178.60000000000002</ele><time>2026-04-19T13:23:56.978Z</time></trkpt><trkpt lat="44.80452427336826" lon="1.0864711554145594"><ele>179.20000000000002</ele><time>2026-04-19T13:23:58.978Z</time></trkpt><trkpt lat="44.80464232252371" lon="1.0865072018480317"><ele>179.8</ele><time>2026-04-19T13:24:00.978Z</time></trkpt><trkpt lat="44.804716371837664" lon="1.086534210614123"><ele>180.4</ele><time>2026-04-19T13:24:01.978Z</time></trkpt><trkpt lat="44.804797074299714" lon="1.0865614765929201"><ele>181.0</ele><time>2026-04-19T13:24:02.978Z</time></trkpt><trkpt lat="44.804877384667314" lon="1.0865891266082326"><ele>180.20000000000002</ele><time>2026-04-19T13:24:03.978Z</time></trkpt><trkpt lat="44.804961779673675" lon="1.0866099819466577"><ele>179.4</ele><time>2026-04-19T13:24:04.978Z</time></trkpt><trkpt lat="44.80505024123419" lon="1.0866261075911023"><ele>178.6</ele><time>2026-04-19T13:24:05.978Z</time></trkpt><trkpt lat="44.8051330185622" lon="1.0866422479102782"><ele>177.8</ele><time>2026-04-19T13:24:06.978Z</time></trkpt><trkpt lat="44.80523592479855" lon="1.0866420019075083"><ele>177.0</ele><time>2026-04-19T13:24:07.975Z</time></trkpt><trkpt lat="44.80535303113272" lon="1.0866488893428716"><ele>179.25</ele><time>2026-04-19T13:24:08.974Z</time></trkpt><trkpt lat="44.80548174362868" lon="1.0866517066273194"><ele>181.5</ele><time>2026-04-19T13:24:09.974Z</time></trkpt><trkpt lat="44.80561126547638" lon="1.0866412254850208"><ele>183.75</ele><time>2026-04-19T13:24:10.975Z</time></trkpt><trkpt lat="44.805757789462554" lon="1.0866386566885997"><ele>186.0</ele><time>2026-04-19T13:24:11.975Z</time></trkpt><trkpt lat="44.805904400864534" lon="1.0866127645855108"><ele>187.5</ele><time>2026-04-19T13:24:12.975Z</time></trkpt><trkpt lat="44.80603861800588" lon="1.086624983575697"><ele>189.0</ele><time>2026-04-19T13:24:13.975Z</time></trkpt><trkpt lat="44.806175544012554" lon="1.0866320861094516"><ele>190.5</ele><time>2026-04-19T13:24:14.975Z</time></trkpt><trkpt lat="44.80630385579849" lon="1.0866540980135966"><ele>192.0</ele><time>2026-04-19T13:24:15.975Z</time></trkpt><trkpt lat="44.80641301248378" lon="1.0866918290452057"><ele>192.0</ele><time>2026-04-19T13:24:16.975Z</time></trkpt><trkpt lat="44.806504873727306" lon="1.0867286768818543"><ele>192.0</ele><time>2026-04-19T13:24:17.975Z</time></trkpt><trkpt lat="44.80656843158475" lon="1.0867564334604134"><ele>192.0</ele><time>2026-04-19T13:24:18.975Z</time></trkpt><trkpt lat="44.80665768061543" lon="1.0867685576139958"><ele>192.0</ele><time>2026-04-19T13:24:19.975Z</time></trkpt><trkpt lat="44.80674319595569" lon="1.0867974561264262"><ele>192.0</ele><time>2026-04-19T13:24:20.975Z</time></trkpt><trkpt lat="44.80684042567813" lon="1.0868203666083947"><ele>192.0</ele><time>2026-04-19T13:24:21.975Z</time></trkpt><trkpt lat="44.806941910998546" lon="1.0867968593677644"><ele>191.0</ele><time>2026-04-19T13:24:22.975Z</time></trkpt><trkpt lat="44.80703078443971" lon="1.0867508313445395"><ele>190.0</ele><time>2026-04-19T13:24:23.975Z</time></trkpt><trkpt lat="44.807090920258325" lon="1.0867064250622076"><ele>189.0</ele><time>2026-04-19T13:24:24.975Z</time></trkpt><trkpt lat="44.807145486759005" lon="1.08664745949855"><ele>188.0</ele><time>2026-04-19T13:24:26.975Z</time></trkpt><trkpt lat="44.807006872482376" lon="1.0865198273846102"><ele>187.0</ele><time>2026-04-19T13:24:30.975Z</time></trkpt><trkpt lat="44.80695105575675" lon="1.0864675024361876"><ele>189.2</ele><time>2026-04-19T13:24:31.975Z</time></trkpt><trkpt lat="44.80681964064051" lon="1.0863688084211627"><ele>191.39999999999998</ele><time>2026-04-19T13:24:33.975Z</time></trkpt><trkpt lat="44.806749018994886" lon="1.0862857154902872"><ele>193.60000000000002</ele><time>2026-04-19T13:24:34.975Z</time></trkpt><trkpt lat="44.80669213390238" lon="1.0862010041941232"><ele>195.8</ele><time>2026-04-19T13:24:35.975Z</time></trkpt><trkpt lat="44.806616344373126" lon="1.0860845494682627"><ele>198.0</ele><time>2026-04-19T13:24:36.975Z</time></trkpt><trkpt lat="44.80654403058109" lon="1.0859730711403273"><ele>198.0</ele><time>2026-04-19T13:24:37.976Z</time></trkpt><trkpt lat="44.80646910429035" lon="1.0858575653375697"><ele>198.0</ele><time>2026-04-19T13:24:38.976Z</time></trkpt><trkpt lat="44.80640587001226" lon="1.0857612340056333"><ele>198.0</ele><time>2026-04-19T13:24:39.976Z</time></trkpt><trkpt lat="44.80635508218685" lon="1.0856953238696685"><ele>198.0</ele><time>2026-04-19T13:24:40.976Z</time></trkpt><trkpt lat="44.806290644249614" lon="1.0856113761364876"><ele>198.0</ele><time>2026-04-19T13:24:42.976Z</time></trkpt><trkpt lat="44.806253605700526" lon="1.0854624200480645"><ele>198.4</ele><time>2026-04-19T13:24:44.976Z</time></trkpt><trkpt lat="44.806286007737505" lon="1.085356596202434"><ele>198.8</ele><time>2026-04-19T13:24:45.976Z</time></trkpt><trkpt lat="44.80633043180549" lon="1.0852475438431965"><ele>199.2</ele><time>2026-04-19T13:24:46.976Z</time></trkpt><trkpt lat="44.80640140328858" lon="1.0851879253421381"><ele>199.6</ele><time>2026-04-19T13:24:47.976Z</time></trkpt><trkpt lat="44.80648781576611" lon="1.0851053077577384"><ele>200.0</ele><time>2026-04-19T13:24:48.976Z</time></trkpt><trkpt lat="44.80660120344795" lon="1.0850270121860708"><ele>200.0</ele><time>2026-04-19T13:24:49.976Z</time></trkpt><trkpt lat="44.80672150341407" lon="1.084950223417208"><ele>200.0</ele><time>2026-04-19T13:24:50.976Z</time></trkpt><trkpt lat="44.806838284305655" lon="1.0848581569684708"><ele>200.0</ele><time>2026-04-19T13:24:51.976Z</time></trkpt><trkpt lat="44.806960048263285" lon="1.084758716775667"><ele>200.0</ele><time>2026-04-19T13:24:52.976Z</time></trkpt><trkpt lat="44.80707101874941" lon="1.0846525259284125"><ele>201.75</ele><time>2026-04-19T13:24:53.976Z</time></trkpt><trkpt lat="44.80718062293933" lon="1.0845441677308194"><ele>203.5</ele><time>2026-04-19T13:24:54.976Z</time></trkpt><trkpt lat="44.80727671868308" lon="1.0844280811933844"><ele>205.25</ele><time>2026-04-19T13:24:55.976Z</time></trkpt><trkpt lat="44.807367412477106" lon="1.0843022486346319"><ele>207.0</ele><time>2026-04-19T13:24:56.976Z</time></trkpt><trkpt lat="44.80745359612249" lon="1.0841733336795294"><ele>206.5</ele><time>2026-04-19T13:24:57.976Z</time></trkpt><trkpt lat="44.80752983573669" lon="1.084041748780125"><ele>206.0</ele><time>2026-04-19T13:24:58.976Z</time></trkpt><trkpt lat="44.80760285031793" lon="1.0839199521877285"><ele>205.5</ele><time>2026-04-19T13:24:59.976Z</time></trkpt><trkpt lat="44.807678969702565" lon="1.0837904933453895"><ele>205.0</ele><time>2026-04-19T13:25:00.976Z</time></trkpt><trkpt lat="44.807755010239056" lon="1.083661027615274"><ele>206.2</ele><time>2026-04-19T13:25:01.976Z</time></trkpt><trkpt lat="44.80782735395984" lon="1.0835441123023795"><ele>207.4</ele><time>2026-04-19T13:25:02.976Z</time></trkpt><trkpt lat="44.80791974359848" lon="1.083431194874145"><ele>208.60000000000002</ele><time>2026-04-19T13:25:03.976Z</time></trkpt><trkpt lat="44.80798886251506" lon="1.0833096538970746"><ele>209.8</ele><time>2026-04-19T13:25:04.976Z</time></trkpt><trkpt lat="44.80805765485039" lon="1.08320270117397"><ele>211.0</ele><time>2026-04-19T13:25:05.976Z</time></trkpt><trkpt lat="44.80813246547969" lon="1.0830765112362326"><ele>211.0</ele><time>2026-04-19T13:25:06.976Z</time></trkpt><trkpt lat="44.80819710560808" lon="1.0829713724545886"><ele>211.0</ele><time>2026-04-19T13:25:07.976Z</time></trkpt><trkpt lat="44.80825919272197" lon="1.0828421184842336"><ele>211.0</ele><time>2026-04-19T13:25:08.976Z</time></trkpt><trkpt lat="44.80831231049678" lon="1.082704030512221"><ele>211.0</ele><time>2026-04-19T13:25:09.976Z</time></trkpt><trkpt lat="44.80836170854821" lon="1.082551626441521"><ele>211.0</ele><time>2026-04-19T13:25:10.976Z</time></trkpt><trkpt lat="44.80840932274717" lon="1.0824128668759563"><ele>210.75</ele><time>2026-04-19T13:25:11.976Z</time></trkpt><trkpt lat="44.80845989551367" lon="1.082256292977993"><ele>210.5</ele><time>2026-04-19T13:25:12.976Z</time></trkpt><trkpt lat="44.808510385518574" lon="1.0820869413735792"><ele>210.25</ele><time>2026-04-19T13:25:13.976Z</time></trkpt><trkpt lat="44.80855577781753" lon="1.0819129059011063"><ele>210.0</ele><time>2026-04-19T13:25:14.976Z</time></trkpt><trkpt lat="44.808599916071124" lon="1.0817321921674508"><ele>212.0</ele><time>2026-04-19T13:25:15.976Z</time></trkpt><trkpt lat="44.80864660568984" lon="1.0815366133050748"><ele>214.0</ele><time>2026-04-19T13:25:16.976Z</time></trkpt><trkpt lat="44.8086924009389" lon="1.0813470890636898"><ele>216.0</ele><time>2026-04-19T13:25:17.976Z</time></trkpt><trkpt lat="44.80873742743487" lon="1.0811316480988395"><ele>218.0</ele><time>2026-04-19T13:25:18.976Z</time></trkpt><trkpt lat="44.80879346498829" lon="1.0809259755102598"><ele>218.0</ele><time>2026-04-19T13:25:19.976Z</time></trkpt><trkpt lat="44.80884538943354" lon="1.0807003022401587"><ele>218.0</ele><time>2026-04-19T13:25:20.977Z</time></trkpt><trkpt lat="44.808897004628456" lon="1.080476410711802"><ele>218.0</ele><time>2026-04-19T13:25:21.977Z</time></trkpt><trkpt lat="44.80895090377416" lon="1.0802511778021628"><ele>218.0</ele><time>2026-04-19T13:25:22.977Z</time></trkpt><trkpt lat="44.80901116235555" lon="1.0800252287952672"><ele>218.0</ele><time>2026-04-19T13:25:23.977Z</time></trkpt><trkpt lat="44.80908666756431" lon="1.0798142767773034"><ele>218.0</ele><time>2026-04-19T13:25:24.977Z</time></trkpt><trkpt lat="44.80914243686294" lon="1.0796012598194238"><ele>218.5</ele><time>2026-04-19T13:25:25.977Z</time></trkpt><trkpt lat="44.809207626604916" lon="1.079393996565417"><ele>219.0</ele><time>2026-04-19T13:25:26.977Z</time></trkpt><trkpt lat="44.80927654990656" lon="1.0792076090968628"><ele>219.5</ele><time>2026-04-19T13:25:27.977Z</time></trkpt><trkpt lat="44.80934500846415" lon="1.0790394697214383"><ele>220.0</ele><time>2026-04-19T13:25:28.977Z</time></trkpt><trkpt lat="44.80940747185457" lon="1.0788948289687643"><ele>221.6</ele><time>2026-04-19T13:25:29.977Z</time></trkpt><trkpt lat="44.809458830558064" lon="1.0787672353312883"><ele>223.2</ele><time>2026-04-19T13:25:30.977Z</time></trkpt><trkpt lat="44.809522925916355" lon="1.0786445094508428"><ele>224.8</ele><time>2026-04-19T13:25:31.977Z</time></trkpt><trkpt lat="44.809580691751826" lon="1.078520998253404"><ele>226.4</ele><time>2026-04-19T13:25:32.977Z</time></trkpt><trkpt lat="44.80961011466078" lon="1.0783950294870486"><ele>228.0</ele><time>2026-04-19T13:25:33.977Z</time></trkpt><trkpt lat="44.80962562082499" lon="1.0782560473521967"><ele>229.0</ele><time>2026-04-19T13:25:34.977Z</time></trkpt><trkpt lat="44.8096116393093" lon="1.0781010368912265"><ele>230.0</ele><time>2026-04-19T13:25:35.977Z</time></trkpt><trkpt lat="44.80958695204327" lon="1.077966705697264"><ele>231.0</ele><time>2026-04-19T13:25:36.977Z</time></trkpt><trkpt lat="44.80952881784111" lon="1.0778077722481887"><ele>232.0</ele><time>2026-04-19T13:25:37.977Z</time></trkpt><trkpt lat="44.809474443964056" lon="1.0776658362511953"><ele>232.0</ele><time>2026-04-19T13:25:38.977Z</time></trkpt><trkpt lat="44.8094508614613" lon="1.077529481153242"><ele>232.0</ele><time>2026-04-19T13:25:39.977Z</time></trkpt><trkpt lat="44.809425979800835" lon="1.0774070164411076"><ele>232.0</ele><time>2026-04-19T13:25:40.977Z</time></trkpt><trkpt lat="44.80942733806167" lon="1.0772587871398391"><ele>232.0</ele><time>2026-04-19T13:25:41.977Z</time></trkpt><trkpt lat="44.80944938214798" lon="1.077088849712812"><ele>232.0</ele><time>2026-04-19T13:25:42.977Z</time></trkpt><trkpt lat="44.80948618456572" lon="1.0769053180818"><ele>233.0</ele><time>2026-04-19T13:25:43.977Z</time></trkpt><trkpt lat="44.80951617789034" lon="1.0767245589861354"><ele>234.0</ele><time>2026-04-19T13:25:44.977Z</time></trkpt><trkpt lat="44.80954465237209" lon="1.0765491493991919"><ele>235.0</ele><time>2026-04-19T13:25:45.977Z</time></trkpt><trkpt lat="44.809573833960336" lon="1.0763861651932873"><ele>236.0</ele><time>2026-04-19T13:25:46.977Z</time></trkpt><trkpt lat="44.80961099901839" lon="1.076230863266623"><ele>236.25</ele><time>2026-04-19T13:25:47.977Z</time></trkpt><trkpt lat="44.809660859877354" lon="1.0760836000613787"><ele>236.5</ele><time>2026-04-19T13:25:48.977Z</time></trkpt><trkpt lat="44.809710680103386" lon="1.075951210354023"><ele>236.75</ele><time>2026-04-19T13:25:49.977Z</time></trkpt><trkpt lat="44.80977924664237" lon="1.0758127312909929"><ele>237.0</ele><time>2026-04-19T13:25:50.977Z</time></trkpt><trkpt lat="44.809848701933625" lon="1.0756947356017046"><ele>237.0</ele><time>2026-04-19T13:25:51.977Z</time></trkpt><trkpt lat="44.80990989130451" lon="1.0755511076318371"><ele>237.0</ele><time>2026-04-19T13:25:52.977Z</time></trkpt><trkpt lat="44.80997309772145" lon="1.075419318121011"><ele>237.0</ele><time>2026-04-19T13:25:53.977Z</time></trkpt><trkpt lat="44.81002661732256" lon="1.0752704950852252"><ele>237.0</ele><time>2026-04-19T13:25:54.977Z</time></trkpt><trkpt lat="44.81006625752114" lon="1.0751161308037482"><ele>237.0</ele><time>2026-04-19T13:25:55.977Z</time></trkpt><trkpt lat="44.810102698732145" lon="1.074960393693497"><ele>237.0</ele><time>2026-04-19T13:25:56.977Z</time></trkpt><trkpt lat="44.81015945492461" lon="1.074802619324073"><ele>237.0</ele><time>2026-04-19T13:25:57.977Z</time></trkpt><trkpt lat="44.810181422679996" lon="1.0746376985297823"><ele>237.0</ele><time>2026-04-19T13:25:58.977Z</time></trkpt><trkpt lat="44.810196739345905" lon="1.0744800802803773"><ele>237.6</ele><time>2026-04-19T13:25:59.977Z</time></trkpt><trkpt lat="44.810216622881" lon="1.0743328418938773"><ele>238.2</ele><time>2026-04-19T13:26:00.977Z</time></trkpt><trkpt lat="44.81023493677812" lon="1.0741953570138956"><ele>238.8</ele><time>2026-04-19T13:26:01.977Z</time></trkpt><trkpt lat="44.810247635602245" lon="1.074077149476089"><ele>239.4</ele><time>2026-04-19T13:26:02.977Z</time></trkpt><trkpt lat="44.81025265313831" lon="1.0739502587400331"><ele>240.0</ele><time>2026-04-19T13:26:03.977Z</time></trkpt><trkpt lat="44.81025033320518" lon="1.0738098715364288"><ele>241.4</ele><time>2026-04-19T13:26:04.978Z</time></trkpt><trkpt lat="44.810207141536154" lon="1.073682848673132"><ele>242.8</ele><time>2026-04-19T13:26:05.978Z</time></trkpt><trkpt lat="44.81015333771452" lon="1.0735814073496834"><ele>244.2</ele><time>2026-04-19T13:26:06.978Z</time></trkpt><trkpt lat="44.810058309483374" lon="1.0734783992849912"><ele>245.6</ele><time>2026-04-19T13:26:07.978Z</time></trkpt><trkpt lat="44.80995619781769" lon="1.073360170174566"><ele>247.0</ele><time>2026-04-19T13:26:08.978Z</time></trkpt><trkpt lat="44.80985297725607" lon="1.0732763160192482"><ele>249.0</ele><time>2026-04-19T13:26:09.978Z</time></trkpt><trkpt lat="44.80975769496412" lon="1.0731959822663713"><ele>251.0</ele><time>2026-04-19T13:26:10.978Z</time></trkpt><trkpt lat="44.80968180160123" lon="1.0731166992635623"><ele>253.0</ele><time>2026-04-19T13:26:11.978Z</time></trkpt><trkpt lat="44.80960665532914" lon="1.0730268258598008"><ele>255.0</ele><time>2026-04-19T13:26:12.978Z</time></trkpt><trkpt lat="44.80954857127788" lon="1.0729134523990262"><ele>257.0</ele><time>2026-04-19T13:26:13.974Z</time></trkpt><trkpt lat="44.809484569546846" lon="1.0727897950934404"><ele>257.0</ele><time>2026-04-19T13:26:14.974Z</time></trkpt><trkpt lat="44.80941769370026" lon="1.072667078744746"><ele>257.0</ele><time>2026-04-19T13:26:15.974Z</time></trkpt><trkpt lat="44.80934856985596" lon="1.0725496474205873"><ele>257.0</ele><time>2026-04-19T13:26:16.974Z</time></trkpt><trkpt lat="44.80928086211865" lon="1.0724404346545324"><ele>257.0</ele><time>2026-04-19T13:26:17.974Z</time></trkpt><trkpt lat="44.80920105336861" lon="1.0723294570024564"><ele>257.0</ele><time>2026-04-19T13:26:18.974Z</time></trkpt><trkpt lat="44.80911319703826" lon="1.0722404279259146"><ele>255.39999999999998</ele><time>2026-04-19T13:26:19.974Z</time></trkpt><trkpt lat="44.809038592083255" lon="1.0721357091365589"><ele>253.79999999999998</ele><time>2026-04-19T13:26:20.974Z</time></trkpt><trkpt lat="44.80895608815396" lon="1.0720514197594297"><ele>252.2</ele><time>2026-04-19T13:26:21.974Z</time></trkpt><trkpt lat="44.808904432131584" lon="1.0719548229510338"><ele>250.6</ele><time>2026-04-19T13:26:22.974Z</time></trkpt><trkpt lat="44.808838309794766" lon="1.0718680481631548"><ele>249.0</ele><time>2026-04-19T13:26:23.974Z</time></trkpt><trkpt lat="44.808783358613354" lon="1.071778916811925"><ele>249.0</ele><time>2026-04-19T13:26:24.974Z</time></trkpt><trkpt lat="44.80874221101108" lon="1.0717013920415992"><ele>249.0</ele><time>2026-04-19T13:26:25.974Z</time></trkpt><trkpt lat="44.80873494573948" lon="1.0715871436917457"><ele>249.0</ele><time>2026-04-19T13:26:27.974Z</time></trkpt><trkpt lat="44.80883749760355" lon="1.071518096601897"><ele>249.0</ele><time>2026-04-19T13:26:30.974Z</time></trkpt><trkpt lat="44.80890043373155" lon="1.0715090536582832"><ele>249.0</ele><time>2026-04-19T13:26:31.974Z</time></trkpt><trkpt lat="44.80897959944754" lon="1.0715149806450517"><ele>249.0</ele><time>2026-04-19T13:26:32.974Z</time></trkpt><trkpt lat="44.80906768974059" lon="1.071522383510202"><ele>249.0</ele><time>2026-04-19T13:26:33.974Z</time></trkpt><trkpt lat="44.80915278725627" lon="1.071552358064902"><ele>248.99999999999997</ele><time>2026-04-19T13:26:34.974Z</time></trkpt><trkpt lat="44.8092500574919" lon="1.0716124968867227"><ele>248.99999999999997</ele><time>2026-04-19T13:26:35.974Z</time></trkpt><trkpt lat="44.809338349789826" lon="1.0716914328453728"><ele>249.0</ele><time>2026-04-19T13:26:36.974Z</time></trkpt><trkpt lat="44.80944363485378" lon="1.0717764419207676"><ele>249.0</ele><time>2026-04-19T13:26:37.974Z</time></trkpt><trkpt lat="44.809525255463754" lon="1.071867259674634"><ele>250.6</ele><time>2026-04-19T13:26:38.974Z</time></trkpt><trkpt lat="44.80961078741205" lon="1.071939393232463"><ele>252.2</ele><time>2026-04-19T13:26:39.974Z</time></trkpt><trkpt lat="44.809693108480175" lon="1.0719827313537327"><ele>253.79999999999998</ele><time>2026-04-19T13:26:40.974Z</time></trkpt><trkpt lat="44.80977601032493" lon="1.0720622171128096"><ele>255.39999999999998</ele><time>2026-04-19T13:26:41.974Z</time></trkpt><trkpt lat="44.80987504684064" lon="1.0721001301625093"><ele>257.0</ele><time>2026-04-19T13:26:42.974Z</time></trkpt><trkpt lat="44.809958312003836" lon="1.0720780458208112"><ele>257.0</ele><time>2026-04-19T13:26:43.974Z</time></trkpt><trkpt lat="44.810074625423084" lon="1.0720568447120975"><ele>257.0</ele><time>2026-04-19T13:26:44.974Z</time></trkpt><trkpt lat="44.81021016556362" lon="1.0720278768350524"><ele>257.0</ele><time>2026-04-19T13:26:45.974Z</time></trkpt><trkpt lat="44.81034565130502" lon="1.0720237007452673"><ele>257.0</ele><time>2026-04-19T13:26:46.974Z</time></trkpt><trkpt lat="44.810478791479014" lon="1.0719891576537415"><ele>259.0</ele><time>2026-04-19T13:26:47.974Z</time></trkpt><trkpt lat="44.81059435873253" lon="1.071955424323828"><ele>261.0</ele><time>2026-04-19T13:26:48.974Z</time></trkpt><trkpt lat="44.810707846312255" lon="1.0719145532301189"><ele>263.0</ele><time>2026-04-19T13:26:49.974Z</time></trkpt><trkpt lat="44.81081385793637" lon="1.0718943608947769"><ele>265.0</ele><time>2026-04-19T13:26:50.974Z</time></trkpt><trkpt lat="44.810903188692016" lon="1.0718565034770837"><ele>267.0</ele><time>2026-04-19T13:26:51.974Z</time></trkpt><trkpt lat="44.81098615257544" lon="1.0718204029296816"><ele>266.6</ele><time>2026-04-19T13:26:52.974Z</time></trkpt><trkpt lat="44.81107395433902" lon="1.071783589602754"><ele>266.2</ele><time>2026-04-19T13:26:53.974Z</time></trkpt><trkpt lat="44.81115590425606" lon="1.0717199624284333"><ele>265.8</ele><time>2026-04-19T13:26:54.974Z</time></trkpt><trkpt lat="44.81122696250139" lon="1.0715965519221486"><ele>265.4</ele><time>2026-04-19T13:26:55.974Z</time></trkpt><trkpt lat="44.81130536364825" lon="1.0714955444085792"><ele>265.0</ele><time>2026-04-19T13:26:56.974Z</time></trkpt><trkpt lat="44.81138041013043" lon="1.0714073178348484"><ele>265.0</ele><time>2026-04-19T13:26:57.974Z</time></trkpt><trkpt lat="44.811470269806925" lon="1.0713485016922604"><ele>265.0</ele><time>2026-04-19T13:26:58.974Z</time></trkpt><trkpt lat="44.811560037553186" lon="1.0712977319982664"><ele>265.0</ele><time>2026-04-19T13:26:59.974Z</time></trkpt><trkpt lat="44.81166993270316" lon="1.0712609701004434"><ele>265.0</ele><time>2026-04-19T13:27:00.974Z</time></trkpt><trkpt lat="44.81178978664824" lon="1.0712242701769321"><ele>265.0</ele><time>2026-04-19T13:27:01.974Z</time></trkpt><trkpt lat="44.811918892073784" lon="1.0711847372653498"><ele>264.0</ele><time>2026-04-19T13:27:02.975Z</time></trkpt><trkpt lat="44.81203479814989" lon="1.071148599746967"><ele>263.0</ele><time>2026-04-19T13:27:03.975Z</time></trkpt><trkpt lat="44.812135201398625" lon="1.0710932481717772"><ele>262.0</ele><time>2026-04-19T13:27:04.975Z</time></trkpt><trkpt lat="44.81223578264402" lon="1.0710811269696776"><ele>261.0</ele><time>2026-04-19T13:27:05.975Z</time></trkpt><trkpt lat="44.812311910410045" lon="1.0710516897771933"><ele>260.0</ele><time>2026-04-19T13:27:06.975Z</time></trkpt><trkpt lat="44.81238501769264" lon="1.0710287618418581"><ele>260.0</ele><time>2026-04-19T13:27:07.975Z</time></trkpt><trkpt lat="44.81248107848572" lon="1.0710024830584473"><ele>260.0</ele><time>2026-04-19T13:27:09.975Z</time></trkpt><trkpt lat="44.81254494320199" lon="1.070981405439129"><ele>260.0</ele><time>2026-04-19T13:27:11.975Z</time></trkpt><trkpt lat="44.81262029826167" lon="1.0709810211562238"><ele>260.0</ele><time>2026-04-19T13:27:14.975Z</time></trkpt><trkpt lat="44.8126866728347" lon="1.0709737338152814"><ele>260.0</ele><time>2026-04-19T13:27:17.975Z</time></trkpt><trkpt lat="44.812605801579934" lon="1.0708676680605556"><ele>260.0</ele><time>2026-04-19T13:37:19.973Z</time></trkpt><trkpt lat="44.812561684886404" lon="1.0707859013758898"><ele>260.1666666666667</ele><time>2026-04-19T13:37:21.973Z</time></trkpt><trkpt lat="44.812566666938444" lon="1.07064175758629"><ele>260.33333333333337</ele><time>2026-04-19T13:37:23.973Z</time></trkpt><trkpt lat="44.812577030771465" lon="1.0705237205897562"><ele>260.5</ele><time>2026-04-19T13:37:24.973Z</time></trkpt><trkpt lat="44.81258012820968" lon="1.0704031937474432"><ele>260.6666666666667</ele><time>2026-04-19T13:37:25.973Z</time></trkpt><trkpt lat="44.81258587621419" lon="1.0702986202760458"><ele>260.8333333333333</ele><time>2026-04-19T13:37:26.973Z</time></trkpt><trkpt lat="44.812591828223695" lon="1.0701778084856035"><ele>261.0</ele><time>2026-04-19T13:37:27.973Z</time></trkpt><trkpt lat="44.81260798424065" lon="1.0700484077295271"><ele>259.8</ele><time>2026-04-19T13:37:28.973Z</time></trkpt><trkpt lat="44.812605022899376" lon="1.0699204126586623"><ele>258.6</ele><time>2026-04-19T13:37:29.973Z</time></trkpt><trkpt lat="44.81261006845068" lon="1.0697889583431122"><ele>257.4</ele><time>2026-04-19T13:37:30.973Z</time></trkpt><trkpt lat="44.812594930775994" lon="1.069663745469065"><ele>256.2</ele><time>2026-04-19T13:37:31.973Z</time></trkpt><trkpt lat="44.81259339515986" lon="1.0695280256086603"><ele>255.0</ele><time>2026-04-19T13:37:32.973Z</time></trkpt><trkpt lat="44.8125729942214" lon="1.0692247406870452"><ele>254.0</ele><time>2026-04-19T13:37:34.973Z</time></trkpt><trkpt lat="44.81254938796847" lon="1.0690981177049939"><ele>253.0</ele><time>2026-04-19T13:37:35.973Z</time></trkpt><trkpt lat="44.81252956862474" lon="1.0689657672142312"><ele>252.0</ele><time>2026-04-19T13:37:36.973Z</time></trkpt><trkpt lat="44.812522858810624" lon="1.0688310745299583"><ele>251.0</ele><time>2026-04-19T13:37:37.973Z</time></trkpt><trkpt lat="44.81251929502913" lon="1.0686971837046804"><ele>250.0</ele><time>2026-04-19T13:37:38.973Z</time></trkpt><trkpt lat="44.81251649366508" lon="1.0685735021937515"><ele>250.0</ele><time>2026-04-19T13:37:39.973Z</time></trkpt><trkpt lat="44.81252217196164" lon="1.0684458322619972"><ele>250.0</ele><time>2026-04-19T13:37:40.973Z</time></trkpt><trkpt lat="44.81254368564629" lon="1.068319712735028"><ele>250.0</ele><time>2026-04-19T13:37:41.973Z</time></trkpt><trkpt lat="44.81257947614666" lon="1.0682028293174206"><ele>250.0</ele><time>2026-04-19T13:37:42.973Z</time></trkpt><trkpt lat="44.81263782569126" lon="1.0680938925003796"><ele>250.0</ele><time>2026-04-19T13:37:43.973Z</time></trkpt><trkpt lat="44.812690727986784" lon="1.0679826734147988"><ele>250.0</ele><time>2026-04-19T13:37:44.973Z</time></trkpt><trkpt lat="44.8127665814736" lon="1.0678830505409922"><ele>250.0</ele><time>2026-04-19T13:37:45.973Z</time></trkpt><trkpt lat="44.812850914934806" lon="1.0677670092239233"><ele>250.0</ele><time>2026-04-19T13:37:46.973Z</time></trkpt><trkpt lat="44.812928535133906" lon="1.0676409297594118"><ele>250.0</ele><time>2026-04-19T13:37:47.973Z</time></trkpt><trkpt lat="44.813022527724165" lon="1.0675342614238599"><ele>249.8</ele><time>2026-04-19T13:37:48.973Z</time></trkpt><trkpt lat="44.81310568323296" lon="1.0674094702992996"><ele>249.6</ele><time>2026-04-19T13:37:49.973Z</time></trkpt><trkpt lat="44.81317155603229" lon="1.0673144950153313"><ele>249.39999999999998</ele><time>2026-04-19T13:37:50.973Z</time></trkpt><trkpt lat="44.81322556543725" lon="1.067194819913552"><ele>249.2</ele><time>2026-04-19T13:37:51.973Z</time></trkpt><trkpt lat="44.81328210438837" lon="1.0670724630815962"><ele>249.0</ele><time>2026-04-19T13:37:52.973Z</time></trkpt><trkpt lat="44.813320946845714" lon="1.0669472431342606"><ele>249.0</ele><time>2026-04-19T13:37:53.973Z</time></trkpt><trkpt lat="44.813345467906174" lon="1.0668092357924273"><ele>248.99999999999997</ele><time>2026-04-19T13:37:54.973Z</time></trkpt><trkpt lat="44.81336116104352" lon="1.0666725620281223"><ele>248.99999999999997</ele><time>2026-04-19T13:37:55.973Z</time></trkpt><trkpt lat="44.81337866120595" lon="1.0665062967459895"><ele>249.0</ele><time>2026-04-19T13:37:56.973Z</time></trkpt><trkpt lat="44.81339211983067" lon="1.0663244248157242"><ele>249.0</ele><time>2026-04-19T13:37:57.973Z</time></trkpt><trkpt lat="44.81341836649819" lon="1.0661550860774538"><ele>249.25</ele><time>2026-04-19T13:37:58.973Z</time></trkpt><trkpt lat="44.81345050236634" lon="1.065986424333523"><ele>249.5</ele><time>2026-04-19T13:37:59.973Z</time></trkpt><trkpt lat="44.81350187039984" lon="1.0658320389838374"><ele>249.75</ele><time>2026-04-19T13:38:00.973Z</time></trkpt><trkpt lat="44.813544583815904" lon="1.0656803312663423"><ele>250.0</ele><time>2026-04-19T13:38:01.973Z</time></trkpt><trkpt lat="44.8135896056879" lon="1.0655492532863098"><ele>250.0</ele><time>2026-04-19T13:38:02.973Z</time></trkpt><trkpt lat="44.813687821684475" lon="1.065266475269329"><ele>250.0</ele><time>2026-04-19T13:38:04.974Z</time></trkpt><trkpt lat="44.813691972033766" lon="1.0651329734331316"><ele>250.0</ele><time>2026-04-19T13:38:05.974Z</time></trkpt><trkpt lat="44.81370470126663" lon="1.0650173547459467"><ele>250.0</ele><time>2026-04-19T13:38:06.974Z</time></trkpt><trkpt lat="44.81373696465137" lon="1.06490208953093"><ele>249.6</ele><time>2026-04-19T13:38:07.974Z</time></trkpt><trkpt lat="44.813752860934926" lon="1.0647902531436222"><ele>249.2</ele><time>2026-04-19T13:38:08.974Z</time></trkpt><trkpt lat="44.813771805265944" lon="1.0646648929372695"><ele>248.8</ele><time>2026-04-19T13:38:09.974Z</time></trkpt><trkpt lat="44.813806410419794" lon="1.0645295744976386"><ele>248.4</ele><time>2026-04-19T13:38:10.974Z</time></trkpt><trkpt lat="44.81384892082503" lon="1.0643769734693982"><ele>248.0</ele><time>2026-04-19T13:38:11.974Z</time></trkpt><trkpt lat="44.81387803777589" lon="1.0642454929814331"><ele>248.75</ele><time>2026-04-19T13:38:12.974Z</time></trkpt><trkpt lat="44.81392372164086" lon="1.0640973129772444"><ele>249.5</ele><time>2026-04-19T13:38:13.974Z</time></trkpt><trkpt lat="44.81395567403016" lon="1.063966740780542"><ele>250.25</ele><time>2026-04-19T13:38:14.974Z</time></trkpt><trkpt lat="44.81400475228713" lon="1.063806700048041"><ele>251.0</ele><time>2026-04-19T13:38:15.974Z</time></trkpt><trkpt lat="44.8140817093818" lon="1.0636687534721183"><ele>251.0</ele><time>2026-04-19T13:38:16.974Z</time></trkpt><trkpt lat="44.81412635037291" lon="1.06355301385482"><ele>251.00000000000003</ele><time>2026-04-19T13:38:17.974Z</time></trkpt><trkpt lat="44.81415907239038" lon="1.0634267840275682"><ele>251.00000000000003</ele><time>2026-04-19T13:38:18.974Z</time></trkpt><trkpt lat="44.81421410336339" lon="1.063333435346348"><ele>251.0</ele><time>2026-04-19T13:38:19.974Z</time></trkpt><trkpt lat="44.8142677384687" lon="1.0632602109341527"><ele>251.0</ele><time>2026-04-19T13:38:20.974Z</time></trkpt><trkpt lat="44.81434695054212" lon="1.0631700265163118"><ele>250.0</ele><time>2026-04-19T13:38:21.974Z</time></trkpt><trkpt lat="44.8144511437192" lon="1.0630942190089816"><ele>249.00000000000003</ele><time>2026-04-19T13:38:22.974Z</time></trkpt><trkpt lat="44.81455563745423" lon="1.0630230725684287"><ele>248.00000000000003</ele><time>2026-04-19T13:38:23.974Z</time></trkpt><trkpt lat="44.81464516925256" lon="1.0629632205860455"><ele>247.0</ele><time>2026-04-19T13:38:24.974Z</time></trkpt><trkpt lat="44.81474267872711" lon="1.0629245124042825"><ele>246.0</ele><time>2026-04-19T13:38:25.974Z</time></trkpt><trkpt lat="44.81483005250253" lon="1.0628810170140206"><ele>246.0</ele><time>2026-04-19T13:38:26.974Z</time></trkpt><trkpt lat="44.81491349310504" lon="1.0628152583258739"><ele>246.00000000000003</ele><time>2026-04-19T13:38:27.974Z</time></trkpt><trkpt lat="44.81498539722842" lon="1.0627200412675248"><ele>246.00000000000003</ele><time>2026-04-19T13:38:28.974Z</time></trkpt><trkpt lat="44.81502929513178" lon="1.062596128607359"><ele>246.0</ele><time>2026-04-19T13:38:29.974Z</time></trkpt><trkpt lat="44.81507311748256" lon="1.0624710381867009"><ele>246.0</ele><time>2026-04-19T13:38:30.974Z</time></trkpt><trkpt lat="44.81510555788247" lon="1.0623443176085825"><ele>245.60000000000002</ele><time>2026-04-19T13:38:31.974Z</time></trkpt><trkpt lat="44.81513620014552" lon="1.0622171870667496"><ele>245.20000000000002</ele><time>2026-04-19T13:38:32.974Z</time></trkpt><trkpt lat="44.815215113776006" lon="1.0620093649204778"><ele>244.79999999999998</ele><time>2026-04-19T13:38:34.974Z</time></trkpt><trkpt lat="44.8152664206139" lon="1.0618904492139858"><ele>244.39999999999998</ele><time>2026-04-19T13:38:35.974Z</time></trkpt><trkpt lat="44.81532215064824" lon="1.0617999746718907"><ele>244.0</ele><time>2026-04-19T13:38:36.974Z</time></trkpt><trkpt lat="44.815415490992926" lon="1.0617079104221532"><ele>244.16666666666666</ele><time>2026-04-19T13:38:38.974Z</time></trkpt><trkpt lat="44.815422665079346" lon="1.0616064803367333"><ele>244.33333333333331</ele><time>2026-04-19T13:38:41.974Z</time></trkpt><trkpt lat="44.81536142866442" lon="1.0614836540713228"><ele>244.5</ele><time>2026-04-19T13:38:43.974Z</time></trkpt><trkpt lat="44.8153133646762" lon="1.0614248284340586"><ele>244.66666666666669</ele><time>2026-04-19T13:38:44.974Z</time></trkpt><trkpt lat="44.81525966701802" lon="1.061366579978897"><ele>244.83333333333334</ele><time>2026-04-19T13:38:45.974Z</time></trkpt><trkpt lat="44.8151898161913" lon="1.061293286667209"><ele>245.0</ele><time>2026-04-19T13:38:46.975Z</time></trkpt><trkpt lat="44.81511903001779" lon="1.0612193760778479"><ele>245.0</ele><time>2026-04-19T13:38:47.975Z</time></trkpt><trkpt lat="44.815046859827824" lon="1.061130161932622"><ele>245.0</ele><time>2026-04-19T13:38:48.975Z</time></trkpt><trkpt lat="44.81496621873357" lon="1.0609897592475719"><ele>245.0</ele><time>2026-04-19T13:38:49.969Z</time></trkpt><trkpt lat="44.814890244275" lon="1.0608652438669874"><ele>245.0</ele><time>2026-04-19T13:38:50.969Z</time></trkpt><trkpt lat="44.81481817599734" lon="1.0607161632532467"><ele>245.0</ele><time>2026-04-19T13:38:51.969Z</time></trkpt><trkpt lat="44.81474061857064" lon="1.0605624293739915"><ele>245.0</ele><time>2026-04-19T13:38:52.97Z</time></trkpt><trkpt lat="44.81465568423818" lon="1.0604137347268174"><ele>245.0</ele><time>2026-04-19T13:38:53.969Z</time></trkpt><trkpt lat="44.81457833506901" lon="1.0602482419425716"><ele>245.0</ele><time>2026-04-19T13:38:54.969Z</time></trkpt><trkpt lat="44.814490457011885" lon="1.060071886113443"><ele>243.66666666666669</ele><time>2026-04-19T13:38:55.97Z</time></trkpt><trkpt lat="44.81441829654234" lon="1.0598957177582202"><ele>242.33333333333331</ele><time>2026-04-19T13:38:56.969Z</time></trkpt><trkpt lat="44.81432642632027" lon="1.0596999968125977"><ele>241.0</ele><time>2026-04-19T13:38:57.969Z</time></trkpt><trkpt lat="44.814224685719175" lon="1.0595022258001072"><ele>240.0</ele><time>2026-04-19T13:38:58.969Z</time></trkpt><trkpt lat="44.81411749114563" lon="1.0592766995210545"><ele>239.0</ele><time>2026-04-19T13:38:59.969Z</time></trkpt><trkpt lat="44.81402169501787" lon="1.0590679384934902"><ele>238.0</ele><time>2026-04-19T13:39:00.969Z</time></trkpt><trkpt lat="44.81393220548931" lon="1.058862482490736"><ele>236.66666666666666</ele><time>2026-04-19T13:39:01.969Z</time></trkpt><trkpt lat="44.8138371610882" lon="1.0586715217837999"><ele>235.33333333333331</ele><time>2026-04-19T13:39:02.969Z</time></trkpt><trkpt lat="44.81374494975202" lon="1.0584811174187947"><ele>234.0</ele><time>2026-04-19T13:39:03.969Z</time></trkpt><trkpt lat="44.81365999808752" lon="1.058309761921089"><ele>233.0</ele><time>2026-04-19T13:39:04.969Z</time></trkpt><trkpt lat="44.8135708598073" lon="1.0581389110714017"><ele>232.0</ele><time>2026-04-19T13:39:05.969Z</time></trkpt><trkpt lat="44.813459505619065" lon="1.0579932999457178"><ele>231.0</ele><time>2026-04-19T13:39:06.969Z</time></trkpt><trkpt lat="44.81333643150155" lon="1.0578750280216271"><ele>233.0</ele><time>2026-04-19T13:39:07.969Z</time></trkpt><trkpt lat="44.81319653550586" lon="1.057765675250959"><ele>235.0</ele><time>2026-04-19T13:39:08.969Z</time></trkpt><trkpt lat="44.81305866171958" lon="1.0576726996886827"><ele>237.0</ele><time>2026-04-19T13:39:09.969Z</time></trkpt><trkpt lat="44.81290740680548" lon="1.0575933406590832"><ele>237.0</ele><time>2026-04-19T13:39:10.969Z</time></trkpt><trkpt lat="44.81277521768251" lon="1.05753561028103"><ele>237.0</ele><time>2026-04-19T13:39:11.969Z</time></trkpt><trkpt lat="44.812649501661795" lon="1.0574727647824427"><ele>237.0</ele><time>2026-04-19T13:39:12.969Z</time></trkpt><trkpt lat="44.81255098858425" lon="1.05739679165197"><ele>237.0</ele><time>2026-04-19T13:39:13.969Z</time></trkpt><trkpt lat="44.81248576903716" lon="1.0572961716294247"><ele>238.5</ele><time>2026-04-19T13:39:14.969Z</time></trkpt><trkpt lat="44.812449848190454" lon="1.0571695209923742"><ele>240.0</ele><time>2026-04-19T13:39:15.969Z</time></trkpt><trkpt lat="44.81243960563605" lon="1.0570353976599807"><ele>241.5</ele><time>2026-04-19T13:39:16.969Z</time></trkpt><trkpt lat="44.81243227369322" lon="1.0569204362411817"><ele>243.0</ele><time>2026-04-19T13:39:17.969Z</time></trkpt><trkpt lat="44.81243126190456" lon="1.0568178260476795"><ele>244.5</ele><time>2026-04-19T13:39:18.969Z</time></trkpt><trkpt lat="44.81242396744392" lon="1.056703580983297"><ele>246.0</ele><time>2026-04-19T13:39:19.969Z</time></trkpt><trkpt lat="44.81240495397142" lon="1.0565741536506799"><ele>246.60000000000002</ele><time>2026-04-19T13:39:20.969Z</time></trkpt><trkpt lat="44.81235431317511" lon="1.056453639179432"><ele>247.20000000000002</ele><time>2026-04-19T13:39:21.969Z</time></trkpt><trkpt lat="44.81228967598922" lon="1.0563499148575894"><ele>247.79999999999998</ele><time>2026-04-19T13:39:22.969Z</time></trkpt><trkpt lat="44.812223882558754" lon="1.0562630049229493"><ele>248.39999999999998</ele><time>2026-04-19T13:39:23.969Z</time></trkpt><trkpt lat="44.81214460487805" lon="1.056167803382174"><ele>249.0</ele><time>2026-04-19T13:39:24.969Z</time></trkpt><trkpt lat="44.8120807814447" lon="1.0560337620095857"><ele>249.0</ele><time>2026-04-19T13:39:25.969Z</time></trkpt><trkpt lat="44.812039348232474" lon="1.0558818113059614"><ele>249.0</ele><time>2026-04-19T13:39:26.969Z</time></trkpt><trkpt lat="44.811992344859014" lon="1.0556744030196297"><ele>249.0</ele><time>2026-04-19T13:39:27.969Z</time></trkpt><trkpt lat="44.81196872577553" lon="1.055455793796608"><ele>249.0</ele><time>2026-04-19T13:39:28.97Z</time></trkpt><trkpt lat="44.81193067605466" lon="1.0550166546576987"><ele>248.75</ele><time>2026-04-19T13:39:30.97Z</time></trkpt><trkpt lat="44.81192570079324" lon="1.054809229117641"><ele>248.5</ele><time>2026-04-19T13:39:31.97Z</time></trkpt><trkpt lat="44.811917434199025" lon="1.0546244953092159"><ele>248.25</ele><time>2026-04-19T13:39:32.97Z</time></trkpt><trkpt lat="44.81190622047679" lon="1.0544533142006185"><ele>248.0</ele><time>2026-04-19T13:39:33.97Z</time></trkpt><trkpt lat="44.811893357015244" lon="1.0543193810010492"><ele>248.00000000000003</ele><time>2026-04-19T13:39:34.97Z</time></trkpt><trkpt lat="44.811881783247976" lon="1.0542024426725187"><ele>248.0</ele><time>2026-04-19T13:39:35.97Z</time></trkpt><trkpt lat="44.811860848474254" lon="1.0540936240353163"><ele>248.0</ele><time>2026-04-19T13:39:36.97Z</time></trkpt><trkpt lat="44.81181562323523" lon="1.054010039397977"><ele>248.0</ele><time>2026-04-19T13:39:37.97Z</time></trkpt><trkpt lat="44.81174480181729" lon="1.0539623962856624"><ele>248.00000000000003</ele><time>2026-04-19T13:39:38.97Z</time></trkpt><trkpt lat="44.811672400102765" lon="1.053934812667337"><ele>248.0</ele><time>2026-04-19T13:39:39.97Z</time></trkpt><trkpt lat="44.81160078544843" lon="1.053926956078759"><ele>247.57142857142858</ele><time>2026-04-19T13:39:40.97Z</time></trkpt><trkpt lat="44.81152981050866" lon="1.0539303396105144"><ele>247.14285714285717</ele><time>2026-04-19T13:39:41.97Z</time></trkpt><trkpt lat="44.811465990475675" lon="1.0539334167290881"><ele>246.71428571428572</ele><time>2026-04-19T13:39:42.97Z</time></trkpt><trkpt lat="44.81140190182801" lon="1.0539141110893684"><ele>246.28571428571428</ele><time>2026-04-19T13:39:43.97Z</time></trkpt><trkpt lat="44.81133630549241" lon="1.053873143689655"><ele>245.85714285714286</ele><time>2026-04-19T13:39:44.97Z</time></trkpt><trkpt lat="44.81127914638466" lon="1.053816901217623"><ele>245.42857142857144</ele><time>2026-04-19T13:39:45.97Z</time></trkpt><trkpt lat="44.81121461964413" lon="1.0537371784163676"><ele>245.0</ele><time>2026-04-19T13:39:46.97Z</time></trkpt><trkpt lat="44.811150054986605" lon="1.0536524009376838"><ele>245.0</ele><time>2026-04-19T13:39:47.97Z</time></trkpt><trkpt lat="44.81108107954212" lon="1.0535651981087009"><ele>245.0</ele><time>2026-04-19T13:39:48.97Z</time></trkpt><trkpt lat="44.81100490090254" lon="1.0534723826360155"><ele>245.0</ele><time>2026-04-19T13:39:49.97Z</time></trkpt><trkpt lat="44.810934233191865" lon="1.0533757288969432"><ele>245.0</ele><time>2026-04-19T13:39:50.97Z</time></trkpt><trkpt lat="44.810866863082495" lon="1.0532870004190742"><ele>245.0</ele><time>2026-04-19T13:39:51.97Z</time></trkpt><trkpt lat="44.81081288535099" lon="1.0532052649849597"><ele>243.66666666666669</ele><time>2026-04-19T13:39:52.97Z</time></trkpt><trkpt lat="44.81074974240582" lon="1.0531341128583929"><ele>242.33333333333334</ele><time>2026-04-19T13:39:53.97Z</time></trkpt><trkpt lat="44.810683066122195" lon="1.0530914645203473"><ele>241.0</ele><time>2026-04-19T13:39:54.97Z</time></trkpt><trkpt lat="44.810609347458325" lon="1.0530438168329386"><ele>239.66666666666669</ele><time>2026-04-19T13:39:55.97Z</time></trkpt><trkpt lat="44.81053517042564" lon="1.053013948806993"><ele>238.33333333333334</ele><time>2026-04-19T13:39:56.97Z</time></trkpt><trkpt lat="44.81045452721257" lon="1.0529630275436312"><ele>237.0</ele><time>2026-04-19T13:39:57.97Z</time></trkpt><trkpt lat="44.81037694783117" lon="1.0528802202931284"><ele>237.0</ele><time>2026-04-19T13:39:58.97Z</time></trkpt><trkpt lat="44.810306472905566" lon="1.0527725293623764"><ele>237.0</ele><time>2026-04-19T13:39:59.97Z</time></trkpt><trkpt lat="44.81023739927713" lon="1.0526609794342208"><ele>237.0</ele><time>2026-04-19T13:40:00.97Z</time></trkpt><trkpt lat="44.81019272243722" lon="1.0525585306092828"><ele>237.0</ele><time>2026-04-19T13:40:01.97Z</time></trkpt><trkpt lat="44.8101421780507" lon="1.0524717327727098"><ele>237.0</ele><time>2026-04-19T13:40:02.97Z</time></trkpt><trkpt lat="44.810077149998044" lon="1.0524187860817285"><ele>237.0</ele><time>2026-04-19T13:40:03.97Z</time></trkpt><trkpt lat="44.80999739726336" lon="1.052326957849396"><ele>235.8</ele><time>2026-04-19T13:40:05.97Z</time></trkpt><trkpt lat="44.80997270021947" lon="1.0521820321006339"><ele>234.6</ele><time>2026-04-19T13:40:07.97Z</time></trkpt><trkpt lat="44.809991571752" lon="1.052002761459422"><ele>233.40000000000003</ele><time>2026-04-19T13:40:09.97Z</time></trkpt><trkpt lat="44.809999392080805" lon="1.0518872596219255"><ele>232.20000000000002</ele><time>2026-04-19T13:40:10.97Z</time></trkpt><trkpt lat="44.8100105073632" lon="1.0517466065918515"><ele>231.0</ele><time>2026-04-19T13:40:11.971Z</time></trkpt><trkpt lat="44.81003268008268" lon="1.0515867845070623"><ele>231.0</ele><time>2026-04-19T13:40:12.971Z</time></trkpt><trkpt lat="44.810048342779766" lon="1.0514147266873204"><ele>231.0</ele><time>2026-04-19T13:40:13.971Z</time></trkpt><trkpt lat="44.81006615133607" lon="1.0512521448732808"><ele>231.0</ele><time>2026-04-19T13:40:14.971Z</time></trkpt><trkpt lat="44.81007936557245" lon="1.0510718712717135"><ele>231.0</ele><time>2026-04-19T13:40:15.971Z</time></trkpt><trkpt lat="44.81009299397164" lon="1.050875889403435"><ele>231.0</ele><time>2026-04-19T13:40:16.971Z</time></trkpt><trkpt lat="44.81010847061858" lon="1.0506853855474985"><ele>231.0</ele><time>2026-04-19T13:40:17.971Z</time></trkpt><trkpt lat="44.81012287868883" lon="1.0505145359429762"><ele>231.0</ele><time>2026-04-19T13:40:18.971Z</time></trkpt><trkpt lat="44.81013402654298" lon="1.050356810764045"><ele>231.0</ele><time>2026-04-19T13:40:19.971Z</time></trkpt><trkpt lat="44.81013131643064" lon="1.0502283011620903"><ele>231.0</ele><time>2026-04-19T13:40:20.971Z</time></trkpt><trkpt lat="44.81013929140456" lon="1.0500957294092443"><ele>231.00000000000003</ele><time>2026-04-19T13:40:21.971Z</time></trkpt><trkpt lat="44.81014100580777" lon="1.0499712824006942"><ele>231.00000000000003</ele><time>2026-04-19T13:40:22.971Z</time></trkpt><trkpt lat="44.81015600584951" lon="1.0498305217293011"><ele>231.0</ele><time>2026-04-19T13:40:23.971Z</time></trkpt><trkpt lat="44.81016571403284" lon="1.049672456768172"><ele>231.0</ele><time>2026-04-19T13:40:24.971Z</time></trkpt><trkpt lat="44.81016940469373" lon="1.049515716170295"><ele>230.5</ele><time>2026-04-19T13:40:25.971Z</time></trkpt><trkpt lat="44.81016097539901" lon="1.0493553778311415"><ele>230.0</ele><time>2026-04-19T13:40:26.971Z</time></trkpt><trkpt lat="44.810145393185245" lon="1.049194948759907"><ele>229.5</ele><time>2026-04-19T13:40:27.971Z</time></trkpt><trkpt lat="44.810123084405255" lon="1.0490333881481482"><ele>229.0</ele><time>2026-04-19T13:40:28.971Z</time></trkpt><trkpt lat="44.81008700471894" lon="1.0488842669923966"><ele>229.0</ele><time>2026-04-19T13:40:29.971Z</time></trkpt><trkpt lat="44.810052527039794" lon="1.0487395020130585"><ele>228.99999999999997</ele><time>2026-04-19T13:40:30.971Z</time></trkpt><trkpt lat="44.81002888797505" lon="1.0486119971274044"><ele>228.99999999999997</ele><time>2026-04-19T13:40:31.971Z</time></trkpt><trkpt lat="44.8100120165719" lon="1.0484790282019822"><ele>229.0</ele><time>2026-04-19T13:40:32.971Z</time></trkpt><trkpt lat="44.810010695334284" lon="1.048347590844632"><ele>229.0</ele><time>2026-04-19T13:40:33.971Z</time></trkpt><trkpt lat="44.81003093089083" lon="1.048194422021976"><ele>227.75</ele><time>2026-04-19T13:40:34.971Z</time></trkpt><trkpt lat="44.8100825154411" lon="1.0480512547693521"><ele>226.5</ele><time>2026-04-19T13:40:35.971Z</time></trkpt><trkpt lat="44.810140673403325" lon="1.0479128734214747"><ele>225.25</ele><time>2026-04-19T13:40:36.971Z</time></trkpt><trkpt lat="44.810209532923594" lon="1.0477664928039934"><ele>224.0</ele><time>2026-04-19T13:40:37.971Z</time></trkpt><trkpt lat="44.810284930455026" lon="1.0476146773947217"><ele>225.0</ele><time>2026-04-19T13:40:38.971Z</time></trkpt><trkpt lat="44.8103549906255" lon="1.0474796098386958"><ele>226.0</ele><time>2026-04-19T13:40:39.971Z</time></trkpt><trkpt lat="44.81041948933764" lon="1.047346494402486"><ele>227.0</ele><time>2026-04-19T13:40:40.971Z</time></trkpt><trkpt lat="44.810481202770056" lon="1.0472095225286502"><ele>228.0</ele><time>2026-04-19T13:40:41.971Z</time></trkpt><trkpt lat="44.810535631678384" lon="1.047068365029094"><ele>228.0</ele><time>2026-04-19T13:40:42.971Z</time></trkpt><trkpt lat="44.810584144890065" lon="1.0469310560304643"><ele>228.0</ele><time>2026-04-19T13:40:43.971Z</time></trkpt><trkpt lat="44.81064406308205" lon="1.046816451735123"><ele>228.0</ele><time>2026-04-19T13:40:44.971Z</time></trkpt><trkpt lat="44.810699708958836" lon="1.046706213744523"><ele>228.0</ele><time>2026-04-19T13:40:45.971Z</time></trkpt><trkpt lat="44.81076077287094" lon="1.0466062933170504"><ele>228.0</ele><time>2026-04-19T13:40:46.971Z</time></trkpt><trkpt lat="44.81081926533655" lon="1.0465111824921838"><ele>229.0</ele><time>2026-04-19T13:40:47.971Z</time></trkpt><trkpt lat="44.81087027374799" lon="1.0464181538057067"><ele>230.0</ele><time>2026-04-19T13:40:48.971Z</time></trkpt><trkpt lat="44.81092540862341" lon="1.0463327657807004"><ele>231.0</ele><time>2026-04-19T13:40:49.971Z</time></trkpt><trkpt lat="44.81105841789332" lon="1.0461365649299532"><ele>232.0</ele><time>2026-04-19T13:40:51.971Z</time></trkpt><trkpt lat="44.81112362758174" lon="1.046031599872454"><ele>232.0</ele><time>2026-04-19T13:40:52.971Z</time></trkpt><trkpt lat="44.81118905968683" lon="1.0459309484392834"><ele>232.0</ele><time>2026-04-19T13:40:53.971Z</time></trkpt><trkpt lat="44.81125796151343" lon="1.0458303433154843"><ele>232.0</ele><time>2026-04-19T13:40:54.971Z</time></trkpt><trkpt lat="44.81133101809056" lon="1.0457364553704587"><ele>232.0</ele><time>2026-04-19T13:40:55.968Z</time></trkpt><trkpt lat="44.81141471367813" lon="1.0456483965350036"><ele>232.0</ele><time>2026-04-19T13:40:56.967Z</time></trkpt><trkpt lat="44.81150504276232" lon="1.0455702110469927"><ele>232.0</ele><time>2026-04-19T13:40:57.967Z</time></trkpt><trkpt lat="44.8116154415137" lon="1.045505037058351"><ele>232.0</ele><time>2026-04-19T13:40:58.968Z</time></trkpt><trkpt lat="44.811740232164844" lon="1.0454419802275339"><ele>232.0</ele><time>2026-04-19T13:40:59.968Z</time></trkpt><trkpt lat="44.8118532073802" lon="1.045375908298562"><ele>232.0</ele><time>2026-04-19T13:41:00.968Z</time></trkpt><trkpt lat="44.81195627564665" lon="1.0453164750594508"><ele>232.0</ele><time>2026-04-19T13:41:01.968Z</time></trkpt><trkpt lat="44.81205671451591" lon="1.0452495642760513"><ele>232.0</ele><time>2026-04-19T13:41:02.968Z</time></trkpt><trkpt lat="44.81215152382838" lon="1.0452016715411467"><ele>232.0</ele><time>2026-04-19T13:41:03.968Z</time></trkpt><trkpt lat="44.81224108833215" lon="1.0451518772784205"><ele>232.0</ele><time>2026-04-19T13:41:04.968Z</time></trkpt><trkpt lat="44.812317256355044" lon="1.0451028001311045"><ele>232.0</ele><time>2026-04-19T13:41:05.968Z</time></trkpt><trkpt lat="44.812400456451456" lon="1.0450875219968945"><ele>231.99999999999997</ele><time>2026-04-19T13:41:06.968Z</time></trkpt><trkpt lat="44.81247303542882" lon="1.0450612296317237"><ele>232.0</ele><time>2026-04-19T13:41:07.967Z</time></trkpt><trkpt lat="44.81255617551063" lon="1.045053007876638"><ele>232.0</ele><time>2026-04-19T13:41:08.967Z</time></trkpt><trkpt lat="44.812638224269186" lon="1.0450611689123788"><ele>232.0</ele><time>2026-04-19T13:41:09.967Z</time></trkpt><trkpt lat="44.81271324800357" lon="1.045086222020896"><ele>231.99999999999997</ele><time>2026-04-19T13:41:10.967Z</time></trkpt><trkpt lat="44.81279997953175" lon="1.0451392969269235"><ele>232.0</ele><time>2026-04-19T13:41:11.967Z</time></trkpt><trkpt lat="44.812901493524855" lon="1.045223892664077"><ele>230.6</ele><time>2026-04-19T13:41:12.967Z</time></trkpt><trkpt lat="44.8130202333731" lon="1.0453299110680236"><ele>229.2</ele><time>2026-04-19T13:41:13.967Z</time></trkpt><trkpt lat="44.81311426388616" lon="1.0454055717392674"><ele>227.8</ele><time>2026-04-19T13:41:14.967Z</time></trkpt><trkpt lat="44.813188020427965" lon="1.045466755529622"><ele>226.4</ele><time>2026-04-19T13:41:15.967Z</time></trkpt><trkpt lat="44.8132489650011" lon="1.045537318025591"><ele>225.0</ele><time>2026-04-19T13:41:16.967Z</time></trkpt><trkpt lat="44.81330262936031" lon="1.0456214314711239"><ele>225.0</ele><time>2026-04-19T13:41:17.967Z</time></trkpt><trkpt lat="44.81335735574372" lon="1.0457431585615036"><ele>225.0</ele><time>2026-04-19T13:41:18.967Z</time></trkpt><trkpt lat="44.813404418605614" lon="1.0458655635417338"><ele>225.0</ele><time>2026-04-19T13:41:19.967Z</time></trkpt><trkpt lat="44.81345194684269" lon="1.0460118298963441"><ele>225.0</ele><time>2026-04-19T13:41:20.967Z</time></trkpt><trkpt lat="44.813487249151564" lon="1.0461504392562555"><ele>225.0</ele><time>2026-04-19T13:41:21.967Z</time></trkpt><trkpt lat="44.81352522942577" lon="1.046265673997921"><ele>224.75</ele><time>2026-04-19T13:41:22.967Z</time></trkpt><trkpt lat="44.81357195215514" lon="1.0463879389921762"><ele>224.5</ele><time>2026-04-19T13:41:23.967Z</time></trkpt><trkpt lat="44.813650695101366" lon="1.0465374215647203"><ele>224.25</ele><time>2026-04-19T13:41:24.967Z</time></trkpt><trkpt lat="44.813727941477275" lon="1.0466692289671646"><ele>224.0</ele><time>2026-04-19T13:41:25.967Z</time></trkpt><trkpt lat="44.81381816542225" lon="1.0468134054778744"><ele>227.75</ele><time>2026-04-19T13:41:26.968Z</time></trkpt><trkpt lat="44.813894739176305" lon="1.046930830047583"><ele>231.5</ele><time>2026-04-19T13:41:27.968Z</time></trkpt><trkpt lat="44.813983275929964" lon="1.0470457756689895"><ele>235.25</ele><time>2026-04-19T13:41:28.968Z</time></trkpt><trkpt lat="44.814043058566234" lon="1.0471643961974093"><ele>239.0</ele><time>2026-04-19T13:41:29.968Z</time></trkpt><trkpt lat="44.81411469192307" lon="1.047291129677824"><ele>239.00000000000003</ele><time>2026-04-19T13:41:30.968Z</time></trkpt><trkpt lat="44.81418029136879" lon="1.047382668115427"><ele>239.0</ele><time>2026-04-19T13:41:31.968Z</time></trkpt><trkpt lat="44.814252685366554" lon="1.0474561642107398"><ele>239.0</ele><time>2026-04-19T13:41:32.968Z</time></trkpt><trkpt lat="44.81432639191848" lon="1.047486798529612"><ele>239.0</ele><time>2026-04-19T13:41:33.968Z</time></trkpt><trkpt lat="44.8144082188944" lon="1.0474898433171558"><ele>239.00000000000003</ele><time>2026-04-19T13:41:34.968Z</time></trkpt><trkpt lat="44.814497099773355" lon="1.0474772405277566"><ele>239.0</ele><time>2026-04-19T13:41:35.968Z</time></trkpt><trkpt lat="44.814580973191376" lon="1.0474352992086151"><ele>240.2</ele><time>2026-04-19T13:41:36.968Z</time></trkpt><trkpt lat="44.81465346676441" lon="1.0473403664639438"><ele>241.39999999999998</ele><time>2026-04-19T13:41:37.968Z</time></trkpt><trkpt lat="44.814745993176466" lon="1.0472588206685611"><ele>242.6</ele><time>2026-04-19T13:41:38.968Z</time></trkpt><trkpt lat="44.81481808701397" lon="1.0471737604993492"><ele>243.8</ele><time>2026-04-19T13:41:39.968Z</time></trkpt><trkpt lat="44.814878346796206" lon="1.047089522383335"><ele>245.0</ele><time>2026-04-19T13:41:40.968Z</time></trkpt><trkpt lat="44.814935959077964" lon="1.047013384863026"><ele>245.00000000000003</ele><time>2026-04-19T13:41:41.968Z</time></trkpt><trkpt lat="44.81499282242756" lon="1.0469601465571041"><ele>245.0</ele><time>2026-04-19T13:41:42.968Z</time></trkpt><trkpt lat="44.81505203550919" lon="1.046906947796205"><ele>245.0</ele><time>2026-04-19T13:41:43.968Z</time></trkpt><trkpt lat="44.81512294572244" lon="1.0468748608184497"><ele>245.0</ele><time>2026-04-19T13:41:44.968Z</time></trkpt><trkpt lat="44.81519813461899" lon="1.046830485881285"><ele>245.00000000000003</ele><time>2026-04-19T13:41:45.968Z</time></trkpt><trkpt lat="44.8152869367507" lon="1.0468214718630187"><ele>245.0</ele><time>2026-04-19T13:41:46.968Z</time></trkpt><trkpt lat="44.815369655470626" lon="1.0468030879414383"><ele>245.50000000000003</ele><time>2026-04-19T13:41:47.968Z</time></trkpt><trkpt lat="44.8154415023152" lon="1.0467941000244663"><ele>246.0</ele><time>2026-04-19T13:41:48.968Z</time></trkpt><trkpt lat="44.81550468273956" lon="1.0467919137263229"><ele>246.5</ele><time>2026-04-19T13:41:49.968Z</time></trkpt><trkpt lat="44.81556800990312" lon="1.0467918387805053"><ele>247.0</ele><time>2026-04-19T13:41:50.968Z</time></trkpt><trkpt lat="44.81568197083954" lon="1.0467178574841323"><ele>247.50000000000003</ele><time>2026-04-19T13:41:52.968Z</time></trkpt><trkpt lat="44.81572064353621" lon="1.0466154963178462"><ele>248.0</ele><time>2026-04-19T13:41:53.968Z</time></trkpt><trkpt lat="44.81576255441262" lon="1.0464864057366556"><ele>245.75</ele><time>2026-04-19T13:41:54.968Z</time></trkpt><trkpt lat="44.815817352049606" lon="1.0463291144408347"><ele>243.5</ele><time>2026-04-19T13:41:55.968Z</time></trkpt><trkpt lat="44.815864777635234" lon="1.0461898612937663"><ele>241.25</ele><time>2026-04-19T13:41:56.968Z</time></trkpt><trkpt lat="44.81592197652802" lon="1.0460331354657462"><ele>239.0</ele><time>2026-04-19T13:41:57.968Z</time></trkpt><trkpt lat="44.81597939697799" lon="1.045888284359717"><ele>237.25</ele><time>2026-04-19T13:41:58.968Z</time></trkpt><trkpt lat="44.816022132412634" lon="1.045740881667393"><ele>235.5</ele><time>2026-04-19T13:41:59.968Z</time></trkpt><trkpt lat="44.8160589834535" lon="1.04559027834888"><ele>233.75</ele><time>2026-04-19T13:42:00.968Z</time></trkpt><trkpt lat="44.81608025257334" lon="1.0454347044413226"><ele>232.0</ele><time>2026-04-19T13:42:01.968Z</time></trkpt><trkpt lat="44.81610492063769" lon="1.0452818413238176"><ele>232.0</ele><time>2026-04-19T13:42:02.968Z</time></trkpt><trkpt lat="44.81614475928767" lon="1.0451416413379953"><ele>232.0</ele><time>2026-04-19T13:42:03.968Z</time></trkpt><trkpt lat="44.8161716172965" lon="1.044985313050172"><ele>232.0</ele><time>2026-04-19T13:42:04.968Z</time></trkpt><trkpt lat="44.81617778204731" lon="1.0448156119278627"><ele>232.0</ele><time>2026-04-19T13:42:05.968Z</time></trkpt><trkpt lat="44.816191974153135" lon="1.0446728236034832"><ele>232.0</ele><time>2026-04-19T13:42:06.968Z</time></trkpt><trkpt lat="44.816199221457595" lon="1.0445094338956078"><ele>232.75</ele><time>2026-04-19T13:42:07.968Z</time></trkpt><trkpt lat="44.81620127755804" lon="1.0443446893474462"><ele>233.5</ele><time>2026-04-19T13:42:08.968Z</time></trkpt><trkpt lat="44.8161923455778" lon="1.0441796345039034"><ele>234.25</ele><time>2026-04-19T13:42:09.968Z</time></trkpt><trkpt lat="44.81618905239086" lon="1.0440195732501723"><ele>235.0</ele><time>2026-04-19T13:42:10.969Z</time></trkpt><trkpt lat="44.81616254884596" lon="1.0438802875102322"><ele>235.0</ele><time>2026-04-19T13:42:11.969Z</time></trkpt><trkpt lat="44.816159634481515" lon="1.0437245011178218"><ele>235.0</ele><time>2026-04-19T13:42:12.969Z</time></trkpt><trkpt lat="44.81615078589054" lon="1.0435728394750698"><ele>235.0</ele><time>2026-04-19T13:42:13.969Z</time></trkpt><trkpt lat="44.81615046658036" lon="1.0434209158516776"><ele>235.0</ele><time>2026-04-19T13:42:14.969Z</time></trkpt><trkpt lat="44.81612882152885" lon="1.0432674856690767"><ele>235.0</ele><time>2026-04-19T13:42:15.969Z</time></trkpt><trkpt lat="44.81612651011841" lon="1.0431033577713533"><ele>234.5</ele><time>2026-04-19T13:42:16.969Z</time></trkpt><trkpt lat="44.816133550438416" lon="1.0429342399773518"><ele>234.0</ele><time>2026-04-19T13:42:17.969Z</time></trkpt><trkpt lat="44.81613915294211" lon="1.0427597653933713"><ele>233.5</ele><time>2026-04-19T13:42:18.969Z</time></trkpt><trkpt lat="44.81615872886217" lon="1.0425566869510243"><ele>233.0</ele><time>2026-04-19T13:42:19.969Z</time></trkpt><trkpt lat="44.81616265482822" lon="1.0423854243682213"><ele>231.25</ele><time>2026-04-19T13:42:20.969Z</time></trkpt><trkpt lat="44.816179768928166" lon="1.0422002357191535"><ele>229.5</ele><time>2026-04-19T13:42:21.969Z</time></trkpt><trkpt lat="44.81618141023506" lon="1.0420492245299007"><ele>227.75</ele><time>2026-04-19T13:42:22.969Z</time></trkpt><trkpt lat="44.816194253201786" lon="1.041866949726701"><ele>226.0</ele><time>2026-04-19T13:42:23.969Z</time></trkpt><trkpt lat="44.816206749137685" lon="1.0416808857333721"><ele>224.0</ele><time>2026-04-19T13:42:24.969Z</time></trkpt><trkpt lat="44.81620675318143" lon="1.0414935313107478"><ele>222.0</ele><time>2026-04-19T13:42:25.969Z</time></trkpt><trkpt lat="44.816206630057316" lon="1.041285554599237"><ele>220.0</ele><time>2026-04-19T13:42:26.969Z</time></trkpt><trkpt lat="44.81618415231419" lon="1.0410604682910218"><ele>218.0</ele><time>2026-04-19T13:42:27.969Z</time></trkpt><trkpt lat="44.81615794928379" lon="1.0408453972983231"><ele>216.66666666666669</ele><time>2026-04-19T13:42:28.969Z</time></trkpt><trkpt lat="44.81613691714982" lon="1.040631973274887"><ele>215.33333333333331</ele><time>2026-04-19T13:42:29.969Z</time></trkpt><trkpt lat="44.81612944140742" lon="1.0404111911111429"><ele>214.0</ele><time>2026-04-19T13:42:30.969Z</time></trkpt><trkpt lat="44.81613350617966" lon="1.040204974475952"><ele>214.0</ele><time>2026-04-19T13:42:31.969Z</time></trkpt><trkpt lat="44.81614798807474" lon="1.0400047292936148"><ele>214.0</ele><time>2026-04-19T13:42:32.969Z</time></trkpt><trkpt lat="44.81615259099874" lon="1.0398006175494134"><ele>214.0</ele><time>2026-04-19T13:42:33.969Z</time></trkpt><trkpt lat="44.81615316831024" lon="1.0396024706613225"><ele>214.0</ele><time>2026-04-19T13:42:34.969Z</time></trkpt><trkpt lat="44.816158437938626" lon="1.0394308640544323"><ele>214.5</ele><time>2026-04-19T13:42:35.969Z</time></trkpt><trkpt lat="44.81615253474146" lon="1.0392775258037334"><ele>215.0</ele><time>2026-04-19T13:42:36.969Z</time></trkpt><trkpt lat="44.81615585029643" lon="1.0391348943586995"><ele>215.5</ele><time>2026-04-19T13:42:37.969Z</time></trkpt><trkpt lat="44.816156246272485" lon="1.0389618457599563"><ele>216.0</ele><time>2026-04-19T13:42:38.969Z</time></trkpt><trkpt lat="44.816119824922154" lon="1.038787888167972"><ele>216.0</ele><time>2026-04-19T13:42:39.969Z</time></trkpt><trkpt lat="44.81608657591331" lon="1.0386035664615656"><ele>216.0</ele><time>2026-04-19T13:42:40.969Z</time></trkpt><trkpt lat="44.81606915042208" lon="1.0384165676442763"><ele>216.0</ele><time>2026-04-19T13:42:41.969Z</time></trkpt><trkpt lat="44.816048693288735" lon="1.0382341871780858"><ele>216.0</ele><time>2026-04-19T13:42:42.969Z</time></trkpt><trkpt lat="44.81603447637653" lon="1.0380433040475945"><ele>215.0</ele><time>2026-04-19T13:42:43.969Z</time></trkpt><trkpt lat="44.81601944737899" lon="1.0378683670958575"><ele>214.0</ele><time>2026-04-19T13:42:44.969Z</time></trkpt><trkpt lat="44.81600776062349" lon="1.0376821571766683"><ele>213.0</ele><time>2026-04-19T13:42:45.969Z</time></trkpt><trkpt lat="44.816000440486384" lon="1.0375277700820147"><ele>212.0</ele><time>2026-04-19T13:42:46.969Z</time></trkpt><trkpt lat="44.815998554884125" lon="1.0373674579645158"><ele>212.0</ele><time>2026-04-19T13:42:47.969Z</time></trkpt><trkpt lat="44.8160021653246" lon="1.037216966212371"><ele>212.0</ele><time>2026-04-19T13:42:48.969Z</time></trkpt><trkpt lat="44.81601051386213" lon="1.037073581356734"><ele>212.0</ele><time>2026-04-19T13:42:49.969Z</time></trkpt><trkpt lat="44.816022903138034" lon="1.0369229461950895"><ele>212.0</ele><time>2026-04-19T13:42:50.969Z</time></trkpt><trkpt lat="44.816038819326124" lon="1.0367776109240503"><ele>212.0</ele><time>2026-04-19T13:42:51.969Z</time></trkpt><trkpt lat="44.81605258575708" lon="1.0366298577518172"><ele>211.25</ele><time>2026-04-19T13:42:52.969Z</time></trkpt><trkpt lat="44.81607947992891" lon="1.0364761184809117"><ele>210.5</ele><time>2026-04-19T13:42:53.97Z</time></trkpt><trkpt lat="44.81609901952917" lon="1.0363170108790407"><ele>209.75</ele><time>2026-04-19T13:42:54.97Z</time></trkpt><trkpt lat="44.81614218868713" lon="1.0361721302988522"><ele>209.0</ele><time>2026-04-19T13:42:55.97Z</time></trkpt><trkpt lat="44.81617502662442" lon="1.0360172895756241"><ele>209.0</ele><time>2026-04-19T13:42:56.97Z</time></trkpt><trkpt lat="44.81619532792179" lon="1.0358590336751532"><ele>209.0</ele><time>2026-04-19T13:42:57.97Z</time></trkpt><trkpt lat="44.81623704182092" lon="1.0356996349841054"><ele>209.0</ele><time>2026-04-19T13:42:58.97Z</time></trkpt><trkpt lat="44.81629080014219" lon="1.0355425588624974"><ele>209.0</ele><time>2026-04-19T13:42:59.97Z</time></trkpt><trkpt lat="44.816348048504146" lon="1.035390634938684"><ele>208.75</ele><time>2026-04-19T13:43:00.97Z</time></trkpt><trkpt lat="44.81642543605108" lon="1.0352375622935208"><ele>208.5</ele><time>2026-04-19T13:43:01.966Z</time></trkpt><trkpt lat="44.816519005565816" lon="1.0350917833801638"><ele>208.25</ele><time>2026-04-19T13:43:02.966Z</time></trkpt><trkpt lat="44.8166204804679" lon="1.0349560064059378"><ele>208.0</ele><time>2026-04-19T13:43:03.966Z</time></trkpt><trkpt lat="44.81672238096895" lon="1.0348449054529025"><ele>208.0</ele><time>2026-04-19T13:43:04.967Z</time></trkpt><trkpt lat="44.81680375512393" lon="1.034724748834347"><ele>208.0</ele><time>2026-04-19T13:43:05.966Z</time></trkpt><trkpt lat="44.81687514589461" lon="1.034612559229484"><ele>208.0</ele><time>2026-04-19T13:43:06.966Z</time></trkpt><trkpt lat="44.81694456128643" lon="1.0344903360761364"><ele>208.0</ele><time>2026-04-19T13:43:07.966Z</time></trkpt><trkpt lat="44.81700639200007" lon="1.034360333930251"><ele>208.0</ele><time>2026-04-19T13:43:08.966Z</time></trkpt><trkpt lat="44.81706476854098" lon="1.0342341682983318"><ele>209.4</ele><time>2026-04-19T13:43:09.966Z</time></trkpt><trkpt lat="44.81712919041844" lon="1.0341224550526864"><ele>210.8</ele><time>2026-04-19T13:43:10.966Z</time></trkpt><trkpt lat="44.81720642989779" lon="1.0340342398469835"><ele>212.2</ele><time>2026-04-19T13:43:11.967Z</time></trkpt><trkpt lat="44.817286973510456" lon="1.0339347932298917"><ele>213.6</ele><time>2026-04-19T13:43:12.967Z</time></trkpt><trkpt lat="44.81737563628103" lon="1.0338169991729078"><ele>215.0</ele><time>2026-04-19T13:43:13.966Z</time></trkpt><trkpt lat="44.81747346140443" lon="1.0337053565813594"><ele>215.0</ele><time>2026-04-19T13:43:14.966Z</time></trkpt><trkpt lat="44.81756156725863" lon="1.0335522403126263"><ele>215.0</ele><time>2026-04-19T13:43:15.966Z</time></trkpt><trkpt lat="44.817640411754" lon="1.0333670540353335"><ele>215.0</ele><time>2026-04-19T13:43:16.966Z</time></trkpt><trkpt lat="44.81771907299401" lon="1.0331828539876482"><ele>215.0</ele><time>2026-04-19T13:43:17.966Z</time></trkpt><trkpt lat="44.817791845359025" lon="1.033006646877426"><ele>213.75</ele><time>2026-04-19T13:43:18.966Z</time></trkpt><trkpt lat="44.81786221645955" lon="1.032853797901938"><ele>212.5</ele><time>2026-04-19T13:43:19.966Z</time></trkpt><trkpt lat="44.81790930834961" lon="1.0327049286964254"><ele>211.25</ele><time>2026-04-19T13:43:20.966Z</time></trkpt><trkpt lat="44.81794626533852" lon="1.0325658306146706"><ele>210.0</ele><time>2026-04-19T13:43:21.966Z</time></trkpt><trkpt lat="44.81799872825842" lon="1.032427759123408"><ele>209.6</ele><time>2026-04-19T13:43:22.966Z</time></trkpt><trkpt lat="44.81804378058843" lon="1.032286861735909"><ele>209.2</ele><time>2026-04-19T13:43:23.966Z</time></trkpt><trkpt lat="44.818097536818634" lon="1.032159543823968"><ele>208.8</ele><time>2026-04-19T13:43:24.966Z</time></trkpt><trkpt lat="44.81816410227607" lon="1.0320372130756654"><ele>208.4</ele><time>2026-04-19T13:43:25.966Z</time></trkpt><trkpt lat="44.81824357250195" lon="1.031908142497817"><ele>208.0</ele><time>2026-04-19T13:43:26.966Z</time></trkpt><trkpt lat="44.81832050077704" lon="1.0317788777316892"><ele>208.0</ele><time>2026-04-19T13:43:27.966Z</time></trkpt><trkpt lat="44.818375357596786" lon="1.0316426912287426"><ele>208.0</ele><time>2026-04-19T13:43:28.966Z</time></trkpt><trkpt lat="44.81842539502306" lon="1.0314922310038634"><ele>208.0</ele><time>2026-04-19T13:43:29.966Z</time></trkpt><trkpt lat="44.81846295779821" lon="1.0313203285061725"><ele>208.0</ele><time>2026-04-19T13:43:30.966Z</time></trkpt><trkpt lat="44.818495011877296" lon="1.0311290531874389"><ele>207.2</ele><time>2026-04-19T13:43:31.966Z</time></trkpt><trkpt lat="44.81851805215892" lon="1.0309583680436087"><ele>206.4</ele><time>2026-04-19T13:43:32.966Z</time></trkpt><trkpt lat="44.81853403125544" lon="1.0307971665842413"><ele>205.6</ele><time>2026-04-19T13:43:33.966Z</time></trkpt><trkpt lat="44.81854659761735" lon="1.0306563958412778"><ele>204.79999999999998</ele><time>2026-04-19T13:43:34.966Z</time></trkpt><trkpt lat="44.81854308991044" lon="1.0305291554680478"><ele>204.0</ele><time>2026-04-19T13:43:35.966Z</time></trkpt><trkpt lat="44.818524989580474" lon="1.0303515790835671"><ele>206.5</ele><time>2026-04-19T13:43:36.966Z</time></trkpt><trkpt lat="44.81847743744892" lon="1.0301764483679"><ele>209.0</ele><time>2026-04-19T13:43:37.966Z</time></trkpt><trkpt lat="44.81843496343028" lon="1.0300155851457493"><ele>211.5</ele><time>2026-04-19T13:43:38.966Z</time></trkpt><trkpt lat="44.81841211794657" lon="1.0298692788501924"><ele>214.0</ele><time>2026-04-19T13:43:39.966Z</time></trkpt><trkpt lat="44.81838771857899" lon="1.0297365211345197"><ele>215.0</ele><time>2026-04-19T13:43:40.966Z</time></trkpt><trkpt lat="44.81838091267918" lon="1.0296110787161534"><ele>215.99999999999997</ele><time>2026-04-19T13:43:41.966Z</time></trkpt><trkpt lat="44.818366713721744" lon="1.0294753159119299"><ele>216.99999999999997</ele><time>2026-04-19T13:43:42.966Z</time></trkpt><trkpt lat="44.81837197199234" lon="1.0293556381869655"><ele>218.0</ele><time>2026-04-19T13:43:43.966Z</time></trkpt><trkpt lat="44.818410193693246" lon="1.0292205987700203"><ele>219.0</ele><time>2026-04-19T13:43:44.966Z</time></trkpt><trkpt lat="44.818426444126096" lon="1.0290856804682444"><ele>219.79999999999998</ele><time>2026-04-19T13:43:45.966Z</time></trkpt><trkpt lat="44.8184509476474" lon="1.0289602931219353"><ele>220.59999999999997</ele><time>2026-04-19T13:43:46.966Z</time></trkpt><trkpt lat="44.81847654744108" lon="1.0288329937611118"><ele>221.4</ele><time>2026-04-19T13:43:47.966Z</time></trkpt><trkpt lat="44.81850728404738" lon="1.0286812348700216"><ele>222.2</ele><time>2026-04-19T13:43:48.966Z</time></trkpt><trkpt lat="44.818540528894246" lon="1.0285470688931977"><ele>223.0</ele><time>2026-04-19T13:43:49.966Z</time></trkpt><trkpt lat="44.818576833626906" lon="1.0284004642891436"><ele>221.25</ele><time>2026-04-19T13:43:50.966Z</time></trkpt><trkpt lat="44.818613210863745" lon="1.0282596583054096"><ele>219.5</ele><time>2026-04-19T13:43:51.966Z</time></trkpt><trkpt lat="44.81865960068372" lon="1.0281144453831812"><ele>217.75</ele><time>2026-04-19T13:43:52.966Z</time></trkpt><trkpt lat="44.818725221397614" lon="1.0279443184273884"><ele>216.0</ele><time>2026-04-19T13:43:53.966Z</time></trkpt><trkpt lat="44.81877407377372" lon="1.02780085372343"><ele>216.0</ele><time>2026-04-19T13:43:54.966Z</time></trkpt><trkpt lat="44.81880021374872" lon="1.0276513359515909"><ele>216.00000000000003</ele><time>2026-04-19T13:43:55.967Z</time></trkpt><trkpt lat="44.81882676357634" lon="1.0274973520937667"><ele>216.00000000000003</ele><time>2026-04-19T13:43:56.967Z</time></trkpt><trkpt lat="44.81883617294972" lon="1.027356701861517"><ele>216.0</ele><time>2026-04-19T13:43:57.967Z</time></trkpt><trkpt lat="44.818818629620175" lon="1.0272135454224958"><ele>216.0</ele><time>2026-04-19T13:43:58.968Z</time></trkpt><trkpt lat="44.818768722873116" lon="1.027062169338034"><ele>216.5</ele><time>2026-04-19T13:43:59.968Z</time></trkpt><trkpt lat="44.8187115829234" lon="1.026902323680211"><ele>217.0</ele><time>2026-04-19T13:44:00.968Z</time></trkpt><trkpt lat="44.81864621875035" lon="1.0267601270390043"><ele>217.5</ele><time>2026-04-19T13:44:01.968Z</time></trkpt><trkpt lat="44.81857702135399" lon="1.0266224340098586"><ele>218.0</ele><time>2026-04-19T13:44:02.968Z</time></trkpt><trkpt lat="44.81849779693684" lon="1.0265165149289739"><ele>219.60000000000002</ele><time>2026-04-19T13:44:03.969Z</time></trkpt><trkpt lat="44.81841371009203" lon="1.0264073479861064"><ele>221.20000000000002</ele><time>2026-04-19T13:44:04.969Z</time></trkpt><trkpt lat="44.81833059165051" lon="1.0262843752016007"><ele>222.8</ele><time>2026-04-19T13:44:05.97Z</time></trkpt><trkpt lat="44.81825732014273" lon="1.0261791612241542"><ele>224.4</ele><time>2026-04-19T13:44:06.97Z</time></trkpt><trkpt lat="44.81817293908027" lon="1.0260852546596433"><ele>226.0</ele><time>2026-04-19T13:44:07.97Z</time></trkpt><trkpt lat="44.818108013351974" lon="1.0259777993981298"><ele>226.0</ele><time>2026-04-19T13:44:08.971Z</time></trkpt><trkpt lat="44.81804387243087" lon="1.025821449699351"><ele>226.0</ele><time>2026-04-19T13:44:09.971Z</time></trkpt><trkpt lat="44.81799757096352" lon="1.025628760336875"><ele>226.0</ele><time>2026-04-19T13:44:10.971Z</time></trkpt><trkpt lat="44.81796519083769" lon="1.0254479220842467"><ele>226.0</ele><time>2026-04-19T13:44:11.972Z</time></trkpt><trkpt lat="44.81791812248234" lon="1.0252743403333762"><ele>225.20000000000002</ele><time>2026-04-19T13:44:12.972Z</time></trkpt><trkpt lat="44.81788680656701" lon="1.025138860180364"><ele>224.40000000000003</ele><time>2026-04-19T13:44:13.972Z</time></trkpt><trkpt lat="44.81786996463849" lon="1.025023661522699"><ele>223.6</ele><time>2026-04-19T13:44:14.972Z</time></trkpt><trkpt lat="44.81785392179384" lon="1.0249247316072567"><ele>222.8</ele><time>2026-04-19T13:44:15.973Z</time></trkpt><trkpt lat="44.817847470287255" lon="1.0247831647716974"><ele>222.0</ele><time>2026-04-19T13:44:16.973Z</time></trkpt><trkpt lat="44.817862477747724" lon="1.0246325547253117"><ele>220.75</ele><time>2026-04-19T13:44:17.973Z</time></trkpt><trkpt lat="44.8179123468831" lon="1.0244782064363058"><ele>219.5</ele><time>2026-04-19T13:44:18.973Z</time></trkpt><trkpt lat="44.81798100147658" lon="1.024310329203142"><ele>218.25</ele><time>2026-04-19T13:44:19.973Z</time></trkpt><trkpt lat="44.818036096703956" lon="1.0241538976609483"><ele>217.0</ele><time>2026-04-19T13:44:20.974Z</time></trkpt><trkpt lat="44.818072492327815" lon="1.02400077281929"><ele>217.0</ele><time>2026-04-19T13:44:21.974Z</time></trkpt><trkpt lat="44.8180986474656" lon="1.0238555699193932"><ele>217.0</ele><time>2026-04-19T13:44:22.974Z</time></trkpt><trkpt lat="44.81809938367233" lon="1.0237250480724287"><ele>217.0</ele><time>2026-04-19T13:44:23.974Z</time></trkpt><trkpt lat="44.81808650336284" lon="1.0235728589975726"><ele>217.0</ele><time>2026-04-19T13:44:24.974Z</time></trkpt><trkpt lat="44.818060917228905" lon="1.023435960300194"><ele>217.0</ele><time>2026-04-19T13:44:25.974Z</time></trkpt><trkpt lat="44.81803732068805" lon="1.0232998827102633"><ele>217.39999999999998</ele><time>2026-04-19T13:44:26.975Z</time></trkpt><trkpt lat="44.81802662794676" lon="1.0231625618532043"><ele>217.79999999999998</ele><time>2026-04-19T13:44:27.975Z</time></trkpt><trkpt lat="44.81803077565007" lon="1.0230346617333244"><ele>218.2</ele><time>2026-04-19T13:44:28.975Z</time></trkpt><trkpt lat="44.81803350969515" lon="1.022912279156311"><ele>218.6</ele><time>2026-04-19T13:44:29.975Z</time></trkpt><trkpt lat="44.818054317189706" lon="1.0227676224416375"><ele>219.0</ele><time>2026-04-19T13:44:30.975Z</time></trkpt><trkpt lat="44.81807019040513" lon="1.0226269226126794"><ele>219.2</ele><time>2026-04-19T13:44:31.975Z</time></trkpt><trkpt lat="44.81808028913874" lon="1.0224789142438162"><ele>219.39999999999998</ele><time>2026-04-19T13:44:32.975Z</time></trkpt><trkpt lat="44.818099219016695" lon="1.022314074780094"><ele>219.6</ele><time>2026-04-19T13:44:33.975Z</time></trkpt><trkpt lat="44.818109406208556" lon="1.0221599250094038"><ele>219.8</ele><time>2026-04-19T13:44:34.975Z</time></trkpt><trkpt lat="44.818118667989" lon="1.022013549598303"><ele>220.0</ele><time>2026-04-19T13:44:35.975Z</time></trkpt><trkpt lat="44.81812354260794" lon="1.0218533746708192"><ele>220.0</ele><time>2026-04-19T13:44:36.976Z</time></trkpt><trkpt lat="44.81814504006632" lon="1.021700841259497"><ele>220.0</ele><time>2026-04-19T13:44:37.976Z</time></trkpt><trkpt lat="44.81813418239651" lon="1.021582132959037"><ele>220.0</ele><time>2026-04-19T13:44:38.976Z</time></trkpt><trkpt lat="44.818114383180266" lon="1.0214433377158463"><ele>220.0</ele><time>2026-04-19T13:44:39.976Z</time></trkpt><trkpt lat="44.81810201575977" lon="1.0213043009687648"><ele>220.0</ele><time>2026-04-19T13:44:40.976Z</time></trkpt><trkpt lat="44.818085804915455" lon="1.0211619999695682"><ele>220.0</ele><time>2026-04-19T13:44:41.976Z</time></trkpt><trkpt lat="44.81804011195345" lon="1.0210488345327546"><ele>220.0</ele><time>2026-04-19T13:44:42.976Z</time></trkpt><trkpt lat="44.81798927676123" lon="1.0209346489552125"><ele>220.0</ele><time>2026-04-19T13:44:43.976Z</time></trkpt><trkpt lat="44.81793082562873" lon="1.0208144129935175"><ele>220.0</ele><time>2026-04-19T13:44:44.976Z</time></trkpt><trkpt lat="44.81787329660627" lon="1.0206799646277003"><ele>220.0</ele><time>2026-04-19T13:44:45.976Z</time></trkpt><trkpt lat="44.817818599689986" lon="1.0205550803626207"><ele>219.6</ele><time>2026-04-19T13:44:46.976Z</time></trkpt><trkpt lat="44.817745826128345" lon="1.0204349020001218"><ele>219.2</ele><time>2026-04-19T13:44:47.976Z</time></trkpt><trkpt lat="44.81769100696615" lon="1.0203310487351884"><ele>218.8</ele><time>2026-04-19T13:44:48.976Z</time></trkpt><trkpt lat="44.8176464563437" lon="1.020187221895005"><ele>218.4</ele><time>2026-04-19T13:44:49.976Z</time></trkpt><trkpt lat="44.81759954856551" lon="1.0200512888405682"><ele>218.0</ele><time>2026-04-19T13:44:50.976Z</time></trkpt><trkpt lat="44.817554957065326" lon="1.0199156110288738"><ele>214.4</ele><time>2026-04-19T13:44:51.976Z</time></trkpt><trkpt lat="44.817519104848" lon="1.019783897907681"><ele>210.8</ele><time>2026-04-19T13:44:52.976Z</time></trkpt><trkpt lat="44.817485372136666" lon="1.0196670812170932"><ele>207.2</ele><time>2026-04-19T13:44:53.976Z</time></trkpt><trkpt lat="44.817453728264134" lon="1.0195419576784217"><ele>203.6</ele><time>2026-04-19T13:44:54.977Z</time></trkpt><trkpt lat="44.817429618147344" lon="1.019401940440083"><ele>200.0</ele><time>2026-04-19T13:44:55.977Z</time></trkpt><trkpt lat="44.817413472934824" lon="1.0192594626432157"><ele>199.5</ele><time>2026-04-19T13:44:56.977Z</time></trkpt><trkpt lat="44.81740246545501" lon="1.0190984877634586"><ele>199.0</ele><time>2026-04-19T13:44:57.977Z</time></trkpt><trkpt lat="44.81739768541471" lon="1.018922201546269"><ele>198.5</ele><time>2026-04-19T13:44:58.977Z</time></trkpt><trkpt lat="44.81736702385828" lon="1.01875722305256"><ele>198.0</ele><time>2026-04-19T13:44:59.977Z</time></trkpt><trkpt lat="44.817348552623685" lon="1.0185689608849997"><ele>198.0</ele><time>2026-04-19T13:45:00.977Z</time></trkpt><trkpt lat="44.81733828495487" lon="1.0184050259928479"><ele>198.0</ele><time>2026-04-19T13:45:01.977Z</time></trkpt><trkpt lat="44.817326583862894" lon="1.0182372455279602"><ele>198.0</ele><time>2026-04-19T13:45:02.977Z</time></trkpt><trkpt lat="44.817315597411216" lon="1.0180680234430355"><ele>198.0</ele><time>2026-04-19T13:45:03.977Z</time></trkpt><trkpt lat="44.817289034957746" lon="1.0179091889171004"><ele>196.5</ele><time>2026-04-19T13:45:04.977Z</time></trkpt><trkpt lat="44.8172688984973" lon="1.0177568682537161"><ele>195.0</ele><time>2026-04-19T13:45:05.977Z</time></trkpt><trkpt lat="44.817250047106135" lon="1.0175896099141943"><ele>193.5</ele><time>2026-04-19T13:45:06.977Z</time></trkpt><trkpt lat="44.81723865517649" lon="1.0173932695247196"><ele>192.0</ele><time>2026-04-19T13:45:07.974Z</time></trkpt><trkpt lat="44.81721814160969" lon="1.0171966500583134"><ele>189.25</ele><time>2026-04-19T13:45:08.974Z</time></trkpt><trkpt lat="44.81719509133068" lon="1.0170070187926703"><ele>186.5</ele><time>2026-04-19T13:45:09.974Z</time></trkpt><trkpt lat="44.81715739198145" lon="1.0168296222743527"><ele>183.75</ele><time>2026-04-19T13:45:10.974Z</time></trkpt><trkpt lat="44.81712570818248" lon="1.016659293246769"><ele>181.0</ele><time>2026-04-19T13:45:11.973Z</time></trkpt><trkpt lat="44.81707885306818" lon="1.016481845582211"><ele>180.25</ele><time>2026-04-19T13:45:12.973Z</time></trkpt><trkpt lat="44.81704280912532" lon="1.0163058500123308"><ele>179.5</ele><time>2026-04-19T13:45:13.974Z</time></trkpt><trkpt lat="44.817007397942575" lon="1.0161400799389335"><ele>178.75</ele><time>2026-04-19T13:45:14.974Z</time></trkpt><trkpt lat="44.816967320533976" lon="1.0159702489763813"><ele>178.0</ele><time>2026-04-19T13:45:15.974Z</time></trkpt><trkpt lat="44.81692807593654" lon="1.0158142011894087"><ele>177.4</ele><time>2026-04-19T13:45:16.974Z</time></trkpt><trkpt lat="44.81688894742715" lon="1.0156614305807752"><ele>176.8</ele><time>2026-04-19T13:45:17.973Z</time></trkpt><trkpt lat="44.81684761523924" lon="1.015512983869823"><ele>176.2</ele><time>2026-04-19T13:45:18.974Z</time></trkpt><trkpt lat="44.81680772930205" lon="1.0153737320901126"><ele>175.6</ele><time>2026-04-19T13:45:19.974Z</time></trkpt><trkpt lat="44.816790325835385" lon="1.0152327374933225"><ele>175.0</ele><time>2026-04-19T13:45:20.973Z</time></trkpt><trkpt lat="44.81676689577474" lon="1.0150991055113605"><ele>171.8</ele><time>2026-04-19T13:45:21.973Z</time></trkpt><trkpt lat="44.81674207216929" lon="1.0149770886537992"><ele>168.6</ele><time>2026-04-19T13:45:22.973Z</time></trkpt><trkpt lat="44.816731800217056" lon="1.0148573305983666"><ele>165.4</ele><time>2026-04-19T13:45:23.973Z</time></trkpt><trkpt lat="44.81674200540732" lon="1.0147289313284336"><ele>162.2</ele><time>2026-04-19T13:45:24.973Z</time></trkpt><trkpt lat="44.816763605588434" lon="1.0146094165905704"><ele>159.0</ele><time>2026-04-19T13:45:25.973Z</time></trkpt><trkpt lat="44.81679269271647" lon="1.014473584766835"><ele>158.6</ele><time>2026-04-19T13:45:26.973Z</time></trkpt><trkpt lat="44.81682656184695" lon="1.0143391127947823"><ele>158.2</ele><time>2026-04-19T13:45:27.973Z</time></trkpt><trkpt lat="44.81687499320665" lon="1.0142136880554953"><ele>157.79999999999998</ele><time>2026-04-19T13:45:28.973Z</time></trkpt><trkpt lat="44.816945401293495" lon="1.0140882525523702"><ele>157.4</ele><time>2026-04-19T13:45:29.973Z</time></trkpt><trkpt lat="44.817026067010495" lon="1.013962823952153"><ele>157.0</ele><time>2026-04-19T13:45:30.973Z</time></trkpt><trkpt lat="44.8171148270971" lon="1.0138288002711038"><ele>157.0</ele><time>2026-04-19T13:45:31.973Z</time></trkpt><trkpt lat="44.817220039714826" lon="1.0136729228895598"><ele>157.0</ele><time>2026-04-19T13:45:32.973Z</time></trkpt><trkpt lat="44.81731485207247" lon="1.0135479879906788"><ele>157.0</ele><time>2026-04-19T13:45:33.973Z</time></trkpt><trkpt lat="44.81739196048846" lon="1.0134255298464554"><ele>157.0</ele><time>2026-04-19T13:45:34.973Z</time></trkpt><trkpt lat="44.81744901791181" lon="1.0133092818787899"><ele>155.6</ele><time>2026-04-19T13:45:35.973Z</time></trkpt><trkpt lat="44.817516521385976" lon="1.0132002115717975"><ele>154.2</ele><time>2026-04-19T13:45:36.973Z</time></trkpt><trkpt lat="44.817567403023624" lon="1.0130940456315976"><ele>152.8</ele><time>2026-04-19T13:45:37.973Z</time></trkpt><trkpt lat="44.81758987952284" lon="1.012954514474872"><ele>151.4</ele><time>2026-04-19T13:45:38.973Z</time></trkpt><trkpt lat="44.81758393793446" lon="1.0128196938607041"><ele>150.0</ele><time>2026-04-19T13:45:39.974Z</time></trkpt><trkpt lat="44.81755279615837" lon="1.0126558901283924"><ele>150.75</ele><time>2026-04-19T13:45:40.974Z</time></trkpt><trkpt lat="44.81751004048271" lon="1.0124740204531881"><ele>151.5</ele><time>2026-04-19T13:45:41.974Z</time></trkpt><trkpt lat="44.817471541008594" lon="1.0122928414636514"><ele>152.25</ele><time>2026-04-19T13:45:42.974Z</time></trkpt><trkpt lat="44.81744241016401" lon="1.012112171586808"><ele>153.0</ele><time>2026-04-19T13:45:43.974Z</time></trkpt><trkpt lat="44.817415474991805" lon="1.0119456916551173"><ele>153.0</ele><time>2026-04-19T13:45:44.974Z</time></trkpt><trkpt lat="44.81739217355938" lon="1.0117897204493327"><ele>153.0</ele><time>2026-04-19T13:45:45.974Z</time></trkpt><trkpt lat="44.81739025746555" lon="1.0116217709386373"><ele>153.0</ele><time>2026-04-19T13:45:46.974Z</time></trkpt><trkpt lat="44.817412809551584" lon="1.0114593653277153"><ele>153.0</ele><time>2026-04-19T13:45:47.974Z</time></trkpt><trkpt lat="44.81744831293519" lon="1.011299640104703"><ele>153.25</ele><time>2026-04-19T13:45:48.974Z</time></trkpt><trkpt lat="44.81746704944091" lon="1.0111533734810394"><ele>153.5</ele><time>2026-04-19T13:45:49.974Z</time></trkpt><trkpt lat="44.81747576805761" lon="1.011005392188477"><ele>153.75</ele><time>2026-04-19T13:45:50.974Z</time></trkpt><trkpt lat="44.81745205257128" lon="1.010832957266189"><ele>154.0</ele><time>2026-04-19T13:45:51.974Z</time></trkpt><trkpt lat="44.81739735801443" lon="1.0106639592552957"><ele>152.25</ele><time>2026-04-19T13:45:52.974Z</time></trkpt><trkpt lat="44.81735234683241" lon="1.0105163177554761"><ele>150.5</ele><time>2026-04-19T13:45:53.974Z</time></trkpt><trkpt lat="44.817314438952316" lon="1.0103335445508996"><ele>148.75</ele><time>2026-04-19T13:45:54.974Z</time></trkpt><trkpt lat="44.81727217868981" lon="1.0101714467626541"><ele>147.0</ele><time>2026-04-19T13:45:55.974Z</time></trkpt><trkpt lat="44.81723805314731" lon="1.0100094970195161"><ele>145.5</ele><time>2026-04-19T13:45:56.974Z</time></trkpt><trkpt lat="44.81720963431656" lon="1.0098509639592184"><ele>144.0</ele><time>2026-04-19T13:45:57.974Z</time></trkpt><trkpt lat="44.81717737577486" lon="1.0096943976294015"><ele>142.5</ele><time>2026-04-19T13:45:58.974Z</time></trkpt><trkpt lat="44.81716703081288" lon="1.0095370878702625"><ele>141.0</ele><time>2026-04-19T13:45:59.974Z</time></trkpt><trkpt lat="44.81715262320328" lon="1.0093681789646347"><ele>141.0</ele><time>2026-04-19T13:46:00.974Z</time></trkpt><trkpt lat="44.81716021336575" lon="1.0091894089097573"><ele>141.0</ele><time>2026-04-19T13:46:01.974Z</time></trkpt><trkpt lat="44.8171797073776" lon="1.0090052104127265"><ele>141.0</ele><time>2026-04-19T13:46:02.974Z</time></trkpt><trkpt lat="44.81719393346729" lon="1.0088211759078363"><ele>141.0</ele><time>2026-04-19T13:46:03.974Z</time></trkpt><trkpt lat="44.81720752572952" lon="1.0086196754137362"><ele>139.25</ele><time>2026-04-19T13:46:04.974Z</time></trkpt><trkpt lat="44.817220977411694" lon="1.008414670069046"><ele>137.5</ele><time>2026-04-19T13:46:05.974Z</time></trkpt><trkpt lat="44.81723357150544" lon="1.0082209828287794"><ele>135.75</ele><time>2026-04-19T13:46:06.974Z</time></trkpt><trkpt lat="44.81723801317728" lon="1.008059172421686"><ele>134.0</ele><time>2026-04-19T13:46:07.974Z</time></trkpt><trkpt lat="44.817253749353924" lon="1.0079256754200354"><ele>133.33333333333331</ele><time>2026-04-19T13:46:08.974Z</time></trkpt><trkpt lat="44.817258805289676" lon="1.007826271127282"><ele>132.66666666666666</ele><time>2026-04-19T13:46:09.974Z</time></trkpt><trkpt lat="44.817269474828365" lon="1.0076766128221941"><ele>132.0</ele><time>2026-04-19T13:46:11.974Z</time></trkpt><trkpt lat="44.81732014079064" lon="1.0075484853439616"><ele>131.33333333333334</ele><time>2026-04-19T13:46:13.974Z</time></trkpt><trkpt lat="44.81738206474155" lon="1.0075114106218885"><ele>130.66666666666669</ele><time>2026-04-19T13:46:14.974Z</time></trkpt><trkpt lat="44.81744712380762" lon="1.0075372420660302"><ele>130.0</ele><time>2026-04-19T13:46:15.974Z</time></trkpt><trkpt lat="44.817510564936455" lon="1.0075816197716598"><ele>130.0</ele><time>2026-04-19T13:46:16.974Z</time></trkpt><trkpt lat="44.817564211492105" lon="1.0076499008425108"><ele>130.0</ele><time>2026-04-19T13:46:17.974Z</time></trkpt><trkpt lat="44.817615792313894" lon="1.0077257662966774"><ele>130.0</ele><time>2026-04-19T13:46:18.974Z</time></trkpt><trkpt lat="44.81767227759007" lon="1.007816896828887"><ele>130.0</ele><time>2026-04-19T13:46:19.975Z</time></trkpt><trkpt lat="44.81773444310465" lon="1.0079177653466211"><ele>130.0</ele><time>2026-04-19T13:46:20.975Z</time></trkpt><trkpt lat="44.81778562845828" lon="1.008017030327273"><ele>130.0</ele><time>2026-04-19T13:46:21.975Z</time></trkpt><trkpt lat="44.81785356184886" lon="1.0081207418734315"><ele>128.4</ele><time>2026-04-19T13:46:22.975Z</time></trkpt><trkpt lat="44.817939800924975" lon="1.0081661593077507"><ele>126.8</ele><time>2026-04-19T13:46:23.975Z</time></trkpt><trkpt lat="44.81802469821444" lon="1.0081847892536224"><ele>125.19999999999999</ele><time>2026-04-19T13:46:24.975Z</time></trkpt><trkpt lat="44.8181154865883" lon="1.0081608146571155"><ele>123.6</ele><time>2026-04-19T13:46:25.975Z</time></trkpt><trkpt lat="44.81820921034414" lon="1.0081124584278396"><ele>122.0</ele><time>2026-04-19T13:46:26.975Z</time></trkpt><trkpt lat="44.81832024193709" lon="1.0080634601644751"><ele>122.0</ele><time>2026-04-19T13:46:27.975Z</time></trkpt><trkpt lat="44.818448382894246" lon="1.0080051412374424"><ele>122.0</ele><time>2026-04-19T13:46:28.975Z</time></trkpt><trkpt lat="44.81857112276423" lon="1.0079335572203267"><ele>122.0</ele><time>2026-04-19T13:46:29.975Z</time></trkpt><trkpt lat="44.818690378462605" lon="1.0078679950496374"><ele>122.0</ele><time>2026-04-19T13:46:30.975Z</time></trkpt><trkpt lat="44.81882044995494" lon="1.0077874522749568"><ele>118.66666666666666</ele><time>2026-04-19T13:46:31.975Z</time></trkpt><trkpt lat="44.818969382779976" lon="1.0077045557654607"><ele>115.33333333333334</ele><time>2026-04-19T13:46:32.975Z</time></trkpt><trkpt lat="44.81911556103635" lon="1.0076274570220218"><ele>112.0</ele><time>2026-04-19T13:46:33.975Z</time></trkpt><trkpt lat="44.81927397502903" lon="1.0075686400489239"><ele>110.75</ele><time>2026-04-19T13:46:34.975Z</time></trkpt><trkpt lat="44.81941808349556" lon="1.0075072005631154"><ele>109.5</ele><time>2026-04-19T13:46:35.975Z</time></trkpt><trkpt lat="44.81956171582398" lon="1.0074415543435793"><ele>108.25</ele><time>2026-04-19T13:46:36.975Z</time></trkpt><trkpt lat="44.819698245601394" lon="1.0073794365597721"><ele>107.0</ele><time>2026-04-19T13:46:37.975Z</time></trkpt><trkpt lat="44.819827807237104" lon="1.0073074929986845"><ele>105.5</ele><time>2026-04-19T13:46:38.975Z</time></trkpt><trkpt lat="44.81995172331136" lon="1.0072415962581793"><ele>104.0</ele><time>2026-04-19T13:46:39.975Z</time></trkpt><trkpt lat="44.82007373363516" lon="1.0071997520238858"><ele>102.5</ele><time>2026-04-19T13:46:40.975Z</time></trkpt><trkpt lat="44.820179587403935" lon="1.0071624467316562"><ele>101.0</ele><time>2026-04-19T13:46:41.975Z</time></trkpt><trkpt lat="44.820289344296484" lon="1.0071419016730978"><ele>100.25</ele><time>2026-04-19T13:46:42.975Z</time></trkpt><trkpt lat="44.82039159169797" lon="1.0071118427200272"><ele>99.5</ele><time>2026-04-19T13:46:43.975Z</time></trkpt><trkpt lat="44.82048469016778" lon="1.0070657473352742"><ele>98.75</ele><time>2026-04-19T13:46:44.975Z</time></trkpt><trkpt lat="44.82059150030056" lon="1.0069628938169524"><ele>98.0</ele><time>2026-04-19T13:46:45.975Z</time></trkpt><trkpt lat="44.82069933651804" lon="1.0068228054109771"><ele>96.66666666666666</ele><time>2026-04-19T13:46:46.975Z</time></trkpt><trkpt lat="44.82079180560686" lon="1.0066592463220567"><ele>95.33333333333333</ele><time>2026-04-19T13:46:47.975Z</time></trkpt><trkpt lat="44.820902409081114" lon="1.0064921411960652"><ele>94.0</ele><time>2026-04-19T13:46:48.975Z</time></trkpt><trkpt lat="44.8210372269281" lon="1.0063171225272187"><ele>94.0</ele><time>2026-04-19T13:46:49.975Z</time></trkpt><trkpt lat="44.82115296173284" lon="1.0061432032166895"><ele>94.0</ele><time>2026-04-19T13:46:50.975Z</time></trkpt><trkpt lat="44.8212592212757" lon="1.00597795075403"><ele>94.0</ele><time>2026-04-19T13:46:51.975Z</time></trkpt><trkpt lat="44.821354124263664" lon="1.005815963260355"><ele>93.0</ele><time>2026-04-19T13:46:52.975Z</time></trkpt><trkpt lat="44.821434953652464" lon="1.0056475470819728"><ele>92.0</ele><time>2026-04-19T13:46:53.975Z</time></trkpt><trkpt lat="44.82150685860908" lon="1.0054523815192076"><ele>91.0</ele><time>2026-04-19T13:46:54.975Z</time></trkpt><trkpt lat="44.82157276175113" lon="1.0052422883819896"><ele>91.0</ele><time>2026-04-19T13:46:55.975Z</time></trkpt><trkpt lat="44.82164620153842" lon="1.005031866856253"><ele>91.0</ele><time>2026-04-19T13:46:56.975Z</time></trkpt><trkpt lat="44.821711529597174" lon="1.0048359182801738"><ele>91.0</ele><time>2026-04-19T13:46:57.975Z</time></trkpt><trkpt lat="44.8217707468365" lon="1.0046624886641147"><ele>90.6</ele><time>2026-04-19T13:46:58.975Z</time></trkpt><trkpt lat="44.8218342693914" lon="1.0045150927728144"><ele>90.19999999999999</ele><time>2026-04-19T13:46:59.975Z</time></trkpt><trkpt lat="44.82188416535317" lon="1.004368888525633"><ele>89.80000000000001</ele><time>2026-04-19T13:47:00.976Z</time></trkpt><trkpt lat="44.82193919923283" lon="1.0042414133562998"><ele>89.4</ele><time>2026-04-19T13:47:01.976Z</time></trkpt><trkpt lat="44.82199465843626" lon="1.004123896913502"><ele>89.0</ele><time>2026-04-19T13:47:02.976Z</time></trkpt><trkpt lat="44.822048193418574" lon="1.0040244616730758"><ele>88.83333333333334</ele><time>2026-04-19T13:47:03.976Z</time></trkpt><trkpt lat="44.82209457798685" lon="1.0039406830632374"><ele>88.66666666666667</ele><time>2026-04-19T13:47:04.976Z</time></trkpt><trkpt lat="44.82214069943297" lon="1.003871862414893"><ele>88.5</ele><time>2026-04-19T13:47:05.976Z</time></trkpt><trkpt lat="44.82220797020466" lon="1.0037802773825317"><ele>88.33333333333333</ele><time>2026-04-19T13:47:07.976Z</time></trkpt><trkpt lat="44.82223494620198" lon="1.003693086063504"><ele>88.16666666666666</ele><time>2026-04-19T13:47:52.974Z</time></trkpt><trkpt lat="44.82217787748472" lon="1.0035238955829406"><ele>88.0</ele><time>2026-04-19T13:47:54.974Z</time></trkpt><trkpt lat="44.82210546338256" lon="1.0033975513198619"><ele>87.25</ele><time>2026-04-19T13:47:55.974Z</time></trkpt><trkpt lat="44.822042826922996" lon="1.003243275225017"><ele>86.5</ele><time>2026-04-19T13:47:56.974Z</time></trkpt><trkpt lat="44.821979110478175" lon="1.0030884939513114"><ele>85.75</ele><time>2026-04-19T13:47:57.974Z</time></trkpt><trkpt lat="44.8219201750958" lon="1.0028943230035385"><ele>85.0</ele><time>2026-04-19T13:47:58.974Z</time></trkpt><trkpt lat="44.821866098013565" lon="1.0026598482620888"><ele>85.0</ele><time>2026-04-19T13:47:59.974Z</time></trkpt><trkpt lat="44.821823625097075" lon="1.002418592370213"><ele>85.0</ele><time>2026-04-19T13:48:00.974Z</time></trkpt><trkpt lat="44.82179298447125" lon="1.0021832337999181"><ele>85.0</ele><time>2026-04-19T13:48:01.974Z</time></trkpt><trkpt lat="44.82177352290377" lon="1.0019371674411173"><ele>85.0</ele><time>2026-04-19T13:48:02.974Z</time></trkpt><trkpt lat="44.82176178954704" lon="1.0016747123083394"><ele>85.0</ele><time>2026-04-19T13:48:03.974Z</time></trkpt><trkpt lat="44.821767454372875" lon="1.0013883941235084"><ele>85.0</ele><time>2026-04-19T13:48:04.974Z</time></trkpt><trkpt lat="44.82178053370922" lon="1.0010831516652645"><ele>85.0</ele><time>2026-04-19T13:48:05.974Z</time></trkpt><trkpt lat="44.82179726328802" lon="1.0007707619100878"><ele>85.0</ele><time>2026-04-19T13:48:06.974Z</time></trkpt><trkpt lat="44.821810162855975" lon="1.0004513079839181"><ele>85.0</ele><time>2026-04-19T13:48:07.974Z</time></trkpt><trkpt lat="44.82183411154407" lon="1.0001500158806416"><ele>85.0</ele><time>2026-04-19T13:48:08.974Z</time></trkpt><trkpt lat="44.82186005848682" lon="0.9998383620387423"><ele>85.0</ele><time>2026-04-19T13:48:09.974Z</time></trkpt><trkpt lat="44.82186838573367" lon="0.9995356644580116"><ele>85.0</ele><time>2026-04-19T13:48:10.974Z</time></trkpt><trkpt lat="44.82189326376227" lon="0.9989508687958699"><ele>83.0</ele><time>2026-04-19T13:48:12.974Z</time></trkpt><trkpt lat="44.821905820857765" lon="0.9986577828637173"><ele>81.0</ele><time>2026-04-19T13:48:13.974Z</time></trkpt><trkpt lat="44.82191392273229" lon="0.9983708157909301"><ele>79.0</ele><time>2026-04-19T13:48:14.974Z</time></trkpt><trkpt lat="44.82190315604996" lon="0.9980906945704889"><ele>76.66666666666666</ele><time>2026-04-19T13:48:15.975Z</time></trkpt><trkpt lat="44.82188277968225" lon="0.9977867684301913"><ele>74.33333333333333</ele><time>2026-04-19T13:48:16.975Z</time></trkpt><trkpt lat="44.821850463280995" lon="0.997484779610304"><ele>72.0</ele><time>2026-04-19T13:48:17.975Z</time></trkpt><trkpt lat="44.82181188036749" lon="0.9971803463726208"><ele>69.0</ele><time>2026-04-19T13:48:18.975Z</time></trkpt><trkpt lat="44.821789906611095" lon="0.9968741728197342"><ele>66.0</ele><time>2026-04-19T13:48:19.975Z</time></trkpt><trkpt lat="44.82176478432747" lon="0.9965615382816208"><ele>63.0</ele><time>2026-04-19T13:48:20.975Z</time></trkpt><trkpt lat="44.821730768031784" lon="0.9962474134734002"><ele>62.0</ele><time>2026-04-19T13:48:21.975Z</time></trkpt><trkpt lat="44.82170632158963" lon="0.9959107881023747"><ele>61.0</ele><time>2026-04-19T13:48:22.975Z</time></trkpt><trkpt lat="44.82166231906155" lon="0.9955973967162175"><ele>61.0</ele><time>2026-04-19T13:48:23.975Z</time></trkpt><trkpt lat="44.82163900337725" lon="0.9953060118413282"><ele>61.0</ele><time>2026-04-19T13:48:24.975Z</time></trkpt><trkpt lat="44.821613990958774" lon="0.9950120335261566"><ele>61.0</ele><time>2026-04-19T13:48:25.975Z</time></trkpt><trkpt lat="44.82162243931492" lon="0.9947077113864062"><ele>60.666666666666664</ele><time>2026-04-19T13:48:26.975Z</time></trkpt><trkpt lat="44.82164630239176" lon="0.9944018292812371"><ele>60.33333333333333</ele><time>2026-04-19T13:48:27.975Z</time></trkpt><trkpt lat="44.821695065228525" lon="0.9940954787588024"><ele>60.0</ele><time>2026-04-19T13:48:28.975Z</time></trkpt><trkpt lat="44.82176360629321" lon="0.9938021350625842"><ele>60.0</ele><time>2026-04-19T13:48:29.975Z</time></trkpt><trkpt lat="44.821851246138515" lon="0.9935172725794199"><ele>60.0</ele><time>2026-04-19T13:48:30.975Z</time></trkpt><trkpt lat="44.82194382843645" lon="0.9932424540151021"><ele>60.0</ele><time>2026-04-19T13:48:31.975Z</time></trkpt><trkpt lat="44.82207974441359" lon="0.9930107160409563"><ele>60.0</ele><time>2026-04-19T13:48:32.975Z</time></trkpt><trkpt lat="44.822214260479946" lon="0.992773953953075"><ele>60.0</ele><time>2026-04-19T13:48:33.975Z</time></trkpt><trkpt lat="44.822349817535766" lon="0.9925731095953167"><ele>60.0</ele><time>2026-04-19T13:48:34.975Z</time></trkpt><trkpt lat="44.82259389751673" lon="0.9921964630144475"><ele>59.66666666666667</ele><time>2026-04-19T13:48:36.975Z</time></trkpt><trkpt lat="44.82269025196586" lon="0.9920162821254824"><ele>59.333333333333336</ele><time>2026-04-19T13:48:37.975Z</time></trkpt><trkpt lat="44.82278405157286" lon="0.991850915259437"><ele>59.0</ele><time>2026-04-19T13:48:38.975Z</time></trkpt><trkpt lat="44.82287121829532" lon="0.9916788819825769"><ele>59.5</ele><time>2026-04-19T13:48:39.975Z</time></trkpt><trkpt lat="44.822947018390835" lon="0.9915005101173714"><ele>60.0</ele><time>2026-04-19T13:48:40.975Z</time></trkpt><trkpt lat="44.822998532916095" lon="0.9913304038015319"><ele>60.5</ele><time>2026-04-19T13:48:41.975Z</time></trkpt><trkpt lat="44.82304856846274" lon="0.9911640470630827"><ele>61.0</ele><time>2026-04-19T13:48:42.975Z</time></trkpt><trkpt lat="44.82308706409563" lon="0.9909571118932732"><ele>60.75</ele><time>2026-04-19T13:48:43.975Z</time></trkpt><trkpt lat="44.82310028455345" lon="0.9907915706190769"><ele>60.5</ele><time>2026-04-19T13:48:44.975Z</time></trkpt><trkpt lat="44.82311020002426" lon="0.9906331734670765"><ele>60.25</ele><time>2026-04-19T13:48:45.975Z</time></trkpt><trkpt lat="44.823106513844145" lon="0.9904667856174615"><ele>60.0</ele><time>2026-04-19T13:48:46.975Z</time></trkpt><trkpt lat="44.82309323416469" lon="0.9903216411426625"><ele>60.0</ele><time>2026-04-19T13:48:47.975Z</time></trkpt><trkpt lat="44.82309990917028" lon="0.9901680782943701"><ele>60.0</ele><time>2026-04-19T13:48:48.975Z</time></trkpt><trkpt lat="44.82309067699007" lon="0.9900615951587564"><ele>60.0</ele><time>2026-04-19T13:48:49.975Z</time></trkpt><trkpt lat="44.8230677085853" lon="0.9899771277535286"><ele>60.0</ele><time>2026-04-19T13:48:50.975Z</time></trkpt><trkpt lat="44.823033017200096" lon="0.9898080164025909"><ele>60.0</ele><time>2026-04-19T13:48:52.975Z</time></trkpt><trkpt lat="44.823008318975894" lon="0.9896706111711485"><ele>60.0</ele><time>2026-04-19T13:48:54.975Z</time></trkpt><trkpt lat="44.82302312416618" lon="0.9895126751694757"><ele>60.0</ele><time>2026-04-19T13:48:56.976Z</time></trkpt><trkpt lat="44.823026679648564" lon="0.9893339557767034"><ele>60.0</ele><time>2026-04-19T13:48:58.976Z</time></trkpt><trkpt lat="44.82299477577685" lon="0.9892494467278052"><ele>60.0</ele><time>2026-04-19T13:48:59.976Z</time></trkpt><trkpt lat="44.82291816076318" lon="0.9892015931391918"><ele>60.0</ele><time>2026-04-19T13:49:00.976Z</time></trkpt><trkpt lat="44.8228188601432" lon="0.9891751382372145"><ele>60.0</ele><time>2026-04-19T13:49:01.976Z</time></trkpt><trkpt lat="44.822728466028366" lon="0.9891375013363566"><ele>60.0</ele><time>2026-04-19T13:49:02.976Z</time></trkpt><trkpt lat="44.822647132316646" lon="0.989075727708458"><ele>60.0</ele><time>2026-04-19T13:49:03.976Z</time></trkpt><trkpt lat="44.822561274235994" lon="0.9889604709985093"><ele>60.0</ele><time>2026-04-19T13:49:04.976Z</time></trkpt><trkpt lat="44.82248351382003" lon="0.9888300242740561"><ele>60.0</ele><time>2026-04-19T13:49:05.976Z</time></trkpt><trkpt lat="44.82242000377928" lon="0.9886987168434138"><ele>60.25</ele><time>2026-04-19T13:49:06.976Z</time></trkpt><trkpt lat="44.822366516452135" lon="0.9885392545184987"><ele>60.5</ele><time>2026-04-19T13:49:07.976Z</time></trkpt><trkpt lat="44.822324768642375" lon="0.9883610882333375"><ele>60.75</ele><time>2026-04-19T13:49:08.976Z</time></trkpt><trkpt lat="44.82230576078041" lon="0.9881624502600873"><ele>61.0</ele><time>2026-04-19T13:49:09.976Z</time></trkpt><trkpt lat="44.82228017271991" lon="0.9879937975232999"><ele>61.0</ele><time>2026-04-19T13:49:10.976Z</time></trkpt><trkpt lat="44.82225646271949" lon="0.9878253808037402"><ele>60.99999999999999</ele><time>2026-04-19T13:49:11.976Z</time></trkpt><trkpt lat="44.82222682936277" lon="0.9876737389249661"><ele>60.99999999999999</ele><time>2026-04-19T13:49:12.976Z</time></trkpt><trkpt lat="44.82220845688566" lon="0.9875428248235415"><ele>61.0</ele><time>2026-04-19T13:49:13.976Z</time></trkpt><trkpt lat="44.822178707426275" lon="0.9874013300784215"><ele>61.0</ele><time>2026-04-19T13:49:14.976Z</time></trkpt><trkpt lat="44.822153017662444" lon="0.9872566449964723"><ele>61.0</ele><time>2026-04-19T13:49:15.976Z</time></trkpt><trkpt lat="44.82214299129517" lon="0.9871153721454609"><ele>60.99999999999999</ele><time>2026-04-19T13:49:16.976Z</time></trkpt><trkpt lat="44.82210027776474" lon="0.9869821678416235"><ele>60.99999999999999</ele><time>2026-04-19T13:49:17.976Z</time></trkpt><trkpt lat="44.82208464456135" lon="0.9868510158421357"><ele>61.0</ele><time>2026-04-19T13:49:18.976Z</time></trkpt><trkpt lat="44.822074408030126" lon="0.9867229097450035"><ele>61.0</ele><time>2026-04-19T13:49:19.973Z</time></trkpt><trkpt lat="44.82206946164233" lon="0.986586055804016"><ele>60.599999999999994</ele><time>2026-04-19T13:49:20.973Z</time></trkpt><trkpt lat="44.822055422524926" lon="0.9864319719984973"><ele>60.199999999999996</ele><time>2026-04-19T13:49:21.973Z</time></trkpt><trkpt lat="44.822039744262504" lon="0.9862881623081107"><ele>59.800000000000004</ele><time>2026-04-19T13:49:22.973Z</time></trkpt><trkpt lat="44.822025708514346" lon="0.9861441063173899"><ele>59.400000000000006</ele><time>2026-04-19T13:49:23.973Z</time></trkpt><trkpt lat="44.82201183861586" lon="0.9860012780103997"><ele>59.0</ele><time>2026-04-19T13:49:24.973Z</time></trkpt><trkpt lat="44.822004712473635" lon="0.9858636432024747"><ele>59.0</ele><time>2026-04-19T13:49:25.974Z</time></trkpt><trkpt lat="44.82199327805762" lon="0.9857045716978488"><ele>59.00000000000001</ele><time>2026-04-19T13:49:26.973Z</time></trkpt><trkpt lat="44.8219649217489" lon="0.9855581462738191"><ele>59.00000000000001</ele><time>2026-04-19T13:49:27.973Z</time></trkpt><trkpt lat="44.82194833589545" lon="0.9854093654810832"><ele>59.0</ele><time>2026-04-19T13:49:28.973Z</time></trkpt><trkpt lat="44.82193622500636" lon="0.9852511494923467"><ele>59.0</ele><time>2026-04-19T13:49:29.974Z</time></trkpt><trkpt lat="44.821914625165775" lon="0.9850885492434086"><ele>58.5</ele><time>2026-04-19T13:49:30.974Z</time></trkpt><trkpt lat="44.821894373075864" lon="0.9849118522460416"><ele>58.0</ele><time>2026-04-19T13:49:31.973Z</time></trkpt><trkpt lat="44.82186898773764" lon="0.9847456111443011"><ele>57.5</ele><time>2026-04-19T13:49:32.973Z</time></trkpt><trkpt lat="44.821861833646764" lon="0.9845919807133483"><ele>57.0</ele><time>2026-04-19T13:49:33.973Z</time></trkpt><trkpt lat="44.82184667297784" lon="0.9844591313161996"><ele>57.0</ele><time>2026-04-19T13:49:34.973Z</time></trkpt><trkpt lat="44.82183248399768" lon="0.9843308205863764"><ele>57.0</ele><time>2026-04-19T13:49:35.973Z</time></trkpt><trkpt lat="44.82181958789044" lon="0.9842097750203544"><ele>57.0</ele><time>2026-04-19T13:49:36.973Z</time></trkpt><trkpt lat="44.82181356444313" lon="0.9840848572340809"><ele>57.0</ele><time>2026-04-19T13:49:37.973Z</time></trkpt><trkpt lat="44.82179416832787" lon="0.9839705153347562"><ele>57.0</ele><time>2026-04-19T13:49:38.973Z</time></trkpt><trkpt lat="44.821784949089114" lon="0.9838417199774336"><ele>57.0</ele><time>2026-04-19T13:49:39.973Z</time></trkpt><trkpt lat="44.82176311766624" lon="0.9837150337060515"><ele>58.25</ele><time>2026-04-19T13:49:40.973Z</time></trkpt><trkpt lat="44.82172027855868" lon="0.9835692979321058"><ele>59.5</ele><time>2026-04-19T13:49:41.973Z</time></trkpt><trkpt lat="44.82169037871323" lon="0.9834054761120441"><ele>60.75</ele><time>2026-04-19T13:49:42.973Z</time></trkpt><trkpt lat="44.821681438763996" lon="0.983248025499217"><ele>62.0</ele><time>2026-04-19T13:49:43.973Z</time></trkpt><trkpt lat="44.82167711144835" lon="0.9830683382152583"><ele>62.0</ele><time>2026-04-19T13:49:44.973Z</time></trkpt><trkpt lat="44.8216600010222" lon="0.9829092771944691"><ele>62.0</ele><time>2026-04-19T13:49:45.973Z</time></trkpt><trkpt lat="44.82165723909889" lon="0.9826745179690952"><ele>62.0</ele><time>2026-04-19T13:49:46.973Z</time></trkpt><trkpt lat="44.82165465139826" lon="0.9824429363155025"><ele>62.0</ele><time>2026-04-19T13:49:47.973Z</time></trkpt><trkpt lat="44.82165117131863" lon="0.9822069859795917"><ele>61.66666666666667</ele><time>2026-04-19T13:49:48.973Z</time></trkpt><trkpt lat="44.82164547153122" lon="0.9819806497447597"><ele>61.33333333333333</ele><time>2026-04-19T13:49:49.973Z</time></trkpt><trkpt lat="44.82163428643547" lon="0.9817809859183187"><ele>61.0</ele><time>2026-04-19T13:49:50.973Z</time></trkpt><trkpt lat="44.821636933083106" lon="0.9815614315950629"><ele>61.0</ele><time>2026-04-19T13:49:51.973Z</time></trkpt><trkpt lat="44.82161526603131" lon="0.9813366453008562"><ele>61.0</ele><time>2026-04-19T13:49:52.973Z</time></trkpt><trkpt lat="44.82161157113135" lon="0.9811266454564502"><ele>61.0</ele><time>2026-04-19T13:49:53.973Z</time></trkpt><trkpt lat="44.82160104170336" lon="0.9809135807857948"><ele>62.0</ele><time>2026-04-19T13:49:54.973Z</time></trkpt><trkpt lat="44.82159860503443" lon="0.980738680489241"><ele>63.0</ele><time>2026-04-19T13:49:55.973Z</time></trkpt><trkpt lat="44.821605050387554" lon="0.980554521261181"><ele>64.0</ele><time>2026-04-19T13:49:56.973Z</time></trkpt><trkpt lat="44.821591490967016" lon="0.980368032009721"><ele>65.0</ele><time>2026-04-19T13:49:57.973Z</time></trkpt><trkpt lat="44.82159057877311" lon="0.9801671337498864"><ele>64.5</ele><time>2026-04-19T13:49:58.973Z</time></trkpt><trkpt lat="44.82158885446756" lon="0.9799806769005897"><ele>64.0</ele><time>2026-04-19T13:49:59.973Z</time></trkpt><trkpt lat="44.821591708972356" lon="0.9797783449287463"><ele>63.5</ele><time>2026-04-19T13:50:00.973Z</time></trkpt><trkpt lat="44.82158897447319" lon="0.9795712819129202"><ele>63.0</ele><time>2026-04-19T13:50:01.973Z</time></trkpt><trkpt lat="44.82159288158279" lon="0.9793410159909096"><ele>62.66666666666667</ele><time>2026-04-19T13:50:02.973Z</time></trkpt><trkpt lat="44.82161877264712" lon="0.9791058629478497"><ele>62.333333333333336</ele><time>2026-04-19T13:50:03.973Z</time></trkpt><trkpt lat="44.82167054065924" lon="0.9788686443444624"><ele>62.0</ele><time>2026-04-19T13:50:04.973Z</time></trkpt><trkpt lat="44.821708976238824" lon="0.9786214178482295"><ele>62.0</ele><time>2026-04-19T13:50:05.973Z</time></trkpt><trkpt lat="44.82175484173279" lon="0.978382506854772"><ele>62.0</ele><time>2026-04-19T13:50:06.973Z</time></trkpt><trkpt lat="44.82176961623998" lon="0.9781204303462535"><ele>62.0</ele><time>2026-04-19T13:50:07.973Z</time></trkpt><trkpt lat="44.821796457960446" lon="0.9778635575195398"><ele>61.0</ele><time>2026-04-19T13:50:08.973Z</time></trkpt><trkpt lat="44.8218180948948" lon="0.9775875264527185"><ele>60.0</ele><time>2026-04-19T13:50:09.973Z</time></trkpt><trkpt lat="44.82182156199323" lon="0.9773265897583977"><ele>59.0</ele><time>2026-04-19T13:50:10.974Z</time></trkpt><trkpt lat="44.82181550999933" lon="0.9770491719740703"><ele>58.66666666666667</ele><time>2026-04-19T13:50:11.974Z</time></trkpt><trkpt lat="44.82181060093233" lon="0.9767684099595145"><ele>58.33333333333333</ele><time>2026-04-19T13:50:12.974Z</time></trkpt><trkpt lat="44.821817017105246" lon="0.9764834208806796"><ele>58.0</ele><time>2026-04-19T13:50:13.974Z</time></trkpt><trkpt lat="44.82181806173148" lon="0.97619478729947"><ele>61.5</ele><time>2026-04-19T13:50:14.974Z</time></trkpt><trkpt lat="44.8218022182957" lon="0.9758551719815357"><ele>65.0</ele><time>2026-04-19T13:50:15.974Z</time></trkpt><trkpt lat="44.82180288477702" lon="0.9755054133496467"><ele>65.0</ele><time>2026-04-19T13:50:16.974Z</time></trkpt><trkpt lat="44.82180806888213" lon="0.9751396119357782"><ele>65.0</ele><time>2026-04-19T13:50:17.974Z</time></trkpt><trkpt lat="44.82183271499976" lon="0.9747523802503427"><ele>62.0</ele><time>2026-04-19T13:50:18.974Z</time></trkpt><trkpt lat="44.82185148315354" lon="0.9744173035781545"><ele>59.0</ele><time>2026-04-19T13:50:19.974Z</time></trkpt><trkpt lat="44.82185364034121" lon="0.974100328737209"><ele>58.66666666666667</ele><time>2026-04-19T13:50:20.974Z</time></trkpt><trkpt lat="44.82185891212145" lon="0.973814306855623"><ele>58.33333333333333</ele><time>2026-04-19T13:50:21.974Z</time></trkpt><trkpt lat="44.821855587483945" lon="0.9735280778704519"><ele>58.0</ele><time>2026-04-19T13:50:22.974Z</time></trkpt><trkpt lat="44.821844889350025" lon="0.973226625870166"><ele>57.666666666666664</ele><time>2026-04-19T13:50:23.974Z</time></trkpt><trkpt lat="44.821831050603734" lon="0.972930312178072"><ele>57.33333333333333</ele><time>2026-04-19T13:50:24.974Z</time></trkpt><trkpt lat="44.821794649090265" lon="0.9726160693626001"><ele>57.0</ele><time>2026-04-19T13:50:25.974Z</time></trkpt><trkpt lat="44.821763756205925" lon="0.9723070846951501"><ele>58.0</ele><time>2026-04-19T13:50:26.974Z</time></trkpt><trkpt lat="44.82173379521595" lon="0.9720090882573453"><ele>59.0</ele><time>2026-04-19T13:50:27.974Z</time></trkpt><trkpt lat="44.82170403822005" lon="0.9717033510122568"><ele>60.0</ele><time>2026-04-19T13:50:28.974Z</time></trkpt><trkpt lat="44.82166868156482" lon="0.9713988167467102"><ele>60.0</ele><time>2026-04-19T13:50:29.974Z</time></trkpt><trkpt lat="44.821632731828174" lon="0.9710973284906166"><ele>60.0</ele><time>2026-04-19T13:50:30.974Z</time></trkpt><trkpt lat="44.821593638218715" lon="0.9707880576880924"><ele>60.0</ele><time>2026-04-19T13:50:31.974Z</time></trkpt><trkpt lat="44.82155516285855" lon="0.970468775668091"><ele>60.0</ele><time>2026-04-19T13:50:32.974Z</time></trkpt><trkpt lat="44.821526819869206" lon="0.9701602630712023"><ele>60.0</ele><time>2026-04-19T13:50:33.974Z</time></trkpt><trkpt lat="44.82148833779303" lon="0.9698221747943058"><ele>59.5</ele><time>2026-04-19T13:50:34.974Z</time></trkpt><trkpt lat="44.821451871499754" lon="0.969491595249026"><ele>59.0</ele><time>2026-04-19T13:50:35.974Z</time></trkpt><trkpt lat="44.821414889309246" lon="0.9691672794416817"><ele>58.5</ele><time>2026-04-19T13:50:36.974Z</time></trkpt><trkpt lat="44.8213839746096" lon="0.9688286858950945"><ele>58.0</ele><time>2026-04-19T13:50:37.974Z</time></trkpt><trkpt lat="44.82134802002248" lon="0.9684846968212535"><ele>60.0</ele><time>2026-04-19T13:50:38.974Z</time></trkpt><trkpt lat="44.82131955491964" lon="0.9681402394212537"><ele>62.0</ele><time>2026-04-19T13:50:39.974Z</time></trkpt><trkpt lat="44.821307293018464" lon="0.9677950114638386"><ele>64.0</ele><time>2026-04-19T13:50:40.974Z</time></trkpt><trkpt lat="44.82130391670947" lon="0.9674604395043123"><ele>66.0</ele><time>2026-04-19T13:50:41.974Z</time></trkpt><trkpt lat="44.821310965675316" lon="0.9671152338245147"><ele>66.0</ele><time>2026-04-19T13:50:42.974Z</time></trkpt><trkpt lat="44.82132592319873" lon="0.9667809154945692"><ele>66.0</ele><time>2026-04-19T13:50:43.974Z</time></trkpt><trkpt lat="44.82136020763574" lon="0.9664485304799131"><ele>65.0</ele><time>2026-04-19T13:50:44.974Z</time></trkpt><trkpt lat="44.821396479239574" lon="0.9661102112791421"><ele>64.0</ele><time>2026-04-19T13:50:45.974Z</time></trkpt><trkpt lat="44.821443681127604" lon="0.9657730416061405"><ele>63.5</ele><time>2026-04-19T13:50:46.974Z</time></trkpt><trkpt lat="44.82150492082531" lon="0.9654354843128753"><ele>63.0</ele><time>2026-04-19T13:50:47.974Z</time></trkpt><trkpt lat="44.82157597575842" lon="0.965112112949898"><ele>62.0</ele><time>2026-04-19T13:50:48.974Z</time></trkpt><trkpt lat="44.82167334464564" lon="0.9647583015633259"><ele>61.0</ele><time>2026-04-19T13:50:49.974Z</time></trkpt><trkpt lat="44.82178217992829" lon="0.9644022423450852"><ele>59.5</ele><time>2026-04-19T13:50:50.974Z</time></trkpt><trkpt lat="44.82189902936818" lon="0.9640379144690566"><ele>58.0</ele><time>2026-04-19T13:50:51.975Z</time></trkpt><trkpt lat="44.8220232162341" lon="0.9636712947266651"><ele>57.5</ele><time>2026-04-19T13:50:52.975Z</time></trkpt><trkpt lat="44.82214845172053" lon="0.9632826563850883"><ele>57.0</ele><time>2026-04-19T13:50:53.975Z</time></trkpt><trkpt lat="44.82226967437273" lon="0.962918720734326"><ele>57.0</ele><time>2026-04-19T13:50:54.975Z</time></trkpt><trkpt lat="44.82239369093953" lon="0.9625451062463639"><ele>57.0</ele><time>2026-04-19T13:50:55.975Z</time></trkpt><trkpt lat="44.822511794723106" lon="0.9621675719145155"><ele>56.5</ele><time>2026-04-19T13:50:56.975Z</time></trkpt><trkpt lat="44.82263106188465" lon="0.9617875007563622"><ele>56.0</ele><time>2026-04-19T13:50:57.975Z</time></trkpt><trkpt lat="44.82275739669952" lon="0.9614111063366533"><ele>56.0</ele><time>2026-04-19T13:50:58.975Z</time></trkpt><trkpt lat="44.82288991225091" lon="0.9610460101890893"><ele>56.0</ele><time>2026-04-19T13:50:59.975Z</time></trkpt><trkpt lat="44.823004222104395" lon="0.9606882419175828"><ele>56.0</ele><time>2026-04-19T13:51:00.975Z</time></trkpt><trkpt lat="44.82310995307678" lon="0.9603421012366592"><ele>56.0</ele><time>2026-04-19T13:51:01.975Z</time></trkpt><trkpt lat="44.82323007733994" lon="0.9600173715578155"><ele>56.5</ele><time>2026-04-19T13:51:02.975Z</time></trkpt><trkpt lat="44.82334001152126" lon="0.9596868184206144"><ele>57.0</ele><time>2026-04-19T13:51:03.975Z</time></trkpt><trkpt lat="44.823441398125496" lon="0.9593676635960837"><ele>56.5</ele><time>2026-04-19T13:51:04.975Z</time></trkpt><trkpt lat="44.8235434889913" lon="0.9590585715193032"><ele>56.0</ele><time>2026-04-19T13:51:05.975Z</time></trkpt><trkpt lat="44.82364899734309" lon="0.9587641643497294"><ele>56.0</ele><time>2026-04-19T13:51:06.975Z</time></trkpt><trkpt lat="44.82374026767549" lon="0.9584825114537822"><ele>56.0</ele><time>2026-04-19T13:51:07.975Z</time></trkpt><trkpt lat="44.82383420459337" lon="0.9581788547436605"><ele>56.5</ele><time>2026-04-19T13:51:08.975Z</time></trkpt><trkpt lat="44.82393149795429" lon="0.9578934659409494"><ele>57.0</ele><time>2026-04-19T13:51:09.975Z</time></trkpt><trkpt lat="44.824036996104375" lon="0.9576014823554078"><ele>56.5</ele><time>2026-04-19T13:51:10.975Z</time></trkpt><trkpt lat="44.82412676160657" lon="0.9573085395353818"><ele>56.0</ele><time>2026-04-19T13:51:11.975Z</time></trkpt><trkpt lat="44.82422191398138" lon="0.957022453509194"><ele>56.0</ele><time>2026-04-19T13:51:12.975Z</time></trkpt><trkpt lat="44.824336651027586" lon="0.9567256912112025"><ele>56.0</ele><time>2026-04-19T13:51:13.975Z</time></trkpt><trkpt lat="44.82443979008045" lon="0.9564381205168008"><ele>56.0</ele><time>2026-04-19T13:51:14.975Z</time></trkpt><trkpt lat="44.824526738705686" lon="0.9561536699840697"><ele>56.0</ele><time>2026-04-19T13:51:15.975Z</time></trkpt><trkpt lat="44.824625701254796" lon="0.955864518647308"><ele>56.0</ele><time>2026-04-19T13:51:16.975Z</time></trkpt><trkpt lat="44.82472101952739" lon="0.9555743932011378"><ele>55.5</ele><time>2026-04-19T13:51:17.975Z</time></trkpt><trkpt lat="44.824819927839314" lon="0.9552822415512734"><ele>55.0</ele><time>2026-04-19T13:51:18.975Z</time></trkpt><trkpt lat="44.82491735991392" lon="0.9549924396580125"><ele>55.0</ele><time>2026-04-19T13:51:19.975Z</time></trkpt><trkpt lat="44.82501835303885" lon="0.9546990018012145"><ele>55.0</ele><time>2026-04-19T13:51:20.975Z</time></trkpt><trkpt lat="44.82511866815779" lon="0.9543995530373014"><ele>55.0</ele><time>2026-04-19T13:51:21.975Z</time></trkpt><trkpt lat="44.825218040764035" lon="0.9540982912367719"><ele>55.0</ele><time>2026-04-19T13:51:22.975Z</time></trkpt><trkpt lat="44.82531506340417" lon="0.9537929049207248"><ele>55.0</ele><time>2026-04-19T13:51:23.975Z</time></trkpt><trkpt lat="44.82542065655551" lon="0.9534899498273807"><ele>55.0</ele><time>2026-04-19T13:51:24.976Z</time></trkpt><trkpt lat="44.82551365387824" lon="0.9531926042414308"><ele>55.0</ele><time>2026-04-19T13:51:25.974Z</time></trkpt><trkpt lat="44.82561436305732" lon="0.9528859229545499"><ele>55.0</ele><time>2026-04-19T13:51:26.974Z</time></trkpt><trkpt lat="44.82571967620201" lon="0.9525817056777033"><ele>55.0</ele><time>2026-04-19T13:51:27.974Z</time></trkpt><trkpt lat="44.82583464528676" lon="0.9522773675823744"><ele>55.0</ele><time>2026-04-19T13:51:28.974Z</time></trkpt><trkpt lat="44.825930959390554" lon="0.951977980563682"><ele>54.0</ele><time>2026-04-19T13:51:29.973Z</time></trkpt><trkpt lat="44.82601757501593" lon="0.9516742943046415"><ele>53.0</ele><time>2026-04-19T13:51:30.974Z</time></trkpt><trkpt lat="44.82612399405326" lon="0.9513752087270503"><ele>53.0</ele><time>2026-04-19T13:51:31.975Z</time></trkpt><trkpt lat="44.82622101393144" lon="0.9510786946733576"><ele>53.0</ele><time>2026-04-19T13:51:32.974Z</time></trkpt><trkpt lat="44.82631407287861" lon="0.9507908206646061"><ele>55.0</ele><time>2026-04-19T13:51:33.974Z</time></trkpt><trkpt lat="44.82641756290134" lon="0.9505047349535285"><ele>57.0</ele><time>2026-04-19T13:51:34.975Z</time></trkpt><trkpt lat="44.82651983184517" lon="0.950220660340766"><ele>57.66666666666667</ele><time>2026-04-19T13:51:35.975Z</time></trkpt><trkpt lat="44.826620704741856" lon="0.9499379341341713"><ele>58.333333333333336</ele><time>2026-04-19T13:51:36.975Z</time></trkpt><trkpt lat="44.826710938388295" lon="0.9496476270967548"><ele>59.0</ele><time>2026-04-19T13:51:37.974Z</time></trkpt><trkpt lat="44.826808961003884" lon="0.9493623713395988"><ele>58.5</ele><time>2026-04-19T13:51:38.974Z</time></trkpt><trkpt lat="44.82690276793854" lon="0.949073757841883"><ele>58.0</ele><time>2026-04-19T13:51:39.974Z</time></trkpt><trkpt lat="44.82700082631979" lon="0.9487803046315171"><ele>58.0</ele><time>2026-04-19T13:51:40.974Z</time></trkpt><trkpt lat="44.82711112833816" lon="0.9484899700260828"><ele>58.0</ele><time>2026-04-19T13:51:41.974Z</time></trkpt><trkpt lat="44.8272106311906" lon="0.9482089575690382"><ele>57.5</ele><time>2026-04-19T13:51:42.974Z</time></trkpt><trkpt lat="44.82733184198566" lon="0.9479156071620146"><ele>57.0</ele><time>2026-04-19T13:51:43.974Z</time></trkpt><trkpt lat="44.82745241529863" lon="0.9476299444269356"><ele>56.5</ele><time>2026-04-19T13:51:44.974Z</time></trkpt><trkpt lat="44.827566583733585" lon="0.9473468920548448"><ele>56.0</ele><time>2026-04-19T13:51:45.974Z</time></trkpt><trkpt lat="44.82768879001065" lon="0.9470691553590653"><ele>56.0</ele><time>2026-04-19T13:51:46.974Z</time></trkpt><trkpt lat="44.82782019258431" lon="0.9467750260226423"><ele>56.0</ele><time>2026-04-19T13:51:47.974Z</time></trkpt><trkpt lat="44.82796969400433" lon="0.9465109879040501"><ele>56.0</ele><time>2026-04-19T13:51:48.975Z</time></trkpt><trkpt lat="44.828105791368436" lon="0.9462346802666993"><ele>56.0</ele><time>2026-04-19T13:51:49.975Z</time></trkpt><trkpt lat="44.82826080023305" lon="0.9459747776035886"><ele>56.5</ele><time>2026-04-19T13:51:50.975Z</time></trkpt><trkpt lat="44.82840639392036" lon="0.9457057230772035"><ele>57.0</ele><time>2026-04-19T13:51:51.975Z</time></trkpt><trkpt lat="44.828546416131545" lon="0.9454408701771329"><ele>57.0</ele><time>2026-04-19T13:51:52.975Z</time></trkpt><trkpt lat="44.828720068280504" lon="0.9451937245720742"><ele>57.0</ele><time>2026-04-19T13:51:53.975Z</time></trkpt><trkpt lat="44.828878651084615" lon="0.9449389282046512"><ele>58.0</ele><time>2026-04-19T13:51:54.975Z</time></trkpt><trkpt lat="44.82904926193785" lon="0.9446903157738138"><ele>59.0</ele><time>2026-04-19T13:51:55.975Z</time></trkpt><trkpt lat="44.82920416587473" lon="0.9444484475570794"><ele>58.5</ele><time>2026-04-19T13:51:56.975Z</time></trkpt><trkpt lat="44.829375792905246" lon="0.9442041108445466"><ele>58.0</ele><time>2026-04-19T13:51:57.975Z</time></trkpt><trkpt lat="44.82954471608386" lon="0.9439582337484406"><ele>58.0</ele><time>2026-04-19T13:51:58.975Z</time></trkpt><trkpt lat="44.82972014045626" lon="0.9437070518941902"><ele>58.0</ele><time>2026-04-19T13:51:59.975Z</time></trkpt><trkpt lat="44.829870994605876" lon="0.9434579762562725"><ele>59.0</ele><time>2026-04-19T13:52:00.975Z</time></trkpt><trkpt lat="44.83003012810504" lon="0.9432116062299961"><ele>60.0</ele><time>2026-04-19T13:52:01.975Z</time></trkpt><trkpt lat="44.83019889333328" lon="0.942976849056191"><ele>60.0</ele><time>2026-04-19T13:52:02.975Z</time></trkpt><trkpt lat="44.830364539134095" lon="0.9427361936049325"><ele>60.0</ele><time>2026-04-19T13:52:03.975Z</time></trkpt><trkpt lat="44.83053733501312" lon="0.9424916761496093"><ele>59.5</ele><time>2026-04-19T13:52:04.975Z</time></trkpt><trkpt lat="44.83070414223181" lon="0.942253957275343"><ele>59.0</ele><time>2026-04-19T13:52:05.975Z</time></trkpt><trkpt lat="44.83088633137807" lon="0.9420212355301105"><ele>57.5</ele><time>2026-04-19T13:52:06.975Z</time></trkpt><trkpt lat="44.83107497999542" lon="0.9417993152051021"><ele>56.0</ele><time>2026-04-19T13:52:07.975Z</time></trkpt><trkpt lat="44.8312786728849" lon="0.9416105505630215"><ele>56.0</ele><time>2026-04-19T13:52:08.975Z</time></trkpt><trkpt lat="44.83148702544452" lon="0.9414030645106983"><ele>56.0</ele><time>2026-04-19T13:52:09.975Z</time></trkpt><trkpt lat="44.83171100250723" lon="0.9412298773242955"><ele>55.5</ele><time>2026-04-19T13:52:10.975Z</time></trkpt><trkpt lat="44.83193875254189" lon="0.9410664653689111"><ele>55.0</ele><time>2026-04-19T13:52:11.975Z</time></trkpt><trkpt lat="44.832157816247395" lon="0.9408815811977596"><ele>56.0</ele><time>2026-04-19T13:52:12.975Z</time></trkpt><trkpt lat="44.83237655658324" lon="0.9406997176366217"><ele>57.0</ele><time>2026-04-19T13:52:13.975Z</time></trkpt><trkpt lat="44.832589924078995" lon="0.940522961730914"><ele>55.5</ele><time>2026-04-19T13:52:14.975Z</time></trkpt><trkpt lat="44.83279533570256" lon="0.9403520137513044"><ele>54.0</ele><time>2026-04-19T13:52:15.975Z</time></trkpt><trkpt lat="44.83299502901568" lon="0.9401886018925119"><ele>55.0</ele><time>2026-04-19T13:52:16.975Z</time></trkpt><trkpt lat="44.833193002824956" lon="0.940019417036301"><ele>56.0</ele><time>2026-04-19T13:52:17.975Z</time></trkpt><trkpt lat="44.83338859952366" lon="0.9398418474831902"><ele>54.0</ele><time>2026-04-19T13:52:18.975Z</time></trkpt><trkpt lat="44.83359152084421" lon="0.9396670940840861"><ele>52.0</ele><time>2026-04-19T13:52:19.975Z</time></trkpt><trkpt lat="44.833795724466206" lon="0.9394952516808674"><ele>52.0</ele><time>2026-04-19T13:52:20.975Z</time></trkpt><trkpt lat="44.83399558735" lon="0.9393285339805704"><ele>52.0</ele><time>2026-04-19T13:52:21.975Z</time></trkpt><trkpt lat="44.83420500386797" lon="0.9391471883044616"><ele>53.5</ele><time>2026-04-19T13:52:22.975Z</time></trkpt><trkpt lat="44.834415039876404" lon="0.938970716020536"><ele>55.0</ele><time>2026-04-19T13:52:23.975Z</time></trkpt><trkpt lat="44.83461071031507" lon="0.9387858695107715"><ele>55.0</ele><time>2026-04-19T13:52:24.975Z</time></trkpt><trkpt lat="44.83481406786275" lon="0.9385966276632087"><ele>55.0</ele><time>2026-04-19T13:52:25.975Z</time></trkpt><trkpt lat="44.834997882030734" lon="0.9383547387068268"><ele>54.0</ele><time>2026-04-19T13:52:26.975Z</time></trkpt><trkpt lat="44.83518153018449" lon="0.9381423645006728"><ele>53.0</ele><time>2026-04-19T13:52:27.975Z</time></trkpt><trkpt lat="44.835356745651936" lon="0.9379133572249155"><ele>53.0</ele><time>2026-04-19T13:52:28.975Z</time></trkpt><trkpt lat="44.83554481796345" lon="0.9376753339216313"><ele>53.0</ele><time>2026-04-19T13:52:29.976Z</time></trkpt><trkpt lat="44.83572835324209" lon="0.9374426896389134"><ele>53.5</ele><time>2026-04-19T13:52:30.976Z</time></trkpt><trkpt lat="44.83591361207203" lon="0.9372007145525738"><ele>54.0</ele><time>2026-04-19T13:52:31.976Z</time></trkpt><trkpt lat="44.836097412611835" lon="0.9369623918691616"><ele>54.0</ele><time>2026-04-19T13:52:32.976Z</time></trkpt><trkpt lat="44.83628628153326" lon="0.9367198006657993"><ele>54.0</ele><time>2026-04-19T13:52:33.976Z</time></trkpt><trkpt lat="44.83647917055568" lon="0.9364776412140059"><ele>54.0</ele><time>2026-04-19T13:52:34.976Z</time></trkpt><trkpt lat="44.83666028706485" lon="0.9362373119873609"><ele>54.0</ele><time>2026-04-19T13:52:35.976Z</time></trkpt><trkpt lat="44.83683695874568" lon="0.9360038503948388"><ele>54.5</ele><time>2026-04-19T13:52:36.976Z</time></trkpt><trkpt lat="44.837025494993235" lon="0.9357652289128026"><ele>55.0</ele><time>2026-04-19T13:52:37.976Z</time></trkpt><trkpt lat="44.837196673942806" lon="0.9355393281725132"><ele>55.0</ele><time>2026-04-19T13:52:38.976Z</time></trkpt><trkpt lat="44.83736968099445" lon="0.9353018379578016"><ele>55.0</ele><time>2026-04-19T13:52:39.976Z</time></trkpt><trkpt lat="44.83755830132261" lon="0.9350718304671969"><ele>54.0</ele><time>2026-04-19T13:52:40.976Z</time></trkpt><trkpt lat="44.837761110087904" lon="0.9348510322417077"><ele>53.0</ele><time>2026-04-19T13:52:41.976Z</time></trkpt><trkpt lat="44.83796953652295" lon="0.9346475327969919"><ele>53.0</ele><time>2026-04-19T13:52:42.976Z</time></trkpt><trkpt lat="44.838190952353465" lon="0.9344509265730718"><ele>53.0</ele><time>2026-04-19T13:52:43.976Z</time></trkpt><trkpt lat="44.838433921216044" lon="0.9342561908664997"><ele>53.0</ele><time>2026-04-19T13:52:44.976Z</time></trkpt><trkpt lat="44.838672566037296" lon="0.934048929055309"><ele>53.0</ele><time>2026-04-19T13:52:45.976Z</time></trkpt><trkpt lat="44.838906214733065" lon="0.9338385481344483"><ele>53.0</ele><time>2026-04-19T13:52:46.976Z</time></trkpt><trkpt lat="44.83913523731381" lon="0.9336333072788457"><ele>53.0</ele><time>2026-04-19T13:52:47.976Z</time></trkpt><trkpt lat="44.83936008252083" lon="0.9334331221621602"><ele>54.0</ele><time>2026-04-19T13:52:48.976Z</time></trkpt><trkpt lat="44.839582186256294" lon="0.9332310070172173"><ele>55.0</ele><time>2026-04-19T13:52:49.976Z</time></trkpt><trkpt lat="44.839795203296504" lon="0.933024672324939"><ele>55.0</ele><time>2026-04-19T13:52:50.976Z</time></trkpt><trkpt lat="44.839998355453844" lon="0.932802079627362"><ele>55.0</ele><time>2026-04-19T13:52:51.976Z</time></trkpt><trkpt lat="44.84018992662221" lon="0.9325611693493607"><ele>56.0</ele><time>2026-04-19T13:52:52.976Z</time></trkpt><trkpt lat="44.840374354265826" lon="0.9322988587426617"><ele>57.0</ele><time>2026-04-19T13:52:53.976Z</time></trkpt><trkpt lat="44.84054925157763" lon="0.9320445699661106"><ele>57.0</ele><time>2026-04-19T13:52:54.976Z</time></trkpt><trkpt lat="44.84073378307487" lon="0.931798152060178"><ele>57.0</ele><time>2026-04-19T13:52:55.976Z</time></trkpt><trkpt lat="44.840907320770704" lon="0.9315545916993784"><ele>55.0</ele><time>2026-04-19T13:52:56.976Z</time></trkpt><trkpt lat="44.84107254934821" lon="0.9313125663090511"><ele>53.0</ele><time>2026-04-19T13:52:57.976Z</time></trkpt><trkpt lat="44.84123620059718" lon="0.9310813900314747"><ele>55.5</ele><time>2026-04-19T13:52:58.976Z</time></trkpt><trkpt lat="44.84140729953043" lon="0.9308535873079965"><ele>58.0</ele><time>2026-04-19T13:52:59.976Z</time></trkpt><trkpt lat="44.84157161768518" lon="0.9306102696837248"><ele>58.0</ele><time>2026-04-19T13:53:00.976Z</time></trkpt><trkpt lat="44.84172796780633" lon="0.9303506769499114"><ele>58.0</ele><time>2026-04-19T13:53:01.976Z</time></trkpt><trkpt lat="44.84186041196533" lon="0.9300749853352791"><ele>56.5</ele><time>2026-04-19T13:53:02.976Z</time></trkpt><trkpt lat="44.841976390922014" lon="0.9297945944689374"><ele>55.0</ele><time>2026-04-19T13:53:03.976Z</time></trkpt><trkpt lat="44.842092395362585" lon="0.9295022327559073"><ele>57.0</ele><time>2026-04-19T13:53:04.976Z</time></trkpt><trkpt lat="44.84219427196169" lon="0.929202253094586"><ele>59.0</ele><time>2026-04-19T13:53:05.976Z</time></trkpt><trkpt lat="44.842290175799604" lon="0.9288760502083558"><ele>59.0</ele><time>2026-04-19T13:53:06.976Z</time></trkpt><trkpt lat="44.84238482451219" lon="0.9285507136065783"><ele>59.0</ele><time>2026-04-19T13:53:07.976Z</time></trkpt><trkpt lat="44.84248114814094" lon="0.9282266323223491"><ele>58.5</ele><time>2026-04-19T13:53:08.976Z</time></trkpt><trkpt lat="44.84257343612289" lon="0.9279027924620715"><ele>58.0</ele><time>2026-04-19T13:53:09.976Z</time></trkpt><trkpt lat="44.842674846571555" lon="0.9275807672955956"><ele>59.0</ele><time>2026-04-19T13:53:10.977Z</time></trkpt><trkpt lat="44.84275836982871" lon="0.9272589670073346"><ele>60.0</ele><time>2026-04-19T13:53:11.977Z</time></trkpt><trkpt lat="44.84285470778692" lon="0.9269428410937137"><ele>61.0</ele><time>2026-04-19T13:53:12.977Z</time></trkpt><trkpt lat="44.84295473405234" lon="0.9266235722608201"><ele>62.0</ele><time>2026-04-19T13:53:13.977Z</time></trkpt><trkpt lat="44.843044363760775" lon="0.9263076968191953"><ele>62.0</ele><time>2026-04-19T13:53:14.977Z</time></trkpt><trkpt lat="44.84313751495152" lon="0.9259981592457464"><ele>62.0</ele><time>2026-04-19T13:53:15.977Z</time></trkpt><trkpt lat="44.84322897839652" lon="0.9256950991561574"><ele>61.5</ele><time>2026-04-19T13:53:16.977Z</time></trkpt><trkpt lat="44.84332011949649" lon="0.925397611144374"><ele>61.0</ele><time>2026-04-19T13:53:17.977Z</time></trkpt><trkpt lat="44.84340702715004" lon="0.9250920348157207"><ele>62.0</ele><time>2026-04-19T13:53:18.977Z</time></trkpt><trkpt lat="44.84349628379333" lon="0.9247877163241156"><ele>63.0</ele><time>2026-04-19T13:53:19.977Z</time></trkpt><trkpt lat="44.843581069325786" lon="0.9244881506952295"><ele>62.5</ele><time>2026-04-19T13:53:20.977Z</time></trkpt><trkpt lat="44.8436880813771" lon="0.924177245828967"><ele>62.0</ele><time>2026-04-19T13:53:21.977Z</time></trkpt><trkpt lat="44.84374951516483" lon="0.9238723801605042"><ele>62.0</ele><time>2026-04-19T13:53:22.977Z</time></trkpt><trkpt lat="44.843832574551534" lon="0.9235806808488897"><ele>62.0</ele><time>2026-04-19T13:53:23.977Z</time></trkpt><trkpt lat="44.843924108138175" lon="0.9232964174366747"><ele>62.0</ele><time>2026-04-19T13:53:24.977Z</time></trkpt><trkpt lat="44.844008571347" lon="0.9230070736352413"><ele>61.66666666666667</ele><time>2026-04-19T13:53:25.977Z</time></trkpt><trkpt lat="44.84407896614438" lon="0.9227190692245155"><ele>61.33333333333333</ele><time>2026-04-19T13:53:26.977Z</time></trkpt><trkpt lat="44.844147153346896" lon="0.9224401381592071"><ele>61.0</ele><time>2026-04-19T13:53:27.977Z</time></trkpt><trkpt lat="44.84424130518067" lon="0.922166937364678"><ele>60.666666666666664</ele><time>2026-04-19T13:53:28.977Z</time></trkpt><trkpt lat="44.84433713559932" lon="0.9218921800157661"><ele>60.33333333333333</ele><time>2026-04-19T13:53:29.977Z</time></trkpt><trkpt lat="44.84441434183786" lon="0.9216237071126662"><ele>60.0</ele><time>2026-04-19T13:53:30.977Z</time></trkpt><trkpt lat="44.84448666529858" lon="0.9213496335022644"><ele>60.0</ele><time>2026-04-19T13:53:31.974Z</time></trkpt><trkpt lat="44.8445659847496" lon="0.9210780603524056"><ele>60.0</ele><time>2026-04-19T13:53:32.975Z</time></trkpt><trkpt lat="44.84464931265936" lon="0.9207995481014671"><ele>60.0</ele><time>2026-04-19T13:53:33.977Z</time></trkpt><trkpt lat="44.84471709833714" lon="0.9205281814560783"><ele>60.0</ele><time>2026-04-19T13:53:34.979Z</time></trkpt><trkpt lat="44.844797811918525" lon="0.9202529870889368"><ele>60.0</ele><time>2026-04-19T13:53:35.98Z</time></trkpt><trkpt lat="44.84489136510904" lon="0.9199958185345158"><ele>60.0</ele><time>2026-04-19T13:53:36.981Z</time></trkpt><trkpt lat="44.84496309129772" lon="0.9197455037443135"><ele>59.66666666666667</ele><time>2026-04-19T13:53:37.983Z</time></trkpt><trkpt lat="44.845021833976844" lon="0.9194970983628675"><ele>59.333333333333336</ele><time>2026-04-19T13:53:38.984Z</time></trkpt><trkpt lat="44.84509085172417" lon="0.9192546836060778"><ele>59.0</ele><time>2026-04-19T13:53:39.985Z</time></trkpt><trkpt lat="44.84516280706159" lon="0.9190128959324839"><ele>59.0</ele><time>2026-04-19T13:53:40.986Z</time></trkpt><trkpt lat="44.84522348453942" lon="0.9188016950380581"><ele>59.0</ele><time>2026-04-19T13:53:41.987Z</time></trkpt><trkpt lat="44.845290463361785" lon="0.9185846820382396"><ele>59.0</ele><time>2026-04-19T13:53:42.988Z</time></trkpt><trkpt lat="44.84534840148721" lon="0.9183790004098947"><ele>59.0</ele><time>2026-04-19T13:53:43.989Z</time></trkpt><trkpt lat="44.84541117237491" lon="0.9181636150316685"><ele>59.0</ele><time>2026-04-19T13:53:44.99Z</time></trkpt><trkpt lat="44.84546662424528" lon="0.9179608521754296"><ele>59.0</ele><time>2026-04-19T13:53:45.99Z</time></trkpt><trkpt lat="44.84553565317939" lon="0.9177737944178412"><ele>59.0</ele><time>2026-04-19T13:53:46.991Z</time></trkpt><trkpt lat="44.845576452172004" lon="0.917620314593857"><ele>59.00000000000001</ele><time>2026-04-19T13:53:47.992Z</time></trkpt><trkpt lat="44.84560941364936" lon="0.9175126279667971"><ele>59.00000000000001</ele><time>2026-04-19T13:53:48.992Z</time></trkpt><trkpt lat="44.84565258061914" lon="0.91737741423957"><ele>59.0</ele><time>2026-04-19T13:53:50.993Z</time></trkpt><trkpt lat="44.84567899612981" lon="0.9172780792617986"><ele>59.0</ele><time>2026-04-19T13:53:51.994Z</time></trkpt><trkpt lat="44.84571272437793" lon="0.9171604754160873"><ele>59.400000000000006</ele><time>2026-04-19T13:53:52.994Z</time></trkpt><trkpt lat="44.84575196785452" lon="0.9170409638348164"><ele>59.800000000000004</ele><time>2026-04-19T13:53:53.995Z</time></trkpt><trkpt lat="44.84579708585544" lon="0.9169079766329714"><ele>60.199999999999996</ele><time>2026-04-19T13:53:54.995Z</time></trkpt><trkpt lat="44.845828399605765" lon="0.9167602152505862"><ele>60.599999999999994</ele><time>2026-04-19T13:53:55.996Z</time></trkpt><trkpt lat="44.845859115640295" lon="0.9166031247659071"><ele>61.0</ele><time>2026-04-19T13:53:56.996Z</time></trkpt><trkpt lat="44.84589763316656" lon="0.9164718541566429"><ele>61.0</ele><time>2026-04-19T13:53:57.996Z</time></trkpt><trkpt lat="44.84594794017061" lon="0.9163163378689405"><ele>61.0</ele><time>2026-04-19T13:53:58.997Z</time></trkpt><trkpt lat="44.84599611159056" lon="0.9161660079423661"><ele>61.0</ele><time>2026-04-19T13:53:59.997Z</time></trkpt><trkpt lat="44.846040403861515" lon="0.9160078551560089"><ele>61.0</ele><time>2026-04-19T13:54:00.997Z</time></trkpt><trkpt lat="44.8460773707898" lon="0.9158588140630052"><ele>61.25</ele><time>2026-04-19T13:54:01.998Z</time></trkpt><trkpt lat="44.84611607337238" lon="0.9157236855157354"><ele>61.5</ele><time>2026-04-19T13:54:02.998Z</time></trkpt><trkpt lat="44.84616639829817" lon="0.9155504492295826"><ele>61.75</ele><time>2026-04-19T13:54:03.998Z</time></trkpt><trkpt lat="44.84621152227697" lon="0.9153980543111735"><ele>62.0</ele><time>2026-04-19T13:54:04.998Z</time></trkpt><trkpt lat="44.84625937144749" lon="0.9152494397697389"><ele>62.0</ele><time>2026-04-19T13:54:05.999Z</time></trkpt><trkpt lat="44.84630668699923" lon="0.9151013386224309"><ele>62.0</ele><time>2026-04-19T13:54:06.999Z</time></trkpt><trkpt lat="44.846362532728804" lon="0.9149552987723505"><ele>62.0</ele><time>2026-04-19T13:54:07.999Z</time></trkpt><trkpt lat="44.84641053730258" lon="0.9147761178427369"><ele>62.0</ele><time>2026-04-19T13:54:08.999Z</time></trkpt><trkpt lat="44.846451505912796" lon="0.9146175206388856"><ele>62.0</ele><time>2026-04-19T13:54:09.999Z</time></trkpt><trkpt lat="44.846497199874754" lon="0.914449566058743"><ele>62.0</ele><time>2026-04-19T13:54:11Z</time></trkpt><trkpt lat="44.846543945470515" lon="0.9142906422711861"><ele>62.0</ele><time>2026-04-19T13:54:12Z</time></trkpt><trkpt lat="44.846588241162245" lon="0.9141218369558459"><ele>62.0</ele><time>2026-04-19T13:54:13Z</time></trkpt><trkpt lat="44.84663412350305" lon="0.913949511351755"><ele>62.0</ele><time>2026-04-19T13:54:14Z</time></trkpt><trkpt lat="44.84668059715104" lon="0.9137790752549425"><ele>62.0</ele><time>2026-04-19T13:54:15Z</time></trkpt><trkpt lat="44.84670248436943" lon="0.9135948437476153"><ele>62.0</ele><time>2026-04-19T13:54:16Z</time></trkpt><trkpt lat="44.8466964948316" lon="0.913406437722585"><ele>62.0</ele><time>2026-04-19T13:54:17Z</time></trkpt><trkpt lat="44.8466702608457" lon="0.9132210692920518"><ele>62.0</ele><time>2026-04-19T13:54:18.001Z</time></trkpt><trkpt lat="44.846631604858175" lon="0.9130433919978618"><ele>62.0</ele><time>2026-04-19T13:54:19.001Z</time></trkpt><trkpt lat="44.84658597416894" lon="0.9128995291405239"><ele>62.0</ele><time>2026-04-19T13:54:20.001Z</time></trkpt><trkpt lat="44.846532606622795" lon="0.9127518693542587"><ele>62.0</ele><time>2026-04-19T13:54:21.001Z</time></trkpt><trkpt lat="44.84649417628348" lon="0.9126216426165699"><ele>62.2</ele><time>2026-04-19T13:54:22.001Z</time></trkpt><trkpt lat="44.84644500985153" lon="0.9125019567445339"><ele>62.400000000000006</ele><time>2026-04-19T13:54:23.001Z</time></trkpt><trkpt lat="44.846396367178805" lon="0.9123850474625705"><ele>62.599999999999994</ele><time>2026-04-19T13:54:24.001Z</time></trkpt><trkpt lat="44.84635777938944" lon="0.9122842701551028"><ele>62.8</ele><time>2026-04-19T13:54:25.001Z</time></trkpt><trkpt lat="44.84632840443796" lon="0.9121603233686538"><ele>63.0</ele><time>2026-04-19T13:54:26.001Z</time></trkpt><trkpt lat="44.84628364728277" lon="0.9120382183787983"><ele>63.0</ele><time>2026-04-19T13:54:27.001Z</time></trkpt><trkpt lat="44.84624303492377" lon="0.911930921535704"><ele>63.0</ele><time>2026-04-19T13:54:28.002Z</time></trkpt><trkpt lat="44.84619292645796" lon="0.9117959558378526"><ele>63.0</ele><time>2026-04-19T13:54:29.002Z</time></trkpt><trkpt lat="44.84614026937018" lon="0.9116690152702425"><ele>63.0</ele><time>2026-04-19T13:54:30.002Z</time></trkpt><trkpt lat="44.84610427847646" lon="0.9115487829203734"><ele>63.0</ele><time>2026-04-19T13:54:31.002Z</time></trkpt><trkpt lat="44.846048418117114" lon="0.9114498605237876"><ele>63.0</ele><time>2026-04-19T13:54:32.002Z</time></trkpt><trkpt lat="44.84601956092352" lon="0.9113404715198945"><ele>63.0</ele><time>2026-04-19T13:54:33.002Z</time></trkpt><trkpt lat="44.846010492928094" lon="0.9112118000697527"><ele>63.0</ele><time>2026-04-19T13:54:34.002Z</time></trkpt><trkpt lat="44.84602720015218" lon="0.9110701987672357"><ele>63.0</ele><time>2026-04-19T13:54:35.002Z</time></trkpt><trkpt lat="44.84603631590421" lon="0.9109011170173904"><ele>63.0</ele><time>2026-04-19T13:54:36.002Z</time></trkpt><trkpt lat="44.84603830285236" lon="0.9107159744727436"><ele>63.33333333333333</ele><time>2026-04-19T13:54:37.002Z</time></trkpt><trkpt lat="44.84605311465684" lon="0.9105096421522273"><ele>63.666666666666664</ele><time>2026-04-19T13:54:38.002Z</time></trkpt><trkpt lat="44.84604458532886" lon="0.9102695605163574"><ele>64.0</ele><time>2026-04-19T13:54:39.002Z</time></trkpt><trkpt lat="44.84604730138468" lon="0.910005794141606"><ele>64.0</ele><time>2026-04-19T13:54:40.002Z</time></trkpt><trkpt lat="44.8460456287723" lon="0.9097420910650706"><ele>64.0</ele><time>2026-04-19T13:54:41.002Z</time></trkpt><trkpt lat="44.84604546371782" lon="0.9095106386017481"><ele>64.0</ele><time>2026-04-19T13:54:42.002Z</time></trkpt><trkpt lat="44.8460500174444" lon="0.9092983399229657"><ele>63.75</ele><time>2026-04-19T13:54:43.002Z</time></trkpt><trkpt lat="44.84605274364263" lon="0.9090935947599978"><ele>63.5</ele><time>2026-04-19T13:54:44.002Z</time></trkpt><trkpt lat="44.84605646185314" lon="0.9088931517930643"><ele>63.25</ele><time>2026-04-19T13:54:45.002Z</time></trkpt><trkpt lat="44.84606033032218" lon="0.9087041079360119"><ele>63.0</ele><time>2026-04-19T13:54:46.002Z</time></trkpt><trkpt lat="44.846070303414486" lon="0.9085184681483371"><ele>63.0</ele><time>2026-04-19T13:54:47.003Z</time></trkpt><trkpt lat="44.84608886472489" lon="0.9083433136905852"><ele>63.0</ele><time>2026-04-19T13:54:48.003Z</time></trkpt><trkpt lat="44.84611331521467" lon="0.9081537948420009"><ele>63.0</ele><time>2026-04-19T13:54:49.003Z</time></trkpt><trkpt lat="44.84614801448273" lon="0.9079729647784847"><ele>63.0</ele><time>2026-04-19T13:54:50.003Z</time></trkpt><trkpt lat="44.846193767613975" lon="0.9077903178531519"><ele>63.0</ele><time>2026-04-19T13:54:51.003Z</time></trkpt><trkpt lat="44.84624458062686" lon="0.9076148297105417"><ele>63.0</ele><time>2026-04-19T13:54:52.003Z</time></trkpt><trkpt lat="44.84634119286815" lon="0.9072334709667021"><ele>63.0</ele><time>2026-04-19T13:54:54.003Z</time></trkpt><trkpt lat="44.8463882581654" lon="0.907038954107681"><ele>63.0</ele><time>2026-04-19T13:54:55.003Z</time></trkpt><trkpt lat="44.846441448685304" lon="0.9068451293136831"><ele>63.0</ele><time>2026-04-19T13:54:56.003Z</time></trkpt><trkpt lat="44.846470768483286" lon="0.9066547578195979"><ele>63.0</ele><time>2026-04-19T13:54:57.003Z</time></trkpt><trkpt lat="44.84649500391656" lon="0.9064620236011135"><ele>63.0</ele><time>2026-04-19T13:54:58.003Z</time></trkpt><trkpt lat="44.846515706260256" lon="0.906303343639486"><ele>62.75</ele><time>2026-04-19T13:54:59.003Z</time></trkpt><trkpt lat="44.846528806998606" lon="0.9061229250875203"><ele>62.5</ele><time>2026-04-19T13:55:00.003Z</time></trkpt><trkpt lat="44.84655506480614" lon="0.9059518433454365"><ele>62.25</ele><time>2026-04-19T13:55:01.003Z</time></trkpt><trkpt lat="44.84658579651438" lon="0.9058076975815176"><ele>62.0</ele><time>2026-04-19T13:55:02.003Z</time></trkpt><trkpt lat="44.846623183099" lon="0.9056257302801292"><ele>62.0</ele><time>2026-04-19T13:55:03.003Z</time></trkpt><trkpt lat="44.84667328762795" lon="0.9054347697035912"><ele>62.0</ele><time>2026-04-19T13:55:04.003Z</time></trkpt><trkpt lat="44.84672535008125" lon="0.9052478934447771"><ele>62.0</ele><time>2026-04-19T13:55:05.003Z</time></trkpt><trkpt lat="44.84678401600726" lon="0.9050602317068858"><ele>62.0</ele><time>2026-04-19T13:55:06.003Z</time></trkpt><trkpt lat="44.84683962217315" lon="0.9048750479811586"><ele>62.25</ele><time>2026-04-19T13:55:07.003Z</time></trkpt><trkpt lat="44.846913048826025" lon="0.9046936104024133"><ele>62.5</ele><time>2026-04-19T13:55:08.003Z</time></trkpt><trkpt lat="44.84698212348144" lon="0.904516967189359"><ele>62.75</ele><time>2026-04-19T13:55:09.003Z</time></trkpt><trkpt lat="44.84704703402357" lon="0.9043443082811263"><ele>63.0</ele><time>2026-04-19T13:55:10.003Z</time></trkpt><trkpt lat="44.847104159715514" lon="0.9041903723920962"><ele>63.0</ele><time>2026-04-19T13:55:11.003Z</time></trkpt><trkpt lat="44.84716134891139" lon="0.9040273579083338"><ele>63.0</ele><time>2026-04-19T13:55:12.003Z</time></trkpt><trkpt lat="44.8472110631401" lon="0.903871984872526"><ele>63.0</ele><time>2026-04-19T13:55:13.003Z</time></trkpt><trkpt lat="44.84727065726031" lon="0.9037186939388032"><ele>63.0</ele><time>2026-04-19T13:55:14.003Z</time></trkpt><trkpt lat="44.8473388053065" lon="0.9035661553146507"><ele>63.0</ele><time>2026-04-19T13:55:15.003Z</time></trkpt><trkpt lat="44.847415632579214" lon="0.9034163705051874"><ele>63.0</ele><time>2026-04-19T13:55:16.003Z</time></trkpt><trkpt lat="44.84749493867721" lon="0.9032707606123224"><ele>63.0</ele><time>2026-04-19T13:55:17.004Z</time></trkpt><trkpt lat="44.847558480677385" lon="0.9031127815465589"><ele>63.0</ele><time>2026-04-19T13:55:18.004Z</time></trkpt><trkpt lat="44.84763302988241" lon="0.9029652952731734"><ele>63.25</ele><time>2026-04-19T13:55:19.004Z</time></trkpt><trkpt lat="44.8476964921393" lon="0.9028096841496557"><ele>63.5</ele><time>2026-04-19T13:55:20.004Z</time></trkpt><trkpt lat="44.84777850780414" lon="0.902643441560672"><ele>63.75</ele><time>2026-04-19T13:55:21.004Z</time></trkpt><trkpt lat="44.847842727633264" lon="0.9024920846706336"><ele>64.0</ele><time>2026-04-19T13:55:22.004Z</time></trkpt><trkpt lat="44.847906754817735" lon="0.9023690342437032"><ele>63.99999999999999</ele><time>2026-04-19T13:55:23.004Z</time></trkpt><trkpt lat="44.84796369571848" lon="0.9022661368156553"><ele>64.0</ele><time>2026-04-19T13:55:24.004Z</time></trkpt><trkpt lat="44.84798977437964" lon="0.9021746691113813"><ele>64.0</ele><time>2026-04-19T13:55:25.004Z</time></trkpt><trkpt lat="44.84800881192996" lon="0.9020836724451485"><ele>64.0</ele><time>2026-04-19T13:55:26.004Z</time></trkpt><trkpt lat="44.848080925854575" lon="0.9019762550317321"><ele>63.99999999999999</ele><time>2026-04-19T13:55:28.004Z</time></trkpt><trkpt lat="44.84817680148847" lon="0.9019125880313064"><ele>64.0</ele><time>2026-04-19T13:55:30.004Z</time></trkpt><trkpt lat="44.84828140019646" lon="0.9018298947350741"><ele>64.0</ele><time>2026-04-19T13:55:32.004Z</time></trkpt><trkpt lat="44.84827043272701" lon="0.9016800348374837"><ele>64.0</ele><time>2026-04-19T13:55:34.004Z</time></trkpt><trkpt lat="44.84821594822958" lon="0.9016220690975874"><ele>64.0</ele><time>2026-04-19T13:55:35.004Z</time></trkpt><trkpt lat="44.848138350359264" lon="0.9015794653361141"><ele>64.0</ele><time>2026-04-19T13:55:36.004Z</time></trkpt><trkpt lat="44.848051512404794" lon="0.9015401624030663"><ele>64.0</ele><time>2026-04-19T13:55:37.004Z</time></trkpt><trkpt lat="44.84796628906187" lon="0.9014588983886189"><ele>64.0</ele><time>2026-04-19T13:55:38.001Z</time></trkpt><trkpt lat="44.84789850319878" lon="0.9012978672808275"><ele>64.0</ele><time>2026-04-19T13:55:39.001Z</time></trkpt><trkpt lat="44.84779861637059" lon="0.9011175350947933"><ele>64.0</ele><time>2026-04-19T13:55:40.001Z</time></trkpt><trkpt lat="44.84770335219061" lon="0.9009135988320174"><ele>65.66666666666666</ele><time>2026-04-19T13:55:41.001Z</time></trkpt><trkpt lat="44.847612979992824" lon="0.9006968080125058"><ele>67.33333333333333</ele><time>2026-04-19T13:55:42.001Z</time></trkpt><trkpt lat="44.84750066575893" lon="0.9004912580553369"><ele>69.0</ele><time>2026-04-19T13:55:43.001Z</time></trkpt><trkpt lat="44.84741798215982" lon="0.9002578503519997"><ele>69.0</ele><time>2026-04-19T13:55:44.001Z</time></trkpt><trkpt lat="44.84731247583653" lon="0.900044087924021"><ele>69.0</ele><time>2026-04-19T13:55:45.001Z</time></trkpt><trkpt lat="44.84721884317697" lon="0.8998518457468503"><ele>69.0</ele><time>2026-04-19T13:55:46.001Z</time></trkpt><trkpt lat="44.84713674788417" lon="0.8996633962949285"><ele>69.0</ele><time>2026-04-19T13:55:47.001Z</time></trkpt><trkpt lat="44.84707030000679" lon="0.8994890572749366"><ele>69.0</ele><time>2026-04-19T13:55:48Z</time></trkpt><trkpt lat="44.84699502819158" lon="0.8993289968011465"><ele>69.0</ele><time>2026-04-19T13:55:49Z</time></trkpt><trkpt lat="44.84692002056136" lon="0.8991652192759826"><ele>69.0</ele><time>2026-04-19T13:55:50Z</time></trkpt><trkpt lat="44.8468478872819" lon="0.8990146452358722"><ele>69.75</ele><time>2026-04-19T13:55:51.001Z</time></trkpt><trkpt lat="44.846779024401926" lon="0.8988655988685925"><ele>70.5</ele><time>2026-04-19T13:55:52.001Z</time></trkpt><trkpt lat="44.846710224803914" lon="0.8987291562198336"><ele>71.25</ele><time>2026-04-19T13:55:53.001Z</time></trkpt><trkpt lat="44.84665651955311" lon="0.8985688433040238"><ele>72.0</ele><time>2026-04-19T13:55:54.001Z</time></trkpt><trkpt lat="44.84658937895347" lon="0.8984170268627798"><ele>72.25</ele><time>2026-04-19T13:55:55.001Z</time></trkpt><trkpt lat="44.84650365198602" lon="0.8982657393587398"><ele>72.5</ele><time>2026-04-19T13:55:56.001Z</time></trkpt><trkpt lat="44.846442892253826" lon="0.8980789816347925"><ele>72.75</ele><time>2026-04-19T13:55:57.001Z</time></trkpt><trkpt lat="44.84637475823532" lon="0.8979071549131195"><ele>73.0</ele><time>2026-04-19T13:55:58.001Z</time></trkpt><trkpt lat="44.84629782532897" lon="0.8977330172750349"><ele>72.33333333333333</ele><time>2026-04-19T13:55:59.001Z</time></trkpt><trkpt lat="44.846217970918794" lon="0.8975652803327584"><ele>71.66666666666667</ele><time>2026-04-19T13:56:00.001Z</time></trkpt><trkpt lat="44.84613566880976" lon="0.8973811476601176"><ele>71.0</ele><time>2026-04-19T13:56:01.001Z</time></trkpt><trkpt lat="44.846053415843905" lon="0.8971953115733722"><ele>71.0</ele><time>2026-04-19T13:56:02.001Z</time></trkpt><trkpt lat="44.845971256250984" lon="0.8970066309104336"><ele>71.0</ele><time>2026-04-19T13:56:03.001Z</time></trkpt><trkpt lat="44.845884191565005" lon="0.8968249998397085"><ele>71.0</ele><time>2026-04-19T13:56:04.001Z</time></trkpt><trkpt lat="44.845795323145516" lon="0.896651824166316"><ele>73.5</ele><time>2026-04-19T13:56:05.001Z</time></trkpt><trkpt lat="44.84570270082588" lon="0.8964756414859415"><ele>76.0</ele><time>2026-04-19T13:56:06.001Z</time></trkpt><trkpt lat="44.845603745324944" lon="0.8963188103665433"><ele>78.5</ele><time>2026-04-19T13:56:07.001Z</time></trkpt><trkpt lat="44.84550484355714" lon="0.8961702467073827"><ele>81.0</ele><time>2026-04-19T13:56:08.001Z</time></trkpt><trkpt lat="44.84540048703944" lon="0.8960225040304433"><ele>83.0</ele><time>2026-04-19T13:56:09.001Z</time></trkpt><trkpt lat="44.84529613453156" lon="0.8958832768790991"><ele>85.0</ele><time>2026-04-19T13:56:10.001Z</time></trkpt><trkpt lat="44.845201492907485" lon="0.8957466823277198"><ele>87.0</ele><time>2026-04-19T13:56:11.001Z</time></trkpt><trkpt lat="44.845126827165416" lon="0.8955982748915617"><ele>89.0</ele><time>2026-04-19T13:56:12.001Z</time></trkpt><trkpt lat="44.84506065362079" lon="0.8954271608273519"><ele>89.0</ele><time>2026-04-19T13:56:13.001Z</time></trkpt><trkpt lat="44.844974285282724" lon="0.8952793141235356"><ele>89.0</ele><time>2026-04-19T13:56:14.001Z</time></trkpt><trkpt lat="44.84489714999619" lon="0.8950739296744878"><ele>89.0</ele><time>2026-04-19T13:56:15.001Z</time></trkpt><trkpt lat="44.84481329383928" lon="0.8948750482507533"><ele>92.0</ele><time>2026-04-19T13:56:16.001Z</time></trkpt><trkpt lat="44.844728912623836" lon="0.8946698239136583"><ele>95.0</ele><time>2026-04-19T13:56:17.001Z</time></trkpt><trkpt lat="44.84464565481678" lon="0.8944796468087741"><ele>98.0</ele><time>2026-04-19T13:56:18.001Z</time></trkpt><trkpt lat="44.84456187177576" lon="0.8942499226315774"><ele>96.66666666666666</ele><time>2026-04-19T13:56:19.001Z</time></trkpt><trkpt lat="44.84447638330464" lon="0.8940294404086241"><ele>95.33333333333333</ele><time>2026-04-19T13:56:20.001Z</time></trkpt><trkpt lat="44.8443669480006" lon="0.893793406262989"><ele>94.0</ele><time>2026-04-19T13:56:21.001Z</time></trkpt><trkpt lat="44.84426861139755" lon="0.8935497730744743"><ele>98.0</ele><time>2026-04-19T13:56:22.001Z</time></trkpt><trkpt lat="44.844170053215414" lon="0.8933088475029392"><ele>102.0</ele><time>2026-04-19T13:56:23.001Z</time></trkpt><trkpt lat="44.844052735463194" lon="0.8931025673754539"><ele>106.0</ele><time>2026-04-19T13:56:24.001Z</time></trkpt><trkpt lat="44.8439311347043" lon="0.8928841730936741"><ele>106.0</ele><time>2026-04-19T13:56:25.001Z</time></trkpt><trkpt lat="44.84380588141968" lon="0.8926828083048566"><ele>106.0</ele><time>2026-04-19T13:56:26.001Z</time></trkpt><trkpt lat="44.84367823217316" lon="0.8925084541832394"><ele>106.0</ele><time>2026-04-19T13:56:27.001Z</time></trkpt><trkpt lat="44.84355603784462" lon="0.8923206251793412"><ele>104.33333333333334</ele><time>2026-04-19T13:56:28.001Z</time></trkpt><trkpt lat="44.84342656829215" lon="0.8921392463334944"><ele>102.66666666666666</ele><time>2026-04-19T13:56:29.001Z</time></trkpt><trkpt lat="44.84330618292901" lon="0.891963790754599"><ele>101.0</ele><time>2026-04-19T13:56:30.001Z</time></trkpt><trkpt lat="44.84320169540895" lon="0.8917757953299501"><ele>103.0</ele><time>2026-04-19T13:56:31.001Z</time></trkpt><trkpt lat="44.843117709835774" lon="0.8915914388038205"><ele>105.0</ele><time>2026-04-19T13:56:32.001Z</time></trkpt><trkpt lat="44.84305363064595" lon="0.8913775802859316"><ele>107.0</ele><time>2026-04-19T13:56:33.001Z</time></trkpt><trkpt lat="44.84301548042032" lon="0.8911268510525995"><ele>109.0</ele><time>2026-04-19T13:56:34.001Z</time></trkpt><trkpt lat="44.84299945216176" lon="0.8908354219749178"><ele>111.0</ele><time>2026-04-19T13:56:35.001Z</time></trkpt><trkpt lat="44.84299897453261" lon="0.8905218459889761"><ele>113.0</ele><time>2026-04-19T13:56:36.001Z</time></trkpt><trkpt lat="44.84299439067487" lon="0.8902021207274172"><ele>113.33333333333333</ele><time>2026-04-19T13:56:37.001Z</time></trkpt><trkpt lat="44.84300154039119" lon="0.8898903581287608"><ele>113.66666666666666</ele><time>2026-04-19T13:56:38.001Z</time></trkpt><trkpt lat="44.84301258671889" lon="0.8895868289873091"><ele>114.0</ele><time>2026-04-19T13:56:39.001Z</time></trkpt><trkpt lat="44.84302300882321" lon="0.8893006435095288"><ele>115.0</ele><time>2026-04-19T13:56:40.001Z</time></trkpt><trkpt lat="44.843022605498206" lon="0.8890434111750193"><ele>116.0</ele><time>2026-04-19T13:56:41.001Z</time></trkpt><trkpt lat="44.84302482195572" lon="0.8887912929084022"><ele>117.0</ele><time>2026-04-19T13:56:42.001Z</time></trkpt><trkpt lat="44.84302963573482" lon="0.8885253593774994"><ele>117.66666666666666</ele><time>2026-04-19T13:56:43.001Z</time></trkpt><trkpt lat="44.84302258154779" lon="0.888245554302695"><ele>118.33333333333333</ele><time>2026-04-19T13:56:44.001Z</time></trkpt><trkpt lat="44.842997003167284" lon="0.8879802757965107"><ele>119.0</ele><time>2026-04-19T13:56:45.001Z</time></trkpt><trkpt lat="44.842958097821636" lon="0.8877086393688213"><ele>120.0</ele><time>2026-04-19T13:56:46.001Z</time></trkpt><trkpt lat="44.8429042191319" lon="0.8874300027802541"><ele>121.0</ele><time>2026-04-19T13:56:47.001Z</time></trkpt><trkpt lat="44.842849850177224" lon="0.8871512912858407"><ele>122.0</ele><time>2026-04-19T13:56:48.001Z</time></trkpt><trkpt lat="44.84275795103538" lon="0.8868845602820655"><ele>122.66666666666666</ele><time>2026-04-19T13:56:49.001Z</time></trkpt><trkpt lat="44.84265270435529" lon="0.886637210020916"><ele>123.33333333333334</ele><time>2026-04-19T13:56:50.001Z</time></trkpt><trkpt lat="44.84253941593837" lon="0.886391859365551"><ele>124.0</ele><time>2026-04-19T13:56:51.001Z</time></trkpt><trkpt lat="44.8424511884313" lon="0.8861387068958619"><ele>125.0</ele><time>2026-04-19T13:56:52.001Z</time></trkpt><trkpt lat="44.8423742782393" lon="0.8859004717374668"><ele>126.0</ele><time>2026-04-19T13:56:53.001Z</time></trkpt><trkpt lat="44.842310785027784" lon="0.8856458873605602"><ele>127.0</ele><time>2026-04-19T13:56:54.001Z</time></trkpt><trkpt lat="44.8422697800968" lon="0.8853899635048743"><ele>127.0</ele><time>2026-04-19T13:56:55.001Z</time></trkpt><trkpt lat="44.84224758477687" lon="0.8851240337305064"><ele>127.0</ele><time>2026-04-19T13:56:56.001Z</time></trkpt><trkpt lat="44.842243647019764" lon="0.8848705108269588"><ele>127.0</ele><time>2026-04-19T13:56:57.001Z</time></trkpt><trkpt lat="44.8422569866861" lon="0.8846236095185976"><ele>128.33333333333334</ele><time>2026-04-19T13:56:58.002Z</time></trkpt><trkpt lat="44.842290926531085" lon="0.8844007272559024"><ele>129.66666666666666</ele><time>2026-04-19T13:56:59.002Z</time></trkpt><trkpt lat="44.84232633358637" lon="0.8841516275975975"><ele>131.0</ele><time>2026-04-19T13:57:00.002Z</time></trkpt><trkpt lat="44.84240327436153" lon="0.8839330680771599"><ele>133.66666666666666</ele><time>2026-04-19T13:57:01.002Z</time></trkpt><trkpt lat="44.84247568488337" lon="0.8837032991640222"><ele>136.33333333333334</ele><time>2026-04-19T13:57:02.002Z</time></trkpt><trkpt lat="44.84254371834164" lon="0.8834779569926116"><ele>139.0</ele><time>2026-04-19T13:57:03.002Z</time></trkpt><trkpt lat="44.84262630277624" lon="0.8832484143399386"><ele>140.0</ele><time>2026-04-19T13:57:04.002Z</time></trkpt><trkpt lat="44.84269083427002" lon="0.8830249929977125"><ele>141.0</ele><time>2026-04-19T13:57:05.002Z</time></trkpt><trkpt lat="44.84276672716778" lon="0.8828158316317768"><ele>142.0</ele><time>2026-04-19T13:57:06.002Z</time></trkpt><trkpt lat="44.84283172954593" lon="0.88262259950919"><ele>144.33333333333334</ele><time>2026-04-19T13:57:07.002Z</time></trkpt><trkpt lat="44.84289732233711" lon="0.8824351689336295"><ele>146.66666666666666</ele><time>2026-04-19T13:57:08.002Z</time></trkpt><trkpt lat="44.84297017591807" lon="0.8822339229359424"><ele>149.0</ele><time>2026-04-19T13:57:09.002Z</time></trkpt><trkpt lat="44.84302367634791" lon="0.882012991110384"><ele>149.0</ele><time>2026-04-19T13:57:10.002Z</time></trkpt><trkpt lat="44.8430476229535" lon="0.8817782794323664"><ele>149.0</ele><time>2026-04-19T13:57:11.002Z</time></trkpt><trkpt lat="44.843052236896696" lon="0.8815368053778215"><ele>149.0</ele><time>2026-04-19T13:57:12.002Z</time></trkpt><trkpt lat="44.84303518188099" lon="0.8813033874445476"><ele>149.66666666666666</ele><time>2026-04-19T13:57:13.002Z</time></trkpt><trkpt lat="44.84299297212234" lon="0.8810714911293014"><ele>150.33333333333334</ele><time>2026-04-19T13:57:14.002Z</time></trkpt><trkpt lat="44.8429212522654" lon="0.8808380905392483"><ele>151.0</ele><time>2026-04-19T13:57:15.002Z</time></trkpt><trkpt lat="44.84280941011399" lon="0.8806256901345503"><ele>151.0</ele><time>2026-04-19T13:57:16.002Z</time></trkpt><trkpt lat="44.84266411181247" lon="0.8804010577362228"><ele>151.0</ele><time>2026-04-19T13:57:17.002Z</time></trkpt><trkpt lat="44.8425071450545" lon="0.8801821516061575"><ele>151.0</ele><time>2026-04-19T13:57:18.002Z</time></trkpt><trkpt lat="44.842358979535334" lon="0.8799346769842216"><ele>157.0</ele><time>2026-04-19T13:57:19.002Z</time></trkpt><trkpt lat="44.842206520881405" lon="0.8796888589132599"><ele>163.0</ele><time>2026-04-19T13:57:20.002Z</time></trkpt><trkpt lat="44.84203767501397" lon="0.8794101695475579"><ele>160.0</ele><time>2026-04-19T13:57:21.002Z</time></trkpt><trkpt lat="44.84187795460631" lon="0.8791563125718441"><ele>157.0</ele><time>2026-04-19T13:57:22.002Z</time></trkpt><trkpt lat="44.84172749687967" lon="0.8789153364268539"><ele>161.66666666666669</ele><time>2026-04-19T13:57:23.002Z</time></trkpt><trkpt lat="44.84159873593758" lon="0.8786988986317688"><ele>166.33333333333334</ele><time>2026-04-19T13:57:24.002Z</time></trkpt><trkpt lat="44.84149236252393" lon="0.8784713705885888"><ele>171.0</ele><time>2026-04-19T13:57:25.002Z</time></trkpt><trkpt lat="44.84141696035876" lon="0.8782207539903564"><ele>171.33333333333334</ele><time>2026-04-19T13:57:26.002Z</time></trkpt><trkpt lat="44.84137618454303" lon="0.8779541662294017"><ele>171.66666666666669</ele><time>2026-04-19T13:57:27.002Z</time></trkpt><trkpt lat="44.84135781650417" lon="0.8776848623046244"><ele>172.0</ele><time>2026-04-19T13:57:28.002Z</time></trkpt><trkpt lat="44.841368292858945" lon="0.877420753621489"><ele>173.66666666666669</ele><time>2026-04-19T13:57:29.002Z</time></trkpt><trkpt lat="44.84140115810313" lon="0.8771740770373081"><ele>175.33333333333334</ele><time>2026-04-19T13:57:30.002Z</time></trkpt><trkpt lat="44.8414648980067" lon="0.8769333099631905"><ele>177.0</ele><time>2026-04-19T13:57:31.002Z</time></trkpt><trkpt lat="44.841563453038546" lon="0.8767375123312576"><ele>178.66666666666666</ele><time>2026-04-19T13:57:32.002Z</time></trkpt><trkpt lat="44.84169632736428" lon="0.8765310083816061"><ele>180.33333333333331</ele><time>2026-04-19T13:57:33.002Z</time></trkpt><trkpt lat="44.84184469258141" lon="0.8763394456401691"><ele>182.0</ele><time>2026-04-19T13:57:34.002Z</time></trkpt><trkpt lat="44.84202612212164" lon="0.8762016448371138"><ele>182.0</ele><time>2026-04-19T13:57:35.002Z</time></trkpt><trkpt lat="44.84219482936179" lon="0.8760888415997076"><ele>182.0</ele><time>2026-04-19T13:57:36.002Z</time></trkpt><trkpt lat="44.84234972404911" lon="0.8759584790152097"><ele>182.0</ele><time>2026-04-19T13:57:37.002Z</time></trkpt><trkpt lat="44.842513584292604" lon="0.8757910039202662"><ele>181.0</ele><time>2026-04-19T13:57:38.002Z</time></trkpt><trkpt lat="44.84264933294344" lon="0.8755841358466839"><ele>180.0</ele><time>2026-04-19T13:57:39.002Z</time></trkpt><trkpt lat="44.84275188586578" lon="0.8753548002486868"><ele>179.0</ele><time>2026-04-19T13:57:40.002Z</time></trkpt><trkpt lat="44.84281547735129" lon="0.8751196683069434"><ele>180.0</ele><time>2026-04-19T13:57:41.002Z</time></trkpt><trkpt lat="44.84284608836559" lon="0.8748715638316035"><ele>181.0</ele><time>2026-04-19T13:57:42.002Z</time></trkpt><trkpt lat="44.84285561610511" lon="0.8746087628715276"><ele>182.0</ele><time>2026-04-19T13:57:43.003Z</time></trkpt><trkpt lat="44.84284917627528" lon="0.8743401137465425"><ele>182.0</ele><time>2026-04-19T13:57:44Z</time></trkpt><trkpt lat="44.84280619388736" lon="0.8740564564455455"><ele>182.0</ele><time>2026-04-19T13:57:45Z</time></trkpt><trkpt lat="44.84274424374532" lon="0.8737695303082254"><ele>182.0</ele><time>2026-04-19T13:57:46Z</time></trkpt><trkpt lat="44.842660180725034" lon="0.8734577441494541"><ele>189.0</ele><time>2026-04-19T13:57:47Z</time></trkpt><trkpt lat="44.84259485929168" lon="0.8731221423593386"><ele>196.0</ele><time>2026-04-19T13:57:48Z</time></trkpt><trkpt lat="44.842525473120574" lon="0.8727361314031683"><ele>194.5</ele><time>2026-04-19T13:57:49Z</time></trkpt><trkpt lat="44.8424630709992" lon="0.8723436631506113"><ele>193.0</ele><time>2026-04-19T13:57:50Z</time></trkpt><trkpt lat="44.842405771683694" lon="0.8719644797234457"><ele>190.0</ele><time>2026-04-19T13:57:51Z</time></trkpt><trkpt lat="44.842347490787056" lon="0.8716126214140008"><ele>187.0</ele><time>2026-04-19T13:57:52Z</time></trkpt><trkpt lat="44.84228822474762" lon="0.8712838167327904"><ele>187.0</ele><time>2026-04-19T13:57:53Z</time></trkpt><trkpt lat="44.842232920442136" lon="0.8709749524446643"><ele>187.0</ele><time>2026-04-19T13:57:54Z</time></trkpt><trkpt lat="44.842173265118824" lon="0.8707091318966077"><ele>187.0</ele><time>2026-04-19T13:57:55Z</time></trkpt><trkpt lat="44.84211079074274" lon="0.8704827264815108"><ele>186.33333333333334</ele><time>2026-04-19T13:57:56Z</time></trkpt><trkpt lat="44.842001648404676" lon="0.8702725063061958"><ele>185.66666666666666</ele><time>2026-04-19T13:57:57Z</time></trkpt><trkpt lat="44.841866291047815" lon="0.8700807450865441"><ele>185.0</ele><time>2026-04-19T13:57:58Z</time></trkpt><trkpt lat="44.84171577223961" lon="0.8699303237055818"><ele>187.66666666666666</ele><time>2026-04-19T13:57:59Z</time></trkpt><trkpt lat="44.84152268983319" lon="0.8698121306593463"><ele>190.33333333333331</ele><time>2026-04-19T13:58:00Z</time></trkpt><trkpt lat="44.84134729583951" lon="0.8697199006473922"><ele>193.0</ele><time>2026-04-19T13:58:01Z</time></trkpt><trkpt lat="44.841195748919034" lon="0.8696659570750251"><ele>193.0</ele><time>2026-04-19T13:58:02Z</time></trkpt><trkpt lat="44.840970427350726" lon="0.869675273494879"><ele>193.0</ele><time>2026-04-19T13:58:03Z</time></trkpt><trkpt lat="44.8407548816228" lon="0.8697456299844972"><ele>193.0</ele><time>2026-04-19T13:58:04Z</time></trkpt><trkpt lat="44.840538302243324" lon="0.8698455687505723"><ele>191.66666666666666</ele><time>2026-04-19T13:58:05Z</time></trkpt><trkpt lat="44.84034738150615" lon="0.8699207451713502"><ele>190.33333333333331</ele><time>2026-04-19T13:58:06Z</time></trkpt><trkpt lat="44.84016283409866" lon="0.8699630756734984"><ele>189.0</ele><time>2026-04-19T13:58:07Z</time></trkpt><trkpt lat="44.83997265757918" lon="0.8699425731364386"><ele>188.0</ele><time>2026-04-19T13:58:08Z</time></trkpt><trkpt lat="44.839772473597044" lon="0.8699365382682257"><ele>187.0</ele><time>2026-04-19T13:58:09Z</time></trkpt><trkpt lat="44.83960445379942" lon="0.8698519157664899"><ele>186.0</ele><time>2026-04-19T13:58:10Z</time></trkpt><trkpt lat="44.83944525468148" lon="0.8697262525225893"><ele>186.0</ele><time>2026-04-19T13:58:11Z</time></trkpt><trkpt lat="44.83930630271567" lon="0.8695738583801963"><ele>186.0</ele><time>2026-04-19T13:58:12Z</time></trkpt><trkpt lat="44.839194421302835" lon="0.8693984056710845"><ele>186.0</ele><time>2026-04-19T13:58:13Z</time></trkpt><trkpt lat="44.839102072255194" lon="0.8691679611688209"><ele>182.0</ele><time>2026-04-19T13:58:14Z</time></trkpt><trkpt lat="44.83905302106081" lon="0.8688793169964989"><ele>178.0</ele><time>2026-04-19T13:58:15Z</time></trkpt><trkpt lat="44.83900684932436" lon="0.8686352988418851"><ele>174.0</ele><time>2026-04-19T13:58:16Z</time></trkpt><trkpt lat="44.83898897234506" lon="0.8683573220161688"><ele>174.0</ele><time>2026-04-19T13:58:17Z</time></trkpt><trkpt lat="44.839043890615066" lon="0.868075811708171"><ele>174.0</ele><time>2026-04-19T13:58:18Z</time></trkpt><trkpt lat="44.83910535061958" lon="0.8677705758737656"><ele>174.0</ele><time>2026-04-19T13:58:19Z</time></trkpt><trkpt lat="44.83916422045106" lon="0.8674734278761776"><ele>175.0</ele><time>2026-04-19T13:58:20Z</time></trkpt><trkpt lat="44.83924379844309" lon="0.8671078417014771"><ele>176.0</ele><time>2026-04-19T13:58:21Z</time></trkpt><trkpt lat="44.83932533816278" lon="0.8667375220583697"><ele>176.0</ele><time>2026-04-19T13:58:22Z</time></trkpt><trkpt lat="44.839385910330556" lon="0.8663755572705146"><ele>176.0</ele><time>2026-04-19T13:58:23Z</time></trkpt><trkpt lat="44.83945726333272" lon="0.8659825579628486"><ele>172.0</ele><time>2026-04-19T13:58:24Z</time></trkpt><trkpt lat="44.83953064375409" lon="0.8655902582332042"><ele>168.0</ele><time>2026-04-19T13:58:25Z</time></trkpt><trkpt lat="44.83961211890653" lon="0.865205698846603"><ele>163.5</ele><time>2026-04-19T13:58:26Z</time></trkpt><trkpt lat="44.839695512897386" lon="0.8648370736346785"><ele>159.0</ele><time>2026-04-19T13:58:27Z</time></trkpt><trkpt lat="44.83976522006122" lon="0.8644991280208442"><ele>156.66666666666666</ele><time>2026-04-19T13:58:28Z</time></trkpt><trkpt lat="44.839827734498975" lon="0.8641905431423255"><ele>154.33333333333331</ele><time>2026-04-19T13:58:29Z</time></trkpt><trkpt lat="44.839869190942956" lon="0.8639131961877412"><ele>152.0</ele><time>2026-04-19T13:58:30Z</time></trkpt><trkpt lat="44.83990784309669" lon="0.8636306777196773"><ele>150.33333333333331</ele><time>2026-04-19T13:58:31Z</time></trkpt><trkpt lat="44.83993379494173" lon="0.8633222782599147"><ele>148.66666666666666</ele><time>2026-04-19T13:58:32.001Z</time></trkpt><trkpt lat="44.83992821995008" lon="0.8630011690315222"><ele>147.0</ele><time>2026-04-19T13:58:33.001Z</time></trkpt><trkpt lat="44.83988106404849" lon="0.8626546490747737"><ele>149.0</ele><time>2026-04-19T13:58:34.001Z</time></trkpt><trkpt lat="44.83983456491757" lon="0.8622881828383417"><ele>151.0</ele><time>2026-04-19T13:58:35.001Z</time></trkpt><trkpt lat="44.839775871663356" lon="0.8619528878796117"><ele>152.5</ele><time>2026-04-19T13:58:36.001Z</time></trkpt><trkpt lat="44.839726301643736" lon="0.8616106635669434"><ele>154.0</ele><time>2026-04-19T13:58:37.001Z</time></trkpt><trkpt lat="44.83967808851147" lon="0.8612816760315024"><ele>154.0</ele><time>2026-04-19T13:58:38.001Z</time></trkpt><trkpt lat="44.839627006467545" lon="0.8609665313647807"><ele>154.0</ele><time>2026-04-19T13:58:39.001Z</time></trkpt><trkpt lat="44.83959389941305" lon="0.8606779080051774"><ele>154.0</ele><time>2026-04-19T13:58:40.001Z</time></trkpt><trkpt lat="44.839587855098145" lon="0.860391880218908"><ele>151.0</ele><time>2026-04-19T13:58:41.002Z</time></trkpt><trkpt lat="44.839583974036636" lon="0.8600984909501407"><ele>148.0</ele><time>2026-04-19T13:58:42.002Z</time></trkpt><trkpt lat="44.83960127478985" lon="0.8598069376047967"><ele>145.0</ele><time>2026-04-19T13:58:43.002Z</time></trkpt><trkpt lat="44.83966730263294" lon="0.8595155102698193"><ele>142.0</ele><time>2026-04-19T13:58:44.002Z</time></trkpt><trkpt lat="44.83975963631182" lon="0.8592380462548462"><ele>139.0</ele><time>2026-04-19T13:58:45.002Z</time></trkpt><trkpt lat="44.839867263318396" lon="0.8589572524237644"><ele>136.0</ele><time>2026-04-19T13:58:46.002Z</time></trkpt><trkpt lat="44.83999067943492" lon="0.8587137182774868"><ele>136.0</ele><time>2026-04-19T13:58:47.002Z</time></trkpt><trkpt lat="44.84012557733621" lon="0.8584694408867061"><ele>136.0</ele><time>2026-04-19T13:58:48.002Z</time></trkpt><trkpt lat="44.84029308490931" lon="0.8582402832042446"><ele>136.5</ele><time>2026-04-19T13:58:49.002Z</time></trkpt><trkpt lat="44.84046119405301" lon="0.8579954668224603"><ele>137.0</ele><time>2026-04-19T13:58:50.002Z</time></trkpt><trkpt lat="44.84062050534077" lon="0.8577436246466836"><ele>134.66666666666666</ele><time>2026-04-19T13:58:51.002Z</time></trkpt><trkpt lat="44.84076821247035" lon="0.8575026925893768"><ele>132.33333333333334</ele><time>2026-04-19T13:58:52.002Z</time></trkpt><trkpt lat="44.84087584734642" lon="0.8572701455071179"><ele>130.0</ele><time>2026-04-19T13:58:53.002Z</time></trkpt><trkpt lat="44.84095489282262" lon="0.8569778508544491"><ele>131.0</ele><time>2026-04-19T13:58:54.002Z</time></trkpt><trkpt lat="44.84100327840507" lon="0.8566815204099681"><ele>132.0</ele><time>2026-04-19T13:58:55.002Z</time></trkpt><trkpt lat="44.84101159022366" lon="0.856357076105673"><ele>133.0</ele><time>2026-04-19T13:58:56.002Z</time></trkpt><trkpt lat="44.841004657403936" lon="0.8560019966664975"><ele>133.0</ele><time>2026-04-19T13:58:57.002Z</time></trkpt><trkpt lat="44.84098933540478" lon="0.8556356209605194"><ele>133.0</ele><time>2026-04-19T13:58:58.002Z</time></trkpt><trkpt lat="44.84096609386659" lon="0.855264163755834"><ele>133.5</ele><time>2026-04-19T13:58:59.002Z</time></trkpt><trkpt lat="44.84095859747349" lon="0.8549240360919967"><ele>134.0</ele><time>2026-04-19T13:59:00.002Z</time></trkpt><trkpt lat="44.84097760665982" lon="0.8545950477601968"><ele>133.0</ele><time>2026-04-19T13:59:01.002Z</time></trkpt><trkpt lat="44.84103258205946" lon="0.8542644261332386"><ele>132.0</ele><time>2026-04-19T13:59:02.002Z</time></trkpt><trkpt lat="44.84111310634708" lon="0.8539289116819064"><ele>132.0</ele><time>2026-04-19T13:59:03.002Z</time></trkpt><trkpt lat="44.84121709512371" lon="0.8536000712950247"><ele>132.0</ele><time>2026-04-19T13:59:04.002Z</time></trkpt><trkpt lat="44.84131799295995" lon="0.853279712579225"><ele>129.5</ele><time>2026-04-19T13:59:05.002Z</time></trkpt><trkpt lat="44.84143937407372" lon="0.8529435634011394"><ele>127.0</ele><time>2026-04-19T13:59:06.002Z</time></trkpt><trkpt lat="44.841560533467884" lon="0.8526187512681516"><ele>124.0</ele><time>2026-04-19T13:59:07.002Z</time></trkpt><trkpt lat="44.841698198516916" lon="0.8522955526062552"><ele>121.0</ele><time>2026-04-19T13:59:08.002Z</time></trkpt><trkpt lat="44.84184032028023" lon="0.8519931628135365"><ele>125.0</ele><time>2026-04-19T13:59:09.002Z</time></trkpt><trkpt lat="44.84197893589654" lon="0.8517066453688613"><ele>129.0</ele><time>2026-04-19T13:59:10.002Z</time></trkpt><trkpt lat="44.842121016893955" lon="0.8514340207455229"><ele>129.0</ele><time>2026-04-19T13:59:11.002Z</time></trkpt><trkpt lat="44.84225413662181" lon="0.8511832918210293"><ele>129.0</ele><time>2026-04-19T13:59:12.002Z</time></trkpt><trkpt lat="44.84240136926843" lon="0.8509705752481533"><ele>129.0</ele><time>2026-04-19T13:59:13.002Z</time></trkpt><trkpt lat="44.842593792225024" lon="0.8508118053575834"><ele>127.5</ele><time>2026-04-19T13:59:14.002Z</time></trkpt><trkpt lat="44.84278619457829" lon="0.8506189060351415"><ele>126.0</ele><time>2026-04-19T13:59:15.002Z</time></trkpt><trkpt lat="44.8430020892973" lon="0.8504388336731581"><ele>126.0</ele><time>2026-04-19T13:59:16.002Z</time></trkpt><trkpt lat="44.8432233125682" lon="0.8502892607590032"><ele>126.0</ele><time>2026-04-19T13:59:17.002Z</time></trkpt><trkpt lat="44.843464696836314" lon="0.850155620277126"><ele>122.5</ele><time>2026-04-19T13:59:18.002Z</time></trkpt><trkpt lat="44.84368962543115" lon="0.8500331861133824"><ele>119.0</ele><time>2026-04-19T13:59:19.002Z</time></trkpt><trkpt lat="44.84389381106914" lon="0.8498872963238905"><ele>119.0</ele><time>2026-04-19T13:59:20.002Z</time></trkpt><trkpt lat="44.84411140733917" lon="0.8497524851772165"><ele>119.0</ele><time>2026-04-19T13:59:21.002Z</time></trkpt><trkpt lat="44.84431837027916" lon="0.849552163860271"><ele>118.5</ele><time>2026-04-19T13:59:22.002Z</time></trkpt><trkpt lat="44.84451694345282" lon="0.849315744286699"><ele>118.0</ele><time>2026-04-19T13:59:23.002Z</time></trkpt><trkpt lat="44.84469809033024" lon="0.8490820968160083"><ele>118.0</ele><time>2026-04-19T13:59:24.002Z</time></trkpt><trkpt lat="44.844861385449065" lon="0.8488234279598309"><ele>118.0</ele><time>2026-04-19T13:59:25.002Z</time></trkpt><trkpt lat="44.844996038809434" lon="0.8485322219526413"><ele>117.0</ele><time>2026-04-19T13:59:26.002Z</time></trkpt><trkpt lat="44.84512260714616" lon="0.8482343217463815"><ele>116.0</ele><time>2026-04-19T13:59:27.002Z</time></trkpt><trkpt lat="44.8452544039925" lon="0.8479138208701155"><ele>117.5</ele><time>2026-04-19T13:59:28.002Z</time></trkpt><trkpt lat="44.84537428978508" lon="0.8476172066915745"><ele>119.0</ele><time>2026-04-19T13:59:29.003Z</time></trkpt><trkpt lat="44.8454751948922" lon="0.8473581302216552"><ele>119.0</ele><time>2026-04-19T13:59:30.003Z</time></trkpt><trkpt lat="44.84559720385878" lon="0.8470828103403716"><ele>119.0</ele><time>2026-04-19T13:59:31.003Z</time></trkpt><trkpt lat="44.84567774963591" lon="0.8467871208224717"><ele>117.5</ele><time>2026-04-19T13:59:32.003Z</time></trkpt><trkpt lat="44.84574169053632" lon="0.8464522674762662"><ele>116.0</ele><time>2026-04-19T13:59:33.003Z</time></trkpt><trkpt lat="44.84577919143213" lon="0.8461079433339902"><ele>114.0</ele><time>2026-04-19T13:59:34.003Z</time></trkpt><trkpt lat="44.845830898630254" lon="0.8457393964417093"><ele>112.0</ele><time>2026-04-19T13:59:35.003Z</time></trkpt><trkpt lat="44.84588700111274" lon="0.8453883616722948"><ele>110.5</ele><time>2026-04-19T13:59:36.003Z</time></trkpt><trkpt lat="44.845959636518785" lon="0.8450397067610635"><ele>109.0</ele><time>2026-04-19T13:59:37.003Z</time></trkpt><trkpt lat="44.84604992313808" lon="0.8446792914824935"><ele>113.5</ele><time>2026-04-19T13:59:38.003Z</time></trkpt><trkpt lat="44.846150395746946" lon="0.8443222617368015"><ele>118.0</ele><time>2026-04-19T13:59:39.003Z</time></trkpt><trkpt lat="44.846265899301095" lon="0.8439719738779543"><ele>118.0</ele><time>2026-04-19T13:59:40.003Z</time></trkpt><trkpt lat="44.84636919458452" lon="0.8436524361464012"><ele>118.0</ele><time>2026-04-19T13:59:41.003Z</time></trkpt><trkpt lat="44.84646138748737" lon="0.8433488043291274"><ele>115.66666666666667</ele><time>2026-04-19T13:59:42.003Z</time></trkpt><trkpt lat="44.84655096606785" lon="0.843071789756344"><ele>113.33333333333334</ele><time>2026-04-19T13:59:43.003Z</time></trkpt><trkpt lat="44.846627433525235" lon="0.8428191233509317"><ele>111.0</ele><time>2026-04-19T13:59:44.003Z</time></trkpt><trkpt lat="44.84669758156062" lon="0.8425782015650388"><ele>110.0</ele><time>2026-04-19T13:59:45.003Z</time></trkpt><trkpt lat="44.846747652277294" lon="0.8423456474636131"><ele>109.0</ele><time>2026-04-19T13:59:46.003Z</time></trkpt><trkpt lat="44.84677239257493" lon="0.8421030880578986"><ele>108.0</ele><time>2026-04-19T13:59:47.003Z</time></trkpt><trkpt lat="44.84678252959119" lon="0.8418513839804169"><ele>108.66666666666666</ele><time>2026-04-19T13:59:48.003Z</time></trkpt><trkpt lat="44.84674035714724" lon="0.8416026324656093"><ele>109.33333333333333</ele><time>2026-04-19T13:59:49.003Z</time></trkpt><trkpt lat="44.84668884134071" lon="0.841355442086232"><ele>110.0</ele><time>2026-04-19T13:59:50Z</time></trkpt><trkpt lat="44.84659588897149" lon="0.8411282114060368"><ele>112.0</ele><time>2026-04-19T13:59:51Z</time></trkpt><trkpt lat="44.84646976186801" lon="0.8409330209769473"><ele>114.0</ele><time>2026-04-19T13:59:52Z</time></trkpt><trkpt lat="44.84631130311199" lon="0.8407658590280678"><ele>116.0</ele><time>2026-04-19T13:59:53Z</time></trkpt><trkpt lat="44.84615027969495" lon="0.8406007206145328"><ele>116.0</ele><time>2026-04-19T13:59:54Z</time></trkpt><trkpt lat="44.84599479648093" lon="0.8404439460280378"><ele>116.0</ele><time>2026-04-19T13:59:55Z</time></trkpt><trkpt lat="44.84585649936894" lon="0.8402812118060112"><ele>116.0</ele><time>2026-04-19T13:59:56Z</time></trkpt><trkpt lat="44.84573789670863" lon="0.840088495333722"><ele>111.5</ele><time>2026-04-19T13:59:57Z</time></trkpt><trkpt lat="44.845632559374" lon="0.8397922995276429"><ele>107.0</ele><time>2026-04-19T13:59:58Z</time></trkpt><trkpt lat="44.845543203600506" lon="0.8395048349972941"><ele>111.0</ele><time>2026-04-19T13:59:59Z</time></trkpt><trkpt lat="44.84545963672277" lon="0.8391978785029036"><ele>115.0</ele><time>2026-04-19T14:00:00Z</time></trkpt><trkpt lat="44.845364065391486" lon="0.8388468268208075"><ele>115.0</ele><time>2026-04-19T14:00:01Z</time></trkpt><trkpt lat="44.84526712965602" lon="0.838487935448035"><ele>115.0</ele><time>2026-04-19T14:00:02Z</time></trkpt><trkpt lat="44.84516654622639" lon="0.8381124376689509"><ele>108.0</ele><time>2026-04-19T14:00:03Z</time></trkpt><trkpt lat="44.84507033308034" lon="0.8377534371585134"><ele>101.0</ele><time>2026-04-19T14:00:04Z</time></trkpt><trkpt lat="44.844947261363735" lon="0.8373734210042628"><ele>101.0</ele><time>2026-04-19T14:00:05Z</time></trkpt><trkpt lat="44.84486050490206" lon="0.8369616324035214"><ele>101.0</ele><time>2026-04-19T14:00:06Z</time></trkpt><trkpt lat="44.84475362265273" lon="0.8365689959206912"><ele>101.0</ele><time>2026-04-19T14:00:07Z</time></trkpt><trkpt lat="44.8446446349656" lon="0.8361904480065845"><ele>101.0</ele><time>2026-04-19T14:00:08Z</time></trkpt><trkpt lat="44.844542927734125" lon="0.8357951577285508"><ele>101.0</ele><time>2026-04-19T14:00:09Z</time></trkpt><trkpt lat="44.84444614272346" lon="0.8354500057998321"><ele>101.0</ele><time>2026-04-19T14:00:10Z</time></trkpt><trkpt lat="44.84435629760471" lon="0.8351193658392689"><ele>106.0</ele><time>2026-04-19T14:00:11Z</time></trkpt><trkpt lat="44.84425998844619" lon="0.8347959431670171"><ele>111.0</ele><time>2026-04-19T14:00:12Z</time></trkpt><trkpt lat="44.84417459107065" lon="0.8344881332891205"><ele>112.0</ele><time>2026-04-19T14:00:13Z</time></trkpt><trkpt lat="44.84409586373428" lon="0.8342058340427013"><ele>113.0</ele><time>2026-04-19T14:00:14Z</time></trkpt><trkpt lat="44.84404080901095" lon="0.8339207424237215"><ele>114.0</ele><time>2026-04-19T14:00:15Z</time></trkpt><trkpt lat="44.84400157355969" lon="0.8336084583864226"><ele>116.66666666666666</ele><time>2026-04-19T14:00:16Z</time></trkpt><trkpt lat="44.84401643706623" lon="0.8333119889581941"><ele>119.33333333333333</ele><time>2026-04-19T14:00:17Z</time></trkpt><trkpt lat="44.84408948549749" lon="0.833026947262652"><ele>122.0</ele><time>2026-04-19T14:00:18Z</time></trkpt><trkpt lat="44.84419384575111" lon="0.8327525768079655"><ele>118.66666666666666</ele><time>2026-04-19T14:00:19Z</time></trkpt><trkpt lat="44.84430865578136" lon="0.8324998244727319"><ele>115.33333333333334</ele><time>2026-04-19T14:00:20Z</time></trkpt><trkpt lat="44.84439957845532" lon="0.8322328315516908"><ele>112.0</ele><time>2026-04-19T14:00:21.001Z</time></trkpt><trkpt lat="44.84446869762808" lon="0.8319712532036557"><ele>114.33333333333334</ele><time>2026-04-19T14:00:22.001Z</time></trkpt><trkpt lat="44.84450643743606" lon="0.8317061838747367"><ele>116.66666666666666</ele><time>2026-04-19T14:00:23.001Z</time></trkpt><trkpt lat="44.844522557798676" lon="0.831429188010205"><ele>119.0</ele><time>2026-04-19T14:00:24.001Z</time></trkpt><trkpt lat="44.84452544107883" lon="0.8311672341027614"><ele>120.33333333333333</ele><time>2026-04-19T14:00:25.001Z</time></trkpt><trkpt lat="44.84448743258803" lon="0.8308980856210649"><ele>121.66666666666666</ele><time>2026-04-19T14:00:26.001Z</time></trkpt><trkpt lat="44.84442979120934" lon="0.8306386348715077"><ele>123.0</ele><time>2026-04-19T14:00:27.001Z</time></trkpt><trkpt lat="44.84435210434423" lon="0.8303942172949678"><ele>121.0</ele><time>2026-04-19T14:00:28.001Z</time></trkpt><trkpt lat="44.84425159694263" lon="0.8301792292423861"><ele>119.0</ele><time>2026-04-19T14:00:29.001Z</time></trkpt><trkpt lat="44.84411916926534" lon="0.8299857193588555"><ele>117.0</ele><time>2026-04-19T14:00:30.001Z</time></trkpt><trkpt lat="44.843963893298046" lon="0.8298223467353023"><ele>116.33333333333334</ele><time>2026-04-19T14:00:31.001Z</time></trkpt><trkpt lat="44.84379291566074" lon="0.8296731701642952"><ele>115.66666666666667</ele><time>2026-04-19T14:00:32.001Z</time></trkpt><trkpt lat="44.843638272866315" lon="0.8295280765890239"><ele>115.0</ele><time>2026-04-19T14:00:33.001Z</time></trkpt><trkpt lat="44.843511532359074" lon="0.8293699244768004"><ele>112.0</ele><time>2026-04-19T14:00:34.001Z</time></trkpt><trkpt lat="44.84338461578793" lon="0.8291900519089499"><ele>109.0</ele><time>2026-04-19T14:00:35.001Z</time></trkpt><trkpt lat="44.843291955260746" lon="0.8289721434496404"><ele>106.0</ele><time>2026-04-19T14:00:36.001Z</time></trkpt><trkpt lat="44.843230817371946" lon="0.8287441282005209"><ele>106.0</ele><time>2026-04-19T14:00:37.001Z</time></trkpt><trkpt lat="44.84318095844596" lon="0.8285083028235748"><ele>106.0</ele><time>2026-04-19T14:00:38.001Z</time></trkpt><trkpt lat="44.84316507984557" lon="0.828263445549651"><ele>106.0</ele><time>2026-04-19T14:00:39.001Z</time></trkpt><trkpt lat="44.84317238818127" lon="0.8280146822234596"><ele>106.0</ele><time>2026-04-19T14:00:40.001Z</time></trkpt><trkpt lat="44.84320375387935" lon="0.8277411253014602"><ele>106.0</ele><time>2026-04-19T14:00:41.001Z</time></trkpt><trkpt lat="44.843289281597784" lon="0.8274706640078712"><ele>106.0</ele><time>2026-04-19T14:00:42.001Z</time></trkpt><trkpt lat="44.843412274230424" lon="0.8272318630088697"><ele>107.0</ele><time>2026-04-19T14:00:43.001Z</time></trkpt><trkpt lat="44.84355655854433" lon="0.826986849704394"><ele>108.0</ele><time>2026-04-19T14:00:44.001Z</time></trkpt><trkpt lat="44.84369443193216" lon="0.8267258899693609"><ele>108.0</ele><time>2026-04-19T14:00:45.001Z</time></trkpt><trkpt lat="44.8438356303056" lon="0.8264425627567905"><ele>108.0</ele><time>2026-04-19T14:00:46.001Z</time></trkpt><trkpt lat="44.84397057199745" lon="0.8261623887833576"><ele>101.0</ele><time>2026-04-19T14:00:47.001Z</time></trkpt><trkpt lat="44.84410877144746" lon="0.8258835460627323"><ele>94.0</ele><time>2026-04-19T14:00:48.001Z</time></trkpt><trkpt lat="44.84423900103143" lon="0.8256217296097248"><ele>95.0</ele><time>2026-04-19T14:00:49.001Z</time></trkpt><trkpt lat="44.844361986921136" lon="0.8253682030946166"><ele>96.0</ele><time>2026-04-19T14:00:50.001Z</time></trkpt><trkpt lat="44.84446719208203" lon="0.825132556289762"><ele>97.0</ele><time>2026-04-19T14:00:51.001Z</time></trkpt><trkpt lat="44.84458479395689" lon="0.8249116565559663"><ele>97.0</ele><time>2026-04-19T14:00:52.001Z</time></trkpt><trkpt lat="44.84473014779213" lon="0.8246712006840342"><ele>97.0</ele><time>2026-04-19T14:00:53.001Z</time></trkpt><trkpt lat="44.8448903074392" lon="0.8244514038550135"><ele>97.0</ele><time>2026-04-19T14:00:54.001Z</time></trkpt><trkpt lat="44.84507135578271" lon="0.8242540547457696"><ele>99.0</ele><time>2026-04-19T14:00:55.001Z</time></trkpt><trkpt lat="44.84527631846051" lon="0.8240804859828645"><ele>101.0</ele><time>2026-04-19T14:00:56.001Z</time></trkpt><trkpt lat="44.84546502046681" lon="0.8239127193571244"><ele>101.0</ele><time>2026-04-19T14:00:57.001Z</time></trkpt><trkpt lat="44.84564065592377" lon="0.8237378476054886"><ele>101.0</ele><time>2026-04-19T14:00:58.001Z</time></trkpt><trkpt lat="44.845804606514875" lon="0.8235383051980381"><ele>101.0</ele><time>2026-04-19T14:00:59.001Z</time></trkpt><trkpt lat="44.845954266117594" lon="0.8233114630649218"><ele>101.66666666666666</ele><time>2026-04-19T14:01:00.001Z</time></trkpt><trkpt lat="44.846085741016196" lon="0.8230591705187019"><ele>102.33333333333334</ele><time>2026-04-19T14:01:01.001Z</time></trkpt><trkpt lat="44.84619394720699" lon="0.8227875022168045"><ele>103.0</ele><time>2026-04-19T14:01:02.001Z</time></trkpt><trkpt lat="44.84629601419143" lon="0.8225077040895662"><ele>98.5</ele><time>2026-04-19T14:01:03.001Z</time></trkpt><trkpt lat="44.84639152890368" lon="0.8221929291045023"><ele>94.0</ele><time>2026-04-19T14:01:04.001Z</time></trkpt><trkpt lat="44.84643813905288" lon="0.8218416425751112"><ele>90.0</ele><time>2026-04-19T14:01:05.001Z</time></trkpt><trkpt lat="44.84650444438138" lon="0.8215184472401169"><ele>86.0</ele><time>2026-04-19T14:01:06.001Z</time></trkpt><trkpt lat="44.84656393555348" lon="0.8211907404791776"><ele>81.0</ele><time>2026-04-19T14:01:07.001Z</time></trkpt><trkpt lat="44.846633974995584" lon="0.8208748229708073"><ele>76.0</ele><time>2026-04-19T14:01:08.001Z</time></trkpt><trkpt lat="44.84669020766288" lon="0.8205814184038058"><ele>76.0</ele><time>2026-04-19T14:01:09.002Z</time></trkpt><trkpt lat="44.8467554772039" lon="0.8202996658411751"><ele>76.0</ele><time>2026-04-19T14:01:10.002Z</time></trkpt><trkpt lat="44.846814621821665" lon="0.8200115484814459"><ele>76.0</ele><time>2026-04-19T14:01:11.002Z</time></trkpt><trkpt lat="44.84686911930318" lon="0.8197552657672665"><ele>76.66666666666666</ele><time>2026-04-19T14:01:12.002Z</time></trkpt><trkpt lat="44.84693342700233" lon="0.8195208574498134"><ele>77.33333333333333</ele><time>2026-04-19T14:01:13.002Z</time></trkpt><trkpt lat="44.847017038914295" lon="0.8192686743902429"><ele>78.0</ele><time>2026-04-19T14:01:14.002Z</time></trkpt><trkpt lat="44.84714885024005" lon="0.8190322026260919"><ele>78.0</ele><time>2026-04-19T14:01:15.002Z</time></trkpt><trkpt lat="44.84727404570834" lon="0.8187934469150967"><ele>78.0</ele><time>2026-04-19T14:01:16.002Z</time></trkpt><trkpt lat="44.84741239212731" lon="0.8185399049808304"><ele>78.0</ele><time>2026-04-19T14:01:17.002Z</time></trkpt><trkpt lat="44.8475562752554" lon="0.8182465038349449"><ele>78.5</ele><time>2026-04-19T14:01:18.002Z</time></trkpt><trkpt lat="44.84770582845153" lon="0.8179496758638939"><ele>79.0</ele><time>2026-04-19T14:01:19.002Z</time></trkpt><trkpt lat="44.847838009945185" lon="0.8176330582412259"><ele>79.0</ele><time>2026-04-19T14:01:20.002Z</time></trkpt><trkpt lat="44.847960976789494" lon="0.8172914493527823"><ele>79.0</ele><time>2026-04-19T14:01:21.002Z</time></trkpt><trkpt lat="44.84807229408433" lon="0.816954511941059"><ele>75.0</ele><time>2026-04-19T14:01:22.002Z</time></trkpt><trkpt lat="44.8481889309978" lon="0.8166230251736191"><ele>71.0</ele><time>2026-04-19T14:01:23.002Z</time></trkpt><trkpt lat="44.84830596948996" lon="0.8162973203294309"><ele>67.0</ele><time>2026-04-19T14:01:24.002Z</time></trkpt><trkpt lat="44.84841523348097" lon="0.8159788549137411"><ele>63.0</ele><time>2026-04-19T14:01:25.002Z</time></trkpt><trkpt lat="44.84853212302053" lon="0.8156573728514654"><ele>73.5</ele><time>2026-04-19T14:01:26.002Z</time></trkpt><trkpt lat="44.848642842209294" lon="0.8153445635217841"><ele>84.0</ele><time>2026-04-19T14:01:27.002Z</time></trkpt><trkpt lat="44.848756699180235" lon="0.8150286918911966"><ele>84.0</ele><time>2026-04-19T14:01:28.002Z</time></trkpt><trkpt lat="44.84886612027756" lon="0.814707021935801"><ele>84.0</ele><time>2026-04-19T14:01:29.002Z</time></trkpt><trkpt lat="44.848958320735505" lon="0.8143767634698795"><ele>79.0</ele><time>2026-04-19T14:01:30.002Z</time></trkpt><trkpt lat="44.84902412907263" lon="0.8140486178419124"><ele>74.0</ele><time>2026-04-19T14:01:31.002Z</time></trkpt><trkpt lat="44.849098762041706" lon="0.8137355818382705"><ele>70.0</ele><time>2026-04-19T14:01:32.002Z</time></trkpt><trkpt lat="44.84916895575286" lon="0.8134460547719704"><ele>66.0</ele><time>2026-04-19T14:01:33.002Z</time></trkpt><trkpt lat="44.849250101502285" lon="0.8131786083536675"><ele>62.0</ele><time>2026-04-19T14:01:34.002Z</time></trkpt><trkpt lat="44.84934754796098" lon="0.8129181256294353"><ele>65.33333333333334</ele><time>2026-04-19T14:01:35.002Z</time></trkpt><trkpt lat="44.849460279966806" lon="0.8126599498379298"><ele>68.66666666666667</ele><time>2026-04-19T14:01:36.002Z</time></trkpt><trkpt lat="44.84960887485259" lon="0.812455971141722"><ele>72.0</ele><time>2026-04-19T14:01:37.002Z</time></trkpt><trkpt lat="44.84975101501091" lon="0.8122574124726567"><ele>72.0</ele><time>2026-04-19T14:01:38.002Z</time></trkpt><trkpt lat="44.84989449708929" lon="0.812069692624723"><ele>72.0</ele><time>2026-04-19T14:01:39.002Z</time></trkpt><trkpt lat="44.85005011972941" lon="0.811855348736446"><ele>72.0</ele><time>2026-04-19T14:01:40.002Z</time></trkpt><trkpt lat="44.850198414381936" lon="0.8116490501441848"><ele>72.66666666666667</ele><time>2026-04-19T14:01:41.002Z</time></trkpt><trkpt lat="44.85033131698042" lon="0.8114609458057448"><ele>73.33333333333334</ele><time>2026-04-19T14:01:42.002Z</time></trkpt><trkpt lat="44.85045803712902" lon="0.8113079178497472"><ele>74.0</ele><time>2026-04-19T14:01:43.002Z</time></trkpt><trkpt lat="44.85060259748553" lon="0.811167778649703"><ele>74.0</ele><time>2026-04-19T14:01:44.002Z</time></trkpt><trkpt lat="44.85076219885954" lon="0.8110560262784564"><ele>74.0</ele><time>2026-04-19T14:01:45.002Z</time></trkpt><trkpt lat="44.850966816996724" lon="0.8109641398346059"><ele>74.0</ele><time>2026-04-19T14:01:46.002Z</time></trkpt><trkpt lat="44.85115657464814" lon="0.8109274271791745"><ele>70.66666666666667</ele><time>2026-04-19T14:01:47.002Z</time></trkpt><trkpt lat="44.8513429990441" lon="0.8109247023469475"><ele>67.33333333333333</ele><time>2026-04-19T14:01:48.002Z</time></trkpt><trkpt lat="44.851570170554695" lon="0.8109548259463123"><ele>64.0</ele><time>2026-04-19T14:01:49.002Z</time></trkpt><trkpt lat="44.8517988565757" lon="0.8109906089803761"><ele>69.66666666666666</ele><time>2026-04-19T14:01:50.002Z</time></trkpt><trkpt lat="44.852037582746156" lon="0.8110254104874904"><ele>75.33333333333333</ele><time>2026-04-19T14:01:51.002Z</time></trkpt><trkpt lat="44.852245514512184" lon="0.8110475535848733"><ele>81.0</ele><time>2026-04-19T14:01:52.002Z</time></trkpt><trkpt lat="44.85244575139846" lon="0.8110296902913403"><ele>78.33333333333333</ele><time>2026-04-19T14:01:53.002Z</time></trkpt><trkpt lat="44.85265453483501" lon="0.8110201329544201"><ele>75.66666666666666</ele><time>2026-04-19T14:01:54.002Z</time></trkpt><trkpt lat="44.852850207984545" lon="0.8109961601329023"><ele>73.0</ele><time>2026-04-19T14:01:55.002Z</time></trkpt><trkpt lat="44.853035811343865" lon="0.8109724645261019"><ele>71.0</ele><time>2026-04-19T14:01:56Z</time></trkpt><trkpt lat="44.85320938818843" lon="0.8109315605504858"><ele>69.0</ele><time>2026-04-19T14:01:57Z</time></trkpt><trkpt lat="44.853369149441576" lon="0.8108867722782156"><ele>67.0</ele><time>2026-04-19T14:01:58Z</time></trkpt><trkpt lat="44.85352525765872" lon="0.810848463555645"><ele>67.0</ele><time>2026-04-19T14:01:59Z</time></trkpt><trkpt lat="44.853675131014384" lon="0.8108011296842366"><ele>67.0</ele><time>2026-04-19T14:02:00Z</time></trkpt><trkpt lat="44.85380475453098" lon="0.8107017007028186"><ele>67.0</ele><time>2026-04-19T14:02:01Z</time></trkpt><trkpt lat="44.85392660065767" lon="0.8105829780295009"><ele>67.0</ele><time>2026-04-19T14:02:02Z</time></trkpt><trkpt lat="44.85402932182397" lon="0.8104212417630873"><ele>67.0</ele><time>2026-04-19T14:02:03Z</time></trkpt><trkpt lat="44.85410960598243" lon="0.8102325463050191"><ele>67.0</ele><time>2026-04-19T14:02:04Z</time></trkpt><trkpt lat="44.85417734109684" lon="0.8100266676472483"><ele>67.0</ele><time>2026-04-19T14:02:05Z</time></trkpt><trkpt lat="44.85422394278016" lon="0.8098105101191382"><ele>64.33333333333333</ele><time>2026-04-19T14:02:06Z</time></trkpt><trkpt lat="44.85425115087819" lon="0.8095851406694827"><ele>61.66666666666667</ele><time>2026-04-19T14:02:07Z</time></trkpt><trkpt lat="44.85423985005229" lon="0.8093455692631684"><ele>59.0</ele><time>2026-04-19T14:02:08Z</time></trkpt><trkpt lat="44.85419564239854" lon="0.8090904834003806"><ele>56.333333333333336</ele><time>2026-04-19T14:02:09Z</time></trkpt><trkpt lat="44.854143670627344" lon="0.8088252712579698"><ele>53.66666666666667</ele><time>2026-04-19T14:02:10Z</time></trkpt><trkpt lat="44.854077279773314" lon="0.8085333520372527"><ele>51.0</ele><time>2026-04-19T14:02:11Z</time></trkpt><trkpt lat="44.8540089865722" lon="0.8082388174175256"><ele>50.33333333333333</ele><time>2026-04-19T14:02:12Z</time></trkpt><trkpt lat="44.85394306659356" lon="0.8079390028367173"><ele>49.666666666666664</ele><time>2026-04-19T14:02:13Z</time></trkpt><trkpt lat="44.85388737961231" lon="0.8076644345334064"><ele>49.0</ele><time>2026-04-19T14:02:14Z</time></trkpt><trkpt lat="44.85382069577045" lon="0.8074061670724859"><ele>49.0</ele><time>2026-04-19T14:02:15Z</time></trkpt><trkpt lat="44.853764451931696" lon="0.8071792465730699"><ele>49.0</ele><time>2026-04-19T14:02:16Z</time></trkpt><trkpt lat="44.85368149127627" lon="0.8069573539427854"><ele>49.0</ele><time>2026-04-19T14:02:17Z</time></trkpt><trkpt lat="44.85356597408781" lon="0.8067418193553448"><ele>50.33333333333333</ele><time>2026-04-19T14:02:18Z</time></trkpt><trkpt lat="44.85340532865389" lon="0.8065567276815984"><ele>51.66666666666667</ele><time>2026-04-19T14:02:19Z</time></trkpt><trkpt lat="44.85323096997613" lon="0.806390429827413"><ele>53.0</ele><time>2026-04-19T14:02:20Z</time></trkpt><trkpt lat="44.85303745914029" lon="0.8062192919574728"><ele>53.0</ele><time>2026-04-19T14:02:21Z</time></trkpt><trkpt lat="44.8528694886245" lon="0.8060200674269493"><ele>53.0</ele><time>2026-04-19T14:02:22Z</time></trkpt><trkpt lat="44.85273408281835" lon="0.8057958770917325"><ele>53.0</ele><time>2026-04-19T14:02:23Z</time></trkpt><trkpt lat="44.85262253728451" lon="0.8055844830287767"><ele>50.66666666666667</ele><time>2026-04-19T14:02:24Z</time></trkpt><trkpt lat="44.85249611624229" lon="0.8053966934498397"><ele>48.333333333333336</ele><time>2026-04-19T14:02:25Z</time></trkpt><trkpt lat="44.85235860334968" lon="0.805235689683502"><ele>46.0</ele><time>2026-04-19T14:02:26Z</time></trkpt><trkpt lat="44.852199797806406" lon="0.8050937320785508"><ele>46.0</ele><time>2026-04-19T14:02:27Z</time></trkpt><trkpt lat="44.85203642522949" lon="0.8049656695077043"><ele>46.0</ele><time>2026-04-19T14:02:28Z</time></trkpt><trkpt lat="44.851870386302814" lon="0.8048448006140692"><ele>46.0</ele><time>2026-04-19T14:02:29Z</time></trkpt><trkpt lat="44.85173291964152" lon="0.8046945541049042"><ele>46.0</ele><time>2026-04-19T14:02:30Z</time></trkpt><trkpt lat="44.85161162314338" lon="0.8045623140751442"><ele>46.0</ele><time>2026-04-19T14:02:31Z</time></trkpt><trkpt lat="44.85146599105391" lon="0.8044241613750408"><ele>46.0</ele><time>2026-04-19T14:02:32Z</time></trkpt><trkpt lat="44.851334414555396" lon="0.8042434650499485"><ele>46.0</ele><time>2026-04-19T14:02:33Z</time></trkpt><trkpt lat="44.85118351540028" lon="0.8040600555473104"><ele>46.0</ele><time>2026-04-19T14:02:34Z</time></trkpt><trkpt lat="44.851000829110255" lon="0.8038261829785069"><ele>46.0</ele><time>2026-04-19T14:02:35Z</time></trkpt><trkpt lat="44.85081856827158" lon="0.8035807473521717"><ele>53.0</ele><time>2026-04-19T14:02:36.001Z</time></trkpt><trkpt lat="44.850651979351774" lon="0.8032680030059953"><ele>60.0</ele><time>2026-04-19T14:02:37.001Z</time></trkpt><trkpt lat="44.85049200750595" lon="0.802937939470113"><ele>52.5</ele><time>2026-04-19T14:02:38.001Z</time></trkpt><trkpt lat="44.85031850153676" lon="0.8026236195165752"><ele>45.0</ele><time>2026-04-19T14:02:39.001Z</time></trkpt><trkpt lat="44.85014957227983" lon="0.8023101888658228"><ele>47.5</ele><time>2026-04-19T14:02:40.001Z</time></trkpt><trkpt lat="44.84998141635555" lon="0.8019830301515457"><ele>50.0</ele><time>2026-04-19T14:02:41.001Z</time></trkpt><trkpt lat="44.84980387076264" lon="0.8016733689116211"><ele>50.0</ele><time>2026-04-19T14:02:42.001Z</time></trkpt><trkpt lat="44.84962759487288" lon="0.8013679452334712"><ele>50.0</ele><time>2026-04-19T14:02:43.001Z</time></trkpt><trkpt lat="44.84943772386916" lon="0.8010574808432899"><ele>58.0</ele><time>2026-04-19T14:02:44.001Z</time></trkpt><trkpt lat="44.84926178405614" lon="0.800740511301704"><ele>66.0</ele><time>2026-04-19T14:02:45.001Z</time></trkpt><trkpt lat="44.849080202754855" lon="0.8004497280121244"><ele>56.5</ele><time>2026-04-19T14:02:46.001Z</time></trkpt><trkpt lat="44.848912096006806" lon="0.8001576132126605"><ele>47.0</ele><time>2026-04-19T14:02:47.001Z</time></trkpt><trkpt lat="44.84875530274363" lon="0.799864156697212"><ele>47.0</ele><time>2026-04-19T14:02:48.001Z</time></trkpt><trkpt lat="44.84859466818969" lon="0.799563420852138"><ele>47.0</ele><time>2026-04-19T14:02:49.001Z</time></trkpt><trkpt lat="44.848441839412054" lon="0.7992464424862004"><ele>53.0</ele><time>2026-04-19T14:02:50.001Z</time></trkpt><trkpt lat="44.848277564201894" lon="0.7989444996972282"><ele>59.0</ele><time>2026-04-19T14:02:51.001Z</time></trkpt><trkpt lat="44.84811455362595" lon="0.79863635121661"><ele>51.5</ele><time>2026-04-19T14:02:52.001Z</time></trkpt><trkpt lat="44.84795011981818" lon="0.7983443358055435"><ele>44.0</ele><time>2026-04-19T14:02:53.001Z</time></trkpt><trkpt lat="44.84777800642254" lon="0.798047544030511"><ele>48.0</ele><time>2026-04-19T14:02:54.001Z</time></trkpt><trkpt lat="44.84762264096555" lon="0.7977427529846595"><ele>52.0</ele><time>2026-04-19T14:02:55.001Z</time></trkpt><trkpt lat="44.84746998258016" lon="0.7974247372731361"><ele>52.0</ele><time>2026-04-19T14:02:56.001Z</time></trkpt><trkpt lat="44.84730175414717" lon="0.7971136236841344"><ele>52.0</ele><time>2026-04-19T14:02:57.001Z</time></trkpt><trkpt lat="44.847127305949485" lon="0.7967981769520398"><ele>48.0</ele><time>2026-04-19T14:02:58.001Z</time></trkpt><trkpt lat="44.84695977278367" lon="0.7964716089795979"><ele>44.0</ele><time>2026-04-19T14:02:59.001Z</time></trkpt><trkpt lat="44.846780305234276" lon="0.7961469643857023"><ele>48.0</ele><time>2026-04-19T14:03:00.001Z</time></trkpt><trkpt lat="44.84660443570939" lon="0.7958076530322209"><ele>52.0</ele><time>2026-04-19T14:03:01.001Z</time></trkpt><trkpt lat="44.84642488468347" lon="0.7954779910405679"><ele>47.5</ele><time>2026-04-19T14:03:02.001Z</time></trkpt><trkpt lat="44.84624435712158" lon="0.7951510856053228"><ele>43.0</ele><time>2026-04-19T14:03:03.001Z</time></trkpt><trkpt lat="44.84606002054941" lon="0.7948301409813552"><ele>47.0</ele><time>2026-04-19T14:03:04.001Z</time></trkpt><trkpt lat="44.8458709874501" lon="0.7945027131871888"><ele>51.0</ele><time>2026-04-19T14:03:05.001Z</time></trkpt><trkpt lat="44.84567527082928" lon="0.7941886599700033"><ele>51.0</ele><time>2026-04-19T14:03:06.001Z</time></trkpt><trkpt lat="44.845488809337446" lon="0.7938805294963901"><ele>51.0</ele><time>2026-04-19T14:03:07.001Z</time></trkpt><trkpt lat="44.845319695716626" lon="0.7935599807059885"><ele>46.5</ele><time>2026-04-19T14:03:08.001Z</time></trkpt><trkpt lat="44.84515186494274" lon="0.7932658663384713"><ele>42.0</ele><time>2026-04-19T14:03:09.001Z</time></trkpt><trkpt lat="44.84497155162547" lon="0.7930075849179942"><ele>44.0</ele><time>2026-04-19T14:03:10.001Z</time></trkpt><trkpt lat="44.84482306340852" lon="0.7927642533074573"><ele>46.0</ele><time>2026-04-19T14:03:11.001Z</time></trkpt><trkpt lat="44.844685636197994" lon="0.7925501708142492"><ele>48.0</ele><time>2026-04-19T14:03:12.001Z</time></trkpt><trkpt lat="44.84457407195037" lon="0.7923472355083199"><ele>48.0</ele><time>2026-04-19T14:03:13.001Z</time></trkpt><trkpt lat="44.844442232827745" lon="0.7921754482929063"><ele>48.0</ele><time>2026-04-19T14:03:14.001Z</time></trkpt><trkpt lat="44.84431964974241" lon="0.7920158389574249"><ele>48.0</ele><time>2026-04-19T14:03:15.001Z</time></trkpt><trkpt lat="44.84418504486825" lon="0.7918718250406427"><ele>49.66666666666667</ele><time>2026-04-19T14:03:16.001Z</time></trkpt><trkpt lat="44.844051623147244" lon="0.7917478311324753"><ele>51.333333333333336</ele><time>2026-04-19T14:03:17.001Z</time></trkpt><trkpt lat="44.84391411840959" lon="0.7916457853696509"><ele>53.0</ele><time>2026-04-19T14:03:18.001Z</time></trkpt><trkpt lat="44.84378737641131" lon="0.7915475365652953"><ele>53.0</ele><time>2026-04-19T14:03:19.001Z</time></trkpt><trkpt lat="44.84366890854468" lon="0.7914606419093805"><ele>53.0</ele><time>2026-04-19T14:03:20.001Z</time></trkpt><trkpt lat="44.84355549265176" lon="0.7913618124965328"><ele>53.0</ele><time>2026-04-19T14:03:21.001Z</time></trkpt><trkpt lat="44.84345462545031" lon="0.7912487711961039"><ele>53.0</ele><time>2026-04-19T14:03:22.001Z</time></trkpt><trkpt lat="44.8433632437731" lon="0.7911076836640261"><ele>52.5</ele><time>2026-04-19T14:03:23.001Z</time></trkpt><trkpt lat="44.843288207692304" lon="0.7909425588366902"><ele>52.0</ele><time>2026-04-19T14:03:24.002Z</time></trkpt><trkpt lat="44.843217282598054" lon="0.7907752900273326"><ele>51.5</ele><time>2026-04-19T14:03:25.002Z</time></trkpt><trkpt lat="44.84313883774743" lon="0.7906214844087761"><ele>51.0</ele><time>2026-04-19T14:03:26.002Z</time></trkpt><trkpt lat="44.84304891652056" lon="0.7904894364543803"><ele>51.0</ele><time>2026-04-19T14:03:27.002Z</time></trkpt><trkpt lat="44.84295939644515" lon="0.7903562235496431"><ele>51.0</ele><time>2026-04-19T14:03:28.002Z</time></trkpt><trkpt lat="44.84287466993821" lon="0.7902083502840245"><ele>51.0</ele><time>2026-04-19T14:03:29.002Z</time></trkpt><trkpt lat="44.84279218170901" lon="0.7900714049979629"><ele>51.0</ele><time>2026-04-19T14:03:30.002Z</time></trkpt><trkpt lat="44.84271019150297" lon="0.789912911097976"><ele>51.25</ele><time>2026-04-19T14:03:31.002Z</time></trkpt><trkpt lat="44.842628477268384" lon="0.7897715817762426"><ele>51.5</ele><time>2026-04-19T14:03:32.002Z</time></trkpt><trkpt lat="44.84257798626679" lon="0.7895967188082352"><ele>51.75</ele><time>2026-04-19T14:03:33.002Z</time></trkpt><trkpt lat="44.84252460171939" lon="0.7894318915118932"><ele>52.0</ele><time>2026-04-19T14:03:34.002Z</time></trkpt><trkpt lat="44.842466582455714" lon="0.7892835866652022"><ele>52.0</ele><time>2026-04-19T14:03:35.002Z</time></trkpt><trkpt lat="44.84242031216548" lon="0.7891179636875859"><ele>52.0</ele><time>2026-04-19T14:03:36.002Z</time></trkpt><trkpt lat="44.84236897654702" lon="0.7889577398849776"><ele>52.0</ele><time>2026-04-19T14:03:37.002Z</time></trkpt><trkpt lat="44.84231666802411" lon="0.788787257366548"><ele>52.0</ele><time>2026-04-19T14:03:38.002Z</time></trkpt><trkpt lat="44.84226204400587" lon="0.7886001591647542"><ele>51.0</ele><time>2026-04-19T14:03:39.002Z</time></trkpt><trkpt lat="44.842207314346574" lon="0.7883901919355965"><ele>50.0</ele><time>2026-04-19T14:03:40.002Z</time></trkpt><trkpt lat="44.84213785000641" lon="0.7881941745878204"><ele>49.0</ele><time>2026-04-19T14:03:41.002Z</time></trkpt><trkpt lat="44.842071336990344" lon="0.7879839053002258"><ele>49.0</ele><time>2026-04-19T14:03:42.002Z</time></trkpt><trkpt lat="44.8419985137388" lon="0.7877645050884586"><ele>49.0</ele><time>2026-04-19T14:03:43.002Z</time></trkpt><trkpt lat="44.84192618699008" lon="0.7875311514289447"><ele>49.0</ele><time>2026-04-19T14:03:44.002Z</time></trkpt><trkpt lat="44.84185433727438" lon="0.7872782461473877"><ele>50.0</ele><time>2026-04-19T14:03:45.002Z</time></trkpt><trkpt lat="44.84176786475351" lon="0.787017929286019"><ele>51.0</ele><time>2026-04-19T14:03:46.002Z</time></trkpt><trkpt lat="44.841680505096264" lon="0.7867406726149794"><ele>52.0</ele><time>2026-04-19T14:03:47.002Z</time></trkpt><trkpt lat="44.841597844328305" lon="0.786467090324876"><ele>52.0</ele><time>2026-04-19T14:03:48.002Z</time></trkpt><trkpt lat="44.841512422853036" lon="0.7861972048306937"><ele>52.0</ele><time>2026-04-19T14:03:49.002Z</time></trkpt><trkpt lat="44.8414080271501" lon="0.7859166357654054"><ele>52.0</ele><time>2026-04-19T14:03:50.002Z</time></trkpt><trkpt lat="44.841296828936" lon="0.7856393773442228"><ele>50.0</ele><time>2026-04-19T14:03:51.002Z</time></trkpt><trkpt lat="44.84119287485116" lon="0.7853617943392085"><ele>48.0</ele><time>2026-04-19T14:03:52.002Z</time></trkpt><trkpt lat="44.84106868457363" lon="0.7850892007182164"><ele>56.5</ele><time>2026-04-19T14:03:53.002Z</time></trkpt><trkpt lat="44.840952718238476" lon="0.7848151654919157"><ele>65.0</ele><time>2026-04-19T14:03:54.002Z</time></trkpt><trkpt lat="44.840852752767624" lon="0.7845273450675783"><ele>59.5</ele><time>2026-04-19T14:03:55.002Z</time></trkpt><trkpt lat="44.8407388359008" lon="0.7842506260500514"><ele>54.0</ele><time>2026-04-19T14:03:56.002Z</time></trkpt><trkpt lat="44.840669816275" lon="0.7839314096735933"><ele>54.0</ele><time>2026-04-19T14:03:57.002Z</time></trkpt><trkpt lat="44.84061068973482" lon="0.7836122994908715"><ele>54.0</ele><time>2026-04-19T14:03:58.002Z</time></trkpt><trkpt lat="44.84059189876137" lon="0.7832873633741263"><ele>52.5</ele><time>2026-04-19T14:03:59.002Z</time></trkpt><trkpt lat="44.84058298605918" lon="0.7829598590146323"><ele>51.0</ele><time>2026-04-19T14:04:00.002Z</time></trkpt><trkpt lat="44.8405337830335" lon="0.782625676573014"><ele>49.5</ele><time>2026-04-19T14:04:01.002Z</time></trkpt><trkpt lat="44.84046743845541" lon="0.7823045337951287"><ele>48.0</ele><time>2026-04-19T14:04:02Z</time></trkpt><trkpt lat="44.84039933162112" lon="0.7820148572942683"><ele>46.666666666666664</ele><time>2026-04-19T14:04:03Z</time></trkpt><trkpt lat="44.84030682931528" lon="0.7817525997872152"><ele>45.33333333333333</ele><time>2026-04-19T14:04:04Z</time></trkpt><trkpt lat="44.84021656123848" lon="0.7815048781476086"><ele>44.0</ele><time>2026-04-19T14:04:05Z</time></trkpt><trkpt lat="44.84016911199482" lon="0.7812329713912696"><ele>43.666666666666664</ele><time>2026-04-19T14:04:06Z</time></trkpt><trkpt lat="44.8401600749591" lon="0.780952302752976"><ele>43.333333333333336</ele><time>2026-04-19T14:04:07Z</time></trkpt><trkpt lat="44.84020036843019" lon="0.7806703428654019"><ele>43.0</ele><time>2026-04-19T14:04:08Z</time></trkpt><trkpt lat="44.84025749316366" lon="0.7803967215442447"><ele>42.66666666666667</ele><time>2026-04-19T14:04:09Z</time></trkpt><trkpt lat="44.840308768870926" lon="0.7801479360620517"><ele>42.333333333333336</ele><time>2026-04-19T14:04:10Z</time></trkpt><trkpt lat="44.84033342328496" lon="0.7798941158968816"><ele>42.0</ele><time>2026-04-19T14:04:11Z</time></trkpt><trkpt lat="44.84033666038582" lon="0.7796091235481047"><ele>42.0</ele><time>2026-04-19T14:04:12Z</time></trkpt><trkpt lat="44.84029848191169" lon="0.7793060300792689"><ele>42.0</ele><time>2026-04-19T14:04:13Z</time></trkpt><trkpt lat="44.84023048411771" lon="0.778992266642206"><ele>42.0</ele><time>2026-04-19T14:04:14Z</time></trkpt><trkpt lat="44.840143446849076" lon="0.7786586466724761"><ele>42.0</ele><time>2026-04-19T14:04:15Z</time></trkpt><trkpt lat="44.84005179902083" lon="0.7783271468722721"><ele>42.5</ele><time>2026-04-19T14:04:16Z</time></trkpt><trkpt lat="44.83997078994473" lon="0.7780041069309328"><ele>43.0</ele><time>2026-04-19T14:04:17Z</time></trkpt><trkpt lat="44.83987453833456" lon="0.7776688077350602"><ele>43.0</ele><time>2026-04-19T14:04:18Z</time></trkpt><trkpt lat="44.839778482735284" lon="0.7773277134743204"><ele>43.0</ele><time>2026-04-19T14:04:19Z</time></trkpt><trkpt lat="44.83966018541453" lon="0.7769834483092655"><ele>42.5</ele><time>2026-04-19T14:04:20Z</time></trkpt><trkpt lat="44.839544674342356" lon="0.7766522287229527"><ele>42.0</ele><time>2026-04-19T14:04:21Z</time></trkpt><trkpt lat="44.83943239404574" lon="0.7763205071501041"><ele>42.0</ele><time>2026-04-19T14:04:22Z</time></trkpt><trkpt lat="44.83933407611317" lon="0.7759787391200185"><ele>42.0</ele><time>2026-04-19T14:04:23Z</time></trkpt><trkpt lat="44.839221432275735" lon="0.7756436935400147"><ele>42.5</ele><time>2026-04-19T14:04:24Z</time></trkpt><trkpt lat="44.839100695086586" lon="0.7752845752098227"><ele>43.0</ele><time>2026-04-19T14:04:25Z</time></trkpt><trkpt lat="44.83898287104912" lon="0.7749341217328594"><ele>43.0</ele><time>2026-04-19T14:04:26Z</time></trkpt><trkpt lat="44.838863737766545" lon="0.7745784841083195"><ele>43.0</ele><time>2026-04-19T14:04:27Z</time></trkpt><trkpt lat="44.83874221447927" lon="0.7742145362506274"><ele>42.5</ele><time>2026-04-19T14:04:28Z</time></trkpt><trkpt lat="44.83861649975907" lon="0.7738380354535779"><ele>42.0</ele><time>2026-04-19T14:04:29Z</time></trkpt><trkpt lat="44.838484990872374" lon="0.7734441819155733"><ele>42.0</ele><time>2026-04-19T14:04:30Z</time></trkpt><trkpt lat="44.838361353214665" lon="0.7730551126035771"><ele>42.0</ele><time>2026-04-19T14:04:31Z</time></trkpt><trkpt lat="44.8382455723122" lon="0.7726608005071797"><ele>42.0</ele><time>2026-04-19T14:04:32Z</time></trkpt><trkpt lat="44.838133490936684" lon="0.7722681574051448"><ele>42.0</ele><time>2026-04-19T14:04:33Z</time></trkpt><trkpt lat="44.83803328328587" lon="0.7718816361423277"><ele>42.0</ele><time>2026-04-19T14:04:34Z</time></trkpt><trkpt lat="44.83794084138777" lon="0.7715097640541383"><ele>42.0</ele><time>2026-04-19T14:04:35Z</time></trkpt><trkpt lat="44.837848558750764" lon="0.7711385327024506"><ele>42.0</ele><time>2026-04-19T14:04:36Z</time></trkpt><trkpt lat="44.83775769820414" lon="0.7707730221144329"><ele>42.0</ele><time>2026-04-19T14:04:37Z</time></trkpt><trkpt lat="44.83767396184645" lon="0.7704361819189103"><ele>42.0</ele><time>2026-04-19T14:04:38Z</time></trkpt><trkpt lat="44.83759004088678" lon="0.7700910584565016"><ele>42.0</ele><time>2026-04-19T14:04:39Z</time></trkpt><trkpt lat="44.83751186246217" lon="0.7697695510484189"><ele>42.0</ele><time>2026-04-19T14:04:40.001Z</time></trkpt><trkpt lat="44.83743502342488" lon="0.7694535520034729"><ele>42.0</ele><time>2026-04-19T14:04:41.001Z</time></trkpt><trkpt lat="44.83736147074646" lon="0.7691510679843838"><ele>42.0</ele><time>2026-04-19T14:04:42.001Z</time></trkpt><trkpt lat="44.837276538929494" lon="0.7688615342824123"><ele>42.0</ele><time>2026-04-19T14:04:43.001Z</time></trkpt><trkpt lat="44.837223845626276" lon="0.7685517832384491"><ele>42.0</ele><time>2026-04-19T14:04:44.001Z</time></trkpt><trkpt lat="44.8371532729756" lon="0.7682401763804626"><ele>41.5</ele><time>2026-04-19T14:04:45.001Z</time></trkpt><trkpt lat="44.83709683476451" lon="0.7679034599006844"><ele>41.0</ele><time>2026-04-19T14:04:46.001Z</time></trkpt><trkpt lat="44.83704696713198" lon="0.7675234635133316"><ele>41.0</ele><time>2026-04-19T14:04:47.001Z</time></trkpt><trkpt lat="44.83702721969763" lon="0.7671387484817694"><ele>41.0</ele><time>2026-04-19T14:04:48.001Z</time></trkpt><trkpt lat="44.837001151546225" lon="0.7667713525596775"><ele>40.5</ele><time>2026-04-19T14:04:49.001Z</time></trkpt><trkpt lat="44.836966549007236" lon="0.7664383233178277"><ele>40.0</ele><time>2026-04-19T14:04:50.001Z</time></trkpt><trkpt lat="44.836928109241576" lon="0.7661252411077707"><ele>40.0</ele><time>2026-04-19T14:04:51.001Z</time></trkpt><trkpt lat="44.83689676483672" lon="0.7658396845933818"><ele>40.0</ele><time>2026-04-19T14:04:52.001Z</time></trkpt><trkpt lat="44.836878786089386" lon="0.765563270585431"><ele>40.0</ele><time>2026-04-19T14:04:53.001Z</time></trkpt><trkpt lat="44.83687357728614" lon="0.7653130292204345"><ele>40.0</ele><time>2026-04-19T14:04:54.001Z</time></trkpt><trkpt lat="44.836874798107836" lon="0.7650872723525705"><ele>40.0</ele><time>2026-04-19T14:04:55.001Z</time></trkpt><trkpt lat="44.83687459393158" lon="0.7648744436381003"><ele>40.0</ele><time>2026-04-19T14:04:56.001Z</time></trkpt><trkpt lat="44.8368753467662" lon="0.7646591600489054"><ele>40.0</ele><time>2026-04-19T14:04:57.001Z</time></trkpt><trkpt lat="44.836872253183245" lon="0.7644603133968372"><ele>40.0</ele><time>2026-04-19T14:04:58.001Z</time></trkpt><trkpt lat="44.836873431332435" lon="0.7642723995095594"><ele>40.0</ele><time>2026-04-19T14:04:59.001Z</time></trkpt><trkpt lat="44.83686875783309" lon="0.7640952898439984"><ele>40.0</ele><time>2026-04-19T14:05:00.001Z</time></trkpt><trkpt lat="44.836876005850336" lon="0.763929303421824"><ele>40.0</ele><time>2026-04-19T14:05:01.001Z</time></trkpt><trkpt lat="44.836861294398716" lon="0.7637532264021432"><ele>40.0</ele><time>2026-04-19T14:05:02.001Z</time></trkpt><trkpt lat="44.83686045481378" lon="0.7635928623169722"><ele>40.0</ele><time>2026-04-19T14:05:03.001Z</time></trkpt><trkpt lat="44.83684954629866" lon="0.7634221906815223"><ele>40.0</ele><time>2026-04-19T14:05:04.001Z</time></trkpt><trkpt lat="44.83684066422316" lon="0.7631084910672578"><ele>40.0</ele><time>2026-04-19T14:05:06.001Z</time></trkpt><trkpt lat="44.83683140391234" lon="0.7629571531656442"><ele>40.0</ele><time>2026-04-19T14:05:07.001Z</time></trkpt><trkpt lat="44.83683097282369" lon="0.7628061437839041"><ele>40.0</ele><time>2026-04-19T14:05:08.001Z</time></trkpt><trkpt lat="44.83682609820082" lon="0.7626480594658588"><ele>40.0</ele><time>2026-04-19T14:05:09.001Z</time></trkpt><trkpt lat="44.83681265201134" lon="0.7624842808759699"><ele>40.0</ele><time>2026-04-19T14:05:10.001Z</time></trkpt><trkpt lat="44.83680642022122" lon="0.7623104332858189"><ele>40.0</ele><time>2026-04-19T14:05:11.001Z</time></trkpt><trkpt lat="44.83680520889411" lon="0.7621277059151762"><ele>40.0</ele><time>2026-04-19T14:05:12.001Z</time></trkpt><trkpt lat="44.8368081688853" lon="0.7619395921273532"><ele>40.0</ele><time>2026-04-19T14:05:13.001Z</time></trkpt><trkpt lat="44.83681844501051" lon="0.7617366528403202"><ele>40.0</ele><time>2026-04-19T14:05:14.001Z</time></trkpt><trkpt lat="44.83683615702772" lon="0.7615266471673704"><ele>40.0</ele><time>2026-04-19T14:05:15.001Z</time></trkpt><trkpt lat="44.83686298896077" lon="0.7613287084979364"><ele>40.0</ele><time>2026-04-19T14:05:16.001Z</time></trkpt><trkpt lat="44.83688840019223" lon="0.7611179209913305"><ele>40.0</ele><time>2026-04-19T14:05:17.001Z</time></trkpt><trkpt lat="44.83690880496028" lon="0.7609098216343646"><ele>40.0</ele><time>2026-04-19T14:05:18.001Z</time></trkpt><trkpt lat="44.83691333495565" lon="0.760683280121573"><ele>40.0</ele><time>2026-04-19T14:05:19.001Z</time></trkpt><trkpt lat="44.836910311205564" lon="0.760450610298038"><ele>40.0</ele><time>2026-04-19T14:05:20.001Z</time></trkpt><trkpt lat="44.83689442467991" lon="0.7602131744824044"><ele>40.0</ele><time>2026-04-19T14:05:21.001Z</time></trkpt><trkpt lat="44.83686557879744" lon="0.7599814825463316"><ele>40.0</ele><time>2026-04-19T14:05:22.002Z</time></trkpt><trkpt lat="44.83682964551329" lon="0.7597403892943967"><ele>40.0</ele><time>2026-04-19T14:05:23.002Z</time></trkpt><trkpt lat="44.8367861914685" lon="0.7595099957841268"><ele>40.0</ele><time>2026-04-19T14:05:24.002Z</time></trkpt><trkpt lat="44.836730358931824" lon="0.7592499014446377"><ele>40.333333333333336</ele><time>2026-04-19T14:05:25.002Z</time></trkpt><trkpt lat="44.83668016467897" lon="0.7589842434953022"><ele>40.666666666666664</ele><time>2026-04-19T14:05:26.002Z</time></trkpt><trkpt lat="44.836631408860946" lon="0.758694332324784"><ele>41.0</ele><time>2026-04-19T14:05:27.002Z</time></trkpt><trkpt lat="44.83658044760491" lon="0.7583961496281769"><ele>41.0</ele><time>2026-04-19T14:05:28.002Z</time></trkpt><trkpt lat="44.836527386242516" lon="0.7580912917457261"><ele>41.0</ele><time>2026-04-19T14:05:29.002Z</time></trkpt><trkpt lat="44.83648960946209" lon="0.7578048163361576"><ele>41.0</ele><time>2026-04-19T14:05:30.003Z</time></trkpt><trkpt lat="44.836440014614396" lon="0.7574801385346365"><ele>41.0</ele><time>2026-04-19T14:05:31.003Z</time></trkpt><trkpt lat="44.836417258193116" lon="0.7571589964816205"><ele>41.0</ele><time>2026-04-19T14:05:32.003Z</time></trkpt><trkpt lat="44.836409996460645" lon="0.756846806742965"><ele>41.0</ele><time>2026-04-19T14:05:33.003Z</time></trkpt><trkpt lat="44.83640992847262" lon="0.7565336647770373"><ele>41.0</ele><time>2026-04-19T14:05:34.003Z</time></trkpt><trkpt lat="44.83641979126944" lon="0.7562230741759456"><ele>41.0</ele><time>2026-04-19T14:05:35.003Z</time></trkpt><trkpt lat="44.836438852392796" lon="0.7559175361440741"><ele>41.5</ele><time>2026-04-19T14:05:36.003Z</time></trkpt><trkpt lat="44.83645468950934" lon="0.7556044738932847"><ele>42.0</ele><time>2026-04-19T14:05:37.003Z</time></trkpt><trkpt lat="44.83645904683017" lon="0.7552839337182182"><ele>42.0</ele><time>2026-04-19T14:05:38.003Z</time></trkpt><trkpt lat="44.836444415447936" lon="0.7549784226744977"><ele>42.0</ele><time>2026-04-19T14:05:39.003Z</time></trkpt><trkpt lat="44.836390680998846" lon="0.7546785126691561"><ele>42.0</ele><time>2026-04-19T14:05:40.003Z</time></trkpt><trkpt lat="44.836305645707505" lon="0.7543797002873711"><ele>41.5</ele><time>2026-04-19T14:05:41.003Z</time></trkpt><trkpt lat="44.83621158101935" lon="0.75408441730976"><ele>41.0</ele><time>2026-04-19T14:05:42.003Z</time></trkpt><trkpt lat="44.83611293021077" lon="0.7537817388428357"><ele>40.5</ele><time>2026-04-19T14:05:43.003Z</time></trkpt><trkpt lat="44.83601916852638" lon="0.7534658370857596"><ele>40.0</ele><time>2026-04-19T14:05:44.003Z</time></trkpt><trkpt lat="44.83592993996745" lon="0.7531310091477239"><ele>40.5</ele><time>2026-04-19T14:05:45.003Z</time></trkpt><trkpt lat="44.83584362874598" lon="0.7528074568514438"><ele>41.0</ele><time>2026-04-19T14:05:46.003Z</time></trkpt><trkpt lat="44.83575074175075" lon="0.7524960376416208"><ele>41.0</ele><time>2026-04-19T14:05:47.003Z</time></trkpt><trkpt lat="44.83566718675021" lon="0.7522092612254191"><ele>41.0</ele><time>2026-04-19T14:05:48.003Z</time></trkpt><trkpt lat="44.83556990210935" lon="0.7519206893496668"><ele>41.0</ele><time>2026-04-19T14:05:49.003Z</time></trkpt><trkpt lat="44.83545413433281" lon="0.7516516702840373"><ele>41.0</ele><time>2026-04-19T14:05:50.003Z</time></trkpt><trkpt lat="44.83531666499848" lon="0.7513966601454659"><ele>41.0</ele><time>2026-04-19T14:05:51.003Z</time></trkpt><trkpt lat="44.83517151800347" lon="0.7511520231839801"><ele>42.5</ele><time>2026-04-19T14:05:52.003Z</time></trkpt><trkpt lat="44.83503005449759" lon="0.7509100694068842"><ele>44.0</ele><time>2026-04-19T14:05:53.003Z</time></trkpt><trkpt lat="44.834884872235996" lon="0.7506621959481786"><ele>44.0</ele><time>2026-04-19T14:05:54.003Z</time></trkpt><trkpt lat="44.83474394969613" lon="0.7504220623624027"><ele>44.0</ele><time>2026-04-19T14:05:55.003Z</time></trkpt><trkpt lat="44.83460470289166" lon="0.7501839423215554"><ele>44.0</ele><time>2026-04-19T14:05:56.003Z</time></trkpt><trkpt lat="44.83446992684887" lon="0.7499492294602405"><ele>44.0</ele><time>2026-04-19T14:05:57.003Z</time></trkpt><trkpt lat="44.83434438176235" lon="0.7497157680508553"><ele>44.0</ele><time>2026-04-19T14:05:58.003Z</time></trkpt><trkpt lat="44.83421570339169" lon="0.7494988089571355"><ele>44.0</ele><time>2026-04-19T14:05:59.003Z</time></trkpt><trkpt lat="44.834087265817544" lon="0.7492738976168113"><ele>44.0</ele><time>2026-04-19T14:06:00.003Z</time></trkpt><trkpt lat="44.83396793453914" lon="0.7490278858472591"><ele>44.0</ele><time>2026-04-19T14:06:01.003Z</time></trkpt><trkpt lat="44.833882051705814" lon="0.7487549494662809"><ele>44.0</ele><time>2026-04-19T14:06:02.003Z</time></trkpt><trkpt lat="44.833850320553935" lon="0.7484580724481416"><ele>44.0</ele><time>2026-04-19T14:06:03.003Z</time></trkpt><trkpt lat="44.83383345700643" lon="0.7481504527064491"><ele>44.0</ele><time>2026-04-19T14:06:04.003Z</time></trkpt><trkpt lat="44.833837895404095" lon="0.7478271727484982"><ele>44.0</ele><time>2026-04-19T14:06:05.003Z</time></trkpt><trkpt lat="44.83385214675319" lon="0.7475111008425279"><ele>44.0</ele><time>2026-04-19T14:06:06.003Z</time></trkpt><trkpt lat="44.83386980563357" lon="0.7471787948484078"><ele>44.0</ele><time>2026-04-19T14:06:07.003Z</time></trkpt><trkpt lat="44.83388625505379" lon="0.7468730654111014"><ele>45.0</ele><time>2026-04-19T14:06:08.001Z</time></trkpt><trkpt lat="44.83390305302157" lon="0.7465709080798338"><ele>46.0</ele><time>2026-04-19T14:06:09.001Z</time></trkpt><trkpt lat="44.83390355898641" lon="0.7462723523635758"><ele>47.0</ele><time>2026-04-19T14:06:10.001Z</time></trkpt><trkpt lat="44.83392241107661" lon="0.7459732006070865"><ele>46.666666666666664</ele><time>2026-04-19T14:06:11.001Z</time></trkpt><trkpt lat="44.83392566904806" lon="0.7456835484407828"><ele>46.333333333333336</ele><time>2026-04-19T14:06:12.001Z</time></trkpt><trkpt lat="44.833920829573884" lon="0.7454107319076763"><ele>46.0</ele><time>2026-04-19T14:06:13.001Z</time></trkpt><trkpt lat="44.83392809456569" lon="0.7451447297985974"><ele>46.0</ele><time>2026-04-19T14:06:14.001Z</time></trkpt><trkpt lat="44.83390229047747" lon="0.7448985205371474"><ele>46.0</ele><time>2026-04-19T14:06:15.001Z</time></trkpt><trkpt lat="44.833888768813836" lon="0.7446477700491099"><ele>46.0</ele><time>2026-04-19T14:06:16.001Z</time></trkpt><trkpt lat="44.8338889020968" lon="0.7443880165536526"><ele>45.333333333333336</ele><time>2026-04-19T14:06:17.001Z</time></trkpt><trkpt lat="44.83386175305551" lon="0.7441391961372371"><ele>44.666666666666664</ele><time>2026-04-19T14:06:18.001Z</time></trkpt><trkpt lat="44.83384565083055" lon="0.7438958078102885"><ele>44.0</ele><time>2026-04-19T14:06:19.001Z</time></trkpt><trkpt lat="44.83383284180035" lon="0.7436691395383034"><ele>43.33333333333333</ele><time>2026-04-19T14:06:20.001Z</time></trkpt><trkpt lat="44.83382343108594" lon="0.7434498790753522"><ele>42.666666666666664</ele><time>2026-04-19T14:06:21.001Z</time></trkpt><trkpt lat="44.83380794359049" lon="0.7432386488133503"><ele>42.0</ele><time>2026-04-19T14:06:22.001Z</time></trkpt><trkpt lat="44.8338006425386" lon="0.7430212960155997"><ele>42.0</ele><time>2026-04-19T14:06:23.001Z</time></trkpt><trkpt lat="44.83379475897277" lon="0.7428234832880902"><ele>42.0</ele><time>2026-04-19T14:06:24.001Z</time></trkpt><trkpt lat="44.833784173329626" lon="0.7426157841809765"><ele>42.0</ele><time>2026-04-19T14:06:25.001Z</time></trkpt><trkpt lat="44.833780200179916" lon="0.7424056327543476"><ele>42.0</ele><time>2026-04-19T14:06:26.001Z</time></trkpt><trkpt lat="44.83377228411" lon="0.742206513159991"><ele>41.75</ele><time>2026-04-19T14:06:27.001Z</time></trkpt><trkpt lat="44.83375632405265" lon="0.7420127906389709"><ele>41.5</ele><time>2026-04-19T14:06:28.001Z</time></trkpt><trkpt lat="44.83374096587703" lon="0.7418041036634737"><ele>41.25</ele><time>2026-04-19T14:06:29.001Z</time></trkpt><trkpt lat="44.8337267257062" lon="0.7416373610862781"><ele>41.0</ele><time>2026-04-19T14:06:30.001Z</time></trkpt><trkpt lat="44.83370652725011" lon="0.7414800983889289"><ele>41.0</ele><time>2026-04-19T14:06:31.001Z</time></trkpt><trkpt lat="44.83368307237892" lon="0.7413150280841442"><ele>41.0</ele><time>2026-04-19T14:06:32.001Z</time></trkpt><trkpt lat="44.83365327113041" lon="0.7411566895554467"><ele>41.0</ele><time>2026-04-19T14:06:33.001Z</time></trkpt><trkpt lat="44.83362743714138" lon="0.7410187332198073"><ele>41.0</ele><time>2026-04-19T14:06:34.001Z</time></trkpt><trkpt lat="44.83360182884497" lon="0.7408986394024685"><ele>41.0</ele><time>2026-04-19T14:06:35.001Z</time></trkpt><trkpt lat="44.83359000800705" lon="0.740795641797393"><ele>41.0</ele><time>2026-04-19T14:06:36.001Z</time></trkpt><trkpt lat="44.83360075216535" lon="0.7407055587252178"><ele>41.0</ele><time>2026-04-19T14:06:37.001Z</time></trkpt><trkpt lat="44.83363444555111" lon="0.7405670784092895"><ele>41.0</ele><time>2026-04-19T14:06:39.001Z</time></trkpt><trkpt lat="44.83370017525167" lon="0.7404785789720482"><ele>41.0</ele><time>2026-04-19T14:06:41.001Z</time></trkpt><trkpt lat="44.83382165693936" lon="0.7404316429894807"><ele>41.0</ele><time>2026-04-19T14:06:43.001Z</time></trkpt><trkpt lat="44.83389166142368" lon="0.7404226804775006"><ele>41.0</ele><time>2026-04-19T14:06:44.001Z</time></trkpt><trkpt lat="44.83397229270065" lon="0.7404274743014083"><ele>41.0</ele><time>2026-04-19T14:06:45.001Z</time></trkpt><trkpt lat="44.834049588732036" lon="0.7403936266627297"><ele>41.0</ele><time>2026-04-19T14:06:46.001Z</time></trkpt><trkpt lat="44.834133003080844" lon="0.7403781654522277"><ele>41.0</ele><time>2026-04-19T14:06:47.001Z</time></trkpt><trkpt lat="44.83421750526039" lon="0.7403606821322813"><ele>41.0</ele><time>2026-04-19T14:06:48.001Z</time></trkpt><trkpt lat="44.83430882436385" lon="0.7403419197665424"><ele>41.0</ele><time>2026-04-19T14:06:49.001Z</time></trkpt><trkpt lat="44.83440678276632" lon="0.7403119843857964"><ele>40.599999999999994</ele><time>2026-04-19T14:06:50.001Z</time></trkpt><trkpt lat="44.83450223525703" lon="0.7402874766182966"><ele>40.199999999999996</ele><time>2026-04-19T14:06:51.001Z</time></trkpt><trkpt lat="44.834599950450816" lon="0.7402720171624005"><ele>39.8</ele><time>2026-04-19T14:06:52.001Z</time></trkpt><trkpt lat="44.83469676635608" lon="0.7402557418383612"><ele>39.4</ele><time>2026-04-19T14:06:53.001Z</time></trkpt><trkpt lat="44.83480047027453" lon="0.7402368506523122"><ele>39.0</ele><time>2026-04-19T14:06:54.001Z</time></trkpt><trkpt lat="44.83490673993941" lon="0.7402150703950617"><ele>39.0</ele><time>2026-04-19T14:06:55.001Z</time></trkpt><trkpt lat="44.83500798714555" lon="0.7401897397701057"><ele>39.0</ele><time>2026-04-19T14:06:56.001Z</time></trkpt><trkpt lat="44.835100230769996" lon="0.7401648024302051"><ele>39.0</ele><time>2026-04-19T14:06:57.001Z</time></trkpt><trkpt lat="44.83518840710623" lon="0.7401412160490413"><ele>39.0</ele><time>2026-04-19T14:06:58.001Z</time></trkpt><trkpt lat="44.83527476881818" lon="0.7401189868956232"><ele>39.0</ele><time>2026-04-19T14:06:59.001Z</time></trkpt><trkpt lat="44.8353571873486" lon="0.7401021171427935"><ele>39.666666666666664</ele><time>2026-04-19T14:07:00.001Z</time></trkpt><trkpt lat="44.835431384963606" lon="0.740088881214997"><ele>40.333333333333336</ele><time>2026-04-19T14:07:01.001Z</time></trkpt><trkpt lat="44.83550477069819" lon="0.7400732226766626"><ele>41.0</ele><time>2026-04-19T14:07:02.001Z</time></trkpt><trkpt lat="44.83557597273122" lon="0.7400622840403596"><ele>41.66666666666667</ele><time>2026-04-19T14:07:03.001Z</time></trkpt><trkpt lat="44.83563820543337" lon="0.7400419386980153"><ele>42.333333333333336</ele><time>2026-04-19T14:07:04.001Z</time></trkpt><trkpt lat="44.835788817223815" lon="0.7400124406118831"><ele>43.0</ele><time>2026-04-19T14:07:07.002Z</time></trkpt><trkpt lat="44.835878848932616" lon="0.7399959242210928"><ele>43.0</ele><time>2026-04-19T14:07:09.002Z</time></trkpt><trkpt lat="44.83594457666785" lon="0.7400155666081228"><ele>43.0</ele><time>2026-04-19T14:07:13.002Z</time></trkpt><trkpt lat="44.83601087329061" lon="0.7400637802443407"><ele>43.0</ele><time>2026-04-19T14:07:16.002Z</time></trkpt><trkpt lat="44.83604881951194" lon="0.7401781234583705"><ele>43.0</ele><time>2026-04-19T14:07:18.002Z</time></trkpt><trkpt lat="44.83604350154902" lon="0.7403158516423867"><ele>43.0</ele><time>2026-04-19T14:07:20.002Z</time></trkpt><trkpt lat="44.83604714899237" lon="0.7404416825281321"><ele>43.0</ele><time>2026-04-19T14:07:22.002Z</time></trkpt><trkpt lat="44.83606953887092" lon="0.7406000734799127"><ele>42.85714285714286</ele><time>2026-04-19T14:07:25.002Z</time></trkpt><trkpt lat="44.83604911772993" lon="0.7406885372641093"><ele>42.714285714285715</ele><time>2026-04-19T14:07:30.002Z</time></trkpt><trkpt lat="44.835986152872024" lon="0.7407121874807392"><ele>42.57142857142857</ele><time>2026-04-19T14:09:59.005Z</time></trkpt><trkpt lat="44.836001671602915" lon="0.7406223970770393"><ele>42.42857142857143</ele><time>2026-04-19T14:10:29.005Z</time></trkpt><trkpt lat="44.83599088872347" lon="0.7405085513799291"><ele>42.285714285714285</ele><time>2026-04-19T14:10:42.006Z</time></trkpt><trkpt lat="44.83596131122812" lon="0.7404169187927845"><ele>42.142857142857146</ele><time>2026-04-19T14:10:52.006Z</time></trkpt><trkpt lat="44.835898450583834" lon="0.7404032476275422"><ele>42.0</ele><time>2026-04-19T14:10:59.006Z</time></trkpt><trkpt lat="44.835831788321336" lon="0.7404157923394267"><ele>42.0</ele><time>2026-04-19T14:11:11.006Z</time></trkpt><trkpt lat="44.83578321590216" lon="0.7404856170377789"><ele>42.0</ele><time>2026-04-19T14:11:20.006Z</time></trkpt><trkpt lat="44.835789805734905" lon="0.7405764628881221"><ele>42.0</ele><time>2026-04-19T14:11:33.007Z</time></trkpt><trkpt lat="44.83569415557952" lon="0.7405956104016688"><ele>42.0</ele><time>2026-04-19T14:25:33.025Z</time></trkpt><trkpt lat="44.835724055603464" lon="0.7405086076311757"><ele>42.0</ele><time>2026-04-19T14:25:47.026Z</time></trkpt><trkpt lat="44.83575649540884" lon="0.7404274586799724"><ele>42.0</ele><time>2026-04-19T14:25:55.026Z</time></trkpt><trkpt lat="44.83580650090226" lon="0.7403729849027865"><ele>42.0</ele><time>2026-04-19T14:26:02.026Z</time></trkpt><trkpt lat="44.835869772007" lon="0.7403368263594795"><ele>42.0</ele><time>2026-04-19T14:26:09.026Z</time></trkpt><trkpt lat="44.83592885458882" lon="0.740374179046102"><ele>42.0</ele><time>2026-04-19T14:26:15.026Z</time></trkpt><trkpt lat="44.83596487899054" lon="0.7404555470295009"><ele>42.0</ele><time>2026-04-19T14:26:20.026Z</time></trkpt><trkpt lat="44.835987247766155" lon="0.7405398801402054"><ele>42.0</ele><time>2026-04-19T14:26:26.013Z</time></trkpt><trkpt lat="44.8359886438202" lon="0.7406386921440143"><ele>42.0</ele><time>2026-04-19T14:26:33.013Z</time></trkpt><trkpt lat="44.83606175998191" lon="0.7406649597427899"><ele>42.0</ele><time>2026-04-19T14:29:49.013Z</time></trkpt><trkpt lat="44.83609133859214" lon="0.740582330834036"><ele>42.0</ele><time>2026-04-19T14:29:54.013Z</time></trkpt><trkpt lat="44.83607098464696" lon="0.7404858510537481"><ele>42.75</ele><time>2026-04-19T14:29:57.013Z</time></trkpt><trkpt lat="44.83610062523241" lon="0.7403614212318996"><ele>43.5</ele><time>2026-04-19T14:30:01.013Z</time></trkpt><trkpt lat="44.836226190894656" lon="0.7403379667764525"><ele>44.25</ele><time>2026-04-19T14:30:04.013Z</time></trkpt><trkpt lat="44.836354215078046" lon="0.7403544214461123"><ele>45.0</ele><time>2026-04-19T14:30:06.013Z</time></trkpt><trkpt lat="44.83647005616286" lon="0.7403585296089018"><ele>45.0</ele><time>2026-04-19T14:30:08.013Z</time></trkpt><trkpt lat="44.83653447249108" lon="0.7403610196202959"><ele>45.0</ele><time>2026-04-19T14:30:09.013Z</time></trkpt><trkpt lat="44.83660393170547" lon="0.7403757028853267"><ele>45.0</ele><time>2026-04-19T14:30:10.013Z</time></trkpt><trkpt lat="44.836671337397966" lon="0.7403978699930118"><ele>45.0</ele><time>2026-04-19T14:30:11.013Z</time></trkpt><trkpt lat="44.83674642126962" lon="0.7403987226851076"><ele>45.0</ele><time>2026-04-19T14:30:12.013Z</time></trkpt><trkpt lat="44.83686673519295" lon="0.7404201725622009"><ele>45.0</ele><time>2026-04-19T14:30:14.013Z</time></trkpt><trkpt lat="44.83693311161123" lon="0.7404314206816816"><ele>45.0</ele><time>2026-04-19T14:30:15.013Z</time></trkpt><trkpt lat="44.83699656982392" lon="0.740437552541256"><ele>45.0</ele><time>2026-04-19T14:30:16.013Z</time></trkpt><trkpt lat="44.83711697099032" lon="0.7404388359299945"><ele>45.0</ele><time>2026-04-19T14:30:18.013Z</time></trkpt><trkpt lat="44.83723284066924" lon="0.7404567703099133"><ele>45.0</ele><time>2026-04-19T14:30:20.013Z</time></trkpt><trkpt lat="44.837343880522624" lon="0.7404482115930261"><ele>45.0</ele><time>2026-04-19T14:30:22.013Z</time></trkpt><trkpt lat="44.837408208074045" lon="0.7404456759521357"><ele>45.0</ele><time>2026-04-19T14:30:23.013Z</time></trkpt><trkpt lat="44.837497182507704" lon="0.7402716469055953"><ele>45.0</ele><time>2026-04-19T14:30:26.013Z</time></trkpt><trkpt lat="44.83748851100537" lon="0.7401295542184011"><ele>45.0</ele><time>2026-04-19T14:30:28.013Z</time></trkpt><trkpt lat="44.837507981520915" lon="0.7400176885271641"><ele>45.0</ele><time>2026-04-19T14:30:30.013Z</time></trkpt><trkpt lat="44.83753486475151" lon="0.739870547432973"><ele>45.0</ele><time>2026-04-19T14:30:32.013Z</time></trkpt><trkpt lat="44.837552450690275" lon="0.7397365745647793"><ele>44.666666666666664</ele><time>2026-04-19T14:30:34.013Z</time></trkpt><trkpt lat="44.83756584782912" lon="0.7396179379923662"><ele>44.333333333333336</ele><time>2026-04-19T14:30:36.014Z</time></trkpt><trkpt lat="44.83756736781573" lon="0.7394940822389372"><ele>44.0</ele><time>2026-04-19T14:30:38.014Z</time></trkpt><trkpt lat="44.83759199847707" lon="0.7393865817073542"><ele>43.66666666666667</ele><time>2026-04-19T14:30:40.014Z</time></trkpt><trkpt lat="44.837597963900635" lon="0.7392526665363384"><ele>43.333333333333336</ele><time>2026-04-19T14:30:42.014Z</time></trkpt><trkpt lat="44.83760582359757" lon="0.7391409451948575"><ele>43.0</ele><time>2026-04-19T14:30:44.014Z</time></trkpt><trkpt lat="44.83762358299123" lon="0.7390263289467517"><ele>43.0</ele><time>2026-04-19T14:30:46.014Z</time></trkpt><trkpt lat="44.8376318982765" lon="0.7389179342556865"><ele>43.0</ele><time>2026-04-19T14:30:48.014Z</time></trkpt><trkpt lat="44.83764408188103" lon="0.7388030833032256"><ele>43.0</ele><time>2026-04-19T14:30:50.014Z</time></trkpt><trkpt lat="44.83766189987636" lon="0.7387171788500763"><ele>43.0</ele><time>2026-04-19T14:30:53.014Z</time></trkpt><trkpt lat="44.83768583852498" lon="0.7385865681012125"><ele>43.0</ele><time>2026-04-19T14:30:56.014Z</time></trkpt><trkpt lat="44.83768991659862" lon="0.7384771331876352"><ele>43.0</ele><time>2026-04-19T14:30:58.014Z</time></trkpt><trkpt lat="44.837698309984084" lon="0.7383391484740333"><ele>43.333333333333336</ele><time>2026-04-19T14:31:00.014Z</time></trkpt><trkpt lat="44.837673606469686" lon="0.7382309260935309"><ele>43.66666666666667</ele><time>2026-04-19T14:31:01.014Z</time></trkpt><trkpt lat="44.83765737611185" lon="0.7381279360317042"><ele>44.0</ele><time>2026-04-19T14:31:02.014Z</time></trkpt><trkpt lat="44.837662493405865" lon="0.7380240093465061"><ele>44.333333333333336</ele><time>2026-04-19T14:31:03.014Z</time></trkpt><trkpt lat="44.83766527577237" lon="0.737926983820018"><ele>44.666666666666664</ele><time>2026-04-19T14:31:04.014Z</time></trkpt><trkpt lat="44.83764366235638" lon="0.7378374116855989"><ele>45.0</ele><time>2026-04-19T14:31:05.014Z</time></trkpt><trkpt lat="44.8376362359285" lon="0.7376536400972897"><ele>44.833333333333336</ele><time>2026-04-19T14:31:07.014Z</time></trkpt><trkpt lat="44.837634097484916" lon="0.7375638821850605"><ele>44.666666666666664</ele><time>2026-04-19T14:31:08.014Z</time></trkpt><trkpt lat="44.83762207165209" lon="0.7374623724253518"><ele>44.5</ele><time>2026-04-19T14:31:09.014Z</time></trkpt><trkpt lat="44.8376085826003" lon="0.7372928220397622"><ele>44.33333333333333</ele><time>2026-04-19T14:31:11.014Z</time></trkpt><trkpt lat="44.83760951941426" lon="0.7371536052754343"><ele>44.166666666666664</ele><time>2026-04-19T14:31:13.014Z</time></trkpt><trkpt lat="44.837608031825795" lon="0.7370360806035685"><ele>44.0</ele><time>2026-04-19T14:31:15.014Z</time></trkpt><trkpt lat="44.83759045241473" lon="0.7369065745091619"><ele>44.2</ele><time>2026-04-19T14:31:17.014Z</time></trkpt><trkpt lat="44.83756522836502" lon="0.7367681618721671"><ele>44.400000000000006</ele><time>2026-04-19T14:31:19.011Z</time></trkpt><trkpt lat="44.837531747746624" lon="0.7366097724979656"><ele>44.6</ele><time>2026-04-19T14:31:21.011Z</time></trkpt><trkpt lat="44.83750781098681" lon="0.7365174383788597"><ele>44.8</ele><time>2026-04-19T14:31:22.012Z</time></trkpt><trkpt lat="44.83739313895508" lon="0.7364132093705567"><ele>45.0</ele><time>2026-04-19T14:31:24.011Z</time></trkpt><trkpt lat="44.83728806299375" lon="0.7363585729274187"><ele>45.0</ele><time>2026-04-19T14:31:26.011Z</time></trkpt><trkpt lat="44.837172960545345" lon="0.7363280697458119"><ele>45.0</ele><time>2026-04-19T14:31:28.012Z</time></trkpt><trkpt lat="44.83710814867637" lon="0.7363203149851737"><ele>45.0</ele><time>2026-04-19T14:31:29.011Z</time></trkpt><trkpt lat="44.83703943644044" lon="0.7363047327449543"><ele>45.0</ele><time>2026-04-19T14:31:30.011Z</time></trkpt><trkpt lat="44.836968566191146" lon="0.7362746411868635"><ele>45.0</ele><time>2026-04-19T14:31:31.011Z</time></trkpt><trkpt lat="44.836901981827445" lon="0.7362661904746168"><ele>45.0</ele><time>2026-04-19T14:31:32.012Z</time></trkpt><trkpt lat="44.8368067816912" lon="0.7362466420953787"><ele>45.0</ele><time>2026-04-19T14:31:34.012Z</time></trkpt><trkpt lat="44.83668899515787" lon="0.736209890870292"><ele>45.0</ele><time>2026-04-19T14:31:36.012Z</time></trkpt><trkpt lat="44.836624055130166" lon="0.736202972869747"><ele>45.0</ele><time>2026-04-19T14:31:37.012Z</time></trkpt><trkpt lat="44.836515689043964" lon="0.7361858416571229"><ele>45.0</ele><time>2026-04-19T14:31:39.012Z</time></trkpt><trkpt lat="44.83636725549045" lon="0.7361535868984608"><ele>45.0</ele><time>2026-04-19T14:31:42.012Z</time></trkpt><trkpt lat="44.836302416400464" lon="0.7361349257794153"><ele>45.0</ele><time>2026-04-19T14:31:43.012Z</time></trkpt><trkpt lat="44.83616255677555" lon="0.7360916874108874"><ele>45.0</ele><time>2026-04-19T14:31:45.012Z</time></trkpt><trkpt lat="44.836054088365415" lon="0.7360851603953562"><ele>45.0</ele><time>2026-04-19T14:31:47.012Z</time></trkpt><trkpt lat="44.83598818482593" lon="0.7360753619224952"><ele>45.0</ele><time>2026-04-19T14:31:48.012Z</time></trkpt><trkpt lat="44.83587772802446" lon="0.736049472523655"><ele>45.0</ele><time>2026-04-19T14:31:50.012Z</time></trkpt><trkpt lat="44.8358372767373" lon="0.7359680794186957"><ele>44.8</ele><time>2026-04-19T14:31:52.012Z</time></trkpt><trkpt lat="44.83581601941456" lon="0.7358744955000368"><ele>44.6</ele><time>2026-04-19T14:31:53.012Z</time></trkpt><trkpt lat="44.83579357224672" lon="0.7357235184551217"><ele>44.400000000000006</ele><time>2026-04-19T14:31:54.012Z</time></trkpt><trkpt lat="44.83578808464461" lon="0.7355680686344364"><ele>44.2</ele><time>2026-04-19T14:31:55.012Z</time></trkpt><trkpt lat="44.83578753697547" lon="0.735421753426185"><ele>44.0</ele><time>2026-04-19T14:31:56.012Z</time></trkpt><trkpt lat="44.835772982691275" lon="0.735256506267309"><ele>44.0</ele><time>2026-04-19T14:31:57.012Z</time></trkpt><trkpt lat="44.83576977851997" lon="0.7350672834200431"><ele>44.0</ele><time>2026-04-19T14:31:58.012Z</time></trkpt><trkpt lat="44.83574956707775" lon="0.7348815306051677"><ele>44.0</ele><time>2026-04-19T14:31:59.012Z</time></trkpt><trkpt lat="44.83573626897225" lon="0.7346839374180645"><ele>44.0</ele><time>2026-04-19T14:32:00.012Z</time></trkpt><trkpt lat="44.83573091125764" lon="0.7344877633611605"><ele>44.25</ele><time>2026-04-19T14:32:01.012Z</time></trkpt><trkpt lat="44.83572073845412" lon="0.7343034635786155"><ele>44.5</ele><time>2026-04-19T14:32:02.012Z</time></trkpt><trkpt lat="44.835710248045324" lon="0.7341417456915608"><ele>44.75</ele><time>2026-04-19T14:32:03.012Z</time></trkpt><trkpt lat="44.83569777586658" lon="0.7339773076460223"><ele>45.0</ele><time>2026-04-19T14:32:04.012Z</time></trkpt><trkpt lat="44.83569000957819" lon="0.7338141104061157"><ele>45.0</ele><time>2026-04-19T14:32:05.012Z</time></trkpt><trkpt lat="44.83567804432836" lon="0.7336520167610742"><ele>45.0</ele><time>2026-04-19T14:32:06.012Z</time></trkpt><trkpt lat="44.83567548872695" lon="0.7334984012173781"><ele>45.0</ele><time>2026-04-19T14:32:07.012Z</time></trkpt><trkpt lat="44.835690925523686" lon="0.7333341932386277"><ele>45.0</ele><time>2026-04-19T14:32:08.012Z</time></trkpt><trkpt lat="44.83566407121247" lon="0.7331790340503667"><ele>44.75</ele><time>2026-04-19T14:32:09.012Z</time></trkpt><trkpt lat="44.83564845241406" lon="0.7330140882590737"><ele>44.5</ele><time>2026-04-19T14:32:10.012Z</time></trkpt><trkpt lat="44.83563337009277" lon="0.7328469809393153"><ele>44.25</ele><time>2026-04-19T14:32:11.012Z</time></trkpt><trkpt lat="44.83561969640768" lon="0.7326679398621593"><ele>44.0</ele><time>2026-04-19T14:32:12.013Z</time></trkpt><trkpt lat="44.83559790200618" lon="0.7324922359570111"><ele>44.0</ele><time>2026-04-19T14:32:13.013Z</time></trkpt><trkpt lat="44.8355999078035" lon="0.7323225321423812"><ele>44.0</ele><time>2026-04-19T14:32:14.013Z</time></trkpt><trkpt lat="44.83559010578942" lon="0.7321417749757879"><ele>44.0</ele><time>2026-04-19T14:32:15.013Z</time></trkpt><trkpt lat="44.83558467476589" lon="0.7319708727454534"><ele>44.0</ele><time>2026-04-19T14:32:16.013Z</time></trkpt><trkpt lat="44.83557333261446" lon="0.7317967007693231"><ele>43.75</ele><time>2026-04-19T14:32:17.013Z</time></trkpt><trkpt lat="44.83555960109887" lon="0.7316334304173316"><ele>43.5</ele><time>2026-04-19T14:32:18.013Z</time></trkpt><trkpt lat="44.83554717529106" lon="0.7314640455447816"><ele>43.25</ele><time>2026-04-19T14:32:19.013Z</time></trkpt><trkpt lat="44.83553224801519" lon="0.7312838233085753"><ele>43.0</ele><time>2026-04-19T14:32:20.013Z</time></trkpt><trkpt lat="44.835523066314806" lon="0.7311019552086746"><ele>43.2</ele><time>2026-04-19T14:32:21.013Z</time></trkpt><trkpt lat="44.83552593800744" lon="0.7309533313780989"><ele>43.4</ele><time>2026-04-19T14:32:22.013Z</time></trkpt><trkpt lat="44.835518846379756" lon="0.7308156088896165"><ele>43.6</ele><time>2026-04-19T14:32:23.013Z</time></trkpt><trkpt lat="44.835511526188945" lon="0.7306548396552143"><ele>43.800000000000004</ele><time>2026-04-19T14:32:24.013Z</time></trkpt><trkpt lat="44.83550046630214" lon="0.7304912617272182"><ele>44.0</ele><time>2026-04-19T14:32:25.013Z</time></trkpt><trkpt lat="44.83548689086265" lon="0.7303334740723653"><ele>43.75</ele><time>2026-04-19T14:32:26.013Z</time></trkpt><trkpt lat="44.83548749633016" lon="0.7301736850421312"><ele>43.5</ele><time>2026-04-19T14:32:27.014Z</time></trkpt><trkpt lat="44.835473068056295" lon="0.730013077557566"><ele>43.25</ele><time>2026-04-19T14:32:28.014Z</time></trkpt><trkpt lat="44.83545897089256" lon="0.7298412777848"><ele>43.0</ele><time>2026-04-19T14:32:29.014Z</time></trkpt><trkpt lat="44.83544920102949" lon="0.7296862184032188"><ele>43.0</ele><time>2026-04-19T14:32:30.014Z</time></trkpt><trkpt lat="44.8354454029278" lon="0.7295119430071615"><ele>43.0</ele><time>2026-04-19T14:32:31.014Z</time></trkpt><trkpt lat="44.835436559538785" lon="0.7293508490062637"><ele>43.0</ele><time>2026-04-19T14:32:32.014Z</time></trkpt><trkpt lat="44.835427452180284" lon="0.7291821976385389"><ele>43.0</ele><time>2026-04-19T14:32:33.014Z</time></trkpt><trkpt lat="44.835402276824375" lon="0.72900041839411"><ele>43.25</ele><time>2026-04-19T14:32:34.014Z</time></trkpt><trkpt lat="44.83539441582466" lon="0.7288360447153553"><ele>43.5</ele><time>2026-04-19T14:32:35.014Z</time></trkpt><trkpt lat="44.835385978628196" lon="0.7286778216705886"><ele>43.75</ele><time>2026-04-19T14:32:36.014Z</time></trkpt><trkpt lat="44.83537653207494" lon="0.7285203148528178"><ele>44.0</ele><time>2026-04-19T14:32:37.014Z</time></trkpt><trkpt lat="44.83537954889984" lon="0.7283648610277195"><ele>43.6</ele><time>2026-04-19T14:32:38.014Z</time></trkpt><trkpt lat="44.83537853332681" lon="0.7282152304153419"><ele>43.2</ele><time>2026-04-19T14:32:39.014Z</time></trkpt><trkpt lat="44.83536436293642" lon="0.7280598622959908"><ele>42.800000000000004</ele><time>2026-04-19T14:32:40.014Z</time></trkpt><trkpt lat="44.83535635108953" lon="0.7279055491475297"><ele>42.400000000000006</ele><time>2026-04-19T14:32:41.014Z</time></trkpt><trkpt lat="44.83534694514239" lon="0.7277564404774987"><ele>42.0</ele><time>2026-04-19T14:32:42.014Z</time></trkpt><trkpt lat="44.83533439313411" lon="0.7276004518192807"><ele>41.8</ele><time>2026-04-19T14:32:43.014Z</time></trkpt><trkpt lat="44.83532423394518" lon="0.7274493046171179"><ele>41.6</ele><time>2026-04-19T14:32:44.014Z</time></trkpt><trkpt lat="44.83531310225038" lon="0.7272930963254554"><ele>41.4</ele><time>2026-04-19T14:32:45.014Z</time></trkpt><trkpt lat="44.83531304770391" lon="0.7271436061703846"><ele>41.199999999999996</ele><time>2026-04-19T14:32:46.014Z</time></trkpt><trkpt lat="44.83529787332168" lon="0.7269876326310126"><ele>41.0</ele><time>2026-04-19T14:32:47.014Z</time></trkpt><trkpt lat="44.83529884060365" lon="0.7268276511873594"><ele>40.75</ele><time>2026-04-19T14:32:48.014Z</time></trkpt><trkpt lat="44.83527430026333" lon="0.7266674455728165"><ele>40.5</ele><time>2026-04-19T14:32:49.014Z</time></trkpt><trkpt lat="44.835270242416776" lon="0.7264991711426545"><ele>40.25</ele><time>2026-04-19T14:32:50.014Z</time></trkpt><trkpt lat="44.835262784543715" lon="0.726336670570149"><ele>40.0</ele><time>2026-04-19T14:32:51.014Z</time></trkpt><trkpt lat="44.83524693810701" lon="0.7261773696744497"><ele>40.2</ele><time>2026-04-19T14:32:52.014Z</time></trkpt><trkpt lat="44.83523968083875" lon="0.7260177345194708"><ele>40.4</ele><time>2026-04-19T14:32:53.014Z</time></trkpt><trkpt lat="44.8352325250118" lon="0.7258627954477678"><ele>40.599999999999994</ele><time>2026-04-19T14:32:54.014Z</time></trkpt><trkpt lat="44.83521017335266" lon="0.7256965481257359"><ele>40.8</ele><time>2026-04-19T14:32:55.014Z</time></trkpt><trkpt lat="44.83520124021883" lon="0.7255483609025525"><ele>41.0</ele><time>2026-04-19T14:32:56.014Z</time></trkpt><trkpt lat="44.83520156156949" lon="0.7253984713193443"><ele>41.0</ele><time>2026-04-19T14:32:57.014Z</time></trkpt><trkpt lat="44.83520639697256" lon="0.7252564990566764"><ele>41.0</ele><time>2026-04-19T14:32:58.015Z</time></trkpt><trkpt lat="44.835201745288586" lon="0.7251152823166594"><ele>41.0</ele><time>2026-04-19T14:32:59.015Z</time></trkpt><trkpt lat="44.83520043474308" lon="0.7249769430433038"><ele>41.0</ele><time>2026-04-19T14:33:00.015Z</time></trkpt><trkpt lat="44.83519400431591" lon="0.7248522941984903"><ele>41.0</ele><time>2026-04-19T14:33:01.015Z</time></trkpt><trkpt lat="44.83522436783257" lon="0.7247330420930715"><ele>41.0</ele><time>2026-04-19T14:33:02.015Z</time></trkpt><trkpt lat="44.83523494442172" lon="0.724622620030215"><ele>41.0</ele><time>2026-04-19T14:33:03.015Z</time></trkpt><trkpt lat="44.83526114124669" lon="0.7245149433740996"><ele>41.0</ele><time>2026-04-19T14:33:04.015Z</time></trkpt><trkpt lat="44.835248526967085" lon="0.7243974374161821"><ele>41.0</ele><time>2026-04-19T14:33:05.015Z</time></trkpt><trkpt lat="44.835223474353775" lon="0.724272997698472"><ele>41.0</ele><time>2026-04-19T14:33:06.015Z</time></trkpt><trkpt lat="44.83518322078956" lon="0.7241418324323614"><ele>41.0</ele><time>2026-04-19T14:33:07.015Z</time></trkpt><trkpt lat="44.8351674736266" lon="0.7240216948733177"><ele>41.25</ele><time>2026-04-19T14:33:08.015Z</time></trkpt><trkpt lat="44.83514263232849" lon="0.7238857795417813"><ele>41.5</ele><time>2026-04-19T14:33:09.015Z</time></trkpt><trkpt lat="44.835128540817735" lon="0.723713695670237"><ele>41.75</ele><time>2026-04-19T14:33:10.015Z</time></trkpt><trkpt lat="44.83511559174064" lon="0.7235536695828724"><ele>42.0</ele><time>2026-04-19T14:33:11.015Z</time></trkpt><trkpt lat="44.83510336680998" lon="0.723380475110928"><ele>42.0</ele><time>2026-04-19T14:33:12.015Z</time></trkpt><trkpt lat="44.83509006235447" lon="0.7231956759844212"><ele>42.0</ele><time>2026-04-19T14:33:13.015Z</time></trkpt><trkpt lat="44.83508382433763" lon="0.7230086845610537"><ele>42.0</ele><time>2026-04-19T14:33:14.015Z</time></trkpt><trkpt lat="44.835071123368074" lon="0.722827691566939"><ele>42.0</ele><time>2026-04-19T14:33:15.015Z</time></trkpt><trkpt lat="44.8350634030522" lon="0.72265514905085"><ele>42.0</ele><time>2026-04-19T14:33:16.015Z</time></trkpt><trkpt lat="44.83505521784683" lon="0.7224820600673336"><ele>42.0</ele><time>2026-04-19T14:33:17.015Z</time></trkpt><trkpt lat="44.835043547544124" lon="0.7223112707694235"><ele>42.0</ele><time>2026-04-19T14:33:18.015Z</time></trkpt><trkpt lat="44.835035189708776" lon="0.7221392363309846"><ele>42.0</ele><time>2026-04-19T14:33:19.015Z</time></trkpt><trkpt lat="44.8350439583703" lon="0.7219856052162326"><ele>42.0</ele><time>2026-04-19T14:33:20.015Z</time></trkpt><trkpt lat="44.835027074427494" lon="0.72181499865845"><ele>42.0</ele><time>2026-04-19T14:33:21.015Z</time></trkpt><trkpt lat="44.83501790139989" lon="0.7216515871830075"><ele>42.0</ele><time>2026-04-19T14:33:22.015Z</time></trkpt><trkpt lat="44.83500827651944" lon="0.7214760820616931"><ele>42.0</ele><time>2026-04-19T14:33:23.015Z</time></trkpt><trkpt lat="44.83499978978168" lon="0.7212933976549006"><ele>42.0</ele><time>2026-04-19T14:33:24.015Z</time></trkpt><trkpt lat="44.834999466946" lon="0.721103698639287"><ele>42.0</ele><time>2026-04-19T14:33:25.011Z</time></trkpt><trkpt lat="44.83498971478108" lon="0.7209179657588248"><ele>42.0</ele><time>2026-04-19T14:33:26.011Z</time></trkpt><trkpt lat="44.83497872291574" lon="0.7207350703001968"><ele>42.0</ele><time>2026-04-19T14:33:27.011Z</time></trkpt><trkpt lat="44.83496134825343" lon="0.7205514126715854"><ele>42.0</ele><time>2026-04-19T14:33:28.011Z</time></trkpt><trkpt lat="44.83494870541294" lon="0.7203769624963738"><ele>42.0</ele><time>2026-04-19T14:33:29.011Z</time></trkpt><trkpt lat="44.83494342752179" lon="0.7201951849442823"><ele>42.0</ele><time>2026-04-19T14:33:30.011Z</time></trkpt><trkpt lat="44.83493307047765" lon="0.7200232180478472"><ele>42.0</ele><time>2026-04-19T14:33:31.011Z</time></trkpt><trkpt lat="44.83492303234203" lon="0.7198678256267488"><ele>42.0</ele><time>2026-04-19T14:33:32.01Z</time></trkpt><trkpt lat="44.83491651803839" lon="0.7197110230046588"><ele>42.0</ele><time>2026-04-19T14:33:33.01Z</time></trkpt><trkpt lat="44.834900673220204" lon="0.719557532566839"><ele>42.0</ele><time>2026-04-19T14:33:34.011Z</time></trkpt><trkpt lat="44.83488816584469" lon="0.7194111199269306"><ele>42.0</ele><time>2026-04-19T14:33:35.011Z</time></trkpt><trkpt lat="44.83487642272808" lon="0.7192617290747071"><ele>42.0</ele><time>2026-04-19T14:33:36.011Z</time></trkpt><trkpt lat="44.834867033945216" lon="0.7191263823056498"><ele>42.166666666666664</ele><time>2026-04-19T14:33:37.011Z</time></trkpt><trkpt lat="44.8348562085306" lon="0.718997666940944"><ele>42.333333333333336</ele><time>2026-04-19T14:33:38.011Z</time></trkpt><trkpt lat="44.834849780292764" lon="0.7188740313382653"><ele>42.5</ele><time>2026-04-19T14:33:39.011Z</time></trkpt><trkpt lat="44.8348316640191" lon="0.7187590873066247"><ele>42.66666666666667</ele><time>2026-04-19T14:33:40.011Z</time></trkpt><trkpt lat="44.834833761786776" lon="0.7186519065213013"><ele>42.833333333333336</ele><time>2026-04-19T14:33:41.011Z</time></trkpt><trkpt lat="44.83482659039917" lon="0.7185358307092745"><ele>43.0</ele><time>2026-04-19T14:33:42.011Z</time></trkpt><trkpt lat="44.834820137142394" lon="0.7184325429479145"><ele>42.5</ele><time>2026-04-19T14:33:43.011Z</time></trkpt><trkpt lat="44.8347981553019" lon="0.71826909780144"><ele>42.0</ele><time>2026-04-19T14:33:45.011Z</time></trkpt><trkpt lat="44.834852966706066" lon="0.7180964452959028"><ele>41.5</ele><time>2026-04-19T14:33:47.011Z</time></trkpt><trkpt lat="44.83485801459322" lon="0.71791777425515"><ele>41.0</ele><time>2026-04-19T14:33:49.011Z</time></trkpt><trkpt lat="44.83486856062484" lon="0.7178180997077441"><ele>41.199999999999996</ele><time>2026-04-19T14:33:50.011Z</time></trkpt><trkpt lat="44.83482955215343" lon="0.7177152719913277"><ele>41.4</ele><time>2026-04-19T14:33:51.011Z</time></trkpt><trkpt lat="44.834793414410896" lon="0.7175929366316989"><ele>41.6</ele><time>2026-04-19T14:33:52.011Z</time></trkpt><trkpt lat="44.83478235167073" lon="0.7174440643624964"><ele>41.8</ele><time>2026-04-19T14:33:53.011Z</time></trkpt><trkpt lat="44.834771590018775" lon="0.7172984788378647"><ele>42.0</ele><time>2026-04-19T14:33:54.011Z</time></trkpt><trkpt lat="44.83475489995867" lon="0.7171356898400155"><ele>42.0</ele><time>2026-04-19T14:33:55.011Z</time></trkpt><trkpt lat="44.834726516177696" lon="0.7169325423916865"><ele>42.0</ele><time>2026-04-19T14:33:56.011Z</time></trkpt><trkpt lat="44.83472281566229" lon="0.7166908732378817"><ele>42.0</ele><time>2026-04-19T14:33:57.011Z</time></trkpt><trkpt lat="44.834707329846125" lon="0.7164198242644026"><ele>41.666666666666664</ele><time>2026-04-19T14:33:58.011Z</time></trkpt><trkpt lat="44.8346901707456" lon="0.7161194877106764"><ele>41.33333333333333</ele><time>2026-04-19T14:33:59.011Z</time></trkpt><trkpt lat="44.83465705964676" lon="0.7158118397967939"><ele>41.0</ele><time>2026-04-19T14:34:00.011Z</time></trkpt><trkpt lat="44.834679099103155" lon="0.7155153817286406"><ele>41.0</ele><time>2026-04-19T14:34:01.011Z</time></trkpt><trkpt lat="44.83466718550781" lon="0.7152397771256434"><ele>41.0</ele><time>2026-04-19T14:34:02.011Z</time></trkpt><trkpt lat="44.8346537427695" lon="0.7149584067042298"><ele>41.0</ele><time>2026-04-19T14:34:03.011Z</time></trkpt><trkpt lat="44.834627910550395" lon="0.7147002895027326"><ele>41.0</ele><time>2026-04-19T14:34:04.011Z</time></trkpt><trkpt lat="44.834613556042285" lon="0.7144342254428689"><ele>41.0</ele><time>2026-04-19T14:34:05.011Z</time></trkpt><trkpt lat="44.83460042476954" lon="0.7141815148303235"><ele>41.0</ele><time>2026-04-19T14:34:06.011Z</time></trkpt><trkpt lat="44.83457726464079" lon="0.7139271642347804"><ele>41.0</ele><time>2026-04-19T14:34:07.011Z</time></trkpt><trkpt lat="44.83456618532912" lon="0.7136466511437285"><ele>41.0</ele><time>2026-04-19T14:34:08.011Z</time></trkpt><trkpt lat="44.83454721307665" lon="0.7133722523634612"><ele>41.0</ele><time>2026-04-19T14:34:09.011Z</time></trkpt><trkpt lat="44.83453237323309" lon="0.7130971081615213"><ele>41.0</ele><time>2026-04-19T14:34:10.012Z</time></trkpt><trkpt lat="44.83452044798535" lon="0.7128185426135739"><ele>41.0</ele><time>2026-04-19T14:34:11.012Z</time></trkpt><trkpt lat="44.83449796382519" lon="0.7125426425014003"><ele>41.0</ele><time>2026-04-19T14:34:12.012Z</time></trkpt><trkpt lat="44.834486180943" lon="0.7122609386431314"><ele>41.0</ele><time>2026-04-19T14:34:13.012Z</time></trkpt><trkpt lat="44.834473135969354" lon="0.7119885784541615"><ele>41.0</ele><time>2026-04-19T14:34:14.012Z</time></trkpt><trkpt lat="44.83446098957519" lon="0.7117134298241483"><ele>41.0</ele><time>2026-04-19T14:34:15.012Z</time></trkpt><trkpt lat="44.834442712795486" lon="0.7114412313345786"><ele>42.0</ele><time>2026-04-19T14:34:16.012Z</time></trkpt><trkpt lat="44.834427093919594" lon="0.7111701415583934"><ele>43.0</ele><time>2026-04-19T14:34:17.012Z</time></trkpt><trkpt lat="44.8344075285708" lon="0.710899195156429"><ele>44.0</ele><time>2026-04-19T14:34:18.012Z</time></trkpt><trkpt lat="44.834390553926994" lon="0.7106378350093558"><ele>44.0</ele><time>2026-04-19T14:34:19.012Z</time></trkpt><trkpt lat="44.834368322736424" lon="0.7103751345432102"><ele>44.0</ele><time>2026-04-19T14:34:20.012Z</time></trkpt><trkpt lat="44.83432906508252" lon="0.710127170377714"><ele>44.0</ele><time>2026-04-19T14:34:21.012Z</time></trkpt><trkpt lat="44.83426543231978" lon="0.7099074871359584"><ele>44.0</ele><time>2026-04-19T14:34:22.012Z</time></trkpt><trkpt lat="44.834164513452" lon="0.70969720420159"><ele>44.0</ele><time>2026-04-19T14:34:23.012Z</time></trkpt><trkpt lat="44.83404345507432" lon="0.7094881008902336"><ele>44.0</ele><time>2026-04-19T14:34:24.012Z</time></trkpt><trkpt lat="44.833919093460274" lon="0.7092823810427656"><ele>43.666666666666664</ele><time>2026-04-19T14:34:25.012Z</time></trkpt><trkpt lat="44.83383469525075" lon="0.70908005976458"><ele>43.333333333333336</ele><time>2026-04-19T14:34:26.012Z</time></trkpt><trkpt lat="44.833750389691296" lon="0.7088538232824009"><ele>43.0</ele><time>2026-04-19T14:34:27.012Z</time></trkpt><trkpt lat="44.83366632036259" lon="0.7086245875817444"><ele>43.0</ele><time>2026-04-19T14:34:28.012Z</time></trkpt><trkpt lat="44.83360425492599" lon="0.7083942265311697"><ele>43.0</ele><time>2026-04-19T14:34:29.012Z</time></trkpt><trkpt lat="44.83354257347185" lon="0.7081712068678566"><ele>43.0</ele><time>2026-04-19T14:34:30.012Z</time></trkpt><trkpt lat="44.83349364306561" lon="0.7079361250877065"><ele>44.333333333333336</ele><time>2026-04-19T14:34:31.012Z</time></trkpt><trkpt lat="44.83344639981454" lon="0.7077044356888346"><ele>45.666666666666664</ele><time>2026-04-19T14:34:32.012Z</time></trkpt><trkpt lat="44.83341417968683" lon="0.707459669796906"><ele>47.0</ele><time>2026-04-19T14:34:33.012Z</time></trkpt><trkpt lat="44.83339584941233" lon="0.7072132058088662"><ele>47.0</ele><time>2026-04-19T14:34:34.012Z</time></trkpt><trkpt lat="44.83339087607336" lon="0.706975197714465"><ele>47.0</ele><time>2026-04-19T14:34:35.012Z</time></trkpt><trkpt lat="44.8333900559859" lon="0.7067183714670601"><ele>47.0</ele><time>2026-04-19T14:34:36.012Z</time></trkpt><trkpt lat="44.833395050242636" lon="0.7064643436116612"><ele>46.33333333333333</ele><time>2026-04-19T14:34:37.012Z</time></trkpt><trkpt lat="44.833400626155665" lon="0.7062180320772351"><ele>45.666666666666664</ele><time>2026-04-19T14:34:38.012Z</time></trkpt><trkpt lat="44.833411622037296" lon="0.7059873297567083"><ele>45.0</ele><time>2026-04-19T14:34:39.012Z</time></trkpt><trkpt lat="44.83342148426497" lon="0.7057701922523144"><ele>45.0</ele><time>2026-04-19T14:34:40.012Z</time></trkpt><trkpt lat="44.833444467699174" lon="0.7055529111665907"><ele>45.0</ele><time>2026-04-19T14:34:41.012Z</time></trkpt><trkpt lat="44.83349592260341" lon="0.7053416743877164"><ele>45.0</ele><time>2026-04-19T14:34:42.012Z</time></trkpt><trkpt lat="44.83357533605046" lon="0.7051455408144851"><ele>44.666666666666664</ele><time>2026-04-19T14:34:43.012Z</time></trkpt><trkpt lat="44.833684870198205" lon="0.7049666830568652"><ele>44.33333333333333</ele><time>2026-04-19T14:34:44.012Z</time></trkpt><trkpt lat="44.833799046115026" lon="0.7047979174959574"><ele>44.0</ele><time>2026-04-19T14:34:45.012Z</time></trkpt><trkpt lat="44.83390143178187" lon="0.7046086978216922"><ele>44.0</ele><time>2026-04-19T14:34:46.012Z</time></trkpt><trkpt lat="44.8339692132415" lon="0.7044170642592095"><ele>44.0</ele><time>2026-04-19T14:34:47.012Z</time></trkpt><trkpt lat="44.8340218052923" lon="0.7042035941765497"><ele>44.0</ele><time>2026-04-19T14:34:48.012Z</time></trkpt><trkpt lat="44.83405553923385" lon="0.7039683619769276"><ele>44.0</ele><time>2026-04-19T14:34:49.012Z</time></trkpt><trkpt lat="44.834083619572056" lon="0.7037170323541881"><ele>44.0</ele><time>2026-04-19T14:34:50.012Z</time></trkpt><trkpt lat="44.834118614269656" lon="0.7034685564868255"><ele>44.0</ele><time>2026-04-19T14:34:51.012Z</time></trkpt><trkpt lat="44.834157899836455" lon="0.7032142327929422"><ele>43.666666666666664</ele><time>2026-04-19T14:34:52.012Z</time></trkpt><trkpt lat="44.834180636638926" lon="0.702934517377938"><ele>43.333333333333336</ele><time>2026-04-19T14:34:53.012Z</time></trkpt><trkpt lat="44.834223553627425" lon="0.7026745448392115"><ele>43.0</ele><time>2026-04-19T14:34:54.012Z</time></trkpt><trkpt lat="44.83427042245025" lon="0.7024121550380809"><ele>42.66666666666667</ele><time>2026-04-19T14:34:55.012Z</time></trkpt><trkpt lat="44.834308432973486" lon="0.7021286485666398"><ele>42.333333333333336</ele><time>2026-04-19T14:34:56.012Z</time></trkpt><trkpt lat="44.83434556775968" lon="0.7018529389147171"><ele>42.0</ele><time>2026-04-19T14:34:57.013Z</time></trkpt><trkpt lat="44.834397731018605" lon="0.7015680516619941"><ele>42.0</ele><time>2026-04-19T14:34:58.013Z</time></trkpt><trkpt lat="44.834458999973975" lon="0.7012746929718352"><ele>42.0</ele><time>2026-04-19T14:34:59.013Z</time></trkpt><trkpt lat="44.83449898068885" lon="0.7009685491259252"><ele>42.0</ele><time>2026-04-19T14:35:00.013Z</time></trkpt><trkpt lat="44.83454502769262" lon="0.7006726946774231"><ele>43.0</ele><time>2026-04-19T14:35:01.013Z</time></trkpt><trkpt lat="44.834590225645115" lon="0.7003474752808615"><ele>44.0</ele><time>2026-04-19T14:35:02.013Z</time></trkpt><trkpt lat="44.83464651860484" lon="0.7000549050959055"><ele>46.5</ele><time>2026-04-19T14:35:03.013Z</time></trkpt><trkpt lat="44.83468654644327" lon="0.6997328790750862"><ele>49.0</ele><time>2026-04-19T14:35:04.013Z</time></trkpt><trkpt lat="44.83473278483724" lon="0.6994274099722866"><ele>47.0</ele><time>2026-04-19T14:35:05.013Z</time></trkpt><trkpt lat="44.83478180730831" lon="0.6991200482742924"><ele>45.0</ele><time>2026-04-19T14:35:06.013Z</time></trkpt><trkpt lat="44.83482734262332" lon="0.6988097013227631"><ele>43.0</ele><time>2026-04-19T14:35:07.013Z</time></trkpt><trkpt lat="44.83487016269664" lon="0.6985025629623138"><ele>43.0</ele><time>2026-04-19T14:35:08.013Z</time></trkpt><trkpt lat="44.834921999466474" lon="0.6981932743138184"><ele>43.0</ele><time>2026-04-19T14:35:09.013Z</time></trkpt><trkpt lat="44.834959774247736" lon="0.6978927833648348"><ele>43.0</ele><time>2026-04-19T14:35:10.013Z</time></trkpt><trkpt lat="44.83501647645802" lon="0.6975882968458659"><ele>43.0</ele><time>2026-04-19T14:35:11.013Z</time></trkpt><trkpt lat="44.835056597122716" lon="0.6972856445742"><ele>43.0</ele><time>2026-04-19T14:35:12.013Z</time></trkpt><trkpt lat="44.83510046568135" lon="0.696972308001093"><ele>43.0</ele><time>2026-04-19T14:35:13.013Z</time></trkpt><trkpt lat="44.8351661111721" lon="0.6966745135364761"><ele>42.5</ele><time>2026-04-19T14:35:14.013Z</time></trkpt><trkpt lat="44.83521550212789" lon="0.6963627038300362"><ele>42.0</ele><time>2026-04-19T14:35:15.013Z</time></trkpt><trkpt lat="44.835273837479505" lon="0.6960516259788959"><ele>42.0</ele><time>2026-04-19T14:35:16.013Z</time></trkpt><trkpt lat="44.83532562883373" lon="0.6957687985156187"><ele>42.0</ele><time>2026-04-19T14:35:17.013Z</time></trkpt><trkpt lat="44.835358133948155" lon="0.6954757187971841"><ele>42.0</ele><time>2026-04-19T14:35:18.013Z</time></trkpt><trkpt lat="44.83540408967698" lon="0.695176939178035"><ele>42.0</ele><time>2026-04-19T14:35:19.013Z</time></trkpt><trkpt lat="44.83544495803437" lon="0.6948838017359931"><ele>42.0</ele><time>2026-04-19T14:35:20.013Z</time></trkpt><trkpt lat="44.83550727611896" lon="0.6945901245670575"><ele>42.0</ele><time>2026-04-19T14:35:21.013Z</time></trkpt><trkpt lat="44.835555880040765" lon="0.6942841350982988"><ele>42.0</ele><time>2026-04-19T14:35:22.013Z</time></trkpt><trkpt lat="44.835604625317885" lon="0.6939767494463039"><ele>42.0</ele><time>2026-04-19T14:35:23.013Z</time></trkpt><trkpt lat="44.83565855280273" lon="0.6936780150489306"><ele>42.0</ele><time>2026-04-19T14:35:24.013Z</time></trkpt><trkpt lat="44.83570371912838" lon="0.6933680884974378"><ele>42.0</ele><time>2026-04-19T14:35:25.013Z</time></trkpt><trkpt lat="44.83576242623229" lon="0.6930579701762307"><ele>42.0</ele><time>2026-04-19T14:35:26.013Z</time></trkpt><trkpt lat="44.83579132950998" lon="0.6927451204039343"><ele>42.666666666666664</ele><time>2026-04-19T14:35:27.013Z</time></trkpt><trkpt lat="44.83583579066349" lon="0.6924313733667051"><ele>43.33333333333333</ele><time>2026-04-19T14:35:28.013Z</time></trkpt><trkpt lat="44.83587975071849" lon="0.692125949978608"><ele>44.0</ele><time>2026-04-19T14:35:29.013Z</time></trkpt><trkpt lat="44.83592117353993" lon="0.6918091421442645"><ele>45.0</ele><time>2026-04-19T14:35:30.013Z</time></trkpt><trkpt lat="44.835960025821464" lon="0.6914937200314097"><ele>46.0</ele><time>2026-04-19T14:35:31.01Z</time></trkpt><trkpt lat="44.836002104162056" lon="0.6911832879478647"><ele>43.0</ele><time>2026-04-19T14:35:32.01Z</time></trkpt><trkpt lat="44.83605920943174" lon="0.690855513231742"><ele>40.0</ele><time>2026-04-19T14:35:33.01Z</time></trkpt><trkpt lat="44.83610826493193" lon="0.6905401209480584"><ele>39.5</ele><time>2026-04-19T14:35:34.01Z</time></trkpt><trkpt lat="44.836152069722985" lon="0.6902223825140642"><ele>39.0</ele><time>2026-04-19T14:35:35.01Z</time></trkpt><trkpt lat="44.83619662273148" lon="0.6898925671917489"><ele>39.0</ele><time>2026-04-19T14:35:36.01Z</time></trkpt><trkpt lat="44.83623492864573" lon="0.6895731109017105"><ele>39.0</ele><time>2026-04-19T14:35:37.01Z</time></trkpt><trkpt lat="44.83628293135099" lon="0.689243191506975"><ele>40.0</ele><time>2026-04-19T14:35:38.009Z</time></trkpt><trkpt lat="44.83634166335924" lon="0.688930010434246"><ele>41.0</ele><time>2026-04-19T14:35:39.01Z</time></trkpt><trkpt lat="44.83638882858986" lon="0.6886127389411486"><ele>41.5</ele><time>2026-04-19T14:35:40.01Z</time></trkpt><trkpt lat="44.836438950707795" lon="0.6882937411950663"><ele>42.0</ele><time>2026-04-19T14:35:41.01Z</time></trkpt><trkpt lat="44.83648812319563" lon="0.6879708572247817"><ele>41.5</ele><time>2026-04-19T14:35:42.01Z</time></trkpt><trkpt lat="44.83653791207589" lon="0.6876358047495987"><ele>41.0</ele><time>2026-04-19T14:35:43.01Z</time></trkpt><trkpt lat="44.83657205617059" lon="0.6873181535704151"><ele>41.0</ele><time>2026-04-19T14:35:44.01Z</time></trkpt><trkpt lat="44.83662712313499" lon="0.6869971960461714"><ele>41.0</ele><time>2026-04-19T14:35:45.01Z</time></trkpt><trkpt lat="44.83667419229652" lon="0.6866812900130881"><ele>42.0</ele><time>2026-04-19T14:35:46.01Z</time></trkpt><trkpt lat="44.83672527222444" lon="0.6863485319472034"><ele>43.0</ele><time>2026-04-19T14:35:47.01Z</time></trkpt><trkpt lat="44.83678102397183" lon="0.6860167448074342"><ele>41.5</ele><time>2026-04-19T14:35:48.01Z</time></trkpt><trkpt lat="44.83682340707615" lon="0.6856870967895435"><ele>40.0</ele><time>2026-04-19T14:35:49.01Z</time></trkpt><trkpt lat="44.83688156309248" lon="0.6853584032570286"><ele>40.0</ele><time>2026-04-19T14:35:50.01Z</time></trkpt><trkpt lat="44.83693026446719" lon="0.6850321296086013"><ele>40.0</ele><time>2026-04-19T14:35:51.01Z</time></trkpt><trkpt lat="44.83698246883778" lon="0.6847140856082913"><ele>40.0</ele><time>2026-04-19T14:35:52.01Z</time></trkpt><trkpt lat="44.8370358801241" lon="0.684377346306726"><ele>40.0</ele><time>2026-04-19T14:35:53.01Z</time></trkpt><trkpt lat="44.83708712010218" lon="0.6840532913135712"><ele>40.0</ele><time>2026-04-19T14:35:54.01Z</time></trkpt><trkpt lat="44.837138228924125" lon="0.6837275174566786"><ele>40.0</ele><time>2026-04-19T14:35:55.01Z</time></trkpt><trkpt lat="44.83718409127463" lon="0.6834080356344079"><ele>41.0</ele><time>2026-04-19T14:35:56.01Z</time></trkpt><trkpt lat="44.83723076687296" lon="0.6830877528072755"><ele>42.0</ele><time>2026-04-19T14:35:57.01Z</time></trkpt><trkpt lat="44.83727918762247" lon="0.6827758348146649"><ele>42.0</ele><time>2026-04-19T14:35:58.01Z</time></trkpt><trkpt lat="44.837329298669104" lon="0.6824648866889335"><ele>42.0</ele><time>2026-04-19T14:35:59.01Z</time></trkpt><trkpt lat="44.83737876041514" lon="0.6821540306468556"><ele>42.5</ele><time>2026-04-19T14:36:00.01Z</time></trkpt><trkpt lat="44.83742482787109" lon="0.6818415766253314"><ele>43.0</ele><time>2026-04-19T14:36:01.01Z</time></trkpt><trkpt lat="44.83746702956047" lon="0.6815248705060718"><ele>43.0</ele><time>2026-04-19T14:36:02.01Z</time></trkpt><trkpt lat="44.83752606015089" lon="0.6812294960778738"><ele>43.0</ele><time>2026-04-19T14:36:03.01Z</time></trkpt><trkpt lat="44.83758378210103" lon="0.6809261304161558"><ele>43.0</ele><time>2026-04-19T14:36:04.01Z</time></trkpt><trkpt lat="44.837639924159674" lon="0.6806345772705766"><ele>42.0</ele><time>2026-04-19T14:36:05.01Z</time></trkpt><trkpt lat="44.83770183564506" lon="0.68034128337747"><ele>41.0</ele><time>2026-04-19T14:36:06.01Z</time></trkpt><trkpt lat="44.837761024001246" lon="0.6800363485196993"><ele>40.0</ele><time>2026-04-19T14:36:07.01Z</time></trkpt><trkpt lat="44.837821130482006" lon="0.6797452978898887"><ele>40.0</ele><time>2026-04-19T14:36:08.01Z</time></trkpt><trkpt lat="44.83788331366435" lon="0.6794494006314933"><ele>40.0</ele><time>2026-04-19T14:36:09.01Z</time></trkpt><trkpt lat="44.83795006964938" lon="0.6791668856547333"><ele>40.0</ele><time>2026-04-19T14:36:10.01Z</time></trkpt><trkpt lat="44.838016617286726" lon="0.6788737267212905"><ele>39.333333333333336</ele><time>2026-04-19T14:36:11.01Z</time></trkpt><trkpt lat="44.83808397493168" lon="0.6785813260290622"><ele>38.666666666666664</ele><time>2026-04-19T14:36:12.01Z</time></trkpt><trkpt lat="44.838147425789025" lon="0.6783034116195852"><ele>38.0</ele><time>2026-04-19T14:36:13.01Z</time></trkpt><trkpt lat="44.838225822797966" lon="0.6780157358359327"><ele>38.0</ele><time>2026-04-19T14:36:14.01Z</time></trkpt><trkpt lat="44.83830875468459" lon="0.677733747023482"><ele>38.0</ele><time>2026-04-19T14:36:15.01Z</time></trkpt><trkpt lat="44.838390729912476" lon="0.677455314791142"><ele>38.0</ele><time>2026-04-19T14:36:16.01Z</time></trkpt><trkpt lat="44.83847329379808" lon="0.6771762949451772"><ele>38.666666666666664</ele><time>2026-04-19T14:36:17.01Z</time></trkpt><trkpt lat="44.838553934291916" lon="0.6769000685906001"><ele>39.333333333333336</ele><time>2026-04-19T14:36:18.01Z</time></trkpt><trkpt lat="44.8386364344374" lon="0.6766262800951651"><ele>40.0</ele><time>2026-04-19T14:36:19.01Z</time></trkpt><trkpt lat="44.83871700059241" lon="0.6763562007931749"><ele>39.66666666666667</ele><time>2026-04-19T14:36:20.01Z</time></trkpt><trkpt lat="44.83879825417415" lon="0.6760973590774794"><ele>39.333333333333336</ele><time>2026-04-19T14:36:21.01Z</time></trkpt><trkpt lat="44.83888228356257" lon="0.675819256632349"><ele>39.0</ele><time>2026-04-19T14:36:22.01Z</time></trkpt><trkpt lat="44.83895898929698" lon="0.6755399747714468"><ele>39.0</ele><time>2026-04-19T14:36:23.01Z</time></trkpt><trkpt lat="44.83903617987384" lon="0.6752729335920259"><ele>39.0</ele><time>2026-04-19T14:36:24.01Z</time></trkpt><trkpt lat="44.83911485814859" lon="0.6749911955770086"><ele>39.0</ele><time>2026-04-19T14:36:25.01Z</time></trkpt><trkpt lat="44.83919848392828" lon="0.6747080015166472"><ele>39.666666666666664</ele><time>2026-04-19T14:36:26.011Z</time></trkpt><trkpt lat="44.83929093084837" lon="0.6744322036356348"><ele>40.33333333333333</ele><time>2026-04-19T14:36:27.011Z</time></trkpt><trkpt lat="44.83938029024911" lon="0.6741471659814049"><ele>41.0</ele><time>2026-04-19T14:36:28.011Z</time></trkpt><trkpt lat="44.8394637737488" lon="0.6738698952912157"><ele>41.33333333333333</ele><time>2026-04-19T14:36:29.011Z</time></trkpt><trkpt lat="44.83954759821534" lon="0.673594594051773"><ele>41.666666666666664</ele><time>2026-04-19T14:36:30.011Z</time></trkpt><trkpt lat="44.839631621344886" lon="0.6733072420935066"><ele>42.0</ele><time>2026-04-19T14:36:31.011Z</time></trkpt><trkpt lat="44.83972347325379" lon="0.673029658358726"><ele>41.666666666666664</ele><time>2026-04-19T14:36:32.011Z</time></trkpt><trkpt lat="44.83980600548162" lon="0.6727480474644146"><ele>41.33333333333333</ele><time>2026-04-19T14:36:33.011Z</time></trkpt><trkpt lat="44.83989206857847" lon="0.6724776982007084"><ele>41.0</ele><time>2026-04-19T14:36:34.011Z</time></trkpt><trkpt lat="44.83997809465287" lon="0.6722041206108272"><ele>40.33333333333333</ele><time>2026-04-19T14:36:35.011Z</time></trkpt><trkpt lat="44.84006338494682" lon="0.6719232954989728"><ele>39.666666666666664</ele><time>2026-04-19T14:36:36.011Z</time></trkpt><trkpt lat="44.84015092556711" lon="0.671642207814264"><ele>39.0</ele><time>2026-04-19T14:36:37.011Z</time></trkpt><trkpt lat="44.84023978909302" lon="0.6713632520922295"><ele>43.5</ele><time>2026-04-19T14:36:38.011Z</time></trkpt><trkpt lat="44.8403338973777" lon="0.6710656373174203"><ele>48.0</ele><time>2026-04-19T14:36:39.011Z</time></trkpt><trkpt lat="44.84043089078881" lon="0.6707757644846606"><ele>48.0</ele><time>2026-04-19T14:36:40.011Z</time></trkpt><trkpt lat="44.840515344390276" lon="0.6704978072728315"><ele>48.0</ele><time>2026-04-19T14:36:41.011Z</time></trkpt><trkpt lat="44.84060155299782" lon="0.6702160798646882"><ele>48.0</ele><time>2026-04-19T14:36:42.011Z</time></trkpt><trkpt lat="44.840692010275795" lon="0.6699267949345261"><ele>47.666666666666664</ele><time>2026-04-19T14:36:43.011Z</time></trkpt><trkpt lat="44.840774108550775" lon="0.669637355968561"><ele>47.33333333333333</ele><time>2026-04-19T14:36:44.011Z</time></trkpt><trkpt lat="44.840856309250526" lon="0.6693403778586974"><ele>47.0</ele><time>2026-04-19T14:36:45.011Z</time></trkpt><trkpt lat="44.840942690350765" lon="0.6690521532961831"><ele>55.0</ele><time>2026-04-19T14:36:46.011Z</time></trkpt><trkpt lat="44.84102898247429" lon="0.6687582934335634"><ele>63.0</ele><time>2026-04-19T14:36:47.011Z</time></trkpt><trkpt lat="44.84111468310761" lon="0.6684869938092147"><ele>71.0</ele><time>2026-04-19T14:36:48.011Z</time></trkpt><trkpt lat="44.84117832969518" lon="0.6681921665658737"><ele>71.0</ele><time>2026-04-19T14:36:49.011Z</time></trkpt><trkpt lat="44.84122212540815" lon="0.6678755622580383"><ele>71.0</ele><time>2026-04-19T14:36:50.011Z</time></trkpt><trkpt lat="44.841261471216455" lon="0.6675648988471947"><ele>69.0</ele><time>2026-04-19T14:36:51.011Z</time></trkpt><trkpt lat="44.84129914783148" lon="0.6672515149692646"><ele>67.0</ele><time>2026-04-19T14:36:52.011Z</time></trkpt><trkpt lat="44.84132870006661" lon="0.6669318900558846"><ele>65.5</ele><time>2026-04-19T14:36:53.011Z</time></trkpt><trkpt lat="44.84136135541902" lon="0.6666060028851912"><ele>64.0</ele><time>2026-04-19T14:36:54.011Z</time></trkpt><trkpt lat="44.84140453289968" lon="0.6662838641561168"><ele>63.5</ele><time>2026-04-19T14:36:55.011Z</time></trkpt><trkpt lat="44.84142573848834" lon="0.6659532604227909"><ele>63.0</ele><time>2026-04-19T14:36:56.011Z</time></trkpt><trkpt lat="44.841449524611456" lon="0.6656320043725665"><ele>63.0</ele><time>2026-04-19T14:36:57.011Z</time></trkpt><trkpt lat="44.84147227572943" lon="0.6653123412816287"><ele>63.0</ele><time>2026-04-19T14:36:58.011Z</time></trkpt><trkpt lat="44.84151289237884" lon="0.6650005170870965"><ele>60.0</ele><time>2026-04-19T14:36:59.011Z</time></trkpt><trkpt lat="44.84153269298029" lon="0.6646721215146171"><ele>57.0</ele><time>2026-04-19T14:37:00.011Z</time></trkpt><trkpt lat="44.84155420880517" lon="0.6643512384869507"><ele>55.0</ele><time>2026-04-19T14:37:01.011Z</time></trkpt><trkpt lat="44.84158087828193" lon="0.6640337526339828"><ele>53.0</ele><time>2026-04-19T14:37:02.011Z</time></trkpt><trkpt lat="44.8416110346375" lon="0.6637120329858919"><ele>54.0</ele><time>2026-04-19T14:37:03.011Z</time></trkpt><trkpt lat="44.84162796280157" lon="0.6633838158452666"><ele>55.0</ele><time>2026-04-19T14:37:04.011Z</time></trkpt><trkpt lat="44.84164560192154" lon="0.6630695333935114"><ele>54.33333333333333</ele><time>2026-04-19T14:37:05.011Z</time></trkpt><trkpt lat="44.841659568983296" lon="0.6627664997562425"><ele>53.66666666666667</ele><time>2026-04-19T14:37:06.011Z</time></trkpt><trkpt lat="44.84167726032469" lon="0.6624693634719844"><ele>53.0</ele><time>2026-04-19T14:37:07.011Z</time></trkpt><trkpt lat="44.84167305876832" lon="0.6621663141732546"><ele>51.333333333333336</ele><time>2026-04-19T14:37:08.011Z</time></trkpt><trkpt lat="44.84167779292258" lon="0.6618891069043505"><ele>49.66666666666667</ele><time>2026-04-19T14:37:09.011Z</time></trkpt><trkpt lat="44.84166627276507" lon="0.6616082386225096"><ele>48.0</ele><time>2026-04-19T14:37:10.011Z</time></trkpt><trkpt lat="44.84167301960948" lon="0.661331791727129"><ele>47.333333333333336</ele><time>2026-04-19T14:37:11.011Z</time></trkpt><trkpt lat="44.84168037927094" lon="0.6610859961386572"><ele>46.66666666666667</ele><time>2026-04-19T14:37:12.011Z</time></trkpt><trkpt lat="44.84168104679356" lon="0.6608275196981992"><ele>46.0</ele><time>2026-04-19T14:37:13.012Z</time></trkpt><trkpt lat="44.8416726493186" lon="0.6605490373961841"><ele>46.0</ele><time>2026-04-19T14:37:14.012Z</time></trkpt><trkpt lat="44.8416780227225" lon="0.6602855920913114"><ele>46.0</ele><time>2026-04-19T14:37:15.012Z</time></trkpt><trkpt lat="44.841677684629204" lon="0.6600119503528367"><ele>46.0</ele><time>2026-04-19T14:37:16.012Z</time></trkpt><trkpt lat="44.841685406444206" lon="0.6597408006297811"><ele>46.66666666666667</ele><time>2026-04-19T14:37:17.012Z</time></trkpt><trkpt lat="44.84169108728206" lon="0.6594827104160037"><ele>47.333333333333336</ele><time>2026-04-19T14:37:18.012Z</time></trkpt><trkpt lat="44.84168610989095" lon="0.6592216489561543"><ele>48.0</ele><time>2026-04-19T14:37:19.012Z</time></trkpt><trkpt lat="44.84168411570167" lon="0.6589783221715138"><ele>48.0</ele><time>2026-04-19T14:37:20.012Z</time></trkpt><trkpt lat="44.841692380876445" lon="0.6587671392987516"><ele>48.0</ele><time>2026-04-19T14:37:21.012Z</time></trkpt><trkpt lat="44.841698911550964" lon="0.6585515802391033"><ele>48.0</ele><time>2026-04-19T14:37:22.012Z</time></trkpt><trkpt lat="44.84169213914312" lon="0.6583385453112357"><ele>47.75</ele><time>2026-04-19T14:37:23.012Z</time></trkpt><trkpt lat="44.841690912546895" lon="0.6581327788885185"><ele>47.5</ele><time>2026-04-19T14:37:24.012Z</time></trkpt><trkpt lat="44.84169307388614" lon="0.6579380241668041"><ele>47.25</ele><time>2026-04-19T14:37:25.012Z</time></trkpt><trkpt lat="44.84169675746968" lon="0.6577489059366534"><ele>47.0</ele><time>2026-04-19T14:37:26.012Z</time></trkpt><trkpt lat="44.841701923907074" lon="0.6575644876024995"><ele>47.0</ele><time>2026-04-19T14:37:27.012Z</time></trkpt><trkpt lat="44.84170784916467" lon="0.6573939143574495"><ele>47.0</ele><time>2026-04-19T14:37:28.012Z</time></trkpt><trkpt lat="44.84171563833173" lon="0.6572219804225693"><ele>47.0</ele><time>2026-04-19T14:37:29.012Z</time></trkpt><trkpt lat="44.841736301116676" lon="0.6570528325426038"><ele>47.0</ele><time>2026-04-19T14:37:30.012Z</time></trkpt><trkpt lat="44.84175380144573" lon="0.6568797923938762"><ele>46.75</ele><time>2026-04-19T14:37:31.012Z</time></trkpt><trkpt lat="44.84177637620413" lon="0.6567111468734658"><ele>46.5</ele><time>2026-04-19T14:37:32.012Z</time></trkpt><trkpt lat="44.84180589529909" lon="0.6565505760132683"><ele>46.25</ele><time>2026-04-19T14:37:33.012Z</time></trkpt><trkpt lat="44.841822264290954" lon="0.6563698808462073"><ele>46.0</ele><time>2026-04-19T14:37:34.012Z</time></trkpt><trkpt lat="44.8418406380321" lon="0.6561990407249856"><ele>52.0</ele><time>2026-04-19T14:37:35.012Z</time></trkpt><trkpt lat="44.841861280165936" lon="0.6560296377985376"><ele>58.0</ele><time>2026-04-19T14:37:36.012Z</time></trkpt><trkpt lat="44.84188060342299" lon="0.6558705385962533"><ele>64.0</ele><time>2026-04-19T14:37:37.01Z</time></trkpt><trkpt lat="44.84189127862523" lon="0.6557106839013838"><ele>70.0</ele><time>2026-04-19T14:37:38.009Z</time></trkpt><trkpt lat="44.8418990223768" lon="0.655552535514736"><ele>70.0</ele><time>2026-04-19T14:37:39.009Z</time></trkpt><trkpt lat="44.841896139931585" lon="0.655388814039382"><ele>70.0</ele><time>2026-04-19T14:37:40.009Z</time></trkpt><trkpt lat="44.841889319491216" lon="0.6552282775382355"><ele>70.0</ele><time>2026-04-19T14:37:41.009Z</time></trkpt><trkpt lat="44.84187844503047" lon="0.655068954843589"><ele>70.0</ele><time>2026-04-19T14:37:42.009Z</time></trkpt><trkpt lat="44.841862009602195" lon="0.654921482159618"><ele>70.0</ele><time>2026-04-19T14:37:43.01Z</time></trkpt><trkpt lat="44.84185650401771" lon="0.6547831293266424"><ele>68.8</ele><time>2026-04-19T14:37:44.009Z</time></trkpt><trkpt lat="44.8418423358275" lon="0.6546491561613363"><ele>67.6</ele><time>2026-04-19T14:37:45.009Z</time></trkpt><trkpt lat="44.84184131552393" lon="0.6545173586970824"><ele>66.4</ele><time>2026-04-19T14:37:46.01Z</time></trkpt><trkpt lat="44.84181725273448" lon="0.6543759145149906"><ele>65.2</ele><time>2026-04-19T14:37:47.01Z</time></trkpt><trkpt lat="44.84181163867487" lon="0.654247749452785"><ele>64.0</ele><time>2026-04-19T14:37:48.01Z</time></trkpt><trkpt lat="44.84179975631607" lon="0.6541163184853531"><ele>62.400000000000006</ele><time>2026-04-19T14:37:49.009Z</time></trkpt><trkpt lat="44.84180438398875" lon="0.6539703636619235"><ele>60.800000000000004</ele><time>2026-04-19T14:37:50.009Z</time></trkpt><trkpt lat="44.8418258428072" lon="0.6538343314640915"><ele>59.199999999999996</ele><time>2026-04-19T14:37:51.009Z</time></trkpt><trkpt lat="44.84184038498692" lon="0.6536904156201953"><ele>57.599999999999994</ele><time>2026-04-19T14:37:52.009Z</time></trkpt><trkpt lat="44.84186597187264" lon="0.6535436963487586"><ele>56.0</ele><time>2026-04-19T14:37:53.009Z</time></trkpt><trkpt lat="44.84188677712314" lon="0.6534088554761509"><ele>54.599999999999994</ele><time>2026-04-19T14:37:54.009Z</time></trkpt><trkpt lat="44.84190519978962" lon="0.6532792621970482"><ele>53.199999999999996</ele><time>2026-04-19T14:37:55.009Z</time></trkpt><trkpt lat="44.84193646139195" lon="0.6531499820218188"><ele>51.8</ele><time>2026-04-19T14:37:56.009Z</time></trkpt><trkpt lat="44.84195253935511" lon="0.6530212621114276"><ele>50.400000000000006</ele><time>2026-04-19T14:37:57.009Z</time></trkpt><trkpt lat="44.84196110934517" lon="0.6528860003110948"><ele>49.0</ele><time>2026-04-19T14:37:58.009Z</time></trkpt><trkpt lat="44.841973890873746" lon="0.6527432584958781"><ele>48.400000000000006</ele><time>2026-04-19T14:37:59.009Z</time></trkpt><trkpt lat="44.84199412905451" lon="0.652601048828549"><ele>47.8</ele><time>2026-04-19T14:38:00.009Z</time></trkpt><trkpt lat="44.84203225698807" lon="0.652461692432679"><ele>47.2</ele><time>2026-04-19T14:38:01.009Z</time></trkpt><trkpt lat="44.84205991423803" lon="0.6523115533773898"><ele>46.599999999999994</ele><time>2026-04-19T14:38:02.009Z</time></trkpt><trkpt lat="44.84208820986453" lon="0.65216049514062"><ele>46.0</ele><time>2026-04-19T14:38:03.009Z</time></trkpt><trkpt lat="44.842114199630586" lon="0.6520042466484712"><ele>45.4</ele><time>2026-04-19T14:38:04.009Z</time></trkpt><trkpt lat="44.84214234418459" lon="0.6518544267257178"><ele>44.8</ele><time>2026-04-19T14:38:05.009Z</time></trkpt><trkpt lat="44.84217407607006" lon="0.651717484205355"><ele>44.199999999999996</ele><time>2026-04-19T14:38:06.009Z</time></trkpt><trkpt lat="44.84220324685833" lon="0.6515755343308051"><ele>43.599999999999994</ele><time>2026-04-19T14:38:07.009Z</time></trkpt><trkpt lat="44.842237953108025" lon="0.6514404575046627"><ele>43.0</ele><time>2026-04-19T14:38:08.009Z</time></trkpt><trkpt lat="44.84226984739343" lon="0.6513013986070452"><ele>43.0</ele><time>2026-04-19T14:38:09.009Z</time></trkpt><trkpt lat="44.8423006653331" lon="0.6511663633784119"><ele>43.0</ele><time>2026-04-19T14:38:10.009Z</time></trkpt><trkpt lat="44.84234007837808" lon="0.6510414612565337"><ele>43.0</ele><time>2026-04-19T14:38:11.009Z</time></trkpt><trkpt lat="44.84237770749341" lon="0.6509034067372199"><ele>43.0</ele><time>2026-04-19T14:38:12.009Z</time></trkpt><trkpt lat="44.842414016463096" lon="0.650768208669999"><ele>43.0</ele><time>2026-04-19T14:38:13.009Z</time></trkpt><trkpt lat="44.84245563917056" lon="0.6506345582802292"><ele>43.0</ele><time>2026-04-19T14:38:14.009Z</time></trkpt><trkpt lat="44.8425034437341" lon="0.6505019877103582"><ele>43.0</ele><time>2026-04-19T14:38:15.009Z</time></trkpt><trkpt lat="44.842559488565236" lon="0.6503646460688711"><ele>43.0</ele><time>2026-04-19T14:38:16.009Z</time></trkpt><trkpt lat="44.842628819921025" lon="0.6502232491349723"><ele>43.0</ele><time>2026-04-19T14:38:17.009Z</time></trkpt><trkpt lat="44.84269010742951" lon="0.6500782546765873"><ele>44.75</ele><time>2026-04-19T14:38:18.009Z</time></trkpt><trkpt lat="44.84275223357703" lon="0.649927830606301"><ele>46.5</ele><time>2026-04-19T14:38:19.01Z</time></trkpt><trkpt lat="44.84280803671269" lon="0.6497749222677138"><ele>48.25</ele><time>2026-04-19T14:38:20.01Z</time></trkpt><trkpt lat="44.842867398918656" lon="0.6496232958895473"><ele>50.0</ele><time>2026-04-19T14:38:21.01Z</time></trkpt><trkpt lat="44.84292758192123" lon="0.6494666357414265"><ele>48.0</ele><time>2026-04-19T14:38:22.01Z</time></trkpt><trkpt lat="44.84298708775021" lon="0.6492973950265954"><ele>46.0</ele><time>2026-04-19T14:38:23.01Z</time></trkpt><trkpt lat="44.84304873011895" lon="0.649120566240897"><ele>44.0</ele><time>2026-04-19T14:38:24.01Z</time></trkpt><trkpt lat="44.843113616986976" lon="0.6489312538590456"><ele>42.0</ele><time>2026-04-19T14:38:25.01Z</time></trkpt><trkpt lat="44.84318038200626" lon="0.6487340131212054"><ele>42.0</ele><time>2026-04-19T14:38:26.01Z</time></trkpt><trkpt lat="44.84325047163257" lon="0.6485395882039989"><ele>42.0</ele><time>2026-04-19T14:38:27.01Z</time></trkpt><trkpt lat="44.84331763717014" lon="0.6483540429379682"><ele>42.0</ele><time>2026-04-19T14:38:28.01Z</time></trkpt><trkpt lat="44.84338083661496" lon="0.6481751535695117"><ele>42.0</ele><time>2026-04-19T14:38:29.01Z</time></trkpt><trkpt lat="44.843437752419625" lon="0.6479907763212238"><ele>42.25</ele><time>2026-04-19T14:38:30.01Z</time></trkpt><trkpt lat="44.843495305792196" lon="0.6478021400124987"><ele>42.5</ele><time>2026-04-19T14:38:31.01Z</time></trkpt><trkpt lat="44.84354477505827" lon="0.6476216675697651"><ele>42.75</ele><time>2026-04-19T14:38:32.01Z</time></trkpt><trkpt lat="44.84359995858701" lon="0.6474330749394023"><ele>43.0</ele><time>2026-04-19T14:38:33.01Z</time></trkpt><trkpt lat="44.84365894706614" lon="0.6472366091815254"><ele>43.0</ele><time>2026-04-19T14:38:34.01Z</time></trkpt><trkpt lat="44.8437073743152" lon="0.6470149386722999"><ele>43.0</ele><time>2026-04-19T14:38:35.01Z</time></trkpt><trkpt lat="44.84379137942186" lon="0.6468017023071615"><ele>43.0</ele><time>2026-04-19T14:38:36.01Z</time></trkpt><trkpt lat="44.843842973866465" lon="0.6465789866339163"><ele>42.333333333333336</ele><time>2026-04-19T14:38:37.01Z</time></trkpt><trkpt lat="44.84389936411217" lon="0.6463501942449204"><ele>41.666666666666664</ele><time>2026-04-19T14:38:38.01Z</time></trkpt><trkpt lat="44.84395646743533" lon="0.6461210051266185"><ele>41.0</ele><time>2026-04-19T14:38:39.01Z</time></trkpt><trkpt lat="44.84401795190444" lon="0.6458843795292453"><ele>41.0</ele><time>2026-04-19T14:38:40.01Z</time></trkpt><trkpt lat="44.84408797143642" lon="0.6456339411154849"><ele>41.0</ele><time>2026-04-19T14:38:41.01Z</time></trkpt><trkpt lat="44.844147488093725" lon="0.6453513057740834"><ele>41.0</ele><time>2026-04-19T14:38:42.01Z</time></trkpt><trkpt lat="44.84420945163892" lon="0.6450460555106191"><ele>41.5</ele><time>2026-04-19T14:38:43.01Z</time></trkpt><trkpt lat="44.84428286834096" lon="0.644734742467298"><ele>42.0</ele><time>2026-04-19T14:38:44.01Z</time></trkpt><trkpt lat="44.844364897726656" lon="0.6444018837073558"><ele>42.0</ele><time>2026-04-19T14:38:45.01Z</time></trkpt><trkpt lat="44.84445550154583" lon="0.6440678404832846"><ele>42.0</ele><time>2026-04-19T14:38:46.01Z</time></trkpt><trkpt lat="44.844556477154526" lon="0.6437239043277374"><ele>41.0</ele><time>2026-04-19T14:38:47.01Z</time></trkpt><trkpt lat="44.844648178885045" lon="0.6433764602454419"><ele>40.0</ele><time>2026-04-19T14:38:48.01Z</time></trkpt><trkpt lat="44.84474329998484" lon="0.6430349589615327"><ele>40.5</ele><time>2026-04-19T14:38:49.01Z</time></trkpt><trkpt lat="44.84482563388099" lon="0.6427088296007264"><ele>41.0</ele><time>2026-04-19T14:38:50.01Z</time></trkpt><trkpt lat="44.844901641671086" lon="0.6423923972374456"><ele>41.0</ele><time>2026-04-19T14:38:51.01Z</time></trkpt><trkpt lat="44.84497556289327" lon="0.642082437377648"><ele>41.0</ele><time>2026-04-19T14:38:52.01Z</time></trkpt><trkpt lat="44.845047581482355" lon="0.6417845466065393"><ele>40.33333333333333</ele><time>2026-04-19T14:38:53.01Z</time></trkpt><trkpt lat="44.84512014066224" lon="0.6414865006388785"><ele>39.666666666666664</ele><time>2026-04-19T14:38:54.01Z</time></trkpt><trkpt lat="44.84520426715848" lon="0.6411965402396566"><ele>39.0</ele><time>2026-04-19T14:38:55.01Z</time></trkpt><trkpt lat="44.845290062645695" lon="0.6409135067896123"><ele>39.0</ele><time>2026-04-19T14:38:56.01Z</time></trkpt><trkpt lat="44.845372491365474" lon="0.6406148052173364"><ele>39.0</ele><time>2026-04-19T14:38:57.01Z</time></trkpt><trkpt lat="44.845440819487514" lon="0.6403129368892527"><ele>39.0</ele><time>2026-04-19T14:38:58.01Z</time></trkpt><trkpt lat="44.84551225202315" lon="0.6400157561775948"><ele>39.0</ele><time>2026-04-19T14:38:59.01Z</time></trkpt><trkpt lat="44.84558389743664" lon="0.6397267409783923"><ele>39.0</ele><time>2026-04-19T14:39:00.01Z</time></trkpt><trkpt lat="44.84565803405572" lon="0.6394381302735713"><ele>39.0</ele><time>2026-04-19T14:39:01.01Z</time></trkpt><trkpt lat="44.84573467233934" lon="0.6391441284799991"><ele>39.0</ele><time>2026-04-19T14:39:02.01Z</time></trkpt><trkpt lat="44.8458068706942" lon="0.6388568467103352"><ele>39.0</ele><time>2026-04-19T14:39:03.01Z</time></trkpt><trkpt lat="44.84587864319349" lon="0.6385723867788148"><ele>39.333333333333336</ele><time>2026-04-19T14:39:04.01Z</time></trkpt><trkpt lat="44.84595045411298" lon="0.6382797479006507"><ele>39.66666666666667</ele><time>2026-04-19T14:39:05.011Z</time></trkpt><trkpt lat="44.84602530806345" lon="0.6379865750821313"><ele>40.0</ele><time>2026-04-19T14:39:06.012Z</time></trkpt><trkpt lat="44.84609674862376" lon="0.6376952138325415"><ele>40.0</ele><time>2026-04-19T14:39:07.012Z</time></trkpt><trkpt lat="44.846168330911766" lon="0.6374138499406297"><ele>40.0</ele><time>2026-04-19T14:39:08.012Z</time></trkpt><trkpt lat="44.84624571140075" lon="0.6371278916706755"><ele>40.0</ele><time>2026-04-19T14:39:09.012Z</time></trkpt><trkpt lat="44.84631521188464" lon="0.6368397518236154"><ele>40.333333333333336</ele><time>2026-04-19T14:39:10.012Z</time></trkpt><trkpt lat="44.8464132749516" lon="0.6365568767435481"><ele>40.666666666666664</ele><time>2026-04-19T14:39:11.012Z</time></trkpt><trkpt lat="44.846491218200356" lon="0.6362750060524646"><ele>41.0</ele><time>2026-04-19T14:39:12.012Z</time></trkpt><trkpt lat="44.846563251996756" lon="0.6359978483463117"><ele>41.0</ele><time>2026-04-19T14:39:13.012Z</time></trkpt><trkpt lat="44.84662939027674" lon="0.6357296313785232"><ele>41.0</ele><time>2026-04-19T14:39:14.012Z</time></trkpt><trkpt lat="44.846693767046204" lon="0.6354463242378711"><ele>41.0</ele><time>2026-04-19T14:39:15.012Z</time></trkpt><trkpt lat="44.84676296870746" lon="0.6351844321464025"><ele>41.33333333333333</ele><time>2026-04-19T14:39:16.012Z</time></trkpt><trkpt lat="44.846834383868966" lon="0.6349167174578845"><ele>41.666666666666664</ele><time>2026-04-19T14:39:17.012Z</time></trkpt><trkpt lat="44.846899588136424" lon="0.63466145476974"><ele>42.0</ele><time>2026-04-19T14:39:18.012Z</time></trkpt><trkpt lat="44.84696045763421" lon="0.6344251506424317"><ele>42.0</ele><time>2026-04-19T14:39:19.012Z</time></trkpt><trkpt lat="44.84702379752246" lon="0.6341962583773226"><ele>42.0</ele><time>2026-04-19T14:39:20.012Z</time></trkpt><trkpt lat="44.8470725008066" lon="0.6339742167187228"><ele>42.0</ele><time>2026-04-19T14:39:21.012Z</time></trkpt><trkpt lat="44.847124238386996" lon="0.6337640479754727"><ele>41.75</ele><time>2026-04-19T14:39:22.012Z</time></trkpt><trkpt lat="44.847179435218415" lon="0.6335577775373037"><ele>41.5</ele><time>2026-04-19T14:39:23.012Z</time></trkpt><trkpt lat="44.84723456433891" lon="0.6333629240404918"><ele>41.25</ele><time>2026-04-19T14:39:24.012Z</time></trkpt><trkpt lat="44.84727896668638" lon="0.6331715637100773"><ele>41.0</ele><time>2026-04-19T14:39:25.012Z</time></trkpt><trkpt lat="44.84732866314005" lon="0.6329820268148316"><ele>41.0</ele><time>2026-04-19T14:39:26.012Z</time></trkpt><trkpt lat="44.847374999781636" lon="0.6327964795605356"><ele>41.0</ele><time>2026-04-19T14:39:27.012Z</time></trkpt><trkpt lat="44.847422048537375" lon="0.6326018212547507"><ele>41.0</ele><time>2026-04-19T14:39:28.012Z</time></trkpt><trkpt lat="44.84746555008969" lon="0.6324248852832708"><ele>41.0</ele><time>2026-04-19T14:39:29.012Z</time></trkpt><trkpt lat="44.84750975914851" lon="0.6322316300088012"><ele>41.0</ele><time>2026-04-19T14:39:30.012Z</time></trkpt><trkpt lat="44.847560217463396" lon="0.6320450619638024"><ele>41.0</ele><time>2026-04-19T14:39:31.012Z</time></trkpt><trkpt lat="44.847605971148944" lon="0.6318484505474323"><ele>41.0</ele><time>2026-04-19T14:39:32.012Z</time></trkpt><trkpt lat="44.847646168089554" lon="0.6316573450537721"><ele>41.0</ele><time>2026-04-19T14:39:33.012Z</time></trkpt><trkpt lat="44.8476924645075" lon="0.6314628936396879"><ele>41.25</ele><time>2026-04-19T14:39:34.012Z</time></trkpt><trkpt lat="44.84774142072751" lon="0.6312762462374324"><ele>41.5</ele><time>2026-04-19T14:39:35.012Z</time></trkpt><trkpt lat="44.84779071684926" lon="0.6310860161983248"><ele>41.75</ele><time>2026-04-19T14:39:36.012Z</time></trkpt><trkpt lat="44.847840388644606" lon="0.6308860697337099"><ele>42.0</ele><time>2026-04-19T14:39:37.012Z</time></trkpt><trkpt lat="44.84789426033867" lon="0.630686063418094"><ele>42.0</ele><time>2026-04-19T14:39:38.012Z</time></trkpt><trkpt lat="44.84794777211284" lon="0.6304847463936935"><ele>42.0</ele><time>2026-04-19T14:39:39.012Z</time></trkpt><trkpt lat="44.847999965641236" lon="0.6302818910081158"><ele>42.0</ele><time>2026-04-19T14:39:40.012Z</time></trkpt><trkpt lat="44.848051274957605" lon="0.6300918339313347"><ele>41.5</ele><time>2026-04-19T14:39:41.012Z</time></trkpt><trkpt lat="44.84809733599725" lon="0.6299086888409986"><ele>41.0</ele><time>2026-04-19T14:39:42.012Z</time></trkpt><trkpt lat="44.84814536483323" lon="0.6297210016180974"><ele>40.5</ele><time>2026-04-19T14:39:43.009Z</time></trkpt><trkpt lat="44.84819345815852" lon="0.6295315272856589"><ele>40.0</ele><time>2026-04-19T14:39:44.009Z</time></trkpt><trkpt lat="44.84823557672286" lon="0.6293393199986335"><ele>39.75</ele><time>2026-04-19T14:39:45.009Z</time></trkpt><trkpt lat="44.848275041568755" lon="0.6291513721998264"><ele>39.5</ele><time>2026-04-19T14:39:46.01Z</time></trkpt><trkpt lat="44.84832225659842" lon="0.628965562705438"><ele>39.25</ele><time>2026-04-19T14:39:47.009Z</time></trkpt><trkpt lat="44.84837860937547" lon="0.6287860810712039"><ele>39.0</ele><time>2026-04-19T14:39:48.009Z</time></trkpt><trkpt lat="44.848439572320416" lon="0.6286027134443658"><ele>39.25</ele><time>2026-04-19T14:39:49.01Z</time></trkpt><trkpt lat="44.84849089270106" lon="0.6284056373698229"><ele>39.5</ele><time>2026-04-19T14:39:50.009Z</time></trkpt><trkpt lat="44.8485401988193" lon="0.6282045350980886"><ele>39.75</ele><time>2026-04-19T14:39:51.009Z</time></trkpt><trkpt lat="44.84858319401027" lon="0.628006707093919"><ele>40.0</ele><time>2026-04-19T14:39:52.01Z</time></trkpt><trkpt lat="44.84862943933549" lon="0.6277891380418533"><ele>40.25</ele><time>2026-04-19T14:39:53.009Z</time></trkpt><trkpt lat="44.848675637211315" lon="0.6275877818540654"><ele>40.5</ele><time>2026-04-19T14:39:54.009Z</time></trkpt><trkpt lat="44.848727988956725" lon="0.6273947235690228"><ele>40.75</ele><time>2026-04-19T14:39:55.009Z</time></trkpt><trkpt lat="44.84877562986985" lon="0.6272037241885817"><ele>41.0</ele><time>2026-04-19T14:39:56.009Z</time></trkpt><trkpt lat="44.84882418383991" lon="0.62701173747667"><ele>40.75</ele><time>2026-04-19T14:39:57.009Z</time></trkpt><trkpt lat="44.84886896942942" lon="0.6268220479627411"><ele>40.5</ele><time>2026-04-19T14:39:58.009Z</time></trkpt><trkpt lat="44.84893115052659" lon="0.6266260293971476"><ele>40.25</ele><time>2026-04-19T14:39:59.009Z</time></trkpt><trkpt lat="44.848993533389795" lon="0.6264252479030544"><ele>40.0</ele><time>2026-04-19T14:40:00.009Z</time></trkpt><trkpt lat="44.8490453774928" lon="0.6262243747481038"><ele>40.0</ele><time>2026-04-19T14:40:01.009Z</time></trkpt><trkpt lat="44.84909103661268" lon="0.6260179135207704"><ele>40.0</ele><time>2026-04-19T14:40:02.009Z</time></trkpt><trkpt lat="44.84913251710141" lon="0.6258055511390382"><ele>40.0</ele><time>2026-04-19T14:40:03.009Z</time></trkpt><trkpt lat="44.8491860808205" lon="0.6256001687959162"><ele>40.0</ele><time>2026-04-19T14:40:04.009Z</time></trkpt><trkpt lat="44.84925124985127" lon="0.6253929858512615"><ele>40.0</ele><time>2026-04-19T14:40:05.009Z</time></trkpt><trkpt lat="44.849322065821916" lon="0.6251839713567492"><ele>40.0</ele><time>2026-04-19T14:40:06.009Z</time></trkpt><trkpt lat="44.84937319928559" lon="0.6249623810493502"><ele>41.0</ele><time>2026-04-19T14:40:07.009Z</time></trkpt><trkpt lat="44.849423293436544" lon="0.6247249657593249"><ele>42.0</ele><time>2026-04-19T14:40:08.009Z</time></trkpt><trkpt lat="44.84947877112462" lon="0.6244830540294836"><ele>43.0</ele><time>2026-04-19T14:40:09.009Z</time></trkpt><trkpt lat="44.84954959878573" lon="0.6242271415022902"><ele>43.0</ele><time>2026-04-19T14:40:10.009Z</time></trkpt><trkpt lat="44.84961771913966" lon="0.6239686424898935"><ele>43.0</ele><time>2026-04-19T14:40:11.009Z</time></trkpt><trkpt lat="44.849689605604304" lon="0.6236969598971374"><ele>43.0</ele><time>2026-04-19T14:40:12.009Z</time></trkpt><trkpt lat="44.84976931398264" lon="0.6234112378316645"><ele>43.0</ele><time>2026-04-19T14:40:13.009Z</time></trkpt><trkpt lat="44.84984354700355" lon="0.6231128787118645"><ele>43.0</ele><time>2026-04-19T14:40:14.009Z</time></trkpt><trkpt lat="44.8499231609612" lon="0.6228077087078151"><ele>42.0</ele><time>2026-04-19T14:40:15.009Z</time></trkpt><trkpt lat="44.850006239276716" lon="0.6224942248267898"><ele>41.0</ele><time>2026-04-19T14:40:16.009Z</time></trkpt><trkpt lat="44.850083697536235" lon="0.62218700725902"><ele>43.0</ele><time>2026-04-19T14:40:17.009Z</time></trkpt><trkpt lat="44.85015982139466" lon="0.6218870080530428"><ele>45.0</ele><time>2026-04-19T14:40:18.009Z</time></trkpt><trkpt lat="44.85023696264946" lon="0.6216016239098584"><ele>47.0</ele><time>2026-04-19T14:40:19.009Z</time></trkpt><trkpt lat="44.85030811648087" lon="0.6213085309210666"><ele>47.0</ele><time>2026-04-19T14:40:20.009Z</time></trkpt><trkpt lat="44.850381526505906" lon="0.621019625763318"><ele>47.0</ele><time>2026-04-19T14:40:21.009Z</time></trkpt><trkpt lat="44.8504511271347" lon="0.6207287127715189"><ele>47.0</ele><time>2026-04-19T14:40:22.009Z</time></trkpt><trkpt lat="44.85053079631509" lon="0.6204199952726401"><ele>45.0</ele><time>2026-04-19T14:40:23.01Z</time></trkpt><trkpt lat="44.850611672561676" lon="0.6201108822171908"><ele>43.0</ele><time>2026-04-19T14:40:24.01Z</time></trkpt><trkpt lat="44.85069180546751" lon="0.6198112029499493"><ele>43.0</ele><time>2026-04-19T14:40:25.01Z</time></trkpt><trkpt lat="44.850763509174506" lon="0.6195084917973348"><ele>43.0</ele><time>2026-04-19T14:40:26.01Z</time></trkpt><trkpt lat="44.850843497772985" lon="0.619201277411072"><ele>41.5</ele><time>2026-04-19T14:40:27.01Z</time></trkpt><trkpt lat="44.85092473785368" lon="0.6188921465432089"><ele>40.0</ele><time>2026-04-19T14:40:28.01Z</time></trkpt><trkpt lat="44.85100124424136" lon="0.6185810361283658"><ele>43.5</ele><time>2026-04-19T14:40:29.01Z</time></trkpt><trkpt lat="44.85107835702305" lon="0.6182719516408259"><ele>47.0</ele><time>2026-04-19T14:40:30.01Z</time></trkpt><trkpt lat="44.851157530818575" lon="0.6179600812823162"><ele>45.5</ele><time>2026-04-19T14:40:31.01Z</time></trkpt><trkpt lat="44.85124059796362" lon="0.6176512749299113"><ele>44.0</ele><time>2026-04-19T14:40:32.01Z</time></trkpt><trkpt lat="44.85131910674902" lon="0.6173419712108268"><ele>44.0</ele><time>2026-04-19T14:40:33.01Z</time></trkpt><trkpt lat="44.85140049292456" lon="0.617032927901951"><ele>44.0</ele><time>2026-04-19T14:40:34.01Z</time></trkpt><trkpt lat="44.85148058426354" lon="0.6167320604578275"><ele>42.666666666666664</ele><time>2026-04-19T14:40:35.01Z</time></trkpt><trkpt lat="44.85155472552122" lon="0.6164503099423289"><ele>41.333333333333336</ele><time>2026-04-19T14:40:36.01Z</time></trkpt><trkpt lat="44.851622074815815" lon="0.6161886892939431"><ele>40.0</ele><time>2026-04-19T14:40:37.01Z</time></trkpt><trkpt lat="44.851683509937594" lon="0.6159486105801949"><ele>40.0</ele><time>2026-04-19T14:40:38.01Z</time></trkpt><trkpt lat="44.85173900897627" lon="0.6157180957986688"><ele>40.0</ele><time>2026-04-19T14:40:39.01Z</time></trkpt><trkpt lat="44.85178764513056" lon="0.6155022197412684"><ele>40.0</ele><time>2026-04-19T14:40:40.01Z</time></trkpt><trkpt lat="44.851815181498" lon="0.6152995818616438"><ele>40.0</ele><time>2026-04-19T14:40:41.01Z</time></trkpt><trkpt lat="44.85184576886594" lon="0.6150922628189042"><ele>40.0</ele><time>2026-04-19T14:40:42.01Z</time></trkpt><trkpt lat="44.85187762911018" lon="0.6148756924778693"><ele>40.0</ele><time>2026-04-19T14:40:43.01Z</time></trkpt><trkpt lat="44.851927288969605" lon="0.6146782154785865"><ele>40.333333333333336</ele><time>2026-04-19T14:40:44.01Z</time></trkpt><trkpt lat="44.85198213062102" lon="0.614477153007503"><ele>40.666666666666664</ele><time>2026-04-19T14:40:45.01Z</time></trkpt><trkpt lat="44.85201644102884" lon="0.6142547239374743"><ele>41.0</ele><time>2026-04-19T14:40:46.01Z</time></trkpt><trkpt lat="44.852063886346166" lon="0.614026558551389"><ele>41.0</ele><time>2026-04-19T14:40:47.01Z</time></trkpt><trkpt lat="44.85213434341026" lon="0.6138027392068267"><ele>41.0</ele><time>2026-04-19T14:40:48.01Z</time></trkpt><trkpt lat="44.85219431338314" lon="0.6135390294890939"><ele>41.0</ele><time>2026-04-19T14:40:49.01Z</time></trkpt><trkpt lat="44.852237914600536" lon="0.6132411718097966"><ele>41.0</ele><time>2026-04-19T14:40:50.01Z</time></trkpt><trkpt lat="44.852283529936436" lon="0.6129476905838066"><ele>41.0</ele><time>2026-04-19T14:40:51.01Z</time></trkpt><trkpt lat="44.8523244558448" lon="0.6126567659636403"><ele>41.0</ele><time>2026-04-19T14:40:52.01Z</time></trkpt><trkpt lat="44.85237468340923" lon="0.6123746283768281"><ele>41.33333333333333</ele><time>2026-04-19T14:40:53.01Z</time></trkpt><trkpt lat="44.85241303567553" lon="0.6121000777197503"><ele>41.666666666666664</ele><time>2026-04-19T14:40:54.01Z</time></trkpt><trkpt lat="44.85245552021099" lon="0.6118403998189023"><ele>42.0</ele><time>2026-04-19T14:40:55.01Z</time></trkpt><trkpt lat="44.85250036072863" lon="0.6115837129201999"><ele>41.333333333333336</ele><time>2026-04-19T14:40:56.01Z</time></trkpt><trkpt lat="44.85254314918737" lon="0.6113296487624182"><ele>40.66666666666667</ele><time>2026-04-19T14:40:57.01Z</time></trkpt><trkpt lat="44.852579557634506" lon="0.6110833250805411"><ele>40.0</ele><time>2026-04-19T14:40:58.01Z</time></trkpt><trkpt lat="44.85262070761416" lon="0.6108421743495922"><ele>40.333333333333336</ele><time>2026-04-19T14:40:59.01Z</time></trkpt><trkpt lat="44.85264999556675" lon="0.6105979289019073"><ele>40.666666666666664</ele><time>2026-04-19T14:41:00.01Z</time></trkpt><trkpt lat="44.85268328771455" lon="0.6103681140719505"><ele>41.0</ele><time>2026-04-19T14:41:01.01Z</time></trkpt><trkpt lat="44.85272471322978" lon="0.6101359711119614"><ele>41.33333333333333</ele><time>2026-04-19T14:41:02.01Z</time></trkpt><trkpt lat="44.85276001318417" lon="0.6098977633993049"><ele>41.666666666666664</ele><time>2026-04-19T14:41:03.01Z</time></trkpt><trkpt lat="44.85279846809523" lon="0.6096601251472675"><ele>42.0</ele><time>2026-04-19T14:41:04.01Z</time></trkpt><trkpt lat="44.85283760228952" lon="0.6094219831045768"><ele>41.333333333333336</ele><time>2026-04-19T14:41:05.01Z</time></trkpt><trkpt lat="44.85287620274263" lon="0.6091857259543648"><ele>40.66666666666667</ele><time>2026-04-19T14:41:06.01Z</time></trkpt><trkpt lat="44.85291692835534" lon="0.6089484249863137"><ele>40.0</ele><time>2026-04-19T14:41:07.01Z</time></trkpt><trkpt lat="44.85295519880114" lon="0.6087162577301741"><ele>39.66666666666667</ele><time>2026-04-19T14:41:08.01Z</time></trkpt><trkpt lat="44.85298555737654" lon="0.6084776774255868"><ele>39.333333333333336</ele><time>2026-04-19T14:41:09.01Z</time></trkpt><trkpt lat="44.853027069114795" lon="0.608241179709322"><ele>39.0</ele><time>2026-04-19T14:41:10.01Z</time></trkpt><trkpt lat="44.85307249243971" lon="0.6080032570954119"><ele>39.0</ele><time>2026-04-19T14:41:11.01Z</time></trkpt><trkpt lat="44.8531120686543" lon="0.60776990051241"><ele>39.0</ele><time>2026-04-19T14:41:12.01Z</time></trkpt><trkpt lat="44.853136857177816" lon="0.6075438405544475"><ele>39.0</ele><time>2026-04-19T14:41:13.01Z</time></trkpt><trkpt lat="44.85316845870681" lon="0.607313578323903"><ele>39.0</ele><time>2026-04-19T14:41:14.011Z</time></trkpt><trkpt lat="44.85320675391707" lon="0.6070860574493431"><ele>39.0</ele><time>2026-04-19T14:41:15.011Z</time></trkpt><trkpt lat="44.85324578065429" lon="0.6068639374173446"><ele>39.0</ele><time>2026-04-19T14:41:16.011Z</time></trkpt><trkpt lat="44.85327516996857" lon="0.6066440964015072"><ele>38.666666666666664</ele><time>2026-04-19T14:41:17.011Z</time></trkpt><trkpt lat="44.85330822360084" lon="0.6064230087359149"><ele>38.33333333333333</ele><time>2026-04-19T14:41:18.011Z</time></trkpt><trkpt lat="44.85333870474126" lon="0.6062085763846129"><ele>38.0</ele><time>2026-04-19T14:41:19.011Z</time></trkpt><trkpt lat="44.85338901376644" lon="0.6059939653745656"><ele>38.0</ele><time>2026-04-19T14:41:20.011Z</time></trkpt><trkpt lat="44.853408824186644" lon="0.6057649631593731"><ele>38.0</ele><time>2026-04-19T14:41:21.011Z</time></trkpt><trkpt lat="44.853442189110034" lon="0.605546893770256"><ele>38.0</ele><time>2026-04-19T14:41:22.011Z</time></trkpt><trkpt lat="44.853490970615475" lon="0.6053330826244392"><ele>42.33333333333333</ele><time>2026-04-19T14:41:23.011Z</time></trkpt><trkpt lat="44.85352290672807" lon="0.6051096485843336"><ele>46.666666666666664</ele><time>2026-04-19T14:41:24.011Z</time></trkpt><trkpt lat="44.8535576152936" lon="0.6048876350645008"><ele>51.0</ele><time>2026-04-19T14:41:25.011Z</time></trkpt><trkpt lat="44.853593534274125" lon="0.6046592217748292"><ele>49.333333333333336</ele><time>2026-04-19T14:41:26.011Z</time></trkpt><trkpt lat="44.85362581973512" lon="0.6044343897615992"><ele>47.66666666666667</ele><time>2026-04-19T14:41:27.011Z</time></trkpt><trkpt lat="44.8536568654649" lon="0.604206916021544"><ele>46.0</ele><time>2026-04-19T14:41:28.011Z</time></trkpt><trkpt lat="44.85370126713215" lon="0.6039766601169644"><ele>46.0</ele><time>2026-04-19T14:41:29.011Z</time></trkpt><trkpt lat="44.853736896135544" lon="0.6037483444111621"><ele>46.0</ele><time>2026-04-19T14:41:30.011Z</time></trkpt><trkpt lat="44.853778145761225" lon="0.6035209776227557"><ele>46.0</ele><time>2026-04-19T14:41:31.011Z</time></trkpt><trkpt lat="44.85382050002951" lon="0.6032922608130611"><ele>44.66666666666667</ele><time>2026-04-19T14:41:32.011Z</time></trkpt><trkpt lat="44.853865109069446" lon="0.603062724987711"><ele>43.333333333333336</ele><time>2026-04-19T14:41:33.011Z</time></trkpt><trkpt lat="44.85390427257387" lon="0.602834052912234"><ele>42.0</ele><time>2026-04-19T14:41:34.011Z</time></trkpt><trkpt lat="44.85395420017973" lon="0.6026121571200598"><ele>41.666666666666664</ele><time>2026-04-19T14:41:35.011Z</time></trkpt><trkpt lat="44.854001977629494" lon="0.6023943130404987"><ele>41.33333333333333</ele><time>2026-04-19T14:41:36.011Z</time></trkpt><trkpt lat="44.85406123942647" lon="0.6021710677230179"><ele>41.0</ele><time>2026-04-19T14:41:37.011Z</time></trkpt><trkpt lat="44.854109001193" lon="0.6019586391666473"><ele>40.0</ele><time>2026-04-19T14:41:38.011Z</time></trkpt><trkpt lat="44.854157799339795" lon="0.6017466839019269"><ele>39.0</ele><time>2026-04-19T14:41:39.011Z</time></trkpt><trkpt lat="44.85419444762556" lon="0.6015202543905012"><ele>38.0</ele><time>2026-04-19T14:41:40.011Z</time></trkpt><trkpt lat="44.8542321782242" lon="0.6012913051245425"><ele>37.0</ele><time>2026-04-19T14:41:41.011Z</time></trkpt><trkpt lat="44.854267706830434" lon="0.6010601640781765"><ele>36.0</ele><time>2026-04-19T14:41:42.011Z</time></trkpt><trkpt lat="44.85428587377846" lon="0.6008298417239126"><ele>35.0</ele><time>2026-04-19T14:41:43.011Z</time></trkpt><trkpt lat="44.854322058018994" lon="0.6006021862943915"><ele>41.666666666666664</ele><time>2026-04-19T14:41:44.011Z</time></trkpt><trkpt lat="44.85435126042488" lon="0.600376513846997"><ele>48.33333333333333</ele><time>2026-04-19T14:41:45.011Z</time></trkpt><trkpt lat="44.85437085706095" lon="0.6001564603440274"><ele>55.0</ele><time>2026-04-19T14:41:46.011Z</time></trkpt><trkpt lat="44.8543944370929" lon="0.5999409920397507"><ele>55.0</ele><time>2026-04-19T14:41:47.011Z</time></trkpt><trkpt lat="44.854411678307" lon="0.5997245494051388"><ele>55.0</ele><time>2026-04-19T14:41:48.011Z</time></trkpt><trkpt lat="44.85443077758146" lon="0.5995131471890853"><ele>55.0</ele><time>2026-04-19T14:41:49.008Z</time></trkpt><trkpt lat="44.85444779419601" lon="0.5993029442805509"><ele>55.0</ele><time>2026-04-19T14:41:50.009Z</time></trkpt><trkpt lat="44.85445945511464" lon="0.5991029375231735"><ele>55.0</ele><time>2026-04-19T14:41:51.009Z</time></trkpt><trkpt lat="44.85446973138544" lon="0.598902619366039"><ele>55.0</ele><time>2026-04-19T14:41:52.008Z</time></trkpt><trkpt lat="44.85447740063192" lon="0.5987071457831046"><ele>55.0</ele><time>2026-04-19T14:41:53.009Z</time></trkpt><trkpt lat="44.854484656546056" lon="0.5985194483572052"><ele>55.0</ele><time>2026-04-19T14:41:54.009Z</time></trkpt><trkpt lat="44.85448755846662" lon="0.5983312342170973"><ele>55.0</ele><time>2026-04-19T14:41:55.009Z</time></trkpt><trkpt lat="44.8544882012754" lon="0.5981466885824887"><ele>55.0</ele><time>2026-04-19T14:41:56.008Z</time></trkpt><trkpt lat="44.85449074242742" lon="0.5979604551579863"><ele>55.0</ele><time>2026-04-19T14:41:57.008Z</time></trkpt><trkpt lat="44.854488503509714" lon="0.5977646570439743"><ele>54.25</ele><time>2026-04-19T14:41:58.008Z</time></trkpt><trkpt lat="44.85448540462133" lon="0.5975743834382858"><ele>53.5</ele><time>2026-04-19T14:41:59.008Z</time></trkpt><trkpt lat="44.85448069242627" lon="0.5973775623466692"><ele>52.75</ele><time>2026-04-19T14:42:00.008Z</time></trkpt><trkpt lat="44.85448330047213" lon="0.5971878529208896"><ele>52.0</ele><time>2026-04-19T14:42:01.008Z</time></trkpt><trkpt lat="44.85448842331333" lon="0.597000459656277"><ele>52.0</ele><time>2026-04-19T14:42:02.008Z</time></trkpt><trkpt lat="44.85449535732891" lon="0.596818207408457"><ele>52.0</ele><time>2026-04-19T14:42:03.008Z</time></trkpt><trkpt lat="44.85450585074474" lon="0.5966305225009995"><ele>52.0</ele><time>2026-04-19T14:42:04.008Z</time></trkpt><trkpt lat="44.85451761550443" lon="0.5964441814606607"><ele>52.0</ele><time>2026-04-19T14:42:05.008Z</time></trkpt><trkpt lat="44.85452801766767" lon="0.5962573627037575"><ele>51.0</ele><time>2026-04-19T14:42:06.008Z</time></trkpt><trkpt lat="44.85455580511971" lon="0.5960656623273302"><ele>50.0</ele><time>2026-04-19T14:42:07.008Z</time></trkpt><trkpt lat="44.8545932285787" lon="0.595869010164747"><ele>49.0</ele><time>2026-04-19T14:42:08.008Z</time></trkpt><trkpt lat="44.85463939590605" lon="0.5956890149657204"><ele>48.0</ele><time>2026-04-19T14:42:09.008Z</time></trkpt><trkpt lat="44.85471303650623" lon="0.5955185593241"><ele>48.0</ele><time>2026-04-19T14:42:10.008Z</time></trkpt><trkpt lat="44.85476390301748" lon="0.595344306065049"><ele>48.0</ele><time>2026-04-19T14:42:11.009Z</time></trkpt><trkpt lat="44.85482710083751" lon="0.5951806225151354"><ele>48.0</ele><time>2026-04-19T14:42:12.009Z</time></trkpt><trkpt lat="44.85486772345796" lon="0.5950137634899898"><ele>48.0</ele><time>2026-04-19T14:42:13.009Z</time></trkpt><trkpt lat="44.854897012580984" lon="0.5948486229201941"><ele>47.0</ele><time>2026-04-19T14:42:14.009Z</time></trkpt><trkpt lat="44.85490331083632" lon="0.5946865588905501"><ele>46.0</ele><time>2026-04-19T14:42:15.009Z</time></trkpt><trkpt lat="44.854921200864275" lon="0.5945274387813257"><ele>45.0</ele><time>2026-04-19T14:42:16.009Z</time></trkpt><trkpt lat="44.85494346854668" lon="0.594370774521234"><ele>44.0</ele><time>2026-04-19T14:42:17.009Z</time></trkpt><trkpt lat="44.85496609547588" lon="0.5942009352919185"><ele>43.5</ele><time>2026-04-19T14:42:18.009Z</time></trkpt><trkpt lat="44.854995514873664" lon="0.5940235977906674"><ele>43.0</ele><time>2026-04-19T14:42:19.009Z</time></trkpt><trkpt lat="44.85501105639013" lon="0.5938433913710361"><ele>42.5</ele><time>2026-04-19T14:42:20.009Z</time></trkpt><trkpt lat="44.85502942578428" lon="0.5936611049872216"><ele>42.0</ele><time>2026-04-19T14:42:21.009Z</time></trkpt><trkpt lat="44.855063413026464" lon="0.5934788690761599"><ele>42.0</ele><time>2026-04-19T14:42:22.009Z</time></trkpt><trkpt lat="44.85508109901459" lon="0.5932745217335278"><ele>42.0</ele><time>2026-04-19T14:42:23.009Z</time></trkpt><trkpt lat="44.85509422309117" lon="0.5930903507458435"><ele>42.0</ele><time>2026-04-19T14:42:24.009Z</time></trkpt><trkpt lat="44.85513443186587" lon="0.5929023022046497"><ele>42.0</ele><time>2026-04-19T14:42:25.009Z</time></trkpt><trkpt lat="44.85514539664694" lon="0.592736615111821"><ele>45.75</ele><time>2026-04-19T14:42:26.009Z</time></trkpt><trkpt lat="44.855162644620734" lon="0.5924165385675305"><ele>49.5</ele><time>2026-04-19T14:42:28.009Z</time></trkpt><trkpt lat="44.85516429161817" lon="0.5922722266395496"><ele>53.25</ele><time>2026-04-19T14:42:29.009Z</time></trkpt><trkpt lat="44.85517614391317" lon="0.5921361488150921"><ele>57.0</ele><time>2026-04-19T14:42:30.009Z</time></trkpt><trkpt lat="44.85518944142186" lon="0.5920067348145359"><ele>56.0</ele><time>2026-04-19T14:42:31.009Z</time></trkpt><trkpt lat="44.85520436859902" lon="0.5918782872574369"><ele>55.0</ele><time>2026-04-19T14:42:32.009Z</time></trkpt><trkpt lat="44.85520918091918" lon="0.5917344968817668"><ele>54.0</ele><time>2026-04-19T14:42:33.009Z</time></trkpt><trkpt lat="44.85520484785392" lon="0.591579435791397"><ele>53.0</ele><time>2026-04-19T14:42:34.009Z</time></trkpt><trkpt lat="44.855218636657625" lon="0.5914143594414445"><ele>52.0</ele><time>2026-04-19T14:42:35.009Z</time></trkpt><trkpt lat="44.855230590073376" lon="0.5912272467683385"><ele>52.666666666666664</ele><time>2026-04-19T14:42:36.009Z</time></trkpt><trkpt lat="44.855244429667586" lon="0.5910210104135778"><ele>53.33333333333333</ele><time>2026-04-19T14:42:37.009Z</time></trkpt><trkpt lat="44.8552557849278" lon="0.5907946774991082"><ele>54.0</ele><time>2026-04-19T14:42:38.009Z</time></trkpt><trkpt lat="44.85527397689491" lon="0.5905806541404719"><ele>54.0</ele><time>2026-04-19T14:42:39.009Z</time></trkpt><trkpt lat="44.855287719341405" lon="0.5903797536940013"><ele>54.0</ele><time>2026-04-19T14:42:40.009Z</time></trkpt><trkpt lat="44.85529725282966" lon="0.5901785273785094"><ele>54.0</ele><time>2026-04-19T14:42:41.009Z</time></trkpt><trkpt lat="44.85530559581549" lon="0.5899680889386104"><ele>54.0</ele><time>2026-04-19T14:42:42.009Z</time></trkpt><trkpt lat="44.85531074272878" lon="0.5897387970859002"><ele>54.66666666666667</ele><time>2026-04-19T14:42:43.009Z</time></trkpt><trkpt lat="44.85531113209451" lon="0.5894946928234994"><ele>55.333333333333336</ele><time>2026-04-19T14:42:44.009Z</time></trkpt><trkpt lat="44.855313527800064" lon="0.5892490959866483"><ele>56.0</ele><time>2026-04-19T14:42:45.009Z</time></trkpt><trkpt lat="44.85531457052893" lon="0.5889971216962906"><ele>56.0</ele><time>2026-04-19T14:42:46.009Z</time></trkpt><trkpt lat="44.85531804602783" lon="0.5887397390728779"><ele>56.0</ele><time>2026-04-19T14:42:47.009Z</time></trkpt><trkpt lat="44.85531778745908" lon="0.5884766610882062"><ele>56.0</ele><time>2026-04-19T14:42:48.009Z</time></trkpt><trkpt lat="44.8553194769492" lon="0.5882088443561596"><ele>56.333333333333336</ele><time>2026-04-19T14:42:49.009Z</time></trkpt><trkpt lat="44.8553177089589" lon="0.587939214282295"><ele>56.66666666666667</ele><time>2026-04-19T14:42:50.009Z</time></trkpt><trkpt lat="44.85531941717195" lon="0.5876720868512683"><ele>57.0</ele><time>2026-04-19T14:42:51.009Z</time></trkpt><trkpt lat="44.85531670624457" lon="0.5874110060511849"><ele>57.0</ele><time>2026-04-19T14:42:52.009Z</time></trkpt><trkpt lat="44.85531731595102" lon="0.5871432038727922"><ele>57.0</ele><time>2026-04-19T14:42:53.009Z</time></trkpt><trkpt lat="44.85531987669807" lon="0.5868780776715754"><ele>57.0</ele><time>2026-04-19T14:42:54.009Z</time></trkpt><trkpt lat="44.85531896292805" lon="0.5866238063102964"><ele>57.0</ele><time>2026-04-19T14:42:55.009Z</time></trkpt><trkpt lat="44.85531742799722" lon="0.5863748664840822"><ele>57.0</ele><time>2026-04-19T14:42:56.009Z</time></trkpt><trkpt lat="44.85530861736575" lon="0.586139652661173"><ele>57.0</ele><time>2026-04-19T14:42:57.009Z</time></trkpt><trkpt lat="44.85530213128945" lon="0.5858936713797754"><ele>57.0</ele><time>2026-04-19T14:42:58.01Z</time></trkpt><trkpt lat="44.85533068589703" lon="0.5856521786889431"><ele>57.0</ele><time>2026-04-19T14:42:59.01Z</time></trkpt><trkpt lat="44.855324948915175" lon="0.5854118610147043"><ele>57.0</ele><time>2026-04-19T14:43:00.01Z</time></trkpt><trkpt lat="44.85532546161051" lon="0.5851862825845705"><ele>57.75</ele><time>2026-04-19T14:43:01.01Z</time></trkpt><trkpt lat="44.85532116848644" lon="0.5849941468819533"><ele>58.5</ele><time>2026-04-19T14:43:02.01Z</time></trkpt><trkpt lat="44.85533048232688" lon="0.5848100191806225"><ele>59.25</ele><time>2026-04-19T14:43:03.01Z</time></trkpt><trkpt lat="44.855324869344855" lon="0.584592048819127"><ele>60.0</ele><time>2026-04-19T14:43:04.01Z</time></trkpt><trkpt lat="44.85529754116173" lon="0.584344604432914"><ele>60.66666666666667</ele><time>2026-04-19T14:43:05.01Z</time></trkpt><trkpt lat="44.85526439684641" lon="0.5840768792756719"><ele>61.333333333333336</ele><time>2026-04-19T14:43:06.01Z</time></trkpt><trkpt lat="44.85522208510728" lon="0.5837922903005921"><ele>62.0</ele><time>2026-04-19T14:43:07.01Z</time></trkpt><trkpt lat="44.855195514150964" lon="0.583499265094541"><ele>62.5</ele><time>2026-04-19T14:43:08.01Z</time></trkpt><trkpt lat="44.85518575379218" lon="0.5831808908923176"><ele>63.0</ele><time>2026-04-19T14:43:09.01Z</time></trkpt><trkpt lat="44.855191363919225" lon="0.582863123004564"><ele>63.33333333333333</ele><time>2026-04-19T14:43:10.01Z</time></trkpt><trkpt lat="44.85519570402305" lon="0.582562773678214"><ele>63.666666666666664</ele><time>2026-04-19T14:43:11.01Z</time></trkpt><trkpt lat="44.855193368890184" lon="0.5822590019227638"><ele>64.0</ele><time>2026-04-19T14:43:12.01Z</time></trkpt><trkpt lat="44.85518813544355" lon="0.5819627946638128"><ele>63.0</ele><time>2026-04-19T14:43:13.01Z</time></trkpt><trkpt lat="44.855187501325304" lon="0.5816558780296313"><ele>62.0</ele><time>2026-04-19T14:43:14.01Z</time></trkpt><trkpt lat="44.8551876111152" lon="0.5813496180632931"><ele>61.0</ele><time>2026-04-19T14:43:15.01Z</time></trkpt><trkpt lat="44.85520168260576" lon="0.5810513822463159"><ele>61.0</ele><time>2026-04-19T14:43:16.01Z</time></trkpt><trkpt lat="44.85520294662004" lon="0.580763805141131"><ele>61.0</ele><time>2026-04-19T14:43:17.01Z</time></trkpt><trkpt lat="44.855203434445855" lon="0.5804783479834181"><ele>61.0</ele><time>2026-04-19T14:43:18.01Z</time></trkpt><trkpt lat="44.855198970830415" lon="0.5801970001686463"><ele>61.0</ele><time>2026-04-19T14:43:19.01Z</time></trkpt><trkpt lat="44.85519133052754" lon="0.5799297914993123"><ele>61.0</ele><time>2026-04-19T14:43:20.01Z</time></trkpt><trkpt lat="44.855204993970816" lon="0.5796802452379801"><ele>61.0</ele><time>2026-04-19T14:43:21.01Z</time></trkpt><trkpt lat="44.855199776288664" lon="0.5794296034762817"><ele>61.0</ele><time>2026-04-19T14:43:22.01Z</time></trkpt><trkpt lat="44.855197932780584" lon="0.5791775356705765"><ele>61.0</ele><time>2026-04-19T14:43:23.01Z</time></trkpt><trkpt lat="44.85519661839297" lon="0.5789191527128604"><ele>61.0</ele><time>2026-04-19T14:43:24.01Z</time></trkpt><trkpt lat="44.85519341828918" lon="0.5786602780009708"><ele>60.666666666666664</ele><time>2026-04-19T14:43:25.01Z</time></trkpt><trkpt lat="44.85523568331103" lon="0.5784054713960808"><ele>60.33333333333333</ele><time>2026-04-19T14:43:26.01Z</time></trkpt><trkpt lat="44.85524168150311" lon="0.5781385586962327"><ele>60.0</ele><time>2026-04-19T14:43:27.01Z</time></trkpt><trkpt lat="44.85526561901722" lon="0.5778990988580273"><ele>60.25</ele><time>2026-04-19T14:43:28.01Z</time></trkpt><trkpt lat="44.85529724995711" lon="0.5776841604634343"><ele>60.5</ele><time>2026-04-19T14:43:29.01Z</time></trkpt><trkpt lat="44.85532267068091" lon="0.5774855746902495"><ele>60.75</ele><time>2026-04-19T14:43:30.01Z</time></trkpt><trkpt lat="44.855366879886624" lon="0.577286665449583"><ele>61.0</ele><time>2026-04-19T14:43:31.01Z</time></trkpt><trkpt lat="44.855393187346664" lon="0.5770892405580622"><ele>60.5</ele><time>2026-04-19T14:43:32.01Z</time></trkpt><trkpt lat="44.85542493132137" lon="0.5768916856301491"><ele>60.0</ele><time>2026-04-19T14:43:33.01Z</time></trkpt><trkpt lat="44.85543088416931" lon="0.5767179363375814"><ele>59.5</ele><time>2026-04-19T14:43:34.01Z</time></trkpt><trkpt lat="44.855448668046975" lon="0.57651933174172"><ele>59.0</ele><time>2026-04-19T14:43:35.01Z</time></trkpt><trkpt lat="44.855453179395354" lon="0.5763488680128781"><ele>58.5</ele><time>2026-04-19T14:43:36.01Z</time></trkpt><trkpt lat="44.855463355044705" lon="0.5761621012220446"><ele>58.0</ele><time>2026-04-19T14:43:37.01Z</time></trkpt><trkpt lat="44.85547354394291" lon="0.5760248794560241"><ele>57.5</ele><time>2026-04-19T14:43:38.01Z</time></trkpt><trkpt lat="44.85548689538294" lon="0.5758537591866264"><ele>57.0</ele><time>2026-04-19T14:43:39.01Z</time></trkpt><trkpt lat="44.855487284533844" lon="0.575671955199628"><ele>57.0</ele><time>2026-04-19T14:43:40.01Z</time></trkpt><trkpt lat="44.85548865157231" lon="0.5754761761937001"><ele>57.0</ele><time>2026-04-19T14:43:41.01Z</time></trkpt><trkpt lat="44.85548243603624" lon="0.5752605092758765"><ele>57.0</ele><time>2026-04-19T14:43:42.01Z</time></trkpt><trkpt lat="44.85548704927505" lon="0.5750357587853722"><ele>56.0</ele><time>2026-04-19T14:43:43.01Z</time></trkpt><trkpt lat="44.855499877646636" lon="0.5748374836560212"><ele>55.0</ele><time>2026-04-19T14:43:44.01Z</time></trkpt><trkpt lat="44.85551412870633" lon="0.57466873547734"><ele>54.0</ele><time>2026-04-19T14:43:45.011Z</time></trkpt><trkpt lat="44.85552764749904" lon="0.5744883011444958"><ele>53.0</ele><time>2026-04-19T14:43:46.011Z</time></trkpt><trkpt lat="44.85554035872549" lon="0.5743174151560797"><ele>52.4</ele><time>2026-04-19T14:43:47.011Z</time></trkpt><trkpt lat="44.85555127777032" lon="0.5741509455146911"><ele>51.8</ele><time>2026-04-19T14:43:48.011Z</time></trkpt><trkpt lat="44.85556628521142" lon="0.5739974954787938"><ele>51.2</ele><time>2026-04-19T14:43:49.011Z</time></trkpt><trkpt lat="44.85557386822759" lon="0.5738429115851076"><ele>50.6</ele><time>2026-04-19T14:43:50.011Z</time></trkpt><trkpt lat="44.8555811244791" lon="0.5736899167859325"><ele>50.0</ele><time>2026-04-19T14:43:51.011Z</time></trkpt><trkpt lat="44.85559129683921" lon="0.5735318963199184"><ele>49.0</ele><time>2026-04-19T14:43:52.011Z</time></trkpt><trkpt lat="44.85560792794817" lon="0.5733772347400407"><ele>48.0</ele><time>2026-04-19T14:43:53.011Z</time></trkpt><trkpt lat="44.855624103667004" lon="0.5732296848534245"><ele>47.0</ele><time>2026-04-19T14:43:54.011Z</time></trkpt><trkpt lat="44.8556296254674" lon="0.5730712582835215"><ele>46.0</ele><time>2026-04-19T14:43:55.008Z</time></trkpt><trkpt lat="44.855623065781465" lon="0.5729055053408557"><ele>45.0</ele><time>2026-04-19T14:43:56.007Z</time></trkpt><trkpt lat="44.85561208975786" lon="0.5727505941519959"><ele>44.8</ele><time>2026-04-19T14:43:57.007Z</time></trkpt><trkpt lat="44.85561613790699" lon="0.5725863746135106"><ele>44.6</ele><time>2026-04-19T14:43:58.007Z</time></trkpt><trkpt lat="44.85561992247406" lon="0.5724397595662378"><ele>44.400000000000006</ele><time>2026-04-19T14:43:59.007Z</time></trkpt><trkpt lat="44.85563883677126" lon="0.5723033504083149"><ele>44.2</ele><time>2026-04-19T14:44:00.007Z</time></trkpt><trkpt lat="44.85564118666995" lon="0.5721624754910984"><ele>44.0</ele><time>2026-04-19T14:44:01.007Z</time></trkpt><trkpt lat="44.855647079264166" lon="0.5720251286917617"><ele>44.400000000000006</ele><time>2026-04-19T14:44:02.007Z</time></trkpt><trkpt lat="44.8556700795009" lon="0.571887925569538"><ele>44.8</ele><time>2026-04-19T14:44:03.007Z</time></trkpt><trkpt lat="44.85567879274475" lon="0.5717541984473212"><ele>45.2</ele><time>2026-04-19T14:44:04.007Z</time></trkpt><trkpt lat="44.855695304819854" lon="0.5716138120470011"><ele>45.599999999999994</ele><time>2026-04-19T14:44:05.006Z</time></trkpt><trkpt lat="44.85571042517929" lon="0.5714636985658613"><ele>46.0</ele><time>2026-04-19T14:44:06.006Z</time></trkpt><trkpt lat="44.855711750790064" lon="0.5713068845064183"><ele>46.0</ele><time>2026-04-19T14:44:07.007Z</time></trkpt><trkpt lat="44.85571928240669" lon="0.5711532764631305"><ele>46.0</ele><time>2026-04-19T14:44:08.007Z</time></trkpt><trkpt lat="44.85573002208651" lon="0.5710185380528591"><ele>46.0</ele><time>2026-04-19T14:44:09.007Z</time></trkpt><trkpt lat="44.85573536163205" lon="0.5708932008619639"><ele>46.0</ele><time>2026-04-19T14:44:10.007Z</time></trkpt><trkpt lat="44.855747074129525" lon="0.5707722020462802"><ele>46.0</ele><time>2026-04-19T14:44:11.007Z</time></trkpt><trkpt lat="44.85575441032203" lon="0.5706469741413436"><ele>46.0</ele><time>2026-04-19T14:44:12.007Z</time></trkpt><trkpt lat="44.85575112266419" lon="0.57052712129172"><ele>46.0</ele><time>2026-04-19T14:44:13.007Z</time></trkpt><trkpt lat="44.8557567119876" lon="0.5704043739538615"><ele>46.0</ele><time>2026-04-19T14:44:14.007Z</time></trkpt><trkpt lat="44.85575472807881" lon="0.5702890360628907"><ele>46.0</ele><time>2026-04-19T14:44:15.007Z</time></trkpt><trkpt lat="44.855763162904694" lon="0.5701824517469937"><ele>46.0</ele><time>2026-04-19T14:44:16.007Z</time></trkpt><trkpt lat="44.855780088143625" lon="0.5700572104120978"><ele>46.0</ele><time>2026-04-19T14:44:17.007Z</time></trkpt><trkpt lat="44.855775014201136" lon="0.5699372223355821"><ele>45.66666666666667</ele><time>2026-04-19T14:44:18.007Z</time></trkpt><trkpt lat="44.855785468173316" lon="0.5698082450649151"><ele>45.333333333333336</ele><time>2026-04-19T14:44:19.007Z</time></trkpt><trkpt lat="44.85576968311499" lon="0.5696864522047687"><ele>45.0</ele><time>2026-04-19T14:44:20.007Z</time></trkpt><trkpt lat="44.85577627917072" lon="0.569560042759091"><ele>44.666666666666664</ele><time>2026-04-19T14:44:21.007Z</time></trkpt><trkpt lat="44.855762777885545" lon="0.5694408731260747"><ele>44.33333333333333</ele><time>2026-04-19T14:44:22.007Z</time></trkpt><trkpt lat="44.85575599183448" lon="0.5693195974227485"><ele>44.0</ele><time>2026-04-19T14:44:23.007Z</time></trkpt><trkpt lat="44.85574336333257" lon="0.5691882801337408"><ele>43.666666666666664</ele><time>2026-04-19T14:44:24.007Z</time></trkpt><trkpt lat="44.855736161678394" lon="0.5690728261641791"><ele>43.33333333333333</ele><time>2026-04-19T14:44:25.007Z</time></trkpt><trkpt lat="44.8557101629827" lon="0.5689599316943448"><ele>43.0</ele><time>2026-04-19T14:44:26.007Z</time></trkpt><trkpt lat="44.85569170950588" lon="0.5688391806335666"><ele>42.666666666666664</ele><time>2026-04-19T14:44:27.007Z</time></trkpt><trkpt lat="44.855679533632674" lon="0.568718282105662"><ele>42.333333333333336</ele><time>2026-04-19T14:44:28.007Z</time></trkpt><trkpt lat="44.85567068602107" lon="0.568581099959348"><ele>42.0</ele><time>2026-04-19T14:44:29.007Z</time></trkpt><trkpt lat="44.855649888204105" lon="0.5684721503434906"><ele>42.666666666666664</ele><time>2026-04-19T14:44:30.007Z</time></trkpt><trkpt lat="44.855638233784966" lon="0.5683624327787452"><ele>43.333333333333336</ele><time>2026-04-19T14:44:31.007Z</time></trkpt><trkpt lat="44.85563408888643" lon="0.5682422907209639"><ele>44.0</ele><time>2026-04-19T14:44:32.007Z</time></trkpt><trkpt lat="44.85560506495827" lon="0.5681229437236544"><ele>44.66666666666667</ele><time>2026-04-19T14:44:33.007Z</time></trkpt><trkpt lat="44.855593599939816" lon="0.5680040578663494"><ele>45.333333333333336</ele><time>2026-04-19T14:44:34.007Z</time></trkpt><trkpt lat="44.8555842805395" lon="0.5678653230394455"><ele>46.0</ele><time>2026-04-19T14:44:35.007Z</time></trkpt><trkpt lat="44.85556351688534" lon="0.5677553421722622"><ele>46.833333333333336</ele><time>2026-04-19T14:44:36.007Z</time></trkpt><trkpt lat="44.85554283368495" lon="0.5676277735401946"><ele>47.66666666666667</ele><time>2026-04-19T14:44:37.007Z</time></trkpt><trkpt lat="44.85552401575408" lon="0.5675052870675894"><ele>48.5</ele><time>2026-04-19T14:44:38.007Z</time></trkpt><trkpt lat="44.855512635869985" lon="0.5673661602233809"><ele>49.333333333333336</ele><time>2026-04-19T14:44:39.007Z</time></trkpt><trkpt lat="44.85549346657948" lon="0.567249873792723"><ele>50.166666666666664</ele><time>2026-04-19T14:44:40.007Z</time></trkpt><trkpt lat="44.85547118165095" lon="0.5671366056968606"><ele>51.0</ele><time>2026-04-19T14:44:41.007Z</time></trkpt><trkpt lat="44.855454418811604" lon="0.5670034605359406"><ele>51.599999999999994</ele><time>2026-04-19T14:44:42.007Z</time></trkpt><trkpt lat="44.855435650813114" lon="0.566868638799758"><ele>52.2</ele><time>2026-04-19T14:44:43.008Z</time></trkpt><trkpt lat="44.8554200526427" lon="0.5667452833495679"><ele>52.800000000000004</ele><time>2026-04-19T14:44:44.008Z</time></trkpt><trkpt lat="44.855408718943785" lon="0.5666020670283259"><ele>53.400000000000006</ele><time>2026-04-19T14:44:45.008Z</time></trkpt><trkpt lat="44.85540012226333" lon="0.5664606917073104"><ele>54.0</ele><time>2026-04-19T14:44:46.008Z</time></trkpt><trkpt lat="44.8553700924139" lon="0.566320124630193"><ele>54.0</ele><time>2026-04-19T14:44:47.008Z</time></trkpt><trkpt lat="44.85534829164714" lon="0.566195761774918"><ele>54.00000000000001</ele><time>2026-04-19T14:44:48.008Z</time></trkpt><trkpt lat="44.85532044667838" lon="0.5660376862848653"><ele>54.00000000000001</ele><time>2026-04-19T14:44:49.008Z</time></trkpt><trkpt lat="44.85528988362538" lon="0.565880720766288"><ele>54.0</ele><time>2026-04-19T14:44:50.008Z</time></trkpt><trkpt lat="44.85526512815419" lon="0.5657494161502252"><ele>54.0</ele><time>2026-04-19T14:44:51.008Z</time></trkpt><trkpt lat="44.85524107332232" lon="0.5656071834610307"><ele>54.6</ele><time>2026-04-19T14:44:52.008Z</time></trkpt><trkpt lat="44.85522245070699" lon="0.5654591010065665"><ele>55.2</ele><time>2026-04-19T14:44:53.008Z</time></trkpt><trkpt lat="44.85519742553456" lon="0.565320277944573"><ele>55.800000000000004</ele><time>2026-04-19T14:44:54.008Z</time></trkpt><trkpt lat="44.85517257004294" lon="0.5651828546225834"><ele>56.400000000000006</ele><time>2026-04-19T14:44:55.008Z</time></trkpt><trkpt lat="44.85514111764918" lon="0.5650503623512727"><ele>57.0</ele><time>2026-04-19T14:44:56.008Z</time></trkpt><trkpt lat="44.855108275599214" lon="0.5648963293488155"><ele>53.0</ele><time>2026-04-19T14:44:57.008Z</time></trkpt><trkpt lat="44.85509062256702" lon="0.5647196423895352"><ele>49.0</ele><time>2026-04-19T14:44:58.008Z</time></trkpt><trkpt lat="44.85505501912105" lon="0.5645586471705697"><ele>45.0</ele><time>2026-04-19T14:44:59.008Z</time></trkpt><trkpt lat="44.855021216731096" lon="0.5643732192754816"><ele>41.0</ele><time>2026-04-19T14:45:00.008Z</time></trkpt><trkpt lat="44.85498766598398" lon="0.5641953636985029"><ele>41.0</ele><time>2026-04-19T14:45:01.008Z</time></trkpt><trkpt lat="44.85494603635347" lon="0.5640128314153581"><ele>41.0</ele><time>2026-04-19T14:45:02.008Z</time></trkpt><trkpt lat="44.85491843912071" lon="0.563829400558952"><ele>41.0</ele><time>2026-04-19T14:45:03.008Z</time></trkpt><trkpt lat="44.85488370054356" lon="0.5636582316750121"><ele>41.0</ele><time>2026-04-19T14:45:04.008Z</time></trkpt><trkpt lat="44.8548565060246" lon="0.5634770035090242"><ele>41.75</ele><time>2026-04-19T14:45:05.008Z</time></trkpt><trkpt lat="44.85482222606188" lon="0.5633001075457517"><ele>42.5</ele><time>2026-04-19T14:45:06.008Z</time></trkpt><trkpt lat="44.8547942120866" lon="0.5631231482072957"><ele>43.25</ele><time>2026-04-19T14:45:07.008Z</time></trkpt><trkpt lat="44.85477059564942" lon="0.5629450127116048"><ele>44.0</ele><time>2026-04-19T14:45:08.008Z</time></trkpt><trkpt lat="44.85472899190286" lon="0.5627580360133818"><ele>44.0</ele><time>2026-04-19T14:45:09.008Z</time></trkpt><trkpt lat="44.854695374232115" lon="0.5625769413328583"><ele>44.0</ele><time>2026-04-19T14:45:10.008Z</time></trkpt><trkpt lat="44.85466173803934" lon="0.5623885240323298"><ele>44.0</ele><time>2026-04-19T14:45:11.008Z</time></trkpt><trkpt lat="44.854632692654285" lon="0.5622059570548681"><ele>44.0</ele><time>2026-04-19T14:45:12.008Z</time></trkpt><trkpt lat="44.85460899886245" lon="0.5620134109109255"><ele>43.25</ele><time>2026-04-19T14:45:13.008Z</time></trkpt><trkpt lat="44.854577446538904" lon="0.5618235305826434"><ele>42.5</ele><time>2026-04-19T14:45:14.008Z</time></trkpt><trkpt lat="44.854547201045186" lon="0.5616358784433303"><ele>41.75</ele><time>2026-04-19T14:45:15.008Z</time></trkpt><trkpt lat="44.854510578957324" lon="0.5614439440038264"><ele>41.0</ele><time>2026-04-19T14:45:16.008Z</time></trkpt><trkpt lat="44.85447743284371" lon="0.5612580335761963"><ele>41.25</ele><time>2026-04-19T14:45:17.008Z</time></trkpt><trkpt lat="44.85444652195649" lon="0.561050597907282"><ele>41.5</ele><time>2026-04-19T14:45:18.008Z</time></trkpt><trkpt lat="44.85441919828544" lon="0.5608502672832"><ele>41.75</ele><time>2026-04-19T14:45:19.008Z</time></trkpt><trkpt lat="44.854377106998946" lon="0.5606465945708063"><ele>42.0</ele><time>2026-04-19T14:45:20.008Z</time></trkpt><trkpt lat="44.85433552574055" lon="0.5604383211571903"><ele>42.75</ele><time>2026-04-19T14:45:21.008Z</time></trkpt><trkpt lat="44.85429276739907" lon="0.5602308096143045"><ele>43.5</ele><time>2026-04-19T14:45:22.008Z</time></trkpt><trkpt lat="44.854251754860236" lon="0.5600232266372589"><ele>44.25</ele><time>2026-04-19T14:45:23.008Z</time></trkpt><trkpt lat="44.85421009677039" lon="0.5598321154611863"><ele>45.0</ele><time>2026-04-19T14:45:24.008Z</time></trkpt><trkpt lat="44.854175241952824" lon="0.5596451137756292"><ele>43.0</ele><time>2026-04-19T14:45:25.008Z</time></trkpt><trkpt lat="44.8541415025123" lon="0.5594831411388856"><ele>41.0</ele><time>2026-04-19T14:45:26.008Z</time></trkpt><trkpt lat="44.854099115411024" lon="0.5593070328973029"><ele>39.0</ele><time>2026-04-19T14:45:27.008Z</time></trkpt><trkpt lat="44.85406208635066" lon="0.5591379866838572"><ele>37.0</ele><time>2026-04-19T14:45:28.008Z</time></trkpt><trkpt lat="44.85406318823132" lon="0.558917475935941"><ele>37.0</ele><time>2026-04-19T14:45:29.009Z</time></trkpt><trkpt lat="44.85402727152253" lon="0.5586701616895282"><ele>37.0</ele><time>2026-04-19T14:45:30.01Z</time></trkpt><trkpt lat="44.854001894173074" lon="0.5584468345504997"><ele>37.0</ele><time>2026-04-19T14:45:31.01Z</time></trkpt><trkpt lat="44.85396134313863" lon="0.5582190386492986"><ele>37.0</ele><time>2026-04-19T14:45:32.01Z</time></trkpt><trkpt lat="44.85391664723313" lon="0.557989651170809"><ele>37.0</ele><time>2026-04-19T14:45:33.01Z</time></trkpt><trkpt lat="44.853871079476434" lon="0.5577606471414734"><ele>37.0</ele><time>2026-04-19T14:45:34.01Z</time></trkpt><trkpt lat="44.85383819911878" lon="0.5575046860330893"><ele>37.333333333333336</ele><time>2026-04-19T14:45:35.01Z</time></trkpt><trkpt lat="44.85377900542238" lon="0.557259102563299"><ele>37.666666666666664</ele><time>2026-04-19T14:45:36.01Z</time></trkpt><trkpt lat="44.853730017839716" lon="0.557012445313612"><ele>38.0</ele><time>2026-04-19T14:45:37.01Z</time></trkpt><trkpt lat="44.8536831497163" lon="0.5567571287219827"><ele>38.33333333333333</ele><time>2026-04-19T14:45:38.01Z</time></trkpt><trkpt lat="44.85363785158231" lon="0.5565158191080698"><ele>38.666666666666664</ele><time>2026-04-19T14:45:39.01Z</time></trkpt><trkpt lat="44.85359651603955" lon="0.5562896335300954"><ele>39.0</ele><time>2026-04-19T14:45:40.01Z</time></trkpt><trkpt lat="44.85356496335756" lon="0.5560694763246251"><ele>39.0</ele><time>2026-04-19T14:45:41.01Z</time></trkpt><trkpt lat="44.853523376529616" lon="0.5558676422519966"><ele>39.0</ele><time>2026-04-19T14:45:42.01Z</time></trkpt><trkpt lat="44.85349025228895" lon="0.5556761755938019"><ele>39.0</ele><time>2026-04-19T14:45:43.01Z</time></trkpt><trkpt lat="44.85345828469499" lon="0.5555012217552161"><ele>39.0</ele><time>2026-04-19T14:45:44.01Z</time></trkpt><trkpt lat="44.8534204106338" lon="0.5553129668544708"><ele>38.5</ele><time>2026-04-19T14:45:45.01Z</time></trkpt><trkpt lat="44.853390590803976" lon="0.5551551457496134"><ele>38.0</ele><time>2026-04-19T14:45:46.01Z</time></trkpt><trkpt lat="44.85335315900331" lon="0.5549940226734718"><ele>37.5</ele><time>2026-04-19T14:45:47.01Z</time></trkpt><trkpt lat="44.853329929542014" lon="0.5548428222780132"><ele>37.0</ele><time>2026-04-19T14:45:48.01Z</time></trkpt><trkpt lat="44.85329632947378" lon="0.5546766885685434"><ele>37.0</ele><time>2026-04-19T14:45:49.01Z</time></trkpt><trkpt lat="44.853268850592656" lon="0.5545107517525982"><ele>37.0</ele><time>2026-04-19T14:45:50.01Z</time></trkpt><trkpt lat="44.8532409717389" lon="0.5543479979964221"><ele>37.0</ele><time>2026-04-19T14:45:51.01Z</time></trkpt><trkpt lat="44.853210746369456" lon="0.5541955393971241"><ele>37.0</ele><time>2026-04-19T14:45:52.01Z</time></trkpt><trkpt lat="44.85317572609114" lon="0.5540371115634644"><ele>37.0</ele><time>2026-04-19T14:45:53.01Z</time></trkpt><trkpt lat="44.853153519018996" lon="0.5538815583367862"><ele>37.0</ele><time>2026-04-19T14:45:54.01Z</time></trkpt><trkpt lat="44.85312476176101" lon="0.5537138902840918"><ele>37.0</ele><time>2026-04-19T14:45:55.01Z</time></trkpt><trkpt lat="44.853098839138596" lon="0.553571309586766"><ele>37.0</ele><time>2026-04-19T14:45:56.01Z</time></trkpt><trkpt lat="44.85307404321438" lon="0.5534161766989353"><ele>37.0</ele><time>2026-04-19T14:45:57.01Z</time></trkpt><trkpt lat="44.85304597457866" lon="0.5532448476523188"><ele>37.0</ele><time>2026-04-19T14:45:58.01Z</time></trkpt><trkpt lat="44.85300620397549" lon="0.5530641265631537"><ele>37.0</ele><time>2026-04-19T14:45:59.01Z</time></trkpt><trkpt lat="44.85296019696628" lon="0.5528568421178667"><ele>37.0</ele><time>2026-04-19T14:46:00.01Z</time></trkpt><trkpt lat="44.852916582489975" lon="0.5526237903754434"><ele>37.0</ele><time>2026-04-19T14:46:01.008Z</time></trkpt><trkpt lat="44.85286584896665" lon="0.5523886993528266"><ele>37.0</ele><time>2026-04-19T14:46:02.008Z</time></trkpt><trkpt lat="44.85282301573195" lon="0.5521405912162044"><ele>37.0</ele><time>2026-04-19T14:46:03.008Z</time></trkpt><trkpt lat="44.85278311422474" lon="0.5518800886548036"><ele>36.333333333333336</ele><time>2026-04-19T14:46:04.008Z</time></trkpt><trkpt lat="44.85274579209521" lon="0.5516503673789587"><ele>35.666666666666664</ele><time>2026-04-19T14:46:05.008Z</time></trkpt><trkpt lat="44.85271551917499" lon="0.5514358920898429"><ele>35.0</ele><time>2026-04-19T14:46:06.008Z</time></trkpt><trkpt lat="44.85267975304655" lon="0.5512238958302508"><ele>35.0</ele><time>2026-04-19T14:46:07.007Z</time></trkpt><trkpt lat="44.85264241889732" lon="0.5510110523293279"><ele>35.0</ele><time>2026-04-19T14:46:08.007Z</time></trkpt><trkpt lat="44.85261394025664" lon="0.5507906116981665"><ele>35.0</ele><time>2026-04-19T14:46:09.007Z</time></trkpt><trkpt lat="44.85258424489608" lon="0.5506055746587785"><ele>35.0</ele><time>2026-04-19T14:46:10.007Z</time></trkpt><trkpt lat="44.85256096766596" lon="0.5504218493050492"><ele>35.0</ele><time>2026-04-19T14:46:11.007Z</time></trkpt><trkpt lat="44.85253110416298" lon="0.5502556187319869"><ele>35.0</ele><time>2026-04-19T14:46:12.007Z</time></trkpt><trkpt lat="44.85251089983752" lon="0.5501112419562157"><ele>35.0</ele><time>2026-04-19T14:46:13.008Z</time></trkpt><trkpt lat="44.852495047682574" lon="0.5499650294088169"><ele>35.0</ele><time>2026-04-19T14:46:14.007Z</time></trkpt><trkpt lat="44.85248881146229" lon="0.5498272024758394"><ele>35.0</ele><time>2026-04-19T14:46:15.007Z</time></trkpt><trkpt lat="44.85251504600627" lon="0.5497078478861114"><ele>35.0</ele><time>2026-04-19T14:46:16.007Z</time></trkpt><trkpt lat="44.85255215268475" lon="0.5495748115506558"><ele>35.0</ele><time>2026-04-19T14:46:17.007Z</time></trkpt><trkpt lat="44.852550586281176" lon="0.5494687476955273"><ele>35.0</ele><time>2026-04-19T14:46:18.008Z</time></trkpt><trkpt lat="44.85249469187659" lon="0.5493672189857689"><ele>35.0</ele><time>2026-04-19T14:46:19.008Z</time></trkpt><trkpt lat="44.85240121081077" lon="0.5492907736340787"><ele>35.0</ele><time>2026-04-19T14:46:20.008Z</time></trkpt><trkpt lat="44.85231259625131" lon="0.549193610046561"><ele>35.0</ele><time>2026-04-19T14:46:21.008Z</time></trkpt><trkpt lat="44.85225649823693" lon="0.5490372724769842"><ele>35.0</ele><time>2026-04-19T14:46:22.008Z</time></trkpt><trkpt lat="44.8522224778439" lon="0.5488260244902076"><ele>35.0</ele><time>2026-04-19T14:46:23.008Z</time></trkpt><trkpt lat="44.85218357396034" lon="0.5485910410958919"><ele>35.0</ele><time>2026-04-19T14:46:24.008Z</time></trkpt><trkpt lat="44.85214722609448" lon="0.5483456782677408"><ele>35.0</ele><time>2026-04-19T14:46:25.008Z</time></trkpt><trkpt lat="44.85210194226331" lon="0.548085874357296"><ele>35.0</ele><time>2026-04-19T14:46:26.008Z</time></trkpt><trkpt lat="44.85205090003125" lon="0.5478131244026097"><ele>35.0</ele><time>2026-04-19T14:46:27.008Z</time></trkpt><trkpt lat="44.85200228374509" lon="0.5475248860711466"><ele>35.0</ele><time>2026-04-19T14:46:28.008Z</time></trkpt><trkpt lat="44.85193876446446" lon="0.5472154281808274"><ele>35.0</ele><time>2026-04-19T14:46:29.008Z</time></trkpt><trkpt lat="44.85188447355233" lon="0.5469128548076212"><ele>35.0</ele><time>2026-04-19T14:46:30.008Z</time></trkpt><trkpt lat="44.85182349259739" lon="0.5466021753668768"><ele>35.0</ele><time>2026-04-19T14:46:31.008Z</time></trkpt><trkpt lat="44.85177031011999" lon="0.5462812989975001"><ele>35.0</ele><time>2026-04-19T14:46:32.008Z</time></trkpt><trkpt lat="44.85171600098135" lon="0.5459560351091787"><ele>35.0</ele><time>2026-04-19T14:46:33.008Z</time></trkpt><trkpt lat="44.851659873589306" lon="0.545634456477757"><ele>35.5</ele><time>2026-04-19T14:46:34.008Z</time></trkpt><trkpt lat="44.85160415418533" lon="0.5453176690159208"><ele>36.0</ele><time>2026-04-19T14:46:35.008Z</time></trkpt><trkpt lat="44.85155117365517" lon="0.545002386932851"><ele>36.0</ele><time>2026-04-19T14:46:36.008Z</time></trkpt><trkpt lat="44.851496872336064" lon="0.5446876233195516"><ele>36.0</ele><time>2026-04-19T14:46:37.008Z</time></trkpt><trkpt lat="44.851439707878434" lon="0.5443786306229764"><ele>36.0</ele><time>2026-04-19T14:46:38.008Z</time></trkpt><trkpt lat="44.85139069061715" lon="0.5440757972164516"><ele>36.0</ele><time>2026-04-19T14:46:39.008Z</time></trkpt><trkpt lat="44.85133675919229" lon="0.543781683679241"><ele>36.0</ele><time>2026-04-19T14:46:40.008Z</time></trkpt><trkpt lat="44.85127896995702" lon="0.5435004952778518"><ele>36.0</ele><time>2026-04-19T14:46:41.008Z</time></trkpt><trkpt lat="44.851231455478576" lon="0.5432227448841198"><ele>36.0</ele><time>2026-04-19T14:46:42.008Z</time></trkpt><trkpt lat="44.85118117611997" lon="0.5429555282373333"><ele>36.0</ele><time>2026-04-19T14:46:43.008Z</time></trkpt><trkpt lat="44.85114100794769" lon="0.5426972555667068"><ele>35.666666666666664</ele><time>2026-04-19T14:46:44.008Z</time></trkpt><trkpt lat="44.851097866097454" lon="0.5424536261673111"><ele>35.33333333333333</ele><time>2026-04-19T14:46:45.008Z</time></trkpt><trkpt lat="44.851055605524365" lon="0.5422268667962079"><ele>35.0</ele><time>2026-04-19T14:46:46.008Z</time></trkpt><trkpt lat="44.8510137184166" lon="0.5420002444482729"><ele>34.666666666666664</ele><time>2026-04-19T14:46:47.008Z</time></trkpt><trkpt lat="44.85097028712972" lon="0.5417638931342761"><ele>34.333333333333336</ele><time>2026-04-19T14:46:48.008Z</time></trkpt><trkpt lat="44.8509305790684" lon="0.5415406557058201"><ele>34.0</ele><time>2026-04-19T14:46:49.008Z</time></trkpt><trkpt lat="44.85089322566782" lon="0.5413385193441885"><ele>34.0</ele><time>2026-04-19T14:46:50.008Z</time></trkpt><trkpt lat="44.850860216765625" lon="0.5411707803045172"><ele>34.0</ele><time>2026-04-19T14:46:51.008Z</time></trkpt><trkpt lat="44.85083760051131" lon="0.5410190863304459"><ele>34.0</ele><time>2026-04-19T14:46:52.008Z</time></trkpt><trkpt lat="44.85084677836268" lon="0.5408846372084237"><ele>34.0</ele><time>2026-04-19T14:46:53.008Z</time></trkpt><trkpt lat="44.85086869354898" lon="0.5407448177366286"><ele>34.0</ele><time>2026-04-19T14:46:54.008Z</time></trkpt><trkpt lat="44.85087486105282" lon="0.5406145437658846"><ele>34.0</ele><time>2026-04-19T14:46:55.008Z</time></trkpt><trkpt lat="44.85083810186163" lon="0.5404968563091497"><ele>34.0</ele><time>2026-04-19T14:46:56.008Z</time></trkpt><trkpt lat="44.85076532425732" lon="0.5403804317768942"><ele>34.0</ele><time>2026-04-19T14:46:57.008Z</time></trkpt><trkpt lat="44.850700958182465" lon="0.5402459358340184"><ele>34.0</ele><time>2026-04-19T14:46:58.008Z</time></trkpt><trkpt lat="44.850648878747144" lon="0.5400715963324021"><ele>34.0</ele><time>2026-04-19T14:46:59.008Z</time></trkpt><trkpt lat="44.85061011659684" lon="0.5398575742512651"><ele>34.0</ele><time>2026-04-19T14:47:00.008Z</time></trkpt><trkpt lat="44.850568202679405" lon="0.5396466839793965"><ele>34.0</ele><time>2026-04-19T14:47:01.008Z</time></trkpt><trkpt lat="44.85053185970891" lon="0.5394227986859423"><ele>34.333333333333336</ele><time>2026-04-19T14:47:02.008Z</time></trkpt><trkpt lat="44.85049418200296" lon="0.5391962911436672"><ele>34.666666666666664</ele><time>2026-04-19T14:47:03.008Z</time></trkpt><trkpt lat="44.85045924846268" lon="0.5389913330660955"><ele>35.0</ele><time>2026-04-19T14:47:04.008Z</time></trkpt><trkpt lat="44.85043053657409" lon="0.5388040908911624"><ele>35.0</ele><time>2026-04-19T14:47:05.009Z</time></trkpt><trkpt lat="44.850397505225146" lon="0.5386125040080751"><ele>35.0</ele><time>2026-04-19T14:47:06.009Z</time></trkpt><trkpt lat="44.85036473785874" lon="0.5384299781284626"><ele>35.0</ele><time>2026-04-19T14:47:07.009Z</time></trkpt><trkpt lat="44.85033662361477" lon="0.5382619337866266"><ele>35.0</ele><time>2026-04-19T14:47:08.009Z</time></trkpt><trkpt lat="44.85030937741627" lon="0.5380976904978758"><ele>35.0</ele><time>2026-04-19T14:47:09.009Z</time></trkpt><trkpt lat="44.850279697143094" lon="0.5379423598197953"><ele>35.0</ele><time>2026-04-19T14:47:10.009Z</time></trkpt><trkpt lat="44.85025896393884" lon="0.5378004561472772"><ele>35.0</ele><time>2026-04-19T14:47:11.009Z</time></trkpt><trkpt lat="44.850237606852566" lon="0.5376607872705946"><ele>35.0</ele><time>2026-04-19T14:47:12.009Z</time></trkpt><trkpt lat="44.85021163403572" lon="0.5375380329108546"><ele>35.0</ele><time>2026-04-19T14:47:13.009Z</time></trkpt><trkpt lat="44.850193920476435" lon="0.5374247697282403"><ele>35.0</ele><time>2026-04-19T14:47:14.009Z</time></trkpt><trkpt lat="44.85017532264738" lon="0.5373211962605253"><ele>35.0</ele><time>2026-04-19T14:47:15.009Z</time></trkpt><trkpt lat="44.85016256998646" lon="0.5372233607183597"><ele>35.0</ele><time>2026-04-19T14:47:16.009Z</time></trkpt><trkpt lat="44.85015730062322" lon="0.5371297627194019"><ele>35.0</ele><time>2026-04-19T14:47:17.009Z</time></trkpt><trkpt lat="44.85020048465932" lon="0.5369423349767902"><ele>35.0</ele><time>2026-04-19T14:47:19.009Z</time></trkpt><trkpt lat="44.85021608654747" lon="0.5368489589106703"><ele>35.0</ele><time>2026-04-19T14:47:20.009Z</time></trkpt><trkpt lat="44.85019643950316" lon="0.5367396851132702"><ele>35.0</ele><time>2026-04-19T14:47:21.009Z</time></trkpt><trkpt lat="44.85014752746974" lon="0.5366333682149161"><ele>35.0</ele><time>2026-04-19T14:47:22.009Z</time></trkpt><trkpt lat="44.85009404594185" lon="0.5365521866267382"><ele>35.0</ele><time>2026-04-19T14:47:23.009Z</time></trkpt><trkpt lat="44.85004118250058" lon="0.5364536003791723"><ele>35.0</ele><time>2026-04-19T14:47:24.009Z</time></trkpt><trkpt lat="44.8500052647646" lon="0.5363080833363388"><ele>35.0</ele><time>2026-04-19T14:47:25.009Z</time></trkpt><trkpt lat="44.84998169782751" lon="0.536147443706589"><ele>35.166666666666664</ele><time>2026-04-19T14:47:26.009Z</time></trkpt><trkpt lat="44.84995769599316" lon="0.5360106978246963"><ele>35.33333333333333</ele><time>2026-04-19T14:47:27.009Z</time></trkpt><trkpt lat="44.84994389930659" lon="0.5358946533688862"><ele>35.5</ele><time>2026-04-19T14:47:28.009Z</time></trkpt><trkpt lat="44.84991034819254" lon="0.5357854493697933"><ele>35.666666666666664</ele><time>2026-04-19T14:47:29.009Z</time></trkpt><trkpt lat="44.849885235348474" lon="0.5356648423728404"><ele>35.833333333333336</ele><time>2026-04-19T14:47:30.009Z</time></trkpt><trkpt lat="44.849862508472874" lon="0.535546457135863"><ele>36.0</ele><time>2026-04-19T14:47:31.009Z</time></trkpt><trkpt lat="44.849842265848764" lon="0.5354174127587938"><ele>35.666666666666664</ele><time>2026-04-19T14:47:32.009Z</time></trkpt><trkpt lat="44.849819020375236" lon="0.5353036391030729"><ele>35.333333333333336</ele><time>2026-04-19T14:47:33.009Z</time></trkpt><trkpt lat="44.849794488628774" lon="0.5351967334222246"><ele>35.0</ele><time>2026-04-19T14:47:34.009Z</time></trkpt><trkpt lat="44.849786508578696" lon="0.535077926746848"><ele>34.66666666666667</ele><time>2026-04-19T14:47:35.009Z</time></trkpt><trkpt lat="44.84977885491475" lon="0.5349646055277911"><ele>34.333333333333336</ele><time>2026-04-19T14:47:36.009Z</time></trkpt><trkpt lat="44.84977381584642" lon="0.5348510692495376"><ele>34.0</ele><time>2026-04-19T14:47:37.009Z</time></trkpt><trkpt lat="44.84978343052853" lon="0.5347381411816261"><ele>34.0</ele><time>2026-04-19T14:47:38.009Z</time></trkpt><trkpt lat="44.849824052739905" lon="0.5346374099455816"><ele>34.0</ele><time>2026-04-19T14:47:39.009Z</time></trkpt><trkpt lat="44.84987597321848" lon="0.5345404030945011"><ele>34.0</ele><time>2026-04-19T14:47:40.009Z</time></trkpt><trkpt lat="44.84991125941212" lon="0.5344481918141978"><ele>34.0</ele><time>2026-04-19T14:47:41.009Z</time></trkpt><trkpt lat="44.84992567640218" lon="0.5343277319645814"><ele>34.0</ele><time>2026-04-19T14:47:42.009Z</time></trkpt><trkpt lat="44.84991297155805" lon="0.534206262271261"><ele>34.0</ele><time>2026-04-19T14:47:43.009Z</time></trkpt><trkpt lat="44.849859620165056" lon="0.5341023378956787"><ele>33.8</ele><time>2026-04-19T14:47:44.009Z</time></trkpt><trkpt lat="44.849788340976126" lon="0.5340170118057669"><ele>33.599999999999994</ele><time>2026-04-19T14:47:45.009Z</time></trkpt><trkpt lat="44.849699927464584" lon="0.5339592559319848"><ele>33.4</ele><time>2026-04-19T14:47:46.009Z</time></trkpt><trkpt lat="44.84960934625658" lon="0.5339420473698728"><ele>33.199999999999996</ele><time>2026-04-19T14:47:47.009Z</time></trkpt><trkpt lat="44.8495080529084" lon="0.5339589665420896"><ele>33.0</ele><time>2026-04-19T14:47:48.009Z</time></trkpt><trkpt lat="44.84942579193058" lon="0.5340331600612794"><ele>33.0</ele><time>2026-04-19T14:47:49.009Z</time></trkpt><trkpt lat="44.84935288117649" lon="0.534140129079421"><ele>33.0</ele><time>2026-04-19T14:47:50.009Z</time></trkpt><trkpt lat="44.849277913423656" lon="0.534277595347628"><ele>33.0</ele><time>2026-04-19T14:47:51.009Z</time></trkpt><trkpt lat="44.84919179036125" lon="0.5344004893013804"><ele>33.0</ele><time>2026-04-19T14:47:52.01Z</time></trkpt><trkpt lat="44.84908435434381" lon="0.5344828409716886"><ele>33.0</ele><time>2026-04-19T14:47:53.01Z</time></trkpt><trkpt lat="44.84894843167343" lon="0.5345431659232344"><ele>33.0</ele><time>2026-04-19T14:47:54.01Z</time></trkpt><trkpt lat="44.848797829784246" lon="0.5345781709065327"><ele>33.0</ele><time>2026-04-19T14:47:55.01Z</time></trkpt><trkpt lat="44.84864528203301" lon="0.5346202442205412"><ele>33.0</ele><time>2026-04-19T14:47:56.01Z</time></trkpt><trkpt lat="44.848499083849106" lon="0.5346533200193966"><ele>33.0</ele><time>2026-04-19T14:47:57.01Z</time></trkpt><trkpt lat="44.84833795414026" lon="0.5346929330158009"><ele>33.0</ele><time>2026-04-19T14:47:58.01Z</time></trkpt><trkpt lat="44.84816529449905" lon="0.5347329891614154"><ele>33.333333333333336</ele><time>2026-04-19T14:47:59.01Z</time></trkpt><trkpt lat="44.84797638970973" lon="0.5347758507099684"><ele>33.66666666666667</ele><time>2026-04-19T14:48:00.01Z</time></trkpt><trkpt lat="44.847780510172605" lon="0.5348268470336416"><ele>34.0</ele><time>2026-04-19T14:48:01.01Z</time></trkpt><trkpt lat="44.847589457589784" lon="0.5348813591732173"><ele>34.333333333333336</ele><time>2026-04-19T14:48:02.01Z</time></trkpt><trkpt lat="44.847390080641986" lon="0.5349360643225527"><ele>34.666666666666664</ele><time>2026-04-19T14:48:03.01Z</time></trkpt><trkpt lat="44.84717434053648" lon="0.534971008550359"><ele>35.0</ele><time>2026-04-19T14:48:04.01Z</time></trkpt><trkpt lat="44.84694418441227" lon="0.5349971872592372"><ele>33.0</ele><time>2026-04-19T14:48:05.01Z</time></trkpt><trkpt lat="44.84671013811635" lon="0.5350170658985226"><ele>31.0</ele><time>2026-04-19T14:48:06.01Z</time></trkpt><trkpt lat="44.84648335569189" lon="0.5350304961364489"><ele>31.0</ele><time>2026-04-19T14:48:07.007Z</time></trkpt><trkpt lat="44.84624871860927" lon="0.5350430264611485"><ele>31.0</ele><time>2026-04-19T14:48:08.006Z</time></trkpt><trkpt lat="44.84601877942599" lon="0.5350615145344562"><ele>28.5</ele><time>2026-04-19T14:48:09.006Z</time></trkpt><trkpt lat="44.84579531607722" lon="0.5350789252124502"><ele>26.0</ele><time>2026-04-19T14:48:10.007Z</time></trkpt><trkpt lat="44.84556764330259" lon="0.5350940357175603"><ele>26.0</ele><time>2026-04-19T14:48:11.007Z</time></trkpt><trkpt lat="44.845333696117265" lon="0.5351196169471713"><ele>26.0</ele><time>2026-04-19T14:48:12.007Z</time></trkpt><trkpt lat="44.84510257071162" lon="0.5351386006703645"><ele>26.0</ele><time>2026-04-19T14:48:13.007Z</time></trkpt><trkpt lat="44.84487409029803" lon="0.5351488453201123"><ele>26.0</ele><time>2026-04-19T14:48:14.006Z</time></trkpt><trkpt lat="44.8446509661959" lon="0.5351765430471459"><ele>26.0</ele><time>2026-04-19T14:48:15.006Z</time></trkpt><trkpt lat="44.84442560886605" lon="0.5351850820563598"><ele>26.0</ele><time>2026-04-19T14:48:16.006Z</time></trkpt><trkpt lat="44.84420464150992" lon="0.5352081317875319"><ele>26.0</ele><time>2026-04-19T14:48:17.006Z</time></trkpt><trkpt lat="44.843989958231596" lon="0.5352133335026636"><ele>28.0</ele><time>2026-04-19T14:48:18.006Z</time></trkpt><trkpt lat="44.84376270077971" lon="0.5352119203618189"><ele>30.0</ele><time>2026-04-19T14:48:19.007Z</time></trkpt><trkpt lat="44.84354257449435" lon="0.5351952950434118"><ele>32.0</ele><time>2026-04-19T14:48:20.006Z</time></trkpt><trkpt lat="44.843325704383226" lon="0.5351588504152519"><ele>33.0</ele><time>2026-04-19T14:48:21.006Z</time></trkpt><trkpt lat="44.843102208310135" lon="0.5351005995087497"><ele>34.0</ele><time>2026-04-19T14:48:22.006Z</time></trkpt><trkpt lat="44.84287926326733" lon="0.5350240304298431"><ele>34.0</ele><time>2026-04-19T14:48:23.006Z</time></trkpt><trkpt lat="44.842655317487925" lon="0.5349343331132583"><ele>34.0</ele><time>2026-04-19T14:48:24.006Z</time></trkpt><trkpt lat="44.84242727313468" lon="0.5348284912176914"><ele>34.0</ele><time>2026-04-19T14:48:25.006Z</time></trkpt><trkpt lat="44.84222084578907" lon="0.5347170635345438"><ele>34.0</ele><time>2026-04-19T14:48:26.006Z</time></trkpt><trkpt lat="44.84200287524809" lon="0.5345859138973085"><ele>34.0</ele><time>2026-04-19T14:48:27.006Z</time></trkpt><trkpt lat="44.84181147065951" lon="0.5344169608600776"><ele>34.0</ele><time>2026-04-19T14:48:28.007Z</time></trkpt><trkpt lat="44.841611798633785" lon="0.5342727051786919"><ele>33.66666666666667</ele><time>2026-04-19T14:48:29.007Z</time></trkpt><trkpt lat="44.841433547195024" lon="0.5341216699523021"><ele>33.333333333333336</ele><time>2026-04-19T14:48:30.007Z</time></trkpt><trkpt lat="44.84126291543094" lon="0.5339656088694578"><ele>33.0</ele><time>2026-04-19T14:48:31.007Z</time></trkpt><trkpt lat="44.841102010041475" lon="0.5338278201821559"><ele>33.333333333333336</ele><time>2026-04-19T14:48:32.007Z</time></trkpt><trkpt lat="44.840948836582236" lon="0.5336942482183458"><ele>33.66666666666667</ele><time>2026-04-19T14:48:33.007Z</time></trkpt><trkpt lat="44.840805349882565" lon="0.5335691297078576"><ele>34.0</ele><time>2026-04-19T14:48:34.007Z</time></trkpt><trkpt lat="44.840674921345936" lon="0.5334379686962561"><ele>34.0</ele><time>2026-04-19T14:48:35.007Z</time></trkpt><trkpt lat="44.84054729506173" lon="0.5333163641288801"><ele>34.0</ele><time>2026-04-19T14:48:36.007Z</time></trkpt><trkpt lat="44.84041874576144" lon="0.5331948115505168"><ele>34.0</ele><time>2026-04-19T14:48:37.007Z</time></trkpt><trkpt lat="44.840298612603625" lon="0.5330481146627115"><ele>34.0</ele><time>2026-04-19T14:48:38.007Z</time></trkpt><trkpt lat="44.84017820061318" lon="0.532917078125712"><ele>34.0</ele><time>2026-04-19T14:48:39.007Z</time></trkpt><trkpt lat="44.84005780347145" lon="0.532783417998159"><ele>34.0</ele><time>2026-04-19T14:48:40.007Z</time></trkpt><trkpt lat="44.839939680522605" lon="0.5326574593927372"><ele>34.0</ele><time>2026-04-19T14:48:41.007Z</time></trkpt><trkpt lat="44.839818013013726" lon="0.532533406719756"><ele>34.0</ele><time>2026-04-19T14:48:42.007Z</time></trkpt><trkpt lat="44.839616915235005" lon="0.5323229234212322"><ele>34.0</ele><time>2026-04-19T14:48:44.007Z</time></trkpt><trkpt lat="44.83953079066528" lon="0.532225608821712"><ele>34.0</ele><time>2026-04-19T14:48:45.007Z</time></trkpt><trkpt lat="44.839456813927605" lon="0.5321502260406484"><ele>34.0</ele><time>2026-04-19T14:48:46.007Z</time></trkpt><trkpt lat="44.8393734913534" lon="0.5320162776183482"><ele>34.0</ele><time>2026-04-19T14:48:49.007Z</time></trkpt><trkpt lat="44.83931680631472" lon="0.5319207734101259"><ele>34.0</ele><time>2026-04-19T14:48:52.007Z</time></trkpt><trkpt lat="44.83919812278694" lon="0.5319373586017027"><ele>34.0</ele><time>2026-04-19T14:48:54.007Z</time></trkpt><trkpt lat="44.8391098607407" lon="0.5319198868578243"><ele>34.4</ele><time>2026-04-19T14:48:55.007Z</time></trkpt><trkpt lat="44.83900072707411" lon="0.5318654445564391"><ele>34.8</ele><time>2026-04-19T14:48:56.007Z</time></trkpt><trkpt lat="44.838924827933155" lon="0.5317974656626135"><ele>35.2</ele><time>2026-04-19T14:48:57.007Z</time></trkpt><trkpt lat="44.83886342091795" lon="0.5317566622362434"><ele>35.6</ele><time>2026-04-19T14:48:58.007Z</time></trkpt><trkpt lat="44.838777376624776" lon="0.5317047353823727"><ele>36.0</ele><time>2026-04-19T14:49:00.007Z</time></trkpt><trkpt lat="44.838652587131044" lon="0.5316380683856191"><ele>36.0</ele><time>2026-04-19T14:49:02.007Z</time></trkpt><trkpt lat="44.838559730864795" lon="0.5315868762302414"><ele>36.0</ele><time>2026-04-19T14:49:03.007Z</time></trkpt><trkpt lat="44.83846876460919" lon="0.531533742936604"><ele>36.0</ele><time>2026-04-19T14:49:04.007Z</time></trkpt><trkpt lat="44.83837667750203" lon="0.5314822118221715"><ele>36.0</ele><time>2026-04-19T14:49:05.007Z</time></trkpt><trkpt lat="44.838273656599924" lon="0.5314260512171632"><ele>36.0</ele><time>2026-04-19T14:49:06.007Z</time></trkpt><trkpt lat="44.838157378147564" lon="0.5313394350384099"><ele>36.0</ele><time>2026-04-19T14:49:07.007Z</time></trkpt><trkpt lat="44.838051792341695" lon="0.531233252874837"><ele>36.0</ele><time>2026-04-19T14:49:08.007Z</time></trkpt><trkpt lat="44.837975048742194" lon="0.5311088455519172"><ele>36.0</ele><time>2026-04-19T14:49:09.007Z</time></trkpt><trkpt lat="44.83792107571838" lon="0.5309988783543297"><ele>36.0</ele><time>2026-04-19T14:49:10.007Z</time></trkpt><trkpt lat="44.837867061230796" lon="0.5308887834378097"><ele>36.0</ele><time>2026-04-19T14:49:11.007Z</time></trkpt><trkpt lat="44.83781243657035" lon="0.5307906250960035"><ele>36.0</ele><time>2026-04-19T14:49:12.007Z</time></trkpt><trkpt lat="44.837750781742116" lon="0.5307312434789562"><ele>36.0</ele><time>2026-04-19T14:49:13.007Z</time></trkpt><trkpt lat="44.837673198096965" lon="0.5307275490283534"><ele>36.0</ele><time>2026-04-19T14:49:14.007Z</time></trkpt><trkpt lat="44.837605991374936" lon="0.5307611322858762"><ele>36.0</ele><time>2026-04-19T14:49:15.008Z</time></trkpt><trkpt lat="44.837492809967394" lon="0.5308411010704344"><ele>36.0</ele><time>2026-04-19T14:49:17.008Z</time></trkpt><trkpt lat="44.83742464147329" lon="0.5307978704063033"><ele>36.0</ele><time>2026-04-19T14:49:26.008Z</time></trkpt><trkpt lat="44.83730477806623" lon="0.5307385419585781"><ele>37.25</ele><time>2026-04-19T14:49:28.008Z</time></trkpt><trkpt lat="44.837211368565434" lon="0.5306586753335192"><ele>38.5</ele><time>2026-04-19T14:49:29.008Z</time></trkpt><trkpt lat="44.83709450772615" lon="0.530528402215299"><ele>39.75</ele><time>2026-04-19T14:49:30.008Z</time></trkpt><trkpt lat="44.836960353492245" lon="0.530383054982765"><ele>41.0</ele><time>2026-04-19T14:49:31.008Z</time></trkpt><trkpt lat="44.836816321071154" lon="0.53021697041279"><ele>43.0</ele><time>2026-04-19T14:49:32.008Z</time></trkpt><trkpt lat="44.836647384442806" lon="0.5300464497470769"><ele>45.0</ele><time>2026-04-19T14:49:33.008Z</time></trkpt><trkpt lat="44.836461139771224" lon="0.5298637057356672"><ele>47.0</ele><time>2026-04-19T14:49:34.008Z</time></trkpt><trkpt lat="44.83626319208605" lon="0.5296675455012986"><ele>47.0</ele><time>2026-04-19T14:49:35.008Z</time></trkpt><trkpt lat="44.83606039159785" lon="0.5294536171763827"><ele>47.0</ele><time>2026-04-19T14:49:36.008Z</time></trkpt><trkpt lat="44.83580392429443" lon="0.5292803394224871"><ele>47.5</ele><time>2026-04-19T14:49:37.008Z</time></trkpt><trkpt lat="44.83558363825059" lon="0.5290371842848614"><ele>48.0</ele><time>2026-04-19T14:49:38.008Z</time></trkpt><trkpt lat="44.83536774822188" lon="0.5287802312902617"><ele>47.0</ele><time>2026-04-19T14:49:39.008Z</time></trkpt><trkpt lat="44.83513699853475" lon="0.5285446143204618"><ele>46.0</ele><time>2026-04-19T14:49:40.008Z</time></trkpt><trkpt lat="44.834920721210196" lon="0.5282544735430639"><ele>46.0</ele><time>2026-04-19T14:49:41.008Z</time></trkpt><trkpt lat="44.834679949555564" lon="0.5280064780270824"><ele>46.0</ele><time>2026-04-19T14:49:42.008Z</time></trkpt><trkpt lat="44.83444441802569" lon="0.5277638796821421"><ele>47.0</ele><time>2026-04-19T14:49:43.008Z</time></trkpt><trkpt lat="44.83422478402602" lon="0.5275376559686614"><ele>48.0</ele><time>2026-04-19T14:49:44.008Z</time></trkpt><trkpt lat="44.83399853120125" lon="0.5273038274301085"><ele>48.0</ele><time>2026-04-19T14:49:45.008Z</time></trkpt><trkpt lat="44.83378377132488" lon="0.5270859363400451"><ele>48.0</ele><time>2026-04-19T14:49:46.008Z</time></trkpt><trkpt lat="44.83357425302578" lon="0.5268712707240296"><ele>47.5</ele><time>2026-04-19T14:49:47.008Z</time></trkpt><trkpt lat="44.83336788180447" lon="0.5266598295628337"><ele>47.0</ele><time>2026-04-19T14:49:48.008Z</time></trkpt><trkpt lat="44.833158031736964" lon="0.526444823976782"><ele>47.0</ele><time>2026-04-19T14:49:49.008Z</time></trkpt><trkpt lat="44.83294825159927" lon="0.526229890015726"><ele>47.0</ele><time>2026-04-19T14:49:50.008Z</time></trkpt><trkpt lat="44.83272990271" lon="0.5260313080985665"><ele>46.5</ele><time>2026-04-19T14:49:51.008Z</time></trkpt><trkpt lat="44.83252591253519" lon="0.5258097871127186"><ele>46.0</ele><time>2026-04-19T14:49:52.008Z</time></trkpt><trkpt lat="44.83234097687738" lon="0.5255719035644338"><ele>46.5</ele><time>2026-04-19T14:49:53.008Z</time></trkpt><trkpt lat="44.83215884136633" lon="0.525343988087645"><ele>47.0</ele><time>2026-04-19T14:49:54.008Z</time></trkpt><trkpt lat="44.83198787552835" lon="0.5250921823235459"><ele>47.0</ele><time>2026-04-19T14:49:55.008Z</time></trkpt><trkpt lat="44.83181956444335" lon="0.5248281060772428"><ele>47.0</ele><time>2026-04-19T14:49:56.008Z</time></trkpt><trkpt lat="44.83166791554047" lon="0.5245432101340796"><ele>46.5</ele><time>2026-04-19T14:49:57.008Z</time></trkpt><trkpt lat="44.83152313168194" lon="0.5242461149539026"><ele>46.0</ele><time>2026-04-19T14:49:58.008Z</time></trkpt><trkpt lat="44.8313872778073" lon="0.5239466019411759"><ele>46.5</ele><time>2026-04-19T14:49:59.008Z</time></trkpt><trkpt lat="44.83126265608027" lon="0.5236244261031411"><ele>47.0</ele><time>2026-04-19T14:50:00.008Z</time></trkpt><trkpt lat="44.83112558637542" lon="0.5232783572446243"><ele>47.0</ele><time>2026-04-19T14:50:01.009Z</time></trkpt><trkpt lat="44.831014933703905" lon="0.5229229637253101"><ele>47.0</ele><time>2026-04-19T14:50:02.009Z</time></trkpt><trkpt lat="44.83090153608978" lon="0.5225652895581409"><ele>47.0</ele><time>2026-04-19T14:50:03.009Z</time></trkpt><trkpt lat="44.830790554919346" lon="0.522206059645792"><ele>47.0</ele><time>2026-04-19T14:50:04.009Z</time></trkpt><trkpt lat="44.830660655188105" lon="0.5218305701723064"><ele>47.0</ele><time>2026-04-19T14:50:05.009Z</time></trkpt><trkpt lat="44.83053911458627" lon="0.5214711737445853"><ele>47.0</ele><time>2026-04-19T14:50:06.009Z</time></trkpt><trkpt lat="44.830413737331824" lon="0.5211074648084182"><ele>46.5</ele><time>2026-04-19T14:50:07.009Z</time></trkpt><trkpt lat="44.83029708420788" lon="0.52075382156336"><ele>46.0</ele><time>2026-04-19T14:50:08.009Z</time></trkpt><trkpt lat="44.83018657040928" lon="0.5204162275034877"><ele>47.5</ele><time>2026-04-19T14:50:09.009Z</time></trkpt><trkpt lat="44.830074705037234" lon="0.5200720211360681"><ele>49.0</ele><time>2026-04-19T14:50:10.009Z</time></trkpt><trkpt lat="44.829960441323905" lon="0.5197261245168919"><ele>49.0</ele><time>2026-04-19T14:50:11.009Z</time></trkpt><trkpt lat="44.82984819255551" lon="0.5193928190604427"><ele>49.0</ele><time>2026-04-19T14:50:12.009Z</time></trkpt><trkpt lat="44.8297357291505" lon="0.5190543808037653"><ele>48.5</ele><time>2026-04-19T14:50:13.006Z</time></trkpt><trkpt lat="44.82962592334229" lon="0.5187289598579528"><ele>48.0</ele><time>2026-04-19T14:50:14.006Z</time></trkpt><trkpt lat="44.82950485901505" lon="0.5184036640992877"><ele>48.0</ele><time>2026-04-19T14:50:15.006Z</time></trkpt><trkpt lat="44.8293981219676" lon="0.5180515604045353"><ele>48.0</ele><time>2026-04-19T14:50:16.005Z</time></trkpt><trkpt lat="44.829280217814414" lon="0.5176984811568311"><ele>48.5</ele><time>2026-04-19T14:50:17.006Z</time></trkpt><trkpt lat="44.829158469668094" lon="0.5173780518603784"><ele>49.0</ele><time>2026-04-19T14:50:18.006Z</time></trkpt><trkpt lat="44.82905927774062" lon="0.5170605471039992"><ele>49.0</ele><time>2026-04-19T14:50:19.006Z</time></trkpt><trkpt lat="44.82895731535904" lon="0.5167600406507009"><ele>49.0</ele><time>2026-04-19T14:50:20.005Z</time></trkpt><trkpt lat="44.828860490833954" lon="0.5164415542973494"><ele>48.5</ele><time>2026-04-19T14:50:21.005Z</time></trkpt><trkpt lat="44.82874881058062" lon="0.5161075756361697"><ele>48.0</ele><time>2026-04-19T14:50:22.006Z</time></trkpt><trkpt lat="44.82863334923056" lon="0.5157624768675682"><ele>48.0</ele><time>2026-04-19T14:50:23.006Z</time></trkpt><trkpt lat="44.82851554427288" lon="0.5154103733474205"><ele>48.0</ele><time>2026-04-19T14:50:24.006Z</time></trkpt><trkpt lat="44.82838395554518" lon="0.5150618519754633"><ele>49.0</ele><time>2026-04-19T14:50:25.005Z</time></trkpt><trkpt lat="44.82826838477256" lon="0.514667821033423"><ele>50.0</ele><time>2026-04-19T14:50:26.005Z</time></trkpt><trkpt lat="44.828141307860044" lon="0.5142929673128832"><ele>50.5</ele><time>2026-04-19T14:50:27.005Z</time></trkpt><trkpt lat="44.82801559455046" lon="0.5139210531560272"><ele>51.0</ele><time>2026-04-19T14:50:28.006Z</time></trkpt><trkpt lat="44.827896891437824" lon="0.5135555683649251"><ele>50.0</ele><time>2026-04-19T14:50:29.006Z</time></trkpt><trkpt lat="44.82777513819239" lon="0.5131838210994261"><ele>49.0</ele><time>2026-04-19T14:50:30.006Z</time></trkpt><trkpt lat="44.82765037026694" lon="0.5128082353334614"><ele>50.0</ele><time>2026-04-19T14:50:31.006Z</time></trkpt><trkpt lat="44.82752522053825" lon="0.5124388009319459"><ele>51.0</ele><time>2026-04-19T14:50:32.006Z</time></trkpt><trkpt lat="44.82741194874065" lon="0.5120740860172172"><ele>51.0</ele><time>2026-04-19T14:50:33.006Z</time></trkpt><trkpt lat="44.827338743714385" lon="0.5117011758973978"><ele>51.0</ele><time>2026-04-19T14:50:34.006Z</time></trkpt><trkpt lat="44.82727036759187" lon="0.5113243942697272"><ele>51.0</ele><time>2026-04-19T14:50:35.006Z</time></trkpt><trkpt lat="44.827216925257794" lon="0.5109498414882808"><ele>51.0</ele><time>2026-04-19T14:50:36.006Z</time></trkpt><trkpt lat="44.82717846866653" lon="0.5105709848303255"><ele>49.5</ele><time>2026-04-19T14:50:37.006Z</time></trkpt><trkpt lat="44.827157495613115" lon="0.5101759952581273"><ele>48.0</ele><time>2026-04-19T14:50:38.006Z</time></trkpt><trkpt lat="44.827151652158435" lon="0.5097901455336991"><ele>48.5</ele><time>2026-04-19T14:50:39.006Z</time></trkpt><trkpt lat="44.8271649836993" lon="0.509402290230567"><ele>49.0</ele><time>2026-04-19T14:50:40.006Z</time></trkpt><trkpt lat="44.82717795168784" lon="0.5090184131199844"><ele>48.5</ele><time>2026-04-19T14:50:41.006Z</time></trkpt><trkpt lat="44.827225785827146" lon="0.5086342266530604"><ele>48.0</ele><time>2026-04-19T14:50:42.006Z</time></trkpt><trkpt lat="44.827303900447475" lon="0.5082591653298754"><ele>48.5</ele><time>2026-04-19T14:50:43.006Z</time></trkpt><trkpt lat="44.82738174204328" lon="0.5078929982078579"><ele>49.0</ele><time>2026-04-19T14:50:44.006Z</time></trkpt><trkpt lat="44.827478280959205" lon="0.5075308755336161"><ele>49.0</ele><time>2026-04-19T14:50:45.006Z</time></trkpt><trkpt lat="44.82758402991005" lon="0.507182673415877"><ele>49.0</ele><time>2026-04-19T14:50:46.006Z</time></trkpt><trkpt lat="44.82769912684237" lon="0.506856053219651"><ele>48.5</ele><time>2026-04-19T14:50:47.006Z</time></trkpt><trkpt lat="44.82780874963523" lon="0.5065224822284394"><ele>48.0</ele><time>2026-04-19T14:50:48.006Z</time></trkpt><trkpt lat="44.827931207694824" lon="0.5062083841494419"><ele>48.0</ele><time>2026-04-19T14:50:49.006Z</time></trkpt><trkpt lat="44.82803589016063" lon="0.50588874944319"><ele>48.0</ele><time>2026-04-19T14:50:50.006Z</time></trkpt><trkpt lat="44.82813055612221" lon="0.5055831517117284"><ele>47.5</ele><time>2026-04-19T14:50:51.006Z</time></trkpt><trkpt lat="44.82819033179957" lon="0.5052657971673972"><ele>47.0</ele><time>2026-04-19T14:50:52.006Z</time></trkpt><trkpt lat="44.82823046832603" lon="0.5049444271029624"><ele>47.0</ele><time>2026-04-19T14:50:53.006Z</time></trkpt><trkpt lat="44.82832956683027" lon="0.5043317531982642"><ele>47.0</ele><time>2026-04-19T14:50:55.006Z</time></trkpt><trkpt lat="44.828264675892825" lon="0.5040117549471145"><ele>46.666666666666664</ele><time>2026-04-19T14:50:56.006Z</time></trkpt><trkpt lat="44.828209236498274" lon="0.5037112879356858"><ele>46.333333333333336</ele><time>2026-04-19T14:50:57.006Z</time></trkpt><trkpt lat="44.828131659436764" lon="0.5034316822235864"><ele>46.0</ele><time>2026-04-19T14:50:58.006Z</time></trkpt><trkpt lat="44.82804118405925" lon="0.5031808011240992"><ele>46.0</ele><time>2026-04-19T14:50:59.006Z</time></trkpt><trkpt lat="44.82795456146591" lon="0.5029668266077109"><ele>46.0</ele><time>2026-04-19T14:51:00.006Z</time></trkpt><trkpt lat="44.82787285167948" lon="0.5027707219657065"><ele>46.0</ele><time>2026-04-19T14:51:01.006Z</time></trkpt><trkpt lat="44.82779492284724" lon="0.5026008508745313"><ele>46.0</ele><time>2026-04-19T14:51:02.006Z</time></trkpt><trkpt lat="44.82771969889853" lon="0.5024584881666798"><ele>46.0</ele><time>2026-04-19T14:51:03.006Z</time></trkpt><trkpt lat="44.82765931324578" lon="0.5023318746287289"><ele>46.0</ele><time>2026-04-19T14:51:04.006Z</time></trkpt><trkpt lat="44.82762584314956" lon="0.5022290285418144"><ele>46.0</ele><time>2026-04-19T14:51:05.006Z</time></trkpt><trkpt lat="44.82762330839854" lon="0.5021106833301592"><ele>46.0</ele><time>2026-04-19T14:51:06.006Z</time></trkpt><trkpt lat="44.827625055541255" lon="0.5019844270516619"><ele>46.8</ele><time>2026-04-19T14:51:07.006Z</time></trkpt><trkpt lat="44.8276347053227" lon="0.5018447233522734"><ele>47.599999999999994</ele><time>2026-04-19T14:51:08.006Z</time></trkpt><trkpt lat="44.82759186882134" lon="0.5017157485980812"><ele>48.4</ele><time>2026-04-19T14:51:09.006Z</time></trkpt><trkpt lat="44.827521934997115" lon="0.5016251768518397"><ele>49.2</ele><time>2026-04-19T14:51:10.006Z</time></trkpt><trkpt lat="44.82743495346566" lon="0.5015314582812795"><ele>50.0</ele><time>2026-04-19T14:51:11.006Z</time></trkpt><trkpt lat="44.82734835024934" lon="0.5014223685935864"><ele>50.0</ele><time>2026-04-19T14:51:12.006Z</time></trkpt><trkpt lat="44.82728444629541" lon="0.5012787589449031"><ele>50.0</ele><time>2026-04-19T14:51:13.006Z</time></trkpt><trkpt lat="44.827229338585155" lon="0.5010678971214941"><ele>50.0</ele><time>2026-04-19T14:51:14.007Z</time></trkpt><trkpt lat="44.82719123510793" lon="0.5008441266877378"><ele>50.0</ele><time>2026-04-19T14:51:15.007Z</time></trkpt><trkpt lat="44.82716315824593" lon="0.5005934747710612"><ele>50.0</ele><time>2026-04-19T14:51:16.007Z</time></trkpt><trkpt lat="44.8271353656469" lon="0.5002880561958212"><ele>50.0</ele><time>2026-04-19T14:51:17.007Z</time></trkpt><trkpt lat="44.82712281009849" lon="0.4999352330699019"><ele>50.0</ele><time>2026-04-19T14:51:18.007Z</time></trkpt><trkpt lat="44.82711414927803" lon="0.4995631970030167"><ele>50.0</ele><time>2026-04-19T14:51:19.007Z</time></trkpt><trkpt lat="44.827094112452556" lon="0.4991909966663448"><ele>50.0</ele><time>2026-04-19T14:51:20.007Z</time></trkpt><trkpt lat="44.82706606255061" lon="0.4987941560264303"><ele>50.0</ele><time>2026-04-19T14:51:21.007Z</time></trkpt><trkpt lat="44.827038235149075" lon="0.4983974009986514"><ele>48.5</ele><time>2026-04-19T14:51:22.007Z</time></trkpt><trkpt lat="44.82700279831253" lon="0.49799795265177005"><ele>47.0</ele><time>2026-04-19T14:51:23.007Z</time></trkpt><trkpt lat="44.82695627120336" lon="0.4975903639762326"><ele>47.0</ele><time>2026-04-19T14:51:24.007Z</time></trkpt><trkpt lat="44.82691197399239" lon="0.49718281709390355"><ele>47.0</ele><time>2026-04-19T14:51:25.007Z</time></trkpt><trkpt lat="44.826873447135895" lon="0.49677774365760347"><ele>46.0</ele><time>2026-04-19T14:51:26.007Z</time></trkpt><trkpt lat="44.8268357881972" lon="0.49635960750342617"><ele>45.0</ele><time>2026-04-19T14:51:27.007Z</time></trkpt><trkpt lat="44.82679689181571" lon="0.4959480597427831"><ele>45.0</ele><time>2026-04-19T14:51:28.007Z</time></trkpt><trkpt lat="44.826750081223366" lon="0.49553584619242635"><ele>45.0</ele><time>2026-04-19T14:51:29.007Z</time></trkpt><trkpt lat="44.82670616506261" lon="0.49512458544443994"><ele>44.0</ele><time>2026-04-19T14:51:30.007Z</time></trkpt><trkpt lat="44.82666227366845" lon="0.49470879841666293"><ele>43.0</ele><time>2026-04-19T14:51:31.007Z</time></trkpt><trkpt lat="44.82661840251355" lon="0.4942897200959006"><ele>41.5</ele><time>2026-04-19T14:51:32.007Z</time></trkpt><trkpt lat="44.82657632151415" lon="0.4938747031142536"><ele>40.0</ele><time>2026-04-19T14:51:33.007Z</time></trkpt><trkpt lat="44.82653373332937" lon="0.49345840113364176"><ele>40.0</ele><time>2026-04-19T14:51:34.007Z</time></trkpt><trkpt lat="44.826507486883706" lon="0.49303319269722384"><ele>40.0</ele><time>2026-04-19T14:51:35.007Z</time></trkpt><trkpt lat="44.82646505212991" lon="0.4926259245485342"><ele>40.0</ele><time>2026-04-19T14:51:36.007Z</time></trkpt><trkpt lat="44.82642026624381" lon="0.4922260433969821"><ele>40.0</ele><time>2026-04-19T14:51:37.007Z</time></trkpt><trkpt lat="44.82637680396046" lon="0.4918407831328875"><ele>40.0</ele><time>2026-04-19T14:51:38.007Z</time></trkpt><trkpt lat="44.82633517391031" lon="0.4914861380514467"><ele>40.0</ele><time>2026-04-19T14:51:39.007Z</time></trkpt><trkpt lat="44.826303086268936" lon="0.49114472055041036"><ele>40.0</ele><time>2026-04-19T14:51:40.007Z</time></trkpt><trkpt lat="44.826259443567594" lon="0.49084182123153014"><ele>40.0</ele><time>2026-04-19T14:51:41.007Z</time></trkpt><trkpt lat="44.82624437140729" lon="0.4905591038262627"><ele>40.0</ele><time>2026-04-19T14:51:42.007Z</time></trkpt><trkpt lat="44.82621215343587" lon="0.49029123254775375"><ele>40.66666666666667</ele><time>2026-04-19T14:51:43.008Z</time></trkpt><trkpt lat="44.826190041629914" lon="0.4900105594645901"><ele>41.333333333333336</ele><time>2026-04-19T14:51:44.008Z</time></trkpt><trkpt lat="44.82616791447092" lon="0.48976660689956114"><ele>42.0</ele><time>2026-04-19T14:51:45.008Z</time></trkpt><trkpt lat="44.826145664380796" lon="0.4895409348843367"><ele>42.666666666666664</ele><time>2026-04-19T14:51:46.008Z</time></trkpt><trkpt lat="44.82613596034496" lon="0.4893157619423124"><ele>43.33333333333333</ele><time>2026-04-19T14:51:47.008Z</time></trkpt><trkpt lat="44.8261323836363" lon="0.48910316906514734"><ele>44.0</ele><time>2026-04-19T14:51:48.008Z</time></trkpt><trkpt lat="44.82613378943261" lon="0.4889032698975801"><ele>44.5</ele><time>2026-04-19T14:51:49.008Z</time></trkpt><trkpt lat="44.82613925221138" lon="0.48871293649587877"><ele>45.0</ele><time>2026-04-19T14:51:50.008Z</time></trkpt><trkpt lat="44.82615766229475" lon="0.4885408200826064"><ele>45.5</ele><time>2026-04-19T14:51:51.008Z</time></trkpt><trkpt lat="44.82617371345495" lon="0.4883739478426216"><ele>46.0</ele><time>2026-04-19T14:51:52.008Z</time></trkpt><trkpt lat="44.82619227445189" lon="0.4882187167775033"><ele>46.0</ele><time>2026-04-19T14:51:53.008Z</time></trkpt><trkpt lat="44.826222203995364" lon="0.4880691579984504"><ele>46.0</ele><time>2026-04-19T14:51:54.008Z</time></trkpt><trkpt lat="44.82626719394071" lon="0.4879285472078873"><ele>46.0</ele><time>2026-04-19T14:51:55.008Z</time></trkpt><trkpt lat="44.82631940338502" lon="0.48781275827672116"><ele>46.0</ele><time>2026-04-19T14:51:56.008Z</time></trkpt><trkpt lat="44.82639387497708" lon="0.4877022972833011"><ele>46.0</ele><time>2026-04-19T14:51:57.008Z</time></trkpt><trkpt lat="44.826443104343156" lon="0.4875699630434676"><ele>46.0</ele><time>2026-04-19T14:51:58.009Z</time></trkpt><trkpt lat="44.82644562608023" lon="0.4874158587598025"><ele>46.0</ele><time>2026-04-19T14:51:59.009Z</time></trkpt><trkpt lat="44.826430616624975" lon="0.48727849980245347"><ele>46.0</ele><time>2026-04-19T14:52:00.009Z</time></trkpt><trkpt lat="44.826411028188424" lon="0.4871316042613794"><ele>46.0</ele><time>2026-04-19T14:52:01.009Z</time></trkpt><trkpt lat="44.82641204410592" lon="0.48697519188177546"><ele>46.0</ele><time>2026-04-19T14:52:02.009Z</time></trkpt><trkpt lat="44.82647080383342" lon="0.486789538104264"><ele>46.333333333333336</ele><time>2026-04-19T14:52:03.009Z</time></trkpt><trkpt lat="44.82653726349859" lon="0.48659360706536847"><ele>46.666666666666664</ele><time>2026-04-19T14:52:04.009Z</time></trkpt><trkpt lat="44.82659946303685" lon="0.48637341824728525"><ele>47.0</ele><time>2026-04-19T14:52:05.009Z</time></trkpt><trkpt lat="44.82665539250423" lon="0.4861175705615144"><ele>46.666666666666664</ele><time>2026-04-19T14:52:06.009Z</time></trkpt><trkpt lat="44.82671461404169" lon="0.4858393679043232"><ele>46.333333333333336</ele><time>2026-04-19T14:52:07.009Z</time></trkpt><trkpt lat="44.82677988349666" lon="0.48556736294258795"><ele>46.0</ele><time>2026-04-19T14:52:08.009Z</time></trkpt><trkpt lat="44.82683790327584" lon="0.48531418196425324"><ele>46.0</ele><time>2026-04-19T14:52:09.009Z</time></trkpt><trkpt lat="44.82689513255192" lon="0.48507202521049164"><ele>46.0</ele><time>2026-04-19T14:52:10.009Z</time></trkpt><trkpt lat="44.82695824066239" lon="0.48482839274152817"><ele>46.0</ele><time>2026-04-19T14:52:11.009Z</time></trkpt><trkpt lat="44.8270168343262" lon="0.4845820115632349"><ele>45.66666666666667</ele><time>2026-04-19T14:52:12.009Z</time></trkpt><trkpt lat="44.827075846173244" lon="0.48434139907920387"><ele>45.333333333333336</ele><time>2026-04-19T14:52:13.009Z</time></trkpt><trkpt lat="44.8271427804308" lon="0.4841030092300891"><ele>45.0</ele><time>2026-04-19T14:52:14.009Z</time></trkpt><trkpt lat="44.8272014732525" lon="0.4838631320001118"><ele>44.666666666666664</ele><time>2026-04-19T14:52:15.009Z</time></trkpt><trkpt lat="44.827266826216594" lon="0.4836102372801597"><ele>44.33333333333333</ele><time>2026-04-19T14:52:16.009Z</time></trkpt><trkpt lat="44.827331239011336" lon="0.483368314409835"><ele>44.0</ele><time>2026-04-19T14:52:17.009Z</time></trkpt><trkpt lat="44.82738663219877" lon="0.4831179268318603"><ele>44.0</ele><time>2026-04-19T14:52:18.009Z</time></trkpt><trkpt lat="44.827442308976664" lon="0.48287594461467176"><ele>44.0</ele><time>2026-04-19T14:52:19.006Z</time></trkpt><trkpt lat="44.82749984079178" lon="0.482637970730871"><ele>44.0</ele><time>2026-04-19T14:52:20.005Z</time></trkpt><trkpt lat="44.82756242271553" lon="0.48239934151490266"><ele>44.0</ele><time>2026-04-19T14:52:21.005Z</time></trkpt><trkpt lat="44.82763099112053" lon="0.48217537316696296"><ele>44.0</ele><time>2026-04-19T14:52:22.005Z</time></trkpt><trkpt lat="44.82768992370756" lon="0.4819569640428952"><ele>44.0</ele><time>2026-04-19T14:52:23.005Z</time></trkpt><trkpt lat="44.82773920233421" lon="0.4817323265976825"><ele>43.0</ele><time>2026-04-19T14:52:24.005Z</time></trkpt><trkpt lat="44.827793456281654" lon="0.4815084421899062"><ele>42.0</ele><time>2026-04-19T14:52:25.005Z</time></trkpt><trkpt lat="44.82784690961122" lon="0.4812984938135242"><ele>41.0</ele><time>2026-04-19T14:52:26.005Z</time></trkpt><trkpt lat="44.82789123077641" lon="0.4810792346703235"><ele>41.0</ele><time>2026-04-19T14:52:27.005Z</time></trkpt><trkpt lat="44.82794126794531" lon="0.48087206149529516"><ele>41.0</ele><time>2026-04-19T14:52:28.006Z</time></trkpt><trkpt lat="44.827992738151025" lon="0.4806465907610037"><ele>41.0</ele><time>2026-04-19T14:52:29.005Z</time></trkpt><trkpt lat="44.82804189623844" lon="0.4804366467856687"><ele>40.666666666666664</ele><time>2026-04-19T14:52:30.005Z</time></trkpt><trkpt lat="44.828091917827386" lon="0.480222699833013"><ele>40.333333333333336</ele><time>2026-04-19T14:52:31.006Z</time></trkpt><trkpt lat="44.828143077193474" lon="0.4800140464860392"><ele>40.0</ele><time>2026-04-19T14:52:32.005Z</time></trkpt><trkpt lat="44.828186953528096" lon="0.47981625375248566"><ele>40.0</ele><time>2026-04-19T14:52:33.005Z</time></trkpt><trkpt lat="44.82823144824587" lon="0.47962960581709235"><ele>40.0</ele><time>2026-04-19T14:52:34.005Z</time></trkpt><trkpt lat="44.828279862807925" lon="0.47945797842037857"><ele>40.0</ele><time>2026-04-19T14:52:35.005Z</time></trkpt><trkpt lat="44.82832841252091" lon="0.4792898149649246"><ele>40.0</ele><time>2026-04-19T14:52:36.005Z</time></trkpt><trkpt lat="44.828379309484845" lon="0.4791377668562238"><ele>40.25</ele><time>2026-04-19T14:52:37.005Z</time></trkpt><trkpt lat="44.82843231757883" lon="0.4789886274156543"><ele>40.5</ele><time>2026-04-19T14:52:38.005Z</time></trkpt><trkpt lat="44.8284916773349" lon="0.4788356786574191"><ele>40.75</ele><time>2026-04-19T14:52:39.005Z</time></trkpt><trkpt lat="44.82854787334431" lon="0.4787022354670747"><ele>41.0</ele><time>2026-04-19T14:52:40.005Z</time></trkpt><trkpt lat="44.828591555470034" lon="0.4785643388539226"><ele>41.0</ele><time>2026-04-19T14:52:41.005Z</time></trkpt><trkpt lat="44.828634690063055" lon="0.47845202826184996"><ele>41.0</ele><time>2026-04-19T14:52:42.005Z</time></trkpt><trkpt lat="44.828694134886476" lon="0.4783591599896119"><ele>41.0</ele><time>2026-04-19T14:52:43.005Z</time></trkpt><trkpt lat="44.8287673792947" lon="0.4782868818928879"><ele>41.0</ele><time>2026-04-19T14:52:44.005Z</time></trkpt><trkpt lat="44.82885659139477" lon="0.47822898063084324"><ele>41.0</ele><time>2026-04-19T14:52:45.005Z</time></trkpt><trkpt lat="44.82892946804916" lon="0.47814179653561256"><ele>41.0</ele><time>2026-04-19T14:52:46.005Z</time></trkpt><trkpt lat="44.82897594779186" lon="0.47801324120222843"><ele>41.0</ele><time>2026-04-19T14:52:47.005Z</time></trkpt><trkpt lat="44.828980938842484" lon="0.4778575686300779"><ele>41.0</ele><time>2026-04-19T14:52:48.005Z</time></trkpt><trkpt lat="44.82893824948455" lon="0.4777095686705834"><ele>41.0</ele><time>2026-04-19T14:52:49.005Z</time></trkpt><trkpt lat="44.828888226690566" lon="0.4775769421944489"><ele>41.0</ele><time>2026-04-19T14:52:50.005Z</time></trkpt><trkpt lat="44.82884764395454" lon="0.4774229681541829"><ele>40.75</ele><time>2026-04-19T14:52:51.005Z</time></trkpt><trkpt lat="44.82882337603579" lon="0.477256899576912"><ele>40.5</ele><time>2026-04-19T14:52:52.005Z</time></trkpt><trkpt lat="44.828870923574215" lon="0.47706349586204816"><ele>40.25</ele><time>2026-04-19T14:52:53.005Z</time></trkpt><trkpt lat="44.828905167342455" lon="0.47683449070175216"><ele>40.0</ele><time>2026-04-19T14:52:54.005Z</time></trkpt><trkpt lat="44.82895146286761" lon="0.4765637864127683"><ele>40.0</ele><time>2026-04-19T14:52:55.005Z</time></trkpt><trkpt lat="44.82900787315048" lon="0.4762756093665462"><ele>40.0</ele><time>2026-04-19T14:52:56.006Z</time></trkpt><trkpt lat="44.82905619633713" lon="0.4759759702282515"><ele>40.0</ele><time>2026-04-19T14:52:57.006Z</time></trkpt><trkpt lat="44.82911631306716" lon="0.4756834207473614"><ele>39.0</ele><time>2026-04-19T14:52:58.006Z</time></trkpt><trkpt lat="44.82917465002987" lon="0.4754085405393184"><ele>38.0</ele><time>2026-04-19T14:52:59.006Z</time></trkpt><trkpt lat="44.82922877700621" lon="0.4751345201301434"><ele>37.0</ele><time>2026-04-19T14:53:00.006Z</time></trkpt><trkpt lat="44.82927660485232" lon="0.47488145317991476"><ele>36.0</ele><time>2026-04-19T14:53:01.006Z</time></trkpt><trkpt lat="44.82932919777825" lon="0.4746237606546135"><ele>35.0</ele><time>2026-04-19T14:53:02.006Z</time></trkpt><trkpt lat="44.82937739884206" lon="0.47437036183517906"><ele>34.0</ele><time>2026-04-19T14:53:03.006Z</time></trkpt><trkpt lat="44.8294158574124" lon="0.474113865403278"><ele>33.66666666666667</ele><time>2026-04-19T14:53:04.006Z</time></trkpt><trkpt lat="44.82945172269114" lon="0.4738628489273364"><ele>33.333333333333336</ele><time>2026-04-19T14:53:05.006Z</time></trkpt><trkpt lat="44.829479126465024" lon="0.47359545286776117"><ele>33.0</ele><time>2026-04-19T14:53:06.006Z</time></trkpt><trkpt lat="44.829506611257464" lon="0.4733242422521221"><ele>33.0</ele><time>2026-04-19T14:53:07.006Z</time></trkpt><trkpt lat="44.829521903783075" lon="0.4730281012957455"><ele>33.0</ele><time>2026-04-19T14:53:08.006Z</time></trkpt><trkpt lat="44.8295429333278" lon="0.4727278137477022"><ele>33.0</ele><time>2026-04-19T14:53:09.006Z</time></trkpt><trkpt lat="44.829576275036345" lon="0.472396306123991"><ele>34.5</ele><time>2026-04-19T14:53:10.006Z</time></trkpt><trkpt lat="44.82959295355609" lon="0.47206158491695766"><ele>36.0</ele><time>2026-04-19T14:53:11.006Z</time></trkpt><trkpt lat="44.829608826798975" lon="0.4717430243825135"><ele>36.0</ele><time>2026-04-19T14:53:12.006Z</time></trkpt><trkpt lat="44.82961003981703" lon="0.4714392066833238"><ele>36.0</ele><time>2026-04-19T14:53:13.006Z</time></trkpt><trkpt lat="44.82963614373734" lon="0.47114754136405723"><ele>36.0</ele><time>2026-04-19T14:53:14.006Z</time></trkpt><trkpt lat="44.82965220806849" lon="0.4708143903766979"><ele>35.666666666666664</ele><time>2026-04-19T14:53:15.006Z</time></trkpt><trkpt lat="44.829662197490826" lon="0.47049215597029015"><ele>35.33333333333333</ele><time>2026-04-19T14:53:16.006Z</time></trkpt><trkpt lat="44.8296803699389" lon="0.47020674914971633"><ele>35.0</ele><time>2026-04-19T14:53:17.006Z</time></trkpt><trkpt lat="44.829695203948546" lon="0.4699434881671257"><ele>34.33333333333333</ele><time>2026-04-19T14:53:18.006Z</time></trkpt><trkpt lat="44.82970185497963" lon="0.46970356218989034"><ele>33.666666666666664</ele><time>2026-04-19T14:53:19.006Z</time></trkpt><trkpt lat="44.82970959081851" lon="0.469487820950356"><ele>33.0</ele><time>2026-04-19T14:53:20.006Z</time></trkpt><trkpt lat="44.8297185061309" lon="0.4692943704996129"><ele>33.0</ele><time>2026-04-19T14:53:21.006Z</time></trkpt><trkpt lat="44.829727456620866" lon="0.46912675209927907"><ele>33.0</ele><time>2026-04-19T14:53:22.006Z</time></trkpt><trkpt lat="44.82974254022042" lon="0.4689973796495788"><ele>33.0</ele><time>2026-04-19T14:53:23.006Z</time></trkpt><trkpt lat="44.82976789716001" lon="0.46888159418238484"><ele>33.0</ele><time>2026-04-19T14:53:24.006Z</time></trkpt><trkpt lat="44.82978847693731" lon="0.468775170156395"><ele>33.0</ele><time>2026-04-19T14:53:25.006Z</time></trkpt><trkpt lat="44.829824276504986" lon="0.46866514177611496"><ele>33.0</ele><time>2026-04-19T14:53:26.006Z</time></trkpt><trkpt lat="44.82990415969813" lon="0.46858987305695265"><ele>33.0</ele><time>2026-04-19T14:53:27.006Z</time></trkpt><trkpt lat="44.82994150584286" lon="0.4684943337875187"><ele>33.0</ele><time>2026-04-19T14:53:28.006Z</time></trkpt><trkpt lat="44.82997090545291" lon="0.46840869640312205"><ele>33.0</ele><time>2026-04-19T14:53:29.006Z</time></trkpt><trkpt lat="44.82995343148986" lon="0.46827976092497875"><ele>33.0</ele><time>2026-04-19T14:53:30.006Z</time></trkpt><trkpt lat="44.82991381086653" lon="0.4681656799852121"><ele>33.0</ele><time>2026-04-19T14:53:31.006Z</time></trkpt><trkpt lat="44.82987576724665" lon="0.4680583890798018"><ele>33.0</ele><time>2026-04-19T14:53:32.006Z</time></trkpt><trkpt lat="44.829857207990244" lon="0.46794049263092014"><ele>33.0</ele><time>2026-04-19T14:53:33.006Z</time></trkpt><trkpt lat="44.829862621946134" lon="0.4677950153734948"><ele>33.0</ele><time>2026-04-19T14:53:34.006Z</time></trkpt><trkpt lat="44.82990390328404" lon="0.4676397768089814"><ele>33.0</ele><time>2026-04-19T14:53:35.006Z</time></trkpt><trkpt lat="44.82991305062915" lon="0.46746988960836794"><ele>33.0</ele><time>2026-04-19T14:53:36.006Z</time></trkpt><trkpt lat="44.82995735375307" lon="0.46729573047784007"><ele>33.0</ele><time>2026-04-19T14:53:37.006Z</time></trkpt><trkpt lat="44.829976587576965" lon="0.46712033814691345"><ele>33.0</ele><time>2026-04-19T14:53:38.006Z</time></trkpt><trkpt lat="44.830025164438666" lon="0.4669421047425559"><ele>33.0</ele><time>2026-04-19T14:53:39.006Z</time></trkpt><trkpt lat="44.830067845859496" lon="0.46674464190613607"><ele>33.0</ele><time>2026-04-19T14:53:40.006Z</time></trkpt><trkpt lat="44.830155764808055" lon="0.4665353155814527"><ele>32.333333333333336</ele><time>2026-04-19T14:53:41.006Z</time></trkpt><trkpt lat="44.83018334046708" lon="0.46628657451361427"><ele>31.666666666666668</ele><time>2026-04-19T14:53:42.006Z</time></trkpt><trkpt lat="44.83022277100322" lon="0.4659902812691687"><ele>31.0</ele><time>2026-04-19T14:53:43.007Z</time></trkpt><trkpt lat="44.83029020632469" lon="0.46568842510413794"><ele>31.5</ele><time>2026-04-19T14:53:44.007Z</time></trkpt><trkpt lat="44.830378343725904" lon="0.46539167071138654"><ele>32.0</ele><time>2026-04-19T14:53:45.007Z</time></trkpt><trkpt lat="44.830458179054446" lon="0.46509076247705444"><ele>32.0</ele><time>2026-04-19T14:53:46.007Z</time></trkpt><trkpt lat="44.83053595130853" lon="0.46477593384293275"><ele>32.0</ele><time>2026-04-19T14:53:47.007Z</time></trkpt><trkpt lat="44.83060603100121" lon="0.4644457817385346"><ele>32.0</ele><time>2026-04-19T14:53:48.007Z</time></trkpt><trkpt lat="44.83067799932079" lon="0.46412057885318797"><ele>32.0</ele><time>2026-04-19T14:53:49.007Z</time></trkpt><trkpt lat="44.830755727429384" lon="0.46379369689422356"><ele>32.5</ele><time>2026-04-19T14:53:50.007Z</time></trkpt><trkpt lat="44.83083451743806" lon="0.46345107806246644"><ele>33.0</ele><time>2026-04-19T14:53:51.007Z</time></trkpt><trkpt lat="44.83090997921436" lon="0.46310773201072974"><ele>31.0</ele><time>2026-04-19T14:53:52.007Z</time></trkpt><trkpt lat="44.83097681954146" lon="0.4627636052937601"><ele>29.0</ele><time>2026-04-19T14:53:53.007Z</time></trkpt><trkpt lat="44.83105290593668" lon="0.46239651946417704"><ele>30.0</ele><time>2026-04-19T14:53:54.007Z</time></trkpt><trkpt lat="44.831126761688495" lon="0.4620616760161425"><ele>31.0</ele><time>2026-04-19T14:53:55.007Z</time></trkpt><trkpt lat="44.83119330685842" lon="0.4617223114674366"><ele>31.0</ele><time>2026-04-19T14:53:56.007Z</time></trkpt><trkpt lat="44.831267834985" lon="0.46137516658650335"><ele>31.0</ele><time>2026-04-19T14:53:57.007Z</time></trkpt><trkpt lat="44.83135229910231" lon="0.46103822856190624"><ele>31.5</ele><time>2026-04-19T14:53:58.007Z</time></trkpt><trkpt lat="44.83143646463326" lon="0.4606975601092203"><ele>32.0</ele><time>2026-04-19T14:53:59.007Z</time></trkpt><trkpt lat="44.83151579709368" lon="0.460358851820502"><ele>32.0</ele><time>2026-04-19T14:54:00.007Z</time></trkpt><trkpt lat="44.83158419329397" lon="0.46001708671235847"><ele>32.0</ele><time>2026-04-19T14:54:01.007Z</time></trkpt><trkpt lat="44.83166042518073" lon="0.45969413325968395"><ele>32.0</ele><time>2026-04-19T14:54:02.007Z</time></trkpt><trkpt lat="44.83173556993709" lon="0.45937499446216984"><ele>32.0</ele><time>2026-04-19T14:54:03.007Z</time></trkpt><trkpt lat="44.831798544570255" lon="0.45906019781643365"><ele>31.0</ele><time>2026-04-19T14:54:04.007Z</time></trkpt><trkpt lat="44.83186720877568" lon="0.4587539386203467"><ele>30.0</ele><time>2026-04-19T14:54:05.007Z</time></trkpt><trkpt lat="44.83192146074569" lon="0.45846825453773926"><ele>29.0</ele><time>2026-04-19T14:54:06.007Z</time></trkpt><trkpt lat="44.83197267369716" lon="0.45816777699717115"><ele>29.0</ele><time>2026-04-19T14:54:07.007Z</time></trkpt><trkpt lat="44.832036842012535" lon="0.45787681634308786"><ele>29.0</ele><time>2026-04-19T14:54:08.007Z</time></trkpt><trkpt lat="44.83208615888674" lon="0.4576010860123284"><ele>29.0</ele><time>2026-04-19T14:54:09.007Z</time></trkpt><trkpt lat="44.832146966920874" lon="0.4573197187697944"><ele>28.666666666666664</ele><time>2026-04-19T14:54:10.007Z</time></trkpt><trkpt lat="44.832231631413805" lon="0.45704368694536474"><ele>28.333333333333336</ele><time>2026-04-19T14:54:11.007Z</time></trkpt><trkpt lat="44.8322909045468" lon="0.4567746769022513"><ele>28.0</ele><time>2026-04-19T14:54:12.007Z</time></trkpt><trkpt lat="44.83233652014762" lon="0.45649212594945365"><ele>28.333333333333336</ele><time>2026-04-19T14:54:13.007Z</time></trkpt><trkpt lat="44.83238567064016" lon="0.4562147519075295"><ele>28.666666666666664</ele><time>2026-04-19T14:54:14.007Z</time></trkpt><trkpt lat="44.83244156984912" lon="0.45593510253401526"><ele>29.0</ele><time>2026-04-19T14:54:15.007Z</time></trkpt><trkpt lat="44.83248807729988" lon="0.455655502878206"><ele>29.0</ele><time>2026-04-19T14:54:16.007Z</time></trkpt><trkpt lat="44.83254237679566" lon="0.4553781748503962"><ele>29.0</ele><time>2026-04-19T14:54:17.007Z</time></trkpt><trkpt lat="44.83259173549757" lon="0.4551049400307539"><ele>29.0</ele><time>2026-04-19T14:54:18.007Z</time></trkpt><trkpt lat="44.832649814233086" lon="0.45484160352958786"><ele>29.333333333333332</ele><time>2026-04-19T14:54:19.007Z</time></trkpt><trkpt lat="44.83270220029893" lon="0.4545835490885261"><ele>29.666666666666664</ele><time>2026-04-19T14:54:20.007Z</time></trkpt><trkpt lat="44.832765521095276" lon="0.45432105897359726"><ele>30.0</ele><time>2026-04-19T14:54:21.007Z</time></trkpt><trkpt lat="44.83281994448531" lon="0.45404938207164525"><ele>30.0</ele><time>2026-04-19T14:54:22.007Z</time></trkpt><trkpt lat="44.83288879389895" lon="0.45377805204311916"><ele>30.0</ele><time>2026-04-19T14:54:23.007Z</time></trkpt><trkpt lat="44.83296391099131" lon="0.4535089413366072"><ele>30.0</ele><time>2026-04-19T14:54:24.007Z</time></trkpt><trkpt lat="44.83305345972762" lon="0.4532556319535795"><ele>30.0</ele><time>2026-04-19T14:54:25.004Z</time></trkpt><trkpt lat="44.833149949523275" lon="0.45299913165326966"><ele>30.0</ele><time>2026-04-19T14:54:26.004Z</time></trkpt><trkpt lat="44.83324721144058" lon="0.45274047846755666"><ele>30.0</ele><time>2026-04-19T14:54:27.004Z</time></trkpt><trkpt lat="44.833352097286564" lon="0.4524950489698427"><ele>29.666666666666664</ele><time>2026-04-19T14:54:28.004Z</time></trkpt><trkpt lat="44.833449205141804" lon="0.45225339030862427"><ele>29.333333333333332</ele><time>2026-04-19T14:54:29.004Z</time></trkpt><trkpt lat="44.8335477207523" lon="0.4520113596162688"><ele>29.0</ele><time>2026-04-19T14:54:30.004Z</time></trkpt><trkpt lat="44.833631655410606" lon="0.45177768322874984"><ele>29.0</ele><time>2026-04-19T14:54:31.005Z</time></trkpt><trkpt lat="44.833715257798" lon="0.45154445457551495"><ele>29.0</ele><time>2026-04-19T14:54:32.004Z</time></trkpt><trkpt lat="44.833786044436366" lon="0.4513050840439058"><ele>29.0</ele><time>2026-04-19T14:54:33.004Z</time></trkpt><trkpt lat="44.83386379439045" lon="0.45108220188848513"><ele>29.0</ele><time>2026-04-19T14:54:34.004Z</time></trkpt><trkpt lat="44.833939988715656" lon="0.45086358269136834"><ele>29.0</ele><time>2026-04-19T14:54:35.004Z</time></trkpt><trkpt lat="44.8340023841558" lon="0.45064702943486673"><ele>29.0</ele><time>2026-04-19T14:54:36.004Z</time></trkpt><trkpt lat="44.83404672867247" lon="0.4504332161501631"><ele>29.5</ele><time>2026-04-19T14:54:37.004Z</time></trkpt><trkpt lat="44.834100807337386" lon="0.4502424877374846"><ele>30.0</ele><time>2026-04-19T14:54:38.004Z</time></trkpt><trkpt lat="44.834127586178234" lon="0.45006022269525603"><ele>30.5</ele><time>2026-04-19T14:54:39.004Z</time></trkpt><trkpt lat="44.834153884354556" lon="0.4498791597686219"><ele>31.0</ele><time>2026-04-19T14:54:40.004Z</time></trkpt><trkpt lat="44.834183114723" lon="0.449706044761136"><ele>30.833333333333336</ele><time>2026-04-19T14:54:41.004Z</time></trkpt><trkpt lat="44.834206643442926" lon="0.4495602872447146"><ele>30.666666666666668</ele><time>2026-04-19T14:54:42.004Z</time></trkpt><trkpt lat="44.8342192967274" lon="0.4494251835288651"><ele>30.5</ele><time>2026-04-19T14:54:43.004Z</time></trkpt><trkpt lat="44.834240358502235" lon="0.44930156710430436"><ele>30.333333333333336</ele><time>2026-04-19T14:54:44.004Z</time></trkpt><trkpt lat="44.83427460466515" lon="0.4492049452324302"><ele>30.166666666666668</ele><time>2026-04-19T14:54:45.004Z</time></trkpt><trkpt lat="44.83430969413224" lon="0.4491245534783303"><ele>30.0</ele><time>2026-04-19T14:54:46.004Z</time></trkpt><trkpt lat="44.834365273717616" lon="0.44908226764558185"><ele>30.0</ele><time>2026-04-19T14:54:48.004Z</time></trkpt><trkpt lat="44.834461629454864" lon="0.4490338283775934"><ele>30.0</ele><time>2026-04-19T14:54:54.004Z</time></trkpt><trkpt lat="44.834536311895974" lon="0.4489710093146453"><ele>30.0</ele><time>2026-04-19T14:54:55.004Z</time></trkpt><trkpt lat="44.83460691811427" lon="0.4488741939954111"><ele>30.0</ele><time>2026-04-19T14:54:56.004Z</time></trkpt><trkpt lat="44.83466307948902" lon="0.44878234858099875"><ele>30.0</ele><time>2026-04-19T14:54:57.004Z</time></trkpt><trkpt lat="44.83471650129707" lon="0.4486921662388033"><ele>29.75</ele><time>2026-04-19T14:54:58.004Z</time></trkpt><trkpt lat="44.834811493155115" lon="0.4486411682722386"><ele>29.5</ele><time>2026-04-19T14:54:59.004Z</time></trkpt><trkpt lat="44.83494068355127" lon="0.44861557965934695"><ele>29.25</ele><time>2026-04-19T14:55:00.004Z</time></trkpt><trkpt lat="44.83507023683501" lon="0.4485950389537851"><ele>29.0</ele><time>2026-04-19T14:55:01.004Z</time></trkpt><trkpt lat="44.83517885530606" lon="0.4485708921224575"><ele>28.833333333333332</ele><time>2026-04-19T14:55:02.004Z</time></trkpt><trkpt lat="44.83526590188082" lon="0.4485421241210374"><ele>28.666666666666664</ele><time>2026-04-19T14:55:03.004Z</time></trkpt><trkpt lat="44.83532671196414" lon="0.44850641665828794"><ele>28.5</ele><time>2026-04-19T14:55:04.004Z</time></trkpt><trkpt lat="44.83540584765861" lon="0.4484236605757906"><ele>28.333333333333336</ele><time>2026-04-19T14:55:06.004Z</time></trkpt><trkpt lat="44.83549586074595" lon="0.4484136882828528"><ele>28.166666666666668</ele><time>2026-04-19T14:55:08.004Z</time></trkpt><trkpt lat="44.83555785149902" lon="0.44838862759975606"><ele>28.0</ele><time>2026-04-19T14:55:09.004Z</time></trkpt><trkpt lat="44.83560246604243" lon="0.44831364361860504"><ele>28.000000000000004</ele><time>2026-04-19T14:55:10.004Z</time></trkpt><trkpt lat="44.83561444682743" lon="0.448221432856191"><ele>28.0</ele><time>2026-04-19T14:55:11.004Z</time></trkpt><trkpt lat="44.83554997343691" lon="0.4480716772893168"><ele>28.0</ele><time>2026-04-19T14:55:13.005Z</time></trkpt><trkpt lat="44.83548809719293" lon="0.44802181883124353"><ele>28.0</ele><time>2026-04-19T14:55:14.005Z</time></trkpt><trkpt lat="44.835404591290626" lon="0.4479822221322015"><ele>28.000000000000004</ele><time>2026-04-19T14:55:15.005Z</time></trkpt><trkpt lat="44.83532919720849" lon="0.4479178959087565"><ele>28.0</ele><time>2026-04-19T14:55:16.005Z</time></trkpt><trkpt lat="44.83527550050557" lon="0.44786384297790816"><ele>28.0</ele><time>2026-04-19T14:55:17.005Z</time></trkpt><trkpt lat="44.83523401551098" lon="0.4477937217591327"><ele>27.999999999999996</ele><time>2026-04-19T14:55:18.005Z</time></trkpt><trkpt lat="44.835170169160484" lon="0.4476899401722366"><ele>27.999999999999996</ele><time>2026-04-19T14:55:20.005Z</time></trkpt><trkpt lat="44.835109386758546" lon="0.4476021368478396"><ele>28.0</ele><time>2026-04-19T14:55:22.005Z</time></trkpt><trkpt lat="44.83501455403735" lon="0.44764052284002825"><ele>28.0</ele><time>2026-04-19T14:55:24.005Z</time></trkpt><trkpt lat="44.83490615574174" lon="0.44775463181044506"><ele>28.000000000000004</ele><time>2026-04-19T14:55:26.005Z</time></trkpt><trkpt lat="44.834850685044096" lon="0.4478179006509722"><ele>28.0</ele><time>2026-04-19T14:55:27.005Z</time></trkpt><trkpt lat="44.83479324109361" lon="0.4479513911691753"><ele>28.0</ele><time>2026-04-19T14:55:29.005Z</time></trkpt><trkpt lat="44.83483781378062" lon="0.448066435302963"><ele>28.0</ele><time>2026-04-19T14:55:32.005Z</time></trkpt><trkpt lat="44.83490250355875" lon="0.4481042766581536"><ele>28.000000000000004</ele><time>2026-04-19T14:55:34.005Z</time></trkpt><trkpt lat="44.83496615824375" lon="0.4481139687678211"><ele>28.0</ele><time>2026-04-19T15:00:12.006Z</time></trkpt><trkpt lat="44.83505777440222" lon="0.4480522959804093"><ele>28.000000000000004</ele><time>2026-04-19T15:00:51.004Z</time></trkpt><trkpt lat="44.83513159186672" lon="0.4480041900071132"><ele>28.0</ele><time>2026-04-19T15:00:53.005Z</time></trkpt><trkpt lat="44.8352088125463" lon="0.44795681037447743"><ele>28.0</ele><time>2026-04-19T15:00:56.004Z</time></trkpt><trkpt lat="44.83529833087926" lon="0.44797560681110293"><ele>28.0</ele><time>2026-04-19T15:01:00.004Z</time></trkpt><trkpt lat="44.835348869665125" lon="0.44804573153482474"><ele>28.000000000000004</ele><time>2026-04-19T15:01:03.004Z</time></trkpt><trkpt lat="44.835367281502926" lon="0.44820379704719615"><ele>28.0</ele><time>2026-04-19T15:01:06.004Z</time></trkpt><trkpt lat="44.83535241700754" lon="0.4482959678046272"><ele>28.000000000000004</ele><time>2026-04-19T15:01:07.004Z</time></trkpt><trkpt lat="44.83536046798821" lon="0.448386892959966"><ele>28.0</ele><time>2026-04-19T15:01:08.004Z</time></trkpt><trkpt lat="44.83526153088999" lon="0.44844313011372156"><ele>28.0</ele><time>2026-04-19T15:01:09.005Z</time></trkpt><trkpt lat="44.83519693393705" lon="0.44849397759944126"><ele>28.0</ele><time>2026-04-19T15:01:10.005Z</time></trkpt><trkpt lat="44.83512292434511" lon="0.44853234989773166"><ele>28.000000000000004</ele><time>2026-04-19T15:01:11.005Z</time></trkpt><trkpt lat="44.83504108955072" lon="0.4485440761247934"><ele>28.0</ele><time>2026-04-19T15:01:12.005Z</time></trkpt><trkpt lat="44.83496275188411" lon="0.44855240317319356"><ele>28.166666666666668</ele><time>2026-04-19T15:01:13.005Z</time></trkpt><trkpt lat="44.83489324367855" lon="0.44855172731917475"><ele>28.333333333333336</ele><time>2026-04-19T15:01:14.005Z</time></trkpt><trkpt lat="44.83479417496221" lon="0.44853819346264884"><ele>28.5</ele><time>2026-04-19T15:01:16.005Z</time></trkpt><trkpt lat="44.83472893575793" lon="0.44855586664175845"><ele>28.666666666666664</ele><time>2026-04-19T15:01:19.005Z</time></trkpt><trkpt lat="44.834663186857995" lon="0.448445316347044"><ele>28.833333333333332</ele><time>2026-04-19T15:01:30.005Z</time></trkpt><trkpt lat="44.834588053674366" lon="0.44833782018780954"><ele>29.0</ele><time>2026-04-19T15:01:32.005Z</time></trkpt><trkpt lat="44.83452951191946" lon="0.4482818981054228"><ele>29.0</ele><time>2026-04-19T15:01:33.005Z</time></trkpt><trkpt lat="44.83445474682645" lon="0.44823661254595704"><ele>29.0</ele><time>2026-04-19T15:01:34.005Z</time></trkpt><trkpt lat="44.83437561585707" lon="0.44821091937149277"><ele>29.0</ele><time>2026-04-19T15:01:35.005Z</time></trkpt><trkpt lat="44.834295931819305" lon="0.4481680475045866"><ele>29.0</ele><time>2026-04-19T15:01:36.005Z</time></trkpt><trkpt lat="44.83415783240883" lon="0.44802301653443405"><ele>29.0</ele><time>2026-04-19T15:01:38.005Z</time></trkpt><trkpt lat="44.83410105256158" lon="0.44792566979368337"><ele>29.0</ele><time>2026-04-19T15:01:39.005Z</time></trkpt><trkpt lat="44.83405198875262" lon="0.44781833246893576"><ele>29.0</ele><time>2026-04-19T15:01:40.005Z</time></trkpt><trkpt lat="44.83400313735102" lon="0.4476923210264451"><ele>29.0</ele><time>2026-04-19T15:01:41.005Z</time></trkpt><trkpt lat="44.833951327824046" lon="0.4475579260263514"><ele>29.0</ele><time>2026-04-19T15:01:42.005Z</time></trkpt><trkpt lat="44.83390376449383" lon="0.447424964888558"><ele>29.0</ele><time>2026-04-19T15:01:43.005Z</time></trkpt><trkpt lat="44.83385426042993" lon="0.44728221626853076"><ele>29.0</ele><time>2026-04-19T15:01:44.005Z</time></trkpt><trkpt lat="44.83381603182986" lon="0.4471431477341902"><ele>29.0</ele><time>2026-04-19T15:01:45.005Z</time></trkpt><trkpt lat="44.83378336896783" lon="0.4470056707835443"><ele>29.0</ele><time>2026-04-19T15:01:46.005Z</time></trkpt><trkpt lat="44.83375937679816" lon="0.44686832435722545"><ele>29.0</ele><time>2026-04-19T15:01:47.005Z</time></trkpt><trkpt lat="44.833736614978015" lon="0.44673192115465143"><ele>29.0</ele><time>2026-04-19T15:01:48.005Z</time></trkpt><trkpt lat="44.83372035670034" lon="0.4465969425488942"><ele>29.0</ele><time>2026-04-19T15:01:49.005Z</time></trkpt><trkpt lat="44.833691783863095" lon="0.4464476210166824"><ele>29.0</ele><time>2026-04-19T15:01:50.005Z</time></trkpt><trkpt lat="44.8336718018275" lon="0.44631603032152345"><ele>29.0</ele><time>2026-04-19T15:01:51.005Z</time></trkpt><trkpt lat="44.833671726072076" lon="0.44622000626774244"><ele>29.0</ele><time>2026-04-19T15:01:52.005Z</time></trkpt><trkpt lat="44.83366867429256" lon="0.4460853807436559"><ele>29.0</ele><time>2026-04-19T15:01:54.005Z</time></trkpt><trkpt lat="44.83349540039929" lon="0.4460829195148255"><ele>29.499999999999996</ele><time>2026-04-19T15:01:57.006Z</time></trkpt><trkpt lat="44.83342425017675" lon="0.44610322280508924"><ele>30.0</ele><time>2026-04-19T15:01:58.006Z</time></trkpt><trkpt lat="44.833342017692395" lon="0.44611816458551024"><ele>30.5</ele><time>2026-04-19T15:01:59.006Z</time></trkpt><trkpt lat="44.833240686619575" lon="0.4461328361463608"><ele>31.0</ele><time>2026-04-19T15:02:00.006Z</time></trkpt><trkpt lat="44.83314830955477" lon="0.4461235783065618"><ele>31.499999999999996</ele><time>2026-04-19T15:02:01.006Z</time></trkpt><trkpt lat="44.83307684643396" lon="0.4461376689628899"><ele>32.0</ele><time>2026-04-19T15:02:02.006Z</time></trkpt><trkpt lat="44.833011951066524" lon="0.44610525034179355"><ele>32.0</ele><time>2026-04-19T15:02:03.006Z</time></trkpt><trkpt lat="44.83291517076756" lon="0.44594788556523346"><ele>32.0</ele><time>2026-04-19T15:02:05.006Z</time></trkpt><trkpt lat="44.832883079389006" lon="0.4458424174049442"><ele>32.0</ele><time>2026-04-19T15:02:06.006Z</time></trkpt><trkpt lat="44.832835302678816" lon="0.4456783277993939"><ele>32.0</ele><time>2026-04-19T15:02:07.006Z</time></trkpt><trkpt lat="44.8327984326532" lon="0.44553919661935515"><ele>31.75</ele><time>2026-04-19T15:02:08.006Z</time></trkpt><trkpt lat="44.83275541194493" lon="0.44537685544168376"><ele>31.5</ele><time>2026-04-19T15:02:09.006Z</time></trkpt><trkpt lat="44.83271304520617" lon="0.4452014641635247"><ele>31.25</ele><time>2026-04-19T15:02:10.006Z</time></trkpt><trkpt lat="44.83266851192894" lon="0.4450057664184559"><ele>31.0</ele><time>2026-04-19T15:02:11.006Z</time></trkpt><trkpt lat="44.83259702242981" lon="0.4446282706915606"><ele>31.0</ele><time>2026-04-19T15:02:13.006Z</time></trkpt><trkpt lat="44.832591134550505" lon="0.4444069137652283"><ele>31.0</ele><time>2026-04-19T15:02:14.006Z</time></trkpt><trkpt lat="44.83258151343997" lon="0.44420836903816746"><ele>31.0</ele><time>2026-04-19T15:02:15.006Z</time></trkpt><trkpt lat="44.83257242250813" lon="0.4440355604084043"><ele>31.0</ele><time>2026-04-19T15:02:16.006Z</time></trkpt><trkpt lat="44.832546915739535" lon="0.4438786284937998"><ele>30.75</ele><time>2026-04-19T15:02:17.006Z</time></trkpt><trkpt lat="44.83254467798335" lon="0.44371539611767236"><ele>30.5</ele><time>2026-04-19T15:02:18.006Z</time></trkpt><trkpt lat="44.832525241327495" lon="0.4435640191473104"><ele>30.25</ele><time>2026-04-19T15:02:19.006Z</time></trkpt><trkpt lat="44.83247430271068" lon="0.4434217094030025"><ele>30.0</ele><time>2026-04-19T15:02:20.006Z</time></trkpt><trkpt lat="44.83239645791045" lon="0.443305860232109"><ele>30.0</ele><time>2026-04-19T15:02:21.006Z</time></trkpt><trkpt lat="44.83228948185117" lon="0.44321762238907614"><ele>30.0</ele><time>2026-04-19T15:02:22.006Z</time></trkpt><trkpt lat="44.83217535550983" lon="0.44312666739858875"><ele>30.0</ele><time>2026-04-19T15:02:23.006Z</time></trkpt><trkpt lat="44.83204760677393" lon="0.44303372991484913"><ele>30.0</ele><time>2026-04-19T15:02:24.006Z</time></trkpt><trkpt lat="44.831918252625634" lon="0.4429430591768817"><ele>30.666666666666664</ele><time>2026-04-19T15:02:25.006Z</time></trkpt><trkpt lat="44.831785300204196" lon="0.4428505305648842"><ele>31.333333333333332</ele><time>2026-04-19T15:02:26.006Z</time></trkpt><trkpt lat="44.83163674130899" lon="0.44274601522803064"><ele>32.0</ele><time>2026-04-19T15:02:27.006Z</time></trkpt><trkpt lat="44.83148713405486" lon="0.4426402318987716"><ele>32.0</ele><time>2026-04-19T15:02:28.006Z</time></trkpt><trkpt lat="44.831327655198265" lon="0.4425274683695727"><ele>32.0</ele><time>2026-04-19T15:02:29.006Z</time></trkpt><trkpt lat="44.83117451500131" lon="0.4424190682969112"><ele>32.0</ele><time>2026-04-19T15:02:30.006Z</time></trkpt><trkpt lat="44.831033237361666" lon="0.44231611552583"><ele>32.0</ele><time>2026-04-19T15:02:31.006Z</time></trkpt><trkpt lat="44.83090041432124" lon="0.44221850488184244"><ele>32.0</ele><time>2026-04-19T15:02:32.006Z</time></trkpt><trkpt lat="44.83078163104655" lon="0.4421338988417037"><ele>32.0</ele><time>2026-04-19T15:02:33.006Z</time></trkpt><trkpt lat="44.830677982183936" lon="0.4420601972400125"><ele>32.0</ele><time>2026-04-19T15:02:34.006Z</time></trkpt><trkpt lat="44.830588691658676" lon="0.44199670548778375"><ele>32.0</ele><time>2026-04-19T15:02:35.006Z</time></trkpt><trkpt lat="44.83049457315734" lon="0.44192978065985167"><ele>32.0</ele><time>2026-04-19T15:02:36.006Z</time></trkpt><trkpt lat="44.83040043788556" lon="0.441862843911619"><ele>32.0</ele><time>2026-04-19T15:02:37.006Z</time></trkpt><trkpt lat="44.83031834319012" lon="0.44180446855427163"><ele>32.0</ele><time>2026-04-19T15:02:38.006Z</time></trkpt><trkpt lat="44.830234421696105" lon="0.4417442098457238"><ele>32.0</ele><time>2026-04-19T15:02:39.006Z</time></trkpt><trkpt lat="44.83014490302297" lon="0.44168012803304"><ele>32.5</ele><time>2026-04-19T15:02:40.006Z</time></trkpt><trkpt lat="44.83004528076671" lon="0.44160881358750137"><ele>33.0</ele><time>2026-04-19T15:02:41.006Z</time></trkpt><trkpt lat="44.829939627689086" lon="0.44153318168132905"><ele>33.5</ele><time>2026-04-19T15:02:42.007Z</time></trkpt><trkpt lat="44.8298317583308" lon="0.4414558552301227"><ele>34.0</ele><time>2026-04-19T15:02:43.007Z</time></trkpt><trkpt lat="44.829712027247574" lon="0.44137005933137957"><ele>33.5</ele><time>2026-04-19T15:02:44.007Z</time></trkpt><trkpt lat="44.8296016105981" lon="0.4412905238275371"><ele>33.0</ele><time>2026-04-19T15:02:45.007Z</time></trkpt><trkpt lat="44.829478519696075" lon="0.44122593326777093"><ele>32.5</ele><time>2026-04-19T15:02:46.007Z</time></trkpt><trkpt lat="44.829381432993344" lon="0.441129338916292"><ele>32.0</ele><time>2026-04-19T15:02:47.007Z</time></trkpt><trkpt lat="44.82927420135665" lon="0.44105469959000765"><ele>32.0</ele><time>2026-04-19T15:02:48.007Z</time></trkpt><trkpt lat="44.82916986258173" lon="0.4410013710251943"><ele>32.0</ele><time>2026-04-19T15:02:49.003Z</time></trkpt><trkpt lat="44.82907349246554" lon="0.44091255157399445"><ele>32.0</ele><time>2026-04-19T15:02:50.003Z</time></trkpt><trkpt lat="44.828968116795735" lon="0.44083851435115895"><ele>32.0</ele><time>2026-04-19T15:02:51.003Z</time></trkpt><trkpt lat="44.82886184748662" lon="0.44076101328569856"><ele>32.0</ele><time>2026-04-19T15:02:52.004Z</time></trkpt><trkpt lat="44.82875643698167" lon="0.44067131567334167"><ele>32.0</ele><time>2026-04-19T15:02:53.003Z</time></trkpt><trkpt lat="44.8286471272666" lon="0.44058488110319266"><ele>32.0</ele><time>2026-04-19T15:02:54.003Z</time></trkpt><trkpt lat="44.82854281876286" lon="0.4404876071324016"><ele>32.0</ele><time>2026-04-19T15:02:55.003Z</time></trkpt><trkpt lat="44.82844937627467" lon="0.4404202315488541"><ele>32.0</ele><time>2026-04-19T15:02:56.004Z</time></trkpt><trkpt lat="44.82833175267891" lon="0.44031262216703165"><ele>32.0</ele><time>2026-04-19T15:02:57.004Z</time></trkpt><trkpt lat="44.828218059983165" lon="0.44019837156286207"><ele>32.0</ele><time>2026-04-19T15:02:58.004Z</time></trkpt><trkpt lat="44.82810631023485" lon="0.44008564034192993"><ele>32.0</ele><time>2026-04-19T15:02:59.003Z</time></trkpt><trkpt lat="44.827988701454" lon="0.43997130155163344"><ele>32.0</ele><time>2026-04-19T15:03:00.003Z</time></trkpt><trkpt lat="44.82786486643881" lon="0.43985036318162407"><ele>32.0</ele><time>2026-04-19T15:03:01.003Z</time></trkpt><trkpt lat="44.82774273685335" lon="0.43972861150485887"><ele>32.0</ele><time>2026-04-19T15:03:02.003Z</time></trkpt><trkpt lat="44.82762344530934" lon="0.43961582734127935"><ele>32.0</ele><time>2026-04-19T15:03:03.003Z</time></trkpt><trkpt lat="44.827512218564664" lon="0.4395106451202074"><ele>31.75</ele><time>2026-04-19T15:03:04.003Z</time></trkpt><trkpt lat="44.82739713687767" lon="0.4394204148312026"><ele>31.5</ele><time>2026-04-19T15:03:05.003Z</time></trkpt><trkpt lat="44.82727954073719" lon="0.4393530666179727"><ele>31.25</ele><time>2026-04-19T15:03:06.003Z</time></trkpt><trkpt lat="44.82715401802585" lon="0.4393219215595989"><ele>31.0</ele><time>2026-04-19T15:03:07.003Z</time></trkpt><trkpt lat="44.82701546136781" lon="0.43931754556896474"><ele>31.0</ele><time>2026-04-19T15:03:08.003Z</time></trkpt><trkpt lat="44.82686413618726" lon="0.4393330581046729"><ele>31.0</ele><time>2026-04-19T15:03:09.003Z</time></trkpt><trkpt lat="44.826704288075874" lon="0.43931474984244356"><ele>31.0</ele><time>2026-04-19T15:03:10.003Z</time></trkpt><trkpt lat="44.82655448157475" lon="0.4393196261389106"><ele>31.5</ele><time>2026-04-19T15:03:11.003Z</time></trkpt><trkpt lat="44.82641355104132" lon="0.4393217677567228"><ele>32.0</ele><time>2026-04-19T15:03:12.004Z</time></trkpt><trkpt lat="44.826266588186115" lon="0.43929861056682085"><ele>32.5</ele><time>2026-04-19T15:03:13.004Z</time></trkpt><trkpt lat="44.82612223436265" lon="0.439264116635778"><ele>33.0</ele><time>2026-04-19T15:03:14.004Z</time></trkpt><trkpt lat="44.82598221105741" lon="0.4392269045523602"><ele>33.333333333333336</ele><time>2026-04-19T15:03:15.004Z</time></trkpt><trkpt lat="44.8258331182717" lon="0.43917973798762094"><ele>33.66666666666667</ele><time>2026-04-19T15:03:16.004Z</time></trkpt><trkpt lat="44.825686295316224" lon="0.4391242111779475"><ele>34.0</ele><time>2026-04-19T15:03:17.004Z</time></trkpt><trkpt lat="44.825553912639045" lon="0.4390345108142434"><ele>34.0</ele><time>2026-04-19T15:03:18.004Z</time></trkpt><trkpt lat="44.82542782729283" lon="0.4389496594485016"><ele>34.0</ele><time>2026-04-19T15:03:19.004Z</time></trkpt><trkpt lat="44.82529134917268" lon="0.43884591791221167"><ele>34.0</ele><time>2026-04-19T15:03:20.004Z</time></trkpt><trkpt lat="44.82516236173262" lon="0.43876062590506365"><ele>34.0</ele><time>2026-04-19T15:03:21.004Z</time></trkpt><trkpt lat="44.82503516729899" lon="0.4386987408110074"><ele>34.75</ele><time>2026-04-19T15:03:22.004Z</time></trkpt><trkpt lat="44.8249126672798" lon="0.4386202565850017"><ele>35.5</ele><time>2026-04-19T15:03:23.004Z</time></trkpt><trkpt lat="44.82479805975373" lon="0.43856443240669035"><ele>36.25</ele><time>2026-04-19T15:03:24.004Z</time></trkpt><trkpt lat="44.824676163780424" lon="0.43848448795287287"><ele>37.0</ele><time>2026-04-19T15:03:25.004Z</time></trkpt><trkpt lat="44.82455372447632" lon="0.4384207819281308"><ele>37.0</ele><time>2026-04-19T15:03:26.004Z</time></trkpt><trkpt lat="44.824425988368795" lon="0.43835810391597735"><ele>37.0</ele><time>2026-04-19T15:03:27.004Z</time></trkpt><trkpt lat="44.824290256308544" lon="0.43830104770101985"><ele>37.0</ele><time>2026-04-19T15:03:28.004Z</time></trkpt><trkpt lat="44.824165031683734" lon="0.43827089895481636"><ele>37.0</ele><time>2026-04-19T15:03:29.004Z</time></trkpt><trkpt lat="44.82405173014317" lon="0.4382568807651418"><ele>37.5</ele><time>2026-04-19T15:03:30.004Z</time></trkpt><trkpt lat="44.82392249513446" lon="0.43822769867274297"><ele>38.0</ele><time>2026-04-19T15:03:31.004Z</time></trkpt><trkpt lat="44.823807623505004" lon="0.43819756865173"><ele>38.5</ele><time>2026-04-19T15:03:32.004Z</time></trkpt><trkpt lat="44.82371031052771" lon="0.43816095193750826"><ele>39.0</ele><time>2026-04-19T15:03:33.004Z</time></trkpt><trkpt lat="44.82361422854927" lon="0.43809104257706916"><ele>39.0</ele><time>2026-04-19T15:03:34.004Z</time></trkpt><trkpt lat="44.823555718694955" lon="0.4379851467783144"><ele>39.0</ele><time>2026-04-19T15:03:35.004Z</time></trkpt><trkpt lat="44.82347175798135" lon="0.4378361597348826"><ele>39.0</ele><time>2026-04-19T15:03:36.004Z</time></trkpt><trkpt lat="44.82338794700285" lon="0.43768693761577376"><ele>39.0</ele><time>2026-04-19T15:03:37.005Z</time></trkpt><trkpt lat="44.82329928624314" lon="0.43753675415977006"><ele>38.75</ele><time>2026-04-19T15:03:38.005Z</time></trkpt><trkpt lat="44.82321537465127" lon="0.4373944710736586"><ele>38.5</ele><time>2026-04-19T15:03:39.005Z</time></trkpt><trkpt lat="44.823123604935525" lon="0.43724226955290835"><ele>38.25</ele><time>2026-04-19T15:03:40.005Z</time></trkpt><trkpt lat="44.823056750250345" lon="0.4371260753319205"><ele>38.0</ele><time>2026-04-19T15:03:41.005Z</time></trkpt><trkpt lat="44.82298395017015" lon="0.4370008481289385"><ele>38.0</ele><time>2026-04-19T15:03:42.005Z</time></trkpt><trkpt lat="44.8229161062046" lon="0.43689220020532493"><ele>38.0</ele><time>2026-04-19T15:03:43.005Z</time></trkpt><trkpt lat="44.822843835739306" lon="0.43678045938547766"><ele>38.0</ele><time>2026-04-19T15:03:44.005Z</time></trkpt><trkpt lat="44.822784761311276" lon="0.4366875865066857"><ele>38.0</ele><time>2026-04-19T15:03:45.005Z</time></trkpt><trkpt lat="44.82271185028122" lon="0.4366009698288466"><ele>38.0</ele><time>2026-04-19T15:03:46.005Z</time></trkpt><trkpt lat="44.82262669919457" lon="0.43652860047124076"><ele>38.199999999999996</ele><time>2026-04-19T15:03:47.005Z</time></trkpt><trkpt lat="44.822528164988874" lon="0.43651100678563337"><ele>38.4</ele><time>2026-04-19T15:03:48.005Z</time></trkpt><trkpt lat="44.82242158017227" lon="0.4365025382869757"><ele>38.599999999999994</ele><time>2026-04-19T15:03:49.005Z</time></trkpt><trkpt lat="44.82230310290054" lon="0.43647142753201773"><ele>38.8</ele><time>2026-04-19T15:03:50.005Z</time></trkpt><trkpt lat="44.82218321983801" lon="0.436464700289363"><ele>39.0</ele><time>2026-04-19T15:03:51.005Z</time></trkpt><trkpt lat="44.82207015441973" lon="0.43645689531703363"><ele>39.0</ele><time>2026-04-19T15:03:52.005Z</time></trkpt><trkpt lat="44.82193475256632" lon="0.4364475484470613"><ele>39.0</ele><time>2026-04-19T15:03:53.005Z</time></trkpt><trkpt lat="44.82179528940469" lon="0.43643792121297514"><ele>39.0</ele><time>2026-04-19T15:03:54.005Z</time></trkpt><trkpt lat="44.82165830535896" lon="0.43642846511998956"><ele>39.0</ele><time>2026-04-19T15:03:55.005Z</time></trkpt><trkpt lat="44.821519889189545" lon="0.43641891015987755"><ele>39.2</ele><time>2026-04-19T15:03:56.005Z</time></trkpt><trkpt lat="44.82139537124426" lon="0.43641031460352725"><ele>39.4</ele><time>2026-04-19T15:03:57.005Z</time></trkpt><trkpt lat="44.82127223185735" lon="0.43642297963332255"><ele>39.6</ele><time>2026-04-19T15:03:58.005Z</time></trkpt><trkpt lat="44.82116712517473" lon="0.4364026791730429"><ele>39.8</ele><time>2026-04-19T15:03:59.006Z</time></trkpt><trkpt lat="44.821087924807486" lon="0.43640531328250654"><ele>40.0</ele><time>2026-04-19T15:04:00.006Z</time></trkpt><trkpt lat="44.821023739786256" lon="0.4363906609359116"><ele>40.25</ele><time>2026-04-19T15:04:01.006Z</time></trkpt><trkpt lat="44.82093086538554" lon="0.43631963913608196"><ele>40.5</ele><time>2026-04-19T15:04:03.006Z</time></trkpt><trkpt lat="44.82091997431322" lon="0.43613187775310863"><ele>40.75</ele><time>2026-04-19T15:04:05.006Z</time></trkpt><trkpt lat="44.820921742961424" lon="0.436011016268308"><ele>41.0</ele><time>2026-04-19T15:04:06.006Z</time></trkpt><trkpt lat="44.820911395823245" lon="0.43583323068974233"><ele>41.25</ele><time>2026-04-19T15:04:07.006Z</time></trkpt><trkpt lat="44.82092081149541" lon="0.43565822991460823"><ele>41.5</ele><time>2026-04-19T15:04:08.006Z</time></trkpt><trkpt lat="44.82090902833283" lon="0.43547155137336097"><ele>41.75</ele><time>2026-04-19T15:04:09.006Z</time></trkpt><trkpt lat="44.82089773099878" lon="0.43528625325050696"><ele>42.0</ele><time>2026-04-19T15:04:10.006Z</time></trkpt><trkpt lat="44.82090857830076" lon="0.4350958761743714"><ele>42.0</ele><time>2026-04-19T15:04:11.006Z</time></trkpt><trkpt lat="44.82090541991011" lon="0.4349075273854614"><ele>42.0</ele><time>2026-04-19T15:04:12.006Z</time></trkpt><trkpt lat="44.82090848836385" lon="0.43468801514356026"><ele>42.0</ele><time>2026-04-19T15:04:13.006Z</time></trkpt><trkpt lat="44.820903382491665" lon="0.4344664956992123"><ele>42.0</ele><time>2026-04-19T15:04:14.006Z</time></trkpt><trkpt lat="44.820889736327096" lon="0.4342474051954565"><ele>41.75</ele><time>2026-04-19T15:04:15.006Z</time></trkpt><trkpt lat="44.82088344938355" lon="0.43404088341039654"><ele>41.5</ele><time>2026-04-19T15:04:16.006Z</time></trkpt><trkpt lat="44.820877531537796" lon="0.4338371148578158"><ele>41.25</ele><time>2026-04-19T15:04:17.006Z</time></trkpt><trkpt lat="44.82086122490609" lon="0.4336316902719106"><ele>41.0</ele><time>2026-04-19T15:04:18.006Z</time></trkpt><trkpt lat="44.82084089692712" lon="0.43343839634627856"><ele>40.75</ele><time>2026-04-19T15:04:19.006Z</time></trkpt><trkpt lat="44.82080488724736" lon="0.43325282570738605"><ele>40.5</ele><time>2026-04-19T15:04:20.006Z</time></trkpt><trkpt lat="44.82077927103875" lon="0.43307161412897044"><ele>40.25</ele><time>2026-04-19T15:04:21.006Z</time></trkpt><trkpt lat="44.82074488461866" lon="0.4328912906890617"><ele>40.0</ele><time>2026-04-19T15:04:22.006Z</time></trkpt><trkpt lat="44.82071303450411" lon="0.432717105526934"><ele>39.8</ele><time>2026-04-19T15:04:23.006Z</time></trkpt><trkpt lat="44.82068156465733" lon="0.4325610007894406"><ele>39.6</ele><time>2026-04-19T15:04:24.006Z</time></trkpt><trkpt lat="44.82063965858536" lon="0.43242204782677096"><ele>39.4</ele><time>2026-04-19T15:04:25.006Z</time></trkpt><trkpt lat="44.82061466341566" lon="0.43228158228790325"><ele>39.2</ele><time>2026-04-19T15:04:26.006Z</time></trkpt><trkpt lat="44.820580306858254" lon="0.4321668749984847"><ele>39.0</ele><time>2026-04-19T15:04:27.006Z</time></trkpt><trkpt lat="44.82053311969581" lon="0.43206165792775303"><ele>39.0</ele><time>2026-04-19T15:04:28.006Z</time></trkpt><trkpt lat="44.82047602444367" lon="0.4319752776144822"><ele>39.0</ele><time>2026-04-19T15:04:29.006Z</time></trkpt><trkpt lat="44.82039907727611" lon="0.4319340947578198"><ele>39.0</ele><time>2026-04-19T15:04:30.006Z</time></trkpt><trkpt lat="44.820284464879116" lon="0.43192682774987373"><ele>39.0</ele><time>2026-04-19T15:04:31.006Z</time></trkpt><trkpt lat="44.820152802162866" lon="0.4319243485484571"><ele>39.0</ele><time>2026-04-19T15:04:32.006Z</time></trkpt><trkpt lat="44.820006177474994" lon="0.43188682586063587"><ele>39.666666666666664</ele><time>2026-04-19T15:04:33.006Z</time></trkpt><trkpt lat="44.81983284034361" lon="0.4318611520744579"><ele>40.33333333333333</ele><time>2026-04-19T15:04:34.006Z</time></trkpt><trkpt lat="44.81964943769497" lon="0.4318509568501149"><ele>41.0</ele><time>2026-04-19T15:04:35.006Z</time></trkpt><trkpt lat="44.81946801323366" lon="0.4318200799251178"><ele>41.0</ele><time>2026-04-19T15:04:36.006Z</time></trkpt><trkpt lat="44.81927828039166" lon="0.43180077284438034"><ele>41.0</ele><time>2026-04-19T15:04:37.006Z</time></trkpt><trkpt lat="44.819058732897325" lon="0.43176902431375097"><ele>41.0</ele><time>2026-04-19T15:04:38.006Z</time></trkpt><trkpt lat="44.81883224737566" lon="0.43173544734482566"><ele>41.0</ele><time>2026-04-19T15:04:39.006Z</time></trkpt><trkpt lat="44.81860723984347" lon="0.431675581974118"><ele>41.0</ele><time>2026-04-19T15:04:40.006Z</time></trkpt><trkpt lat="44.818404873255176" lon="0.43163103623491045"><ele>41.0</ele><time>2026-04-19T15:04:41.006Z</time></trkpt><trkpt lat="44.81820975989475" lon="0.4315691617462376"><ele>41.666666666666664</ele><time>2026-04-19T15:04:42.006Z</time></trkpt><trkpt lat="44.81801544256213" lon="0.43147286883870595"><ele>42.333333333333336</ele><time>2026-04-19T15:04:43.006Z</time></trkpt><trkpt lat="44.81783143820882" lon="0.43136096590399037"><ele>43.0</ele><time>2026-04-19T15:04:44.006Z</time></trkpt><trkpt lat="44.81763935898884" lon="0.43123540393381804"><ele>44.333333333333336</ele><time>2026-04-19T15:04:45.006Z</time></trkpt><trkpt lat="44.817445461183986" lon="0.43112932165199486"><ele>45.666666666666664</ele><time>2026-04-19T15:04:46.007Z</time></trkpt><trkpt lat="44.81726575221791" lon="0.4309834810576748"><ele>47.0</ele><time>2026-04-19T15:04:47.007Z</time></trkpt><trkpt lat="44.81709088043767" lon="0.43088947155484963"><ele>47.0</ele><time>2026-04-19T15:04:48.007Z</time></trkpt><trkpt lat="44.81694030946248" lon="0.43076200806247583"><ele>47.0</ele><time>2026-04-19T15:04:49.007Z</time></trkpt><trkpt lat="44.81676784464816" lon="0.43067682092487936"><ele>47.0</ele><time>2026-04-19T15:04:50.007Z</time></trkpt><trkpt lat="44.81659336490916" lon="0.43059712936713807"><ele>47.33333333333333</ele><time>2026-04-19T15:04:51.007Z</time></trkpt><trkpt lat="44.816415621299676" lon="0.43054888903586974"><ele>47.666666666666664</ele><time>2026-04-19T15:04:52.007Z</time></trkpt><trkpt lat="44.81622990203354" lon="0.4305163279237383"><ele>48.0</ele><time>2026-04-19T15:04:53.007Z</time></trkpt><trkpt lat="44.81603890180995" lon="0.4305049224164817"><ele>49.0</ele><time>2026-04-19T15:04:54.007Z</time></trkpt><trkpt lat="44.81585554309693" lon="0.43046808975463224"><ele>50.0</ele><time>2026-04-19T15:04:55.002Z</time></trkpt><trkpt lat="44.81567617986166" lon="0.43046266518641957"><ele>51.0</ele><time>2026-04-19T15:04:56.003Z</time></trkpt><trkpt lat="44.8155200156252" lon="0.4304212640811582"><ele>51.0</ele><time>2026-04-19T15:04:57.003Z</time></trkpt><trkpt lat="44.815378733485346" lon="0.4303979926757516"><ele>51.0</ele><time>2026-04-19T15:04:58.003Z</time></trkpt><trkpt lat="44.81524238700151" lon="0.430377886832236"><ele>51.0</ele><time>2026-04-19T15:04:59.003Z</time></trkpt><trkpt lat="44.81513071192364" lon="0.4303773826631348"><ele>51.0</ele><time>2026-04-19T15:05:00.003Z</time></trkpt><trkpt lat="44.81502224456966" lon="0.4303363428988159"><ele>51.4</ele><time>2026-04-19T15:05:01.002Z</time></trkpt><trkpt lat="44.81494653037909" lon="0.4303297016580499"><ele>51.8</ele><time>2026-04-19T15:05:02.003Z</time></trkpt><trkpt lat="44.81484271447499" lon="0.4303289879039972"><ele>52.199999999999996</ele><time>2026-04-19T15:05:04.003Z</time></trkpt><trkpt lat="44.81479145711487" lon="0.4302170655713694"><ele>52.599999999999994</ele><time>2026-04-19T15:05:07.002Z</time></trkpt><trkpt lat="44.8147983396534" lon="0.43001547590808326"><ele>53.0</ele><time>2026-04-19T15:05:09.002Z</time></trkpt><trkpt lat="44.814812132820784" lon="0.42987395905670245"><ele>53.0</ele><time>2026-04-19T15:05:10.002Z</time></trkpt><trkpt lat="44.81482884011535" lon="0.4297108730187399"><ele>53.0</ele><time>2026-04-19T15:05:11.002Z</time></trkpt><trkpt lat="44.81484253093447" lon="0.4295428221788545"><ele>53.0</ele><time>2026-04-19T15:05:12.002Z</time></trkpt><trkpt lat="44.81486011668221" lon="0.4293735346271567"><ele>53.0</ele><time>2026-04-19T15:05:13.002Z</time></trkpt><trkpt lat="44.81487139995467" lon="0.4291703362949311"><ele>53.0</ele><time>2026-04-19T15:05:14.002Z</time></trkpt><trkpt lat="44.8148779078129" lon="0.42893764756189035"><ele>53.0</ele><time>2026-04-19T15:05:15.002Z</time></trkpt><trkpt lat="44.81489119322495" lon="0.4286864493947707"><ele>53.0</ele><time>2026-04-19T15:05:16.002Z</time></trkpt><trkpt lat="44.8149105052839" lon="0.4284462352648087"><ele>53.0</ele><time>2026-04-19T15:05:17.002Z</time></trkpt><trkpt lat="44.814935818984125" lon="0.4281874562959187"><ele>53.0</ele><time>2026-04-19T15:05:18.002Z</time></trkpt><trkpt lat="44.81493635248709" lon="0.42790757563369797"><ele>53.0</ele><time>2026-04-19T15:05:19.002Z</time></trkpt><trkpt lat="44.81493544170207" lon="0.42764140407867685"><ele>53.0</ele><time>2026-04-19T15:05:20.002Z</time></trkpt><trkpt lat="44.81493824237978" lon="0.4273608442242774"><ele>53.0</ele><time>2026-04-19T15:05:21.002Z</time></trkpt><trkpt lat="44.814927803383505" lon="0.42708329559118996"><ele>53.0</ele><time>2026-04-19T15:05:22.002Z</time></trkpt><trkpt lat="44.81490327375067" lon="0.4268052729252402"><ele>53.0</ele><time>2026-04-19T15:05:23.002Z</time></trkpt><trkpt lat="44.8148851508444" lon="0.4265117590078337"><ele>53.0</ele><time>2026-04-19T15:05:24.002Z</time></trkpt><trkpt lat="44.81486184544023" lon="0.4262240193479106"><ele>53.0</ele><time>2026-04-19T15:05:25.002Z</time></trkpt><trkpt lat="44.8148264729517" lon="0.4259349915613414"><ele>53.333333333333336</ele><time>2026-04-19T15:05:26.002Z</time></trkpt><trkpt lat="44.81479866804616" lon="0.42564529308101756"><ele>53.66666666666667</ele><time>2026-04-19T15:05:27.002Z</time></trkpt><trkpt lat="44.81478316304878" lon="0.4253518691233818"><ele>54.0</ele><time>2026-04-19T15:05:28.002Z</time></trkpt><trkpt lat="44.814779176194776" lon="0.42506496402425087"><ele>54.0</ele><time>2026-04-19T15:05:29.002Z</time></trkpt><trkpt lat="44.814789918052576" lon="0.4247720944372737"><ele>54.0</ele><time>2026-04-19T15:05:30.002Z</time></trkpt><trkpt lat="44.81479165951176" lon="0.4244798992272805"><ele>54.0</ele><time>2026-04-19T15:05:31.002Z</time></trkpt><trkpt lat="44.814778119303085" lon="0.4241905020537943"><ele>54.0</ele><time>2026-04-19T15:05:32.002Z</time></trkpt><trkpt lat="44.81475625787321" lon="0.4239036259900974"><ele>54.0</ele><time>2026-04-19T15:05:33.002Z</time></trkpt><trkpt lat="44.814736546773815" lon="0.42359396458904486"><ele>54.0</ele><time>2026-04-19T15:05:34.002Z</time></trkpt><trkpt lat="44.8147164195523" lon="0.42328587080631364"><ele>54.0</ele><time>2026-04-19T15:05:35.002Z</time></trkpt><trkpt lat="44.81470005478754" lon="0.42297699265259997"><ele>54.0</ele><time>2026-04-19T15:05:36.002Z</time></trkpt><trkpt lat="44.814676780482664" lon="0.4226814663573062"><ele>54.0</ele><time>2026-04-19T15:05:37.003Z</time></trkpt><trkpt lat="44.81464892301897" lon="0.4223909118558084"><ele>53.33333333333333</ele><time>2026-04-19T15:05:38.003Z</time></trkpt><trkpt lat="44.814633425954256" lon="0.4220958322752825"><ele>52.666666666666664</ele><time>2026-04-19T15:05:39.003Z</time></trkpt><trkpt lat="44.81460828083402" lon="0.4217991819350829"><ele>52.0</ele><time>2026-04-19T15:05:40.003Z</time></trkpt><trkpt lat="44.814590422374884" lon="0.4215095349341089"><ele>51.666666666666664</ele><time>2026-04-19T15:05:41.003Z</time></trkpt><trkpt lat="44.814566909202945" lon="0.4212125539177363"><ele>51.33333333333333</ele><time>2026-04-19T15:05:42.003Z</time></trkpt><trkpt lat="44.81454595746535" lon="0.4209184145498887"><ele>51.0</ele><time>2026-04-19T15:05:43.003Z</time></trkpt><trkpt lat="44.814526293165194" lon="0.4206341854809118"><ele>50.66666666666667</ele><time>2026-04-19T15:05:44.003Z</time></trkpt><trkpt lat="44.814500691306975" lon="0.42033363174415095"><ele>50.333333333333336</ele><time>2026-04-19T15:05:45.003Z</time></trkpt><trkpt lat="44.81448251804918" lon="0.42005058501018766"><ele>50.0</ele><time>2026-04-19T15:05:46.003Z</time></trkpt><trkpt lat="44.81446656367319" lon="0.41975077720157306"><ele>50.333333333333336</ele><time>2026-04-19T15:05:47.003Z</time></trkpt><trkpt lat="44.81444798587289" lon="0.4194597824935793"><ele>50.66666666666667</ele><time>2026-04-19T15:05:48.003Z</time></trkpt><trkpt lat="44.81442983258201" lon="0.41916821426840645"><ele>51.0</ele><time>2026-04-19T15:05:49.003Z</time></trkpt><trkpt lat="44.81440200763493" lon="0.41887419301159634"><ele>50.66666666666667</ele><time>2026-04-19T15:05:50.003Z</time></trkpt><trkpt lat="44.81436895148905" lon="0.41858290782063595"><ele>50.333333333333336</ele><time>2026-04-19T15:05:51.003Z</time></trkpt><trkpt lat="44.81435143168738" lon="0.41829915613144797"><ele>50.0</ele><time>2026-04-19T15:05:52.003Z</time></trkpt><trkpt lat="44.814328698106145" lon="0.41801118453638636"><ele>50.66666666666667</ele><time>2026-04-19T15:05:53.003Z</time></trkpt><trkpt lat="44.81430738208789" lon="0.41771484120977526"><ele>51.33333333333333</ele><time>2026-04-19T15:05:54.003Z</time></trkpt><trkpt lat="44.81428488885369" lon="0.41743075824782033"><ele>52.0</ele><time>2026-04-19T15:05:55.003Z</time></trkpt><trkpt lat="44.81426744406853" lon="0.41715221388565465"><ele>52.0</ele><time>2026-04-19T15:05:56.003Z</time></trkpt><trkpt lat="44.81427900844225" lon="0.41686014678559713"><ele>52.0</ele><time>2026-04-19T15:05:57.003Z</time></trkpt><trkpt lat="44.814286309134566" lon="0.41658157489328407"><ele>52.0</ele><time>2026-04-19T15:05:58.003Z</time></trkpt><trkpt lat="44.81429655429659" lon="0.4163029744864567"><ele>52.0</ele><time>2026-04-19T15:05:59.003Z</time></trkpt><trkpt lat="44.81429201680731" lon="0.4160006385329872"><ele>52.0</ele><time>2026-04-19T15:06:00.003Z</time></trkpt><trkpt lat="44.81430651800908" lon="0.4157126913955633"><ele>52.0</ele><time>2026-04-19T15:06:01.003Z</time></trkpt><trkpt lat="44.81428715839947" lon="0.4154268698455999"><ele>52.0</ele><time>2026-04-19T15:06:02.003Z</time></trkpt><trkpt lat="44.81425440632868" lon="0.415142724753553"><ele>52.0</ele><time>2026-04-19T15:06:03.003Z</time></trkpt><trkpt lat="44.81419718244417" lon="0.4148618260316845"><ele>52.0</ele><time>2026-04-19T15:06:04.003Z</time></trkpt><trkpt lat="44.81415144169911" lon="0.41457747924223903"><ele>52.0</ele><time>2026-04-19T15:06:05.003Z</time></trkpt><trkpt lat="44.81409123540436" lon="0.41430638031484307"><ele>52.0</ele><time>2026-04-19T15:06:06.003Z</time></trkpt><trkpt lat="44.814029483728454" lon="0.41402239156955156"><ele>52.0</ele><time>2026-04-19T15:06:07.003Z</time></trkpt><trkpt lat="44.813974382802776" lon="0.41374291363133525"><ele>52.0</ele><time>2026-04-19T15:06:08.003Z</time></trkpt><trkpt lat="44.81391560677262" lon="0.41345939001551046"><ele>52.0</ele><time>2026-04-19T15:06:09.003Z</time></trkpt><trkpt lat="44.81385490292395" lon="0.4131734482174801"><ele>52.0</ele><time>2026-04-19T15:06:10.003Z</time></trkpt><trkpt lat="44.81378660817021" lon="0.412909133759502"><ele>51.666666666666664</ele><time>2026-04-19T15:06:11.003Z</time></trkpt><trkpt lat="44.81372382048297" lon="0.41263313763060916"><ele>51.33333333333333</ele><time>2026-04-19T15:06:12.003Z</time></trkpt><trkpt lat="44.813667567011834" lon="0.41234808871605527"><ele>51.0</ele><time>2026-04-19T15:06:13.003Z</time></trkpt><trkpt lat="44.81361538695917" lon="0.41207529424570727"><ele>51.0</ele><time>2026-04-19T15:06:14.003Z</time></trkpt><trkpt lat="44.8135674618295" lon="0.41179502981993515"><ele>51.0</ele><time>2026-04-19T15:06:15.003Z</time></trkpt><trkpt lat="44.8135111214223" lon="0.41152009402688905"><ele>51.0</ele><time>2026-04-19T15:06:16.003Z</time></trkpt><trkpt lat="44.8134581853676" lon="0.4112458212513551"><ele>51.66666666666667</ele><time>2026-04-19T15:06:17.003Z</time></trkpt><trkpt lat="44.813405658742504" lon="0.4109702232555904"><ele>52.333333333333336</ele><time>2026-04-19T15:06:18.003Z</time></trkpt><trkpt lat="44.81335628524299" lon="0.4106798280095066"><ele>53.0</ele><time>2026-04-19T15:06:19.003Z</time></trkpt><trkpt lat="44.813305954809806" lon="0.410380859689872"><ele>53.0</ele><time>2026-04-19T15:06:20.003Z</time></trkpt><trkpt lat="44.81325449571103" lon="0.4101001207481561"><ele>53.0</ele><time>2026-04-19T15:06:21.003Z</time></trkpt><trkpt lat="44.81320495111392" lon="0.40981503827088056"><ele>53.0</ele><time>2026-04-19T15:06:22.003Z</time></trkpt><trkpt lat="44.81315904154021" lon="0.40954037999428167"><ele>52.333333333333336</ele><time>2026-04-19T15:06:23.003Z</time></trkpt><trkpt lat="44.81311092448587" lon="0.40926291245264734"><ele>51.66666666666667</ele><time>2026-04-19T15:06:24.004Z</time></trkpt><trkpt lat="44.81306389340343" lon="0.40898627100787677"><ele>51.0</ele><time>2026-04-19T15:06:25.004Z</time></trkpt><trkpt lat="44.81301824487257" lon="0.40869877954864386"><ele>50.66666666666667</ele><time>2026-04-19T15:06:26.004Z</time></trkpt><trkpt lat="44.81296696589139" lon="0.4084122048531554"><ele>50.333333333333336</ele><time>2026-04-19T15:06:27.004Z</time></trkpt><trkpt lat="44.81291370631352" lon="0.4081363624213527"><ele>50.0</ele><time>2026-04-19T15:06:28.004Z</time></trkpt><trkpt lat="44.812871461186496" lon="0.4078558968391594"><ele>50.0</ele><time>2026-04-19T15:06:29.004Z</time></trkpt><trkpt lat="44.812820719797955" lon="0.40757340239251133"><ele>50.0</ele><time>2026-04-19T15:06:30.004Z</time></trkpt><trkpt lat="44.81276727910173" lon="0.4072957095642486"><ele>50.0</ele><time>2026-04-19T15:06:31.004Z</time></trkpt><trkpt lat="44.812722923769456" lon="0.40704395291416995"><ele>49.66666666666667</ele><time>2026-04-19T15:06:32.004Z</time></trkpt><trkpt lat="44.81268468693128" lon="0.4067857109544467"><ele>49.33333333333333</ele><time>2026-04-19T15:06:33.004Z</time></trkpt><trkpt lat="44.81263788349267" lon="0.40651922007498686"><ele>49.0</ele><time>2026-04-19T15:06:34.004Z</time></trkpt><trkpt lat="44.812597320620256" lon="0.4062505134574248"><ele>50.666666666666664</ele><time>2026-04-19T15:06:35.004Z</time></trkpt><trkpt lat="44.81255515803379" lon="0.40598475813209156"><ele>52.33333333333333</ele><time>2026-04-19T15:06:36.004Z</time></trkpt><trkpt lat="44.81252494658031" lon="0.4057010195862718"><ele>54.0</ele><time>2026-04-19T15:06:37.004Z</time></trkpt><trkpt lat="44.81251174912223" lon="0.405427716475564"><ele>54.0</ele><time>2026-04-19T15:06:38.004Z</time></trkpt><trkpt lat="44.81250852964414" lon="0.40515210058114093"><ele>54.0</ele><time>2026-04-19T15:06:39.004Z</time></trkpt><trkpt lat="44.8125104540803" lon="0.40486937312149995"><ele>54.0</ele><time>2026-04-19T15:06:40.004Z</time></trkpt><trkpt lat="44.812516783816164" lon="0.4045750892054317"><ele>53.66666666666667</ele><time>2026-04-19T15:06:41.004Z</time></trkpt><trkpt lat="44.81252789321085" lon="0.4042873831405701"><ele>53.333333333333336</ele><time>2026-04-19T15:06:42.004Z</time></trkpt><trkpt lat="44.81254332030466" lon="0.40400341188098804"><ele>53.0</ele><time>2026-04-19T15:06:43.004Z</time></trkpt><trkpt lat="44.81255689244974" lon="0.403717580655182"><ele>53.0</ele><time>2026-04-19T15:06:44.004Z</time></trkpt><trkpt lat="44.81255932329957" lon="0.40342721201920495"><ele>53.0</ele><time>2026-04-19T15:06:45.004Z</time></trkpt><trkpt lat="44.81256469185741" lon="0.4031354612211593"><ele>53.0</ele><time>2026-04-19T15:06:46.004Z</time></trkpt><trkpt lat="44.812569120755796" lon="0.40283366693022765"><ele>52.0</ele><time>2026-04-19T15:06:47.004Z</time></trkpt><trkpt lat="44.81257877752843" lon="0.40253248126851"><ele>51.0</ele><time>2026-04-19T15:06:48.004Z</time></trkpt><trkpt lat="44.81258624330318" lon="0.4022264246562607"><ele>50.0</ele><time>2026-04-19T15:06:49.004Z</time></trkpt><trkpt lat="44.8125898858767" lon="0.40192706210842655"><ele>49.66666666666667</ele><time>2026-04-19T15:06:50.004Z</time></trkpt><trkpt lat="44.81259763592555" lon="0.40161831147520827"><ele>49.33333333333333</ele><time>2026-04-19T15:06:51.004Z</time></trkpt><trkpt lat="44.812607052073716" lon="0.40131023904912094"><ele>49.0</ele><time>2026-04-19T15:06:52.004Z</time></trkpt><trkpt lat="44.81260881552455" lon="0.4010053950356984"><ele>48.666666666666664</ele><time>2026-04-19T15:06:53.004Z</time></trkpt><trkpt lat="44.812616403530406" lon="0.4007070299798027"><ele>48.33333333333333</ele><time>2026-04-19T15:06:54.004Z</time></trkpt><trkpt lat="44.812618631402934" lon="0.40040666179649625"><ele>48.0</ele><time>2026-04-19T15:06:55.004Z</time></trkpt><trkpt lat="44.81262532223036" lon="0.4001073172375646"><ele>48.0</ele><time>2026-04-19T15:06:56.004Z</time></trkpt><trkpt lat="44.81263879881417" lon="0.39981204344299975"><ele>48.0</ele><time>2026-04-19T15:06:57.004Z</time></trkpt><trkpt lat="44.812649901039855" lon="0.3995081014046067"><ele>48.0</ele><time>2026-04-19T15:06:58.004Z</time></trkpt><trkpt lat="44.81265309431733" lon="0.3992139393687162"><ele>48.0</ele><time>2026-04-19T15:06:59.004Z</time></trkpt><trkpt lat="44.81265693542728" lon="0.3989186394584911"><ele>48.0</ele><time>2026-04-19T15:07:00.004Z</time></trkpt><trkpt lat="44.81265123893236" lon="0.3986418463364547"><ele>48.0</ele><time>2026-04-19T15:07:01.001Z</time></trkpt><trkpt lat="44.81262635248033" lon="0.3983504880778266"><ele>48.33333333333333</ele><time>2026-04-19T15:07:02.001Z</time></trkpt><trkpt lat="44.81257034309179" lon="0.39807532724924644"><ele>48.666666666666664</ele><time>2026-04-19T15:07:03.001Z</time></trkpt><trkpt lat="44.81249118067685" lon="0.39780693851642007"><ele>49.0</ele><time>2026-04-19T15:07:04.001Z</time></trkpt><trkpt lat="44.81238239262944" lon="0.3975513540979552"><ele>48.33333333333333</ele><time>2026-04-19T15:07:05.001Z</time></trkpt><trkpt lat="44.81227720875535" lon="0.39729403585253564"><ele>47.666666666666664</ele><time>2026-04-19T15:07:06.001Z</time></trkpt><trkpt lat="44.812174454674185" lon="0.3970284583874956"><ele>47.0</ele><time>2026-04-19T15:07:07.001Z</time></trkpt><trkpt lat="44.81206914591168" lon="0.39676016317245333"><ele>46.33333333333333</ele><time>2026-04-19T15:07:08.001Z</time></trkpt><trkpt lat="44.8119627651448" lon="0.3964869308637331"><ele>45.666666666666664</ele><time>2026-04-19T15:07:09.001Z</time></trkpt><trkpt lat="44.811853666043696" lon="0.3962053486605087"><ele>45.0</ele><time>2026-04-19T15:07:10.001Z</time></trkpt><trkpt lat="44.81175165006971" lon="0.39592504344613444"><ele>45.0</ele><time>2026-04-19T15:07:11.001Z</time></trkpt><trkpt lat="44.8116442571352" lon="0.39565797645617456"><ele>45.0</ele><time>2026-04-19T15:07:12.001Z</time></trkpt><trkpt lat="44.81153421381737" lon="0.3953933430808209"><ele>45.0</ele><time>2026-04-19T15:07:13.001Z</time></trkpt><trkpt lat="44.81143063274888" lon="0.39511750566132936"><ele>45.0</ele><time>2026-04-19T15:07:14.001Z</time></trkpt><trkpt lat="44.81133043582627" lon="0.39484489642577447"><ele>45.0</ele><time>2026-04-19T15:07:15.001Z</time></trkpt><trkpt lat="44.81123099845054" lon="0.3945819723682757"><ele>45.0</ele><time>2026-04-19T15:07:16.001Z</time></trkpt><trkpt lat="44.81113106529668" lon="0.39432190957333335"><ele>44.666666666666664</ele><time>2026-04-19T15:07:17.001Z</time></trkpt><trkpt lat="44.811034958981864" lon="0.3940715156325031"><ele>44.33333333333333</ele><time>2026-04-19T15:07:18.001Z</time></trkpt><trkpt lat="44.81093956823602" lon="0.39382496377139337"><ele>44.0</ele><time>2026-04-19T15:07:19.001Z</time></trkpt><trkpt lat="44.81084715381112" lon="0.39357822980869733"><ele>44.0</ele><time>2026-04-19T15:07:20.001Z</time></trkpt><trkpt lat="44.81075542137611" lon="0.39333903449878765"><ele>44.0</ele><time>2026-04-19T15:07:21.001Z</time></trkpt><trkpt lat="44.810665710936995" lon="0.39310742321424286"><ele>44.0</ele><time>2026-04-19T15:07:22.001Z</time></trkpt><trkpt lat="44.81058168673715" lon="0.39288361026435686"><ele>44.666666666666664</ele><time>2026-04-19T15:07:23.001Z</time></trkpt><trkpt lat="44.810500298459964" lon="0.39266815657306786"><ele>45.333333333333336</ele><time>2026-04-19T15:07:24.001Z</time></trkpt><trkpt lat="44.81042068517991" lon="0.39245834731071333"><ele>46.0</ele><time>2026-04-19T15:07:25.001Z</time></trkpt><trkpt lat="44.81034098901432" lon="0.3922589200702103"><ele>45.75</ele><time>2026-04-19T15:07:26.001Z</time></trkpt><trkpt lat="44.810273617243816" lon="0.39207494219510397"><ele>45.5</ele><time>2026-04-19T15:07:27.001Z</time></trkpt><trkpt lat="44.81021212430772" lon="0.39189825175626464"><ele>45.25</ele><time>2026-04-19T15:07:28.001Z</time></trkpt><trkpt lat="44.810143646145754" lon="0.3917166877515514"><ele>45.0</ele><time>2026-04-19T15:07:29.001Z</time></trkpt><trkpt lat="44.810070809087556" lon="0.39152918012787474"><ele>45.0</ele><time>2026-04-19T15:07:30.001Z</time></trkpt><trkpt lat="44.81000440984878" lon="0.39135509835946436"><ele>45.0</ele><time>2026-04-19T15:07:31.001Z</time></trkpt><trkpt lat="44.8099432309146" lon="0.3911752599573924"><ele>45.0</ele><time>2026-04-19T15:07:32.001Z</time></trkpt><trkpt lat="44.80988778518776" lon="0.39097920156484967"><ele>45.0</ele><time>2026-04-19T15:07:33.001Z</time></trkpt><trkpt lat="44.80983555161063" lon="0.39076362137486603"><ele>44.666666666666664</ele><time>2026-04-19T15:07:34.001Z</time></trkpt><trkpt lat="44.80980484772647" lon="0.3905191616718379"><ele>44.33333333333333</ele><time>2026-04-19T15:07:35.001Z</time></trkpt><trkpt lat="44.80977165553786" lon="0.39027692175862155"><ele>44.0</ele><time>2026-04-19T15:07:36.001Z</time></trkpt><trkpt lat="44.80973526524489" lon="0.39002197922613535"><ele>43.33333333333333</ele><time>2026-04-19T15:07:37.001Z</time></trkpt><trkpt lat="44.80970180016307" lon="0.38975047131329554"><ele>42.666666666666664</ele><time>2026-04-19T15:07:38.001Z</time></trkpt><trkpt lat="44.809688340215565" lon="0.38947899454835233"><ele>42.0</ele><time>2026-04-19T15:07:39.001Z</time></trkpt><trkpt lat="44.809678058591714" lon="0.3892020820410062"><ele>41.666666666666664</ele><time>2026-04-19T15:07:40.001Z</time></trkpt><trkpt lat="44.80971520422379" lon="0.3889163492486507"><ele>41.33333333333333</ele><time>2026-04-19T15:07:41.001Z</time></trkpt><trkpt lat="44.809711613412794" lon="0.3886291867499601"><ele>41.0</ele><time>2026-04-19T15:07:42.001Z</time></trkpt><trkpt lat="44.80970793383709" lon="0.38833677222928425"><ele>40.666666666666664</ele><time>2026-04-19T15:07:43.001Z</time></trkpt><trkpt lat="44.809704094192355" lon="0.3880469685516869"><ele>40.333333333333336</ele><time>2026-04-19T15:07:44.001Z</time></trkpt><trkpt lat="44.809700198353596" lon="0.38775292312500853"><ele>40.0</ele><time>2026-04-19T15:07:45.001Z</time></trkpt><trkpt lat="44.80969646864542" lon="0.3874584960171773"><ele>39.333333333333336</ele><time>2026-04-19T15:07:46.001Z</time></trkpt><trkpt lat="44.809692752709054" lon="0.3871633723347617"><ele>38.666666666666664</ele><time>2026-04-19T15:07:47.001Z</time></trkpt><trkpt lat="44.80968926807497" lon="0.38688661833353133"><ele>38.0</ele><time>2026-04-19T15:07:48.001Z</time></trkpt><trkpt lat="44.80968630790516" lon="0.38661134481197096"><ele>38.0</ele><time>2026-04-19T15:07:49.002Z</time></trkpt><trkpt lat="44.809683510243886" lon="0.38633398478949105"><ele>38.0</ele><time>2026-04-19T15:07:50.002Z</time></trkpt><trkpt lat="44.809680650547435" lon="0.38605047542233123"><ele>38.0</ele><time>2026-04-19T15:07:51.002Z</time></trkpt><trkpt lat="44.80967773246887" lon="0.3857611775876375"><ele>38.33333333333333</ele><time>2026-04-19T15:07:52.002Z</time></trkpt><trkpt lat="44.809674864739584" lon="0.38547687117414514"><ele>38.666666666666664</ele><time>2026-04-19T15:07:53.002Z</time></trkpt><trkpt lat="44.80967090649817" lon="0.38518923395139987"><ele>39.0</ele><time>2026-04-19T15:07:54.002Z</time></trkpt><trkpt lat="44.809666454025624" lon="0.3848964756375759"><ele>39.333333333333336</ele><time>2026-04-19T15:07:55.002Z</time></trkpt><trkpt lat="44.809662242763196" lon="0.3846195770723354"><ele>39.66666666666667</ele><time>2026-04-19T15:07:56.002Z</time></trkpt><trkpt lat="44.80965707626067" lon="0.3843404827529736"><ele>40.0</ele><time>2026-04-19T15:07:57.002Z</time></trkpt><trkpt lat="44.809651326614656" lon="0.38405749685827145"><ele>40.0</ele><time>2026-04-19T15:07:58.002Z</time></trkpt><trkpt lat="44.80963333324053" lon="0.3837860923138986"><ele>40.0</ele><time>2026-04-19T15:07:59.002Z</time></trkpt><trkpt lat="44.80963341277592" lon="0.3835123994697157"><ele>40.0</ele><time>2026-04-19T15:08:00.002Z</time></trkpt><trkpt lat="44.809648064958886" lon="0.3832346323529076"><ele>40.333333333333336</ele><time>2026-04-19T15:08:01.002Z</time></trkpt><trkpt lat="44.80966735091393" lon="0.382951615543101"><ele>40.666666666666664</ele><time>2026-04-19T15:08:02.002Z</time></trkpt><trkpt lat="44.80969401204331" lon="0.38267105301646814"><ele>41.0</ele><time>2026-04-19T15:08:03.002Z</time></trkpt><trkpt lat="44.809737884176464" lon="0.3823912258111619"><ele>41.0</ele><time>2026-04-19T15:08:04.002Z</time></trkpt><trkpt lat="44.809781651369114" lon="0.382110173796832"><ele>41.0</ele><time>2026-04-19T15:08:05.002Z</time></trkpt><trkpt lat="44.80982673669873" lon="0.3818259284575105"><ele>41.0</ele><time>2026-04-19T15:08:06.002Z</time></trkpt><trkpt lat="44.809871918920656" lon="0.38153922461728046"><ele>41.0</ele><time>2026-04-19T15:08:07.002Z</time></trkpt><trkpt lat="44.80992288073798" lon="0.3812598589542709"><ele>41.0</ele><time>2026-04-19T15:08:08.002Z</time></trkpt><trkpt lat="44.80996115565632" lon="0.38097832330899883"><ele>41.0</ele><time>2026-04-19T15:08:09.002Z</time></trkpt><trkpt lat="44.810001018670434" lon="0.3806918196795961"><ele>41.33333333333333</ele><time>2026-04-19T15:08:10.002Z</time></trkpt><trkpt lat="44.81004808622441" lon="0.38040534715653823"><ele>41.666666666666664</ele><time>2026-04-19T15:08:11.002Z</time></trkpt><trkpt lat="44.810092558403824" lon="0.38011450878283265"><ele>42.0</ele><time>2026-04-19T15:08:12.002Z</time></trkpt><trkpt lat="44.81013466568604" lon="0.37982345664241324"><ele>41.333333333333336</ele><time>2026-04-19T15:08:13.002Z</time></trkpt><trkpt lat="44.810181620043835" lon="0.379531164221213"><ele>40.66666666666667</ele><time>2026-04-19T15:08:14.002Z</time></trkpt><trkpt lat="44.8102225014762" lon="0.3792401651045783"><ele>40.0</ele><time>2026-04-19T15:08:15.002Z</time></trkpt><trkpt lat="44.81025710546314" lon="0.3789547415696388"><ele>40.333333333333336</ele><time>2026-04-19T15:08:16.002Z</time></trkpt><trkpt lat="44.81029945476137" lon="0.37866423274466227"><ele>40.666666666666664</ele><time>2026-04-19T15:08:17.002Z</time></trkpt><trkpt lat="44.810344128126864" lon="0.37838097199327814"><ele>41.0</ele><time>2026-04-19T15:08:18.002Z</time></trkpt><trkpt lat="44.810401083991806" lon="0.3781160031872929"><ele>41.0</ele><time>2026-04-19T15:08:19.002Z</time></trkpt><trkpt lat="44.8104419877689" lon="0.3778552274353327"><ele>41.0</ele><time>2026-04-19T15:08:20.002Z</time></trkpt><trkpt lat="44.81048028658554" lon="0.37759735009490536"><ele>41.0</ele><time>2026-04-19T15:08:21.002Z</time></trkpt><trkpt lat="44.81050545206282" lon="0.37733164866684854"><ele>40.666666666666664</ele><time>2026-04-19T15:08:22.002Z</time></trkpt><trkpt lat="44.81053245191898" lon="0.3770676101324577"><ele>40.333333333333336</ele><time>2026-04-19T15:08:23.002Z</time></trkpt><trkpt lat="44.81056031461322" lon="0.3767947957216024"><ele>40.0</ele><time>2026-04-19T15:08:24.002Z</time></trkpt><trkpt lat="44.81057145073331" lon="0.3765222551741814"><ele>40.333333333333336</ele><time>2026-04-19T15:08:25.002Z</time></trkpt><trkpt lat="44.81060778190425" lon="0.3762457118921344"><ele>40.666666666666664</ele><time>2026-04-19T15:08:26.002Z</time></trkpt><trkpt lat="44.81061462366945" lon="0.37595017307920797"><ele>41.0</ele><time>2026-04-19T15:08:27.002Z</time></trkpt><trkpt lat="44.81060787582818" lon="0.3756506166806151"><ele>41.33333333333333</ele><time>2026-04-19T15:08:28.002Z</time></trkpt><trkpt lat="44.810605010921854" lon="0.3753561110306942"><ele>41.666666666666664</ele><time>2026-04-19T15:08:29.002Z</time></trkpt><trkpt lat="44.810600843979316" lon="0.37507745289623856"><ele>42.0</ele><time>2026-04-19T15:08:30.002Z</time></trkpt><trkpt lat="44.8106062550262" lon="0.374790853456856"><ele>42.333333333333336</ele><time>2026-04-19T15:08:31.002Z</time></trkpt><trkpt lat="44.810605480198234" lon="0.37451070655092855"><ele>42.66666666666667</ele><time>2026-04-19T15:08:32.002Z</time></trkpt><trkpt lat="44.81060977596569" lon="0.37422431290595726"><ele>43.0</ele><time>2026-04-19T15:08:33.002Z</time></trkpt><trkpt lat="44.810611407556614" lon="0.3739427387332282"><ele>42.66666666666667</ele><time>2026-04-19T15:08:34.002Z</time></trkpt><trkpt lat="44.81061865144325" lon="0.3736630423072032"><ele>42.333333333333336</ele><time>2026-04-19T15:08:35.002Z</time></trkpt><trkpt lat="44.810620960438115" lon="0.37338336245556547"><ele>42.0</ele><time>2026-04-19T15:08:36.003Z</time></trkpt><trkpt lat="44.81061681894806" lon="0.37310527814998734"><ele>41.666666666666664</ele><time>2026-04-19T15:08:37.003Z</time></trkpt><trkpt lat="44.8106094070835" lon="0.3728330524125463"><ele>41.33333333333333</ele><time>2026-04-19T15:08:38.003Z</time></trkpt><trkpt lat="44.810588532330584" lon="0.37255236060392216"><ele>41.0</ele><time>2026-04-19T15:08:39.003Z</time></trkpt><trkpt lat="44.81056218881589" lon="0.3722684446990889"><ele>40.33333333333333</ele><time>2026-04-19T15:08:40.003Z</time></trkpt><trkpt lat="44.810521115573216" lon="0.3719813639042722"><ele>39.666666666666664</ele><time>2026-04-19T15:08:41.003Z</time></trkpt><trkpt lat="44.81048453422706" lon="0.37169297634152826"><ele>39.0</ele><time>2026-04-19T15:08:42.003Z</time></trkpt><trkpt lat="44.81044913011593" lon="0.3713893128560194"><ele>39.0</ele><time>2026-04-19T15:08:43.003Z</time></trkpt><trkpt lat="44.81042013285906" lon="0.3710862369917978"><ele>39.0</ele><time>2026-04-19T15:08:44.003Z</time></trkpt><trkpt lat="44.810384238465" lon="0.37078820590060113"><ele>39.0</ele><time>2026-04-19T15:08:45.003Z</time></trkpt><trkpt lat="44.81034803393222" lon="0.37049068580418"><ele>39.0</ele><time>2026-04-19T15:08:46.003Z</time></trkpt><trkpt lat="44.81031698838128" lon="0.3701935283944352"><ele>39.0</ele><time>2026-04-19T15:08:47.003Z</time></trkpt><trkpt lat="44.81028175916646" lon="0.3698936271374082"><ele>39.0</ele><time>2026-04-19T15:08:48.003Z</time></trkpt><trkpt lat="44.81025226588783" lon="0.36959303182697917"><ele>39.0</ele><time>2026-04-19T15:08:49.003Z</time></trkpt><trkpt lat="44.81022809638162" lon="0.3693031888460265"><ele>39.0</ele><time>2026-04-19T15:08:50.003Z</time></trkpt><trkpt lat="44.81019564353102" lon="0.3690186605880968"><ele>39.0</ele><time>2026-04-19T15:08:51.003Z</time></trkpt><trkpt lat="44.81016969595784" lon="0.3687265587434299"><ele>41.0</ele><time>2026-04-19T15:08:52.003Z</time></trkpt><trkpt lat="44.81013995759029" lon="0.36844276865074155"><ele>43.0</ele><time>2026-04-19T15:08:53.003Z</time></trkpt><trkpt lat="44.810124687037586" lon="0.368156222714082"><ele>45.0</ele><time>2026-04-19T15:08:54.003Z</time></trkpt><trkpt lat="44.81011966280695" lon="0.36787509840589583"><ele>45.0</ele><time>2026-04-19T15:08:55.003Z</time></trkpt><trkpt lat="44.8101337507338" lon="0.36758704138134407"><ele>45.0</ele><time>2026-04-19T15:08:56.003Z</time></trkpt><trkpt lat="44.81015276994373" lon="0.36729908057264204"><ele>45.0</ele><time>2026-04-19T15:08:57.003Z</time></trkpt><trkpt lat="44.810180757565206" lon="0.3670073620861784"><ele>43.0</ele><time>2026-04-19T15:08:58.003Z</time></trkpt><trkpt lat="44.810206255085404" lon="0.36671184744071084"><ele>41.0</ele><time>2026-04-19T15:08:59.003Z</time></trkpt><trkpt lat="44.81023782224254" lon="0.3664196010204768"><ele>39.0</ele><time>2026-04-19T15:09:00.003Z</time></trkpt><trkpt lat="44.810282384604584" lon="0.3661311740670438"><ele>38.333333333333336</ele><time>2026-04-19T15:09:01.003Z</time></trkpt><trkpt lat="44.810339853776554" lon="0.36583979813863343"><ele>37.66666666666667</ele><time>2026-04-19T15:09:02.003Z</time></trkpt><trkpt lat="44.81040625336376" lon="0.36555222148923067"><ele>37.0</ele><time>2026-04-19T15:09:03.003Z</time></trkpt><trkpt lat="44.81045710724585" lon="0.36526309609377383"><ele>37.0</ele><time>2026-04-19T15:09:04.003Z</time></trkpt><trkpt lat="44.8105232331204" lon="0.364973642945281"><ele>37.0</ele><time>2026-04-19T15:09:05.003Z</time></trkpt><trkpt lat="44.810585350200995" lon="0.3646905687473582"><ele>37.0</ele><time>2026-04-19T15:09:06.003Z</time></trkpt><trkpt lat="44.81064510298429" lon="0.3644041332153583"><ele>36.66666666666667</ele><time>2026-04-19T15:09:06.999Z</time></trkpt><trkpt lat="44.81070074794879" lon="0.3641202116429064"><ele>36.333333333333336</ele><time>2026-04-19T15:09:07.999Z</time></trkpt><trkpt lat="44.81074894593559" lon="0.36383956108833976"><ele>36.0</ele><time>2026-04-19T15:09:08.999Z</time></trkpt><trkpt lat="44.81080724733854" lon="0.3635619778872726"><ele>35.0</ele><time>2026-04-19T15:09:09.999Z</time></trkpt><trkpt lat="44.81086799209294" lon="0.36328336955793694"><ele>34.0</ele><time>2026-04-19T15:09:10.999Z</time></trkpt><trkpt lat="44.81092730159381" lon="0.3629992824759222"><ele>33.0</ele><time>2026-04-19T15:09:11.999Z</time></trkpt><trkpt lat="44.81098343005863" lon="0.36272681070402324"><ele>33.0</ele><time>2026-04-19T15:09:13Z</time></trkpt><trkpt lat="44.811045084588834" lon="0.36245849693062504"><ele>33.0</ele><time>2026-04-19T15:09:13.999Z</time></trkpt><trkpt lat="44.8111187769405" lon="0.36218688427928797"><ele>33.0</ele><time>2026-04-19T15:09:14.999Z</time></trkpt><trkpt lat="44.81120373480355" lon="0.36193889387794353"><ele>33.0</ele><time>2026-04-19T15:09:16Z</time></trkpt><trkpt lat="44.81129944536758" lon="0.36169806786602526"><ele>33.0</ele><time>2026-04-19T15:09:16.999Z</time></trkpt><trkpt lat="44.81138936565259" lon="0.3614769375213472"><ele>33.0</ele><time>2026-04-19T15:09:17.999Z</time></trkpt><trkpt lat="44.81147752391056" lon="0.3612438423426757"><ele>33.0</ele><time>2026-04-19T15:09:18.999Z</time></trkpt><trkpt lat="44.81158289795992" lon="0.3609997838369258"><ele>33.0</ele><time>2026-04-19T15:09:19.999Z</time></trkpt><trkpt lat="44.81168653287448" lon="0.3607399326166801"><ele>33.0</ele><time>2026-04-19T15:09:20.999Z</time></trkpt><trkpt lat="44.811794756863875" lon="0.3604899458788754"><ele>32.666666666666664</ele><time>2026-04-19T15:09:21.999Z</time></trkpt><trkpt lat="44.81188868985666" lon="0.36024127873705586"><ele>32.33333333333333</ele><time>2026-04-19T15:09:22.999Z</time></trkpt><trkpt lat="44.81198448355986" lon="0.35998130147286883"><ele>32.0</ele><time>2026-04-19T15:09:23.999Z</time></trkpt><trkpt lat="44.81207265429192" lon="0.3597143479747591"><ele>32.0</ele><time>2026-04-19T15:09:24.999Z</time></trkpt><trkpt lat="44.81214554436089" lon="0.35943646772659427"><ele>32.0</ele><time>2026-04-19T15:09:26Z</time></trkpt><trkpt lat="44.81221956682803" lon="0.35915729971146987"><ele>32.0</ele><time>2026-04-19T15:09:27Z</time></trkpt><trkpt lat="44.81227885562392" lon="0.358868386374562"><ele>32.0</ele><time>2026-04-19T15:09:28Z</time></trkpt><trkpt lat="44.8123251309849" lon="0.3585917500301328"><ele>32.0</ele><time>2026-04-19T15:09:29Z</time></trkpt><trkpt lat="44.81236095469498" lon="0.35830835917166"><ele>32.0</ele><time>2026-04-19T15:09:30Z</time></trkpt><trkpt lat="44.81238050071856" lon="0.35803394783167636"><ele>31.666666666666664</ele><time>2026-04-19T15:09:31Z</time></trkpt><trkpt lat="44.81240499200469" lon="0.35775398504480754"><ele>31.333333333333336</ele><time>2026-04-19T15:09:32.001Z</time></trkpt><trkpt lat="44.812403004913996" lon="0.3574763141436576"><ele>31.0</ele><time>2026-04-19T15:09:33.001Z</time></trkpt><trkpt lat="44.812377656168415" lon="0.3572127798529359"><ele>31.0</ele><time>2026-04-19T15:09:34.001Z</time></trkpt><trkpt lat="44.81233111837582" lon="0.35694297408013964"><ele>31.0</ele><time>2026-04-19T15:09:35.001Z</time></trkpt><trkpt lat="44.812278456689505" lon="0.35666892872458383"><ele>31.0</ele><time>2026-04-19T15:09:36.001Z</time></trkpt><trkpt lat="44.81222047514167" lon="0.35641944045008117"><ele>31.666666666666668</ele><time>2026-04-19T15:09:37.001Z</time></trkpt><trkpt lat="44.81218029815787" lon="0.3561826736246141"><ele>32.333333333333336</ele><time>2026-04-19T15:09:38.001Z</time></trkpt><trkpt lat="44.812141519223196" lon="0.35595432271642635"><ele>33.0</ele><time>2026-04-19T15:09:39.001Z</time></trkpt><trkpt lat="44.812104111072514" lon="0.35573467853674334"><ele>33.5</ele><time>2026-04-19T15:09:40.001Z</time></trkpt><trkpt lat="44.81208107746125" lon="0.35553158762529635"><ele>34.0</ele><time>2026-04-19T15:09:41.001Z</time></trkpt><trkpt lat="44.81206155284935" lon="0.3553256517621469"><ele>34.5</ele><time>2026-04-19T15:09:42.001Z</time></trkpt><trkpt lat="44.81204288192018" lon="0.3551195127418507"><ele>35.0</ele><time>2026-04-19T15:09:43.001Z</time></trkpt><trkpt lat="44.81202958404304" lon="0.35492060709622714"><ele>35.0</ele><time>2026-04-19T15:09:44.001Z</time></trkpt><trkpt lat="44.812014468239994" lon="0.3547277636338217"><ele>35.0</ele><time>2026-04-19T15:09:45.001Z</time></trkpt><trkpt lat="44.812000368134875" lon="0.3545254182079176"><ele>35.0</ele><time>2026-04-19T15:09:46.001Z</time></trkpt><trkpt lat="44.8119830590519" lon="0.3543352052159721"><ele>35.0</ele><time>2026-04-19T15:09:47.001Z</time></trkpt><trkpt lat="44.81196860256784" lon="0.3541333122024714"><ele>35.33333333333333</ele><time>2026-04-19T15:09:48.001Z</time></trkpt><trkpt lat="44.811951328355434" lon="0.35392431924049905"><ele>35.666666666666664</ele><time>2026-04-19T15:09:49.001Z</time></trkpt><trkpt lat="44.811940996950305" lon="0.3537135102024199"><ele>36.0</ele><time>2026-04-19T15:09:50.001Z</time></trkpt><trkpt lat="44.81194088853276" lon="0.3534842955763002"><ele>36.0</ele><time>2026-04-19T15:09:51.001Z</time></trkpt><trkpt lat="44.81195384293452" lon="0.3532490122600862"><ele>36.0</ele><time>2026-04-19T15:09:52.001Z</time></trkpt><trkpt lat="44.81197594721635" lon="0.3530036943175979"><ele>36.0</ele><time>2026-04-19T15:09:53.001Z</time></trkpt><trkpt lat="44.81199119492656" lon="0.35275972062352956"><ele>36.0</ele><time>2026-04-19T15:09:54.001Z</time></trkpt><trkpt lat="44.812004733295545" lon="0.3524969456949933"><ele>36.0</ele><time>2026-04-19T15:09:55.001Z</time></trkpt><trkpt lat="44.81201075849453" lon="0.3522127437812852"><ele>36.0</ele><time>2026-04-19T15:09:56.001Z</time></trkpt><trkpt lat="44.81201747354014" lon="0.3519033418714906"><ele>36.0</ele><time>2026-04-19T15:09:57.001Z</time></trkpt><trkpt lat="44.81203101708049" lon="0.35158681676845877"><ele>36.0</ele><time>2026-04-19T15:09:58.001Z</time></trkpt><trkpt lat="44.812039538026646" lon="0.35127389225274197"><ele>36.0</ele><time>2026-04-19T15:09:59.001Z</time></trkpt><trkpt lat="44.81205890193438" lon="0.3509670940638503"><ele>36.5</ele><time>2026-04-19T15:10:00.001Z</time></trkpt><trkpt lat="44.812074610630205" lon="0.3506415196755321"><ele>37.0</ele><time>2026-04-19T15:10:01.001Z</time></trkpt><trkpt lat="44.8120893862525" lon="0.35032854833709126"><ele>36.0</ele><time>2026-04-19T15:10:02.001Z</time></trkpt><trkpt lat="44.81210411683947" lon="0.35001554280742414"><ele>35.0</ele><time>2026-04-19T15:10:03.001Z</time></trkpt><trkpt lat="44.812115482293585" lon="0.3496923893490876"><ele>35.0</ele><time>2026-04-19T15:10:04.001Z</time></trkpt><trkpt lat="44.81212278596461" lon="0.3493670242398337"><ele>35.0</ele><time>2026-04-19T15:10:05.001Z</time></trkpt><trkpt lat="44.812130118121274" lon="0.3490535622296401"><ele>35.0</ele><time>2026-04-19T15:10:06.001Z</time></trkpt><trkpt lat="44.81213514081109" lon="0.3487354933904522"><ele>35.0</ele><time>2026-04-19T15:10:07.001Z</time></trkpt><trkpt lat="44.812146645729435" lon="0.3484114398673303"><ele>35.0</ele><time>2026-04-19T15:10:08.001Z</time></trkpt><trkpt lat="44.81215715318067" lon="0.3480820837636594"><ele>35.0</ele><time>2026-04-19T15:10:09.001Z</time></trkpt><trkpt lat="44.812159957306605" lon="0.34775599111341127"><ele>35.5</ele><time>2026-04-19T15:10:10.001Z</time></trkpt><trkpt lat="44.81215873518194" lon="0.34743212063606393"><ele>36.0</ele><time>2026-04-19T15:10:11.001Z</time></trkpt><trkpt lat="44.812162083306795" lon="0.3471042213392599"><ele>37.5</ele><time>2026-04-19T15:10:12.001Z</time></trkpt><trkpt lat="44.81215609989633" lon="0.3467807482228033"><ele>39.0</ele><time>2026-04-19T15:10:13.002Z</time></trkpt><trkpt lat="44.812158498133186" lon="0.34646264180759195"><ele>39.0</ele><time>2026-04-19T15:10:14.002Z</time></trkpt><trkpt lat="44.81216019218955" lon="0.34613722215745824"><ele>39.0</ele><time>2026-04-19T15:10:15.002Z</time></trkpt><trkpt lat="44.81216003491543" lon="0.34581400833359816"><ele>39.0</ele><time>2026-04-19T15:10:16.002Z</time></trkpt><trkpt lat="44.812155155838546" lon="0.3454945721296455"><ele>39.0</ele><time>2026-04-19T15:10:17.002Z</time></trkpt><trkpt lat="44.8121521104782" lon="0.3451763655488742"><ele>39.0</ele><time>2026-04-19T15:10:18.002Z</time></trkpt><trkpt lat="44.81215354122403" lon="0.3448699865217139"><ele>39.0</ele><time>2026-04-19T15:10:19.002Z</time></trkpt><trkpt lat="44.812157618101395" lon="0.3445543863195938"><ele>39.0</ele><time>2026-04-19T15:10:20.002Z</time></trkpt><trkpt lat="44.81215392523969" lon="0.34424840255475536"><ele>39.666666666666664</ele><time>2026-04-19T15:10:21.002Z</time></trkpt><trkpt lat="44.812149704405606" lon="0.34394199202850945"><ele>40.33333333333333</ele><time>2026-04-19T15:10:22.002Z</time></trkpt><trkpt lat="44.81214459442414" lon="0.343643677965303"><ele>41.0</ele><time>2026-04-19T15:10:23.002Z</time></trkpt><trkpt lat="44.812146270716404" lon="0.34334091817675305"><ele>42.33333333333333</ele><time>2026-04-19T15:10:24.002Z</time></trkpt><trkpt lat="44.812143362594284" lon="0.34305614162610143"><ele>43.666666666666664</ele><time>2026-04-19T15:10:25.002Z</time></trkpt><trkpt lat="44.81214184176603" lon="0.3427619674168448"><ele>45.0</ele><time>2026-04-19T15:10:26.002Z</time></trkpt><trkpt lat="44.812140728526046" lon="0.3424807515609188"><ele>44.333333333333336</ele><time>2026-04-19T15:10:27.002Z</time></trkpt><trkpt lat="44.81214711511987" lon="0.34217006931748284"><ele>43.66666666666667</ele><time>2026-04-19T15:10:28.002Z</time></trkpt><trkpt lat="44.81215283171652" lon="0.3418548599752554"><ele>43.0</ele><time>2026-04-19T15:10:29.002Z</time></trkpt><trkpt lat="44.812147133526665" lon="0.34155187163431644"><ele>42.66666666666667</ele><time>2026-04-19T15:10:30.002Z</time></trkpt><trkpt lat="44.81214059075485" lon="0.34125643615987317"><ele>42.333333333333336</ele><time>2026-04-19T15:10:31.002Z</time></trkpt><trkpt lat="44.81213476405978" lon="0.34095514743900834"><ele>42.0</ele><time>2026-04-19T15:10:32.002Z</time></trkpt><trkpt lat="44.812122724612536" lon="0.34066421825788923"><ele>42.0</ele><time>2026-04-19T15:10:33.002Z</time></trkpt><trkpt lat="44.812108250976" lon="0.34036107590348236"><ele>42.0</ele><time>2026-04-19T15:10:34.002Z</time></trkpt><trkpt lat="44.81206782350435" lon="0.3400578961118891"><ele>42.0</ele><time>2026-04-19T15:10:35.002Z</time></trkpt><trkpt lat="44.81205980480504" lon="0.3397357640064474"><ele>42.5</ele><time>2026-04-19T15:10:36.002Z</time></trkpt><trkpt lat="44.81203792156194" lon="0.3394208062238169"><ele>43.0</ele><time>2026-04-19T15:10:37.002Z</time></trkpt><trkpt lat="44.81197091191319" lon="0.33910801561886766"><ele>42.66666666666667</ele><time>2026-04-19T15:10:38.002Z</time></trkpt><trkpt lat="44.81192051719299" lon="0.3388185984980628"><ele>42.333333333333336</ele><time>2026-04-19T15:10:39.002Z</time></trkpt><trkpt lat="44.811866388341464" lon="0.3385438521612982"><ele>42.0</ele><time>2026-04-19T15:10:40.002Z</time></trkpt><trkpt lat="44.81181387481509" lon="0.33828960271204217"><ele>43.333333333333336</ele><time>2026-04-19T15:10:41.002Z</time></trkpt><trkpt lat="44.81176318940297" lon="0.33802728126662485"><ele>44.66666666666667</ele><time>2026-04-19T15:10:42.002Z</time></trkpt><trkpt lat="44.811696897776365" lon="0.33776920089886325"><ele>46.0</ele><time>2026-04-19T15:10:43.002Z</time></trkpt><trkpt lat="44.81160724247189" lon="0.33752668883141373"><ele>46.0</ele><time>2026-04-19T15:10:44.002Z</time></trkpt><trkpt lat="44.81151472521554" lon="0.33728579788372465"><ele>46.0</ele><time>2026-04-19T15:10:45.002Z</time></trkpt><trkpt lat="44.8114151999468" lon="0.3370589126831204"><ele>46.0</ele><time>2026-04-19T15:10:46.002Z</time></trkpt><trkpt lat="44.81130524293399" lon="0.3368389013436613"><ele>45.333333333333336</ele><time>2026-04-19T15:10:47.002Z</time></trkpt><trkpt lat="44.811173867479305" lon="0.3366440952108891"><ele>44.666666666666664</ele><time>2026-04-19T15:10:48.002Z</time></trkpt><trkpt lat="44.81102391812765" lon="0.33646937532900206"><ele>44.0</ele><time>2026-04-19T15:10:49.002Z</time></trkpt><trkpt lat="44.810871849932234" lon="0.3363018041152722"><ele>44.0</ele><time>2026-04-19T15:10:50.002Z</time></trkpt><trkpt lat="44.81072448227268" lon="0.3361251818162735"><ele>44.0</ele><time>2026-04-19T15:10:51.002Z</time></trkpt><trkpt lat="44.810596701616795" lon="0.3359691270679965"><ele>44.0</ele><time>2026-04-19T15:10:52.002Z</time></trkpt><trkpt lat="44.810466745977074" lon="0.3358012055858112"><ele>44.0</ele><time>2026-04-19T15:10:53.002Z</time></trkpt><trkpt lat="44.81033387850264" lon="0.3356414298060396"><ele>44.0</ele><time>2026-04-19T15:10:54.002Z</time></trkpt><trkpt lat="44.81021430685305" lon="0.3355049063669168"><ele>44.0</ele><time>2026-04-19T15:10:55.002Z</time></trkpt><trkpt lat="44.81009155993113" lon="0.33536461579237653"><ele>44.0</ele><time>2026-04-19T15:10:56.002Z</time></trkpt><trkpt lat="44.80998370642937" lon="0.33522946668055476"><ele>44.0</ele><time>2026-04-19T15:10:57.002Z</time></trkpt><trkpt lat="44.80989284977991" lon="0.33508112067766666"><ele>44.0</ele><time>2026-04-19T15:10:58.002Z</time></trkpt><trkpt lat="44.809817984185415" lon="0.3349033450917"><ele>44.0</ele><time>2026-04-19T15:10:59.002Z</time></trkpt><trkpt lat="44.80977133788007" lon="0.33470122777279987"><ele>44.0</ele><time>2026-04-19T15:11:00.003Z</time></trkpt><trkpt lat="44.8097522673965" lon="0.33449256012742223"><ele>44.0</ele><time>2026-04-19T15:11:01.003Z</time></trkpt><trkpt lat="44.80974832645004" lon="0.33426373119557273"><ele>44.0</ele><time>2026-04-19T15:11:02.003Z</time></trkpt><trkpt lat="44.80974790310262" lon="0.3340271808194112"><ele>44.33333333333333</ele><time>2026-04-19T15:11:03.003Z</time></trkpt><trkpt lat="44.809778101672116" lon="0.3337656914031163"><ele>44.666666666666664</ele><time>2026-04-19T15:11:04.003Z</time></trkpt><trkpt lat="44.80981772965872" lon="0.3334934711307996"><ele>45.0</ele><time>2026-04-19T15:11:05.003Z</time></trkpt><trkpt lat="44.8098783990426" lon="0.3332319484640805"><ele>45.666666666666664</ele><time>2026-04-19T15:11:06.003Z</time></trkpt><trkpt lat="44.80995534107061" lon="0.33295786001396865"><ele>46.33333333333333</ele><time>2026-04-19T15:11:07.003Z</time></trkpt><trkpt lat="44.8100534338498" lon="0.3326788197278245"><ele>47.0</ele><time>2026-04-19T15:11:08.003Z</time></trkpt><trkpt lat="44.8101556568673" lon="0.3323818778586943"><ele>45.666666666666664</ele><time>2026-04-19T15:11:09.003Z</time></trkpt><trkpt lat="44.81025413003267" lon="0.33208227354246306"><ele>44.333333333333336</ele><time>2026-04-19T15:11:10.003Z</time></trkpt><trkpt lat="44.810339662612165" lon="0.33180828191776585"><ele>43.0</ele><time>2026-04-19T15:11:11.003Z</time></trkpt><trkpt lat="44.81040920270981" lon="0.3315362404148716"><ele>43.66666666666667</ele><time>2026-04-19T15:11:12.003Z</time></trkpt><trkpt lat="44.810470416119" lon="0.3312772854646867"><ele>44.333333333333336</ele><time>2026-04-19T15:11:13Z</time></trkpt><trkpt lat="44.81050507149993" lon="0.331027508315775"><ele>45.0</ele><time>2026-04-19T15:11:14Z</time></trkpt><trkpt lat="44.81051009932034" lon="0.3307386901680731"><ele>45.333333333333336</ele><time>2026-04-19T15:11:15Z</time></trkpt><trkpt lat="44.81050622589333" lon="0.3304373720461796"><ele>45.66666666666667</ele><time>2026-04-19T15:11:16Z</time></trkpt><trkpt lat="44.810494320633246" lon="0.33014163421289794"><ele>46.0</ele><time>2026-04-19T15:11:16.999Z</time></trkpt><trkpt lat="44.81047938757949" lon="0.32983861717300367"><ele>46.333333333333336</ele><time>2026-04-19T15:11:17.999Z</time></trkpt><trkpt lat="44.81046530302641" lon="0.3295504381032602"><ele>46.666666666666664</ele><time>2026-04-19T15:11:19Z</time></trkpt><trkpt lat="44.81044152154257" lon="0.3292694960384267"><ele>47.0</ele><time>2026-04-19T15:11:20Z</time></trkpt><trkpt lat="44.81041043618478" lon="0.32899891213465904"><ele>47.33333333333333</ele><time>2026-04-19T15:11:21Z</time></trkpt><trkpt lat="44.81038085353019" lon="0.3287225885926853"><ele>47.666666666666664</ele><time>2026-04-19T15:11:22Z</time></trkpt><trkpt lat="44.810361532910974" lon="0.32846389337388826"><ele>48.0</ele><time>2026-04-19T15:11:23Z</time></trkpt><trkpt lat="44.81037134584379" lon="0.3281952504313751"><ele>48.0</ele><time>2026-04-19T15:11:24Z</time></trkpt><trkpt lat="44.810404265364326" lon="0.3279442311801116"><ele>48.0</ele><time>2026-04-19T15:11:25Z</time></trkpt><trkpt lat="44.81045806873626" lon="0.3276948399182244"><ele>48.0</ele><time>2026-04-19T15:11:25.999Z</time></trkpt><trkpt lat="44.810523305165646" lon="0.3274288192836218"><ele>48.66666666666667</ele><time>2026-04-19T15:11:27Z</time></trkpt><trkpt lat="44.81054100568164" lon="0.3271547472320394"><ele>49.333333333333336</ele><time>2026-04-19T15:11:28Z</time></trkpt><trkpt lat="44.810614110106286" lon="0.326857981959787"><ele>50.0</ele><time>2026-04-19T15:11:29Z</time></trkpt><trkpt lat="44.81070482087575" lon="0.3265354333377587"><ele>52.0</ele><time>2026-04-19T15:11:30Z</time></trkpt><trkpt lat="44.81076815101234" lon="0.32618476180276196"><ele>54.0</ele><time>2026-04-19T15:11:31Z</time></trkpt><trkpt lat="44.810839105214555" lon="0.3258209227342827"><ele>53.5</ele><time>2026-04-19T15:11:32Z</time></trkpt><trkpt lat="44.81093257888901" lon="0.3254288225277086"><ele>53.0</ele><time>2026-04-19T15:11:33Z</time></trkpt><trkpt lat="44.811030022021775" lon="0.32502127020541627"><ele>49.0</ele><time>2026-04-19T15:11:34Z</time></trkpt><trkpt lat="44.811120042103276" lon="0.3246133929965286"><ele>45.0</ele><time>2026-04-19T15:11:35Z</time></trkpt><trkpt lat="44.811210607066684" lon="0.3241952626568581"><ele>46.0</ele><time>2026-04-19T15:11:36Z</time></trkpt><trkpt lat="44.811304588587184" lon="0.3237535884416174"><ele>47.0</ele><time>2026-04-19T15:11:37Z</time></trkpt><trkpt lat="44.81141116114612" lon="0.3233172558004959"><ele>47.5</ele><time>2026-04-19T15:11:38Z</time></trkpt><trkpt lat="44.81151858687619" lon="0.32287069261718165"><ele>48.0</ele><time>2026-04-19T15:11:39Z</time></trkpt><trkpt lat="44.8116197114472" lon="0.3224244126103922"><ele>49.5</ele><time>2026-04-19T15:11:40Z</time></trkpt><trkpt lat="44.8117125152033" lon="0.32198592587706465"><ele>51.0</ele><time>2026-04-19T15:11:41Z</time></trkpt><trkpt lat="44.811809269887206" lon="0.32155568039171684"><ele>48.0</ele><time>2026-04-19T15:11:42Z</time></trkpt><trkpt lat="44.81190034358181" lon="0.3211476232296403"><ele>45.0</ele><time>2026-04-19T15:11:43Z</time></trkpt><trkpt lat="44.81199038313739" lon="0.32075170593461977"><ele>44.5</ele><time>2026-04-19T15:11:44Z</time></trkpt><trkpt lat="44.81206831777482" lon="0.3203685862984058"><ele>44.0</ele><time>2026-04-19T15:11:45Z</time></trkpt><trkpt lat="44.81216017785192" lon="0.3199976461490793"><ele>44.0</ele><time>2026-04-19T15:11:46Z</time></trkpt><trkpt lat="44.81223673289434" lon="0.3196293101159624"><ele>44.0</ele><time>2026-04-19T15:11:47Z</time></trkpt><trkpt lat="44.812318324993335" lon="0.31925967057143584"><ele>44.0</ele><time>2026-04-19T15:11:48Z</time></trkpt><trkpt lat="44.81239697911921" lon="0.3189143318909119"><ele>44.0</ele><time>2026-04-19T15:11:49Z</time></trkpt><trkpt lat="44.812480741334234" lon="0.31855501714464424"><ele>44.5</ele><time>2026-04-19T15:11:50Z</time></trkpt><trkpt lat="44.81254989876885" lon="0.31819941263300944"><ele>45.0</ele><time>2026-04-19T15:11:51Z</time></trkpt><trkpt lat="44.81262125663725" lon="0.3178460620011709"><ele>43.5</ele><time>2026-04-19T15:11:52Z</time></trkpt><trkpt lat="44.81269647717816" lon="0.3174982618470005"><ele>42.0</ele><time>2026-04-19T15:11:53Z</time></trkpt><trkpt lat="44.812767988948195" lon="0.3171561432838542"><ele>42.0</ele><time>2026-04-19T15:11:54Z</time></trkpt><trkpt lat="44.812837918490054" lon="0.3168159331160552"><ele>42.0</ele><time>2026-04-19T15:11:55Z</time></trkpt><trkpt lat="44.81290371984968" lon="0.31647713770768665"><ele>42.0</ele><time>2026-04-19T15:11:56Z</time></trkpt><trkpt lat="44.812968884029466" lon="0.31613889365664116"><ele>42.0</ele><time>2026-04-19T15:11:57Z</time></trkpt><trkpt lat="44.81303727828114" lon="0.31580285981294565"><ele>41.5</ele><time>2026-04-19T15:11:58Z</time></trkpt><trkpt lat="44.81309999830874" lon="0.3154674814219313"><ele>41.0</ele><time>2026-04-19T15:11:59Z</time></trkpt><trkpt lat="44.81317542684797" lon="0.3151360389919301"><ele>41.0</ele><time>2026-04-19T15:12:00Z</time></trkpt><trkpt lat="44.813242482762696" lon="0.31481567751519846"><ele>41.0</ele><time>2026-04-19T15:12:01Z</time></trkpt><trkpt lat="44.81330031797841" lon="0.31450243518438653"><ele>40.5</ele><time>2026-04-19T15:12:02Z</time></trkpt><trkpt lat="44.81335687316787" lon="0.3141868944026842"><ele>40.0</ele><time>2026-04-19T15:12:03Z</time></trkpt><trkpt lat="44.813424201026116" lon="0.313865764645009"><ele>39.5</ele><time>2026-04-19T15:12:04Z</time></trkpt><trkpt lat="44.81349035344246" lon="0.31354068652685196"><ele>39.0</ele><time>2026-04-19T15:12:05Z</time></trkpt><trkpt lat="44.81355611933922" lon="0.31322629304215677"><ele>39.5</ele><time>2026-04-19T15:12:06Z</time></trkpt><trkpt lat="44.81362240884517" lon="0.3129112433155714"><ele>40.0</ele><time>2026-04-19T15:12:07Z</time></trkpt><trkpt lat="44.813688129573016" lon="0.31259596681210244"><ele>40.0</ele><time>2026-04-19T15:12:08Z</time></trkpt><trkpt lat="44.81375072001526" lon="0.31229014390249715"><ele>40.0</ele><time>2026-04-19T15:12:09Z</time></trkpt><trkpt lat="44.813810248979436" lon="0.3119781493183576"><ele>40.0</ele><time>2026-04-19T15:12:10Z</time></trkpt><trkpt lat="44.81388881611668" lon="0.31168767011517645"><ele>40.0</ele><time>2026-04-19T15:12:11Z</time></trkpt><trkpt lat="44.81395124032524" lon="0.3113947167969831"><ele>40.0</ele><time>2026-04-19T15:12:12Z</time></trkpt><trkpt lat="44.81401525510359" lon="0.3110942990155865"><ele>40.66666666666667</ele><time>2026-04-19T15:12:13.001Z</time></trkpt><trkpt lat="44.81407640146271" lon="0.3108005018098958"><ele>41.333333333333336</ele><time>2026-04-19T15:12:14.001Z</time></trkpt><trkpt lat="44.814136036772474" lon="0.3105021879455213"><ele>42.0</ele><time>2026-04-19T15:12:15.001Z</time></trkpt><trkpt lat="44.814187770164544" lon="0.3102034766265046"><ele>42.0</ele><time>2026-04-19T15:12:16.001Z</time></trkpt><trkpt lat="44.81424822421584" lon="0.30991468117051096"><ele>42.0</ele><time>2026-04-19T15:12:17.001Z</time></trkpt><trkpt lat="44.81430573354535" lon="0.309632270726088"><ele>42.0</ele><time>2026-04-19T15:12:18.001Z</time></trkpt><trkpt lat="44.81436640927592" lon="0.30936175766038854"><ele>42.0</ele><time>2026-04-19T15:12:19.001Z</time></trkpt><trkpt lat="44.81442334047222" lon="0.3090828167843757"><ele>42.0</ele><time>2026-04-19T15:12:20.001Z</time></trkpt><trkpt lat="44.81448463484238" lon="0.30880419515577384"><ele>42.0</ele><time>2026-04-19T15:12:21.001Z</time></trkpt><trkpt lat="44.81454693885022" lon="0.3085199927278144"><ele>42.0</ele><time>2026-04-19T15:12:22.001Z</time></trkpt><trkpt lat="44.81460235513427" lon="0.3082433487865105"><ele>42.0</ele><time>2026-04-19T15:12:23.001Z</time></trkpt><trkpt lat="44.81465543696867" lon="0.3079651754059792"><ele>42.0</ele><time>2026-04-19T15:12:24.001Z</time></trkpt><trkpt lat="44.814712527790675" lon="0.3076888224857063"><ele>43.333333333333336</ele><time>2026-04-19T15:12:25.001Z</time></trkpt><trkpt lat="44.81479546021543" lon="0.30743094645264013"><ele>44.66666666666667</ele><time>2026-04-19T15:12:26.001Z</time></trkpt><trkpt lat="44.814887532154" lon="0.307198666689475"><ele>46.0</ele><time>2026-04-19T15:12:27.001Z</time></trkpt><trkpt lat="44.81500372121872" lon="0.3070042895076348"><ele>47.333333333333336</ele><time>2026-04-19T15:12:28.001Z</time></trkpt><trkpt lat="44.815141310476534" lon="0.30681975095760766"><ele>48.66666666666667</ele><time>2026-04-19T15:12:29.001Z</time></trkpt><trkpt lat="44.81529199195177" lon="0.30664004929350697"><ele>50.0</ele><time>2026-04-19T15:12:30.001Z</time></trkpt><trkpt lat="44.815440994294995" lon="0.3064629451344218"><ele>48.0</ele><time>2026-04-19T15:12:31.001Z</time></trkpt><trkpt lat="44.81559626594587" lon="0.3062778639530744"><ele>46.0</ele><time>2026-04-19T15:12:32.001Z</time></trkpt><trkpt lat="44.815748207614824" lon="0.30609609883406763"><ele>44.0</ele><time>2026-04-19T15:12:33.001Z</time></trkpt><trkpt lat="44.81589736651591" lon="0.3059176626798548"><ele>43.33333333333333</ele><time>2026-04-19T15:12:34.001Z</time></trkpt><trkpt lat="44.81604622745166" lon="0.30574033745721996"><ele>42.666666666666664</ele><time>2026-04-19T15:12:35.001Z</time></trkpt><trkpt lat="44.81619220270578" lon="0.3055686712489248"><ele>42.0</ele><time>2026-04-19T15:12:36.001Z</time></trkpt><trkpt lat="44.81634736649549" lon="0.3053858177788728"><ele>42.0</ele><time>2026-04-19T15:12:37.001Z</time></trkpt><trkpt lat="44.81650249668751" lon="0.30519984479945317"><ele>42.0</ele><time>2026-04-19T15:12:38.001Z</time></trkpt><trkpt lat="44.81665182313177" lon="0.30501839749591664"><ele>42.0</ele><time>2026-04-19T15:12:39.001Z</time></trkpt><trkpt lat="44.81679894678782" lon="0.30483181038455576"><ele>41.666666666666664</ele><time>2026-04-19T15:12:40.001Z</time></trkpt><trkpt lat="44.81693662188615" lon="0.30462625204447535"><ele>41.33333333333333</ele><time>2026-04-19T15:12:41.001Z</time></trkpt><trkpt lat="44.81709830161307" lon="0.3044556748319588"><ele>41.0</ele><time>2026-04-19T15:12:42.001Z</time></trkpt><trkpt lat="44.81723631575193" lon="0.30424754602210824"><ele>41.0</ele><time>2026-04-19T15:12:43.001Z</time></trkpt><trkpt lat="44.817369764564695" lon="0.3040359749568941"><ele>41.0</ele><time>2026-04-19T15:12:44.001Z</time></trkpt><trkpt lat="44.817477544076304" lon="0.3038149363007577"><ele>41.0</ele><time>2026-04-19T15:12:45.001Z</time></trkpt><trkpt lat="44.817578780289296" lon="0.30356984376850965"><ele>40.0</ele><time>2026-04-19T15:12:46.001Z</time></trkpt><trkpt lat="44.8176773556408" lon="0.3033285850470223"><ele>39.0</ele><time>2026-04-19T15:12:47.001Z</time></trkpt><trkpt lat="44.817769474503734" lon="0.3030944201931064"><ele>38.0</ele><time>2026-04-19T15:12:48.001Z</time></trkpt><trkpt lat="44.81784714233363" lon="0.302852396750917"><ele>38.0</ele><time>2026-04-19T15:12:49.001Z</time></trkpt><trkpt lat="44.81790410828179" lon="0.30259809445328073"><ele>38.0</ele><time>2026-04-19T15:12:50.001Z</time></trkpt><trkpt lat="44.8179411208934" lon="0.3023223381600438"><ele>38.0</ele><time>2026-04-19T15:12:51.001Z</time></trkpt><trkpt lat="44.81795773510131" lon="0.30203857108387033"><ele>39.0</ele><time>2026-04-19T15:12:52.001Z</time></trkpt><trkpt lat="44.817943933204305" lon="0.3017538288972679"><ele>40.0</ele><time>2026-04-19T15:12:53.001Z</time></trkpt><trkpt lat="44.81793589304511" lon="0.3014543376648537"><ele>41.0</ele><time>2026-04-19T15:12:54.001Z</time></trkpt><trkpt lat="44.81798180799883" lon="0.3011620278848048"><ele>41.33333333333333</ele><time>2026-04-19T15:12:55.001Z</time></trkpt><trkpt lat="44.81803293686521" lon="0.30086842428670274"><ele>41.666666666666664</ele><time>2026-04-19T15:12:56.001Z</time></trkpt><trkpt lat="44.818099755936665" lon="0.3005859120818245"><ele>42.0</ele><time>2026-04-19T15:12:57.001Z</time></trkpt><trkpt lat="44.818177756952636" lon="0.30032063463441017"><ele>42.333333333333336</ele><time>2026-04-19T15:12:58.001Z</time></trkpt><trkpt lat="44.818252896570314" lon="0.30006182087818467"><ele>42.66666666666667</ele><time>2026-04-19T15:12:59.001Z</time></trkpt><trkpt lat="44.81833381040826" lon="0.2998039693018263"><ele>43.0</ele><time>2026-04-19T15:13:00.002Z</time></trkpt><trkpt lat="44.8184208669364" lon="0.29954660178204645"><ele>42.66666666666667</ele><time>2026-04-19T15:13:01.002Z</time></trkpt><trkpt lat="44.81850237966066" lon="0.299284352850806"><ele>42.333333333333336</ele><time>2026-04-19T15:13:02.002Z</time></trkpt><trkpt lat="44.81860748254826" lon="0.2990336656712427"><ele>42.0</ele><time>2026-04-19T15:13:03.002Z</time></trkpt><trkpt lat="44.818697205196166" lon="0.29878326364385693"><ele>42.0</ele><time>2026-04-19T15:13:04.002Z</time></trkpt><trkpt lat="44.818777582924454" lon="0.2985097757416659"><ele>42.0</ele><time>2026-04-19T15:13:05.002Z</time></trkpt><trkpt lat="44.818890166340275" lon="0.29825258685023615"><ele>42.0</ele><time>2026-04-19T15:13:06.002Z</time></trkpt><trkpt lat="44.81899824311277" lon="0.2979892731834941"><ele>42.0</ele><time>2026-04-19T15:13:07.002Z</time></trkpt><trkpt lat="44.81910151884298" lon="0.29771553472825385"><ele>42.0</ele><time>2026-04-19T15:13:08.002Z</time></trkpt><trkpt lat="44.81923003233875" lon="0.2974707348463057"><ele>42.0</ele><time>2026-04-19T15:13:09.002Z</time></trkpt><trkpt lat="44.81935233073469" lon="0.29723929733905247"><ele>41.333333333333336</ele><time>2026-04-19T15:13:10.002Z</time></trkpt><trkpt lat="44.81946884317317" lon="0.29703945386960795"><ele>40.66666666666667</ele><time>2026-04-19T15:13:11.002Z</time></trkpt><trkpt lat="44.819572734968474" lon="0.2968215302300446"><ele>40.0</ele><time>2026-04-19T15:13:12.002Z</time></trkpt><trkpt lat="44.819665136953915" lon="0.29656620584955046"><ele>40.5</ele><time>2026-04-19T15:13:13.002Z</time></trkpt><trkpt lat="44.81974772336149" lon="0.29626014843779763"><ele>41.0</ele><time>2026-04-19T15:13:14.002Z</time></trkpt><trkpt lat="44.81982174398898" lon="0.2959380108899187"><ele>41.0</ele><time>2026-04-19T15:13:15.002Z</time></trkpt><trkpt lat="44.81990545164769" lon="0.29560575625798474"><ele>41.0</ele><time>2026-04-19T15:13:16.002Z</time></trkpt><trkpt lat="44.819984925107164" lon="0.2952691010998318"><ele>41.5</ele><time>2026-04-19T15:13:17.002Z</time></trkpt><trkpt lat="44.8200592246483" lon="0.2949413882598802"><ele>42.0</ele><time>2026-04-19T15:13:18.002Z</time></trkpt><trkpt lat="44.820140558479125" lon="0.29461434785425"><ele>40.0</ele><time>2026-04-19T15:13:18.999Z</time></trkpt><trkpt lat="44.82021524286791" lon="0.2942901149766647"><ele>38.0</ele><time>2026-04-19T15:13:19.999Z</time></trkpt><trkpt lat="44.82029640407304" lon="0.2939623237017052"><ele>39.0</ele><time>2026-04-19T15:13:20.999Z</time></trkpt><trkpt lat="44.82037400676771" lon="0.2936421339030265"><ele>40.0</ele><time>2026-04-19T15:13:21.999Z</time></trkpt><trkpt lat="44.820447049052156" lon="0.2933346573826177"><ele>39.5</ele><time>2026-04-19T15:13:22.999Z</time></trkpt><trkpt lat="44.820522807703604" lon="0.29302416391137365"><ele>39.0</ele><time>2026-04-19T15:13:23.999Z</time></trkpt><trkpt lat="44.820598489189535" lon="0.2927129915025637"><ele>39.0</ele><time>2026-04-19T15:13:24.999Z</time></trkpt><trkpt lat="44.82068331471387" lon="0.292402604697747"><ele>39.0</ele><time>2026-04-19T15:13:25.999Z</time></trkpt><trkpt lat="44.82077628620416" lon="0.2921075779561171"><ele>38.0</ele><time>2026-04-19T15:13:26.999Z</time></trkpt><trkpt lat="44.82087411047685" lon="0.2918138182422206"><ele>37.0</ele><time>2026-04-19T15:13:27.999Z</time></trkpt><trkpt lat="44.82098439709634" lon="0.29153928984685296"><ele>37.0</ele><time>2026-04-19T15:13:28.999Z</time></trkpt><trkpt lat="44.8210836879291" lon="0.29125813830972874"><ele>37.0</ele><time>2026-04-19T15:13:29.999Z</time></trkpt><trkpt lat="44.82119173122608" lon="0.29098644940912294"><ele>37.0</ele><time>2026-04-19T15:13:30.999Z</time></trkpt><trkpt lat="44.82129818157331" lon="0.2907078176343035"><ele>37.66666666666667</ele><time>2026-04-19T15:13:31.999Z</time></trkpt><trkpt lat="44.821409900145454" lon="0.2904321562322075"><ele>38.333333333333336</ele><time>2026-04-19T15:13:32.999Z</time></trkpt><trkpt lat="44.82151321596886" lon="0.29016085805114267"><ele>39.0</ele><time>2026-04-19T15:13:33.999Z</time></trkpt><trkpt lat="44.821637742141135" lon="0.28990450858226874"><ele>39.666666666666664</ele><time>2026-04-19T15:13:34.999Z</time></trkpt><trkpt lat="44.821759452802794" lon="0.28963565222227516"><ele>40.33333333333333</ele><time>2026-04-19T15:13:35.999Z</time></trkpt><trkpt lat="44.821867427284985" lon="0.2893811441975066"><ele>41.0</ele><time>2026-04-19T15:13:36.999Z</time></trkpt><trkpt lat="44.821995888427324" lon="0.2891170710464351"><ele>40.33333333333333</ele><time>2026-04-19T15:13:37.999Z</time></trkpt><trkpt lat="44.8221048489315" lon="0.288849330654857"><ele>39.666666666666664</ele><time>2026-04-19T15:13:38.999Z</time></trkpt><trkpt lat="44.8222252487646" lon="0.28858900693416417"><ele>39.0</ele><time>2026-04-19T15:13:39.999Z</time></trkpt><trkpt lat="44.82235188243562" lon="0.28832032886672637"><ele>40.0</ele><time>2026-04-19T15:13:40.999Z</time></trkpt><trkpt lat="44.822466520633895" lon="0.2880654092464732"><ele>41.0</ele><time>2026-04-19T15:13:41.999Z</time></trkpt><trkpt lat="44.822582226771935" lon="0.28780811486879987"><ele>42.0</ele><time>2026-04-19T15:13:42.999Z</time></trkpt><trkpt lat="44.82270022441423" lon="0.28754302274958266"><ele>39.0</ele><time>2026-04-19T15:13:43.999Z</time></trkpt><trkpt lat="44.8227986629618" lon="0.2872643518519046"><ele>36.0</ele><time>2026-04-19T15:13:44.999Z</time></trkpt><trkpt lat="44.82291177902764" lon="0.28698099659065396"><ele>35.0</ele><time>2026-04-19T15:13:45.999Z</time></trkpt><trkpt lat="44.82298574404329" lon="0.2866679469738052"><ele>34.0</ele><time>2026-04-19T15:13:46.999Z</time></trkpt><trkpt lat="44.82305948951451" lon="0.28636276627619905"><ele>34.0</ele><time>2026-04-19T15:13:47.999Z</time></trkpt><trkpt lat="44.82313536778924" lon="0.28605406781488507"><ele>34.0</ele><time>2026-04-19T15:13:48.999Z</time></trkpt><trkpt lat="44.82320982351457" lon="0.2857424175827992"><ele>35.5</ele><time>2026-04-19T15:13:49.999Z</time></trkpt><trkpt lat="44.823286379557565" lon="0.2854330239290419"><ele>37.0</ele><time>2026-04-19T15:13:50.999Z</time></trkpt><trkpt lat="44.82334817984411" lon="0.2851246468477445"><ele>37.0</ele><time>2026-04-19T15:13:51.999Z</time></trkpt><trkpt lat="44.823425599318" lon="0.28481337179912586"><ele>37.0</ele><time>2026-04-19T15:13:52.999Z</time></trkpt><trkpt lat="44.823508881029376" lon="0.28449921774164005"><ele>35.5</ele><time>2026-04-19T15:13:53.999Z</time></trkpt><trkpt lat="44.82359661028474" lon="0.2841981798468806"><ele>34.0</ele><time>2026-04-19T15:13:54.999Z</time></trkpt><trkpt lat="44.823701872182724" lon="0.2838987009120717"><ele>34.0</ele><time>2026-04-19T15:13:55.999Z</time></trkpt><trkpt lat="44.82379740340421" lon="0.2836289736573582"><ele>34.0</ele><time>2026-04-19T15:13:56.999Z</time></trkpt><trkpt lat="44.82389298358274" lon="0.283372497976447"><ele>34.0</ele><time>2026-04-19T15:13:57.999Z</time></trkpt><trkpt lat="44.82399134506435" lon="0.283142928152957"><ele>34.333333333333336</ele><time>2026-04-19T15:13:58.999Z</time></trkpt><trkpt lat="44.82406928397365" lon="0.28290771456374225"><ele>34.666666666666664</ele><time>2026-04-19T15:14:00Z</time></trkpt><trkpt lat="44.82412684593699" lon="0.2826771274251659"><ele>35.0</ele><time>2026-04-19T15:14:01Z</time></trkpt><trkpt lat="44.82418173874763" lon="0.2824298906537643"><ele>35.0</ele><time>2026-04-19T15:14:02Z</time></trkpt><trkpt lat="44.82420272461487" lon="0.28216119528572464"><ele>35.0</ele><time>2026-04-19T15:14:03Z</time></trkpt><trkpt lat="44.82421135983038" lon="0.28189168380165025"><ele>35.0</ele><time>2026-04-19T15:14:04Z</time></trkpt><trkpt lat="44.82421404739728" lon="0.2816012218808937"><ele>34.33333333333333</ele><time>2026-04-19T15:14:05Z</time></trkpt><trkpt lat="44.824208110212794" lon="0.2813041833663382"><ele>33.666666666666664</ele><time>2026-04-19T15:14:06Z</time></trkpt><trkpt lat="44.824203898534634" lon="0.2809936782540937"><ele>33.0</ele><time>2026-04-19T15:14:07Z</time></trkpt><trkpt lat="44.82421000020804" lon="0.2806730743353288"><ele>33.5</ele><time>2026-04-19T15:14:08Z</time></trkpt><trkpt lat="44.82422225224298" lon="0.28034746948306793"><ele>34.0</ele><time>2026-04-19T15:14:09Z</time></trkpt><trkpt lat="44.82423272057837" lon="0.28003049836148675"><ele>34.5</ele><time>2026-04-19T15:14:10Z</time></trkpt><trkpt lat="44.82424666231666" lon="0.27971073237776906"><ele>35.0</ele><time>2026-04-19T15:14:11Z</time></trkpt><trkpt lat="44.82425883272418" lon="0.2793936773601272"><ele>35.0</ele><time>2026-04-19T15:14:12Z</time></trkpt><trkpt lat="44.824285386415916" lon="0.27908018853587224"><ele>35.0</ele><time>2026-04-19T15:14:13Z</time></trkpt><trkpt lat="44.82431071703515" lon="0.2787696275380431"><ele>35.0</ele><time>2026-04-19T15:14:14Z</time></trkpt><trkpt lat="44.824337250349046" lon="0.278447920221639"><ele>34.5</ele><time>2026-04-19T15:14:15Z</time></trkpt><trkpt lat="44.824359331512824" lon="0.278115846643516"><ele>34.0</ele><time>2026-04-19T15:14:16Z</time></trkpt><trkpt lat="44.82439074927031" lon="0.27776802593989675"><ele>34.0</ele><time>2026-04-19T15:14:17Z</time></trkpt><trkpt lat="44.824429694411144" lon="0.2774199424885892"><ele>34.0</ele><time>2026-04-19T15:14:18Z</time></trkpt><trkpt lat="44.82447930274134" lon="0.27705728458184925"><ele>34.0</ele><time>2026-04-19T15:14:19Z</time></trkpt><trkpt lat="44.82452215565275" lon="0.2766915690342974"><ele>34.0</ele><time>2026-04-19T15:14:20Z</time></trkpt><trkpt lat="44.82455251797226" lon="0.27633844303691274"><ele>34.0</ele><time>2026-04-19T15:14:21Z</time></trkpt><trkpt lat="44.824592877793904" lon="0.275991366069317"><ele>34.0</ele><time>2026-04-19T15:14:22Z</time></trkpt><trkpt lat="44.82462852359635" lon="0.2756363800972699"><ele>33.5</ele><time>2026-04-19T15:14:23Z</time></trkpt><trkpt lat="44.82465968444736" lon="0.27527668235726716"><ele>33.0</ele><time>2026-04-19T15:14:24Z</time></trkpt><trkpt lat="44.82469322778492" lon="0.27492727832182423"><ele>32.5</ele><time>2026-04-19T15:14:25Z</time></trkpt><trkpt lat="44.82471343662118" lon="0.2745618231656482"><ele>32.0</ele><time>2026-04-19T15:14:26Z</time></trkpt><trkpt lat="44.82473724936893" lon="0.27419199468435623"><ele>32.5</ele><time>2026-04-19T15:14:27Z</time></trkpt><trkpt lat="44.82475422498885" lon="0.2738268220538125"><ele>33.0</ele><time>2026-04-19T15:14:28Z</time></trkpt><trkpt lat="44.824764896592" lon="0.27345075830100385"><ele>32.0</ele><time>2026-04-19T15:14:29Z</time></trkpt><trkpt lat="44.824775561122124" lon="0.27306904515193364"><ele>31.0</ele><time>2026-04-19T15:14:30Z</time></trkpt><trkpt lat="44.824787981474046" lon="0.2726940795634371"><ele>31.0</ele><time>2026-04-19T15:14:31Z</time></trkpt><trkpt lat="44.824806068853434" lon="0.2723205948865307"><ele>31.0</ele><time>2026-04-19T15:14:32Z</time></trkpt><trkpt lat="44.82482023791131" lon="0.27195447466821926"><ele>31.0</ele><time>2026-04-19T15:14:33Z</time></trkpt><trkpt lat="44.824836503328015" lon="0.2715993639553958"><ele>31.0</ele><time>2026-04-19T15:14:34Z</time></trkpt><trkpt lat="44.82487662873394" lon="0.2712740808030136"><ele>30.5</ele><time>2026-04-19T15:14:35Z</time></trkpt><trkpt lat="44.82489594370395" lon="0.27094491034557333"><ele>30.0</ele><time>2026-04-19T15:14:36Z</time></trkpt><trkpt lat="44.82495604459919" lon="0.2705964137339501"><ele>31.5</ele><time>2026-04-19T15:14:37Z</time></trkpt><trkpt lat="44.82503405438696" lon="0.27026405455361674"><ele>33.0</ele><time>2026-04-19T15:14:38Z</time></trkpt><trkpt lat="44.82512605848941" lon="0.26993286836137137"><ele>31.5</ele><time>2026-04-19T15:14:39Z</time></trkpt><trkpt lat="44.825221318563564" lon="0.2695981251548915"><ele>30.0</ele><time>2026-04-19T15:14:40Z</time></trkpt><trkpt lat="44.825314205072075" lon="0.26926194503244527"><ele>29.5</ele><time>2026-04-19T15:14:41Z</time></trkpt><trkpt lat="44.82541933303406" lon="0.2689353279986093"><ele>29.0</ele><time>2026-04-19T15:14:42Z</time></trkpt><trkpt lat="44.82552763482079" lon="0.26861689378597237"><ele>29.0</ele><time>2026-04-19T15:14:43Z</time></trkpt><trkpt lat="44.825614273017045" lon="0.26828273503037176"><ele>29.0</ele><time>2026-04-19T15:14:44Z</time></trkpt><trkpt lat="44.825683327465875" lon="0.26793617972097766"><ele>29.0</ele><time>2026-04-19T15:14:45Z</time></trkpt><trkpt lat="44.82574401013121" lon="0.2675783725896487"><ele>29.0</ele><time>2026-04-19T15:14:46Z</time></trkpt><trkpt lat="44.825791306512244" lon="0.26720650715485517"><ele>28.5</ele><time>2026-04-19T15:14:47.001Z</time></trkpt><trkpt lat="44.82583450090777" lon="0.26682544957826543"><ele>28.0</ele><time>2026-04-19T15:14:48.001Z</time></trkpt><trkpt lat="44.82588358442774" lon="0.26645620480488375"><ele>28.0</ele><time>2026-04-19T15:14:49.001Z</time></trkpt><trkpt lat="44.82593312028918" lon="0.26611281373670076"><ele>28.0</ele><time>2026-04-19T15:14:50.001Z</time></trkpt><trkpt lat="44.82597329505071" lon="0.265797410658464"><ele>28.0</ele><time>2026-04-19T15:14:51.001Z</time></trkpt><trkpt lat="44.82601857632754" lon="0.26547152244289723"><ele>28.0</ele><time>2026-04-19T15:14:52.001Z</time></trkpt><trkpt lat="44.82605578118607" lon="0.2651674574344391"><ele>28.0</ele><time>2026-04-19T15:14:53.001Z</time></trkpt><trkpt lat="44.82609922883004" lon="0.26487650561442727"><ele>28.0</ele><time>2026-04-19T15:14:54.001Z</time></trkpt><trkpt lat="44.826132662735226" lon="0.2645853136946994"><ele>28.0</ele><time>2026-04-19T15:14:55.001Z</time></trkpt><trkpt lat="44.826169376599644" lon="0.26430826019956427"><ele>27.666666666666668</ele><time>2026-04-19T15:14:56.001Z</time></trkpt><trkpt lat="44.826213215895905" lon="0.2640247255602243"><ele>27.333333333333336</ele><time>2026-04-19T15:14:57.001Z</time></trkpt><trkpt lat="44.82625485974768" lon="0.2637493061661462"><ele>27.0</ele><time>2026-04-19T15:14:58.001Z</time></trkpt><trkpt lat="44.82629826618403" lon="0.26347405423082476"><ele>27.666666666666664</ele><time>2026-04-19T15:14:59.001Z</time></trkpt><trkpt lat="44.82633354712402" lon="0.263198691993012"><ele>28.333333333333332</ele><time>2026-04-19T15:15:00.001Z</time></trkpt><trkpt lat="44.826375532257295" lon="0.262883294490928"><ele>29.0</ele><time>2026-04-19T15:15:01.001Z</time></trkpt><trkpt lat="44.826413996992805" lon="0.26258732759438136"><ele>29.0</ele><time>2026-04-19T15:15:02.001Z</time></trkpt><trkpt lat="44.82645571670528" lon="0.26229803475801644"><ele>29.0</ele><time>2026-04-19T15:15:03.001Z</time></trkpt><trkpt lat="44.82649096850758" lon="0.26201399196735864"><ele>29.0</ele><time>2026-04-19T15:15:04.001Z</time></trkpt><trkpt lat="44.82652207222695" lon="0.2617543810677136"><ele>28.333333333333332</ele><time>2026-04-19T15:15:05.001Z</time></trkpt><trkpt lat="44.82655251160922" lon="0.26150016529859355"><ele>27.666666666666664</ele><time>2026-04-19T15:15:06.001Z</time></trkpt><trkpt lat="44.826582821442166" lon="0.2612639360551349"><ele>27.0</ele><time>2026-04-19T15:15:07.001Z</time></trkpt><trkpt lat="44.82661731646464" lon="0.26101797291808293"><ele>27.0</ele><time>2026-04-19T15:15:08.001Z</time></trkpt><trkpt lat="44.82663844829897" lon="0.2607799581800157"><ele>27.0</ele><time>2026-04-19T15:15:09.001Z</time></trkpt><trkpt lat="44.82667095611173" lon="0.26055456370301994"><ele>27.0</ele><time>2026-04-19T15:15:10.001Z</time></trkpt><trkpt lat="44.826710116115926" lon="0.26031750262580733"><ele>27.0</ele><time>2026-04-19T15:15:11.002Z</time></trkpt><trkpt lat="44.82674391464434" lon="0.26010864889992336"><ele>27.0</ele><time>2026-04-19T15:15:12.002Z</time></trkpt><trkpt lat="44.82676557976967" lon="0.2599008252673088"><ele>27.0</ele><time>2026-04-19T15:15:13.002Z</time></trkpt><trkpt lat="44.8267830062801" lon="0.2597027700142933"><ele>27.0</ele><time>2026-04-19T15:15:14.002Z</time></trkpt><trkpt lat="44.8268088471546" lon="0.2595179211352511"><ele>27.25</ele><time>2026-04-19T15:15:15.002Z</time></trkpt><trkpt lat="44.82682266955962" lon="0.25934158076207003"><ele>27.5</ele><time>2026-04-19T15:15:16.002Z</time></trkpt><trkpt lat="44.82683101154534" lon="0.25917802774599086"><ele>27.75</ele><time>2026-04-19T15:15:17.002Z</time></trkpt><trkpt lat="44.82683081759434" lon="0.2590148187108305"><ele>28.0</ele><time>2026-04-19T15:15:18.002Z</time></trkpt><trkpt lat="44.82683475571213" lon="0.2588633565263182"><ele>28.4</ele><time>2026-04-19T15:15:19.002Z</time></trkpt><trkpt lat="44.826838928411355" lon="0.25872150881059675"><ele>28.799999999999997</ele><time>2026-04-19T15:15:20.002Z</time></trkpt><trkpt lat="44.826844549026625" lon="0.25856996450659714"><ele>29.2</ele><time>2026-04-19T15:15:21.002Z</time></trkpt><trkpt lat="44.826855687743844" lon="0.2584370453928516"><ele>29.6</ele><time>2026-04-19T15:15:22.002Z</time></trkpt><trkpt lat="44.826863014626085" lon="0.2583094112037395"><ele>30.0</ele><time>2026-04-19T15:15:23.002Z</time></trkpt><trkpt lat="44.826873025490976" lon="0.2581908811928743"><ele>30.0</ele><time>2026-04-19T15:15:24.002Z</time></trkpt><trkpt lat="44.826882559269976" lon="0.25809945239032994"><ele>30.0</ele><time>2026-04-19T15:15:24.999Z</time></trkpt><trkpt lat="44.826889206075435" lon="0.25800179822495495"><ele>30.0</ele><time>2026-04-19T15:15:25.999Z</time></trkpt><trkpt lat="44.826896531466524" lon="0.25790574050976417"><ele>30.0</ele><time>2026-04-19T15:15:26.999Z</time></trkpt><trkpt lat="44.826912337745135" lon="0.25772629161243366"><ele>30.0</ele><time>2026-04-19T15:15:28.998Z</time></trkpt><trkpt lat="44.82692107662322" lon="0.2576279987639726"><ele>30.0</ele><time>2026-04-19T15:15:29.998Z</time></trkpt><trkpt lat="44.82693047132678" lon="0.2575062607291209"><ele>30.0</ele><time>2026-04-19T15:15:30.999Z</time></trkpt><trkpt lat="44.82695200814881" lon="0.2573815897777827"><ele>30.0</ele><time>2026-04-19T15:15:31.999Z</time></trkpt><trkpt lat="44.826975255666476" lon="0.25725409338317057"><ele>30.0</ele><time>2026-04-19T15:15:32.999Z</time></trkpt><trkpt lat="44.8269856777745" lon="0.2571265662482137"><ele>30.0</ele><time>2026-04-19T15:15:33.998Z</time></trkpt><trkpt lat="44.82700556193767" lon="0.25700517303742776"><ele>30.0</ele><time>2026-04-19T15:15:34.999Z</time></trkpt><trkpt lat="44.8270323329528" lon="0.25688323496157134"><ele>29.666666666666668</ele><time>2026-04-19T15:15:35.999Z</time></trkpt><trkpt lat="44.827045358610164" lon="0.25676648758304105"><ele>29.333333333333336</ele><time>2026-04-19T15:15:36.998Z</time></trkpt><trkpt lat="44.82705869188635" lon="0.2566443930332698"><ele>29.0</ele><time>2026-04-19T15:15:37.999Z</time></trkpt><trkpt lat="44.82707569896281" lon="0.2565224078621975"><ele>28.666666666666668</ele><time>2026-04-19T15:15:38.999Z</time></trkpt><trkpt lat="44.827091978275135" lon="0.2564112020018997"><ele>28.333333333333336</ele><time>2026-04-19T15:15:39.999Z</time></trkpt><trkpt lat="44.82710480279294" lon="0.2563066360134207"><ele>28.0</ele><time>2026-04-19T15:15:40.999Z</time></trkpt><trkpt lat="44.827118233712035" lon="0.25621284601400596"><ele>28.0</ele><time>2026-04-19T15:15:41.999Z</time></trkpt><trkpt lat="44.82713547801648" lon="0.2560528811727154"><ele>27.999999999999996</ele><time>2026-04-19T15:15:43.999Z</time></trkpt><trkpt lat="44.82715107984405" lon="0.25591410775827983"><ele>27.999999999999996</ele><time>2026-04-19T15:15:45.999Z</time></trkpt><trkpt lat="44.82719215724825" lon="0.255765678587598"><ele>28.0</ele><time>2026-04-19T15:15:47.999Z</time></trkpt><trkpt lat="44.82720047651902" lon="0.2556774920822906"><ele>28.0</ele><time>2026-04-19T15:15:48.999Z</time></trkpt><trkpt lat="44.82721309408485" lon="0.25558249771059727"><ele>28.0</ele><time>2026-04-19T15:15:49.999Z</time></trkpt><trkpt lat="44.82722020282665" lon="0.25549060748716695"><ele>28.0</ele><time>2026-04-19T15:15:50.999Z</time></trkpt><trkpt lat="44.82722945396012" lon="0.2553949731081656"><ele>28.0</ele><time>2026-04-19T15:15:51.999Z</time></trkpt><trkpt lat="44.82723816230091" lon="0.2553009572769072"><ele>28.0</ele><time>2026-04-19T15:15:52.999Z</time></trkpt><trkpt lat="44.82725111956365" lon="0.25521193956279825"><ele>28.0</ele><time>2026-04-19T15:15:53.999Z</time></trkpt><trkpt lat="44.82730219972785" lon="0.2551261284212767"><ele>28.0</ele><time>2026-04-19T15:15:54.999Z</time></trkpt><trkpt lat="44.82728008085811" lon="0.25500527539809603"><ele>28.0</ele><time>2026-04-19T15:15:56.999Z</time></trkpt><trkpt lat="44.82726071087271" lon="0.2549146993621514"><ele>28.000000000000004</ele><time>2026-04-19T15:15:58.999Z</time></trkpt><trkpt lat="44.827228022089756" lon="0.2548216436228386"><ele>28.0</ele><time>2026-04-19T15:16:02.999Z</time></trkpt><trkpt lat="44.82722456295986" lon="0.2547264948874635"><ele>28.0</ele><time>2026-04-19T15:16:05.999Z</time></trkpt><trkpt lat="44.82732114169492" lon="0.2545576868407946"><ele>28.0</ele><time>2026-04-19T15:16:08.999Z</time></trkpt><trkpt lat="44.82735512346009" lon="0.25447858417882124"><ele>28.000000000000004</ele><time>2026-04-19T15:16:09.999Z</time></trkpt><trkpt lat="44.82739624619645" lon="0.2544039610412719"><ele>28.0</ele><time>2026-04-19T15:16:10.999Z</time></trkpt><trkpt lat="44.827456707801524" lon="0.2543327781747717"><ele>27.857142857142858</ele><time>2026-04-19T15:16:11.999Z</time></trkpt><trkpt lat="44.82749862866899" lon="0.2542241779410329"><ele>27.714285714285715</ele><time>2026-04-19T15:16:12.999Z</time></trkpt><trkpt lat="44.827547699419746" lon="0.25413359237708566"><ele>27.57142857142857</ele><time>2026-04-19T15:16:14Z</time></trkpt><trkpt lat="44.827586447042776" lon="0.2540433465144938"><ele>27.42857142857143</ele><time>2026-04-19T15:16:15Z</time></trkpt><trkpt lat="44.82762277431534" lon="0.2539594871064255"><ele>27.285714285714285</ele><time>2026-04-19T15:16:16Z</time></trkpt><trkpt lat="44.82765260188772" lon="0.2538736159733041"><ele>27.142857142857142</ele><time>2026-04-19T15:16:17Z</time></trkpt><trkpt lat="44.82767981579324" lon="0.25378487927126375"><ele>27.0</ele><time>2026-04-19T15:16:18Z</time></trkpt><trkpt lat="44.82770796044041" lon="0.2536994679416393"><ele>26.857142857142858</ele><time>2026-04-19T15:16:19Z</time></trkpt><trkpt lat="44.82772804741405" lon="0.25361209868555074"><ele>26.714285714285715</ele><time>2026-04-19T15:16:20Z</time></trkpt><trkpt lat="44.827768491349005" lon="0.25353012494276383"><ele>26.57142857142857</ele><time>2026-04-19T15:16:21Z</time></trkpt><trkpt lat="44.82779396010531" lon="0.2534425189634963"><ele>26.42857142857143</ele><time>2026-04-19T15:16:22Z</time></trkpt><trkpt lat="44.82780553572706" lon="0.25335051601071984"><ele>26.28571428571429</ele><time>2026-04-19T15:16:23Z</time></trkpt><trkpt lat="44.82783228275622" lon="0.253259121875449"><ele>26.142857142857142</ele><time>2026-04-19T15:16:24Z</time></trkpt><trkpt lat="44.827875183553815" lon="0.25315306407195765"><ele>26.0</ele><time>2026-04-19T15:16:25Z</time></trkpt><trkpt lat="44.827892732257716" lon="0.25306580204051904"><ele>25.666666666666664</ele><time>2026-04-19T15:16:26Z</time></trkpt><trkpt lat="44.82791087323423" lon="0.2529801064436784"><ele>25.333333333333332</ele><time>2026-04-19T15:16:27Z</time></trkpt><trkpt lat="44.82793583978565" lon="0.25289122405543357"><ele>25.0</ele><time>2026-04-19T15:16:28Z</time></trkpt><trkpt lat="44.82797520712539" lon="0.25277048855667245"><ele>24.666666666666664</ele><time>2026-04-19T15:16:29Z</time></trkpt><trkpt lat="44.82800246628206" lon="0.25264398114348136"><ele>24.333333333333332</ele><time>2026-04-19T15:16:30Z</time></trkpt><trkpt lat="44.828050172146696" lon="0.25248291139098994"><ele>24.0</ele><time>2026-04-19T15:16:31Z</time></trkpt><trkpt lat="44.82812472328898" lon="0.25229652938535585"><ele>23.666666666666668</ele><time>2026-04-19T15:16:32Z</time></trkpt><trkpt lat="44.828185221349344" lon="0.2520726429474812"><ele>23.333333333333336</ele><time>2026-04-19T15:16:33Z</time></trkpt><trkpt lat="44.82825090067589" lon="0.2518499834215374"><ele>23.0</ele><time>2026-04-19T15:16:34Z</time></trkpt><trkpt lat="44.82832219396847" lon="0.2516248159816106"><ele>23.333333333333336</ele><time>2026-04-19T15:16:35Z</time></trkpt><trkpt lat="44.828391304538464" lon="0.25140163234811846"><ele>23.666666666666668</ele><time>2026-04-19T15:16:36Z</time></trkpt><trkpt lat="44.82846144414107" lon="0.25115603459050745"><ele>24.0</ele><time>2026-04-19T15:16:37Z</time></trkpt><trkpt lat="44.8285339580317" lon="0.2509126256755451"><ele>23.333333333333332</ele><time>2026-04-19T15:16:38Z</time></trkpt><trkpt lat="44.82860846047346" lon="0.2506803386940776"><ele>22.666666666666664</ele><time>2026-04-19T15:16:39Z</time></trkpt><trkpt lat="44.82867645842277" lon="0.25044777472303925"><ele>22.0</ele><time>2026-04-19T15:16:40Z</time></trkpt><trkpt lat="44.82874643605074" lon="0.2501990257669739"><ele>22.0</ele><time>2026-04-19T15:16:41Z</time></trkpt><trkpt lat="44.828821084831915" lon="0.24993267052818055"><ele>22.0</ele><time>2026-04-19T15:16:42Z</time></trkpt><trkpt lat="44.828900597895945" lon="0.24964771491083035"><ele>22.0</ele><time>2026-04-19T15:16:43Z</time></trkpt><trkpt lat="44.828982209975706" lon="0.24934790374842547"><ele>21.5</ele><time>2026-04-19T15:16:44Z</time></trkpt><trkpt lat="44.82906073852809" lon="0.24901169410701715"><ele>21.0</ele><time>2026-04-19T15:16:45Z</time></trkpt><trkpt lat="44.82916386901358" lon="0.24867399338111962"><ele>21.5</ele><time>2026-04-19T15:16:46Z</time></trkpt><trkpt lat="44.82924195139982" lon="0.24831419369881488"><ele>22.0</ele><time>2026-04-19T15:16:47Z</time></trkpt><trkpt lat="44.82933618676155" lon="0.2479556702350478"><ele>22.0</ele><time>2026-04-19T15:16:48Z</time></trkpt><trkpt lat="44.82943446190886" lon="0.24762112070556916"><ele>22.0</ele><time>2026-04-19T15:16:49Z</time></trkpt><trkpt lat="44.8295102874706" lon="0.24729308254185928"><ele>22.0</ele><time>2026-04-19T15:16:50Z</time></trkpt><trkpt lat="44.8295679023929" lon="0.24696427417428424"><ele>22.0</ele><time>2026-04-19T15:16:51Z</time></trkpt><trkpt lat="44.8296166103732" lon="0.24662613799197164"><ele>22.0</ele><time>2026-04-19T15:16:52Z</time></trkpt><trkpt lat="44.82964793511398" lon="0.2462851946050259"><ele>22.0</ele><time>2026-04-19T15:16:53Z</time></trkpt><trkpt lat="44.829682393109906" lon="0.2459382791822725"><ele>22.0</ele><time>2026-04-19T15:16:54Z</time></trkpt><trkpt lat="44.82971646966587" lon="0.24560325710358888"><ele>22.0</ele><time>2026-04-19T15:16:55Z</time></trkpt><trkpt lat="44.82975982998191" lon="0.2452778587164014"><ele>22.0</ele><time>2026-04-19T15:16:56Z</time></trkpt><trkpt lat="44.82980278645909" lon="0.24497712424803073"><ele>22.0</ele><time>2026-04-19T15:16:57Z</time></trkpt><trkpt lat="44.82984979695888" lon="0.24468682397133923"><ele>22.0</ele><time>2026-04-19T15:16:58Z</time></trkpt><trkpt lat="44.829894907883535" lon="0.24440288020057568"><ele>22.0</ele><time>2026-04-19T15:16:59Z</time></trkpt><trkpt lat="44.82992900388826" lon="0.24412094180592275"><ele>22.0</ele><time>2026-04-19T15:17:00.001Z</time></trkpt><trkpt lat="44.82997212746198" lon="0.24382357283981504"><ele>22.0</ele><time>2026-04-19T15:17:01.001Z</time></trkpt><trkpt lat="44.83001426798158" lon="0.24352998726365205"><ele>22.0</ele><time>2026-04-19T15:17:02.001Z</time></trkpt><trkpt lat="44.83005382891808" lon="0.24324656820105622"><ele>22.0</ele><time>2026-04-19T15:17:03.001Z</time></trkpt><trkpt lat="44.830103708738356" lon="0.24295923465727337"><ele>22.0</ele><time>2026-04-19T15:17:04.001Z</time></trkpt><trkpt lat="44.83016290411547" lon="0.2426750224937177"><ele>22.0</ele><time>2026-04-19T15:17:05.001Z</time></trkpt><trkpt lat="44.83022231999874" lon="0.24238567398228347"><ele>22.0</ele><time>2026-04-19T15:17:06.001Z</time></trkpt><trkpt lat="44.830292246504186" lon="0.2421035372544366"><ele>22.0</ele><time>2026-04-19T15:17:07.001Z</time></trkpt><trkpt lat="44.830364569292875" lon="0.24181686539406955"><ele>22.0</ele><time>2026-04-19T15:17:08.001Z</time></trkpt><trkpt lat="44.83043168482132" lon="0.24151406873607384"><ele>22.0</ele><time>2026-04-19T15:17:09.001Z</time></trkpt><trkpt lat="44.83049438753715" lon="0.24122593819847454"><ele>22.0</ele><time>2026-04-19T15:17:10.001Z</time></trkpt><trkpt lat="44.8305813054785" lon="0.24094509053792515"><ele>22.0</ele><time>2026-04-19T15:17:11.001Z</time></trkpt><trkpt lat="44.83066626929053" lon="0.24066439592659708"><ele>22.0</ele><time>2026-04-19T15:17:12.001Z</time></trkpt><trkpt lat="44.83076216047174" lon="0.2403934202940137"><ele>22.0</ele><time>2026-04-19T15:17:13.001Z</time></trkpt><trkpt lat="44.83085732201727" lon="0.24011638977668276"><ele>22.333333333333332</ele><time>2026-04-19T15:17:14.001Z</time></trkpt><trkpt lat="44.83096228556023" lon="0.2398506483524758"><ele>22.666666666666668</ele><time>2026-04-19T15:17:15.001Z</time></trkpt><trkpt lat="44.83105895291767" lon="0.23957519017768886"><ele>23.0</ele><time>2026-04-19T15:17:16.001Z</time></trkpt><trkpt lat="44.83116316813871" lon="0.23929509451776124"><ele>23.0</ele><time>2026-04-19T15:17:17.001Z</time></trkpt><trkpt lat="44.83128146276086" lon="0.23902613917798643"><ele>23.0</ele><time>2026-04-19T15:17:18.001Z</time></trkpt><trkpt lat="44.8313845109037" lon="0.23875087122467367"><ele>23.0</ele><time>2026-04-19T15:17:19.001Z</time></trkpt><trkpt lat="44.8314963534539" lon="0.23848141217750782"><ele>23.0</ele><time>2026-04-19T15:17:20.001Z</time></trkpt><trkpt lat="44.83158365269296" lon="0.2382102415202295"><ele>23.0</ele><time>2026-04-19T15:17:21.001Z</time></trkpt><trkpt lat="44.831675868686645" lon="0.23794491857849015"><ele>23.0</ele><time>2026-04-19T15:17:22.001Z</time></trkpt><trkpt lat="44.831752246016" lon="0.23770342742670797"><ele>22.333333333333336</ele><time>2026-04-19T15:17:23.001Z</time></trkpt><trkpt lat="44.83181810894814" lon="0.237479676101005"><ele>21.666666666666668</ele><time>2026-04-19T15:17:24.001Z</time></trkpt><trkpt lat="44.83187393252126" lon="0.23726381294669927"><ele>21.0</ele><time>2026-04-19T15:17:25.001Z</time></trkpt><trkpt lat="44.831925700928565" lon="0.2370563474981005"><ele>20.75</ele><time>2026-04-19T15:17:26.001Z</time></trkpt><trkpt lat="44.83195417887489" lon="0.23686524857413616"><ele>20.5</ele><time>2026-04-19T15:17:27.001Z</time></trkpt><trkpt lat="44.83198264135393" lon="0.23671012024022273"><ele>20.25</ele><time>2026-04-19T15:17:28.001Z</time></trkpt><trkpt lat="44.83200793156726" lon="0.23654955298530098"><ele>20.0</ele><time>2026-04-19T15:17:29.001Z</time></trkpt><trkpt lat="44.832027723036475" lon="0.23642679780081524"><ele>19.666666666666668</ele><time>2026-04-19T15:17:30.001Z</time></trkpt><trkpt lat="44.832048097263424" lon="0.23631674038696496"><ele>19.333333333333336</ele><time>2026-04-19T15:17:30.998Z</time></trkpt><trkpt lat="44.83207620478589" lon="0.23621884588794473"><ele>19.0</ele><time>2026-04-19T15:17:31.998Z</time></trkpt><trkpt lat="44.83211622014904" lon="0.23613042286439842"><ele>18.666666666666668</ele><time>2026-04-19T15:17:32.998Z</time></trkpt><trkpt lat="44.832147932052266" lon="0.23604975088805535"><ele>18.333333333333332</ele><time>2026-04-19T15:17:33.999Z</time></trkpt><trkpt lat="44.83223323248418" lon="0.23599102211505052"><ele>18.0</ele><time>2026-04-19T15:17:34.999Z</time></trkpt><trkpt lat="44.83226747987476" lon="0.23589278426871751"><ele>18.0</ele><time>2026-04-19T15:17:35.999Z</time></trkpt><trkpt lat="44.83225927938829" lon="0.23578338737205576"><ele>18.0</ele><time>2026-04-19T15:17:36.998Z</time></trkpt><trkpt lat="44.83223289457725" lon="0.2356728427639905"><ele>18.0</ele><time>2026-04-19T15:17:37.999Z</time></trkpt><trkpt lat="44.832161681211936" lon="0.23559031927967458"><ele>18.0</ele><time>2026-04-19T15:17:38.999Z</time></trkpt><trkpt lat="44.83207361630313" lon="0.23554793056468049"><ele>18.0</ele><time>2026-04-19T15:17:39.998Z</time></trkpt><trkpt lat="44.831975349785104" lon="0.235562061008235"><ele>18.0</ele><time>2026-04-19T15:17:40.998Z</time></trkpt><trkpt lat="44.8318927674076" lon="0.23563756633067565"><ele>18.0</ele><time>2026-04-19T15:17:41.998Z</time></trkpt><trkpt lat="44.83180757589519" lon="0.23570270383547545"><ele>18.0</ele><time>2026-04-19T15:17:42.998Z</time></trkpt><trkpt lat="44.83170149431887" lon="0.23573374095742028"><ele>18.0</ele><time>2026-04-19T15:17:43.998Z</time></trkpt><trkpt lat="44.83157799339303" lon="0.23574238751805945"><ele>18.0</ele><time>2026-04-19T15:17:44.998Z</time></trkpt><trkpt lat="44.831426074519584" lon="0.23570029999535722"><ele>18.0</ele><time>2026-04-19T15:17:45.998Z</time></trkpt><trkpt lat="44.83127775449698" lon="0.23565743144316803"><ele>18.0</ele><time>2026-04-19T15:17:46.998Z</time></trkpt><trkpt lat="44.831138170336914" lon="0.23559355360037942"><ele>18.0</ele><time>2026-04-19T15:17:47.998Z</time></trkpt><trkpt lat="44.83096890553025" lon="0.23555112216623497"><ele>18.333333333333332</ele><time>2026-04-19T15:17:48.998Z</time></trkpt><trkpt lat="44.83080587520582" lon="0.23544329992280563"><ele>18.666666666666664</ele><time>2026-04-19T15:17:49.998Z</time></trkpt><trkpt lat="44.83063266187206" lon="0.23535273610525184"><ele>19.0</ele><time>2026-04-19T15:17:50.998Z</time></trkpt><trkpt lat="44.83044906478747" lon="0.23522790607326954"><ele>19.0</ele><time>2026-04-19T15:17:51.998Z</time></trkpt><trkpt lat="44.830275038073566" lon="0.23506050925874508"><ele>19.0</ele><time>2026-04-19T15:17:52.998Z</time></trkpt><trkpt lat="44.830097098581575" lon="0.23487768488896774"><ele>19.0</ele><time>2026-04-19T15:17:53.998Z</time></trkpt><trkpt lat="44.82991942659362" lon="0.23466433367333167"><ele>20.0</ele><time>2026-04-19T15:17:54.998Z</time></trkpt><trkpt lat="44.829766808377244" lon="0.23440927752711588"><ele>21.0</ele><time>2026-04-19T15:17:55.998Z</time></trkpt><trkpt lat="44.82961964983854" lon="0.2341423499481652"><ele>19.5</ele><time>2026-04-19T15:17:56.998Z</time></trkpt><trkpt lat="44.829479148715514" lon="0.23385715056690418"><ele>18.0</ele><time>2026-04-19T15:17:57.998Z</time></trkpt><trkpt lat="44.82934947856246" lon="0.23357280042536255"><ele>18.5</ele><time>2026-04-19T15:17:58.998Z</time></trkpt><trkpt lat="44.82920591544952" lon="0.23329582489350947"><ele>19.0</ele><time>2026-04-19T15:17:59.998Z</time></trkpt><trkpt lat="44.829081527685084" lon="0.23301816761053765"><ele>19.333333333333332</ele><time>2026-04-19T15:18:00.998Z</time></trkpt><trkpt lat="44.82896922694345" lon="0.2327647666297356"><ele>19.666666666666668</ele><time>2026-04-19T15:18:01.998Z</time></trkpt><trkpt lat="44.828861948753065" lon="0.23253465247731467"><ele>20.0</ele><time>2026-04-19T15:18:02.998Z</time></trkpt><trkpt lat="44.828749440662705" lon="0.23229240534277834"><ele>20.0</ele><time>2026-04-19T15:18:03.998Z</time></trkpt><trkpt lat="44.828649479080866" lon="0.23207798211656966"><ele>20.0</ele><time>2026-04-19T15:18:04.998Z</time></trkpt><trkpt lat="44.82854937772466" lon="0.23186822777119848"><ele>20.0</ele><time>2026-04-19T15:18:05.998Z</time></trkpt><trkpt lat="44.82846183530547" lon="0.23166818715557141"><ele>20.0</ele><time>2026-04-19T15:18:06.998Z</time></trkpt><trkpt lat="44.82837785998049" lon="0.23148987618266237"><ele>20.0</ele><time>2026-04-19T15:18:07.998Z</time></trkpt><trkpt lat="44.828300469510104" lon="0.23132638797779975"><ele>20.0</ele><time>2026-04-19T15:18:08.998Z</time></trkpt><trkpt lat="44.828250068828744" lon="0.23118178753970262"><ele>20.0</ele><time>2026-04-19T15:18:09.998Z</time></trkpt><trkpt lat="44.828183671313234" lon="0.23107061552150182"><ele>20.0</ele><time>2026-04-19T15:18:10.999Z</time></trkpt><trkpt lat="44.82816373295506" lon="0.2309307411164006"><ele>20.0</ele><time>2026-04-19T15:18:11.999Z</time></trkpt><trkpt lat="44.82817227252875" lon="0.2308070537968713"><ele>20.0</ele><time>2026-04-19T15:18:12.999Z</time></trkpt><trkpt lat="44.82815466645849" lon="0.23068769267943187"><ele>20.0</ele><time>2026-04-19T15:18:13.999Z</time></trkpt><trkpt lat="44.828114679462715" lon="0.23058841879877806"><ele>20.0</ele><time>2026-04-19T15:18:14.999Z</time></trkpt><trkpt lat="44.828027838742926" lon="0.23052178194059353"><ele>20.25</ele><time>2026-04-19T15:18:15.999Z</time></trkpt><trkpt lat="44.82792867118635" lon="0.23042963922619542"><ele>20.5</ele><time>2026-04-19T15:18:16.999Z</time></trkpt><trkpt lat="44.827833719789105" lon="0.23029064711039599"><ele>20.75</ele><time>2026-04-19T15:18:17.999Z</time></trkpt><trkpt lat="44.827757033686645" lon="0.2301102481961067"><ele>21.0</ele><time>2026-04-19T15:18:18.999Z</time></trkpt><trkpt lat="44.82767429081773" lon="0.22991342389889297"><ele>20.666666666666668</ele><time>2026-04-19T15:18:19.999Z</time></trkpt><trkpt lat="44.827578435037566" lon="0.22968463091328367"><ele>20.333333333333336</ele><time>2026-04-19T15:18:20.999Z</time></trkpt><trkpt lat="44.82747809693423" lon="0.22945736737626876"><ele>20.0</ele><time>2026-04-19T15:18:21.999Z</time></trkpt><trkpt lat="44.82737592109472" lon="0.2292358381175945"><ele>20.0</ele><time>2026-04-19T15:18:22.999Z</time></trkpt><trkpt lat="44.82727143955541" lon="0.22898233581589428"><ele>20.0</ele><time>2026-04-19T15:18:23.999Z</time></trkpt><trkpt lat="44.82717929354243" lon="0.22870781088325914"><ele>20.0</ele><time>2026-04-19T15:18:24.999Z</time></trkpt><trkpt lat="44.8270835937183" lon="0.22843882946632463"><ele>20.0</ele><time>2026-04-19T15:18:25.999Z</time></trkpt><trkpt lat="44.82699211620833" lon="0.22816621097136036"><ele>20.0</ele><time>2026-04-19T15:18:26.999Z</time></trkpt><trkpt lat="44.82690480939448" lon="0.22788294448239887"><ele>20.0</ele><time>2026-04-19T15:18:27.999Z</time></trkpt><trkpt lat="44.82682395510941" lon="0.2275825490948628"><ele>20.0</ele><time>2026-04-19T15:18:28.999Z</time></trkpt><trkpt lat="44.82674288870866" lon="0.2273186043186318"><ele>20.0</ele><time>2026-04-19T15:18:29.999Z</time></trkpt><trkpt lat="44.82669575563067" lon="0.22703350179001794"><ele>20.0</ele><time>2026-04-19T15:18:30.999Z</time></trkpt><trkpt lat="44.82662527038607" lon="0.22674223746505487"><ele>19.666666666666668</ele><time>2026-04-19T15:18:31.999Z</time></trkpt><trkpt lat="44.82657774583624" lon="0.22644198251679337"><ele>19.333333333333332</ele><time>2026-04-19T15:18:32.999Z</time></trkpt><trkpt lat="44.826549453702675" lon="0.2261313879201771"><ele>19.0</ele><time>2026-04-19T15:18:33.999Z</time></trkpt><trkpt lat="44.82651413178071" lon="0.2258175809400692"><ele>19.0</ele><time>2026-04-19T15:18:34.999Z</time></trkpt><trkpt lat="44.826486502560655" lon="0.2255153558373364"><ele>19.0</ele><time>2026-04-19T15:18:35.999Z</time></trkpt><trkpt lat="44.82646694738606" lon="0.22519362657971906"><ele>19.0</ele><time>2026-04-19T15:18:36.999Z</time></trkpt><trkpt lat="44.826455675114055" lon="0.22487241823227866"><ele>19.0</ele><time>2026-04-19T15:18:37.999Z</time></trkpt><trkpt lat="44.82645293121297" lon="0.22455570512732864"><ele>19.0</ele><time>2026-04-19T15:18:38.999Z</time></trkpt><trkpt lat="44.82645790680233" lon="0.22424163580858866"><ele>19.0</ele><time>2026-04-19T15:18:39.999Z</time></trkpt><trkpt lat="44.82647200744464" lon="0.22392286783971196"><ele>19.5</ele><time>2026-04-19T15:18:40.999Z</time></trkpt><trkpt lat="44.82649469444012" lon="0.22360481822799833"><ele>20.0</ele><time>2026-04-19T15:18:41.999Z</time></trkpt><trkpt lat="44.826525120135834" lon="0.22328613669007724"><ele>19.666666666666668</ele><time>2026-04-19T15:18:42.999Z</time></trkpt><trkpt lat="44.82656099682899" lon="0.22297600706549023"><ele>19.333333333333332</ele><time>2026-04-19T15:18:43.999Z</time></trkpt><trkpt lat="44.826590094369585" lon="0.2226648253318227"><ele>19.0</ele><time>2026-04-19T15:18:44.999Z</time></trkpt><trkpt lat="44.826637667740094" lon="0.22237614504305983"><ele>19.333333333333332</ele><time>2026-04-19T15:18:45.999Z</time></trkpt><trkpt lat="44.82668154686115" lon="0.22210442424053903"><ele>19.666666666666668</ele><time>2026-04-19T15:18:46.999Z</time></trkpt><trkpt lat="44.82673751909067" lon="0.22185623440957142"><ele>20.0</ele><time>2026-04-19T15:18:47.999Z</time></trkpt><trkpt lat="44.82676522330476" lon="0.22160267037818887"><ele>20.0</ele><time>2026-04-19T15:18:48.999Z</time></trkpt><trkpt lat="44.826808082765936" lon="0.22137342864618578"><ele>20.0</ele><time>2026-04-19T15:18:49.999Z</time></trkpt><trkpt lat="44.826851969322455" lon="0.2211413857408871"><ele>20.0</ele><time>2026-04-19T15:18:50.999Z</time></trkpt><trkpt lat="44.82688875360298" lon="0.22092432585521155"><ele>19.75</ele><time>2026-04-19T15:18:51.999Z</time></trkpt><trkpt lat="44.82692331622826" lon="0.2207193046889779"><ele>19.5</ele><time>2026-04-19T15:18:52.999Z</time></trkpt><trkpt lat="44.82695077027224" lon="0.2205436830677818"><ele>19.25</ele><time>2026-04-19T15:18:53.999Z</time></trkpt><trkpt lat="44.82697090566952" lon="0.2203628648524195"><ele>19.0</ele><time>2026-04-19T15:18:54.999Z</time></trkpt><trkpt lat="44.82698011009298" lon="0.22021978712638798"><ele>19.0</ele><time>2026-04-19T15:18:55.999Z</time></trkpt><trkpt lat="44.82697977968209" lon="0.22008998971156393"><ele>19.0</ele><time>2026-04-19T15:18:56.999Z</time></trkpt><trkpt lat="44.82698383730891" lon="0.21997853883683532"><ele>19.0</ele><time>2026-04-19T15:18:58Z</time></trkpt><trkpt lat="44.82699533768065" lon="0.21987511688019218"><ele>19.0</ele><time>2026-04-19T15:18:59Z</time></trkpt><trkpt lat="44.82701785929943" lon="0.21978838012515228"><ele>19.0</ele><time>2026-04-19T15:19:00Z</time></trkpt><trkpt lat="44.827055851058475" lon="0.21970193225924017"><ele>19.0</ele><time>2026-04-19T15:19:01Z</time></trkpt><trkpt lat="44.82710506260659" lon="0.21961610331435436"><ele>19.4</ele><time>2026-04-19T15:19:02Z</time></trkpt><trkpt lat="44.82717309677728" lon="0.21952374734766175"><ele>19.799999999999997</ele><time>2026-04-19T15:19:03Z</time></trkpt><trkpt lat="44.82722051701288" lon="0.21941727788137677"><ele>20.200000000000003</ele><time>2026-04-19T15:19:04Z</time></trkpt><trkpt lat="44.827237892654175" lon="0.2192837518370088"><ele>20.6</ele><time>2026-04-19T15:19:05Z</time></trkpt><trkpt lat="44.827216308873474" lon="0.21915130185785428"><ele>21.0</ele><time>2026-04-19T15:19:06Z</time></trkpt><trkpt lat="44.82716566952958" lon="0.21902886270283337"><ele>20.8</ele><time>2026-04-19T15:19:07Z</time></trkpt><trkpt lat="44.82708740227069" lon="0.21894197847792826"><ele>20.6</ele><time>2026-04-19T15:19:08Z</time></trkpt><trkpt lat="44.8269844749101" lon="0.21889819518479506"><ele>20.4</ele><time>2026-04-19T15:19:09Z</time></trkpt><trkpt lat="44.82687505689581" lon="0.21892127959611832"><ele>20.2</ele><time>2026-04-19T15:19:10Z</time></trkpt><trkpt lat="44.826777615839774" lon="0.21898918382410332"><ele>20.0</ele><time>2026-04-19T15:19:11Z</time></trkpt><trkpt lat="44.826703285790515" lon="0.21906890450353333"><ele>20.0</ele><time>2026-04-19T15:19:12Z</time></trkpt><trkpt lat="44.82662712059005" lon="0.21917138186653723"><ele>20.0</ele><time>2026-04-19T15:19:13Z</time></trkpt><trkpt lat="44.8265449003877" lon="0.21925230715323296"><ele>20.0</ele><time>2026-04-19T15:19:14Z</time></trkpt><trkpt lat="44.82642657420939" lon="0.21928272633224824"><ele>20.0</ele><time>2026-04-19T15:19:15Z</time></trkpt><trkpt lat="44.826281489200575" lon="0.21923784939255012"><ele>20.0</ele><time>2026-04-19T15:19:16Z</time></trkpt><trkpt lat="44.82612561967023" lon="0.2192458199725614"><ele>20.0</ele><time>2026-04-19T15:19:17Z</time></trkpt><trkpt lat="44.825959253836054" lon="0.21928492563344543"><ele>20.0</ele><time>2026-04-19T15:19:18Z</time></trkpt><trkpt lat="44.82578610839688" lon="0.2192930268142381"><ele>20.666666666666668</ele><time>2026-04-19T15:19:19Z</time></trkpt><trkpt lat="44.82560101966237" lon="0.21930220451853358"><ele>21.333333333333332</ele><time>2026-04-19T15:19:20Z</time></trkpt><trkpt lat="44.82540444130022" lon="0.21932179460029852"><ele>22.0</ele><time>2026-04-19T15:19:21Z</time></trkpt><trkpt lat="44.82519424848518" lon="0.21933898051346232"><ele>21.666666666666664</ele><time>2026-04-19T15:19:22Z</time></trkpt><trkpt lat="44.82496879221631" lon="0.21935839088919237"><ele>21.333333333333332</ele><time>2026-04-19T15:19:23Z</time></trkpt><trkpt lat="44.824747810739446" lon="0.21938050400646533"><ele>21.0</ele><time>2026-04-19T15:19:24Z</time></trkpt><trkpt lat="44.82452694080147" lon="0.21939543737755915"><ele>22.0</ele><time>2026-04-19T15:19:25Z</time></trkpt><trkpt lat="44.8243016283638" lon="0.21941177336776535"><ele>23.0</ele><time>2026-04-19T15:19:26Z</time></trkpt><trkpt lat="44.82407115342846" lon="0.21944174118003063"><ele>23.0</ele><time>2026-04-19T15:19:27Z</time></trkpt><trkpt lat="44.82384716054332" lon="0.2194531111770996"><ele>23.0</ele><time>2026-04-19T15:19:28Z</time></trkpt><trkpt lat="44.82360229202311" lon="0.21947098871335596"><ele>25.0</ele><time>2026-04-19T15:19:29Z</time></trkpt><trkpt lat="44.82337694521821" lon="0.2194925168207682"><ele>27.0</ele><time>2026-04-19T15:19:30Z</time></trkpt><trkpt lat="44.82315618205172" lon="0.21951095669165333"><ele>29.0</ele><time>2026-04-19T15:19:31Z</time></trkpt><trkpt lat="44.82293613537768" lon="0.21952449138056124"><ele>29.0</ele><time>2026-04-19T15:19:32Z</time></trkpt><trkpt lat="44.82270014152381" lon="0.21953703735924934"><ele>29.0</ele><time>2026-04-19T15:19:33Z</time></trkpt><trkpt lat="44.8224681513203" lon="0.21956027280917703"><ele>30.5</ele><time>2026-04-19T15:19:34Z</time></trkpt><trkpt lat="44.822234939665435" lon="0.21957513187640015"><ele>32.0</ele><time>2026-04-19T15:19:35Z</time></trkpt><trkpt lat="44.82201069570607" lon="0.2196005765552096"><ele>32.5</ele><time>2026-04-19T15:19:36Z</time></trkpt><trkpt lat="44.821780350277095" lon="0.21962766370125253"><ele>33.0</ele><time>2026-04-19T15:19:36.997Z</time></trkpt><trkpt lat="44.82154226658424" lon="0.21965139977389947"><ele>33.0</ele><time>2026-04-19T15:19:37.998Z</time></trkpt><trkpt lat="44.82131433379234" lon="0.21966552728768618"><ele>33.0</ele><time>2026-04-19T15:19:38.998Z</time></trkpt><trkpt lat="44.821089386204484" lon="0.2196727405850887"><ele>34.333333333333336</ele><time>2026-04-19T15:19:39.998Z</time></trkpt><trkpt lat="44.820869200720836" lon="0.2197067095408064"><ele>35.66666666666667</ele><time>2026-04-19T15:19:40.997Z</time></trkpt><trkpt lat="44.820652274700365" lon="0.21973972422892338"><ele>37.0</ele><time>2026-04-19T15:19:41.997Z</time></trkpt><trkpt lat="44.820440949899" lon="0.2197546574585567"><ele>37.0</ele><time>2026-04-19T15:19:42.997Z</time></trkpt><trkpt lat="44.82022910768292" lon="0.21976524304368855"><ele>37.0</ele><time>2026-04-19T15:19:43.997Z</time></trkpt><trkpt lat="44.8200221050042" lon="0.21978557752671002"><ele>37.0</ele><time>2026-04-19T15:19:44.997Z</time></trkpt><trkpt lat="44.819818773113674" lon="0.21979833633653775"><ele>37.0</ele><time>2026-04-19T15:19:45.998Z</time></trkpt><trkpt lat="44.81962050603631" lon="0.21982828372868832"><ele>37.0</ele><time>2026-04-19T15:19:46.998Z</time></trkpt><trkpt lat="44.81941451070241" lon="0.21984307625349667"><ele>37.0</ele><time>2026-04-19T15:19:47.998Z</time></trkpt><trkpt lat="44.81922608996059" lon="0.219875787097274"><ele>39.333333333333336</ele><time>2026-04-19T15:19:48.997Z</time></trkpt><trkpt lat="44.81904091756602" lon="0.21994566170836452"><ele>41.666666666666664</ele><time>2026-04-19T15:19:49.998Z</time></trkpt><trkpt lat="44.81885541868558" lon="0.22002462652217522"><ele>44.0</ele><time>2026-04-19T15:19:50.998Z</time></trkpt><trkpt lat="44.81867909666234" lon="0.22014095137286277"><ele>44.0</ele><time>2026-04-19T15:19:51.998Z</time></trkpt><trkpt lat="44.81851599106115" lon="0.22028968180374991"><ele>44.0</ele><time>2026-04-19T15:19:52.998Z</time></trkpt><trkpt lat="44.818362554719215" lon="0.22046291841663207"><ele>44.0</ele><time>2026-04-19T15:19:53.998Z</time></trkpt><trkpt lat="44.81820712191729" lon="0.22062946371189582"><ele>43.666666666666664</ele><time>2026-04-19T15:19:54.998Z</time></trkpt><trkpt lat="44.81806184627397" lon="0.22079045081508583"><ele>43.333333333333336</ele><time>2026-04-19T15:19:55.998Z</time></trkpt><trkpt lat="44.81790494386671" lon="0.22094270555328865"><ele>43.0</ele><time>2026-04-19T15:19:56.998Z</time></trkpt><trkpt lat="44.81773182662104" lon="0.22103040678610258"><ele>46.66666666666667</ele><time>2026-04-19T15:19:57.998Z</time></trkpt><trkpt lat="44.81756310729514" lon="0.22110007222163272"><ele>50.333333333333336</ele><time>2026-04-19T15:19:58.998Z</time></trkpt><trkpt lat="44.81738660703686" lon="0.2211331726193139"><ele>54.0</ele><time>2026-04-19T15:19:59.998Z</time></trkpt><trkpt lat="44.81720795856698" lon="0.22112478525274704"><ele>54.0</ele><time>2026-04-19T15:20:00.998Z</time></trkpt><trkpt lat="44.8170236039005" lon="0.22106908666882896"><ele>54.0</ele><time>2026-04-19T15:20:01.998Z</time></trkpt><trkpt lat="44.816854289143095" lon="0.2209770250022963"><ele>54.0</ele><time>2026-04-19T15:20:02.998Z</time></trkpt><trkpt lat="44.81667115313777" lon="0.22087306300502899"><ele>55.66666666666667</ele><time>2026-04-19T15:20:03.998Z</time></trkpt><trkpt lat="44.81652490694233" lon="0.22072963655215966"><ele>57.333333333333336</ele><time>2026-04-19T15:20:04.998Z</time></trkpt><trkpt lat="44.816368789582825" lon="0.2206082256372277"><ele>59.0</ele><time>2026-04-19T15:20:05.998Z</time></trkpt><trkpt lat="44.816260569961564" lon="0.2203211049537973"><ele>60.333333333333336</ele><time>2026-04-19T15:20:06.998Z</time></trkpt><trkpt lat="44.816132212865305" lon="0.22011365310046607"><ele>61.66666666666667</ele><time>2026-04-19T15:20:07.998Z</time></trkpt><trkpt lat="44.816026126237844" lon="0.21986475504430683"><ele>63.0</ele><time>2026-04-19T15:20:08.998Z</time></trkpt><trkpt lat="44.81591163413688" lon="0.2196414043411798"><ele>64.33333333333333</ele><time>2026-04-19T15:20:09.998Z</time></trkpt><trkpt lat="44.815779590018295" lon="0.2194385513675693"><ele>65.66666666666666</ele><time>2026-04-19T15:20:10.998Z</time></trkpt><trkpt lat="44.81563149219323" lon="0.21927056462183814"><ele>67.0</ele><time>2026-04-19T15:20:11.998Z</time></trkpt><trkpt lat="44.815453037416056" lon="0.2191265946717707"><ele>69.0</ele><time>2026-04-19T15:20:12.998Z</time></trkpt><trkpt lat="44.81527871274739" lon="0.21897771542002314"><ele>71.0</ele><time>2026-04-19T15:20:13.998Z</time></trkpt><trkpt lat="44.815093842101646" lon="0.21883213770088975"><ele>73.0</ele><time>2026-04-19T15:20:14.998Z</time></trkpt><trkpt lat="44.81489744435021" lon="0.2187027022136584"><ele>73.0</ele><time>2026-04-19T15:20:15.998Z</time></trkpt><trkpt lat="44.81470186402015" lon="0.21858439042237687"><ele>73.0</ele><time>2026-04-19T15:20:16.998Z</time></trkpt><trkpt lat="44.814501041312674" lon="0.21848473436077812"><ele>73.0</ele><time>2026-04-19T15:20:17.998Z</time></trkpt><trkpt lat="44.81429900933381" lon="0.21838881570618127"><ele>72.33333333333333</ele><time>2026-04-19T15:20:18.998Z</time></trkpt><trkpt lat="44.814102734576196" lon="0.21826683095225416"><ele>71.66666666666667</ele><time>2026-04-19T15:20:19.998Z</time></trkpt><trkpt lat="44.8139013760627" lon="0.21816341149707646"><ele>71.0</ele><time>2026-04-19T15:20:20.998Z</time></trkpt><trkpt lat="44.813705261921356" lon="0.21807293860220947"><ele>74.0</ele><time>2026-04-19T15:20:21.998Z</time></trkpt><trkpt lat="44.813517282109345" lon="0.21796003174268866"><ele>77.0</ele><time>2026-04-19T15:20:22.998Z</time></trkpt><trkpt lat="44.81333108197995" lon="0.21786416595557875"><ele>80.0</ele><time>2026-04-19T15:20:23.998Z</time></trkpt><trkpt lat="44.81314732086447" lon="0.217802239776919"><ele>80.0</ele><time>2026-04-19T15:20:24.998Z</time></trkpt><trkpt lat="44.81296203770491" lon="0.217810335364362"><ele>80.0</ele><time>2026-04-19T15:20:25.998Z</time></trkpt><trkpt lat="44.8127707691937" lon="0.21786131263225403"><ele>80.0</ele><time>2026-04-19T15:20:26.998Z</time></trkpt><trkpt lat="44.81257872735764" lon="0.21794080314389538"><ele>81.0</ele><time>2026-04-19T15:20:27.998Z</time></trkpt><trkpt lat="44.81239402942257" lon="0.21802604885193308"><ele>82.0</ele><time>2026-04-19T15:20:28.998Z</time></trkpt><trkpt lat="44.81219065235133" lon="0.21811470432836672"><ele>83.0</ele><time>2026-04-19T15:20:29.998Z</time></trkpt><trkpt lat="44.81198757085494" lon="0.2181898625515355"><ele>82.66666666666667</ele><time>2026-04-19T15:20:30.998Z</time></trkpt><trkpt lat="44.81177331575421" lon="0.2182519235996382"><ele>82.33333333333333</ele><time>2026-04-19T15:20:31.998Z</time></trkpt><trkpt lat="44.81155243278996" lon="0.21830816353020363"><ele>82.0</ele><time>2026-04-19T15:20:32.998Z</time></trkpt><trkpt lat="44.81131608299607" lon="0.21833694841192788"><ele>82.0</ele><time>2026-04-19T15:20:33.998Z</time></trkpt><trkpt lat="44.81109465114672" lon="0.21838953852892456"><ele>82.0</ele><time>2026-04-19T15:20:34.998Z</time></trkpt><trkpt lat="44.81087654622919" lon="0.2184464833683243"><ele>82.0</ele><time>2026-04-19T15:20:35.999Z</time></trkpt><trkpt lat="44.81064871457302" lon="0.2185026644775283"><ele>83.66666666666666</ele><time>2026-04-19T15:20:36.999Z</time></trkpt><trkpt lat="44.81043345997641" lon="0.2185653950729424"><ele>85.33333333333333</ele><time>2026-04-19T15:20:37.999Z</time></trkpt><trkpt lat="44.810215112363856" lon="0.21865258601421506"><ele>87.0</ele><time>2026-04-19T15:20:38.999Z</time></trkpt><trkpt lat="44.8100076339309" lon="0.21879501999479578"><ele>86.33333333333333</ele><time>2026-04-19T15:20:39.999Z</time></trkpt><trkpt lat="44.80980507097952" lon="0.21893953758849521"><ele>85.66666666666666</ele><time>2026-04-19T15:20:40.999Z</time></trkpt><trkpt lat="44.809607078395686" lon="0.21907516914421782"><ele>85.0</ele><time>2026-04-19T15:20:42Z</time></trkpt><trkpt lat="44.809421356011" lon="0.2191972063280709"><ele>87.66666666666666</ele><time>2026-04-19T15:20:43Z</time></trkpt><trkpt lat="44.809234051316075" lon="0.21933327100282118"><ele>90.33333333333333</ele><time>2026-04-19T15:20:44Z</time></trkpt><trkpt lat="44.809074531145626" lon="0.21951126568906387"><ele>93.0</ele><time>2026-04-19T15:20:45Z</time></trkpt><trkpt lat="44.80892419188612" lon="0.21973333979451884"><ele>91.0</ele><time>2026-04-19T15:20:46Z</time></trkpt><trkpt lat="44.80877734637241" lon="0.21996825811349927"><ele>89.0</ele><time>2026-04-19T15:20:47Z</time></trkpt><trkpt lat="44.80863455518755" lon="0.22020965464549283"><ele>87.0</ele><time>2026-04-19T15:20:48Z</time></trkpt><trkpt lat="44.80848390836793" lon="0.220423759117903"><ele>89.33333333333333</ele><time>2026-04-19T15:20:49Z</time></trkpt><trkpt lat="44.80830837637681" lon="0.22060140666661718"><ele>91.66666666666666</ele><time>2026-04-19T15:20:50Z</time></trkpt><trkpt lat="44.80812547549194" lon="0.22075421636350348"><ele>94.0</ele><time>2026-04-19T15:20:51Z</time></trkpt><trkpt lat="44.80790880756284" lon="0.22085581342000354"><ele>94.0</ele><time>2026-04-19T15:20:52Z</time></trkpt><trkpt lat="44.80768709689358" lon="0.22094058490799964"><ele>94.0</ele><time>2026-04-19T15:20:53Z</time></trkpt><trkpt lat="44.80746066643787" lon="0.22103139527078883"><ele>98.0</ele><time>2026-04-19T15:20:54Z</time></trkpt><trkpt lat="44.807235104384034" lon="0.2211394788106174"><ele>102.0</ele><time>2026-04-19T15:20:55Z</time></trkpt><trkpt lat="44.807009877910076" lon="0.2212318721216734"><ele>105.5</ele><time>2026-04-19T15:20:56Z</time></trkpt><trkpt lat="44.806795893378975" lon="0.22134592899602845"><ele>109.0</ele><time>2026-04-19T15:20:57Z</time></trkpt><trkpt lat="44.80657273526581" lon="0.22144598203575389"><ele>108.0</ele><time>2026-04-19T15:20:58Z</time></trkpt><trkpt lat="44.80635312252462" lon="0.2215470669827293"><ele>107.0</ele><time>2026-04-19T15:20:59Z</time></trkpt><trkpt lat="44.80613817221816" lon="0.2216155661893749"><ele>108.0</ele><time>2026-04-19T15:21:00Z</time></trkpt><trkpt lat="44.80593942674231" lon="0.2217196355762137"><ele>109.0</ele><time>2026-04-19T15:21:01Z</time></trkpt><trkpt lat="44.805749536927024" lon="0.22180859269804223"><ele>110.0</ele><time>2026-04-19T15:21:02Z</time></trkpt><trkpt lat="44.805567685849375" lon="0.22189427093053382"><ele>110.0</ele><time>2026-04-19T15:21:03Z</time></trkpt><trkpt lat="44.80538476526634" lon="0.22200282618567396"><ele>110.0</ele><time>2026-04-19T15:21:04Z</time></trkpt><trkpt lat="44.805214333097005" lon="0.22213915612548363"><ele>110.0</ele><time>2026-04-19T15:21:05Z</time></trkpt><trkpt lat="44.80504157825845" lon="0.22231123673530956"><ele>110.66666666666666</ele><time>2026-04-19T15:21:06Z</time></trkpt><trkpt lat="44.80487263651058" lon="0.22251148040659985"><ele>111.33333333333334</ele><time>2026-04-19T15:21:07Z</time></trkpt><trkpt lat="44.80470885760218" lon="0.22270919908929437"><ele>112.0</ele><time>2026-04-19T15:21:08Z</time></trkpt><trkpt lat="44.804529815452575" lon="0.22288190845493275"><ele>111.5</ele><time>2026-04-19T15:21:09Z</time></trkpt><trkpt lat="44.804322550121874" lon="0.2230130969384889"><ele>111.0</ele><time>2026-04-19T15:21:10Z</time></trkpt><trkpt lat="44.80411099709109" lon="0.2231252689092804"><ele>111.33333333333334</ele><time>2026-04-19T15:21:11Z</time></trkpt><trkpt lat="44.80390259082851" lon="0.22322216232121078"><ele>111.66666666666667</ele><time>2026-04-19T15:21:12Z</time></trkpt><trkpt lat="44.80371299348195" lon="0.2233236252079102"><ele>112.0</ele><time>2026-04-19T15:21:13Z</time></trkpt><trkpt lat="44.80353581160951" lon="0.22341885704191203"><ele>112.0</ele><time>2026-04-19T15:21:14Z</time></trkpt><trkpt lat="44.80335224728962" lon="0.22352406085131007"><ele>112.0</ele><time>2026-04-19T15:21:15Z</time></trkpt><trkpt lat="44.80317743866528" lon="0.22365822658057158"><ele>112.0</ele><time>2026-04-19T15:21:16Z</time></trkpt><trkpt lat="44.80300747845251" lon="0.2238102278626326"><ele>112.66666666666667</ele><time>2026-04-19T15:21:17Z</time></trkpt><trkpt lat="44.80284342217155" lon="0.2240064598803649"><ele>113.33333333333334</ele><time>2026-04-19T15:21:18Z</time></trkpt><trkpt lat="44.80270123366965" lon="0.2242317229347189"><ele>114.0</ele><time>2026-04-19T15:21:19Z</time></trkpt><trkpt lat="44.80257199067444" lon="0.2244766059303301"><ele>114.0</ele><time>2026-04-19T15:21:20Z</time></trkpt><trkpt lat="44.80246292501453" lon="0.22473862514202048"><ele>114.0</ele><time>2026-04-19T15:21:21Z</time></trkpt><trkpt lat="44.802369501277695" lon="0.22499070811713784"><ele>114.0</ele><time>2026-04-19T15:21:22Z</time></trkpt><trkpt lat="44.80226695339683" lon="0.22523224749849813"><ele>114.0</ele><time>2026-04-19T15:21:23Z</time></trkpt><trkpt lat="44.802154434680666" lon="0.22544135659002962"><ele>114.0</ele><time>2026-04-19T15:21:24.001Z</time></trkpt><trkpt lat="44.80200861786662" lon="0.2255883245588431"><ele>114.0</ele><time>2026-04-19T15:21:25.001Z</time></trkpt><trkpt lat="44.801834071242894" lon="0.2257207858083308"><ele>113.33333333333334</ele><time>2026-04-19T15:21:26.001Z</time></trkpt><trkpt lat="44.801646240678934" lon="0.22583132044981852"><ele>112.66666666666667</ele><time>2026-04-19T15:21:27.001Z</time></trkpt><trkpt lat="44.801433040905025" lon="0.22588225353838504"><ele>112.0</ele><time>2026-04-19T15:21:28.001Z</time></trkpt><trkpt lat="44.80122389614727" lon="0.2258747292000554"><ele>112.0</ele><time>2026-04-19T15:21:29.001Z</time></trkpt><trkpt lat="44.80102817840592" lon="0.22578854669463705"><ele>112.0</ele><time>2026-04-19T15:21:30.001Z</time></trkpt><trkpt lat="44.80082570577554" lon="0.22572183740818885"><ele>112.0</ele><time>2026-04-19T15:21:31.001Z</time></trkpt><trkpt lat="44.80062480525995" lon="0.22563049301911817"><ele>110.33333333333334</ele><time>2026-04-19T15:21:32.001Z</time></trkpt><trkpt lat="44.800415339246555" lon="0.22554738620486472"><ele>108.66666666666666</ele><time>2026-04-19T15:21:33.001Z</time></trkpt><trkpt lat="44.80020599027752" lon="0.22547334868661503"><ele>107.0</ele><time>2026-04-19T15:21:34.001Z</time></trkpt><trkpt lat="44.80000675013742" lon="0.225404582895313"><ele>106.66666666666666</ele><time>2026-04-19T15:21:35.001Z</time></trkpt><trkpt lat="44.79980518881041" lon="0.22533191269802239"><ele>106.33333333333334</ele><time>2026-04-19T15:21:36.001Z</time></trkpt><trkpt lat="44.799617238437605" lon="0.22526236424481813"><ele>106.0</ele><time>2026-04-19T15:21:37.001Z</time></trkpt><trkpt lat="44.799436984093035" lon="0.225205015336874"><ele>106.0</ele><time>2026-04-19T15:21:38.001Z</time></trkpt><trkpt lat="44.79926966417764" lon="0.22516631160069944"><ele>106.0</ele><time>2026-04-19T15:21:39.001Z</time></trkpt><trkpt lat="44.7991118484995" lon="0.2251469532583086"><ele>106.0</ele><time>2026-04-19T15:21:40.001Z</time></trkpt><trkpt lat="44.79895867542665" lon="0.22514615599761395"><ele>106.0</ele><time>2026-04-19T15:21:41.001Z</time></trkpt><trkpt lat="44.79882254039197" lon="0.22515955376590754"><ele>106.0</ele><time>2026-04-19T15:21:42.001Z</time></trkpt><trkpt lat="44.798706885418504" lon="0.22516547435285056"><ele>106.0</ele><time>2026-04-19T15:21:42.997Z</time></trkpt><trkpt lat="44.79859585198358" lon="0.22512851577959908"><ele>106.0</ele><time>2026-04-19T15:21:43.998Z</time></trkpt><trkpt lat="44.79850794973993" lon="0.22512592420170083"><ele>106.0</ele><time>2026-04-19T15:21:44.998Z</time></trkpt><trkpt lat="44.79843708918476" lon="0.2248688832309846"><ele>106.0</ele><time>2026-04-19T15:21:45.998Z</time></trkpt><trkpt lat="44.79832520557655" lon="0.22477945803144256"><ele>106.0</ele><time>2026-04-19T15:21:46.997Z</time></trkpt><trkpt lat="44.79817320516614" lon="0.22468714322505845"><ele>106.0</ele><time>2026-04-19T15:21:47.997Z</time></trkpt><trkpt lat="44.79801379830845" lon="0.2245993527263454"><ele>106.0</ele><time>2026-04-19T15:21:48.998Z</time></trkpt><trkpt lat="44.79784570421415" lon="0.22450481359342808"><ele>106.0</ele><time>2026-04-19T15:21:49.998Z</time></trkpt><trkpt lat="44.7976929300707" lon="0.2244173548893797"><ele>105.66666666666667</ele><time>2026-04-19T15:21:50.998Z</time></trkpt><trkpt lat="44.797532800624616" lon="0.22432568545202347"><ele>105.33333333333334</ele><time>2026-04-19T15:21:51.998Z</time></trkpt><trkpt lat="44.797360699569765" lon="0.22424940851188607"><ele>105.0</ele><time>2026-04-19T15:21:52.998Z</time></trkpt><trkpt lat="44.79718504580752" lon="0.2241278779003618"><ele>105.0</ele><time>2026-04-19T15:21:53.998Z</time></trkpt><trkpt lat="44.79702260733975" lon="0.22403741449676623"><ele>105.0</ele><time>2026-04-19T15:21:54.997Z</time></trkpt><trkpt lat="44.79685332854411" lon="0.22396912684135095"><ele>105.0</ele><time>2026-04-19T15:21:55.998Z</time></trkpt><trkpt lat="44.796676867463894" lon="0.22386358644615803"><ele>103.33333333333334</ele><time>2026-04-19T15:21:56.998Z</time></trkpt><trkpt lat="44.79651376557978" lon="0.2237788683043464"><ele>101.66666666666667</ele><time>2026-04-19T15:21:57.998Z</time></trkpt><trkpt lat="44.79635356529729" lon="0.22370215521978512"><ele>100.0</ele><time>2026-04-19T15:21:58.998Z</time></trkpt><trkpt lat="44.796201087849745" lon="0.22359777063382352"><ele>100.0</ele><time>2026-04-19T15:21:59.998Z</time></trkpt><trkpt lat="44.79604430325993" lon="0.22350850023099297"><ele>100.0</ele><time>2026-04-19T15:22:00.998Z</time></trkpt><trkpt lat="44.79589725095476" lon="0.22342315903686388"><ele>100.0</ele><time>2026-04-19T15:22:01.998Z</time></trkpt><trkpt lat="44.79575350897446" lon="0.22333431266230563"><ele>98.33333333333334</ele><time>2026-04-19T15:22:02.998Z</time></trkpt><trkpt lat="44.79561542917232" lon="0.22323239643868217"><ele>96.66666666666667</ele><time>2026-04-19T15:22:03.998Z</time></trkpt><trkpt lat="44.79547833861425" lon="0.22312437220673784"><ele>95.0</ele><time>2026-04-19T15:22:04.998Z</time></trkpt><trkpt lat="44.79534083155578" lon="0.22300653346088192"><ele>94.33333333333334</ele><time>2026-04-19T15:22:05.998Z</time></trkpt><trkpt lat="44.795205241555216" lon="0.22288076987463953"><ele>93.66666666666667</ele><time>2026-04-19T15:22:06.998Z</time></trkpt><trkpt lat="44.79507535190275" lon="0.2227549108836007"><ele>93.0</ele><time>2026-04-19T15:22:07.998Z</time></trkpt><trkpt lat="44.79494681109724" lon="0.2226317654497189"><ele>92.33333333333333</ele><time>2026-04-19T15:22:08.998Z</time></trkpt><trkpt lat="44.794823345050325" lon="0.2225055138520941"><ele>91.66666666666666</ele><time>2026-04-19T15:22:09.998Z</time></trkpt><trkpt lat="44.79469027636917" lon="0.22236015169213819"><ele>91.0</ele><time>2026-04-19T15:22:10.998Z</time></trkpt><trkpt lat="44.79455200585953" lon="0.22226253131189924"><ele>91.0</ele><time>2026-04-19T15:22:11.998Z</time></trkpt><trkpt lat="44.794415457475196" lon="0.22217284197008205"><ele>91.0</ele><time>2026-04-19T15:22:12.998Z</time></trkpt><trkpt lat="44.794273861594" lon="0.22206138365829065"><ele>91.0</ele><time>2026-04-19T15:22:13.998Z</time></trkpt><trkpt lat="44.79415569426361" lon="0.22192669858852274"><ele>89.33333333333333</ele><time>2026-04-19T15:22:14.998Z</time></trkpt><trkpt lat="44.79403564407922" lon="0.2217720904100422"><ele>87.66666666666667</ele><time>2026-04-19T15:22:15.998Z</time></trkpt><trkpt lat="44.793901201858326" lon="0.22161549902284564"><ele>86.0</ele><time>2026-04-19T15:22:16.998Z</time></trkpt><trkpt lat="44.793772100662636" lon="0.22147148303393582"><ele>85.66666666666667</ele><time>2026-04-19T15:22:17.998Z</time></trkpt><trkpt lat="44.79362441793634" lon="0.22134492935596128"><ele>85.33333333333333</ele><time>2026-04-19T15:22:18.998Z</time></trkpt><trkpt lat="44.793465062554986" lon="0.22118437760219517"><ele>85.0</ele><time>2026-04-19T15:22:19.998Z</time></trkpt><trkpt lat="44.793315069766564" lon="0.2210121805481518"><ele>80.66666666666666</ele><time>2026-04-19T15:22:20.998Z</time></trkpt><trkpt lat="44.79317861669768" lon="0.22079992817906377"><ele>76.33333333333333</ele><time>2026-04-19T15:22:21.998Z</time></trkpt><trkpt lat="44.79303554760386" lon="0.2205921656681027"><ele>72.0</ele><time>2026-04-19T15:22:22.998Z</time></trkpt><trkpt lat="44.792888211936166" lon="0.22037609568615188"><ele>71.33333333333333</ele><time>2026-04-19T15:22:23.998Z</time></trkpt><trkpt lat="44.792730695675445" lon="0.2201789318740182"><ele>70.66666666666666</ele><time>2026-04-19T15:22:24.998Z</time></trkpt><trkpt lat="44.792586227790615" lon="0.2199658203520026"><ele>70.0</ele><time>2026-04-19T15:22:25.998Z</time></trkpt><trkpt lat="44.792442840349764" lon="0.21973677406903713"><ele>68.0</ele><time>2026-04-19T15:22:26.998Z</time></trkpt><trkpt lat="44.792293021551565" lon="0.21952585716299688"><ele>66.0</ele><time>2026-04-19T15:22:27.998Z</time></trkpt><trkpt lat="44.7921401654781" lon="0.21931330121489054"><ele>64.0</ele><time>2026-04-19T15:22:28.998Z</time></trkpt><trkpt lat="44.79198884503628" lon="0.21910296855442274"><ele>63.0</ele><time>2026-04-19T15:22:29.998Z</time></trkpt><trkpt lat="44.79183702277056" lon="0.21888382577578622"><ele>62.0</ele><time>2026-04-19T15:22:30.998Z</time></trkpt><trkpt lat="44.79168280670289" lon="0.2186697357952279"><ele>61.0</ele><time>2026-04-19T15:22:31.998Z</time></trkpt><trkpt lat="44.791528195309354" lon="0.21845111341702778"><ele>61.0</ele><time>2026-04-19T15:22:32.999Z</time></trkpt><trkpt lat="44.791372571570555" lon="0.2182432220092014"><ele>61.0</ele><time>2026-04-19T15:22:33.999Z</time></trkpt><trkpt lat="44.79122307145997" lon="0.21802078811241807"><ele>61.0</ele><time>2026-04-19T15:22:34.999Z</time></trkpt><trkpt lat="44.791073024754965" lon="0.21780379858705864"><ele>62.33333333333333</ele><time>2026-04-19T15:22:35.999Z</time></trkpt><trkpt lat="44.790923720027756" lon="0.21759026628002093"><ele>63.66666666666667</ele><time>2026-04-19T15:22:36.999Z</time></trkpt><trkpt lat="44.79077675611757" lon="0.2173722359769484"><ele>65.0</ele><time>2026-04-19T15:22:37.999Z</time></trkpt><trkpt lat="44.790632750974936" lon="0.21715722681073368"><ele>65.66666666666667</ele><time>2026-04-19T15:22:38.999Z</time></trkpt><trkpt lat="44.7904884580634" lon="0.2169431421302477"><ele>66.33333333333333</ele><time>2026-04-19T15:22:39.999Z</time></trkpt><trkpt lat="44.79034441852948" lon="0.21672423884489975"><ele>67.0</ele><time>2026-04-19T15:22:40.999Z</time></trkpt><trkpt lat="44.79019587153825" lon="0.21652035045119408"><ele>69.0</ele><time>2026-04-19T15:22:41.999Z</time></trkpt><trkpt lat="44.790044734365175" lon="0.21632394138852498"><ele>71.0</ele><time>2026-04-19T15:22:42.999Z</time></trkpt><trkpt lat="44.78988120396038" lon="0.21613327617279937"><ele>73.0</ele><time>2026-04-19T15:22:43.999Z</time></trkpt><trkpt lat="44.78972383229125" lon="0.21597468449425553"><ele>73.0</ele><time>2026-04-19T15:22:44.999Z</time></trkpt><trkpt lat="44.78954537827832" lon="0.2158391891649758"><ele>73.0</ele><time>2026-04-19T15:22:45.999Z</time></trkpt><trkpt lat="44.78937592582259" lon="0.21568428271632187"><ele>73.0</ele><time>2026-04-19T15:22:46.999Z</time></trkpt><trkpt lat="44.789225634316864" lon="0.21550575317866333"><ele>74.66666666666666</ele><time>2026-04-19T15:22:47.999Z</time></trkpt><trkpt lat="44.78908092932365" lon="0.21530750540808472"><ele>76.33333333333333</ele><time>2026-04-19T15:22:48.999Z</time></trkpt><trkpt lat="44.788929529989986" lon="0.21510334660469985"><ele>78.0</ele><time>2026-04-19T15:22:49.999Z</time></trkpt><trkpt lat="44.78877238910083" lon="0.2149241560880141"><ele>79.66666666666667</ele><time>2026-04-19T15:22:50.999Z</time></trkpt><trkpt lat="44.788606435166606" lon="0.214769088308343"><ele>81.33333333333334</ele><time>2026-04-19T15:22:51.999Z</time></trkpt><trkpt lat="44.78842828643087" lon="0.21463888459318406"><ele>83.0</ele><time>2026-04-19T15:22:52.999Z</time></trkpt><trkpt lat="44.78826105789898" lon="0.21450367337891052"><ele>83.66666666666667</ele><time>2026-04-19T15:22:53.999Z</time></trkpt><trkpt lat="44.788103661327824" lon="0.21436904841704194"><ele>84.33333333333333</ele><time>2026-04-19T15:22:54.999Z</time></trkpt><trkpt lat="44.78795469085242" lon="0.21424414633230432"><ele>85.0</ele><time>2026-04-19T15:22:55.999Z</time></trkpt><trkpt lat="44.78781198120654" lon="0.21411922560688051"><ele>84.66666666666666</ele><time>2026-04-19T15:22:56.999Z</time></trkpt><trkpt lat="44.78768877633568" lon="0.2139674515880997"><ele>84.33333333333333</ele><time>2026-04-19T15:22:57.999Z</time></trkpt><trkpt lat="44.78758844781535" lon="0.21382586714631804"><ele>84.0</ele><time>2026-04-19T15:22:58.999Z</time></trkpt><trkpt lat="44.787489640501114" lon="0.213663250951604"><ele>84.0</ele><time>2026-04-19T15:22:59.999Z</time></trkpt><trkpt lat="44.78743547794518" lon="0.2134636250235529"><ele>84.0</ele><time>2026-04-19T15:23:00.999Z</time></trkpt><trkpt lat="44.78737617922747" lon="0.2132625034483323"><ele>84.0</ele><time>2026-04-19T15:23:01.999Z</time></trkpt><trkpt lat="44.787302115901284" lon="0.21306123225511167"><ele>85.0</ele><time>2026-04-19T15:23:02.999Z</time></trkpt><trkpt lat="44.78720599858011" lon="0.21284512333551908"><ele>86.0</ele><time>2026-04-19T15:23:03.999Z</time></trkpt><trkpt lat="44.78707266130338" lon="0.21264622881763423"><ele>87.0</ele><time>2026-04-19T15:23:04.999Z</time></trkpt><trkpt lat="44.786929151867234" lon="0.21244680990143092"><ele>87.0</ele><time>2026-04-19T15:23:05.999Z</time></trkpt><trkpt lat="44.7867758585931" lon="0.21224769028592255"><ele>87.0</ele><time>2026-04-19T15:23:06.999Z</time></trkpt><trkpt lat="44.78662333575703" lon="0.212038233063619"><ele>87.0</ele><time>2026-04-19T15:23:07.999Z</time></trkpt><trkpt lat="44.786478656325556" lon="0.21183350850266103"><ele>87.0</ele><time>2026-04-19T15:23:08.999Z</time></trkpt><trkpt lat="44.78633392294616" lon="0.21163491672488002"><ele>87.0</ele><time>2026-04-19T15:23:09.999Z</time></trkpt><trkpt lat="44.786185992542784" lon="0.2114373699020306"><ele>87.0</ele><time>2026-04-19T15:23:10.999Z</time></trkpt><trkpt lat="44.786036498097815" lon="0.21125729150849684"><ele>87.0</ele><time>2026-04-19T15:23:11.999Z</time></trkpt><trkpt lat="44.78589740643029" lon="0.21109435719408312"><ele>87.0</ele><time>2026-04-19T15:23:12.999Z</time></trkpt><trkpt lat="44.78576482898557" lon="0.21093905962783965"><ele>87.0</ele><time>2026-04-19T15:23:13.999Z</time></trkpt><trkpt lat="44.78563794186312" lon="0.2107835174427059"><ele>87.66666666666667</ele><time>2026-04-19T15:23:14.999Z</time></trkpt><trkpt lat="44.7855226106642" lon="0.2106382972959263"><ele>88.33333333333334</ele><time>2026-04-19T15:23:15.999Z</time></trkpt><trkpt lat="44.785415580642805" lon="0.21047314683156967"><ele>89.0</ele><time>2026-04-19T15:23:16.999Z</time></trkpt><trkpt lat="44.78531333593453" lon="0.21030674026421403"><ele>89.0</ele><time>2026-04-19T15:23:17.999Z</time></trkpt><trkpt lat="44.78519117012196" lon="0.21015197216067838"><ele>89.0</ele><time>2026-04-19T15:23:19Z</time></trkpt><trkpt lat="44.78506684760446" lon="0.2100169357964801"><ele>89.0</ele><time>2026-04-19T15:23:20Z</time></trkpt><trkpt lat="44.78497634752453" lon="0.20980376136916196"><ele>90.33333333333334</ele><time>2026-04-19T15:23:21Z</time></trkpt><trkpt lat="44.78489148938282" lon="0.20958934607404583"><ele>91.66666666666667</ele><time>2026-04-19T15:23:22Z</time></trkpt><trkpt lat="44.78480758544194" lon="0.20936669157050133"><ele>93.0</ele><time>2026-04-19T15:23:23Z</time></trkpt><trkpt lat="44.78470078611744" lon="0.20915133039884254"><ele>94.33333333333334</ele><time>2026-04-19T15:23:24Z</time></trkpt><trkpt lat="44.784581494407085" lon="0.20893627758564637"><ele>95.66666666666667</ele><time>2026-04-19T15:23:25Z</time></trkpt><trkpt lat="44.78445411143366" lon="0.20872251053908927"><ele>97.0</ele><time>2026-04-19T15:23:26Z</time></trkpt><trkpt lat="44.78431796603879" lon="0.20851246015237176"><ele>98.0</ele><time>2026-04-19T15:23:27Z</time></trkpt><trkpt lat="44.784180787561716" lon="0.2083086727884428"><ele>99.0</ele><time>2026-04-19T15:23:28Z</time></trkpt><trkpt lat="44.78404672806514" lon="0.20811503658027417"><ele>100.0</ele><time>2026-04-19T15:23:29Z</time></trkpt><trkpt lat="44.78391149489258" lon="0.20793000508260132"><ele>101.66666666666667</ele><time>2026-04-19T15:23:30Z</time></trkpt><trkpt lat="44.78377268241088" lon="0.20776478984967178"><ele>103.33333333333334</ele><time>2026-04-19T15:23:31Z</time></trkpt><trkpt lat="44.783634685372604" lon="0.20762876351087445"><ele>105.0</ele><time>2026-04-19T15:23:32Z</time></trkpt><trkpt lat="44.7834719847409" lon="0.2075021861156776"><ele>105.0</ele><time>2026-04-19T15:23:33Z</time></trkpt><trkpt lat="44.783306939525545" lon="0.2074063335702836"><ele>105.0</ele><time>2026-04-19T15:23:34Z</time></trkpt><trkpt lat="44.7831292765861" lon="0.20732925702837424"><ele>105.0</ele><time>2026-04-19T15:23:35Z</time></trkpt><trkpt lat="44.78295341350689" lon="0.20723405093254166"><ele>105.0</ele><time>2026-04-19T15:23:36Z</time></trkpt><trkpt lat="44.782770832996164" lon="0.2071294301476232"><ele>105.0</ele><time>2026-04-19T15:23:37Z</time></trkpt><trkpt lat="44.78258067514078" lon="0.20703789374543155"><ele>105.0</ele><time>2026-04-19T15:23:38Z</time></trkpt><trkpt lat="44.78238034203996" lon="0.2069409836893851"><ele>105.0</ele><time>2026-04-19T15:23:39Z</time></trkpt><trkpt lat="44.78218416049322" lon="0.2068582924590519"><ele>105.0</ele><time>2026-04-19T15:23:40Z</time></trkpt><trkpt lat="44.78197794444164" lon="0.20677303421987092"><ele>105.0</ele><time>2026-04-19T15:23:41Z</time></trkpt><trkpt lat="44.78177941693113" lon="0.20668315327043113"><ele>104.66666666666666</ele><time>2026-04-19T15:23:42Z</time></trkpt><trkpt lat="44.78159185692313" lon="0.2065824989367669"><ele>104.33333333333333</ele><time>2026-04-19T15:23:43Z</time></trkpt><trkpt lat="44.78141709935743" lon="0.2064983749603069"><ele>104.0</ele><time>2026-04-19T15:23:44Z</time></trkpt><trkpt lat="44.781252924372225" lon="0.2063891669669776"><ele>105.66666666666666</ele><time>2026-04-19T15:23:45Z</time></trkpt><trkpt lat="44.781085514021086" lon="0.20630816171363395"><ele>107.33333333333334</ele><time>2026-04-19T15:23:46Z</time></trkpt><trkpt lat="44.78090838043491" lon="0.2062736876585098"><ele>109.0</ele><time>2026-04-19T15:23:47Z</time></trkpt><trkpt lat="44.78072474807311" lon="0.20628345010159604"><ele>109.33333333333334</ele><time>2026-04-19T15:23:48Z</time></trkpt><trkpt lat="44.780552812302346" lon="0.20630862807004688"><ele>109.66666666666666</ele><time>2026-04-19T15:23:48.997Z</time></trkpt><trkpt lat="44.780378330980895" lon="0.20629627209231455"><ele>110.0</ele><time>2026-04-19T15:23:49.997Z</time></trkpt><trkpt lat="44.78022647110531" lon="0.20630856669686706"><ele>111.33333333333333</ele><time>2026-04-19T15:23:50.997Z</time></trkpt><trkpt lat="44.78006757379815" lon="0.2062581525904208"><ele>112.66666666666666</ele><time>2026-04-19T15:23:51.996Z</time></trkpt><trkpt lat="44.77989563090329" lon="0.206241931391361"><ele>114.0</ele><time>2026-04-19T15:23:52.996Z</time></trkpt><trkpt lat="44.77973280272969" lon="0.2062571759237614"><ele>114.0</ele><time>2026-04-19T15:23:53.996Z</time></trkpt><trkpt lat="44.77956693594288" lon="0.20629294651010896"><ele>114.0</ele><time>2026-04-19T15:23:54.997Z</time></trkpt><trkpt lat="44.77939709259496" lon="0.20636008143810178"><ele>114.0</ele><time>2026-04-19T15:23:55.996Z</time></trkpt><trkpt lat="44.77920752372511" lon="0.20642452992519342"><ele>113.33333333333334</ele><time>2026-04-19T15:23:56.996Z</time></trkpt><trkpt lat="44.779017666089686" lon="0.2064855150180244"><ele>112.66666666666667</ele><time>2026-04-19T15:23:57.996Z</time></trkpt><trkpt lat="44.77883590267696" lon="0.20654329067721094"><ele>112.0</ele><time>2026-04-19T15:23:58.997Z</time></trkpt><trkpt lat="44.77865581216201" lon="0.20659973187191352"><ele>111.0</ele><time>2026-04-19T15:23:59.997Z</time></trkpt><trkpt lat="44.778475303622734" lon="0.2066679541171382"><ele>110.0</ele><time>2026-04-19T15:24:00.997Z</time></trkpt><trkpt lat="44.778303651235035" lon="0.20672744536835166"><ele>109.0</ele><time>2026-04-19T15:24:01.996Z</time></trkpt><trkpt lat="44.778123254894865" lon="0.20679341166157053"><ele>109.0</ele><time>2026-04-19T15:24:02.996Z</time></trkpt><trkpt lat="44.777947442261144" lon="0.20686704686494345"><ele>109.0</ele><time>2026-04-19T15:24:03.996Z</time></trkpt><trkpt lat="44.77776078637071" lon="0.2069443002518967"><ele>109.0</ele><time>2026-04-19T15:24:04.997Z</time></trkpt><trkpt lat="44.7775670767015" lon="0.2070206439441778"><ele>108.0</ele><time>2026-04-19T15:24:05.997Z</time></trkpt><trkpt lat="44.7773740091546" lon="0.20709547015364901"><ele>107.0</ele><time>2026-04-19T15:24:06.997Z</time></trkpt><trkpt lat="44.77719389895945" lon="0.20718507049476237"><ele>106.0</ele><time>2026-04-19T15:24:07.997Z</time></trkpt><trkpt lat="44.77700833786694" lon="0.20726753923210922"><ele>104.33333333333334</ele><time>2026-04-19T15:24:08.997Z</time></trkpt><trkpt lat="44.77683646508474" lon="0.20735044520180884"><ele>102.66666666666666</ele><time>2026-04-19T15:24:09.997Z</time></trkpt><trkpt lat="44.77666544459779" lon="0.20741054056729907"><ele>101.0</ele><time>2026-04-19T15:24:10.997Z</time></trkpt><trkpt lat="44.776491438168115" lon="0.20748275502728705"><ele>101.0</ele><time>2026-04-19T15:24:11.997Z</time></trkpt><trkpt lat="44.77631192416598" lon="0.2074976529559768"><ele>101.0</ele><time>2026-04-19T15:24:12.997Z</time></trkpt><trkpt lat="44.77612171649739" lon="0.20749926652826514"><ele>101.0</ele><time>2026-04-19T15:24:13.997Z</time></trkpt><trkpt lat="44.77593409337944" lon="0.20749189145908647"><ele>99.33333333333333</ele><time>2026-04-19T15:24:14.997Z</time></trkpt><trkpt lat="44.77574148514775" lon="0.2074797490365163"><ele>97.66666666666666</ele><time>2026-04-19T15:24:15.997Z</time></trkpt><trkpt lat="44.77556032732039" lon="0.20748394759070932"><ele>96.0</ele><time>2026-04-19T15:24:16.997Z</time></trkpt><trkpt lat="44.775395821496765" lon="0.2074725480654374"><ele>96.0</ele><time>2026-04-19T15:24:17.997Z</time></trkpt><trkpt lat="44.77524675750554" lon="0.20744550902371411"><ele>96.0</ele><time>2026-04-19T15:24:18.997Z</time></trkpt><trkpt lat="44.77510242206594" lon="0.20745174920859566"><ele>96.0</ele><time>2026-04-19T15:24:19.997Z</time></trkpt><trkpt lat="44.77497159263445" lon="0.20743810335358961"><ele>96.0</ele><time>2026-04-19T15:24:20.997Z</time></trkpt><trkpt lat="44.774850853265754" lon="0.2074046777747225"><ele>95.4</ele><time>2026-04-19T15:24:21.997Z</time></trkpt><trkpt lat="44.774732981336356" lon="0.2074085042414146"><ele>94.8</ele><time>2026-04-19T15:24:22.997Z</time></trkpt><trkpt lat="44.774631926563714" lon="0.20743814659630233"><ele>94.2</ele><time>2026-04-19T15:24:23.997Z</time></trkpt><trkpt lat="44.774559749653626" lon="0.20756280503805993"><ele>93.60000000000001</ele><time>2026-04-19T15:24:24.997Z</time></trkpt><trkpt lat="44.7744784099819" lon="0.20767045436944725"><ele>93.0</ele><time>2026-04-19T15:24:25.997Z</time></trkpt><trkpt lat="44.77436484649935" lon="0.2077964119407695"><ele>92.5</ele><time>2026-04-19T15:24:26.997Z</time></trkpt><trkpt lat="44.77428570983093" lon="0.20792921322203184"><ele>92.0</ele><time>2026-04-19T15:24:27.997Z</time></trkpt><trkpt lat="44.774210804756684" lon="0.20805430836875144"><ele>91.5</ele><time>2026-04-19T15:24:28.997Z</time></trkpt><trkpt lat="44.77414483776663" lon="0.2081768699275589"><ele>91.0</ele><time>2026-04-19T15:24:29.997Z</time></trkpt><trkpt lat="44.774073817817886" lon="0.20830068801855148"><ele>90.33333333333333</ele><time>2026-04-19T15:24:30.997Z</time></trkpt><trkpt lat="44.77401776947737" lon="0.20842736082719232"><ele>89.66666666666666</ele><time>2026-04-19T15:24:31.997Z</time></trkpt><trkpt lat="44.77397433559441" lon="0.20854836573590058"><ele>89.0</ele><time>2026-04-19T15:24:32.997Z</time></trkpt><trkpt lat="44.77393157604933" lon="0.20865358357724784"><ele>88.33333333333333</ele><time>2026-04-19T15:24:33.997Z</time></trkpt><trkpt lat="44.773874561481286" lon="0.20872266742940104"><ele>87.66666666666667</ele><time>2026-04-19T15:24:34.997Z</time></trkpt><trkpt lat="44.77380284193257" lon="0.20876065158082657"><ele>87.0</ele><time>2026-04-19T15:24:35.997Z</time></trkpt><trkpt lat="44.77371154827507" lon="0.20877684894227827"><ele>87.0</ele><time>2026-04-19T15:24:36.997Z</time></trkpt><trkpt lat="44.773619964733534" lon="0.20877898601330372"><ele>87.0</ele><time>2026-04-19T15:24:37.997Z</time></trkpt><trkpt lat="44.773539702543474" lon="0.2087394647988626"><ele>87.0</ele><time>2026-04-19T15:24:38.997Z</time></trkpt><trkpt lat="44.773452942843925" lon="0.20869318433278217"><ele>87.0</ele><time>2026-04-19T15:24:39.997Z</time></trkpt><trkpt lat="44.77335858026148" lon="0.20863804841660955"><ele>87.0</ele><time>2026-04-19T15:24:40.997Z</time></trkpt><trkpt lat="44.77326727064113" lon="0.20857721117011827"><ele>86.0</ele><time>2026-04-19T15:24:41.997Z</time></trkpt><trkpt lat="44.77317642154782" lon="0.2085433794650236"><ele>85.0</ele><time>2026-04-19T15:24:42.997Z</time></trkpt><trkpt lat="44.77307158530486" lon="0.20847755006460225"><ele>84.0</ele><time>2026-04-19T15:24:43.997Z</time></trkpt><trkpt lat="44.77295556417854" lon="0.20840226691803768"><ele>83.0</ele><time>2026-04-19T15:24:44.997Z</time></trkpt><trkpt lat="44.77283495187843" lon="0.20832474791461195"><ele>83.0</ele><time>2026-04-19T15:24:45.997Z</time></trkpt><trkpt lat="44.77270601484651" lon="0.2082514710318112"><ele>83.0</ele><time>2026-04-19T15:24:46.997Z</time></trkpt><trkpt lat="44.77257880501687" lon="0.2081868994657541"><ele>83.0</ele><time>2026-04-19T15:24:47.997Z</time></trkpt><trkpt lat="44.77245021566531" lon="0.20813685224749737"><ele>83.0</ele><time>2026-04-19T15:24:48.997Z</time></trkpt><trkpt lat="44.7723203105379" lon="0.20810414160186713"><ele>82.5</ele><time>2026-04-19T15:24:49.997Z</time></trkpt><trkpt lat="44.77219446849482" lon="0.20806269215753131"><ele>82.0</ele><time>2026-04-19T15:24:50.997Z</time></trkpt><trkpt lat="44.772042298447154" lon="0.208009316466033"><ele>81.5</ele><time>2026-04-19T15:24:51.997Z</time></trkpt><trkpt lat="44.77188946030616" lon="0.20795613001050653"><ele>81.0</ele><time>2026-04-19T15:24:52.998Z</time></trkpt><trkpt lat="44.77172618744554" lon="0.20790077405482868"><ele>79.0</ele><time>2026-04-19T15:24:53.998Z</time></trkpt><trkpt lat="44.771568266223085" lon="0.2078461722317117"><ele>77.0</ele><time>2026-04-19T15:24:54.998Z</time></trkpt><trkpt lat="44.77141148006199" lon="0.2077763687662943"><ele>75.0</ele><time>2026-04-19T15:24:55.998Z</time></trkpt><trkpt lat="44.77125914251634" lon="0.2077075892774951"><ele>75.0</ele><time>2026-04-19T15:24:56.998Z</time></trkpt><trkpt lat="44.771104721658794" lon="0.20760573542867328"><ele>75.0</ele><time>2026-04-19T15:24:57.998Z</time></trkpt><trkpt lat="44.770959527081054" lon="0.20750656998039074"><ele>75.0</ele><time>2026-04-19T15:24:58.998Z</time></trkpt><trkpt lat="44.77084200308574" lon="0.20733578135212613"><ele>73.0</ele><time>2026-04-19T15:24:59.998Z</time></trkpt><trkpt lat="44.77072238257994" lon="0.20716144096653422"><ele>71.0</ele><time>2026-04-19T15:25:00.998Z</time></trkpt><trkpt lat="44.77057498280697" lon="0.20698234646016334"><ele>69.0</ele><time>2026-04-19T15:25:01.998Z</time></trkpt><trkpt lat="44.77043651257881" lon="0.20680387708945008"><ele>69.0</ele><time>2026-04-19T15:25:02.998Z</time></trkpt><trkpt lat="44.770284791977595" lon="0.20667407599332846"><ele>69.0</ele><time>2026-04-19T15:25:03.998Z</time></trkpt><trkpt lat="44.77013730435635" lon="0.20655026164636384"><ele>69.0</ele><time>2026-04-19T15:25:04.998Z</time></trkpt><trkpt lat="44.77001296109626" lon="0.2064079757140685"><ele>68.66666666666667</ele><time>2026-04-19T15:25:05.998Z</time></trkpt><trkpt lat="44.76988380555593" lon="0.20628025885555595"><ele>68.33333333333334</ele><time>2026-04-19T15:25:06.998Z</time></trkpt><trkpt lat="44.76974679497718" lon="0.20616002957093157"><ele>68.0</ele><time>2026-04-19T15:25:07.998Z</time></trkpt><trkpt lat="44.76960064001424" lon="0.20606961300833837"><ele>68.0</ele><time>2026-04-19T15:25:08.998Z</time></trkpt><trkpt lat="44.76945668475843" lon="0.20598474987302529"><ele>68.0</ele><time>2026-04-19T15:25:09.998Z</time></trkpt><trkpt lat="44.769287066215114" lon="0.20588809519409995"><ele>68.0</ele><time>2026-04-19T15:25:10.998Z</time></trkpt><trkpt lat="44.76912262355471" lon="0.20578001811385702"><ele>68.0</ele><time>2026-04-19T15:25:11.998Z</time></trkpt><trkpt lat="44.76895920557747" lon="0.20569228939526527"><ele>68.0</ele><time>2026-04-19T15:25:12.998Z</time></trkpt><trkpt lat="44.76879626623677" lon="0.20559216155909044"><ele>68.0</ele><time>2026-04-19T15:25:13.998Z</time></trkpt><trkpt lat="44.76863845059698" lon="0.2054979546927427"><ele>69.33333333333334</ele><time>2026-04-19T15:25:14.998Z</time></trkpt><trkpt lat="44.768480939873335" lon="0.2054289712428736"><ele>70.66666666666667</ele><time>2026-04-19T15:25:15.998Z</time></trkpt><trkpt lat="44.76831368081291" lon="0.2054122246679268"><ele>72.0</ele><time>2026-04-19T15:25:16.998Z</time></trkpt><trkpt lat="44.76812845330401" lon="0.20543681394705499"><ele>72.0</ele><time>2026-04-19T15:25:17.998Z</time></trkpt><trkpt lat="44.76793711416318" lon="0.20546827368037385"><ele>72.0</ele><time>2026-04-19T15:25:18.998Z</time></trkpt><trkpt lat="44.76774495243263" lon="0.2055190493351119"><ele>72.0</ele><time>2026-04-19T15:25:19.998Z</time></trkpt><trkpt lat="44.76753885851618" lon="0.20557859500004597"><ele>71.66666666666667</ele><time>2026-04-19T15:25:20.998Z</time></trkpt><trkpt lat="44.76734085313548" lon="0.2056418225582214"><ele>71.33333333333334</ele><time>2026-04-19T15:25:21.998Z</time></trkpt><trkpt lat="44.76713263902806" lon="0.20569630123225133"><ele>71.0</ele><time>2026-04-19T15:25:22.998Z</time></trkpt><trkpt lat="44.76693203640132" lon="0.20573375534385308"><ele>71.66666666666667</ele><time>2026-04-19T15:25:23.998Z</time></trkpt><trkpt lat="44.76674909451565" lon="0.20575712707581748"><ele>72.33333333333333</ele><time>2026-04-19T15:25:24.998Z</time></trkpt><trkpt lat="44.76656398676477" lon="0.20576974708755133"><ele>73.0</ele><time>2026-04-19T15:25:25.998Z</time></trkpt><trkpt lat="44.76636748218635" lon="0.2057496916742787"><ele>73.0</ele><time>2026-04-19T15:25:26.998Z</time></trkpt><trkpt lat="44.76618657710618" lon="0.20573953982347792"><ele>73.0</ele><time>2026-04-19T15:25:27.998Z</time></trkpt><trkpt lat="44.766015729327364" lon="0.2056726112817292"><ele>73.0</ele><time>2026-04-19T15:25:28.998Z</time></trkpt><trkpt lat="44.76585132773937" lon="0.20561013670201814"><ele>75.66666666666666</ele><time>2026-04-19T15:25:29.998Z</time></trkpt><trkpt lat="44.76568114333063" lon="0.20556779188250968"><ele>78.33333333333333</ele><time>2026-04-19T15:25:30.998Z</time></trkpt><trkpt lat="44.765527951795235" lon="0.2055193567673036"><ele>81.0</ele><time>2026-04-19T15:25:31.998Z</time></trkpt><trkpt lat="44.76537186645516" lon="0.20548909751744535"><ele>81.0</ele><time>2026-04-19T15:25:32.998Z</time></trkpt><trkpt lat="44.765222659279836" lon="0.20545421649642318"><ele>81.0</ele><time>2026-04-19T15:25:33.998Z</time></trkpt><trkpt lat="44.76508217761674" lon="0.205373072739357"><ele>81.0</ele><time>2026-04-19T15:25:34.998Z</time></trkpt><trkpt lat="44.76494612723797" lon="0.20525915551104587"><ele>79.33333333333333</ele><time>2026-04-19T15:25:35.998Z</time></trkpt><trkpt lat="44.76481118359958" lon="0.2051175942875514"><ele>77.66666666666666</ele><time>2026-04-19T15:25:36.998Z</time></trkpt><trkpt lat="44.764675911052294" lon="0.20496586530898453"><ele>76.0</ele><time>2026-04-19T15:25:37.998Z</time></trkpt><trkpt lat="44.76453899164317" lon="0.20483611777389546"><ele>76.25</ele><time>2026-04-19T15:25:38.998Z</time></trkpt><trkpt lat="44.76442513973139" lon="0.20469468488678536"><ele>76.5</ele><time>2026-04-19T15:25:39.999Z</time></trkpt><trkpt lat="44.76430746532053" lon="0.2045727310047503"><ele>76.75</ele><time>2026-04-19T15:25:40.999Z</time></trkpt><trkpt lat="44.76418175594605" lon="0.20449363518109692"><ele>77.0</ele><time>2026-04-19T15:25:41.999Z</time></trkpt><trkpt lat="44.76407350996153" lon="0.2044178915393014"><ele>77.0</ele><time>2026-04-19T15:25:42.999Z</time></trkpt><trkpt lat="44.76395792219252" lon="0.20435289342497254"><ele>77.0</ele><time>2026-04-19T15:25:43.999Z</time></trkpt><trkpt lat="44.763848240897204" lon="0.20430780436694598"><ele>77.0</ele><time>2026-04-19T15:25:44.999Z</time></trkpt><trkpt lat="44.76373172921285" lon="0.20427966171763848"><ele>77.0</ele><time>2026-04-19T15:25:45.999Z</time></trkpt><trkpt lat="44.76362511539335" lon="0.20428444260166678"><ele>76.75</ele><time>2026-04-19T15:25:46.999Z</time></trkpt><trkpt lat="44.76351140592657" lon="0.20428974754150456"><ele>76.5</ele><time>2026-04-19T15:25:47.999Z</time></trkpt><trkpt lat="44.76339934488024" lon="0.2042457587526664"><ele>76.25</ele><time>2026-04-19T15:25:48.999Z</time></trkpt><trkpt lat="44.763286819681475" lon="0.20420356168876855"><ele>76.0</ele><time>2026-04-19T15:25:49.999Z</time></trkpt><trkpt lat="44.76317825048738" lon="0.2041630371516122"><ele>76.0</ele><time>2026-04-19T15:25:50.999Z</time></trkpt><trkpt lat="44.76306739029858" lon="0.2041455322264908"><ele>76.0</ele><time>2026-04-19T15:25:51.999Z</time></trkpt><trkpt lat="44.76295392605931" lon="0.20412293824385977"><ele>76.0</ele><time>2026-04-19T15:25:52.999Z</time></trkpt><trkpt lat="44.762832301778985" lon="0.20411626257488574"><ele>76.0</ele><time>2026-04-19T15:25:53.999Z</time></trkpt><trkpt lat="44.76270919094327" lon="0.20412973152344036"><ele>76.39999999999999</ele><time>2026-04-19T15:25:54.996Z</time></trkpt><trkpt lat="44.76258834043618" lon="0.20415512619204085"><ele>76.8</ele><time>2026-04-19T15:25:55.996Z</time></trkpt><trkpt lat="44.762479376149145" lon="0.20418492590867746"><ele>77.19999999999999</ele><time>2026-04-19T15:25:56.996Z</time></trkpt><trkpt lat="44.76237400679173" lon="0.2042123813939101"><ele>77.6</ele><time>2026-04-19T15:25:57.996Z</time></trkpt><trkpt lat="44.76227937663019" lon="0.20423048216604556"><ele>78.0</ele><time>2026-04-19T15:25:58.995Z</time></trkpt><trkpt lat="44.76219699409237" lon="0.20424473259274006"><ele>78.0</ele><time>2026-04-19T15:25:59.996Z</time></trkpt><trkpt lat="44.76212149874976" lon="0.20426475239500197"><ele>78.0</ele><time>2026-04-19T15:26:00.996Z</time></trkpt><trkpt lat="44.7620007537805" lon="0.20427979520070377"><ele>78.0</ele><time>2026-04-19T15:26:02.996Z</time></trkpt><trkpt lat="44.76187786098497" lon="0.20430641950791711"><ele>78.0</ele><time>2026-04-19T15:26:04.996Z</time></trkpt><trkpt lat="44.76181379270788" lon="0.20432186732323593"><ele>78.0</ele><time>2026-04-19T15:26:05.996Z</time></trkpt><trkpt lat="44.76174355103796" lon="0.20433846576098605"><ele>78.2</ele><time>2026-04-19T15:26:06.995Z</time></trkpt><trkpt lat="44.7616650205168" lon="0.20435924458577842"><ele>78.4</ele><time>2026-04-19T15:26:07.995Z</time></trkpt><trkpt lat="44.76157185291868" lon="0.20437767512242358"><ele>78.60000000000001</ele><time>2026-04-19T15:26:08.995Z</time></trkpt><trkpt lat="44.76146865425121" lon="0.20439469526197382"><ele>78.8</ele><time>2026-04-19T15:26:09.995Z</time></trkpt><trkpt lat="44.76134803587795" lon="0.20441887632808198"><ele>79.0</ele><time>2026-04-19T15:26:10.996Z</time></trkpt><trkpt lat="44.7612260778205" lon="0.2044434584245309"><ele>79.0</ele><time>2026-04-19T15:26:11.996Z</time></trkpt><trkpt lat="44.761111828798" lon="0.2044785349600931"><ele>79.0</ele><time>2026-04-19T15:26:12.996Z</time></trkpt><trkpt lat="44.760984625164106" lon="0.20449924880182394"><ele>79.0</ele><time>2026-04-19T15:26:13.996Z</time></trkpt><trkpt lat="44.760864774610205" lon="0.20455882900047445"><ele>79.0</ele><time>2026-04-19T15:26:14.996Z</time></trkpt><trkpt lat="44.76073460691872" lon="0.20462036993844138"><ele>78.66666666666666</ele><time>2026-04-19T15:26:15.996Z</time></trkpt><trkpt lat="44.76059366418678" lon="0.20467711828723356"><ele>78.33333333333333</ele><time>2026-04-19T15:26:16.996Z</time></trkpt><trkpt lat="44.760438424208154" lon="0.2047278151553976"><ele>78.0</ele><time>2026-04-19T15:26:17.997Z</time></trkpt><trkpt lat="44.760275291923385" lon="0.20476976821486864"><ele>78.33333333333333</ele><time>2026-04-19T15:26:18.997Z</time></trkpt><trkpt lat="44.76010338773312" lon="0.2048108537824567"><ele>78.66666666666666</ele><time>2026-04-19T15:26:19.997Z</time></trkpt><trkpt lat="44.7599268063868" lon="0.20484772312642424"><ele>79.0</ele><time>2026-04-19T15:26:20.997Z</time></trkpt><trkpt lat="44.75974586739235" lon="0.2048848296677846"><ele>79.0</ele><time>2026-04-19T15:26:21.997Z</time></trkpt><trkpt lat="44.75956436997339" lon="0.20492464451117148"><ele>79.0</ele><time>2026-04-19T15:26:22.997Z</time></trkpt><trkpt lat="44.75938200537803" lon="0.2049639872919416"><ele>79.0</ele><time>2026-04-19T15:26:23.997Z</time></trkpt><trkpt lat="44.759204445714445" lon="0.205006373837613"><ele>79.66666666666666</ele><time>2026-04-19T15:26:24.997Z</time></trkpt><trkpt lat="44.75902938900952" lon="0.20504758682834234"><ele>80.33333333333333</ele><time>2026-04-19T15:26:25.997Z</time></trkpt><trkpt lat="44.75885442109081" lon="0.2050870112530876"><ele>81.0</ele><time>2026-04-19T15:26:26.997Z</time></trkpt><trkpt lat="44.75868101258656" lon="0.20512040299375686"><ele>81.66666666666667</ele><time>2026-04-19T15:26:27.997Z</time></trkpt><trkpt lat="44.758509241050156" lon="0.2051439992175909"><ele>82.33333333333334</ele><time>2026-04-19T15:26:28.997Z</time></trkpt><trkpt lat="44.75833121053363" lon="0.20513650113136"><ele>83.0</ele><time>2026-04-19T15:26:29.997Z</time></trkpt><trkpt lat="44.75817841238785" lon="0.20508022037206514"><ele>83.0</ele><time>2026-04-19T15:26:30.997Z</time></trkpt><trkpt lat="44.75799606330413" lon="0.20499542485404948"><ele>83.0</ele><time>2026-04-19T15:26:31.997Z</time></trkpt><trkpt lat="44.757815764819554" lon="0.20489293008598194"><ele>83.0</ele><time>2026-04-19T15:26:32.997Z</time></trkpt><trkpt lat="44.75764287892626" lon="0.20478493094725275"><ele>85.0</ele><time>2026-04-19T15:26:33.997Z</time></trkpt><trkpt lat="44.757469296572424" lon="0.2046897138901179"><ele>87.0</ele><time>2026-04-19T15:26:34.997Z</time></trkpt><trkpt lat="44.75728960327979" lon="0.2045799292263739"><ele>89.0</ele><time>2026-04-19T15:26:35.997Z</time></trkpt><trkpt lat="44.757116120306854" lon="0.2044893867220449"><ele>89.0</ele><time>2026-04-19T15:26:36.997Z</time></trkpt><trkpt lat="44.756945863402954" lon="0.20440135399468107"><ele>89.0</ele><time>2026-04-19T15:26:37.997Z</time></trkpt><trkpt lat="44.7567794757449" lon="0.20431574915120945"><ele>89.0</ele><time>2026-04-19T15:26:38.997Z</time></trkpt><trkpt lat="44.75661149102388" lon="0.20423772909053883"><ele>90.33333333333334</ele><time>2026-04-19T15:26:39.997Z</time></trkpt><trkpt lat="44.75643806279005" lon="0.20416597472711936"><ele>91.66666666666667</ele><time>2026-04-19T15:26:40.997Z</time></trkpt><trkpt lat="44.7562597113177" lon="0.20410739457437513"><ele>93.0</ele><time>2026-04-19T15:26:41.997Z</time></trkpt><trkpt lat="44.75608886378438" lon="0.20406198116222912"><ele>93.66666666666667</ele><time>2026-04-19T15:26:42.997Z</time></trkpt><trkpt lat="44.755908190434916" lon="0.204001111658625"><ele>94.33333333333334</ele><time>2026-04-19T15:26:43.997Z</time></trkpt><trkpt lat="44.75572655592972" lon="0.20394822803568005"><ele>95.0</ele><time>2026-04-19T15:26:44.997Z</time></trkpt><trkpt lat="44.75554105448264" lon="0.20388797123874305"><ele>96.0</ele><time>2026-04-19T15:26:45.997Z</time></trkpt><trkpt lat="44.75535509336264" lon="0.20382970135258222"><ele>97.0</ele><time>2026-04-19T15:26:46.997Z</time></trkpt><trkpt lat="44.755167993373895" lon="0.2037540977909367"><ele>98.0</ele><time>2026-04-19T15:26:47.997Z</time></trkpt><trkpt lat="44.75498055121856" lon="0.2036830808318577"><ele>98.33333333333333</ele><time>2026-04-19T15:26:48.997Z</time></trkpt><trkpt lat="44.75479098739299" lon="0.20360950053871965"><ele>98.66666666666666</ele><time>2026-04-19T15:26:49.997Z</time></trkpt><trkpt lat="44.75460084639326" lon="0.20352786394250238"><ele>99.0</ele><time>2026-04-19T15:26:50.997Z</time></trkpt><trkpt lat="44.75440965518709" lon="0.20343580068967992"><ele>100.0</ele><time>2026-04-19T15:26:51.997Z</time></trkpt><trkpt lat="44.75421739138332" lon="0.2033360364399744"><ele>101.0</ele><time>2026-04-19T15:26:52.997Z</time></trkpt><trkpt lat="44.75402378756857" lon="0.20324551762033222"><ele>102.0</ele><time>2026-04-19T15:26:53.997Z</time></trkpt><trkpt lat="44.75382813488242" lon="0.20316440634008331"><ele>102.0</ele><time>2026-04-19T15:26:54.997Z</time></trkpt><trkpt lat="44.75362784906879" lon="0.20311702220970657"><ele>102.0</ele><time>2026-04-19T15:26:55.997Z</time></trkpt><trkpt lat="44.75341829085895" lon="0.20308141737345692"><ele>102.0</ele><time>2026-04-19T15:26:56.997Z</time></trkpt><trkpt lat="44.75320525644184" lon="0.20304630260459172"><ele>103.33333333333334</ele><time>2026-04-19T15:26:57.997Z</time></trkpt><trkpt lat="44.75299494834102" lon="0.20300515633502078"><ele>104.66666666666667</ele><time>2026-04-19T15:26:58.997Z</time></trkpt><trkpt lat="44.75278629232837" lon="0.20295337558315152"><ele>106.0</ele><time>2026-04-19T15:26:59.997Z</time></trkpt><trkpt lat="44.752582378782414" lon="0.20290650834130083"><ele>107.0</ele><time>2026-04-19T15:27:00.997Z</time></trkpt><trkpt lat="44.75239176123206" lon="0.20286655403249002"><ele>108.0</ele><time>2026-04-19T15:27:01.997Z</time></trkpt><trkpt lat="44.752191748488464" lon="0.20281717632956275"><ele>109.0</ele><time>2026-04-19T15:27:02.997Z</time></trkpt><trkpt lat="44.752002667840756" lon="0.20274678533300106"><ele>110.33333333333334</ele><time>2026-04-19T15:27:03.997Z</time></trkpt><trkpt lat="44.751808485456706" lon="0.20265634942080252"><ele>111.66666666666666</ele><time>2026-04-19T15:27:04.998Z</time></trkpt><trkpt lat="44.75163227608654" lon="0.20251513978434943"><ele>113.0</ele><time>2026-04-19T15:27:05.998Z</time></trkpt><trkpt lat="44.751454005186005" lon="0.20238384131805393"><ele>113.0</ele><time>2026-04-19T15:27:06.998Z</time></trkpt><trkpt lat="44.751278316761535" lon="0.20224438845081558"><ele>113.0</ele><time>2026-04-19T15:27:07.998Z</time></trkpt><trkpt lat="44.751094827672894" lon="0.20211787876841275"><ele>113.0</ele><time>2026-04-19T15:27:08.998Z</time></trkpt><trkpt lat="44.75092296495697" lon="0.20197153538670246"><ele>113.66666666666666</ele><time>2026-04-19T15:27:09.998Z</time></trkpt><trkpt lat="44.75073720372369" lon="0.20183417056861064"><ele>114.33333333333334</ele><time>2026-04-19T15:27:10.998Z</time></trkpt><trkpt lat="44.750538047215706" lon="0.20169434502060957"><ele>115.0</ele><time>2026-04-19T15:27:11.998Z</time></trkpt><trkpt lat="44.7503586381249" lon="0.2015448271145486"><ele>113.0</ele><time>2026-04-19T15:27:12.998Z</time></trkpt><trkpt lat="44.75016630075615" lon="0.2014156863326443"><ele>111.0</ele><time>2026-04-19T15:27:13.998Z</time></trkpt><trkpt lat="44.74996486034661" lon="0.20128102702634576"><ele>109.0</ele><time>2026-04-19T15:27:14.998Z</time></trkpt><trkpt lat="44.74976703364174" lon="0.20117286095792788"><ele>109.0</ele><time>2026-04-19T15:27:15.998Z</time></trkpt><trkpt lat="44.74956606308199" lon="0.20100269779426347"><ele>109.0</ele><time>2026-04-19T15:27:16.998Z</time></trkpt><trkpt lat="44.74936770282135" lon="0.20086439682198637"><ele>110.0</ele><time>2026-04-19T15:27:17.998Z</time></trkpt><trkpt lat="44.749179214375715" lon="0.20073239048923913"><ele>111.0</ele><time>2026-04-19T15:27:18.998Z</time></trkpt><trkpt lat="44.74898303143277" lon="0.2006035875433241"><ele>112.0</ele><time>2026-04-19T15:27:19.998Z</time></trkpt><trkpt lat="44.748790683315626" lon="0.20047601206940513"><ele>112.66666666666667</ele><time>2026-04-19T15:27:20.998Z</time></trkpt><trkpt lat="44.7486048974457" lon="0.20034902830782964"><ele>113.33333333333334</ele><time>2026-04-19T15:27:21.998Z</time></trkpt><trkpt lat="44.74842044891484" lon="0.20022328288124694"><ele>114.0</ele><time>2026-04-19T15:27:22.998Z</time></trkpt><trkpt lat="44.7482371424798" lon="0.20009771210939478"><ele>114.33333333333334</ele><time>2026-04-19T15:27:23.998Z</time></trkpt><trkpt lat="44.74805856115984" lon="0.19997527263571066"><ele>114.66666666666667</ele><time>2026-04-19T15:27:24.998Z</time></trkpt><trkpt lat="44.74787517261272" lon="0.19985312077299833"><ele>115.0</ele><time>2026-04-19T15:27:25.998Z</time></trkpt><trkpt lat="44.74769456786252" lon="0.1997308865110966"><ele>117.33333333333334</ele><time>2026-04-19T15:27:26.998Z</time></trkpt><trkpt lat="44.747516525636556" lon="0.19960534943605432"><ele>119.66666666666666</ele><time>2026-04-19T15:27:27.998Z</time></trkpt><trkpt lat="44.747341226388876" lon="0.19947880817318825"><ele>122.0</ele><time>2026-04-19T15:27:28.998Z</time></trkpt><trkpt lat="44.74716824109642" lon="0.19935438701055244"><ele>122.0</ele><time>2026-04-19T15:27:29.998Z</time></trkpt><trkpt lat="44.74699281466944" lon="0.19923351468493553"><ele>122.0</ele><time>2026-04-19T15:27:30.998Z</time></trkpt><trkpt lat="44.74681744519387" lon="0.19911257886194111"><ele>122.0</ele><time>2026-04-19T15:27:31.998Z</time></trkpt><trkpt lat="44.746642070865065" lon="0.19898221979884703"><ele>121.0</ele><time>2026-04-19T15:27:32.998Z</time></trkpt><trkpt lat="44.746463463128194" lon="0.19884540283723529"><ele>120.0</ele><time>2026-04-19T15:27:33.998Z</time></trkpt><trkpt lat="44.74627893918867" lon="0.1987042375248239"><ele>119.0</ele><time>2026-04-19T15:27:34.998Z</time></trkpt><trkpt lat="44.746095642520146" lon="0.19856540261814912"><ele>118.33333333333333</ele><time>2026-04-19T15:27:35.998Z</time></trkpt><trkpt lat="44.74591314832304" lon="0.19842751296296152"><ele>117.66666666666666</ele><time>2026-04-19T15:27:36.998Z</time></trkpt><trkpt lat="44.74573227954733" lon="0.19829197898093112"><ele>117.0</ele><time>2026-04-19T15:27:37.998Z</time></trkpt><trkpt lat="44.74555453492807" lon="0.19815786890275255"><ele>115.33333333333334</ele><time>2026-04-19T15:27:38.998Z</time></trkpt><trkpt lat="44.74538051490674" lon="0.1980255326021359"><ele>113.66666666666667</ele><time>2026-04-19T15:27:39.998Z</time></trkpt><trkpt lat="44.74521092637536" lon="0.19789703499837813"><ele>112.0</ele><time>2026-04-19T15:27:40.998Z</time></trkpt><trkpt lat="44.745043463631454" lon="0.1977709614366452"><ele>111.66666666666667</ele><time>2026-04-19T15:27:41.998Z</time></trkpt><trkpt lat="44.74487950828564" lon="0.19765143983155328"><ele>111.33333333333334</ele><time>2026-04-19T15:27:42.998Z</time></trkpt><trkpt lat="44.74472757907617" lon="0.19751702861278275"><ele>111.0</ele><time>2026-04-19T15:27:43.998Z</time></trkpt><trkpt lat="44.744581616394" lon="0.19737646212011"><ele>110.33333333333334</ele><time>2026-04-19T15:27:44.998Z</time></trkpt><trkpt lat="44.744441995384896" lon="0.19722931160089394"><ele>109.66666666666667</ele><time>2026-04-19T15:27:45.998Z</time></trkpt><trkpt lat="44.744294448781034" lon="0.1970849530631255"><ele>109.0</ele><time>2026-04-19T15:27:46.998Z</time></trkpt><trkpt lat="44.74413566567927" lon="0.19695844192471362"><ele>106.33333333333334</ele><time>2026-04-19T15:27:47.998Z</time></trkpt><trkpt lat="44.74396416408937" lon="0.1968524204631196"><ele>103.66666666666666</ele><time>2026-04-19T15:27:48.998Z</time></trkpt><trkpt lat="44.743777289075" lon="0.19678047791986367"><ele>101.0</ele><time>2026-04-19T15:27:49.998Z</time></trkpt><trkpt lat="44.74358586267023" lon="0.19671651811744575"><ele>99.33333333333333</ele><time>2026-04-19T15:27:50.998Z</time></trkpt><trkpt lat="44.743386019319" lon="0.19667664974717375"><ele>97.66666666666666</ele><time>2026-04-19T15:27:51.999Z</time></trkpt><trkpt lat="44.7431850854194" lon="0.19667002812268206"><ele>96.0</ele><time>2026-04-19T15:27:52.999Z</time></trkpt><trkpt lat="44.74300305788809" lon="0.19669002582251705"><ele>96.0</ele><time>2026-04-19T15:27:53.999Z</time></trkpt><trkpt lat="44.74283276294126" lon="0.19670435722433946"><ele>96.0</ele><time>2026-04-19T15:27:54.999Z</time></trkpt><trkpt lat="44.74267341617086" lon="0.19667708153123073"><ele>96.0</ele><time>2026-04-19T15:27:55.999Z</time></trkpt><trkpt lat="44.74251630254834" lon="0.19660566813412741"><ele>95.33333333333333</ele><time>2026-04-19T15:27:56.999Z</time></trkpt><trkpt lat="44.74237054422615" lon="0.19650511956762354"><ele>94.66666666666666</ele><time>2026-04-19T15:27:57.999Z</time></trkpt><trkpt lat="44.74223312975981" lon="0.19637826376606665"><ele>94.0</ele><time>2026-04-19T15:27:58.999Z</time></trkpt><trkpt lat="44.74210573231093" lon="0.1962175889609331"><ele>94.0</ele><time>2026-04-19T15:27:59.999Z</time></trkpt><trkpt lat="44.7419586722332" lon="0.1960281732340169"><ele>94.0</ele><time>2026-04-19T15:28:00.996Z</time></trkpt><trkpt lat="44.74181152973099" lon="0.19584145149525534"><ele>94.0</ele><time>2026-04-19T15:28:01.996Z</time></trkpt><trkpt lat="44.74166974863841" lon="0.19567737143232505"><ele>92.33333333333333</ele><time>2026-04-19T15:28:02.996Z</time></trkpt><trkpt lat="44.74153471435075" lon="0.1955197637545374"><ele>90.66666666666667</ele><time>2026-04-19T15:28:03.996Z</time></trkpt><trkpt lat="44.741400017881375" lon="0.19536017507423295"><ele>89.0</ele><time>2026-04-19T15:28:04.996Z</time></trkpt><trkpt lat="44.74127356954662" lon="0.19521532348861179"><ele>89.0</ele><time>2026-04-19T15:28:05.996Z</time></trkpt><trkpt lat="44.74114352958855" lon="0.19507340393017938"><ele>89.0</ele><time>2026-04-19T15:28:06.996Z</time></trkpt><trkpt lat="44.74102685225314" lon="0.1949396927174932"><ele>89.0</ele><time>2026-04-19T15:28:07.996Z</time></trkpt><trkpt lat="44.740903912924125" lon="0.19480843492695465"><ele>89.0</ele><time>2026-04-19T15:28:08.996Z</time></trkpt><trkpt lat="44.74079209199141" lon="0.19466808677296657"><ele>89.0</ele><time>2026-04-19T15:28:09.996Z</time></trkpt><trkpt lat="44.74068130412379" lon="0.19453305716273855"><ele>89.0</ele><time>2026-04-19T15:28:10.995Z</time></trkpt><trkpt lat="44.740561582720986" lon="0.19441512559858468"><ele>89.0</ele><time>2026-04-19T15:28:11.995Z</time></trkpt><trkpt lat="44.740403763994955" lon="0.19431969446059866"><ele>89.33333333333334</ele><time>2026-04-19T15:28:12.996Z</time></trkpt><trkpt lat="44.74019808773859" lon="0.19426145918720766"><ele>89.66666666666667</ele><time>2026-04-19T15:28:13.996Z</time></trkpt><trkpt lat="44.739997851561455" lon="0.194224559693676"><ele>90.0</ele><time>2026-04-19T15:28:14.996Z</time></trkpt><trkpt lat="44.7398064766847" lon="0.19419268548491667"><ele>90.0</ele><time>2026-04-19T15:28:15.996Z</time></trkpt><trkpt lat="44.739616343049576" lon="0.19413369798528482"><ele>90.0</ele><time>2026-04-19T15:28:16.996Z</time></trkpt><trkpt lat="44.73942812253413" lon="0.19404644896078407"><ele>90.0</ele><time>2026-04-19T15:28:17.996Z</time></trkpt><trkpt lat="44.739245710215314" lon="0.1939548140456544"><ele>89.33333333333333</ele><time>2026-04-19T15:28:18.996Z</time></trkpt><trkpt lat="44.739084555468445" lon="0.19386290447890248"><ele>88.66666666666666</ele><time>2026-04-19T15:28:19.996Z</time></trkpt><trkpt lat="44.73893385476978" lon="0.19374651635057152"><ele>88.0</ele><time>2026-04-19T15:28:20.996Z</time></trkpt><trkpt lat="44.73879138985253" lon="0.19361289819512711"><ele>88.0</ele><time>2026-04-19T15:28:21.996Z</time></trkpt><trkpt lat="44.738665534804525" lon="0.19347311087551908"><ele>88.0</ele><time>2026-04-19T15:28:22.996Z</time></trkpt><trkpt lat="44.73855120481755" lon="0.1933228814993202"><ele>88.0</ele><time>2026-04-19T15:28:23.996Z</time></trkpt><trkpt lat="44.738451254317226" lon="0.1931719616596271"><ele>88.25</ele><time>2026-04-19T15:28:24.996Z</time></trkpt><trkpt lat="44.73835497813377" lon="0.19302034366797263"><ele>88.5</ele><time>2026-04-19T15:28:25.996Z</time></trkpt><trkpt lat="44.73826099310958" lon="0.19285512408994263"><ele>88.75</ele><time>2026-04-19T15:28:26.996Z</time></trkpt><trkpt lat="44.73817216728833" lon="0.1926821606894434"><ele>89.0</ele><time>2026-04-19T15:28:27.996Z</time></trkpt><trkpt lat="44.73808926425407" lon="0.1925023825759463"><ele>90.25</ele><time>2026-04-19T15:28:28.996Z</time></trkpt><trkpt lat="44.73801297659538" lon="0.19232940926376593"><ele>91.5</ele><time>2026-04-19T15:28:29.996Z</time></trkpt><trkpt lat="44.73793489013061" lon="0.1921545539973517"><ele>92.75</ele><time>2026-04-19T15:28:30.996Z</time></trkpt><trkpt lat="44.73785631700129" lon="0.19198877528379335"><ele>94.0</ele><time>2026-04-19T15:28:31.996Z</time></trkpt><trkpt lat="44.737763403231384" lon="0.19184421986723735"><ele>92.66666666666666</ele><time>2026-04-19T15:28:32.996Z</time></trkpt><trkpt lat="44.73765372768308" lon="0.19170688721809392"><ele>91.33333333333333</ele><time>2026-04-19T15:28:33.996Z</time></trkpt><trkpt lat="44.73753133900311" lon="0.19157925932857772"><ele>90.0</ele><time>2026-04-19T15:28:34.996Z</time></trkpt><trkpt lat="44.73739102088115" lon="0.19147578620799038"><ele>90.0</ele><time>2026-04-19T15:28:35.996Z</time></trkpt><trkpt lat="44.73725337178656" lon="0.1913720600065993"><ele>90.0</ele><time>2026-04-19T15:28:36.996Z</time></trkpt><trkpt lat="44.73712376138147" lon="0.19125878566528307"><ele>90.0</ele><time>2026-04-19T15:28:37.996Z</time></trkpt><trkpt lat="44.73701000261709" lon="0.191127513916224"><ele>90.0</ele><time>2026-04-19T15:28:38.996Z</time></trkpt><trkpt lat="44.73690677987684" lon="0.190987852820451"><ele>90.0</ele><time>2026-04-19T15:28:39.996Z</time></trkpt><trkpt lat="44.736842726464985" lon="0.1908311998678867"><ele>90.0</ele><time>2026-04-19T15:28:40.996Z</time></trkpt><trkpt lat="44.736789434218785" lon="0.19064218040590405"><ele>90.0</ele><time>2026-04-19T15:28:41.996Z</time></trkpt><trkpt lat="44.736800722051335" lon="0.19041829463022183"><ele>90.33333333333333</ele><time>2026-04-19T15:28:42.996Z</time></trkpt><trkpt lat="44.736888365426154" lon="0.19021540774635304"><ele>90.66666666666666</ele><time>2026-04-19T15:28:43.996Z</time></trkpt><trkpt lat="44.736943760074794" lon="0.190012533731495"><ele>91.0</ele><time>2026-04-19T15:28:44.996Z</time></trkpt><trkpt lat="44.73699610324745" lon="0.18980813107911637"><ele>93.0</ele><time>2026-04-19T15:28:45.996Z</time></trkpt><trkpt lat="44.73700832036729" lon="0.18960064072595703"><ele>95.0</ele><time>2026-04-19T15:28:46.996Z</time></trkpt><trkpt lat="44.737011726287854" lon="0.1893759747086952"><ele>97.0</ele><time>2026-04-19T15:28:47.996Z</time></trkpt><trkpt lat="44.736978196119786" lon="0.18915752198518396"><ele>98.0</ele><time>2026-04-19T15:28:48.996Z</time></trkpt><trkpt lat="44.73690529162422" lon="0.18894083949409674"><ele>99.0</ele><time>2026-04-19T15:28:49.997Z</time></trkpt><trkpt lat="44.73684776908921" lon="0.1887285362287952"><ele>100.0</ele><time>2026-04-19T15:28:50.997Z</time></trkpt><trkpt lat="44.73678706536257" lon="0.18853427124669747"><ele>101.66666666666667</ele><time>2026-04-19T15:28:51.997Z</time></trkpt><trkpt lat="44.736713511429386" lon="0.18831869679799956"><ele>103.33333333333334</ele><time>2026-04-19T15:28:52.997Z</time></trkpt><trkpt lat="44.7366606182913" lon="0.18811228531433574"><ele>105.0</ele><time>2026-04-19T15:28:53.997Z</time></trkpt><trkpt lat="44.73659678826883" lon="0.18790505533409593"><ele>106.33333333333334</ele><time>2026-04-19T15:28:54.997Z</time></trkpt><trkpt lat="44.736531676876794" lon="0.18769366524871284"><ele>107.66666666666667</ele><time>2026-04-19T15:28:55.997Z</time></trkpt><trkpt lat="44.73646609478422" lon="0.18748074707147655"><ele>109.0</ele><time>2026-04-19T15:28:56.997Z</time></trkpt><trkpt lat="44.736400333922724" lon="0.18726808332769374"><ele>110.33333333333334</ele><time>2026-04-19T15:28:57.997Z</time></trkpt><trkpt lat="44.73633130111707" lon="0.18704683919515178"><ele>111.66666666666666</ele><time>2026-04-19T15:28:58.997Z</time></trkpt><trkpt lat="44.73626054371953" lon="0.18682006788044678"><ele>113.0</ele><time>2026-04-19T15:28:59.997Z</time></trkpt><trkpt lat="44.73619477316689" lon="0.1866092315937601"><ele>113.0</ele><time>2026-04-19T15:29:00.997Z</time></trkpt><trkpt lat="44.73612188299804" lon="0.18637555058936714"><ele>113.0</ele><time>2026-04-19T15:29:01.997Z</time></trkpt><trkpt lat="44.73605381021597" lon="0.1861561899630357"><ele>113.0</ele><time>2026-04-19T15:29:02.997Z</time></trkpt><trkpt lat="44.73598644587523" lon="0.18593400576712893"><ele>113.0</ele><time>2026-04-19T15:29:03.997Z</time></trkpt><trkpt lat="44.73591772585299" lon="0.1857073503031358"><ele>113.0</ele><time>2026-04-19T15:29:04.997Z</time></trkpt><trkpt lat="44.735847670980704" lon="0.185476292145835"><ele>113.0</ele><time>2026-04-19T15:29:05.997Z</time></trkpt><trkpt lat="44.73577858429352" lon="0.1852484272810374"><ele>113.0</ele><time>2026-04-19T15:29:06.997Z</time></trkpt><trkpt lat="44.73571098939652" lon="0.18502846952456642"><ele>113.0</ele><time>2026-04-19T15:29:07.997Z</time></trkpt><trkpt lat="44.73564140652259" lon="0.18481009952912697"><ele>113.0</ele><time>2026-04-19T15:29:08.997Z</time></trkpt><trkpt lat="44.73557477963469" lon="0.1846010062821709"><ele>113.33333333333333</ele><time>2026-04-19T15:29:09.997Z</time></trkpt><trkpt lat="44.73550916547378" lon="0.1843897888952956"><ele>113.66666666666666</ele><time>2026-04-19T15:29:10.997Z</time></trkpt><trkpt lat="44.735446340095294" lon="0.18418865557923092"><ele>114.0</ele><time>2026-04-19T15:29:11.997Z</time></trkpt><trkpt lat="44.73538009964795" lon="0.18398747624216324"><ele>114.33333333333334</ele><time>2026-04-19T15:29:12.997Z</time></trkpt><trkpt lat="44.73530900435052" lon="0.183792157892842"><ele>114.66666666666667</ele><time>2026-04-19T15:29:13.997Z</time></trkpt><trkpt lat="44.73523378769957" lon="0.18360130002927982"><ele>115.0</ele><time>2026-04-19T15:29:14.997Z</time></trkpt><trkpt lat="44.73516411994459" lon="0.18343160412549844"><ele>115.25</ele><time>2026-04-19T15:29:15.997Z</time></trkpt><trkpt lat="44.735085018086934" lon="0.18328181532685603"><ele>115.5</ele><time>2026-04-19T15:29:16.997Z</time></trkpt><trkpt lat="44.735014462895755" lon="0.18314847591441735"><ele>115.75</ele><time>2026-04-19T15:29:17.997Z</time></trkpt><trkpt lat="44.73494643536342" lon="0.18301908736313593"><ele>116.0</ele><time>2026-04-19T15:29:18.997Z</time></trkpt><trkpt lat="44.73488720382401" lon="0.1829080715712226"><ele>116.25</ele><time>2026-04-19T15:29:19.997Z</time></trkpt><trkpt lat="44.734837000555224" lon="0.18278756875981556"><ele>116.5</ele><time>2026-04-19T15:29:20.997Z</time></trkpt><trkpt lat="44.734783563276935" lon="0.18270294694534595"><ele>116.75</ele><time>2026-04-19T15:29:21.997Z</time></trkpt><trkpt lat="44.73486793287149" lon="0.18249671897633682"><ele>117.0</ele><time>2026-04-19T15:29:22.997Z</time></trkpt><trkpt lat="44.73487847648425" lon="0.18230350093842781"><ele>117.66666666666666</ele><time>2026-04-19T15:29:23.997Z</time></trkpt><trkpt lat="44.734891041315635" lon="0.18207324263033534"><ele>118.33333333333333</ele><time>2026-04-19T15:29:24.997Z</time></trkpt><trkpt lat="44.73487860693319" lon="0.1818317887606344"><ele>119.0</ele><time>2026-04-19T15:29:25.997Z</time></trkpt><trkpt lat="44.734892543574105" lon="0.18159885872423734"><ele>118.66666666666666</ele><time>2026-04-19T15:29:26.997Z</time></trkpt><trkpt lat="44.73490378408349" lon="0.1813496500897322"><ele>118.33333333333334</ele><time>2026-04-19T15:29:27.997Z</time></trkpt><trkpt lat="44.73491928721174" lon="0.1810897605715404"><ele>118.0</ele><time>2026-04-19T15:29:28.997Z</time></trkpt><trkpt lat="44.73496758160018" lon="0.18084039521463705"><ele>117.66666666666667</ele><time>2026-04-19T15:29:29.997Z</time></trkpt><trkpt lat="44.73498277203419" lon="0.1805919019685357"><ele>117.33333333333334</ele><time>2026-04-19T15:29:30.997Z</time></trkpt><trkpt lat="44.734997892607346" lon="0.18032889770868607"><ele>117.0</ele><time>2026-04-19T15:29:31.997Z</time></trkpt><trkpt lat="44.73501319065777" lon="0.180056876334389"><ele>117.33333333333334</ele><time>2026-04-19T15:29:32.997Z</time></trkpt><trkpt lat="44.735028163900886" lon="0.17979063048360316"><ele>117.66666666666667</ele><time>2026-04-19T15:29:33.997Z</time></trkpt><trkpt lat="44.73504356403695" lon="0.1795246866473152"><ele>118.0</ele><time>2026-04-19T15:29:34.997Z</time></trkpt><trkpt lat="44.73505981264707" lon="0.17925145789499075"><ele>118.33333333333334</ele><time>2026-04-19T15:29:35.997Z</time></trkpt><trkpt lat="44.735075740493144" lon="0.17898362297625936"><ele>118.66666666666666</ele><time>2026-04-19T15:29:36.998Z</time></trkpt><trkpt lat="44.735090490516164" lon="0.17873329256767967"><ele>119.0</ele><time>2026-04-19T15:29:37.998Z</time></trkpt><trkpt lat="44.735104495273895" lon="0.17849344021380534"><ele>119.0</ele><time>2026-04-19T15:29:38.998Z</time></trkpt><trkpt lat="44.73511715276304" lon="0.17827666180767954"><ele>119.0</ele><time>2026-04-19T15:29:39.998Z</time></trkpt><trkpt lat="44.73512796657433" lon="0.17808812645409866"><ele>119.0</ele><time>2026-04-19T15:29:40.998Z</time></trkpt><trkpt lat="44.735137316592834" lon="0.17791750656395702"><ele>119.0</ele><time>2026-04-19T15:29:41.998Z</time></trkpt><trkpt lat="44.735144721755056" lon="0.17778237655647164"><ele>119.49999999999999</ele><time>2026-04-19T15:29:42.998Z</time></trkpt><trkpt lat="44.73515051419079" lon="0.17767667567283119"><ele>120.0</ele><time>2026-04-19T15:29:43.998Z</time></trkpt><trkpt lat="44.73515560417446" lon="0.17758256756017513"><ele>120.5</ele><time>2026-04-19T15:29:44.998Z</time></trkpt><trkpt lat="44.73517295600936" lon="0.1774822820507792"><ele>121.0</ele><time>2026-04-19T15:29:46.998Z</time></trkpt><trkpt lat="44.73518296764475" lon="0.17738914106524906"><ele>121.49999999999999</ele><time>2026-04-19T15:29:48.998Z</time></trkpt><trkpt lat="44.73526531744513" lon="0.1773451134433052"><ele>122.0</ele><time>2026-04-19T15:29:49.998Z</time></trkpt><trkpt lat="44.735344930334364" lon="0.17731568900501535"><ele>122.0</ele><time>2026-04-19T15:29:50.998Z</time></trkpt><trkpt lat="44.735431753574964" lon="0.17723575037891867"><ele>122.0</ele><time>2026-04-19T15:29:51.998Z</time></trkpt><trkpt lat="44.7355342933144" lon="0.17716973468524236"><ele>122.0</ele><time>2026-04-19T15:29:52.998Z</time></trkpt><trkpt lat="44.73563829093238" lon="0.17708487986448007"><ele>122.0</ele><time>2026-04-19T15:29:53.998Z</time></trkpt><trkpt lat="44.735770729008856" lon="0.17698670041220524"><ele>122.0</ele><time>2026-04-19T15:29:54.998Z</time></trkpt><trkpt lat="44.73591525910544" lon="0.17687289937767678"><ele>122.0</ele><time>2026-04-19T15:29:55.998Z</time></trkpt><trkpt lat="44.736075298448284" lon="0.17678063037947328"><ele>122.0</ele><time>2026-04-19T15:29:56.998Z</time></trkpt><trkpt lat="44.736227710679614" lon="0.17665086430167123"><ele>123.0</ele><time>2026-04-19T15:29:57.998Z</time></trkpt><trkpt lat="44.736394659095765" lon="0.17651075993234333"><ele>124.0</ele><time>2026-04-19T15:29:58.998Z</time></trkpt><trkpt lat="44.736610607927" lon="0.17636712612327043"><ele>125.0</ele><time>2026-04-19T15:29:59.998Z</time></trkpt><trkpt lat="44.73681028618083" lon="0.17618665929541655"><ele>124.5</ele><time>2026-04-19T15:30:00.998Z</time></trkpt><trkpt lat="44.737008260457465" lon="0.17599800590824535"><ele>124.0</ele><time>2026-04-19T15:30:01.998Z</time></trkpt><trkpt lat="44.73721354910872" lon="0.17580914350337937"><ele>124.5</ele><time>2026-04-19T15:30:02.998Z</time></trkpt><trkpt lat="44.737409153416806" lon="0.17562769986149676"><ele>125.0</ele><time>2026-04-19T15:30:03.998Z</time></trkpt><trkpt lat="44.737608139938075" lon="0.17546220661568943"><ele>124.0</ele><time>2026-04-19T15:30:04.998Z</time></trkpt><trkpt lat="44.737781375189684" lon="0.1752757178038431"><ele>123.0</ele><time>2026-04-19T15:30:05.998Z</time></trkpt><trkpt lat="44.73795427749553" lon="0.17510269562637296"><ele>122.0</ele><time>2026-04-19T15:30:06.996Z</time></trkpt><trkpt lat="44.73810723485497" lon="0.17489370043482302"><ele>121.33333333333333</ele><time>2026-04-19T15:30:07.995Z</time></trkpt><trkpt lat="44.738245354818595" lon="0.17466905487796924"><ele>120.66666666666666</ele><time>2026-04-19T15:30:08.996Z</time></trkpt><trkpt lat="44.738353083533994" lon="0.17441040096517366"><ele>120.0</ele><time>2026-04-19T15:30:09.996Z</time></trkpt><trkpt lat="44.73846155127946" lon="0.17414550846895058"><ele>120.33333333333334</ele><time>2026-04-19T15:30:10.995Z</time></trkpt><trkpt lat="44.73855603514448" lon="0.17388252518579506"><ele>120.66666666666667</ele><time>2026-04-19T15:30:11.995Z</time></trkpt><trkpt lat="44.73866153653754" lon="0.17361866944203816"><ele>121.0</ele><time>2026-04-19T15:30:12.995Z</time></trkpt><trkpt lat="44.738782467702904" lon="0.17336531624402202"><ele>120.66666666666667</ele><time>2026-04-19T15:30:13.995Z</time></trkpt><trkpt lat="44.738877756546955" lon="0.17308977031097397"><ele>120.33333333333334</ele><time>2026-04-19T15:30:14.995Z</time></trkpt><trkpt lat="44.73899011009455" lon="0.17283115053136536"><ele>120.0</ele><time>2026-04-19T15:30:15.995Z</time></trkpt><trkpt lat="44.73909833568939" lon="0.17257704070262775"><ele>120.33333333333334</ele><time>2026-04-19T15:30:16.995Z</time></trkpt><trkpt lat="44.73920455786954" lon="0.17232732833357808"><ele>120.66666666666667</ele><time>2026-04-19T15:30:17.995Z</time></trkpt><trkpt lat="44.73930895783793" lon="0.1720776787551968"><ele>121.0</ele><time>2026-04-19T15:30:18.995Z</time></trkpt><trkpt lat="44.73942229463548" lon="0.17183612393456987"><ele>121.33333333333334</ele><time>2026-04-19T15:30:19.995Z</time></trkpt><trkpt lat="44.73953140368481" lon="0.17159785141176445"><ele>121.66666666666666</ele><time>2026-04-19T15:30:20.995Z</time></trkpt><trkpt lat="44.73961743157218" lon="0.17135244732327765"><ele>122.0</ele><time>2026-04-19T15:30:21.995Z</time></trkpt><trkpt lat="44.73966021121749" lon="0.1710863499870651"><ele>122.0</ele><time>2026-04-19T15:30:22.995Z</time></trkpt><trkpt lat="44.739712098676776" lon="0.1708194984982152"><ele>122.0</ele><time>2026-04-19T15:30:23.995Z</time></trkpt><trkpt lat="44.739764734015196" lon="0.1705353317765091"><ele>122.0</ele><time>2026-04-19T15:30:24.995Z</time></trkpt><trkpt lat="44.739751662736396" lon="0.1702386212881945"><ele>122.33333333333333</ele><time>2026-04-19T15:30:25.995Z</time></trkpt><trkpt lat="44.739744800335515" lon="0.16992531036128566"><ele>122.66666666666666</ele><time>2026-04-19T15:30:26.995Z</time></trkpt><trkpt lat="44.73972147760466" lon="0.1696245615822905"><ele>123.0</ele><time>2026-04-19T15:30:27.995Z</time></trkpt><trkpt lat="44.73970205939967" lon="0.1693278175004107"><ele>123.0</ele><time>2026-04-19T15:30:28.995Z</time></trkpt><trkpt lat="44.739687816468326" lon="0.16902964678305862"><ele>123.0</ele><time>2026-04-19T15:30:29.995Z</time></trkpt><trkpt lat="44.739677207749715" lon="0.16872655658507418"><ele>123.0</ele><time>2026-04-19T15:30:30.995Z</time></trkpt><trkpt lat="44.7396690487908" lon="0.16841889460185613"><ele>120.0</ele><time>2026-04-19T15:30:31.995Z</time></trkpt><trkpt lat="44.73965648695855" lon="0.16809522953995168"><ele>117.0</ele><time>2026-04-19T15:30:32.995Z</time></trkpt><trkpt lat="44.73965354902484" lon="0.1677788494669564"><ele>117.0</ele><time>2026-04-19T15:30:33.995Z</time></trkpt><trkpt lat="44.73964638699414" lon="0.1674627912255062"><ele>117.0</ele><time>2026-04-19T15:30:34.995Z</time></trkpt><trkpt lat="44.739640599712295" lon="0.1671529382470158"><ele>117.0</ele><time>2026-04-19T15:30:35.995Z</time></trkpt><trkpt lat="44.73962945356919" lon="0.1668496049307309"><ele>116.66666666666666</ele><time>2026-04-19T15:30:36.995Z</time></trkpt><trkpt lat="44.73961929668145" lon="0.16654495864784202"><ele>116.33333333333333</ele><time>2026-04-19T15:30:37.995Z</time></trkpt><trkpt lat="44.739606146415326" lon="0.16623910867150943"><ele>116.0</ele><time>2026-04-19T15:30:38.995Z</time></trkpt><trkpt lat="44.73959666684653" lon="0.16594089029350595"><ele>116.0</ele><time>2026-04-19T15:30:39.995Z</time></trkpt><trkpt lat="44.73958998292018" lon="0.16564119023082766"><ele>116.0</ele><time>2026-04-19T15:30:40.995Z</time></trkpt><trkpt lat="44.73958090293425" lon="0.16534190270802057"><ele>116.0</ele><time>2026-04-19T15:30:41.995Z</time></trkpt><trkpt lat="44.7395733588857" lon="0.1650397655639706"><ele>115.33333333333333</ele><time>2026-04-19T15:30:42.995Z</time></trkpt><trkpt lat="44.73958538577718" lon="0.16473795787705878"><ele>114.66666666666666</ele><time>2026-04-19T15:30:43.995Z</time></trkpt><trkpt lat="44.73961434634171" lon="0.16444182439817545"><ele>114.0</ele><time>2026-04-19T15:30:44.995Z</time></trkpt><trkpt lat="44.73966541358545" lon="0.16413727709494547"><ele>113.66666666666666</ele><time>2026-04-19T15:30:45.995Z</time></trkpt><trkpt lat="44.73967785278849" lon="0.16384179316855946"><ele>113.33333333333333</ele><time>2026-04-19T15:30:46.995Z</time></trkpt><trkpt lat="44.73976683662009" lon="0.16357582862381134"><ele>113.0</ele><time>2026-04-19T15:30:47.996Z</time></trkpt><trkpt lat="44.739821683838734" lon="0.1633141003971103"><ele>112.33333333333333</ele><time>2026-04-19T15:30:48.996Z</time></trkpt><trkpt lat="44.7398925882242" lon="0.16307938321464457"><ele>111.66666666666666</ele><time>2026-04-19T15:30:49.996Z</time></trkpt><trkpt lat="44.7399543742454" lon="0.16286071174413877"><ele>111.0</ele><time>2026-04-19T15:30:50.996Z</time></trkpt><trkpt lat="44.74001374782822" lon="0.16265417874197327"><ele>111.0</ele><time>2026-04-19T15:30:51.996Z</time></trkpt><trkpt lat="44.74007173586853" lon="0.16245063693999767"><ele>111.0</ele><time>2026-04-19T15:30:52.996Z</time></trkpt><trkpt lat="44.74012475191461" lon="0.16226315352500748"><ele>111.0</ele><time>2026-04-19T15:30:53.996Z</time></trkpt><trkpt lat="44.740173383501244" lon="0.1620841601763131"><ele>111.0</ele><time>2026-04-19T15:30:54.996Z</time></trkpt><trkpt lat="44.74021665719122" lon="0.16191578796484588"><ele>111.0</ele><time>2026-04-19T15:30:55.996Z</time></trkpt><trkpt lat="44.74025669911789" lon="0.16176307896540276"><ele>111.0</ele><time>2026-04-19T15:30:56.996Z</time></trkpt><trkpt lat="44.74029944922651" lon="0.1616160892943213"><ele>111.0</ele><time>2026-04-19T15:30:57.996Z</time></trkpt><trkpt lat="44.7403332296473" lon="0.16149323362104023"><ele>111.0</ele><time>2026-04-19T15:30:58.996Z</time></trkpt><trkpt lat="44.7403666891665" lon="0.1613765365505331"><ele>111.0</ele><time>2026-04-19T15:30:59.996Z</time></trkpt><trkpt lat="44.740395709932166" lon="0.16127993789040287"><ele>109.0</ele><time>2026-04-19T15:31:00.996Z</time></trkpt><trkpt lat="44.740421957426555" lon="0.1611982823706011"><ele>109.0</ele><time>2026-04-19T15:31:01.996Z</time></trkpt><trkpt lat="44.7404471945318" lon="0.16108109102139365"><ele>109.0</ele><time>2026-04-19T15:31:03.996Z</time></trkpt><trkpt lat="44.74052338242325" lon="0.16108761120892334"><ele>109.0</ele><time>2026-04-19T15:31:06.996Z</time></trkpt><trkpt lat="44.740586042865644" lon="0.16107710978539871"><ele>109.0</ele><time>2026-04-19T15:31:08.996Z</time></trkpt></trkseg></trk></gpx>